<?xml version="1.0" encoding="UTF-8" standalone="no" ?>
<gpx xmlns="http://www.topografix.com/GPX/1/1" xmlns:xsi="http://www.w3.org/2001/XMLSchema-instance" xsi:schemaLocation="http://www.topografix.com/GPX/1/1 http://www.topografix.com/GPX/1/1/gpx.xsd" version="1.1" creator="VisuGPX - https://www.visugpx.com">
  <metadata>
    <name>Entre ruisseau et canal</name>
    <desc><![CDATA[Spézet (29)

recommandations : vous munir d'un bâton, et de vêtement long, la végétation peut être abondante par endroit.

Agréable parcours entre le ruisseau du Crann, le canal de l'Aulne et ses écluses.

Du bourg de Spézet prendre la direction ouest passer devant le cimetière et continuer jusqu'au village de Kerdaniel début de la randonnée, se garer à l'entrée du village.
Prendre le chemin direction sud et descendre jusqu'au ruisseau du Crann 
continuer sur le chemin à gauche, ne pas traverser le pont , le chemin serpente le long du ruisseau, une fois sortie du sous bois suivre le chemin agricole qui remonte au village de Pelae , arrivez sur la route , prendre à gauche puis le 1er chemin à droite, continuer le chemin qui entre dans le bois jusqu'à entendre le déversoir de l'écluse de Meros.
Quittez le chemin et descendre sur le hallage,admirez l'écluse de Meros, très bien arborée, continuez sur le hallage, passez l'écluse de Rosili .
Prendre le chemin sur la gauche qui remonte un peu raide pour finir jusqu'au point de départ.]]></desc>
  </metadata>
  <trk>
    <name><![CDATA[Hiking]]></name>
    <trkseg>
      <trkpt lat="48.19714" lon="-3.75511">
        <ele>93.7</ele>
        <time>2017-09-23T08:21:39.000Z</time>
      </trkpt>
      <trkpt lat="48.19713" lon="-3.7551">
        <ele>93.7</ele>
        <time>2017-09-23T08:21:40.000Z</time>
      </trkpt>
      <trkpt lat="48.19713" lon="-3.75509">
        <ele>93.7</ele>
        <time>2017-09-23T08:21:41.000Z</time>
      </trkpt>
      <trkpt lat="48.19712" lon="-3.75508">
        <ele>93.7</ele>
        <time>2017-09-23T08:21:42.000Z</time>
      </trkpt>
      <trkpt lat="48.19712" lon="-3.75507">
        <ele>93.6</ele>
        <time>2017-09-23T08:21:43.000Z</time>
      </trkpt>
      <trkpt lat="48.19712" lon="-3.75507">
        <ele>93.6</ele>
        <time>2017-09-23T08:21:44.000Z</time>
      </trkpt>
      <trkpt lat="48.19712" lon="-3.75506">
        <ele>93.6</ele>
        <time>2017-09-23T08:21:45.000Z</time>
      </trkpt>
      <trkpt lat="48.19712" lon="-3.75505">
        <ele>93.6</ele>
        <time>2017-09-23T08:21:46.000Z</time>
      </trkpt>
      <trkpt lat="48.19712" lon="-3.75504">
        <ele>93.6</ele>
        <time>2017-09-23T08:21:47.000Z</time>
      </trkpt>
      <trkpt lat="48.19712" lon="-3.75503">
        <ele>93.6</ele>
        <time>2017-09-23T08:21:48.000Z</time>
      </trkpt>
      <trkpt lat="48.19712" lon="-3.75502">
        <ele>93.6</ele>
        <time>2017-09-23T08:21:49.000Z</time>
      </trkpt>
      <trkpt lat="48.19712" lon="-3.75501">
        <ele>93.6</ele>
        <time>2017-09-23T08:21:50.000Z</time>
      </trkpt>
      <trkpt lat="48.19713" lon="-3.755">
        <ele>93.6</ele>
        <time>2017-09-23T08:21:51.000Z</time>
      </trkpt>
      <trkpt lat="48.19713" lon="-3.75499">
        <ele>93.6</ele>
        <time>2017-09-23T08:21:52.000Z</time>
      </trkpt>
      <trkpt lat="48.19713" lon="-3.75498">
        <ele>93.6</ele>
        <time>2017-09-23T08:21:53.000Z</time>
      </trkpt>
      <trkpt lat="48.19713" lon="-3.75497">
        <ele>93.6</ele>
        <time>2017-09-23T08:21:54.000Z</time>
      </trkpt>
      <trkpt lat="48.19714" lon="-3.75496">
        <ele>93.6</ele>
        <time>2017-09-23T08:21:55.000Z</time>
      </trkpt>
      <trkpt lat="48.19714" lon="-3.75495">
        <ele>93.6</ele>
        <time>2017-09-23T08:21:56.000Z</time>
      </trkpt>
      <trkpt lat="48.19714" lon="-3.75495">
        <ele>93.6</ele>
        <time>2017-09-23T08:21:57.000Z</time>
      </trkpt>
      <trkpt lat="48.19715" lon="-3.75494">
        <ele>93.6</ele>
        <time>2017-09-23T08:21:58.000Z</time>
      </trkpt>
      <trkpt lat="48.19715" lon="-3.75493">
        <ele>93.6</ele>
        <time>2017-09-23T08:21:59.000Z</time>
      </trkpt>
      <trkpt lat="48.19715" lon="-3.75492">
        <ele>93.6</ele>
        <time>2017-09-23T08:22:00.000Z</time>
      </trkpt>
      <trkpt lat="48.19716" lon="-3.75492">
        <ele>93.6</ele>
        <time>2017-09-23T08:22:01.000Z</time>
      </trkpt>
      <trkpt lat="48.19716" lon="-3.75491">
        <ele>93.6</ele>
        <time>2017-09-23T08:22:02.000Z</time>
      </trkpt>
      <trkpt lat="48.19716" lon="-3.75491">
        <ele>93.6</ele>
        <time>2017-09-23T08:22:03.000Z</time>
      </trkpt>
      <trkpt lat="48.19716" lon="-3.7549">
        <ele>93.6</ele>
        <time>2017-09-23T08:22:04.000Z</time>
      </trkpt>
      <trkpt lat="48.19716" lon="-3.7549">
        <ele>93.6</ele>
        <time>2017-09-23T08:22:05.000Z</time>
      </trkpt>
      <trkpt lat="48.19716" lon="-3.75489">
        <ele>93.6</ele>
        <time>2017-09-23T08:22:06.000Z</time>
      </trkpt>
      <trkpt lat="48.19716" lon="-3.75489">
        <ele>93.6</ele>
        <time>2017-09-23T08:22:07.000Z</time>
      </trkpt>
      <trkpt lat="48.19716" lon="-3.75489">
        <ele>93.6</ele>
        <time>2017-09-23T08:22:08.000Z</time>
      </trkpt>
      <trkpt lat="48.19716" lon="-3.75489">
        <ele>93.6</ele>
        <time>2017-09-23T08:22:09.000Z</time>
      </trkpt>
      <trkpt lat="48.19716" lon="-3.75489">
        <ele>93.6</ele>
        <time>2017-09-23T08:22:10.000Z</time>
      </trkpt>
      <trkpt lat="48.19716" lon="-3.75489">
        <ele>93.6</ele>
        <time>2017-09-23T08:22:11.000Z</time>
      </trkpt>
      <trkpt lat="48.19715" lon="-3.75489">
        <ele>93.6</ele>
        <time>2017-09-23T08:22:12.000Z</time>
      </trkpt>
      <trkpt lat="48.19715" lon="-3.75489">
        <ele>93.6</ele>
        <time>2017-09-23T08:22:13.000Z</time>
      </trkpt>
      <trkpt lat="48.19714" lon="-3.7549">
        <ele>93.6</ele>
        <time>2017-09-23T08:22:14.000Z</time>
      </trkpt>
      <trkpt lat="48.19714" lon="-3.7549">
        <ele>93.6</ele>
        <time>2017-09-23T08:22:15.000Z</time>
      </trkpt>
      <trkpt lat="48.19714" lon="-3.75491">
        <ele>93.6</ele>
        <time>2017-09-23T08:22:16.000Z</time>
      </trkpt>
      <trkpt lat="48.19713" lon="-3.75492">
        <ele>93.6</ele>
        <time>2017-09-23T08:22:17.000Z</time>
      </trkpt>
      <trkpt lat="48.19713" lon="-3.75493">
        <ele>93.6</ele>
        <time>2017-09-23T08:22:18.000Z</time>
      </trkpt>
      <trkpt lat="48.19712" lon="-3.75494">
        <ele>93.5</ele>
        <time>2017-09-23T08:22:19.000Z</time>
      </trkpt>
      <trkpt lat="48.19712" lon="-3.75495">
        <ele>93.5</ele>
        <time>2017-09-23T08:22:20.000Z</time>
      </trkpt>
      <trkpt lat="48.19711" lon="-3.75497">
        <ele>93.5</ele>
        <time>2017-09-23T08:22:21.000Z</time>
      </trkpt>
      <trkpt lat="48.19711" lon="-3.75498">
        <ele>93.5</ele>
        <time>2017-09-23T08:22:22.000Z</time>
      </trkpt>
      <trkpt lat="48.19711" lon="-3.755">
        <ele>93.5</ele>
        <time>2017-09-23T08:22:23.000Z</time>
      </trkpt>
      <trkpt lat="48.19711" lon="-3.75502">
        <ele>93.6</ele>
        <time>2017-09-23T08:22:24.000Z</time>
      </trkpt>
      <trkpt lat="48.19711" lon="-3.75503">
        <ele>93.6</ele>
        <time>2017-09-23T08:22:25.000Z</time>
      </trkpt>
      <trkpt lat="48.19711" lon="-3.75505">
        <ele>93.6</ele>
        <time>2017-09-23T08:22:26.000Z</time>
      </trkpt>
      <trkpt lat="48.19711" lon="-3.75507">
        <ele>93.6</ele>
        <time>2017-09-23T08:22:27.000Z</time>
      </trkpt>
      <trkpt lat="48.19711" lon="-3.75508">
        <ele>93.6</ele>
        <time>2017-09-23T08:22:28.000Z</time>
      </trkpt>
      <trkpt lat="48.19711" lon="-3.75509">
        <ele>93.7</ele>
        <time>2017-09-23T08:22:29.000Z</time>
      </trkpt>
      <trkpt lat="48.19712" lon="-3.7551">
        <ele>93.7</ele>
        <time>2017-09-23T08:22:30.000Z</time>
      </trkpt>
      <trkpt lat="48.19712" lon="-3.75511">
        <ele>93.7</ele>
        <time>2017-09-23T08:22:31.000Z</time>
      </trkpt>
      <trkpt lat="48.19713" lon="-3.75512">
        <ele>93.7</ele>
        <time>2017-09-23T08:22:32.000Z</time>
      </trkpt>
      <trkpt lat="48.19713" lon="-3.75512">
        <ele>93.7</ele>
        <time>2017-09-23T08:22:33.000Z</time>
      </trkpt>
      <trkpt lat="48.19714" lon="-3.75512">
        <ele>93.7</ele>
        <time>2017-09-23T08:22:34.000Z</time>
      </trkpt>
      <trkpt lat="48.19715" lon="-3.75512">
        <ele>93.7</ele>
        <time>2017-09-23T08:22:35.000Z</time>
      </trkpt>
      <trkpt lat="48.19716" lon="-3.75512">
        <ele>93.8</ele>
        <time>2017-09-23T08:22:36.000Z</time>
      </trkpt>
      <trkpt lat="48.19716" lon="-3.75512">
        <ele>93.8</ele>
        <time>2017-09-23T08:22:37.000Z</time>
      </trkpt>
      <trkpt lat="48.19717" lon="-3.75511">
        <ele>93.8</ele>
        <time>2017-09-23T08:22:38.000Z</time>
      </trkpt>
      <trkpt lat="48.19718" lon="-3.75511">
        <ele>93.8</ele>
        <time>2017-09-23T08:22:39.000Z</time>
      </trkpt>
      <trkpt lat="48.19719" lon="-3.7551">
        <ele>93.8</ele>
        <time>2017-09-23T08:22:40.000Z</time>
      </trkpt>
      <trkpt lat="48.19719" lon="-3.75509">
        <ele>93.8</ele>
        <time>2017-09-23T08:22:41.000Z</time>
      </trkpt>
      <trkpt lat="48.1972" lon="-3.75508">
        <ele>93.8</ele>
        <time>2017-09-23T08:22:42.000Z</time>
      </trkpt>
      <trkpt lat="48.19721" lon="-3.75507">
        <ele>93.8</ele>
        <time>2017-09-23T08:22:43.000Z</time>
      </trkpt>
      <trkpt lat="48.19722" lon="-3.75506">
        <ele>93.8</ele>
        <time>2017-09-23T08:22:44.000Z</time>
      </trkpt>
      <trkpt lat="48.19722" lon="-3.75505">
        <ele>93.7</ele>
        <time>2017-09-23T08:22:45.000Z</time>
      </trkpt>
      <trkpt lat="48.19723" lon="-3.75504">
        <ele>93.7</ele>
        <time>2017-09-23T08:22:46.000Z</time>
      </trkpt>
      <trkpt lat="48.19724" lon="-3.75503">
        <ele>93.7</ele>
        <time>2017-09-23T08:22:47.000Z</time>
      </trkpt>
      <trkpt lat="48.19725" lon="-3.75502">
        <ele>93.7</ele>
        <time>2017-09-23T08:22:48.000Z</time>
      </trkpt>
      <trkpt lat="48.19725" lon="-3.75501">
        <ele>93.7</ele>
        <time>2017-09-23T08:22:49.000Z</time>
      </trkpt>
      <trkpt lat="48.19726" lon="-3.755">
        <ele>93.7</ele>
        <time>2017-09-23T08:22:50.000Z</time>
      </trkpt>
      <trkpt lat="48.19727" lon="-3.75499">
        <ele>93.7</ele>
        <time>2017-09-23T08:22:51.000Z</time>
      </trkpt>
      <trkpt lat="48.19728" lon="-3.75498">
        <ele>93.7</ele>
        <time>2017-09-23T08:22:52.000Z</time>
      </trkpt>
      <trkpt lat="48.19728" lon="-3.75497">
        <ele>93.7</ele>
        <time>2017-09-23T08:22:53.000Z</time>
      </trkpt>
      <trkpt lat="48.19729" lon="-3.75496">
        <ele>93.7</ele>
        <time>2017-09-23T08:22:54.000Z</time>
      </trkpt>
      <trkpt lat="48.1973" lon="-3.75496">
        <ele>93.8</ele>
        <time>2017-09-23T08:22:55.000Z</time>
      </trkpt>
      <trkpt lat="48.1973" lon="-3.75495">
        <ele>93.8</ele>
        <time>2017-09-23T08:22:56.000Z</time>
      </trkpt>
      <trkpt lat="48.19731" lon="-3.75495">
        <ele>93.8</ele>
        <time>2017-09-23T08:22:57.000Z</time>
      </trkpt>
      <trkpt lat="48.19731" lon="-3.75494">
        <ele>93.8</ele>
        <time>2017-09-23T08:22:58.000Z</time>
      </trkpt>
      <trkpt lat="48.19731" lon="-3.75494">
        <ele>93.8</ele>
        <time>2017-09-23T08:22:59.000Z</time>
      </trkpt>
      <trkpt lat="48.19732" lon="-3.75494">
        <ele>93.8</ele>
        <time>2017-09-23T08:23:00.000Z</time>
      </trkpt>
      <trkpt lat="48.19732" lon="-3.75493">
        <ele>93.8</ele>
        <time>2017-09-23T08:23:01.000Z</time>
      </trkpt>
      <trkpt lat="48.19732" lon="-3.75493">
        <ele>93.8</ele>
        <time>2017-09-23T08:23:02.000Z</time>
      </trkpt>
      <trkpt lat="48.19732" lon="-3.75493">
        <ele>93.8</ele>
        <time>2017-09-23T08:23:03.000Z</time>
      </trkpt>
      <trkpt lat="48.19732" lon="-3.75493">
        <ele>93.8</ele>
        <time>2017-09-23T08:23:04.000Z</time>
      </trkpt>
      <trkpt lat="48.19732" lon="-3.75493">
        <ele>93.8</ele>
        <time>2017-09-23T08:23:05.000Z</time>
      </trkpt>
      <trkpt lat="48.19732" lon="-3.75493">
        <ele>93.8</ele>
        <time>2017-09-23T08:23:06.000Z</time>
      </trkpt>
      <trkpt lat="48.19732" lon="-3.75493">
        <ele>93.8</ele>
        <time>2017-09-23T08:23:07.000Z</time>
      </trkpt>
      <trkpt lat="48.19732" lon="-3.75493">
        <ele>93.8</ele>
        <time>2017-09-23T08:23:08.000Z</time>
      </trkpt>
      <trkpt lat="48.19732" lon="-3.75493">
        <ele>93.8</ele>
        <time>2017-09-23T08:23:09.000Z</time>
      </trkpt>
      <trkpt lat="48.19732" lon="-3.75493">
        <ele>93.8</ele>
        <time>2017-09-23T08:23:10.000Z</time>
      </trkpt>
      <trkpt lat="48.19733" lon="-3.75492">
        <ele>93.8</ele>
        <time>2017-09-23T08:23:11.000Z</time>
      </trkpt>
      <trkpt lat="48.19733" lon="-3.75492">
        <ele>93.8</ele>
        <time>2017-09-23T08:23:12.000Z</time>
      </trkpt>
      <trkpt lat="48.19733" lon="-3.75492">
        <ele>93.8</ele>
        <time>2017-09-23T08:23:13.000Z</time>
      </trkpt>
      <trkpt lat="48.19733" lon="-3.75492">
        <ele>93.8</ele>
        <time>2017-09-23T08:23:14.000Z</time>
      </trkpt>
      <trkpt lat="48.19733" lon="-3.75492">
        <ele>93.8</ele>
        <time>2017-09-23T08:23:15.000Z</time>
      </trkpt>
      <trkpt lat="48.19733" lon="-3.75492">
        <ele>93.8</ele>
        <time>2017-09-23T08:23:16.000Z</time>
      </trkpt>
      <trkpt lat="48.19734" lon="-3.75492">
        <ele>93.8</ele>
        <time>2017-09-23T08:23:17.000Z</time>
      </trkpt>
      <trkpt lat="48.19734" lon="-3.75492">
        <ele>93.8</ele>
        <time>2017-09-23T08:23:18.000Z</time>
      </trkpt>
      <trkpt lat="48.19734" lon="-3.75492">
        <ele>93.8</ele>
        <time>2017-09-23T08:23:19.000Z</time>
      </trkpt>
      <trkpt lat="48.19734" lon="-3.75492">
        <ele>93.8</ele>
        <time>2017-09-23T08:23:20.000Z</time>
      </trkpt>
      <trkpt lat="48.19734" lon="-3.75492">
        <ele>93.8</ele>
        <time>2017-09-23T08:23:21.000Z</time>
      </trkpt>
      <trkpt lat="48.19734" lon="-3.75492">
        <ele>93.8</ele>
        <time>2017-09-23T08:23:22.000Z</time>
      </trkpt>
      <trkpt lat="48.19734" lon="-3.75492">
        <ele>93.8</ele>
        <time>2017-09-23T08:23:23.000Z</time>
      </trkpt>
      <trkpt lat="48.19734" lon="-3.75492">
        <ele>93.8</ele>
        <time>2017-09-23T08:23:24.000Z</time>
      </trkpt>
      <trkpt lat="48.19734" lon="-3.75492">
        <ele>93.8</ele>
        <time>2017-09-23T08:23:25.000Z</time>
      </trkpt>
      <trkpt lat="48.19734" lon="-3.75492">
        <ele>93.8</ele>
        <time>2017-09-23T08:23:26.000Z</time>
      </trkpt>
      <trkpt lat="48.19734" lon="-3.75492">
        <ele>93.8</ele>
        <time>2017-09-23T08:23:27.000Z</time>
      </trkpt>
      <trkpt lat="48.19735" lon="-3.75493">
        <ele>93.8</ele>
        <time>2017-09-23T08:23:28.000Z</time>
      </trkpt>
      <trkpt lat="48.19735" lon="-3.75493">
        <ele>93.8</ele>
        <time>2017-09-23T08:23:29.000Z</time>
      </trkpt>
      <trkpt lat="48.19736" lon="-3.75493">
        <ele>93.8</ele>
        <time>2017-09-23T08:23:30.000Z</time>
      </trkpt>
      <trkpt lat="48.19737" lon="-3.75492">
        <ele>93.8</ele>
        <time>2017-09-23T08:23:31.000Z</time>
      </trkpt>
      <trkpt lat="48.19737" lon="-3.7549">
        <ele>93.8</ele>
        <time>2017-09-23T08:23:32.000Z</time>
      </trkpt>
      <trkpt lat="48.19738" lon="-3.75489">
        <ele>93.9</ele>
        <time>2017-09-23T08:23:33.000Z</time>
      </trkpt>
      <trkpt lat="48.19738" lon="-3.75488">
        <ele>93.9</ele>
        <time>2017-09-23T08:23:34.000Z</time>
      </trkpt>
      <trkpt lat="48.19739" lon="-3.75487">
        <ele>93.9</ele>
        <time>2017-09-23T08:23:35.000Z</time>
      </trkpt>
      <trkpt lat="48.19739" lon="-3.75487">
        <ele>93.9</ele>
        <time>2017-09-23T08:23:36.000Z</time>
      </trkpt>
      <trkpt lat="48.19739" lon="-3.75486">
        <ele>93.9</ele>
        <time>2017-09-23T08:23:37.000Z</time>
      </trkpt>
      <trkpt lat="48.19739" lon="-3.75486">
        <ele>93.9</ele>
        <time>2017-09-23T08:23:38.000Z</time>
      </trkpt>
      <trkpt lat="48.19739" lon="-3.75486">
        <ele>93.9</ele>
        <time>2017-09-23T08:23:39.000Z</time>
      </trkpt>
      <trkpt lat="48.19739" lon="-3.75486">
        <ele>93.9</ele>
        <time>2017-09-23T08:23:40.000Z</time>
      </trkpt>
      <trkpt lat="48.19739" lon="-3.75486">
        <ele>93.9</ele>
        <time>2017-09-23T08:23:41.000Z</time>
      </trkpt>
      <trkpt lat="48.19739" lon="-3.75486">
        <ele>93.9</ele>
        <time>2017-09-23T08:23:42.000Z</time>
      </trkpt>
      <trkpt lat="48.19739" lon="-3.75486">
        <ele>93.9</ele>
        <time>2017-09-23T08:23:43.000Z</time>
      </trkpt>
      <trkpt lat="48.19739" lon="-3.75486">
        <ele>93.9</ele>
        <time>2017-09-23T08:23:44.000Z</time>
      </trkpt>
      <trkpt lat="48.19739" lon="-3.75486">
        <ele>93.9</ele>
        <time>2017-09-23T08:23:45.000Z</time>
      </trkpt>
      <trkpt lat="48.19739" lon="-3.75486">
        <ele>93.9</ele>
        <time>2017-09-23T08:23:46.000Z</time>
      </trkpt>
      <trkpt lat="48.19739" lon="-3.75486">
        <ele>93.9</ele>
        <time>2017-09-23T08:23:47.000Z</time>
      </trkpt>
      <trkpt lat="48.19739" lon="-3.75486">
        <ele>93.9</ele>
        <time>2017-09-23T08:23:48.000Z</time>
      </trkpt>
      <trkpt lat="48.19739" lon="-3.75486">
        <ele>93.9</ele>
        <time>2017-09-23T08:23:49.000Z</time>
      </trkpt>
      <trkpt lat="48.19739" lon="-3.75486">
        <ele>93.9</ele>
        <time>2017-09-23T08:23:50.000Z</time>
      </trkpt>
      <trkpt lat="48.19739" lon="-3.75486">
        <ele>93.9</ele>
        <time>2017-09-23T08:23:51.000Z</time>
      </trkpt>
      <trkpt lat="48.19739" lon="-3.75486">
        <ele>93.9</ele>
        <time>2017-09-23T08:23:52.000Z</time>
      </trkpt>
      <trkpt lat="48.19739" lon="-3.75486">
        <ele>93.9</ele>
        <time>2017-09-23T08:23:53.000Z</time>
      </trkpt>
      <trkpt lat="48.19739" lon="-3.75486">
        <ele>93.9</ele>
        <time>2017-09-23T08:23:54.000Z</time>
      </trkpt>
      <trkpt lat="48.19739" lon="-3.75486">
        <ele>93.9</ele>
        <time>2017-09-23T08:23:55.000Z</time>
      </trkpt>
      <trkpt lat="48.19739" lon="-3.75487">
        <ele>93.9</ele>
        <time>2017-09-23T08:23:56.000Z</time>
      </trkpt>
      <trkpt lat="48.19739" lon="-3.75487">
        <ele>93.9</ele>
        <time>2017-09-23T08:23:57.000Z</time>
      </trkpt>
      <trkpt lat="48.19738" lon="-3.75487">
        <ele>93.9</ele>
        <time>2017-09-23T08:23:58.000Z</time>
      </trkpt>
      <trkpt lat="48.19738" lon="-3.75488">
        <ele>93.9</ele>
        <time>2017-09-23T08:23:59.000Z</time>
      </trkpt>
      <trkpt lat="48.19738" lon="-3.75489">
        <ele>93.9</ele>
        <time>2017-09-23T08:24:00.000Z</time>
      </trkpt>
      <trkpt lat="48.19738" lon="-3.75489">
        <ele>93.9</ele>
        <time>2017-09-23T08:24:01.000Z</time>
      </trkpt>
      <trkpt lat="48.19737" lon="-3.7549">
        <ele>93.8</ele>
        <time>2017-09-23T08:24:02.000Z</time>
      </trkpt>
      <trkpt lat="48.19737" lon="-3.75491">
        <ele>93.8</ele>
        <time>2017-09-23T08:24:03.000Z</time>
      </trkpt>
      <trkpt lat="48.19737" lon="-3.75491">
        <ele>93.8</ele>
        <time>2017-09-23T08:24:04.000Z</time>
      </trkpt>
      <trkpt lat="48.19737" lon="-3.75492">
        <ele>93.8</ele>
        <time>2017-09-23T08:24:05.000Z</time>
      </trkpt>
      <trkpt lat="48.19736" lon="-3.75493">
        <ele>93.8</ele>
        <time>2017-09-23T08:24:06.000Z</time>
      </trkpt>
      <trkpt lat="48.19736" lon="-3.75493">
        <ele>93.8</ele>
        <time>2017-09-23T08:24:07.000Z</time>
      </trkpt>
      <trkpt lat="48.19736" lon="-3.75494">
        <ele>93.8</ele>
        <time>2017-09-23T08:24:08.000Z</time>
      </trkpt>
      <trkpt lat="48.19736" lon="-3.75494">
        <ele>93.8</ele>
        <time>2017-09-23T08:24:09.000Z</time>
      </trkpt>
      <trkpt lat="48.19736" lon="-3.75495">
        <ele>93.8</ele>
        <time>2017-09-23T08:24:10.000Z</time>
      </trkpt>
      <trkpt lat="48.19736" lon="-3.75495">
        <ele>93.8</ele>
        <time>2017-09-23T08:24:11.000Z</time>
      </trkpt>
      <trkpt lat="48.19736" lon="-3.75495">
        <ele>93.8</ele>
        <time>2017-09-23T08:24:12.000Z</time>
      </trkpt>
      <trkpt lat="48.19736" lon="-3.75495">
        <ele>93.8</ele>
        <time>2017-09-23T08:24:13.000Z</time>
      </trkpt>
      <trkpt lat="48.19736" lon="-3.75495">
        <ele>93.8</ele>
        <time>2017-09-23T08:24:14.000Z</time>
      </trkpt>
      <trkpt lat="48.19736" lon="-3.75495">
        <ele>93.8</ele>
        <time>2017-09-23T08:24:15.000Z</time>
      </trkpt>
      <trkpt lat="48.19736" lon="-3.75495">
        <ele>93.8</ele>
        <time>2017-09-23T08:24:16.000Z</time>
      </trkpt>
      <trkpt lat="48.19736" lon="-3.75495">
        <ele>93.8</ele>
        <time>2017-09-23T08:24:17.000Z</time>
      </trkpt>
      <trkpt lat="48.19736" lon="-3.75495">
        <ele>93.8</ele>
        <time>2017-09-23T08:24:18.000Z</time>
      </trkpt>
      <trkpt lat="48.19736" lon="-3.75495">
        <ele>93.8</ele>
        <time>2017-09-23T08:24:19.000Z</time>
      </trkpt>
      <trkpt lat="48.19736" lon="-3.75495">
        <ele>93.8</ele>
        <time>2017-09-23T08:24:20.000Z</time>
      </trkpt>
      <trkpt lat="48.19736" lon="-3.75495">
        <ele>93.8</ele>
        <time>2017-09-23T08:24:21.000Z</time>
      </trkpt>
      <trkpt lat="48.19736" lon="-3.75496">
        <ele>93.8</ele>
        <time>2017-09-23T08:24:22.000Z</time>
      </trkpt>
      <trkpt lat="48.19736" lon="-3.75496">
        <ele>93.8</ele>
        <time>2017-09-23T08:24:23.000Z</time>
      </trkpt>
      <trkpt lat="48.19736" lon="-3.75497">
        <ele>93.8</ele>
        <time>2017-09-23T08:24:24.000Z</time>
      </trkpt>
      <trkpt lat="48.19736" lon="-3.75497">
        <ele>93.8</ele>
        <time>2017-09-23T08:24:25.000Z</time>
      </trkpt>
      <trkpt lat="48.19736" lon="-3.75498">
        <ele>93.8</ele>
        <time>2017-09-23T08:24:26.000Z</time>
      </trkpt>
      <trkpt lat="48.19736" lon="-3.75498">
        <ele>93.8</ele>
        <time>2017-09-23T08:24:27.000Z</time>
      </trkpt>
      <trkpt lat="48.19736" lon="-3.75499">
        <ele>93.8</ele>
        <time>2017-09-23T08:24:28.000Z</time>
      </trkpt>
      <trkpt lat="48.19736" lon="-3.75499">
        <ele>93.8</ele>
        <time>2017-09-23T08:24:29.000Z</time>
      </trkpt>
      <trkpt lat="48.19736" lon="-3.75499">
        <ele>93.8</ele>
        <time>2017-09-23T08:24:30.000Z</time>
      </trkpt>
      <trkpt lat="48.19736" lon="-3.75499">
        <ele>93.8</ele>
        <time>2017-09-23T08:24:31.000Z</time>
      </trkpt>
      <trkpt lat="48.19736" lon="-3.75499">
        <ele>93.8</ele>
        <time>2017-09-23T08:24:32.000Z</time>
      </trkpt>
      <trkpt lat="48.19736" lon="-3.75499">
        <ele>93.8</ele>
        <time>2017-09-23T08:24:33.000Z</time>
      </trkpt>
      <trkpt lat="48.19736" lon="-3.75498">
        <ele>93.8</ele>
        <time>2017-09-23T08:24:34.000Z</time>
      </trkpt>
      <trkpt lat="48.19735" lon="-3.75498">
        <ele>93.8</ele>
        <time>2017-09-23T08:24:35.000Z</time>
      </trkpt>
      <trkpt lat="48.19735" lon="-3.75498">
        <ele>93.8</ele>
        <time>2017-09-23T08:24:36.000Z</time>
      </trkpt>
      <trkpt lat="48.19735" lon="-3.75498">
        <ele>93.8</ele>
        <time>2017-09-23T08:24:37.000Z</time>
      </trkpt>
      <trkpt lat="48.19735" lon="-3.75497">
        <ele>93.8</ele>
        <time>2017-09-23T08:24:38.000Z</time>
      </trkpt>
      <trkpt lat="48.19735" lon="-3.75497">
        <ele>93.8</ele>
        <time>2017-09-23T08:24:39.000Z</time>
      </trkpt>
      <trkpt lat="48.19735" lon="-3.75497">
        <ele>93.8</ele>
        <time>2017-09-23T08:24:40.000Z</time>
      </trkpt>
      <trkpt lat="48.19735" lon="-3.75497">
        <ele>93.8</ele>
        <time>2017-09-23T08:24:41.000Z</time>
      </trkpt>
      <trkpt lat="48.19735" lon="-3.75497">
        <ele>93.8</ele>
        <time>2017-09-23T08:24:42.000Z</time>
      </trkpt>
      <trkpt lat="48.19735" lon="-3.75497">
        <ele>93.8</ele>
        <time>2017-09-23T08:24:43.000Z</time>
      </trkpt>
      <trkpt lat="48.19735" lon="-3.75497">
        <ele>93.8</ele>
        <time>2017-09-23T08:24:44.000Z</time>
      </trkpt>
      <trkpt lat="48.19735" lon="-3.75497">
        <ele>93.8</ele>
        <time>2017-09-23T08:24:45.000Z</time>
      </trkpt>
      <trkpt lat="48.19735" lon="-3.75496">
        <ele>93.8</ele>
        <time>2017-09-23T08:24:46.000Z</time>
      </trkpt>
      <trkpt lat="48.19735" lon="-3.75496">
        <ele>93.8</ele>
        <time>2017-09-23T08:24:47.000Z</time>
      </trkpt>
      <trkpt lat="48.19735" lon="-3.75496">
        <ele>93.8</ele>
        <time>2017-09-23T08:24:48.000Z</time>
      </trkpt>
      <trkpt lat="48.19735" lon="-3.75496">
        <ele>93.8</ele>
        <time>2017-09-23T08:24:49.000Z</time>
      </trkpt>
      <trkpt lat="48.19735" lon="-3.75496">
        <ele>93.8</ele>
        <time>2017-09-23T08:24:50.000Z</time>
      </trkpt>
      <trkpt lat="48.19735" lon="-3.75496">
        <ele>93.8</ele>
        <time>2017-09-23T08:24:51.000Z</time>
      </trkpt>
      <trkpt lat="48.19735" lon="-3.75496">
        <ele>93.8</ele>
        <time>2017-09-23T08:24:52.000Z</time>
      </trkpt>
      <trkpt lat="48.19735" lon="-3.75496">
        <ele>93.8</ele>
        <time>2017-09-23T08:24:53.000Z</time>
      </trkpt>
      <trkpt lat="48.19735" lon="-3.75496">
        <ele>93.8</ele>
        <time>2017-09-23T08:24:54.000Z</time>
      </trkpt>
      <trkpt lat="48.19735" lon="-3.75496">
        <ele>93.8</ele>
        <time>2017-09-23T08:24:55.000Z</time>
      </trkpt>
      <trkpt lat="48.19735" lon="-3.75496">
        <ele>93.8</ele>
        <time>2017-09-23T08:24:56.000Z</time>
      </trkpt>
      <trkpt lat="48.19735" lon="-3.75496">
        <ele>93.8</ele>
        <time>2017-09-23T08:24:57.000Z</time>
      </trkpt>
      <trkpt lat="48.19735" lon="-3.75496">
        <ele>93.8</ele>
        <time>2017-09-23T08:24:58.000Z</time>
      </trkpt>
      <trkpt lat="48.19735" lon="-3.75496">
        <ele>93.8</ele>
        <time>2017-09-23T08:24:59.000Z</time>
      </trkpt>
      <trkpt lat="48.19735" lon="-3.75496">
        <ele>93.8</ele>
        <time>2017-09-23T08:25:00.000Z</time>
      </trkpt>
      <trkpt lat="48.19735" lon="-3.75496">
        <ele>93.8</ele>
        <time>2017-09-23T08:25:01.000Z</time>
      </trkpt>
      <trkpt lat="48.19735" lon="-3.75496">
        <ele>93.8</ele>
        <time>2017-09-23T08:25:02.000Z</time>
      </trkpt>
      <trkpt lat="48.19735" lon="-3.75496">
        <ele>93.8</ele>
        <time>2017-09-23T08:25:03.000Z</time>
      </trkpt>
      <trkpt lat="48.19734" lon="-3.75496">
        <ele>93.8</ele>
        <time>2017-09-23T08:25:04.000Z</time>
      </trkpt>
      <trkpt lat="48.19734" lon="-3.75496">
        <ele>93.8</ele>
        <time>2017-09-23T08:25:05.000Z</time>
      </trkpt>
      <trkpt lat="48.19734" lon="-3.75496">
        <ele>93.8</ele>
        <time>2017-09-23T08:25:06.000Z</time>
      </trkpt>
      <trkpt lat="48.19734" lon="-3.75496">
        <ele>93.8</ele>
        <time>2017-09-23T08:25:07.000Z</time>
      </trkpt>
      <trkpt lat="48.19734" lon="-3.75496">
        <ele>93.8</ele>
        <time>2017-09-23T08:25:08.000Z</time>
      </trkpt>
      <trkpt lat="48.19734" lon="-3.75496">
        <ele>93.8</ele>
        <time>2017-09-23T08:25:09.000Z</time>
      </trkpt>
      <trkpt lat="48.19734" lon="-3.75496">
        <ele>93.8</ele>
        <time>2017-09-23T08:25:10.000Z</time>
      </trkpt>
      <trkpt lat="48.19734" lon="-3.75497">
        <ele>93.8</ele>
        <time>2017-09-23T08:25:11.000Z</time>
      </trkpt>
      <trkpt lat="48.19733" lon="-3.75497">
        <ele>93.8</ele>
        <time>2017-09-23T08:25:12.000Z</time>
      </trkpt>
      <trkpt lat="48.19733" lon="-3.75497">
        <ele>93.8</ele>
        <time>2017-09-23T08:25:13.000Z</time>
      </trkpt>
      <trkpt lat="48.19733" lon="-3.75497">
        <ele>93.8</ele>
        <time>2017-09-23T08:25:14.000Z</time>
      </trkpt>
      <trkpt lat="48.19733" lon="-3.75497">
        <ele>93.8</ele>
        <time>2017-09-23T08:25:15.000Z</time>
      </trkpt>
      <trkpt lat="48.19733" lon="-3.75497">
        <ele>93.8</ele>
        <time>2017-09-23T08:25:16.000Z</time>
      </trkpt>
      <trkpt lat="48.19732" lon="-3.75497">
        <ele>93.8</ele>
        <time>2017-09-23T08:25:17.000Z</time>
      </trkpt>
      <trkpt lat="48.19732" lon="-3.75497">
        <ele>93.8</ele>
        <time>2017-09-23T08:25:18.000Z</time>
      </trkpt>
      <trkpt lat="48.19732" lon="-3.75497">
        <ele>93.8</ele>
        <time>2017-09-23T08:25:19.000Z</time>
      </trkpt>
      <trkpt lat="48.19732" lon="-3.75497">
        <ele>93.8</ele>
        <time>2017-09-23T08:25:20.000Z</time>
      </trkpt>
      <trkpt lat="48.19732" lon="-3.75497">
        <ele>93.8</ele>
        <time>2017-09-23T08:25:21.000Z</time>
      </trkpt>
      <trkpt lat="48.19732" lon="-3.75497">
        <ele>93.8</ele>
        <time>2017-09-23T08:25:22.000Z</time>
      </trkpt>
      <trkpt lat="48.19732" lon="-3.75497">
        <ele>93.8</ele>
        <time>2017-09-23T08:25:23.000Z</time>
      </trkpt>
      <trkpt lat="48.19732" lon="-3.75497">
        <ele>93.8</ele>
        <time>2017-09-23T08:25:24.000Z</time>
      </trkpt>
      <trkpt lat="48.19732" lon="-3.75497">
        <ele>93.8</ele>
        <time>2017-09-23T08:25:25.000Z</time>
      </trkpt>
      <trkpt lat="48.19732" lon="-3.75497">
        <ele>93.8</ele>
        <time>2017-09-23T08:25:26.000Z</time>
      </trkpt>
      <trkpt lat="48.19732" lon="-3.75497">
        <ele>93.8</ele>
        <time>2017-09-23T08:25:27.000Z</time>
      </trkpt>
      <trkpt lat="48.19732" lon="-3.75497">
        <ele>93.8</ele>
        <time>2017-09-23T08:25:28.000Z</time>
      </trkpt>
      <trkpt lat="48.19732" lon="-3.75497">
        <ele>93.8</ele>
        <time>2017-09-23T08:25:29.000Z</time>
      </trkpt>
      <trkpt lat="48.19732" lon="-3.75497">
        <ele>93.8</ele>
        <time>2017-09-23T08:25:30.000Z</time>
      </trkpt>
      <trkpt lat="48.19732" lon="-3.75497">
        <ele>93.8</ele>
        <time>2017-09-23T08:25:31.000Z</time>
      </trkpt>
      <trkpt lat="48.19732" lon="-3.75497">
        <ele>93.8</ele>
        <time>2017-09-23T08:25:32.000Z</time>
      </trkpt>
      <trkpt lat="48.19732" lon="-3.75497">
        <ele>93.8</ele>
        <time>2017-09-23T08:25:33.000Z</time>
      </trkpt>
      <trkpt lat="48.19732" lon="-3.75497">
        <ele>93.8</ele>
        <time>2017-09-23T08:25:34.000Z</time>
      </trkpt>
      <trkpt lat="48.19732" lon="-3.75497">
        <ele>93.8</ele>
        <time>2017-09-23T08:25:35.000Z</time>
      </trkpt>
      <trkpt lat="48.19732" lon="-3.75497">
        <ele>93.8</ele>
        <time>2017-09-23T08:25:36.000Z</time>
      </trkpt>
      <trkpt lat="48.19732" lon="-3.75497">
        <ele>93.8</ele>
        <time>2017-09-23T08:25:37.000Z</time>
      </trkpt>
      <trkpt lat="48.19731" lon="-3.75497">
        <ele>93.8</ele>
        <time>2017-09-23T08:25:38.000Z</time>
      </trkpt>
      <trkpt lat="48.19731" lon="-3.75496">
        <ele>93.8</ele>
        <time>2017-09-23T08:25:39.000Z</time>
      </trkpt>
      <trkpt lat="48.19731" lon="-3.75496">
        <ele>93.8</ele>
        <time>2017-09-23T08:25:40.000Z</time>
      </trkpt>
      <trkpt lat="48.19731" lon="-3.75496">
        <ele>93.8</ele>
        <time>2017-09-23T08:25:41.000Z</time>
      </trkpt>
      <trkpt lat="48.19731" lon="-3.75496">
        <ele>93.8</ele>
        <time>2017-09-23T08:25:42.000Z</time>
      </trkpt>
      <trkpt lat="48.1973" lon="-3.75496">
        <ele>93.8</ele>
        <time>2017-09-23T08:25:43.000Z</time>
      </trkpt>
      <trkpt lat="48.19729" lon="-3.75496">
        <ele>93.7</ele>
        <time>2017-09-23T08:25:44.000Z</time>
      </trkpt>
      <trkpt lat="48.19728" lon="-3.75497">
        <ele>93.7</ele>
        <time>2017-09-23T08:25:45.000Z</time>
      </trkpt>
      <trkpt lat="48.19727" lon="-3.75497">
        <ele>93.7</ele>
        <time>2017-09-23T08:25:46.000Z</time>
      </trkpt>
      <trkpt lat="48.19726" lon="-3.75498">
        <ele>93.7</ele>
        <time>2017-09-23T08:25:47.000Z</time>
      </trkpt>
      <trkpt lat="48.19725" lon="-3.75498">
        <ele>93.7</ele>
        <time>2017-09-23T08:25:48.000Z</time>
      </trkpt>
      <trkpt lat="48.19724" lon="-3.75499">
        <ele>93.7</ele>
        <time>2017-09-23T08:25:49.000Z</time>
      </trkpt>
      <trkpt lat="48.19723" lon="-3.755">
        <ele>93.7</ele>
        <time>2017-09-23T08:25:50.000Z</time>
      </trkpt>
      <trkpt lat="48.19722" lon="-3.755">
        <ele>93.7</ele>
        <time>2017-09-23T08:25:51.000Z</time>
      </trkpt>
      <trkpt lat="48.19721" lon="-3.75501">
        <ele>93.7</ele>
        <time>2017-09-23T08:25:52.000Z</time>
      </trkpt>
      <trkpt lat="48.19721" lon="-3.75502">
        <ele>93.7</ele>
        <time>2017-09-23T08:25:53.000Z</time>
      </trkpt>
      <trkpt lat="48.1972" lon="-3.75503">
        <ele>93.7</ele>
        <time>2017-09-23T08:25:54.000Z</time>
      </trkpt>
      <trkpt lat="48.19719" lon="-3.75504">
        <ele>93.7</ele>
        <time>2017-09-23T08:25:55.000Z</time>
      </trkpt>
      <trkpt lat="48.19718" lon="-3.75504">
        <ele>93.7</ele>
        <time>2017-09-23T08:25:56.000Z</time>
      </trkpt>
      <trkpt lat="48.19718" lon="-3.75505">
        <ele>93.7</ele>
        <time>2017-09-23T08:25:57.000Z</time>
      </trkpt>
      <trkpt lat="48.19717" lon="-3.75506">
        <ele>93.7</ele>
        <time>2017-09-23T08:25:58.000Z</time>
      </trkpt>
      <trkpt lat="48.19716" lon="-3.75507">
        <ele>93.7</ele>
        <time>2017-09-23T08:25:59.000Z</time>
      </trkpt>
      <trkpt lat="48.19715" lon="-3.75507">
        <ele>93.7</ele>
        <time>2017-09-23T08:26:00.000Z</time>
      </trkpt>
      <trkpt lat="48.19714" lon="-3.75508">
        <ele>93.7</ele>
        <time>2017-09-23T08:26:01.000Z</time>
      </trkpt>
      <trkpt lat="48.19714" lon="-3.75509">
        <ele>93.7</ele>
        <time>2017-09-23T08:26:02.000Z</time>
      </trkpt>
      <trkpt lat="48.19713" lon="-3.75509">
        <ele>93.7</ele>
        <time>2017-09-23T08:26:03.000Z</time>
      </trkpt>
      <trkpt lat="48.19712" lon="-3.7551">
        <ele>93.7</ele>
        <time>2017-09-23T08:26:04.000Z</time>
      </trkpt>
      <trkpt lat="48.19711" lon="-3.75511">
        <ele>93.7</ele>
        <time>2017-09-23T08:26:05.000Z</time>
      </trkpt>
      <trkpt lat="48.1971" lon="-3.75511">
        <ele>93.7</ele>
        <time>2017-09-23T08:26:06.000Z</time>
      </trkpt>
      <trkpt lat="48.19709" lon="-3.75512">
        <ele>93.7</ele>
        <time>2017-09-23T08:26:07.000Z</time>
      </trkpt>
      <trkpt lat="48.19708" lon="-3.75513">
        <ele>93.6</ele>
        <time>2017-09-23T08:26:08.000Z</time>
      </trkpt>
      <trkpt lat="48.19707" lon="-3.75514">
        <ele>93.6</ele>
        <time>2017-09-23T08:26:09.000Z</time>
      </trkpt>
      <trkpt lat="48.19706" lon="-3.75515">
        <ele>93.6</ele>
        <time>2017-09-23T08:26:10.000Z</time>
      </trkpt>
      <trkpt lat="48.19705" lon="-3.75516">
        <ele>93.6</ele>
        <time>2017-09-23T08:26:11.000Z</time>
      </trkpt>
      <trkpt lat="48.19704" lon="-3.75517">
        <ele>93.6</ele>
        <time>2017-09-23T08:26:12.000Z</time>
      </trkpt>
      <trkpt lat="48.19703" lon="-3.75517">
        <ele>93.6</ele>
        <time>2017-09-23T08:26:13.000Z</time>
      </trkpt>
      <trkpt lat="48.19702" lon="-3.75517">
        <ele>93.6</ele>
        <time>2017-09-23T08:26:14.000Z</time>
      </trkpt>
      <trkpt lat="48.19702" lon="-3.75517">
        <ele>93.6</ele>
        <time>2017-09-23T08:26:15.000Z</time>
      </trkpt>
      <trkpt lat="48.19701" lon="-3.75517">
        <ele>93.6</ele>
        <time>2017-09-23T08:26:16.000Z</time>
      </trkpt>
      <trkpt lat="48.197" lon="-3.75516">
        <ele>93.6</ele>
        <time>2017-09-23T08:26:17.000Z</time>
      </trkpt>
      <trkpt lat="48.197" lon="-3.75516">
        <ele>93.5</ele>
        <time>2017-09-23T08:26:18.000Z</time>
      </trkpt>
      <trkpt lat="48.19699" lon="-3.75515">
        <ele>93.5</ele>
        <time>2017-09-23T08:26:19.000Z</time>
      </trkpt>
      <trkpt lat="48.19698" lon="-3.75514">
        <ele>93.5</ele>
        <time>2017-09-23T08:26:20.000Z</time>
      </trkpt>
      <trkpt lat="48.19698" lon="-3.75513">
        <ele>93.5</ele>
        <time>2017-09-23T08:26:21.000Z</time>
      </trkpt>
      <trkpt lat="48.19697" lon="-3.75512">
        <ele>93.5</ele>
        <time>2017-09-23T08:26:22.000Z</time>
      </trkpt>
      <trkpt lat="48.19697" lon="-3.75511">
        <ele>93.5</ele>
        <time>2017-09-23T08:26:23.000Z</time>
      </trkpt>
      <trkpt lat="48.19697" lon="-3.7551">
        <ele>93.4</ele>
        <time>2017-09-23T08:26:24.000Z</time>
      </trkpt>
      <trkpt lat="48.19696" lon="-3.75509">
        <ele>93.4</ele>
        <time>2017-09-23T08:26:25.000Z</time>
      </trkpt>
      <trkpt lat="48.19696" lon="-3.75508">
        <ele>93.4</ele>
        <time>2017-09-23T08:26:26.000Z</time>
      </trkpt>
      <trkpt lat="48.19695" lon="-3.75507">
        <ele>93.4</ele>
        <time>2017-09-23T08:26:27.000Z</time>
      </trkpt>
      <trkpt lat="48.19695" lon="-3.75506">
        <ele>93.4</ele>
        <time>2017-09-23T08:26:28.000Z</time>
      </trkpt>
      <trkpt lat="48.19694" lon="-3.75505">
        <ele>93.4</ele>
        <time>2017-09-23T08:26:29.000Z</time>
      </trkpt>
      <trkpt lat="48.19694" lon="-3.75504">
        <ele>93.4</ele>
        <time>2017-09-23T08:26:30.000Z</time>
      </trkpt>
      <trkpt lat="48.19694" lon="-3.75503">
        <ele>93.3</ele>
        <time>2017-09-23T08:26:31.000Z</time>
      </trkpt>
      <trkpt lat="48.19693" lon="-3.75502">
        <ele>93.3</ele>
        <time>2017-09-23T08:26:32.000Z</time>
      </trkpt>
      <trkpt lat="48.19693" lon="-3.755">
        <ele>93.3</ele>
        <time>2017-09-23T08:26:33.000Z</time>
      </trkpt>
      <trkpt lat="48.19692" lon="-3.75499">
        <ele>93.3</ele>
        <time>2017-09-23T08:26:34.000Z</time>
      </trkpt>
      <trkpt lat="48.19691" lon="-3.75498">
        <ele>93.3</ele>
        <time>2017-09-23T08:26:35.000Z</time>
      </trkpt>
      <trkpt lat="48.19691" lon="-3.75497">
        <ele>93.3</ele>
        <time>2017-09-23T08:26:36.000Z</time>
      </trkpt>
      <trkpt lat="48.1969" lon="-3.75496">
        <ele>93.3</ele>
        <time>2017-09-23T08:26:37.000Z</time>
      </trkpt>
      <trkpt lat="48.19689" lon="-3.75495">
        <ele>93.3</ele>
        <time>2017-09-23T08:26:38.000Z</time>
      </trkpt>
      <trkpt lat="48.19689" lon="-3.75494">
        <ele>93.3</ele>
        <time>2017-09-23T08:26:39.000Z</time>
      </trkpt>
      <trkpt lat="48.19688" lon="-3.75493">
        <ele>93.3</ele>
        <time>2017-09-23T08:26:40.000Z</time>
      </trkpt>
      <trkpt lat="48.19687" lon="-3.75493">
        <ele>93.2</ele>
        <time>2017-09-23T08:26:41.000Z</time>
      </trkpt>
      <trkpt lat="48.19686" lon="-3.75492">
        <ele>93.2</ele>
        <time>2017-09-23T08:26:42.000Z</time>
      </trkpt>
      <trkpt lat="48.19685" lon="-3.75491">
        <ele>93.2</ele>
        <time>2017-09-23T08:26:43.000Z</time>
      </trkpt>
      <trkpt lat="48.19684" lon="-3.7549">
        <ele>93.2</ele>
        <time>2017-09-23T08:26:44.000Z</time>
      </trkpt>
      <trkpt lat="48.19683" lon="-3.7549">
        <ele>93.2</ele>
        <time>2017-09-23T08:26:45.000Z</time>
      </trkpt>
      <trkpt lat="48.19682" lon="-3.75489">
        <ele>93.2</ele>
        <time>2017-09-23T08:26:46.000Z</time>
      </trkpt>
      <trkpt lat="48.19681" lon="-3.75488">
        <ele>93.2</ele>
        <time>2017-09-23T08:26:47.000Z</time>
      </trkpt>
      <trkpt lat="48.1968" lon="-3.75488">
        <ele>93.2</ele>
        <time>2017-09-23T08:26:48.000Z</time>
      </trkpt>
      <trkpt lat="48.19679" lon="-3.75487">
        <ele>93.1</ele>
        <time>2017-09-23T08:26:49.000Z</time>
      </trkpt>
      <trkpt lat="48.19678" lon="-3.75486">
        <ele>93.1</ele>
        <time>2017-09-23T08:26:50.000Z</time>
      </trkpt>
      <trkpt lat="48.19677" lon="-3.75486">
        <ele>93.1</ele>
        <time>2017-09-23T08:26:51.000Z</time>
      </trkpt>
      <trkpt lat="48.19676" lon="-3.75485">
        <ele>93.1</ele>
        <time>2017-09-23T08:26:52.000Z</time>
      </trkpt>
      <trkpt lat="48.19675" lon="-3.75484">
        <ele>93.1</ele>
        <time>2017-09-23T08:26:53.000Z</time>
      </trkpt>
      <trkpt lat="48.19675" lon="-3.75484">
        <ele>93.1</ele>
        <time>2017-09-23T08:26:54.000Z</time>
      </trkpt>
      <trkpt lat="48.19674" lon="-3.75483">
        <ele>93.1</ele>
        <time>2017-09-23T08:26:55.000Z</time>
      </trkpt>
      <trkpt lat="48.19673" lon="-3.75483">
        <ele>93.1</ele>
        <time>2017-09-23T08:26:56.000Z</time>
      </trkpt>
      <trkpt lat="48.19673" lon="-3.75482">
        <ele>93.1</ele>
        <time>2017-09-23T08:26:57.000Z</time>
      </trkpt>
      <trkpt lat="48.19672" lon="-3.75481">
        <ele>93.1</ele>
        <time>2017-09-23T08:26:58.000Z</time>
      </trkpt>
      <trkpt lat="48.19671" lon="-3.7548">
        <ele>93.1</ele>
        <time>2017-09-23T08:26:59.000Z</time>
      </trkpt>
      <trkpt lat="48.1967" lon="-3.75479">
        <ele>93</ele>
        <time>2017-09-23T08:27:00.000Z</time>
      </trkpt>
      <trkpt lat="48.19669" lon="-3.75477">
        <ele>93</ele>
        <time>2017-09-23T08:27:01.000Z</time>
      </trkpt>
      <trkpt lat="48.19668" lon="-3.75476">
        <ele>93</ele>
        <time>2017-09-23T08:27:02.000Z</time>
      </trkpt>
      <trkpt lat="48.19667" lon="-3.75474">
        <ele>93</ele>
        <time>2017-09-23T08:27:03.000Z</time>
      </trkpt>
      <trkpt lat="48.19666" lon="-3.75473">
        <ele>93</ele>
        <time>2017-09-23T08:27:04.000Z</time>
      </trkpt>
      <trkpt lat="48.19665" lon="-3.75471">
        <ele>92.9</ele>
        <time>2017-09-23T08:27:05.000Z</time>
      </trkpt>
      <trkpt lat="48.19664" lon="-3.7547">
        <ele>92.8</ele>
        <time>2017-09-23T08:27:06.000Z</time>
      </trkpt>
      <trkpt lat="48.19662" lon="-3.75468">
        <ele>92.6</ele>
        <time>2017-09-23T08:27:07.000Z</time>
      </trkpt>
      <trkpt lat="48.19661" lon="-3.75467">
        <ele>92.5</ele>
        <time>2017-09-23T08:27:08.000Z</time>
      </trkpt>
      <trkpt lat="48.1966" lon="-3.75466">
        <ele>92.4</ele>
        <time>2017-09-23T08:27:09.000Z</time>
      </trkpt>
      <trkpt lat="48.19658" lon="-3.75465">
        <ele>92.3</ele>
        <time>2017-09-23T08:27:10.000Z</time>
      </trkpt>
      <trkpt lat="48.19657" lon="-3.75464">
        <ele>92.2</ele>
        <time>2017-09-23T08:27:11.000Z</time>
      </trkpt>
      <trkpt lat="48.19656" lon="-3.75463">
        <ele>92.1</ele>
        <time>2017-09-23T08:27:12.000Z</time>
      </trkpt>
      <trkpt lat="48.19655" lon="-3.75463">
        <ele>92</ele>
        <time>2017-09-23T08:27:13.000Z</time>
      </trkpt>
      <trkpt lat="48.19653" lon="-3.75462">
        <ele>91.9</ele>
        <time>2017-09-23T08:27:14.000Z</time>
      </trkpt>
      <trkpt lat="48.19652" lon="-3.75461">
        <ele>91.8</ele>
        <time>2017-09-23T08:27:15.000Z</time>
      </trkpt>
      <trkpt lat="48.19651" lon="-3.75461">
        <ele>91.7</ele>
        <time>2017-09-23T08:27:16.000Z</time>
      </trkpt>
      <trkpt lat="48.1965" lon="-3.7546">
        <ele>91.6</ele>
        <time>2017-09-23T08:27:17.000Z</time>
      </trkpt>
      <trkpt lat="48.19649" lon="-3.75459">
        <ele>91.5</ele>
        <time>2017-09-23T08:27:18.000Z</time>
      </trkpt>
      <trkpt lat="48.19648" lon="-3.75459">
        <ele>91.5</ele>
        <time>2017-09-23T08:27:19.000Z</time>
      </trkpt>
      <trkpt lat="48.19648" lon="-3.75458">
        <ele>91.4</ele>
        <time>2017-09-23T08:27:20.000Z</time>
      </trkpt>
      <trkpt lat="48.19647" lon="-3.75457">
        <ele>91.3</ele>
        <time>2017-09-23T08:27:21.000Z</time>
      </trkpt>
      <trkpt lat="48.19646" lon="-3.75456">
        <ele>91.2</ele>
        <time>2017-09-23T08:27:22.000Z</time>
      </trkpt>
      <trkpt lat="48.19645" lon="-3.75455">
        <ele>91.1</ele>
        <time>2017-09-23T08:27:23.000Z</time>
      </trkpt>
      <trkpt lat="48.19644" lon="-3.75454">
        <ele>91.1</ele>
        <time>2017-09-23T08:27:24.000Z</time>
      </trkpt>
      <trkpt lat="48.19643" lon="-3.75453">
        <ele>91</ele>
        <time>2017-09-23T08:27:25.000Z</time>
      </trkpt>
      <trkpt lat="48.19642" lon="-3.75453">
        <ele>90.9</ele>
        <time>2017-09-23T08:27:26.000Z</time>
      </trkpt>
      <trkpt lat="48.19641" lon="-3.75452">
        <ele>90.8</ele>
        <time>2017-09-23T08:27:27.000Z</time>
      </trkpt>
      <trkpt lat="48.1964" lon="-3.75451">
        <ele>90.7</ele>
        <time>2017-09-23T08:27:28.000Z</time>
      </trkpt>
      <trkpt lat="48.19639" lon="-3.75451">
        <ele>90.6</ele>
        <time>2017-09-23T08:27:29.000Z</time>
      </trkpt>
      <trkpt lat="48.19637" lon="-3.7545">
        <ele>90.5</ele>
        <time>2017-09-23T08:27:30.000Z</time>
      </trkpt>
      <trkpt lat="48.19636" lon="-3.7545">
        <ele>90.4</ele>
        <time>2017-09-23T08:27:31.000Z</time>
      </trkpt>
      <trkpt lat="48.19635" lon="-3.75449">
        <ele>90.2</ele>
        <time>2017-09-23T08:27:32.000Z</time>
      </trkpt>
      <trkpt lat="48.19634" lon="-3.75449">
        <ele>90.1</ele>
        <time>2017-09-23T08:27:33.000Z</time>
      </trkpt>
      <trkpt lat="48.19633" lon="-3.75448">
        <ele>90</ele>
        <time>2017-09-23T08:27:34.000Z</time>
      </trkpt>
      <trkpt lat="48.19632" lon="-3.75448">
        <ele>90</ele>
        <time>2017-09-23T08:27:35.000Z</time>
      </trkpt>
      <trkpt lat="48.19631" lon="-3.75447">
        <ele>89.9</ele>
        <time>2017-09-23T08:27:36.000Z</time>
      </trkpt>
      <trkpt lat="48.1963" lon="-3.75446">
        <ele>89.8</ele>
        <time>2017-09-23T08:27:37.000Z</time>
      </trkpt>
      <trkpt lat="48.1963" lon="-3.75446">
        <ele>89.8</ele>
        <time>2017-09-23T08:27:38.000Z</time>
      </trkpt>
      <trkpt lat="48.19629" lon="-3.75445">
        <ele>89.7</ele>
        <time>2017-09-23T08:27:39.000Z</time>
      </trkpt>
      <trkpt lat="48.19629" lon="-3.75444">
        <ele>89.7</ele>
        <time>2017-09-23T08:27:40.000Z</time>
      </trkpt>
      <trkpt lat="48.19628" lon="-3.75443">
        <ele>89.6</ele>
        <time>2017-09-23T08:27:41.000Z</time>
      </trkpt>
      <trkpt lat="48.19627" lon="-3.75442">
        <ele>89.5</ele>
        <time>2017-09-23T08:27:42.000Z</time>
      </trkpt>
      <trkpt lat="48.19626" lon="-3.75441">
        <ele>89.4</ele>
        <time>2017-09-23T08:27:43.000Z</time>
      </trkpt>
      <trkpt lat="48.19625" lon="-3.75439">
        <ele>89.2</ele>
        <time>2017-09-23T08:27:44.000Z</time>
      </trkpt>
      <trkpt lat="48.19623" lon="-3.75438">
        <ele>89.1</ele>
        <time>2017-09-23T08:27:45.000Z</time>
      </trkpt>
      <trkpt lat="48.19621" lon="-3.75437">
        <ele>88.9</ele>
        <time>2017-09-23T08:27:46.000Z</time>
      </trkpt>
      <trkpt lat="48.1962" lon="-3.75435">
        <ele>88.7</ele>
        <time>2017-09-23T08:27:47.000Z</time>
      </trkpt>
      <trkpt lat="48.19618" lon="-3.75434">
        <ele>88.6</ele>
        <time>2017-09-23T08:27:48.000Z</time>
      </trkpt>
      <trkpt lat="48.19617" lon="-3.75433">
        <ele>88.5</ele>
        <time>2017-09-23T08:27:49.000Z</time>
      </trkpt>
      <trkpt lat="48.19616" lon="-3.75432">
        <ele>88.4</ele>
        <time>2017-09-23T08:27:50.000Z</time>
      </trkpt>
      <trkpt lat="48.19615" lon="-3.75432">
        <ele>88.3</ele>
        <time>2017-09-23T08:27:51.000Z</time>
      </trkpt>
      <trkpt lat="48.19614" lon="-3.75431">
        <ele>88.2</ele>
        <time>2017-09-23T08:27:52.000Z</time>
      </trkpt>
      <trkpt lat="48.19613" lon="-3.7543">
        <ele>88.1</ele>
        <time>2017-09-23T08:27:53.000Z</time>
      </trkpt>
      <trkpt lat="48.19613" lon="-3.7543">
        <ele>88</ele>
        <time>2017-09-23T08:27:54.000Z</time>
      </trkpt>
      <trkpt lat="48.19612" lon="-3.75429">
        <ele>87.9</ele>
        <time>2017-09-23T08:27:55.000Z</time>
      </trkpt>
      <trkpt lat="48.19611" lon="-3.75428">
        <ele>87.8</ele>
        <time>2017-09-23T08:27:56.000Z</time>
      </trkpt>
      <trkpt lat="48.1961" lon="-3.75428">
        <ele>87.7</ele>
        <time>2017-09-23T08:27:57.000Z</time>
      </trkpt>
      <trkpt lat="48.19609" lon="-3.75427">
        <ele>87.7</ele>
        <time>2017-09-23T08:27:58.000Z</time>
      </trkpt>
      <trkpt lat="48.19608" lon="-3.75426">
        <ele>87.5</ele>
        <time>2017-09-23T08:27:59.000Z</time>
      </trkpt>
      <trkpt lat="48.19607" lon="-3.75426">
        <ele>87.4</ele>
        <time>2017-09-23T08:28:00.000Z</time>
      </trkpt>
      <trkpt lat="48.19606" lon="-3.75425">
        <ele>87.3</ele>
        <time>2017-09-23T08:28:01.000Z</time>
      </trkpt>
      <trkpt lat="48.19605" lon="-3.75424">
        <ele>87.2</ele>
        <time>2017-09-23T08:28:02.000Z</time>
      </trkpt>
      <trkpt lat="48.19603" lon="-3.75423">
        <ele>87</ele>
        <time>2017-09-23T08:28:03.000Z</time>
      </trkpt>
      <trkpt lat="48.19602" lon="-3.75422">
        <ele>86.9</ele>
        <time>2017-09-23T08:28:04.000Z</time>
      </trkpt>
      <trkpt lat="48.19601" lon="-3.75421">
        <ele>86.7</ele>
        <time>2017-09-23T08:28:05.000Z</time>
      </trkpt>
      <trkpt lat="48.19599" lon="-3.75421">
        <ele>86.6</ele>
        <time>2017-09-23T08:28:06.000Z</time>
      </trkpt>
      <trkpt lat="48.19598" lon="-3.7542">
        <ele>86.5</ele>
        <time>2017-09-23T08:28:07.000Z</time>
      </trkpt>
      <trkpt lat="48.19597" lon="-3.75419">
        <ele>86.3</ele>
        <time>2017-09-23T08:28:08.000Z</time>
      </trkpt>
      <trkpt lat="48.19596" lon="-3.75418">
        <ele>86.2</ele>
        <time>2017-09-23T08:28:09.000Z</time>
      </trkpt>
      <trkpt lat="48.19594" lon="-3.75417">
        <ele>86.1</ele>
        <time>2017-09-23T08:28:10.000Z</time>
      </trkpt>
      <trkpt lat="48.19593" lon="-3.75417">
        <ele>85.9</ele>
        <time>2017-09-23T08:28:11.000Z</time>
      </trkpt>
      <trkpt lat="48.19592" lon="-3.75416">
        <ele>85.8</ele>
        <time>2017-09-23T08:28:12.000Z</time>
      </trkpt>
      <trkpt lat="48.19591" lon="-3.75415">
        <ele>85.8</ele>
        <time>2017-09-23T08:28:13.000Z</time>
      </trkpt>
      <trkpt lat="48.1959" lon="-3.75414">
        <ele>85.7</ele>
        <time>2017-09-23T08:28:14.000Z</time>
      </trkpt>
      <trkpt lat="48.19589" lon="-3.75414">
        <ele>85.6</ele>
        <time>2017-09-23T08:28:15.000Z</time>
      </trkpt>
      <trkpt lat="48.19588" lon="-3.75413">
        <ele>85.5</ele>
        <time>2017-09-23T08:28:16.000Z</time>
      </trkpt>
      <trkpt lat="48.19587" lon="-3.75412">
        <ele>85.4</ele>
        <time>2017-09-23T08:28:17.000Z</time>
      </trkpt>
      <trkpt lat="48.19586" lon="-3.75412">
        <ele>85.3</ele>
        <time>2017-09-23T08:28:18.000Z</time>
      </trkpt>
      <trkpt lat="48.19585" lon="-3.75411">
        <ele>85.2</ele>
        <time>2017-09-23T08:28:19.000Z</time>
      </trkpt>
      <trkpt lat="48.19584" lon="-3.75411">
        <ele>85.1</ele>
        <time>2017-09-23T08:28:20.000Z</time>
      </trkpt>
      <trkpt lat="48.19582" lon="-3.7541">
        <ele>85.1</ele>
        <time>2017-09-23T08:28:21.000Z</time>
      </trkpt>
      <trkpt lat="48.19581" lon="-3.7541">
        <ele>85.1</ele>
        <time>2017-09-23T08:28:22.000Z</time>
      </trkpt>
      <trkpt lat="48.1958" lon="-3.75409">
        <ele>85.1</ele>
        <time>2017-09-23T08:28:23.000Z</time>
      </trkpt>
      <trkpt lat="48.19579" lon="-3.75409">
        <ele>85.1</ele>
        <time>2017-09-23T08:28:24.000Z</time>
      </trkpt>
      <trkpt lat="48.19578" lon="-3.75408">
        <ele>85.1</ele>
        <time>2017-09-23T08:28:25.000Z</time>
      </trkpt>
      <trkpt lat="48.19577" lon="-3.75408">
        <ele>85.1</ele>
        <time>2017-09-23T08:28:26.000Z</time>
      </trkpt>
      <trkpt lat="48.19576" lon="-3.75407">
        <ele>85.2</ele>
        <time>2017-09-23T08:28:27.000Z</time>
      </trkpt>
      <trkpt lat="48.19575" lon="-3.75407">
        <ele>85.2</ele>
        <time>2017-09-23T08:28:28.000Z</time>
      </trkpt>
      <trkpt lat="48.19574" lon="-3.75407">
        <ele>85.2</ele>
        <time>2017-09-23T08:28:29.000Z</time>
      </trkpt>
      <trkpt lat="48.19573" lon="-3.75406">
        <ele>85.2</ele>
        <time>2017-09-23T08:28:30.000Z</time>
      </trkpt>
      <trkpt lat="48.19572" lon="-3.75406">
        <ele>85.2</ele>
        <time>2017-09-23T08:28:31.000Z</time>
      </trkpt>
      <trkpt lat="48.19571" lon="-3.75406">
        <ele>85.2</ele>
        <time>2017-09-23T08:28:32.000Z</time>
      </trkpt>
      <trkpt lat="48.1957" lon="-3.75406">
        <ele>85.2</ele>
        <time>2017-09-23T08:28:33.000Z</time>
      </trkpt>
      <trkpt lat="48.19569" lon="-3.75405">
        <ele>85.2</ele>
        <time>2017-09-23T08:28:34.000Z</time>
      </trkpt>
      <trkpt lat="48.19568" lon="-3.75405">
        <ele>85.2</ele>
        <time>2017-09-23T08:28:35.000Z</time>
      </trkpt>
      <trkpt lat="48.19567" lon="-3.75405">
        <ele>85.2</ele>
        <time>2017-09-23T08:28:36.000Z</time>
      </trkpt>
      <trkpt lat="48.19565" lon="-3.75405">
        <ele>85.2</ele>
        <time>2017-09-23T08:28:37.000Z</time>
      </trkpt>
      <trkpt lat="48.19564" lon="-3.75405">
        <ele>85.2</ele>
        <time>2017-09-23T08:28:38.000Z</time>
      </trkpt>
      <trkpt lat="48.19563" lon="-3.75405">
        <ele>85.2</ele>
        <time>2017-09-23T08:28:39.000Z</time>
      </trkpt>
      <trkpt lat="48.19562" lon="-3.75405">
        <ele>85.3</ele>
        <time>2017-09-23T08:28:40.000Z</time>
      </trkpt>
      <trkpt lat="48.19561" lon="-3.75404">
        <ele>85.3</ele>
        <time>2017-09-23T08:28:41.000Z</time>
      </trkpt>
      <trkpt lat="48.1956" lon="-3.75404">
        <ele>85.3</ele>
        <time>2017-09-23T08:28:42.000Z</time>
      </trkpt>
      <trkpt lat="48.19559" lon="-3.75404">
        <ele>85.3</ele>
        <time>2017-09-23T08:28:43.000Z</time>
      </trkpt>
      <trkpt lat="48.19558" lon="-3.75404">
        <ele>85.3</ele>
        <time>2017-09-23T08:28:44.000Z</time>
      </trkpt>
      <trkpt lat="48.19557" lon="-3.75404">
        <ele>85.3</ele>
        <time>2017-09-23T08:28:45.000Z</time>
      </trkpt>
      <trkpt lat="48.19555" lon="-3.75404">
        <ele>85.3</ele>
        <time>2017-09-23T08:28:46.000Z</time>
      </trkpt>
      <trkpt lat="48.19554" lon="-3.75404">
        <ele>85.3</ele>
        <time>2017-09-23T08:28:47.000Z</time>
      </trkpt>
      <trkpt lat="48.19553" lon="-3.75404">
        <ele>85.3</ele>
        <time>2017-09-23T08:28:48.000Z</time>
      </trkpt>
      <trkpt lat="48.19552" lon="-3.75403">
        <ele>85.3</ele>
        <time>2017-09-23T08:28:49.000Z</time>
      </trkpt>
      <trkpt lat="48.19551" lon="-3.75403">
        <ele>85.3</ele>
        <time>2017-09-23T08:28:50.000Z</time>
      </trkpt>
      <trkpt lat="48.1955" lon="-3.75403">
        <ele>85.3</ele>
        <time>2017-09-23T08:28:51.000Z</time>
      </trkpt>
      <trkpt lat="48.19549" lon="-3.75402">
        <ele>85.3</ele>
        <time>2017-09-23T08:28:52.000Z</time>
      </trkpt>
      <trkpt lat="48.19548" lon="-3.75402">
        <ele>85.3</ele>
        <time>2017-09-23T08:28:53.000Z</time>
      </trkpt>
      <trkpt lat="48.19546" lon="-3.75401">
        <ele>85.3</ele>
        <time>2017-09-23T08:28:54.000Z</time>
      </trkpt>
      <trkpt lat="48.19545" lon="-3.75401">
        <ele>85.3</ele>
        <time>2017-09-23T08:28:55.000Z</time>
      </trkpt>
      <trkpt lat="48.19544" lon="-3.754">
        <ele>85.3</ele>
        <time>2017-09-23T08:28:56.000Z</time>
      </trkpt>
      <trkpt lat="48.19543" lon="-3.75399">
        <ele>85.3</ele>
        <time>2017-09-23T08:28:57.000Z</time>
      </trkpt>
      <trkpt lat="48.19542" lon="-3.75399">
        <ele>85.3</ele>
        <time>2017-09-23T08:28:58.000Z</time>
      </trkpt>
      <trkpt lat="48.19541" lon="-3.75398">
        <ele>85.3</ele>
        <time>2017-09-23T08:28:59.000Z</time>
      </trkpt>
      <trkpt lat="48.1954" lon="-3.75397">
        <ele>85.3</ele>
        <time>2017-09-23T08:29:00.000Z</time>
      </trkpt>
      <trkpt lat="48.19539" lon="-3.75396">
        <ele>85.2</ele>
        <time>2017-09-23T08:29:01.000Z</time>
      </trkpt>
      <trkpt lat="48.19538" lon="-3.75394">
        <ele>85.2</ele>
        <time>2017-09-23T08:29:02.000Z</time>
      </trkpt>
      <trkpt lat="48.19537" lon="-3.75393">
        <ele>85.2</ele>
        <time>2017-09-23T08:29:03.000Z</time>
      </trkpt>
      <trkpt lat="48.19536" lon="-3.75392">
        <ele>85.2</ele>
        <time>2017-09-23T08:29:04.000Z</time>
      </trkpt>
      <trkpt lat="48.19535" lon="-3.7539">
        <ele>85.2</ele>
        <time>2017-09-23T08:29:05.000Z</time>
      </trkpt>
      <trkpt lat="48.19534" lon="-3.75389">
        <ele>85.1</ele>
        <time>2017-09-23T08:29:06.000Z</time>
      </trkpt>
      <trkpt lat="48.19533" lon="-3.75387">
        <ele>85.1</ele>
        <time>2017-09-23T08:29:07.000Z</time>
      </trkpt>
      <trkpt lat="48.19532" lon="-3.75386">
        <ele>85.1</ele>
        <time>2017-09-23T08:29:08.000Z</time>
      </trkpt>
      <trkpt lat="48.19531" lon="-3.75384">
        <ele>85</ele>
        <time>2017-09-23T08:29:09.000Z</time>
      </trkpt>
      <trkpt lat="48.1953" lon="-3.75383">
        <ele>85</ele>
        <time>2017-09-23T08:29:10.000Z</time>
      </trkpt>
      <trkpt lat="48.19529" lon="-3.75381">
        <ele>85</ele>
        <time>2017-09-23T08:29:11.000Z</time>
      </trkpt>
      <trkpt lat="48.19528" lon="-3.75379">
        <ele>84.9</ele>
        <time>2017-09-23T08:29:12.000Z</time>
      </trkpt>
      <trkpt lat="48.19527" lon="-3.75377">
        <ele>84.9</ele>
        <time>2017-09-23T08:29:13.000Z</time>
      </trkpt>
      <trkpt lat="48.19526" lon="-3.75376">
        <ele>84.8</ele>
        <time>2017-09-23T08:29:14.000Z</time>
      </trkpt>
      <trkpt lat="48.19526" lon="-3.75374">
        <ele>84.8</ele>
        <time>2017-09-23T08:29:15.000Z</time>
      </trkpt>
      <trkpt lat="48.19525" lon="-3.75372">
        <ele>84.7</ele>
        <time>2017-09-23T08:29:16.000Z</time>
      </trkpt>
      <trkpt lat="48.19524" lon="-3.75371">
        <ele>84.7</ele>
        <time>2017-09-23T08:29:17.000Z</time>
      </trkpt>
      <trkpt lat="48.19523" lon="-3.75369">
        <ele>84.6</ele>
        <time>2017-09-23T08:29:18.000Z</time>
      </trkpt>
      <trkpt lat="48.19523" lon="-3.75368">
        <ele>84.6</ele>
        <time>2017-09-23T08:29:19.000Z</time>
      </trkpt>
      <trkpt lat="48.19522" lon="-3.75366">
        <ele>84.6</ele>
        <time>2017-09-23T08:29:20.000Z</time>
      </trkpt>
      <trkpt lat="48.19521" lon="-3.75365">
        <ele>84.5</ele>
        <time>2017-09-23T08:29:21.000Z</time>
      </trkpt>
      <trkpt lat="48.1952" lon="-3.75363">
        <ele>84.5</ele>
        <time>2017-09-23T08:29:22.000Z</time>
      </trkpt>
      <trkpt lat="48.1952" lon="-3.75362">
        <ele>84.4</ele>
        <time>2017-09-23T08:29:23.000Z</time>
      </trkpt>
      <trkpt lat="48.19519" lon="-3.75361">
        <ele>84.4</ele>
        <time>2017-09-23T08:29:24.000Z</time>
      </trkpt>
      <trkpt lat="48.19518" lon="-3.75359">
        <ele>84.3</ele>
        <time>2017-09-23T08:29:25.000Z</time>
      </trkpt>
      <trkpt lat="48.19518" lon="-3.75358">
        <ele>84.3</ele>
        <time>2017-09-23T08:29:26.000Z</time>
      </trkpt>
      <trkpt lat="48.19517" lon="-3.75357">
        <ele>84.2</ele>
        <time>2017-09-23T08:29:27.000Z</time>
      </trkpt>
      <trkpt lat="48.19516" lon="-3.75355">
        <ele>84.2</ele>
        <time>2017-09-23T08:29:28.000Z</time>
      </trkpt>
      <trkpt lat="48.19516" lon="-3.75354">
        <ele>84.1</ele>
        <time>2017-09-23T08:29:29.000Z</time>
      </trkpt>
      <trkpt lat="48.19515" lon="-3.75353">
        <ele>84.1</ele>
        <time>2017-09-23T08:29:30.000Z</time>
      </trkpt>
      <trkpt lat="48.19514" lon="-3.75352">
        <ele>84</ele>
        <time>2017-09-23T08:29:31.000Z</time>
      </trkpt>
      <trkpt lat="48.19513" lon="-3.7535">
        <ele>84</ele>
        <time>2017-09-23T08:29:32.000Z</time>
      </trkpt>
      <trkpt lat="48.19512" lon="-3.75349">
        <ele>83.9</ele>
        <time>2017-09-23T08:29:33.000Z</time>
      </trkpt>
      <trkpt lat="48.19512" lon="-3.75348">
        <ele>83.8</ele>
        <time>2017-09-23T08:29:34.000Z</time>
      </trkpt>
      <trkpt lat="48.19511" lon="-3.75346">
        <ele>83.8</ele>
        <time>2017-09-23T08:29:35.000Z</time>
      </trkpt>
      <trkpt lat="48.1951" lon="-3.75345">
        <ele>83.7</ele>
        <time>2017-09-23T08:29:36.000Z</time>
      </trkpt>
      <trkpt lat="48.19509" lon="-3.75344">
        <ele>83.6</ele>
        <time>2017-09-23T08:29:37.000Z</time>
      </trkpt>
      <trkpt lat="48.19508" lon="-3.75342">
        <ele>83.6</ele>
        <time>2017-09-23T08:29:38.000Z</time>
      </trkpt>
      <trkpt lat="48.19507" lon="-3.75341">
        <ele>83.5</ele>
        <time>2017-09-23T08:29:39.000Z</time>
      </trkpt>
      <trkpt lat="48.19506" lon="-3.75339">
        <ele>83.4</ele>
        <time>2017-09-23T08:29:40.000Z</time>
      </trkpt>
      <trkpt lat="48.19505" lon="-3.75338">
        <ele>83.3</ele>
        <time>2017-09-23T08:29:41.000Z</time>
      </trkpt>
      <trkpt lat="48.19504" lon="-3.75336">
        <ele>83.3</ele>
        <time>2017-09-23T08:29:42.000Z</time>
      </trkpt>
      <trkpt lat="48.19503" lon="-3.75335">
        <ele>83.2</ele>
        <time>2017-09-23T08:29:43.000Z</time>
      </trkpt>
      <trkpt lat="48.19502" lon="-3.75334">
        <ele>83.1</ele>
        <time>2017-09-23T08:29:44.000Z</time>
      </trkpt>
      <trkpt lat="48.19501" lon="-3.75332">
        <ele>83</ele>
        <time>2017-09-23T08:29:45.000Z</time>
      </trkpt>
      <trkpt lat="48.195" lon="-3.75331">
        <ele>82.9</ele>
        <time>2017-09-23T08:29:46.000Z</time>
      </trkpt>
      <trkpt lat="48.19499" lon="-3.75329">
        <ele>82.8</ele>
        <time>2017-09-23T08:29:47.000Z</time>
      </trkpt>
      <trkpt lat="48.19498" lon="-3.75328">
        <ele>82.7</ele>
        <time>2017-09-23T08:29:48.000Z</time>
      </trkpt>
      <trkpt lat="48.19497" lon="-3.75326">
        <ele>82.6</ele>
        <time>2017-09-23T08:29:49.000Z</time>
      </trkpt>
      <trkpt lat="48.19495" lon="-3.75325">
        <ele>82.5</ele>
        <time>2017-09-23T08:29:50.000Z</time>
      </trkpt>
      <trkpt lat="48.19494" lon="-3.75323">
        <ele>82.4</ele>
        <time>2017-09-23T08:29:51.000Z</time>
      </trkpt>
      <trkpt lat="48.19493" lon="-3.75322">
        <ele>82.3</ele>
        <time>2017-09-23T08:29:52.000Z</time>
      </trkpt>
      <trkpt lat="48.19492" lon="-3.75321">
        <ele>82.2</ele>
        <time>2017-09-23T08:29:53.000Z</time>
      </trkpt>
      <trkpt lat="48.19491" lon="-3.75319">
        <ele>82.1</ele>
        <time>2017-09-23T08:29:54.000Z</time>
      </trkpt>
      <trkpt lat="48.1949" lon="-3.75318">
        <ele>82</ele>
        <time>2017-09-23T08:29:55.000Z</time>
      </trkpt>
      <trkpt lat="48.19489" lon="-3.75317">
        <ele>81.9</ele>
        <time>2017-09-23T08:29:56.000Z</time>
      </trkpt>
      <trkpt lat="48.19488" lon="-3.75315">
        <ele>81.8</ele>
        <time>2017-09-23T08:29:57.000Z</time>
      </trkpt>
      <trkpt lat="48.19487" lon="-3.75314">
        <ele>81.7</ele>
        <time>2017-09-23T08:29:58.000Z</time>
      </trkpt>
      <trkpt lat="48.19486" lon="-3.75313">
        <ele>81.6</ele>
        <time>2017-09-23T08:29:59.000Z</time>
      </trkpt>
      <trkpt lat="48.19485" lon="-3.75312">
        <ele>81.5</ele>
        <time>2017-09-23T08:30:00.000Z</time>
      </trkpt>
      <trkpt lat="48.19484" lon="-3.75311">
        <ele>81.4</ele>
        <time>2017-09-23T08:30:01.000Z</time>
      </trkpt>
      <trkpt lat="48.19483" lon="-3.7531">
        <ele>81.4</ele>
        <time>2017-09-23T08:30:02.000Z</time>
      </trkpt>
      <trkpt lat="48.19482" lon="-3.75309">
        <ele>81.3</ele>
        <time>2017-09-23T08:30:03.000Z</time>
      </trkpt>
      <trkpt lat="48.19482" lon="-3.75308">
        <ele>81.2</ele>
        <time>2017-09-23T08:30:04.000Z</time>
      </trkpt>
      <trkpt lat="48.19481" lon="-3.75307">
        <ele>81.1</ele>
        <time>2017-09-23T08:30:05.000Z</time>
      </trkpt>
      <trkpt lat="48.1948" lon="-3.75306">
        <ele>81</ele>
        <time>2017-09-23T08:30:06.000Z</time>
      </trkpt>
      <trkpt lat="48.19479" lon="-3.75305">
        <ele>81</ele>
        <time>2017-09-23T08:30:07.000Z</time>
      </trkpt>
      <trkpt lat="48.19478" lon="-3.75304">
        <ele>80.9</ele>
        <time>2017-09-23T08:30:08.000Z</time>
      </trkpt>
      <trkpt lat="48.19477" lon="-3.75303">
        <ele>80.8</ele>
        <time>2017-09-23T08:30:09.000Z</time>
      </trkpt>
      <trkpt lat="48.19476" lon="-3.75302">
        <ele>80.7</ele>
        <time>2017-09-23T08:30:10.000Z</time>
      </trkpt>
      <trkpt lat="48.19476" lon="-3.75301">
        <ele>80.7</ele>
        <time>2017-09-23T08:30:11.000Z</time>
      </trkpt>
      <trkpt lat="48.19475" lon="-3.75301">
        <ele>80.6</ele>
        <time>2017-09-23T08:30:12.000Z</time>
      </trkpt>
      <trkpt lat="48.19474" lon="-3.753">
        <ele>80.5</ele>
        <time>2017-09-23T08:30:13.000Z</time>
      </trkpt>
      <trkpt lat="48.19473" lon="-3.75299">
        <ele>80.5</ele>
        <time>2017-09-23T08:30:14.000Z</time>
      </trkpt>
      <trkpt lat="48.19472" lon="-3.75298">
        <ele>80.4</ele>
        <time>2017-09-23T08:30:15.000Z</time>
      </trkpt>
      <trkpt lat="48.19471" lon="-3.75297">
        <ele>80.3</ele>
        <time>2017-09-23T08:30:16.000Z</time>
      </trkpt>
      <trkpt lat="48.19471" lon="-3.75296">
        <ele>80.2</ele>
        <time>2017-09-23T08:30:17.000Z</time>
      </trkpt>
      <trkpt lat="48.1947" lon="-3.75295">
        <ele>80.1</ele>
        <time>2017-09-23T08:30:18.000Z</time>
      </trkpt>
      <trkpt lat="48.19469" lon="-3.75294">
        <ele>80.1</ele>
        <time>2017-09-23T08:30:19.000Z</time>
      </trkpt>
      <trkpt lat="48.19468" lon="-3.75293">
        <ele>80</ele>
        <time>2017-09-23T08:30:20.000Z</time>
      </trkpt>
      <trkpt lat="48.19467" lon="-3.75292">
        <ele>79.9</ele>
        <time>2017-09-23T08:30:21.000Z</time>
      </trkpt>
      <trkpt lat="48.19466" lon="-3.75291">
        <ele>79.8</ele>
        <time>2017-09-23T08:30:22.000Z</time>
      </trkpt>
      <trkpt lat="48.19466" lon="-3.7529">
        <ele>79.8</ele>
        <time>2017-09-23T08:30:23.000Z</time>
      </trkpt>
      <trkpt lat="48.19465" lon="-3.75289">
        <ele>79.7</ele>
        <time>2017-09-23T08:30:24.000Z</time>
      </trkpt>
      <trkpt lat="48.19464" lon="-3.75288">
        <ele>79.6</ele>
        <time>2017-09-23T08:30:25.000Z</time>
      </trkpt>
      <trkpt lat="48.19463" lon="-3.75287">
        <ele>79.6</ele>
        <time>2017-09-23T08:30:26.000Z</time>
      </trkpt>
      <trkpt lat="48.19462" lon="-3.75287">
        <ele>79.5</ele>
        <time>2017-09-23T08:30:27.000Z</time>
      </trkpt>
      <trkpt lat="48.19462" lon="-3.75286">
        <ele>79.5</ele>
        <time>2017-09-23T08:30:28.000Z</time>
      </trkpt>
      <trkpt lat="48.19461" lon="-3.75286">
        <ele>79.4</ele>
        <time>2017-09-23T08:30:29.000Z</time>
      </trkpt>
      <trkpt lat="48.1946" lon="-3.75285">
        <ele>79.3</ele>
        <time>2017-09-23T08:30:30.000Z</time>
      </trkpt>
      <trkpt lat="48.19459" lon="-3.75284">
        <ele>79.3</ele>
        <time>2017-09-23T08:30:31.000Z</time>
      </trkpt>
      <trkpt lat="48.19458" lon="-3.75284">
        <ele>79.2</ele>
        <time>2017-09-23T08:30:32.000Z</time>
      </trkpt>
      <trkpt lat="48.19458" lon="-3.75283">
        <ele>79.2</ele>
        <time>2017-09-23T08:30:33.000Z</time>
      </trkpt>
      <trkpt lat="48.19457" lon="-3.75282">
        <ele>79.1</ele>
        <time>2017-09-23T08:30:34.000Z</time>
      </trkpt>
      <trkpt lat="48.19456" lon="-3.75282">
        <ele>79</ele>
        <time>2017-09-23T08:30:35.000Z</time>
      </trkpt>
      <trkpt lat="48.19455" lon="-3.75281">
        <ele>79</ele>
        <time>2017-09-23T08:30:36.000Z</time>
      </trkpt>
      <trkpt lat="48.19455" lon="-3.7528">
        <ele>78.9</ele>
        <time>2017-09-23T08:30:37.000Z</time>
      </trkpt>
      <trkpt lat="48.19454" lon="-3.75279">
        <ele>78.8</ele>
        <time>2017-09-23T08:30:38.000Z</time>
      </trkpt>
      <trkpt lat="48.19453" lon="-3.75277">
        <ele>78.7</ele>
        <time>2017-09-23T08:30:39.000Z</time>
      </trkpt>
      <trkpt lat="48.19452" lon="-3.75276">
        <ele>78.6</ele>
        <time>2017-09-23T08:30:40.000Z</time>
      </trkpt>
      <trkpt lat="48.19451" lon="-3.75275">
        <ele>78.5</ele>
        <time>2017-09-23T08:30:41.000Z</time>
      </trkpt>
      <trkpt lat="48.1945" lon="-3.75273">
        <ele>78.5</ele>
        <time>2017-09-23T08:30:42.000Z</time>
      </trkpt>
      <trkpt lat="48.1945" lon="-3.75272">
        <ele>78.4</ele>
        <time>2017-09-23T08:30:43.000Z</time>
      </trkpt>
      <trkpt lat="48.19449" lon="-3.75271">
        <ele>78.3</ele>
        <time>2017-09-23T08:30:44.000Z</time>
      </trkpt>
      <trkpt lat="48.19448" lon="-3.7527">
        <ele>78.2</ele>
        <time>2017-09-23T08:30:45.000Z</time>
      </trkpt>
      <trkpt lat="48.19447" lon="-3.75269">
        <ele>78.1</ele>
        <time>2017-09-23T08:30:46.000Z</time>
      </trkpt>
      <trkpt lat="48.19446" lon="-3.75267">
        <ele>78</ele>
        <time>2017-09-23T08:30:47.000Z</time>
      </trkpt>
      <trkpt lat="48.19446" lon="-3.75267">
        <ele>78</ele>
        <time>2017-09-23T08:30:48.000Z</time>
      </trkpt>
      <trkpt lat="48.19445" lon="-3.75266">
        <ele>77.9</ele>
        <time>2017-09-23T08:30:49.000Z</time>
      </trkpt>
      <trkpt lat="48.19444" lon="-3.75265">
        <ele>77.8</ele>
        <time>2017-09-23T08:30:50.000Z</time>
      </trkpt>
      <trkpt lat="48.19443" lon="-3.75264">
        <ele>77.8</ele>
        <time>2017-09-23T08:30:51.000Z</time>
      </trkpt>
      <trkpt lat="48.19442" lon="-3.75263">
        <ele>77.7</ele>
        <time>2017-09-23T08:30:52.000Z</time>
      </trkpt>
      <trkpt lat="48.19442" lon="-3.75262">
        <ele>77.6</ele>
        <time>2017-09-23T08:30:53.000Z</time>
      </trkpt>
      <trkpt lat="48.19441" lon="-3.75261">
        <ele>77.6</ele>
        <time>2017-09-23T08:30:54.000Z</time>
      </trkpt>
      <trkpt lat="48.1944" lon="-3.7526">
        <ele>77.5</ele>
        <time>2017-09-23T08:30:55.000Z</time>
      </trkpt>
      <trkpt lat="48.19439" lon="-3.75259">
        <ele>77.4</ele>
        <time>2017-09-23T08:30:56.000Z</time>
      </trkpt>
      <trkpt lat="48.19438" lon="-3.75258">
        <ele>77.3</ele>
        <time>2017-09-23T08:30:57.000Z</time>
      </trkpt>
      <trkpt lat="48.19437" lon="-3.75257">
        <ele>77.2</ele>
        <time>2017-09-23T08:30:58.000Z</time>
      </trkpt>
      <trkpt lat="48.19436" lon="-3.75255">
        <ele>77.1</ele>
        <time>2017-09-23T08:30:59.000Z</time>
      </trkpt>
      <trkpt lat="48.19436" lon="-3.75254">
        <ele>77</ele>
        <time>2017-09-23T08:31:00.000Z</time>
      </trkpt>
      <trkpt lat="48.19435" lon="-3.75253">
        <ele>77</ele>
        <time>2017-09-23T08:31:01.000Z</time>
      </trkpt>
      <trkpt lat="48.19434" lon="-3.75251">
        <ele>76.9</ele>
        <time>2017-09-23T08:31:02.000Z</time>
      </trkpt>
      <trkpt lat="48.19433" lon="-3.7525">
        <ele>76.8</ele>
        <time>2017-09-23T08:31:03.000Z</time>
      </trkpt>
      <trkpt lat="48.19432" lon="-3.75249">
        <ele>76.7</ele>
        <time>2017-09-23T08:31:04.000Z</time>
      </trkpt>
      <trkpt lat="48.19431" lon="-3.75248">
        <ele>76.7</ele>
        <time>2017-09-23T08:31:05.000Z</time>
      </trkpt>
      <trkpt lat="48.19431" lon="-3.75247">
        <ele>76.6</ele>
        <time>2017-09-23T08:31:06.000Z</time>
      </trkpt>
      <trkpt lat="48.1943" lon="-3.75246">
        <ele>76.6</ele>
        <time>2017-09-23T08:31:07.000Z</time>
      </trkpt>
      <trkpt lat="48.19429" lon="-3.75245">
        <ele>76.5</ele>
        <time>2017-09-23T08:31:08.000Z</time>
      </trkpt>
      <trkpt lat="48.19429" lon="-3.75244">
        <ele>76.5</ele>
        <time>2017-09-23T08:31:09.000Z</time>
      </trkpt>
      <trkpt lat="48.19428" lon="-3.75243">
        <ele>76.5</ele>
        <time>2017-09-23T08:31:10.000Z</time>
      </trkpt>
      <trkpt lat="48.19428" lon="-3.75242">
        <ele>76.4</ele>
        <time>2017-09-23T08:31:11.000Z</time>
      </trkpt>
      <trkpt lat="48.19427" lon="-3.75241">
        <ele>76.4</ele>
        <time>2017-09-23T08:31:12.000Z</time>
      </trkpt>
      <trkpt lat="48.19426" lon="-3.7524">
        <ele>76.3</ele>
        <time>2017-09-23T08:31:13.000Z</time>
      </trkpt>
      <trkpt lat="48.19426" lon="-3.75239">
        <ele>76.3</ele>
        <time>2017-09-23T08:31:14.000Z</time>
      </trkpt>
      <trkpt lat="48.19425" lon="-3.75238">
        <ele>76.2</ele>
        <time>2017-09-23T08:31:15.000Z</time>
      </trkpt>
      <trkpt lat="48.19424" lon="-3.75237">
        <ele>76.2</ele>
        <time>2017-09-23T08:31:16.000Z</time>
      </trkpt>
      <trkpt lat="48.19424" lon="-3.75236">
        <ele>76.2</ele>
        <time>2017-09-23T08:31:17.000Z</time>
      </trkpt>
      <trkpt lat="48.19423" lon="-3.75235">
        <ele>76.1</ele>
        <time>2017-09-23T08:31:18.000Z</time>
      </trkpt>
      <trkpt lat="48.19423" lon="-3.75234">
        <ele>76.1</ele>
        <time>2017-09-23T08:31:19.000Z</time>
      </trkpt>
      <trkpt lat="48.19422" lon="-3.75233">
        <ele>76</ele>
        <time>2017-09-23T08:31:20.000Z</time>
      </trkpt>
      <trkpt lat="48.19421" lon="-3.75232">
        <ele>76</ele>
        <time>2017-09-23T08:31:21.000Z</time>
      </trkpt>
      <trkpt lat="48.19421" lon="-3.75231">
        <ele>75.9</ele>
        <time>2017-09-23T08:31:22.000Z</time>
      </trkpt>
      <trkpt lat="48.1942" lon="-3.7523">
        <ele>75.9</ele>
        <time>2017-09-23T08:31:23.000Z</time>
      </trkpt>
      <trkpt lat="48.19419" lon="-3.75229">
        <ele>75.9</ele>
        <time>2017-09-23T08:31:24.000Z</time>
      </trkpt>
      <trkpt lat="48.19419" lon="-3.75227">
        <ele>75.8</ele>
        <time>2017-09-23T08:31:25.000Z</time>
      </trkpt>
      <trkpt lat="48.19418" lon="-3.75226">
        <ele>75.8</ele>
        <time>2017-09-23T08:31:26.000Z</time>
      </trkpt>
      <trkpt lat="48.19417" lon="-3.75225">
        <ele>75.7</ele>
        <time>2017-09-23T08:31:27.000Z</time>
      </trkpt>
      <trkpt lat="48.19417" lon="-3.75224">
        <ele>75.7</ele>
        <time>2017-09-23T08:31:28.000Z</time>
      </trkpt>
      <trkpt lat="48.19416" lon="-3.75223">
        <ele>75.6</ele>
        <time>2017-09-23T08:31:29.000Z</time>
      </trkpt>
      <trkpt lat="48.19415" lon="-3.75221">
        <ele>75.6</ele>
        <time>2017-09-23T08:31:30.000Z</time>
      </trkpt>
      <trkpt lat="48.19415" lon="-3.7522">
        <ele>75.6</ele>
        <time>2017-09-23T08:31:31.000Z</time>
      </trkpt>
      <trkpt lat="48.19414" lon="-3.75219">
        <ele>75.5</ele>
        <time>2017-09-23T08:31:32.000Z</time>
      </trkpt>
      <trkpt lat="48.19413" lon="-3.75218">
        <ele>75.5</ele>
        <time>2017-09-23T08:31:33.000Z</time>
      </trkpt>
      <trkpt lat="48.19413" lon="-3.75217">
        <ele>75.4</ele>
        <time>2017-09-23T08:31:34.000Z</time>
      </trkpt>
      <trkpt lat="48.19412" lon="-3.75216">
        <ele>75.4</ele>
        <time>2017-09-23T08:31:35.000Z</time>
      </trkpt>
      <trkpt lat="48.19411" lon="-3.75214">
        <ele>75.3</ele>
        <time>2017-09-23T08:31:36.000Z</time>
      </trkpt>
      <trkpt lat="48.1941" lon="-3.75213">
        <ele>75.3</ele>
        <time>2017-09-23T08:31:37.000Z</time>
      </trkpt>
      <trkpt lat="48.1941" lon="-3.75212">
        <ele>75.3</ele>
        <time>2017-09-23T08:31:38.000Z</time>
      </trkpt>
      <trkpt lat="48.19409" lon="-3.75211">
        <ele>75.2</ele>
        <time>2017-09-23T08:31:39.000Z</time>
      </trkpt>
      <trkpt lat="48.19408" lon="-3.7521">
        <ele>75.2</ele>
        <time>2017-09-23T08:31:40.000Z</time>
      </trkpt>
      <trkpt lat="48.19407" lon="-3.75209">
        <ele>75.1</ele>
        <time>2017-09-23T08:31:41.000Z</time>
      </trkpt>
      <trkpt lat="48.19407" lon="-3.75207">
        <ele>75.1</ele>
        <time>2017-09-23T08:31:42.000Z</time>
      </trkpt>
      <trkpt lat="48.19406" lon="-3.75206">
        <ele>75</ele>
        <time>2017-09-23T08:31:43.000Z</time>
      </trkpt>
      <trkpt lat="48.19405" lon="-3.75205">
        <ele>75</ele>
        <time>2017-09-23T08:31:44.000Z</time>
      </trkpt>
      <trkpt lat="48.19404" lon="-3.75204">
        <ele>74.9</ele>
        <time>2017-09-23T08:31:45.000Z</time>
      </trkpt>
      <trkpt lat="48.19404" lon="-3.75202">
        <ele>74.9</ele>
        <time>2017-09-23T08:31:46.000Z</time>
      </trkpt>
      <trkpt lat="48.19403" lon="-3.75201">
        <ele>74.8</ele>
        <time>2017-09-23T08:31:47.000Z</time>
      </trkpt>
      <trkpt lat="48.19402" lon="-3.752">
        <ele>74.8</ele>
        <time>2017-09-23T08:31:48.000Z</time>
      </trkpt>
      <trkpt lat="48.19401" lon="-3.75199">
        <ele>74.7</ele>
        <time>2017-09-23T08:31:49.000Z</time>
      </trkpt>
      <trkpt lat="48.194" lon="-3.75197">
        <ele>74.7</ele>
        <time>2017-09-23T08:31:50.000Z</time>
      </trkpt>
      <trkpt lat="48.194" lon="-3.75196">
        <ele>74.6</ele>
        <time>2017-09-23T08:31:51.000Z</time>
      </trkpt>
      <trkpt lat="48.19399" lon="-3.75195">
        <ele>74.5</ele>
        <time>2017-09-23T08:31:52.000Z</time>
      </trkpt>
      <trkpt lat="48.19398" lon="-3.75193">
        <ele>74.5</ele>
        <time>2017-09-23T08:31:53.000Z</time>
      </trkpt>
      <trkpt lat="48.19397" lon="-3.75192">
        <ele>74.4</ele>
        <time>2017-09-23T08:31:54.000Z</time>
      </trkpt>
      <trkpt lat="48.19396" lon="-3.7519">
        <ele>74.4</ele>
        <time>2017-09-23T08:31:55.000Z</time>
      </trkpt>
      <trkpt lat="48.19396" lon="-3.75189">
        <ele>74.3</ele>
        <time>2017-09-23T08:31:56.000Z</time>
      </trkpt>
      <trkpt lat="48.19395" lon="-3.75187">
        <ele>74.3</ele>
        <time>2017-09-23T08:31:57.000Z</time>
      </trkpt>
      <trkpt lat="48.19394" lon="-3.75185">
        <ele>74.2</ele>
        <time>2017-09-23T08:31:58.000Z</time>
      </trkpt>
      <trkpt lat="48.19393" lon="-3.75184">
        <ele>74.1</ele>
        <time>2017-09-23T08:31:59.000Z</time>
      </trkpt>
      <trkpt lat="48.19392" lon="-3.75182">
        <ele>74.1</ele>
        <time>2017-09-23T08:32:00.000Z</time>
      </trkpt>
      <trkpt lat="48.19392" lon="-3.7518">
        <ele>74</ele>
        <time>2017-09-23T08:32:01.000Z</time>
      </trkpt>
      <trkpt lat="48.19391" lon="-3.75179">
        <ele>73.9</ele>
        <time>2017-09-23T08:32:02.000Z</time>
      </trkpt>
      <trkpt lat="48.1939" lon="-3.75177">
        <ele>73.9</ele>
        <time>2017-09-23T08:32:03.000Z</time>
      </trkpt>
      <trkpt lat="48.19389" lon="-3.75175">
        <ele>73.8</ele>
        <time>2017-09-23T08:32:04.000Z</time>
      </trkpt>
      <trkpt lat="48.19388" lon="-3.75174">
        <ele>73.7</ele>
        <time>2017-09-23T08:32:05.000Z</time>
      </trkpt>
      <trkpt lat="48.19387" lon="-3.75172">
        <ele>73.7</ele>
        <time>2017-09-23T08:32:06.000Z</time>
      </trkpt>
      <trkpt lat="48.19386" lon="-3.75171">
        <ele>73.6</ele>
        <time>2017-09-23T08:32:07.000Z</time>
      </trkpt>
      <trkpt lat="48.19385" lon="-3.75169">
        <ele>73.5</ele>
        <time>2017-09-23T08:32:08.000Z</time>
      </trkpt>
      <trkpt lat="48.19384" lon="-3.75168">
        <ele>73.5</ele>
        <time>2017-09-23T08:32:09.000Z</time>
      </trkpt>
      <trkpt lat="48.19383" lon="-3.75166">
        <ele>73.4</ele>
        <time>2017-09-23T08:32:10.000Z</time>
      </trkpt>
      <trkpt lat="48.19383" lon="-3.75165">
        <ele>73.3</ele>
        <time>2017-09-23T08:32:11.000Z</time>
      </trkpt>
      <trkpt lat="48.19382" lon="-3.75164">
        <ele>73.2</ele>
        <time>2017-09-23T08:32:12.000Z</time>
      </trkpt>
      <trkpt lat="48.19381" lon="-3.75162">
        <ele>73.2</ele>
        <time>2017-09-23T08:32:13.000Z</time>
      </trkpt>
      <trkpt lat="48.1938" lon="-3.75161">
        <ele>73.1</ele>
        <time>2017-09-23T08:32:14.000Z</time>
      </trkpt>
      <trkpt lat="48.19379" lon="-3.75159">
        <ele>73</ele>
        <time>2017-09-23T08:32:15.000Z</time>
      </trkpt>
      <trkpt lat="48.19378" lon="-3.75158">
        <ele>73</ele>
        <time>2017-09-23T08:32:16.000Z</time>
      </trkpt>
      <trkpt lat="48.19377" lon="-3.75157">
        <ele>72.9</ele>
        <time>2017-09-23T08:32:17.000Z</time>
      </trkpt>
      <trkpt lat="48.19377" lon="-3.75155">
        <ele>72.8</ele>
        <time>2017-09-23T08:32:18.000Z</time>
      </trkpt>
      <trkpt lat="48.19376" lon="-3.75154">
        <ele>72.7</ele>
        <time>2017-09-23T08:32:19.000Z</time>
      </trkpt>
      <trkpt lat="48.19375" lon="-3.75153">
        <ele>72.7</ele>
        <time>2017-09-23T08:32:20.000Z</time>
      </trkpt>
      <trkpt lat="48.19374" lon="-3.75151">
        <ele>72.6</ele>
        <time>2017-09-23T08:32:21.000Z</time>
      </trkpt>
      <trkpt lat="48.19374" lon="-3.7515">
        <ele>72.5</ele>
        <time>2017-09-23T08:32:22.000Z</time>
      </trkpt>
      <trkpt lat="48.19373" lon="-3.75149">
        <ele>72.5</ele>
        <time>2017-09-23T08:32:23.000Z</time>
      </trkpt>
      <trkpt lat="48.19372" lon="-3.75148">
        <ele>72.4</ele>
        <time>2017-09-23T08:32:24.000Z</time>
      </trkpt>
      <trkpt lat="48.19372" lon="-3.75146">
        <ele>72.3</ele>
        <time>2017-09-23T08:32:25.000Z</time>
      </trkpt>
      <trkpt lat="48.19371" lon="-3.75145">
        <ele>72.3</ele>
        <time>2017-09-23T08:32:26.000Z</time>
      </trkpt>
      <trkpt lat="48.1937" lon="-3.75144">
        <ele>72.2</ele>
        <time>2017-09-23T08:32:27.000Z</time>
      </trkpt>
      <trkpt lat="48.1937" lon="-3.75143">
        <ele>72.1</ele>
        <time>2017-09-23T08:32:28.000Z</time>
      </trkpt>
      <trkpt lat="48.19369" lon="-3.75142">
        <ele>72.1</ele>
        <time>2017-09-23T08:32:29.000Z</time>
      </trkpt>
      <trkpt lat="48.19369" lon="-3.75141">
        <ele>72</ele>
        <time>2017-09-23T08:32:30.000Z</time>
      </trkpt>
      <trkpt lat="48.19368" lon="-3.75139">
        <ele>72</ele>
        <time>2017-09-23T08:32:31.000Z</time>
      </trkpt>
      <trkpt lat="48.19368" lon="-3.75138">
        <ele>71.9</ele>
        <time>2017-09-23T08:32:32.000Z</time>
      </trkpt>
      <trkpt lat="48.19367" lon="-3.75137">
        <ele>71.8</ele>
        <time>2017-09-23T08:32:33.000Z</time>
      </trkpt>
      <trkpt lat="48.19367" lon="-3.75135">
        <ele>71.8</ele>
        <time>2017-09-23T08:32:34.000Z</time>
      </trkpt>
      <trkpt lat="48.19367" lon="-3.75134">
        <ele>71.7</ele>
        <time>2017-09-23T08:32:35.000Z</time>
      </trkpt>
      <trkpt lat="48.19366" lon="-3.75133">
        <ele>71.7</ele>
        <time>2017-09-23T08:32:36.000Z</time>
      </trkpt>
      <trkpt lat="48.19366" lon="-3.75131">
        <ele>71.6</ele>
        <time>2017-09-23T08:32:37.000Z</time>
      </trkpt>
      <trkpt lat="48.19366" lon="-3.7513">
        <ele>71.6</ele>
        <time>2017-09-23T08:32:38.000Z</time>
      </trkpt>
      <trkpt lat="48.19366" lon="-3.75128">
        <ele>71.5</ele>
        <time>2017-09-23T08:32:39.000Z</time>
      </trkpt>
      <trkpt lat="48.19366" lon="-3.75127">
        <ele>71.5</ele>
        <time>2017-09-23T08:32:40.000Z</time>
      </trkpt>
      <trkpt lat="48.19366" lon="-3.75126">
        <ele>71.4</ele>
        <time>2017-09-23T08:32:41.000Z</time>
      </trkpt>
      <trkpt lat="48.19366" lon="-3.75124">
        <ele>71.4</ele>
        <time>2017-09-23T08:32:42.000Z</time>
      </trkpt>
      <trkpt lat="48.19366" lon="-3.75123">
        <ele>71.4</ele>
        <time>2017-09-23T08:32:43.000Z</time>
      </trkpt>
      <trkpt lat="48.19366" lon="-3.75122">
        <ele>71.4</ele>
        <time>2017-09-23T08:32:44.000Z</time>
      </trkpt>
      <trkpt lat="48.19366" lon="-3.75121">
        <ele>71.4</ele>
        <time>2017-09-23T08:32:45.000Z</time>
      </trkpt>
      <trkpt lat="48.19366" lon="-3.7512">
        <ele>71.3</ele>
        <time>2017-09-23T08:32:46.000Z</time>
      </trkpt>
      <trkpt lat="48.19366" lon="-3.7512">
        <ele>71.3</ele>
        <time>2017-09-23T08:32:47.000Z</time>
      </trkpt>
      <trkpt lat="48.19366" lon="-3.75119">
        <ele>71.3</ele>
        <time>2017-09-23T08:32:48.000Z</time>
      </trkpt>
      <trkpt lat="48.19366" lon="-3.75118">
        <ele>71.3</ele>
        <time>2017-09-23T08:32:49.000Z</time>
      </trkpt>
      <trkpt lat="48.19366" lon="-3.75118">
        <ele>71.3</ele>
        <time>2017-09-23T08:32:50.000Z</time>
      </trkpt>
      <trkpt lat="48.19366" lon="-3.75117">
        <ele>71.3</ele>
        <time>2017-09-23T08:32:51.000Z</time>
      </trkpt>
      <trkpt lat="48.19366" lon="-3.75117">
        <ele>71.2</ele>
        <time>2017-09-23T08:32:52.000Z</time>
      </trkpt>
      <trkpt lat="48.19366" lon="-3.75116">
        <ele>71.2</ele>
        <time>2017-09-23T08:32:53.000Z</time>
      </trkpt>
      <trkpt lat="48.19365" lon="-3.75115">
        <ele>71.2</ele>
        <time>2017-09-23T08:32:54.000Z</time>
      </trkpt>
      <trkpt lat="48.19365" lon="-3.75115">
        <ele>71.1</ele>
        <time>2017-09-23T08:32:55.000Z</time>
      </trkpt>
      <trkpt lat="48.19364" lon="-3.75114">
        <ele>71.1</ele>
        <time>2017-09-23T08:32:56.000Z</time>
      </trkpt>
      <trkpt lat="48.19364" lon="-3.75113">
        <ele>71</ele>
        <time>2017-09-23T08:32:57.000Z</time>
      </trkpt>
      <trkpt lat="48.19363" lon="-3.75113">
        <ele>70.9</ele>
        <time>2017-09-23T08:32:58.000Z</time>
      </trkpt>
      <trkpt lat="48.19362" lon="-3.75112">
        <ele>70.9</ele>
        <time>2017-09-23T08:32:59.000Z</time>
      </trkpt>
      <trkpt lat="48.19362" lon="-3.75112">
        <ele>70.8</ele>
        <time>2017-09-23T08:33:00.000Z</time>
      </trkpt>
      <trkpt lat="48.19362" lon="-3.75112">
        <ele>70.8</ele>
        <time>2017-09-23T08:33:01.000Z</time>
      </trkpt>
      <trkpt lat="48.19361" lon="-3.75112">
        <ele>70.8</ele>
        <time>2017-09-23T08:33:02.000Z</time>
      </trkpt>
      <trkpt lat="48.19361" lon="-3.75112">
        <ele>70.8</ele>
        <time>2017-09-23T08:33:03.000Z</time>
      </trkpt>
      <trkpt lat="48.19361" lon="-3.75111">
        <ele>70.8</ele>
        <time>2017-09-23T08:33:04.000Z</time>
      </trkpt>
      <trkpt lat="48.1936" lon="-3.75111">
        <ele>70.7</ele>
        <time>2017-09-23T08:33:05.000Z</time>
      </trkpt>
      <trkpt lat="48.1936" lon="-3.7511">
        <ele>70.7</ele>
        <time>2017-09-23T08:33:06.000Z</time>
      </trkpt>
      <trkpt lat="48.1936" lon="-3.7511">
        <ele>70.6</ele>
        <time>2017-09-23T08:33:07.000Z</time>
      </trkpt>
      <trkpt lat="48.19359" lon="-3.75109">
        <ele>70.6</ele>
        <time>2017-09-23T08:33:08.000Z</time>
      </trkpt>
      <trkpt lat="48.19359" lon="-3.75108">
        <ele>70.5</ele>
        <time>2017-09-23T08:33:09.000Z</time>
      </trkpt>
      <trkpt lat="48.19358" lon="-3.75107">
        <ele>70.5</ele>
        <time>2017-09-23T08:33:10.000Z</time>
      </trkpt>
      <trkpt lat="48.19358" lon="-3.75106">
        <ele>70.4</ele>
        <time>2017-09-23T08:33:11.000Z</time>
      </trkpt>
      <trkpt lat="48.19357" lon="-3.75105">
        <ele>70.4</ele>
        <time>2017-09-23T08:33:12.000Z</time>
      </trkpt>
      <trkpt lat="48.19357" lon="-3.75104">
        <ele>70.3</ele>
        <time>2017-09-23T08:33:13.000Z</time>
      </trkpt>
      <trkpt lat="48.19357" lon="-3.75104">
        <ele>70.3</ele>
        <time>2017-09-23T08:33:14.000Z</time>
      </trkpt>
      <trkpt lat="48.19356" lon="-3.75103">
        <ele>70.2</ele>
        <time>2017-09-23T08:33:15.000Z</time>
      </trkpt>
      <trkpt lat="48.19356" lon="-3.75102">
        <ele>70.2</ele>
        <time>2017-09-23T08:33:16.000Z</time>
      </trkpt>
      <trkpt lat="48.19356" lon="-3.75102">
        <ele>70.2</ele>
        <time>2017-09-23T08:33:17.000Z</time>
      </trkpt>
      <trkpt lat="48.19356" lon="-3.75102">
        <ele>70.2</ele>
        <time>2017-09-23T08:33:18.000Z</time>
      </trkpt>
      <trkpt lat="48.19356" lon="-3.75101">
        <ele>70.1</ele>
        <time>2017-09-23T08:33:19.000Z</time>
      </trkpt>
      <trkpt lat="48.19356" lon="-3.75101">
        <ele>70.1</ele>
        <time>2017-09-23T08:33:20.000Z</time>
      </trkpt>
      <trkpt lat="48.19356" lon="-3.75101">
        <ele>70.1</ele>
        <time>2017-09-23T08:33:21.000Z</time>
      </trkpt>
      <trkpt lat="48.19355" lon="-3.751">
        <ele>70.1</ele>
        <time>2017-09-23T08:33:22.000Z</time>
      </trkpt>
      <trkpt lat="48.19355" lon="-3.751">
        <ele>70.1</ele>
        <time>2017-09-23T08:33:23.000Z</time>
      </trkpt>
      <trkpt lat="48.19355" lon="-3.751">
        <ele>70.1</ele>
        <time>2017-09-23T08:33:24.000Z</time>
      </trkpt>
      <trkpt lat="48.19355" lon="-3.751">
        <ele>70.1</ele>
        <time>2017-09-23T08:33:25.000Z</time>
      </trkpt>
      <trkpt lat="48.19355" lon="-3.751">
        <ele>70.1</ele>
        <time>2017-09-23T08:33:26.000Z</time>
      </trkpt>
      <trkpt lat="48.19355" lon="-3.751">
        <ele>70.1</ele>
        <time>2017-09-23T08:33:27.000Z</time>
      </trkpt>
      <trkpt lat="48.19355" lon="-3.751">
        <ele>70.1</ele>
        <time>2017-09-23T08:33:28.000Z</time>
      </trkpt>
      <trkpt lat="48.19355" lon="-3.751">
        <ele>70.1</ele>
        <time>2017-09-23T08:33:29.000Z</time>
      </trkpt>
      <trkpt lat="48.19355" lon="-3.75099">
        <ele>70</ele>
        <time>2017-09-23T08:33:30.000Z</time>
      </trkpt>
      <trkpt lat="48.19354" lon="-3.75098">
        <ele>69.9</ele>
        <time>2017-09-23T08:33:31.000Z</time>
      </trkpt>
      <trkpt lat="48.19354" lon="-3.75098">
        <ele>69.9</ele>
        <time>2017-09-23T08:33:32.000Z</time>
      </trkpt>
      <trkpt lat="48.19354" lon="-3.75098">
        <ele>69.9</ele>
        <time>2017-09-23T08:33:33.000Z</time>
      </trkpt>
      <trkpt lat="48.19354" lon="-3.75097">
        <ele>69.9</ele>
        <time>2017-09-23T08:33:34.000Z</time>
      </trkpt>
      <trkpt lat="48.19354" lon="-3.75097">
        <ele>69.9</ele>
        <time>2017-09-23T08:33:35.000Z</time>
      </trkpt>
      <trkpt lat="48.19354" lon="-3.75097">
        <ele>69.9</ele>
        <time>2017-09-23T08:33:36.000Z</time>
      </trkpt>
      <trkpt lat="48.19354" lon="-3.75097">
        <ele>69.9</ele>
        <time>2017-09-23T08:33:37.000Z</time>
      </trkpt>
      <trkpt lat="48.19354" lon="-3.75097">
        <ele>69.9</ele>
        <time>2017-09-23T08:33:38.000Z</time>
      </trkpt>
      <trkpt lat="48.19353" lon="-3.75097">
        <ele>69.9</ele>
        <time>2017-09-23T08:33:39.000Z</time>
      </trkpt>
      <trkpt lat="48.19353" lon="-3.75097">
        <ele>69.8</ele>
        <time>2017-09-23T08:33:40.000Z</time>
      </trkpt>
      <trkpt lat="48.19353" lon="-3.75097">
        <ele>69.8</ele>
        <time>2017-09-23T08:33:41.000Z</time>
      </trkpt>
      <trkpt lat="48.19353" lon="-3.75097">
        <ele>69.8</ele>
        <time>2017-09-23T08:33:42.000Z</time>
      </trkpt>
      <trkpt lat="48.19353" lon="-3.75096">
        <ele>69.8</ele>
        <time>2017-09-23T08:33:43.000Z</time>
      </trkpt>
      <trkpt lat="48.19353" lon="-3.75096">
        <ele>69.8</ele>
        <time>2017-09-23T08:33:44.000Z</time>
      </trkpt>
      <trkpt lat="48.19353" lon="-3.75096">
        <ele>69.8</ele>
        <time>2017-09-23T08:33:45.000Z</time>
      </trkpt>
      <trkpt lat="48.19353" lon="-3.75096">
        <ele>69.8</ele>
        <time>2017-09-23T08:33:46.000Z</time>
      </trkpt>
      <trkpt lat="48.19353" lon="-3.75096">
        <ele>69.8</ele>
        <time>2017-09-23T08:33:47.000Z</time>
      </trkpt>
      <trkpt lat="48.19353" lon="-3.75095">
        <ele>69.8</ele>
        <time>2017-09-23T08:33:48.000Z</time>
      </trkpt>
      <trkpt lat="48.19353" lon="-3.75095">
        <ele>69.7</ele>
        <time>2017-09-23T08:33:49.000Z</time>
      </trkpt>
      <trkpt lat="48.19353" lon="-3.75094">
        <ele>69.7</ele>
        <time>2017-09-23T08:33:50.000Z</time>
      </trkpt>
      <trkpt lat="48.19352" lon="-3.75093">
        <ele>69.6</ele>
        <time>2017-09-23T08:33:51.000Z</time>
      </trkpt>
      <trkpt lat="48.19352" lon="-3.75091">
        <ele>69.6</ele>
        <time>2017-09-23T08:33:52.000Z</time>
      </trkpt>
      <trkpt lat="48.19351" lon="-3.7509">
        <ele>69.5</ele>
        <time>2017-09-23T08:33:53.000Z</time>
      </trkpt>
      <trkpt lat="48.19351" lon="-3.7509">
        <ele>69.5</ele>
        <time>2017-09-23T08:33:54.000Z</time>
      </trkpt>
      <trkpt lat="48.19351" lon="-3.7509">
        <ele>69.5</ele>
        <time>2017-09-23T08:33:55.000Z</time>
      </trkpt>
      <trkpt lat="48.19351" lon="-3.75089">
        <ele>69.5</ele>
        <time>2017-09-23T08:33:56.000Z</time>
      </trkpt>
      <trkpt lat="48.19351" lon="-3.75089">
        <ele>69.5</ele>
        <time>2017-09-23T08:33:57.000Z</time>
      </trkpt>
      <trkpt lat="48.19351" lon="-3.75089">
        <ele>69.4</ele>
        <time>2017-09-23T08:33:58.000Z</time>
      </trkpt>
      <trkpt lat="48.19351" lon="-3.75089">
        <ele>69.4</ele>
        <time>2017-09-23T08:33:59.000Z</time>
      </trkpt>
      <trkpt lat="48.19351" lon="-3.75088">
        <ele>69.4</ele>
        <time>2017-09-23T08:34:00.000Z</time>
      </trkpt>
      <trkpt lat="48.19351" lon="-3.75088">
        <ele>69.4</ele>
        <time>2017-09-23T08:34:01.000Z</time>
      </trkpt>
      <trkpt lat="48.19351" lon="-3.75088">
        <ele>69.4</ele>
        <time>2017-09-23T08:34:02.000Z</time>
      </trkpt>
      <trkpt lat="48.1935" lon="-3.75087">
        <ele>69.4</ele>
        <time>2017-09-23T08:34:03.000Z</time>
      </trkpt>
      <trkpt lat="48.1935" lon="-3.75087">
        <ele>69.3</ele>
        <time>2017-09-23T08:34:04.000Z</time>
      </trkpt>
      <trkpt lat="48.1935" lon="-3.75086">
        <ele>69.2</ele>
        <time>2017-09-23T08:34:05.000Z</time>
      </trkpt>
      <trkpt lat="48.19349" lon="-3.75084">
        <ele>69.2</ele>
        <time>2017-09-23T08:34:06.000Z</time>
      </trkpt>
      <trkpt lat="48.19349" lon="-3.75083">
        <ele>69.1</ele>
        <time>2017-09-23T08:34:07.000Z</time>
      </trkpt>
      <trkpt lat="48.19349" lon="-3.75083">
        <ele>69.1</ele>
        <time>2017-09-23T08:34:08.000Z</time>
      </trkpt>
      <trkpt lat="48.19349" lon="-3.75083">
        <ele>69.1</ele>
        <time>2017-09-23T08:34:09.000Z</time>
      </trkpt>
      <trkpt lat="48.19348" lon="-3.75082">
        <ele>69.1</ele>
        <time>2017-09-23T08:34:10.000Z</time>
      </trkpt>
      <trkpt lat="48.19348" lon="-3.75082">
        <ele>69</ele>
        <time>2017-09-23T08:34:11.000Z</time>
      </trkpt>
      <trkpt lat="48.19348" lon="-3.75082">
        <ele>69</ele>
        <time>2017-09-23T08:34:12.000Z</time>
      </trkpt>
      <trkpt lat="48.19348" lon="-3.75081">
        <ele>69</ele>
        <time>2017-09-23T08:34:13.000Z</time>
      </trkpt>
      <trkpt lat="48.19348" lon="-3.75081">
        <ele>69</ele>
        <time>2017-09-23T08:34:14.000Z</time>
      </trkpt>
      <trkpt lat="48.19348" lon="-3.75081">
        <ele>68.9</ele>
        <time>2017-09-23T08:34:15.000Z</time>
      </trkpt>
      <trkpt lat="48.19347" lon="-3.7508">
        <ele>68.9</ele>
        <time>2017-09-23T08:34:16.000Z</time>
      </trkpt>
      <trkpt lat="48.19347" lon="-3.7508">
        <ele>68.9</ele>
        <time>2017-09-23T08:34:17.000Z</time>
      </trkpt>
      <trkpt lat="48.19346" lon="-3.75079">
        <ele>68.8</ele>
        <time>2017-09-23T08:34:18.000Z</time>
      </trkpt>
      <trkpt lat="48.19345" lon="-3.75078">
        <ele>68.7</ele>
        <time>2017-09-23T08:34:19.000Z</time>
      </trkpt>
      <trkpt lat="48.19344" lon="-3.75077">
        <ele>68.6</ele>
        <time>2017-09-23T08:34:20.000Z</time>
      </trkpt>
      <trkpt lat="48.19344" lon="-3.75076">
        <ele>68.5</ele>
        <time>2017-09-23T08:34:21.000Z</time>
      </trkpt>
      <trkpt lat="48.19344" lon="-3.75076">
        <ele>68.5</ele>
        <time>2017-09-23T08:34:22.000Z</time>
      </trkpt>
      <trkpt lat="48.19343" lon="-3.75076">
        <ele>68.5</ele>
        <time>2017-09-23T08:34:23.000Z</time>
      </trkpt>
      <trkpt lat="48.19343" lon="-3.75076">
        <ele>68.5</ele>
        <time>2017-09-23T08:34:24.000Z</time>
      </trkpt>
      <trkpt lat="48.19343" lon="-3.75076">
        <ele>68.4</ele>
        <time>2017-09-23T08:34:25.000Z</time>
      </trkpt>
      <trkpt lat="48.19342" lon="-3.75075">
        <ele>68.4</ele>
        <time>2017-09-23T08:34:26.000Z</time>
      </trkpt>
      <trkpt lat="48.19342" lon="-3.75075">
        <ele>68.3</ele>
        <time>2017-09-23T08:34:27.000Z</time>
      </trkpt>
      <trkpt lat="48.19341" lon="-3.75074">
        <ele>68.2</ele>
        <time>2017-09-23T08:34:28.000Z</time>
      </trkpt>
      <trkpt lat="48.1934" lon="-3.75074">
        <ele>68.2</ele>
        <time>2017-09-23T08:34:29.000Z</time>
      </trkpt>
      <trkpt lat="48.19339" lon="-3.75073">
        <ele>68.1</ele>
        <time>2017-09-23T08:34:30.000Z</time>
      </trkpt>
      <trkpt lat="48.19338" lon="-3.75072">
        <ele>68</ele>
        <time>2017-09-23T08:34:31.000Z</time>
      </trkpt>
      <trkpt lat="48.19337" lon="-3.75072">
        <ele>67.9</ele>
        <time>2017-09-23T08:34:32.000Z</time>
      </trkpt>
      <trkpt lat="48.19336" lon="-3.75071">
        <ele>67.8</ele>
        <time>2017-09-23T08:34:33.000Z</time>
      </trkpt>
      <trkpt lat="48.19335" lon="-3.7507">
        <ele>67.6</ele>
        <time>2017-09-23T08:34:34.000Z</time>
      </trkpt>
      <trkpt lat="48.19334" lon="-3.75069">
        <ele>67.5</ele>
        <time>2017-09-23T08:34:35.000Z</time>
      </trkpt>
      <trkpt lat="48.19333" lon="-3.75069">
        <ele>67.4</ele>
        <time>2017-09-23T08:34:36.000Z</time>
      </trkpt>
      <trkpt lat="48.19332" lon="-3.75068">
        <ele>67.3</ele>
        <time>2017-09-23T08:34:37.000Z</time>
      </trkpt>
      <trkpt lat="48.19331" lon="-3.75067">
        <ele>67.2</ele>
        <time>2017-09-23T08:34:38.000Z</time>
      </trkpt>
      <trkpt lat="48.1933" lon="-3.75067">
        <ele>67</ele>
        <time>2017-09-23T08:34:39.000Z</time>
      </trkpt>
      <trkpt lat="48.19329" lon="-3.75066">
        <ele>66.9</ele>
        <time>2017-09-23T08:34:40.000Z</time>
      </trkpt>
      <trkpt lat="48.19328" lon="-3.75065">
        <ele>66.8</ele>
        <time>2017-09-23T08:34:41.000Z</time>
      </trkpt>
      <trkpt lat="48.19327" lon="-3.75065">
        <ele>66.7</ele>
        <time>2017-09-23T08:34:42.000Z</time>
      </trkpt>
      <trkpt lat="48.19326" lon="-3.75064">
        <ele>66.6</ele>
        <time>2017-09-23T08:34:43.000Z</time>
      </trkpt>
      <trkpt lat="48.19325" lon="-3.75064">
        <ele>66.5</ele>
        <time>2017-09-23T08:34:44.000Z</time>
      </trkpt>
      <trkpt lat="48.19324" lon="-3.75063">
        <ele>66.4</ele>
        <time>2017-09-23T08:34:45.000Z</time>
      </trkpt>
      <trkpt lat="48.19323" lon="-3.75063">
        <ele>66.3</ele>
        <time>2017-09-23T08:34:46.000Z</time>
      </trkpt>
      <trkpt lat="48.19322" lon="-3.75062">
        <ele>66.2</ele>
        <time>2017-09-23T08:34:47.000Z</time>
      </trkpt>
      <trkpt lat="48.19321" lon="-3.75062">
        <ele>66.1</ele>
        <time>2017-09-23T08:34:48.000Z</time>
      </trkpt>
      <trkpt lat="48.1932" lon="-3.75061">
        <ele>66</ele>
        <time>2017-09-23T08:34:49.000Z</time>
      </trkpt>
      <trkpt lat="48.19319" lon="-3.75061">
        <ele>65.9</ele>
        <time>2017-09-23T08:34:50.000Z</time>
      </trkpt>
      <trkpt lat="48.19318" lon="-3.75061">
        <ele>65.8</ele>
        <time>2017-09-23T08:34:51.000Z</time>
      </trkpt>
      <trkpt lat="48.19318" lon="-3.75061">
        <ele>65.8</ele>
        <time>2017-09-23T08:34:52.000Z</time>
      </trkpt>
      <trkpt lat="48.19317" lon="-3.7506">
        <ele>65.7</ele>
        <time>2017-09-23T08:34:53.000Z</time>
      </trkpt>
      <trkpt lat="48.19317" lon="-3.7506">
        <ele>65.7</ele>
        <time>2017-09-23T08:34:54.000Z</time>
      </trkpt>
      <trkpt lat="48.19317" lon="-3.7506">
        <ele>65.7</ele>
        <time>2017-09-23T08:34:55.000Z</time>
      </trkpt>
      <trkpt lat="48.19316" lon="-3.7506">
        <ele>65.6</ele>
        <time>2017-09-23T08:34:56.000Z</time>
      </trkpt>
      <trkpt lat="48.19316" lon="-3.7506">
        <ele>65.6</ele>
        <time>2017-09-23T08:34:57.000Z</time>
      </trkpt>
      <trkpt lat="48.19315" lon="-3.7506">
        <ele>65.5</ele>
        <time>2017-09-23T08:34:58.000Z</time>
      </trkpt>
      <trkpt lat="48.19315" lon="-3.75059">
        <ele>65.5</ele>
        <time>2017-09-23T08:34:59.000Z</time>
      </trkpt>
      <trkpt lat="48.19314" lon="-3.75058">
        <ele>65.4</ele>
        <time>2017-09-23T08:35:00.000Z</time>
      </trkpt>
      <trkpt lat="48.19313" lon="-3.75058">
        <ele>65.3</ele>
        <time>2017-09-23T08:35:01.000Z</time>
      </trkpt>
      <trkpt lat="48.19313" lon="-3.75057">
        <ele>65.2</ele>
        <time>2017-09-23T08:35:02.000Z</time>
      </trkpt>
      <trkpt lat="48.19312" lon="-3.75057">
        <ele>65.2</ele>
        <time>2017-09-23T08:35:03.000Z</time>
      </trkpt>
      <trkpt lat="48.19312" lon="-3.75056">
        <ele>65.1</ele>
        <time>2017-09-23T08:35:04.000Z</time>
      </trkpt>
      <trkpt lat="48.19312" lon="-3.75056">
        <ele>65.1</ele>
        <time>2017-09-23T08:35:05.000Z</time>
      </trkpt>
      <trkpt lat="48.19311" lon="-3.75055">
        <ele>65.1</ele>
        <time>2017-09-23T08:35:06.000Z</time>
      </trkpt>
      <trkpt lat="48.19311" lon="-3.75054">
        <ele>65</ele>
        <time>2017-09-23T08:35:07.000Z</time>
      </trkpt>
      <trkpt lat="48.19311" lon="-3.75053">
        <ele>65</ele>
        <time>2017-09-23T08:35:08.000Z</time>
      </trkpt>
      <trkpt lat="48.19311" lon="-3.75052">
        <ele>64.9</ele>
        <time>2017-09-23T08:35:09.000Z</time>
      </trkpt>
      <trkpt lat="48.19311" lon="-3.75051">
        <ele>64.9</ele>
        <time>2017-09-23T08:35:10.000Z</time>
      </trkpt>
      <trkpt lat="48.19311" lon="-3.7505">
        <ele>64.8</ele>
        <time>2017-09-23T08:35:11.000Z</time>
      </trkpt>
      <trkpt lat="48.19311" lon="-3.75049">
        <ele>64.8</ele>
        <time>2017-09-23T08:35:12.000Z</time>
      </trkpt>
      <trkpt lat="48.1931" lon="-3.75048">
        <ele>64.7</ele>
        <time>2017-09-23T08:35:13.000Z</time>
      </trkpt>
      <trkpt lat="48.1931" lon="-3.75046">
        <ele>64.7</ele>
        <time>2017-09-23T08:35:14.000Z</time>
      </trkpt>
      <trkpt lat="48.1931" lon="-3.75045">
        <ele>64.7</ele>
        <time>2017-09-23T08:35:15.000Z</time>
      </trkpt>
      <trkpt lat="48.1931" lon="-3.75044">
        <ele>64.6</ele>
        <time>2017-09-23T08:35:16.000Z</time>
      </trkpt>
      <trkpt lat="48.1931" lon="-3.75043">
        <ele>64.6</ele>
        <time>2017-09-23T08:35:17.000Z</time>
      </trkpt>
      <trkpt lat="48.1931" lon="-3.75043">
        <ele>64.6</ele>
        <time>2017-09-23T08:35:18.000Z</time>
      </trkpt>
      <trkpt lat="48.1931" lon="-3.75042">
        <ele>64.6</ele>
        <time>2017-09-23T08:35:19.000Z</time>
      </trkpt>
      <trkpt lat="48.1931" lon="-3.75042">
        <ele>64.5</ele>
        <time>2017-09-23T08:35:20.000Z</time>
      </trkpt>
      <trkpt lat="48.1931" lon="-3.75041">
        <ele>64.5</ele>
        <time>2017-09-23T08:35:21.000Z</time>
      </trkpt>
      <trkpt lat="48.19309" lon="-3.75039">
        <ele>64.4</ele>
        <time>2017-09-23T08:35:22.000Z</time>
      </trkpt>
      <trkpt lat="48.19309" lon="-3.75037">
        <ele>64.3</ele>
        <time>2017-09-23T08:35:23.000Z</time>
      </trkpt>
      <trkpt lat="48.19309" lon="-3.75036">
        <ele>64.2</ele>
        <time>2017-09-23T08:35:24.000Z</time>
      </trkpt>
      <trkpt lat="48.19308" lon="-3.75035">
        <ele>64.2</ele>
        <time>2017-09-23T08:35:25.000Z</time>
      </trkpt>
      <trkpt lat="48.19308" lon="-3.75034">
        <ele>64.2</ele>
        <time>2017-09-23T08:35:26.000Z</time>
      </trkpt>
      <trkpt lat="48.19308" lon="-3.75033">
        <ele>64.1</ele>
        <time>2017-09-23T08:35:27.000Z</time>
      </trkpt>
      <trkpt lat="48.19308" lon="-3.75032">
        <ele>64.1</ele>
        <time>2017-09-23T08:35:28.000Z</time>
      </trkpt>
      <trkpt lat="48.19308" lon="-3.7503">
        <ele>64.1</ele>
        <time>2017-09-23T08:35:29.000Z</time>
      </trkpt>
      <trkpt lat="48.19308" lon="-3.75029">
        <ele>64</ele>
        <time>2017-09-23T08:35:30.000Z</time>
      </trkpt>
      <trkpt lat="48.19308" lon="-3.75027">
        <ele>63.9</ele>
        <time>2017-09-23T08:35:31.000Z</time>
      </trkpt>
      <trkpt lat="48.19308" lon="-3.75025">
        <ele>63.9</ele>
        <time>2017-09-23T08:35:32.000Z</time>
      </trkpt>
      <trkpt lat="48.19308" lon="-3.75023">
        <ele>63.8</ele>
        <time>2017-09-23T08:35:33.000Z</time>
      </trkpt>
      <trkpt lat="48.19308" lon="-3.75022">
        <ele>63.8</ele>
        <time>2017-09-23T08:35:34.000Z</time>
      </trkpt>
      <trkpt lat="48.19308" lon="-3.75022">
        <ele>63.8</ele>
        <time>2017-09-23T08:35:35.000Z</time>
      </trkpt>
      <trkpt lat="48.19307" lon="-3.75021">
        <ele>63.7</ele>
        <time>2017-09-23T08:35:36.000Z</time>
      </trkpt>
      <trkpt lat="48.19307" lon="-3.7502">
        <ele>63.7</ele>
        <time>2017-09-23T08:35:37.000Z</time>
      </trkpt>
      <trkpt lat="48.19307" lon="-3.75019">
        <ele>63.6</ele>
        <time>2017-09-23T08:35:38.000Z</time>
      </trkpt>
      <trkpt lat="48.19307" lon="-3.75017">
        <ele>63.6</ele>
        <time>2017-09-23T08:35:39.000Z</time>
      </trkpt>
      <trkpt lat="48.19306" lon="-3.75016">
        <ele>63.5</ele>
        <time>2017-09-23T08:35:40.000Z</time>
      </trkpt>
      <trkpt lat="48.19306" lon="-3.75014">
        <ele>63.4</ele>
        <time>2017-09-23T08:35:41.000Z</time>
      </trkpt>
      <trkpt lat="48.19306" lon="-3.75012">
        <ele>63.3</ele>
        <time>2017-09-23T08:35:42.000Z</time>
      </trkpt>
      <trkpt lat="48.19305" lon="-3.7501">
        <ele>63.2</ele>
        <time>2017-09-23T08:35:43.000Z</time>
      </trkpt>
      <trkpt lat="48.19305" lon="-3.75008">
        <ele>63.2</ele>
        <time>2017-09-23T08:35:44.000Z</time>
      </trkpt>
      <trkpt lat="48.19305" lon="-3.75007">
        <ele>63.1</ele>
        <time>2017-09-23T08:35:45.000Z</time>
      </trkpt>
      <trkpt lat="48.19304" lon="-3.75006">
        <ele>63.1</ele>
        <time>2017-09-23T08:35:46.000Z</time>
      </trkpt>
      <trkpt lat="48.19304" lon="-3.75005">
        <ele>63.1</ele>
        <time>2017-09-23T08:35:47.000Z</time>
      </trkpt>
      <trkpt lat="48.19304" lon="-3.75005">
        <ele>63</ele>
        <time>2017-09-23T08:35:48.000Z</time>
      </trkpt>
      <trkpt lat="48.19304" lon="-3.75004">
        <ele>63</ele>
        <time>2017-09-23T08:35:49.000Z</time>
      </trkpt>
      <trkpt lat="48.19304" lon="-3.75004">
        <ele>63</ele>
        <time>2017-09-23T08:35:50.000Z</time>
      </trkpt>
      <trkpt lat="48.19304" lon="-3.75003">
        <ele>63</ele>
        <time>2017-09-23T08:35:51.000Z</time>
      </trkpt>
      <trkpt lat="48.19304" lon="-3.75003">
        <ele>63</ele>
        <time>2017-09-23T08:35:52.000Z</time>
      </trkpt>
      <trkpt lat="48.19304" lon="-3.75003">
        <ele>62.9</ele>
        <time>2017-09-23T08:35:53.000Z</time>
      </trkpt>
      <trkpt lat="48.19304" lon="-3.75002">
        <ele>62.9</ele>
        <time>2017-09-23T08:35:54.000Z</time>
      </trkpt>
      <trkpt lat="48.19304" lon="-3.75">
        <ele>62.9</ele>
        <time>2017-09-23T08:35:55.000Z</time>
      </trkpt>
      <trkpt lat="48.19304" lon="-3.74998">
        <ele>62.9</ele>
        <time>2017-09-23T08:35:56.000Z</time>
      </trkpt>
      <trkpt lat="48.19304" lon="-3.74996">
        <ele>62.9</ele>
        <time>2017-09-23T08:35:57.000Z</time>
      </trkpt>
      <trkpt lat="48.19305" lon="-3.74995">
        <ele>63</ele>
        <time>2017-09-23T08:35:58.000Z</time>
      </trkpt>
      <trkpt lat="48.19305" lon="-3.74994">
        <ele>63</ele>
        <time>2017-09-23T08:35:59.000Z</time>
      </trkpt>
      <trkpt lat="48.19306" lon="-3.74993">
        <ele>63.1</ele>
        <time>2017-09-23T08:36:00.000Z</time>
      </trkpt>
      <trkpt lat="48.19306" lon="-3.74991">
        <ele>63.1</ele>
        <time>2017-09-23T08:36:01.000Z</time>
      </trkpt>
      <trkpt lat="48.19307" lon="-3.7499">
        <ele>63.1</ele>
        <time>2017-09-23T08:36:02.000Z</time>
      </trkpt>
      <trkpt lat="48.19307" lon="-3.74989">
        <ele>63.2</ele>
        <time>2017-09-23T08:36:03.000Z</time>
      </trkpt>
      <trkpt lat="48.19307" lon="-3.74988">
        <ele>63.2</ele>
        <time>2017-09-23T08:36:04.000Z</time>
      </trkpt>
      <trkpt lat="48.19307" lon="-3.74986">
        <ele>63.2</ele>
        <time>2017-09-23T08:36:05.000Z</time>
      </trkpt>
      <trkpt lat="48.19308" lon="-3.74985">
        <ele>63.3</ele>
        <time>2017-09-23T08:36:06.000Z</time>
      </trkpt>
      <trkpt lat="48.19308" lon="-3.74983">
        <ele>63.3</ele>
        <time>2017-09-23T08:36:07.000Z</time>
      </trkpt>
      <trkpt lat="48.19308" lon="-3.74982">
        <ele>63.3</ele>
        <time>2017-09-23T08:36:08.000Z</time>
      </trkpt>
      <trkpt lat="48.19308" lon="-3.7498">
        <ele>63.3</ele>
        <time>2017-09-23T08:36:09.000Z</time>
      </trkpt>
      <trkpt lat="48.19308" lon="-3.74979">
        <ele>63.3</ele>
        <time>2017-09-23T08:36:10.000Z</time>
      </trkpt>
      <trkpt lat="48.19308" lon="-3.74977">
        <ele>63.3</ele>
        <time>2017-09-23T08:36:11.000Z</time>
      </trkpt>
      <trkpt lat="48.19307" lon="-3.74975">
        <ele>63.3</ele>
        <time>2017-09-23T08:36:12.000Z</time>
      </trkpt>
      <trkpt lat="48.19307" lon="-3.74974">
        <ele>63.3</ele>
        <time>2017-09-23T08:36:13.000Z</time>
      </trkpt>
      <trkpt lat="48.19307" lon="-3.74972">
        <ele>63.3</ele>
        <time>2017-09-23T08:36:14.000Z</time>
      </trkpt>
      <trkpt lat="48.19306" lon="-3.74971">
        <ele>63.3</ele>
        <time>2017-09-23T08:36:15.000Z</time>
      </trkpt>
      <trkpt lat="48.19306" lon="-3.74969">
        <ele>63.3</ele>
        <time>2017-09-23T08:36:16.000Z</time>
      </trkpt>
      <trkpt lat="48.19305" lon="-3.74968">
        <ele>63.2</ele>
        <time>2017-09-23T08:36:17.000Z</time>
      </trkpt>
      <trkpt lat="48.19305" lon="-3.74967">
        <ele>63.2</ele>
        <time>2017-09-23T08:36:18.000Z</time>
      </trkpt>
      <trkpt lat="48.19305" lon="-3.74965">
        <ele>63.2</ele>
        <time>2017-09-23T08:36:19.000Z</time>
      </trkpt>
      <trkpt lat="48.19304" lon="-3.74963">
        <ele>63.2</ele>
        <time>2017-09-23T08:36:20.000Z</time>
      </trkpt>
      <trkpt lat="48.19304" lon="-3.74962">
        <ele>63.2</ele>
        <time>2017-09-23T08:36:21.000Z</time>
      </trkpt>
      <trkpt lat="48.19303" lon="-3.7496">
        <ele>63.2</ele>
        <time>2017-09-23T08:36:22.000Z</time>
      </trkpt>
      <trkpt lat="48.19303" lon="-3.74958">
        <ele>63.2</ele>
        <time>2017-09-23T08:36:23.000Z</time>
      </trkpt>
      <trkpt lat="48.19302" lon="-3.74957">
        <ele>63.2</ele>
        <time>2017-09-23T08:36:24.000Z</time>
      </trkpt>
      <trkpt lat="48.19302" lon="-3.74955">
        <ele>63.2</ele>
        <time>2017-09-23T08:36:25.000Z</time>
      </trkpt>
      <trkpt lat="48.19302" lon="-3.74954">
        <ele>63.2</ele>
        <time>2017-09-23T08:36:26.000Z</time>
      </trkpt>
      <trkpt lat="48.19302" lon="-3.74953">
        <ele>63.2</ele>
        <time>2017-09-23T08:36:27.000Z</time>
      </trkpt>
      <trkpt lat="48.19302" lon="-3.74952">
        <ele>63.2</ele>
        <time>2017-09-23T08:36:28.000Z</time>
      </trkpt>
      <trkpt lat="48.19302" lon="-3.74951">
        <ele>63.2</ele>
        <time>2017-09-23T08:36:29.000Z</time>
      </trkpt>
      <trkpt lat="48.19302" lon="-3.7495">
        <ele>63.2</ele>
        <time>2017-09-23T08:36:30.000Z</time>
      </trkpt>
      <trkpt lat="48.19303" lon="-3.74948">
        <ele>63.2</ele>
        <time>2017-09-23T08:36:31.000Z</time>
      </trkpt>
      <trkpt lat="48.19303" lon="-3.74946">
        <ele>63.3</ele>
        <time>2017-09-23T08:36:32.000Z</time>
      </trkpt>
      <trkpt lat="48.19303" lon="-3.74944">
        <ele>63.3</ele>
        <time>2017-09-23T08:36:33.000Z</time>
      </trkpt>
      <trkpt lat="48.19303" lon="-3.74942">
        <ele>63.3</ele>
        <time>2017-09-23T08:36:34.000Z</time>
      </trkpt>
      <trkpt lat="48.19304" lon="-3.7494">
        <ele>63.4</ele>
        <time>2017-09-23T08:36:35.000Z</time>
      </trkpt>
      <trkpt lat="48.19304" lon="-3.74939">
        <ele>63.4</ele>
        <time>2017-09-23T08:36:36.000Z</time>
      </trkpt>
      <trkpt lat="48.19304" lon="-3.74937">
        <ele>63.4</ele>
        <time>2017-09-23T08:36:37.000Z</time>
      </trkpt>
      <trkpt lat="48.19304" lon="-3.74935">
        <ele>63.5</ele>
        <time>2017-09-23T08:36:38.000Z</time>
      </trkpt>
      <trkpt lat="48.19305" lon="-3.74934">
        <ele>63.5</ele>
        <time>2017-09-23T08:36:39.000Z</time>
      </trkpt>
      <trkpt lat="48.19305" lon="-3.74932">
        <ele>63.5</ele>
        <time>2017-09-23T08:36:40.000Z</time>
      </trkpt>
      <trkpt lat="48.19305" lon="-3.74931">
        <ele>63.5</ele>
        <time>2017-09-23T08:36:41.000Z</time>
      </trkpt>
      <trkpt lat="48.19306" lon="-3.74929">
        <ele>63.6</ele>
        <time>2017-09-23T08:36:42.000Z</time>
      </trkpt>
      <trkpt lat="48.19306" lon="-3.74927">
        <ele>63.6</ele>
        <time>2017-09-23T08:36:43.000Z</time>
      </trkpt>
      <trkpt lat="48.19306" lon="-3.74926">
        <ele>63.6</ele>
        <time>2017-09-23T08:36:44.000Z</time>
      </trkpt>
      <trkpt lat="48.19306" lon="-3.74924">
        <ele>63.6</ele>
        <time>2017-09-23T08:36:45.000Z</time>
      </trkpt>
      <trkpt lat="48.19306" lon="-3.74922">
        <ele>63.7</ele>
        <time>2017-09-23T08:36:46.000Z</time>
      </trkpt>
      <trkpt lat="48.19307" lon="-3.7492">
        <ele>63.7</ele>
        <time>2017-09-23T08:36:47.000Z</time>
      </trkpt>
      <trkpt lat="48.19307" lon="-3.74918">
        <ele>63.7</ele>
        <time>2017-09-23T08:36:48.000Z</time>
      </trkpt>
      <trkpt lat="48.19307" lon="-3.74917">
        <ele>63.7</ele>
        <time>2017-09-23T08:36:49.000Z</time>
      </trkpt>
      <trkpt lat="48.19307" lon="-3.74915">
        <ele>63.7</ele>
        <time>2017-09-23T08:36:50.000Z</time>
      </trkpt>
      <trkpt lat="48.19306" lon="-3.74914">
        <ele>63.7</ele>
        <time>2017-09-23T08:36:51.000Z</time>
      </trkpt>
      <trkpt lat="48.19306" lon="-3.74912">
        <ele>63.7</ele>
        <time>2017-09-23T08:36:52.000Z</time>
      </trkpt>
      <trkpt lat="48.19306" lon="-3.74911">
        <ele>63.7</ele>
        <time>2017-09-23T08:36:53.000Z</time>
      </trkpt>
      <trkpt lat="48.19306" lon="-3.74909">
        <ele>63.7</ele>
        <time>2017-09-23T08:36:54.000Z</time>
      </trkpt>
      <trkpt lat="48.19306" lon="-3.74907">
        <ele>63.7</ele>
        <time>2017-09-23T08:36:55.000Z</time>
      </trkpt>
      <trkpt lat="48.19306" lon="-3.74905">
        <ele>63.7</ele>
        <time>2017-09-23T08:36:56.000Z</time>
      </trkpt>
      <trkpt lat="48.19307" lon="-3.74904">
        <ele>63.7</ele>
        <time>2017-09-23T08:36:57.000Z</time>
      </trkpt>
      <trkpt lat="48.19307" lon="-3.74902">
        <ele>63.7</ele>
        <time>2017-09-23T08:36:58.000Z</time>
      </trkpt>
      <trkpt lat="48.19307" lon="-3.74901">
        <ele>63.7</ele>
        <time>2017-09-23T08:36:59.000Z</time>
      </trkpt>
      <trkpt lat="48.19307" lon="-3.74899">
        <ele>63.7</ele>
        <time>2017-09-23T08:37:00.000Z</time>
      </trkpt>
      <trkpt lat="48.19308" lon="-3.74898">
        <ele>63.7</ele>
        <time>2017-09-23T08:37:01.000Z</time>
      </trkpt>
      <trkpt lat="48.19308" lon="-3.74897">
        <ele>63.7</ele>
        <time>2017-09-23T08:37:02.000Z</time>
      </trkpt>
      <trkpt lat="48.19309" lon="-3.74896">
        <ele>63.7</ele>
        <time>2017-09-23T08:37:03.000Z</time>
      </trkpt>
      <trkpt lat="48.19309" lon="-3.74895">
        <ele>63.7</ele>
        <time>2017-09-23T08:37:04.000Z</time>
      </trkpt>
      <trkpt lat="48.19309" lon="-3.74895">
        <ele>63.7</ele>
        <time>2017-09-23T08:37:05.000Z</time>
      </trkpt>
      <trkpt lat="48.1931" lon="-3.74894">
        <ele>63.8</ele>
        <time>2017-09-23T08:37:06.000Z</time>
      </trkpt>
      <trkpt lat="48.1931" lon="-3.74894">
        <ele>63.8</ele>
        <time>2017-09-23T08:37:07.000Z</time>
      </trkpt>
      <trkpt lat="48.19311" lon="-3.74893">
        <ele>63.8</ele>
        <time>2017-09-23T08:37:08.000Z</time>
      </trkpt>
      <trkpt lat="48.19311" lon="-3.74893">
        <ele>63.8</ele>
        <time>2017-09-23T08:37:09.000Z</time>
      </trkpt>
      <trkpt lat="48.19312" lon="-3.74892">
        <ele>63.8</ele>
        <time>2017-09-23T08:37:10.000Z</time>
      </trkpt>
      <trkpt lat="48.19312" lon="-3.74892">
        <ele>63.8</ele>
        <time>2017-09-23T08:37:11.000Z</time>
      </trkpt>
      <trkpt lat="48.19312" lon="-3.74891">
        <ele>63.8</ele>
        <time>2017-09-23T08:37:12.000Z</time>
      </trkpt>
      <trkpt lat="48.19313" lon="-3.74891">
        <ele>63.8</ele>
        <time>2017-09-23T08:37:13.000Z</time>
      </trkpt>
      <trkpt lat="48.19313" lon="-3.7489">
        <ele>63.9</ele>
        <time>2017-09-23T08:37:14.000Z</time>
      </trkpt>
      <trkpt lat="48.19313" lon="-3.7489">
        <ele>63.9</ele>
        <time>2017-09-23T08:37:15.000Z</time>
      </trkpt>
      <trkpt lat="48.19313" lon="-3.74889">
        <ele>63.9</ele>
        <time>2017-09-23T08:37:16.000Z</time>
      </trkpt>
      <trkpt lat="48.19313" lon="-3.74889">
        <ele>63.9</ele>
        <time>2017-09-23T08:37:17.000Z</time>
      </trkpt>
      <trkpt lat="48.19314" lon="-3.74888">
        <ele>63.9</ele>
        <time>2017-09-23T08:37:18.000Z</time>
      </trkpt>
      <trkpt lat="48.19314" lon="-3.74887">
        <ele>63.9</ele>
        <time>2017-09-23T08:37:19.000Z</time>
      </trkpt>
      <trkpt lat="48.19314" lon="-3.74887">
        <ele>63.9</ele>
        <time>2017-09-23T08:37:20.000Z</time>
      </trkpt>
      <trkpt lat="48.19314" lon="-3.74886">
        <ele>63.9</ele>
        <time>2017-09-23T08:37:21.000Z</time>
      </trkpt>
      <trkpt lat="48.19315" lon="-3.74886">
        <ele>63.9</ele>
        <time>2017-09-23T08:37:22.000Z</time>
      </trkpt>
      <trkpt lat="48.19315" lon="-3.74885">
        <ele>63.9</ele>
        <time>2017-09-23T08:37:23.000Z</time>
      </trkpt>
      <trkpt lat="48.19316" lon="-3.74884">
        <ele>63.9</ele>
        <time>2017-09-23T08:37:24.000Z</time>
      </trkpt>
      <trkpt lat="48.19316" lon="-3.74884">
        <ele>63.9</ele>
        <time>2017-09-23T08:37:25.000Z</time>
      </trkpt>
      <trkpt lat="48.19317" lon="-3.74883">
        <ele>64</ele>
        <time>2017-09-23T08:37:26.000Z</time>
      </trkpt>
      <trkpt lat="48.19318" lon="-3.74882">
        <ele>64</ele>
        <time>2017-09-23T08:37:27.000Z</time>
      </trkpt>
      <trkpt lat="48.19318" lon="-3.74881">
        <ele>64</ele>
        <time>2017-09-23T08:37:28.000Z</time>
      </trkpt>
      <trkpt lat="48.19319" lon="-3.7488">
        <ele>64</ele>
        <time>2017-09-23T08:37:29.000Z</time>
      </trkpt>
      <trkpt lat="48.19319" lon="-3.74879">
        <ele>64</ele>
        <time>2017-09-23T08:37:30.000Z</time>
      </trkpt>
      <trkpt lat="48.1932" lon="-3.74878">
        <ele>64</ele>
        <time>2017-09-23T08:37:31.000Z</time>
      </trkpt>
      <trkpt lat="48.1932" lon="-3.74877">
        <ele>64</ele>
        <time>2017-09-23T08:37:32.000Z</time>
      </trkpt>
      <trkpt lat="48.1932" lon="-3.74876">
        <ele>64</ele>
        <time>2017-09-23T08:37:33.000Z</time>
      </trkpt>
      <trkpt lat="48.19321" lon="-3.74875">
        <ele>64</ele>
        <time>2017-09-23T08:37:34.000Z</time>
      </trkpt>
      <trkpt lat="48.19321" lon="-3.74874">
        <ele>64</ele>
        <time>2017-09-23T08:37:35.000Z</time>
      </trkpt>
      <trkpt lat="48.19321" lon="-3.74873">
        <ele>64</ele>
        <time>2017-09-23T08:37:36.000Z</time>
      </trkpt>
      <trkpt lat="48.19321" lon="-3.74872">
        <ele>64</ele>
        <time>2017-09-23T08:37:37.000Z</time>
      </trkpt>
      <trkpt lat="48.19321" lon="-3.74871">
        <ele>64</ele>
        <time>2017-09-23T08:37:38.000Z</time>
      </trkpt>
      <trkpt lat="48.19321" lon="-3.74871">
        <ele>64</ele>
        <time>2017-09-23T08:37:39.000Z</time>
      </trkpt>
      <trkpt lat="48.19321" lon="-3.74871">
        <ele>64</ele>
        <time>2017-09-23T08:37:40.000Z</time>
      </trkpt>
      <trkpt lat="48.19321" lon="-3.7487">
        <ele>64</ele>
        <time>2017-09-23T08:37:41.000Z</time>
      </trkpt>
      <trkpt lat="48.19321" lon="-3.7487">
        <ele>64</ele>
        <time>2017-09-23T08:37:42.000Z</time>
      </trkpt>
      <trkpt lat="48.19321" lon="-3.7487">
        <ele>64</ele>
        <time>2017-09-23T08:37:43.000Z</time>
      </trkpt>
      <trkpt lat="48.19321" lon="-3.7487">
        <ele>64</ele>
        <time>2017-09-23T08:37:44.000Z</time>
      </trkpt>
      <trkpt lat="48.19321" lon="-3.74869">
        <ele>64</ele>
        <time>2017-09-23T08:37:45.000Z</time>
      </trkpt>
      <trkpt lat="48.19321" lon="-3.74869">
        <ele>64</ele>
        <time>2017-09-23T08:37:46.000Z</time>
      </trkpt>
      <trkpt lat="48.19321" lon="-3.74869">
        <ele>64</ele>
        <time>2017-09-23T08:37:47.000Z</time>
      </trkpt>
      <trkpt lat="48.19321" lon="-3.74868">
        <ele>64</ele>
        <time>2017-09-23T08:37:48.000Z</time>
      </trkpt>
      <trkpt lat="48.19321" lon="-3.74868">
        <ele>64</ele>
        <time>2017-09-23T08:37:49.000Z</time>
      </trkpt>
      <trkpt lat="48.19321" lon="-3.74868">
        <ele>64</ele>
        <time>2017-09-23T08:37:50.000Z</time>
      </trkpt>
      <trkpt lat="48.19321" lon="-3.74867">
        <ele>64</ele>
        <time>2017-09-23T08:37:51.000Z</time>
      </trkpt>
      <trkpt lat="48.19321" lon="-3.74866">
        <ele>64</ele>
        <time>2017-09-23T08:37:52.000Z</time>
      </trkpt>
      <trkpt lat="48.19321" lon="-3.74865">
        <ele>64</ele>
        <time>2017-09-23T08:37:53.000Z</time>
      </trkpt>
      <trkpt lat="48.19321" lon="-3.74864">
        <ele>64</ele>
        <time>2017-09-23T08:37:54.000Z</time>
      </trkpt>
      <trkpt lat="48.19321" lon="-3.74863">
        <ele>64</ele>
        <time>2017-09-23T08:37:55.000Z</time>
      </trkpt>
      <trkpt lat="48.19322" lon="-3.74862">
        <ele>64</ele>
        <time>2017-09-23T08:37:56.000Z</time>
      </trkpt>
      <trkpt lat="48.19322" lon="-3.7486">
        <ele>64</ele>
        <time>2017-09-23T08:37:57.000Z</time>
      </trkpt>
      <trkpt lat="48.19323" lon="-3.74859">
        <ele>64</ele>
        <time>2017-09-23T08:37:58.000Z</time>
      </trkpt>
      <trkpt lat="48.19323" lon="-3.74858">
        <ele>64</ele>
        <time>2017-09-23T08:37:59.000Z</time>
      </trkpt>
      <trkpt lat="48.19324" lon="-3.74856">
        <ele>64</ele>
        <time>2017-09-23T08:38:00.000Z</time>
      </trkpt>
      <trkpt lat="48.19324" lon="-3.74855">
        <ele>64</ele>
        <time>2017-09-23T08:38:01.000Z</time>
      </trkpt>
      <trkpt lat="48.19325" lon="-3.74854">
        <ele>64</ele>
        <time>2017-09-23T08:38:02.000Z</time>
      </trkpt>
      <trkpt lat="48.19325" lon="-3.74852">
        <ele>64</ele>
        <time>2017-09-23T08:38:03.000Z</time>
      </trkpt>
      <trkpt lat="48.19326" lon="-3.74851">
        <ele>64</ele>
        <time>2017-09-23T08:38:04.000Z</time>
      </trkpt>
      <trkpt lat="48.19326" lon="-3.74849">
        <ele>64</ele>
        <time>2017-09-23T08:38:05.000Z</time>
      </trkpt>
      <trkpt lat="48.19326" lon="-3.74848">
        <ele>64</ele>
        <time>2017-09-23T08:38:06.000Z</time>
      </trkpt>
      <trkpt lat="48.19327" lon="-3.74846">
        <ele>64</ele>
        <time>2017-09-23T08:38:07.000Z</time>
      </trkpt>
      <trkpt lat="48.19327" lon="-3.74845">
        <ele>64</ele>
        <time>2017-09-23T08:38:08.000Z</time>
      </trkpt>
      <trkpt lat="48.19328" lon="-3.74843">
        <ele>64</ele>
        <time>2017-09-23T08:38:09.000Z</time>
      </trkpt>
      <trkpt lat="48.19328" lon="-3.74842">
        <ele>64</ele>
        <time>2017-09-23T08:38:10.000Z</time>
      </trkpt>
      <trkpt lat="48.19328" lon="-3.74841">
        <ele>64</ele>
        <time>2017-09-23T08:38:11.000Z</time>
      </trkpt>
      <trkpt lat="48.19329" lon="-3.74839">
        <ele>64</ele>
        <time>2017-09-23T08:38:12.000Z</time>
      </trkpt>
      <trkpt lat="48.19329" lon="-3.74838">
        <ele>64</ele>
        <time>2017-09-23T08:38:13.000Z</time>
      </trkpt>
      <trkpt lat="48.1933" lon="-3.74837">
        <ele>63.9</ele>
        <time>2017-09-23T08:38:14.000Z</time>
      </trkpt>
      <trkpt lat="48.1933" lon="-3.74835">
        <ele>63.9</ele>
        <time>2017-09-23T08:38:15.000Z</time>
      </trkpt>
      <trkpt lat="48.1933" lon="-3.74834">
        <ele>63.9</ele>
        <time>2017-09-23T08:38:16.000Z</time>
      </trkpt>
      <trkpt lat="48.19331" lon="-3.74833">
        <ele>63.9</ele>
        <time>2017-09-23T08:38:17.000Z</time>
      </trkpt>
      <trkpt lat="48.19331" lon="-3.74832">
        <ele>63.9</ele>
        <time>2017-09-23T08:38:18.000Z</time>
      </trkpt>
      <trkpt lat="48.19332" lon="-3.74831">
        <ele>64</ele>
        <time>2017-09-23T08:38:19.000Z</time>
      </trkpt>
      <trkpt lat="48.19332" lon="-3.7483">
        <ele>64</ele>
        <time>2017-09-23T08:38:20.000Z</time>
      </trkpt>
      <trkpt lat="48.19332" lon="-3.74829">
        <ele>64</ele>
        <time>2017-09-23T08:38:21.000Z</time>
      </trkpt>
      <trkpt lat="48.19333" lon="-3.74828">
        <ele>64</ele>
        <time>2017-09-23T08:38:22.000Z</time>
      </trkpt>
      <trkpt lat="48.19333" lon="-3.74827">
        <ele>64</ele>
        <time>2017-09-23T08:38:23.000Z</time>
      </trkpt>
      <trkpt lat="48.19334" lon="-3.74825">
        <ele>64</ele>
        <time>2017-09-23T08:38:24.000Z</time>
      </trkpt>
      <trkpt lat="48.19334" lon="-3.74824">
        <ele>64.1</ele>
        <time>2017-09-23T08:38:25.000Z</time>
      </trkpt>
      <trkpt lat="48.19334" lon="-3.74823">
        <ele>64.1</ele>
        <time>2017-09-23T08:38:26.000Z</time>
      </trkpt>
      <trkpt lat="48.19335" lon="-3.74822">
        <ele>64.2</ele>
        <time>2017-09-23T08:38:27.000Z</time>
      </trkpt>
      <trkpt lat="48.19335" lon="-3.74821">
        <ele>64.2</ele>
        <time>2017-09-23T08:38:28.000Z</time>
      </trkpt>
      <trkpt lat="48.19336" lon="-3.7482">
        <ele>64.3</ele>
        <time>2017-09-23T08:38:29.000Z</time>
      </trkpt>
      <trkpt lat="48.19336" lon="-3.74818">
        <ele>64.3</ele>
        <time>2017-09-23T08:38:30.000Z</time>
      </trkpt>
      <trkpt lat="48.19337" lon="-3.74817">
        <ele>64.4</ele>
        <time>2017-09-23T08:38:31.000Z</time>
      </trkpt>
      <trkpt lat="48.19337" lon="-3.74816">
        <ele>64.4</ele>
        <time>2017-09-23T08:38:32.000Z</time>
      </trkpt>
      <trkpt lat="48.19338" lon="-3.74815">
        <ele>64.5</ele>
        <time>2017-09-23T08:38:33.000Z</time>
      </trkpt>
      <trkpt lat="48.19338" lon="-3.74813">
        <ele>64.5</ele>
        <time>2017-09-23T08:38:34.000Z</time>
      </trkpt>
      <trkpt lat="48.19339" lon="-3.74812">
        <ele>64.6</ele>
        <time>2017-09-23T08:38:35.000Z</time>
      </trkpt>
      <trkpt lat="48.19339" lon="-3.7481">
        <ele>64.6</ele>
        <time>2017-09-23T08:38:36.000Z</time>
      </trkpt>
      <trkpt lat="48.1934" lon="-3.74809">
        <ele>64.7</ele>
        <time>2017-09-23T08:38:37.000Z</time>
      </trkpt>
      <trkpt lat="48.1934" lon="-3.74807">
        <ele>64.7</ele>
        <time>2017-09-23T08:38:38.000Z</time>
      </trkpt>
      <trkpt lat="48.19341" lon="-3.74806">
        <ele>64.8</ele>
        <time>2017-09-23T08:38:39.000Z</time>
      </trkpt>
      <trkpt lat="48.19341" lon="-3.74804">
        <ele>64.8</ele>
        <time>2017-09-23T08:38:40.000Z</time>
      </trkpt>
      <trkpt lat="48.19342" lon="-3.74802">
        <ele>64.9</ele>
        <time>2017-09-23T08:38:41.000Z</time>
      </trkpt>
      <trkpt lat="48.19342" lon="-3.74801">
        <ele>64.9</ele>
        <time>2017-09-23T08:38:42.000Z</time>
      </trkpt>
      <trkpt lat="48.19342" lon="-3.74799">
        <ele>65</ele>
        <time>2017-09-23T08:38:43.000Z</time>
      </trkpt>
      <trkpt lat="48.19343" lon="-3.74798">
        <ele>65</ele>
        <time>2017-09-23T08:38:44.000Z</time>
      </trkpt>
      <trkpt lat="48.19343" lon="-3.74796">
        <ele>65</ele>
        <time>2017-09-23T08:38:45.000Z</time>
      </trkpt>
      <trkpt lat="48.19343" lon="-3.74795">
        <ele>65.1</ele>
        <time>2017-09-23T08:38:46.000Z</time>
      </trkpt>
      <trkpt lat="48.19344" lon="-3.74793">
        <ele>65.1</ele>
        <time>2017-09-23T08:38:47.000Z</time>
      </trkpt>
      <trkpt lat="48.19344" lon="-3.74792">
        <ele>65.1</ele>
        <time>2017-09-23T08:38:48.000Z</time>
      </trkpt>
      <trkpt lat="48.19344" lon="-3.7479">
        <ele>65.2</ele>
        <time>2017-09-23T08:38:49.000Z</time>
      </trkpt>
      <trkpt lat="48.19344" lon="-3.74789">
        <ele>65.2</ele>
        <time>2017-09-23T08:38:50.000Z</time>
      </trkpt>
      <trkpt lat="48.19344" lon="-3.74788">
        <ele>65.2</ele>
        <time>2017-09-23T08:38:51.000Z</time>
      </trkpt>
      <trkpt lat="48.19344" lon="-3.74786">
        <ele>65.2</ele>
        <time>2017-09-23T08:38:52.000Z</time>
      </trkpt>
      <trkpt lat="48.19344" lon="-3.74785">
        <ele>65.2</ele>
        <time>2017-09-23T08:38:53.000Z</time>
      </trkpt>
      <trkpt lat="48.19344" lon="-3.74784">
        <ele>65.2</ele>
        <time>2017-09-23T08:38:54.000Z</time>
      </trkpt>
      <trkpt lat="48.19344" lon="-3.74783">
        <ele>65.1</ele>
        <time>2017-09-23T08:38:55.000Z</time>
      </trkpt>
      <trkpt lat="48.19344" lon="-3.74782">
        <ele>65.1</ele>
        <time>2017-09-23T08:38:56.000Z</time>
      </trkpt>
      <trkpt lat="48.19344" lon="-3.74781">
        <ele>65.1</ele>
        <time>2017-09-23T08:38:57.000Z</time>
      </trkpt>
      <trkpt lat="48.19343" lon="-3.7478">
        <ele>65.1</ele>
        <time>2017-09-23T08:38:58.000Z</time>
      </trkpt>
      <trkpt lat="48.19343" lon="-3.74779">
        <ele>65</ele>
        <time>2017-09-23T08:38:59.000Z</time>
      </trkpt>
      <trkpt lat="48.19343" lon="-3.74778">
        <ele>65</ele>
        <time>2017-09-23T08:39:00.000Z</time>
      </trkpt>
      <trkpt lat="48.19343" lon="-3.74777">
        <ele>65</ele>
        <time>2017-09-23T08:39:01.000Z</time>
      </trkpt>
      <trkpt lat="48.19343" lon="-3.74776">
        <ele>65</ele>
        <time>2017-09-23T08:39:02.000Z</time>
      </trkpt>
      <trkpt lat="48.19342" lon="-3.74775">
        <ele>65</ele>
        <time>2017-09-23T08:39:03.000Z</time>
      </trkpt>
      <trkpt lat="48.19342" lon="-3.74775">
        <ele>64.9</ele>
        <time>2017-09-23T08:39:04.000Z</time>
      </trkpt>
      <trkpt lat="48.19342" lon="-3.74774">
        <ele>64.9</ele>
        <time>2017-09-23T08:39:05.000Z</time>
      </trkpt>
      <trkpt lat="48.19341" lon="-3.74773">
        <ele>64.8</ele>
        <time>2017-09-23T08:39:06.000Z</time>
      </trkpt>
      <trkpt lat="48.1934" lon="-3.74772">
        <ele>64.7</ele>
        <time>2017-09-23T08:39:07.000Z</time>
      </trkpt>
      <trkpt lat="48.19339" lon="-3.7477">
        <ele>64.7</ele>
        <time>2017-09-23T08:39:08.000Z</time>
      </trkpt>
      <trkpt lat="48.19339" lon="-3.74769">
        <ele>64.6</ele>
        <time>2017-09-23T08:39:09.000Z</time>
      </trkpt>
      <trkpt lat="48.19338" lon="-3.74767">
        <ele>64.5</ele>
        <time>2017-09-23T08:39:10.000Z</time>
      </trkpt>
      <trkpt lat="48.19337" lon="-3.74765">
        <ele>64.4</ele>
        <time>2017-09-23T08:39:11.000Z</time>
      </trkpt>
      <trkpt lat="48.19336" lon="-3.74763">
        <ele>64.3</ele>
        <time>2017-09-23T08:39:12.000Z</time>
      </trkpt>
      <trkpt lat="48.19336" lon="-3.74761">
        <ele>64.3</ele>
        <time>2017-09-23T08:39:13.000Z</time>
      </trkpt>
      <trkpt lat="48.19336" lon="-3.74759">
        <ele>64.2</ele>
        <time>2017-09-23T08:39:14.000Z</time>
      </trkpt>
      <trkpt lat="48.19335" lon="-3.74757">
        <ele>64.2</ele>
        <time>2017-09-23T08:39:15.000Z</time>
      </trkpt>
      <trkpt lat="48.19335" lon="-3.74755">
        <ele>64.2</ele>
        <time>2017-09-23T08:39:16.000Z</time>
      </trkpt>
      <trkpt lat="48.19335" lon="-3.74753">
        <ele>64.2</ele>
        <time>2017-09-23T08:39:17.000Z</time>
      </trkpt>
      <trkpt lat="48.19335" lon="-3.74751">
        <ele>64.2</ele>
        <time>2017-09-23T08:39:18.000Z</time>
      </trkpt>
      <trkpt lat="48.19335" lon="-3.74749">
        <ele>64.2</ele>
        <time>2017-09-23T08:39:19.000Z</time>
      </trkpt>
      <trkpt lat="48.19335" lon="-3.74747">
        <ele>64.2</ele>
        <time>2017-09-23T08:39:20.000Z</time>
      </trkpt>
      <trkpt lat="48.19335" lon="-3.74745">
        <ele>64.2</ele>
        <time>2017-09-23T08:39:21.000Z</time>
      </trkpt>
      <trkpt lat="48.19335" lon="-3.74743">
        <ele>64.2</ele>
        <time>2017-09-23T08:39:22.000Z</time>
      </trkpt>
      <trkpt lat="48.19335" lon="-3.74742">
        <ele>64.2</ele>
        <time>2017-09-23T08:39:23.000Z</time>
      </trkpt>
      <trkpt lat="48.19334" lon="-3.7474">
        <ele>64.2</ele>
        <time>2017-09-23T08:39:24.000Z</time>
      </trkpt>
      <trkpt lat="48.19334" lon="-3.74738">
        <ele>64.2</ele>
        <time>2017-09-23T08:39:25.000Z</time>
      </trkpt>
      <trkpt lat="48.19334" lon="-3.74737">
        <ele>64.2</ele>
        <time>2017-09-23T08:39:26.000Z</time>
      </trkpt>
      <trkpt lat="48.19333" lon="-3.74735">
        <ele>64.2</ele>
        <time>2017-09-23T08:39:27.000Z</time>
      </trkpt>
      <trkpt lat="48.19333" lon="-3.74733">
        <ele>64.2</ele>
        <time>2017-09-23T08:39:28.000Z</time>
      </trkpt>
      <trkpt lat="48.19332" lon="-3.74732">
        <ele>64.2</ele>
        <time>2017-09-23T08:39:29.000Z</time>
      </trkpt>
      <trkpt lat="48.19332" lon="-3.7473">
        <ele>64.2</ele>
        <time>2017-09-23T08:39:30.000Z</time>
      </trkpt>
      <trkpt lat="48.19332" lon="-3.74728">
        <ele>64.2</ele>
        <time>2017-09-23T08:39:31.000Z</time>
      </trkpt>
      <trkpt lat="48.19331" lon="-3.74726">
        <ele>64.2</ele>
        <time>2017-09-23T08:39:32.000Z</time>
      </trkpt>
      <trkpt lat="48.19331" lon="-3.74724">
        <ele>64.3</ele>
        <time>2017-09-23T08:39:33.000Z</time>
      </trkpt>
      <trkpt lat="48.19331" lon="-3.74722">
        <ele>64.3</ele>
        <time>2017-09-23T08:39:34.000Z</time>
      </trkpt>
      <trkpt lat="48.19331" lon="-3.7472">
        <ele>64.3</ele>
        <time>2017-09-23T08:39:35.000Z</time>
      </trkpt>
      <trkpt lat="48.19331" lon="-3.74719">
        <ele>64.3</ele>
        <time>2017-09-23T08:39:36.000Z</time>
      </trkpt>
      <trkpt lat="48.19332" lon="-3.74717">
        <ele>64.4</ele>
        <time>2017-09-23T08:39:37.000Z</time>
      </trkpt>
      <trkpt lat="48.19332" lon="-3.74715">
        <ele>64.4</ele>
        <time>2017-09-23T08:39:38.000Z</time>
      </trkpt>
      <trkpt lat="48.19332" lon="-3.74714">
        <ele>64.4</ele>
        <time>2017-09-23T08:39:39.000Z</time>
      </trkpt>
      <trkpt lat="48.19332" lon="-3.74712">
        <ele>64.4</ele>
        <time>2017-09-23T08:39:40.000Z</time>
      </trkpt>
      <trkpt lat="48.19332" lon="-3.74711">
        <ele>64.4</ele>
        <time>2017-09-23T08:39:41.000Z</time>
      </trkpt>
      <trkpt lat="48.19332" lon="-3.7471">
        <ele>64.5</ele>
        <time>2017-09-23T08:39:42.000Z</time>
      </trkpt>
      <trkpt lat="48.19332" lon="-3.74708">
        <ele>64.5</ele>
        <time>2017-09-23T08:39:43.000Z</time>
      </trkpt>
      <trkpt lat="48.19332" lon="-3.74707">
        <ele>64.5</ele>
        <time>2017-09-23T08:39:44.000Z</time>
      </trkpt>
      <trkpt lat="48.19332" lon="-3.74706">
        <ele>64.5</ele>
        <time>2017-09-23T08:39:45.000Z</time>
      </trkpt>
      <trkpt lat="48.19331" lon="-3.74705">
        <ele>64.5</ele>
        <time>2017-09-23T08:39:46.000Z</time>
      </trkpt>
      <trkpt lat="48.19331" lon="-3.74703">
        <ele>64.5</ele>
        <time>2017-09-23T08:39:47.000Z</time>
      </trkpt>
      <trkpt lat="48.19331" lon="-3.74702">
        <ele>64.5</ele>
        <time>2017-09-23T08:39:48.000Z</time>
      </trkpt>
      <trkpt lat="48.19331" lon="-3.74701">
        <ele>64.5</ele>
        <time>2017-09-23T08:39:49.000Z</time>
      </trkpt>
      <trkpt lat="48.1933" lon="-3.747">
        <ele>64.5</ele>
        <time>2017-09-23T08:39:50.000Z</time>
      </trkpt>
      <trkpt lat="48.1933" lon="-3.74699">
        <ele>64.5</ele>
        <time>2017-09-23T08:39:51.000Z</time>
      </trkpt>
      <trkpt lat="48.1933" lon="-3.74697">
        <ele>64.6</ele>
        <time>2017-09-23T08:39:52.000Z</time>
      </trkpt>
      <trkpt lat="48.1933" lon="-3.74696">
        <ele>64.6</ele>
        <time>2017-09-23T08:39:53.000Z</time>
      </trkpt>
      <trkpt lat="48.1933" lon="-3.74694">
        <ele>64.6</ele>
        <time>2017-09-23T08:39:54.000Z</time>
      </trkpt>
      <trkpt lat="48.19331" lon="-3.74693">
        <ele>64.6</ele>
        <time>2017-09-23T08:39:55.000Z</time>
      </trkpt>
      <trkpt lat="48.19331" lon="-3.74691">
        <ele>64.6</ele>
        <time>2017-09-23T08:39:56.000Z</time>
      </trkpt>
      <trkpt lat="48.19331" lon="-3.7469">
        <ele>64.7</ele>
        <time>2017-09-23T08:39:57.000Z</time>
      </trkpt>
      <trkpt lat="48.19331" lon="-3.74688">
        <ele>64.7</ele>
        <time>2017-09-23T08:39:58.000Z</time>
      </trkpt>
      <trkpt lat="48.19332" lon="-3.74686">
        <ele>64.7</ele>
        <time>2017-09-23T08:39:59.000Z</time>
      </trkpt>
      <trkpt lat="48.19332" lon="-3.74685">
        <ele>64.7</ele>
        <time>2017-09-23T08:40:00.000Z</time>
      </trkpt>
      <trkpt lat="48.19332" lon="-3.74683">
        <ele>64.8</ele>
        <time>2017-09-23T08:40:01.000Z</time>
      </trkpt>
      <trkpt lat="48.19332" lon="-3.74681">
        <ele>64.8</ele>
        <time>2017-09-23T08:40:02.000Z</time>
      </trkpt>
      <trkpt lat="48.19332" lon="-3.74679">
        <ele>64.8</ele>
        <time>2017-09-23T08:40:03.000Z</time>
      </trkpt>
      <trkpt lat="48.19332" lon="-3.74677">
        <ele>64.8</ele>
        <time>2017-09-23T08:40:04.000Z</time>
      </trkpt>
      <trkpt lat="48.19332" lon="-3.74675">
        <ele>64.9</ele>
        <time>2017-09-23T08:40:05.000Z</time>
      </trkpt>
      <trkpt lat="48.19332" lon="-3.74673">
        <ele>64.9</ele>
        <time>2017-09-23T08:40:06.000Z</time>
      </trkpt>
      <trkpt lat="48.19332" lon="-3.74671">
        <ele>64.9</ele>
        <time>2017-09-23T08:40:07.000Z</time>
      </trkpt>
      <trkpt lat="48.19332" lon="-3.74669">
        <ele>64.9</ele>
        <time>2017-09-23T08:40:08.000Z</time>
      </trkpt>
      <trkpt lat="48.19331" lon="-3.74667">
        <ele>65</ele>
        <time>2017-09-23T08:40:09.000Z</time>
      </trkpt>
      <trkpt lat="48.19331" lon="-3.74665">
        <ele>65</ele>
        <time>2017-09-23T08:40:10.000Z</time>
      </trkpt>
      <trkpt lat="48.19331" lon="-3.74663">
        <ele>65.1</ele>
        <time>2017-09-23T08:40:11.000Z</time>
      </trkpt>
      <trkpt lat="48.19331" lon="-3.74661">
        <ele>65.2</ele>
        <time>2017-09-23T08:40:12.000Z</time>
      </trkpt>
      <trkpt lat="48.19332" lon="-3.7466">
        <ele>65.3</ele>
        <time>2017-09-23T08:40:13.000Z</time>
      </trkpt>
      <trkpt lat="48.19332" lon="-3.74658">
        <ele>65.4</ele>
        <time>2017-09-23T08:40:14.000Z</time>
      </trkpt>
      <trkpt lat="48.19332" lon="-3.74657">
        <ele>65.5</ele>
        <time>2017-09-23T08:40:15.000Z</time>
      </trkpt>
      <trkpt lat="48.19332" lon="-3.74655">
        <ele>65.5</ele>
        <time>2017-09-23T08:40:16.000Z</time>
      </trkpt>
      <trkpt lat="48.19333" lon="-3.74654">
        <ele>65.6</ele>
        <time>2017-09-23T08:40:17.000Z</time>
      </trkpt>
      <trkpt lat="48.19333" lon="-3.74652">
        <ele>65.7</ele>
        <time>2017-09-23T08:40:18.000Z</time>
      </trkpt>
      <trkpt lat="48.19333" lon="-3.74651">
        <ele>65.7</ele>
        <time>2017-09-23T08:40:19.000Z</time>
      </trkpt>
      <trkpt lat="48.19333" lon="-3.7465">
        <ele>65.8</ele>
        <time>2017-09-23T08:40:20.000Z</time>
      </trkpt>
      <trkpt lat="48.19333" lon="-3.74649">
        <ele>65.9</ele>
        <time>2017-09-23T08:40:21.000Z</time>
      </trkpt>
      <trkpt lat="48.19333" lon="-3.74647">
        <ele>65.9</ele>
        <time>2017-09-23T08:40:22.000Z</time>
      </trkpt>
      <trkpt lat="48.19334" lon="-3.74646">
        <ele>66</ele>
        <time>2017-09-23T08:40:23.000Z</time>
      </trkpt>
      <trkpt lat="48.19333" lon="-3.74645">
        <ele>66.1</ele>
        <time>2017-09-23T08:40:24.000Z</time>
      </trkpt>
      <trkpt lat="48.19333" lon="-3.74644">
        <ele>66.1</ele>
        <time>2017-09-23T08:40:25.000Z</time>
      </trkpt>
      <trkpt lat="48.19333" lon="-3.74643">
        <ele>66.1</ele>
        <time>2017-09-23T08:40:26.000Z</time>
      </trkpt>
      <trkpt lat="48.19333" lon="-3.74642">
        <ele>66.2</ele>
        <time>2017-09-23T08:40:27.000Z</time>
      </trkpt>
      <trkpt lat="48.19333" lon="-3.74641">
        <ele>66.2</ele>
        <time>2017-09-23T08:40:28.000Z</time>
      </trkpt>
      <trkpt lat="48.19332" lon="-3.7464">
        <ele>66.3</ele>
        <time>2017-09-23T08:40:29.000Z</time>
      </trkpt>
      <trkpt lat="48.19332" lon="-3.74639">
        <ele>66.3</ele>
        <time>2017-09-23T08:40:30.000Z</time>
      </trkpt>
      <trkpt lat="48.19332" lon="-3.74638">
        <ele>66.3</ele>
        <time>2017-09-23T08:40:31.000Z</time>
      </trkpt>
      <trkpt lat="48.19332" lon="-3.74637">
        <ele>66.4</ele>
        <time>2017-09-23T08:40:32.000Z</time>
      </trkpt>
      <trkpt lat="48.19332" lon="-3.74635">
        <ele>66.5</ele>
        <time>2017-09-23T08:40:33.000Z</time>
      </trkpt>
      <trkpt lat="48.19332" lon="-3.74634">
        <ele>66.5</ele>
        <time>2017-09-23T08:40:34.000Z</time>
      </trkpt>
      <trkpt lat="48.19332" lon="-3.74632">
        <ele>66.6</ele>
        <time>2017-09-23T08:40:35.000Z</time>
      </trkpt>
      <trkpt lat="48.19333" lon="-3.74631">
        <ele>66.7</ele>
        <time>2017-09-23T08:40:36.000Z</time>
      </trkpt>
      <trkpt lat="48.19333" lon="-3.74629">
        <ele>66.8</ele>
        <time>2017-09-23T08:40:37.000Z</time>
      </trkpt>
      <trkpt lat="48.19333" lon="-3.74627">
        <ele>66.9</ele>
        <time>2017-09-23T08:40:38.000Z</time>
      </trkpt>
      <trkpt lat="48.19334" lon="-3.74626">
        <ele>67</ele>
        <time>2017-09-23T08:40:39.000Z</time>
      </trkpt>
      <trkpt lat="48.19334" lon="-3.74624">
        <ele>67.1</ele>
        <time>2017-09-23T08:40:40.000Z</time>
      </trkpt>
      <trkpt lat="48.19334" lon="-3.74622">
        <ele>67.2</ele>
        <time>2017-09-23T08:40:41.000Z</time>
      </trkpt>
      <trkpt lat="48.19334" lon="-3.7462">
        <ele>67.3</ele>
        <time>2017-09-23T08:40:42.000Z</time>
      </trkpt>
      <trkpt lat="48.19334" lon="-3.74618">
        <ele>67.4</ele>
        <time>2017-09-23T08:40:43.000Z</time>
      </trkpt>
      <trkpt lat="48.19334" lon="-3.74616">
        <ele>67.5</ele>
        <time>2017-09-23T08:40:44.000Z</time>
      </trkpt>
      <trkpt lat="48.19334" lon="-3.74614">
        <ele>67.5</ele>
        <time>2017-09-23T08:40:45.000Z</time>
      </trkpt>
      <trkpt lat="48.19333" lon="-3.74612">
        <ele>67.6</ele>
        <time>2017-09-23T08:40:46.000Z</time>
      </trkpt>
      <trkpt lat="48.19333" lon="-3.74611">
        <ele>67.7</ele>
        <time>2017-09-23T08:40:47.000Z</time>
      </trkpt>
      <trkpt lat="48.19332" lon="-3.74609">
        <ele>67.7</ele>
        <time>2017-09-23T08:40:48.000Z</time>
      </trkpt>
      <trkpt lat="48.19332" lon="-3.74607">
        <ele>67.8</ele>
        <time>2017-09-23T08:40:49.000Z</time>
      </trkpt>
      <trkpt lat="48.19331" lon="-3.74606">
        <ele>67.8</ele>
        <time>2017-09-23T08:40:50.000Z</time>
      </trkpt>
      <trkpt lat="48.1933" lon="-3.74604">
        <ele>67.9</ele>
        <time>2017-09-23T08:40:51.000Z</time>
      </trkpt>
      <trkpt lat="48.1933" lon="-3.74603">
        <ele>67.9</ele>
        <time>2017-09-23T08:40:52.000Z</time>
      </trkpt>
      <trkpt lat="48.19329" lon="-3.74602">
        <ele>67.9</ele>
        <time>2017-09-23T08:40:53.000Z</time>
      </trkpt>
      <trkpt lat="48.19328" lon="-3.74601">
        <ele>67.9</ele>
        <time>2017-09-23T08:40:54.000Z</time>
      </trkpt>
      <trkpt lat="48.19327" lon="-3.746">
        <ele>67.9</ele>
        <time>2017-09-23T08:40:55.000Z</time>
      </trkpt>
      <trkpt lat="48.19327" lon="-3.74599">
        <ele>68</ele>
        <time>2017-09-23T08:40:56.000Z</time>
      </trkpt>
      <trkpt lat="48.19326" lon="-3.74598">
        <ele>68</ele>
        <time>2017-09-23T08:40:57.000Z</time>
      </trkpt>
      <trkpt lat="48.19325" lon="-3.74597">
        <ele>68</ele>
        <time>2017-09-23T08:40:58.000Z</time>
      </trkpt>
      <trkpt lat="48.19324" lon="-3.74596">
        <ele>68</ele>
        <time>2017-09-23T08:40:59.000Z</time>
      </trkpt>
      <trkpt lat="48.19324" lon="-3.74595">
        <ele>68</ele>
        <time>2017-09-23T08:41:00.000Z</time>
      </trkpt>
      <trkpt lat="48.19323" lon="-3.74593">
        <ele>68.1</ele>
        <time>2017-09-23T08:41:01.000Z</time>
      </trkpt>
      <trkpt lat="48.19322" lon="-3.74592">
        <ele>68.1</ele>
        <time>2017-09-23T08:41:02.000Z</time>
      </trkpt>
      <trkpt lat="48.19322" lon="-3.74591">
        <ele>68.1</ele>
        <time>2017-09-23T08:41:03.000Z</time>
      </trkpt>
      <trkpt lat="48.19321" lon="-3.74589">
        <ele>68.2</ele>
        <time>2017-09-23T08:41:04.000Z</time>
      </trkpt>
      <trkpt lat="48.19321" lon="-3.74587">
        <ele>68.2</ele>
        <time>2017-09-23T08:41:05.000Z</time>
      </trkpt>
      <trkpt lat="48.1932" lon="-3.74585">
        <ele>68.3</ele>
        <time>2017-09-23T08:41:06.000Z</time>
      </trkpt>
      <trkpt lat="48.1932" lon="-3.74584">
        <ele>68.3</ele>
        <time>2017-09-23T08:41:07.000Z</time>
      </trkpt>
      <trkpt lat="48.1932" lon="-3.74582">
        <ele>68.4</ele>
        <time>2017-09-23T08:41:08.000Z</time>
      </trkpt>
      <trkpt lat="48.19319" lon="-3.7458">
        <ele>68.4</ele>
        <time>2017-09-23T08:41:09.000Z</time>
      </trkpt>
      <trkpt lat="48.19319" lon="-3.74578">
        <ele>68.4</ele>
        <time>2017-09-23T08:41:10.000Z</time>
      </trkpt>
      <trkpt lat="48.19319" lon="-3.74576">
        <ele>68.5</ele>
        <time>2017-09-23T08:41:11.000Z</time>
      </trkpt>
      <trkpt lat="48.19318" lon="-3.74575">
        <ele>68.5</ele>
        <time>2017-09-23T08:41:12.000Z</time>
      </trkpt>
      <trkpt lat="48.19318" lon="-3.74573">
        <ele>68.5</ele>
        <time>2017-09-23T08:41:13.000Z</time>
      </trkpt>
      <trkpt lat="48.19318" lon="-3.74572">
        <ele>68.6</ele>
        <time>2017-09-23T08:41:14.000Z</time>
      </trkpt>
      <trkpt lat="48.19318" lon="-3.7457">
        <ele>68.6</ele>
        <time>2017-09-23T08:41:15.000Z</time>
      </trkpt>
      <trkpt lat="48.19318" lon="-3.74569">
        <ele>68.6</ele>
        <time>2017-09-23T08:41:16.000Z</time>
      </trkpt>
      <trkpt lat="48.19317" lon="-3.74568">
        <ele>68.7</ele>
        <time>2017-09-23T08:41:17.000Z</time>
      </trkpt>
      <trkpt lat="48.19317" lon="-3.74566">
        <ele>68.7</ele>
        <time>2017-09-23T08:41:18.000Z</time>
      </trkpt>
      <trkpt lat="48.19317" lon="-3.74565">
        <ele>68.7</ele>
        <time>2017-09-23T08:41:19.000Z</time>
      </trkpt>
      <trkpt lat="48.19317" lon="-3.74563">
        <ele>68.7</ele>
        <time>2017-09-23T08:41:20.000Z</time>
      </trkpt>
      <trkpt lat="48.19317" lon="-3.74562">
        <ele>68.8</ele>
        <time>2017-09-23T08:41:21.000Z</time>
      </trkpt>
      <trkpt lat="48.19316" lon="-3.74561">
        <ele>68.8</ele>
        <time>2017-09-23T08:41:22.000Z</time>
      </trkpt>
      <trkpt lat="48.19316" lon="-3.74559">
        <ele>68.8</ele>
        <time>2017-09-23T08:41:23.000Z</time>
      </trkpt>
      <trkpt lat="48.19316" lon="-3.74558">
        <ele>68.8</ele>
        <time>2017-09-23T08:41:24.000Z</time>
      </trkpt>
      <trkpt lat="48.19316" lon="-3.74556">
        <ele>68.9</ele>
        <time>2017-09-23T08:41:25.000Z</time>
      </trkpt>
      <trkpt lat="48.19315" lon="-3.74555">
        <ele>68.9</ele>
        <time>2017-09-23T08:41:26.000Z</time>
      </trkpt>
      <trkpt lat="48.19315" lon="-3.74553">
        <ele>68.9</ele>
        <time>2017-09-23T08:41:27.000Z</time>
      </trkpt>
      <trkpt lat="48.19314" lon="-3.74552">
        <ele>68.9</ele>
        <time>2017-09-23T08:41:28.000Z</time>
      </trkpt>
      <trkpt lat="48.19314" lon="-3.7455">
        <ele>69</ele>
        <time>2017-09-23T08:41:29.000Z</time>
      </trkpt>
      <trkpt lat="48.19314" lon="-3.74548">
        <ele>69</ele>
        <time>2017-09-23T08:41:30.000Z</time>
      </trkpt>
      <trkpt lat="48.19313" lon="-3.74547">
        <ele>69</ele>
        <time>2017-09-23T08:41:31.000Z</time>
      </trkpt>
      <trkpt lat="48.19313" lon="-3.74545">
        <ele>69</ele>
        <time>2017-09-23T08:41:32.000Z</time>
      </trkpt>
      <trkpt lat="48.19312" lon="-3.74543">
        <ele>69.1</ele>
        <time>2017-09-23T08:41:33.000Z</time>
      </trkpt>
      <trkpt lat="48.19312" lon="-3.74542">
        <ele>69.1</ele>
        <time>2017-09-23T08:41:34.000Z</time>
      </trkpt>
      <trkpt lat="48.19311" lon="-3.7454">
        <ele>69.1</ele>
        <time>2017-09-23T08:41:35.000Z</time>
      </trkpt>
      <trkpt lat="48.19311" lon="-3.74538">
        <ele>69.2</ele>
        <time>2017-09-23T08:41:36.000Z</time>
      </trkpt>
      <trkpt lat="48.19311" lon="-3.74536">
        <ele>69.2</ele>
        <time>2017-09-23T08:41:37.000Z</time>
      </trkpt>
      <trkpt lat="48.1931" lon="-3.74535">
        <ele>69.2</ele>
        <time>2017-09-23T08:41:38.000Z</time>
      </trkpt>
      <trkpt lat="48.1931" lon="-3.74533">
        <ele>69.3</ele>
        <time>2017-09-23T08:41:39.000Z</time>
      </trkpt>
      <trkpt lat="48.1931" lon="-3.74532">
        <ele>69.3</ele>
        <time>2017-09-23T08:41:40.000Z</time>
      </trkpt>
      <trkpt lat="48.1931" lon="-3.7453">
        <ele>69.3</ele>
        <time>2017-09-23T08:41:41.000Z</time>
      </trkpt>
      <trkpt lat="48.1931" lon="-3.74528">
        <ele>69.4</ele>
        <time>2017-09-23T08:41:42.000Z</time>
      </trkpt>
      <trkpt lat="48.1931" lon="-3.74527">
        <ele>69.4</ele>
        <time>2017-09-23T08:41:43.000Z</time>
      </trkpt>
      <trkpt lat="48.1931" lon="-3.74525">
        <ele>69.5</ele>
        <time>2017-09-23T08:41:44.000Z</time>
      </trkpt>
      <trkpt lat="48.1931" lon="-3.74524">
        <ele>69.5</ele>
        <time>2017-09-23T08:41:45.000Z</time>
      </trkpt>
      <trkpt lat="48.19311" lon="-3.74523">
        <ele>69.6</ele>
        <time>2017-09-23T08:41:46.000Z</time>
      </trkpt>
      <trkpt lat="48.19311" lon="-3.74521">
        <ele>69.6</ele>
        <time>2017-09-23T08:41:47.000Z</time>
      </trkpt>
      <trkpt lat="48.19312" lon="-3.7452">
        <ele>69.7</ele>
        <time>2017-09-23T08:41:48.000Z</time>
      </trkpt>
      <trkpt lat="48.19313" lon="-3.74518">
        <ele>69.8</ele>
        <time>2017-09-23T08:41:49.000Z</time>
      </trkpt>
      <trkpt lat="48.19313" lon="-3.74517">
        <ele>69.8</ele>
        <time>2017-09-23T08:41:50.000Z</time>
      </trkpt>
      <trkpt lat="48.19314" lon="-3.74515">
        <ele>69.9</ele>
        <time>2017-09-23T08:41:51.000Z</time>
      </trkpt>
      <trkpt lat="48.19315" lon="-3.74514">
        <ele>70</ele>
        <time>2017-09-23T08:41:52.000Z</time>
      </trkpt>
      <trkpt lat="48.19316" lon="-3.74512">
        <ele>70.1</ele>
        <time>2017-09-23T08:41:53.000Z</time>
      </trkpt>
      <trkpt lat="48.19317" lon="-3.74511">
        <ele>70.1</ele>
        <time>2017-09-23T08:41:54.000Z</time>
      </trkpt>
      <trkpt lat="48.19318" lon="-3.74509">
        <ele>70.2</ele>
        <time>2017-09-23T08:41:55.000Z</time>
      </trkpt>
      <trkpt lat="48.19318" lon="-3.74508">
        <ele>70.2</ele>
        <time>2017-09-23T08:41:56.000Z</time>
      </trkpt>
      <trkpt lat="48.19318" lon="-3.74506">
        <ele>70.3</ele>
        <time>2017-09-23T08:41:57.000Z</time>
      </trkpt>
      <trkpt lat="48.19318" lon="-3.74504">
        <ele>70.3</ele>
        <time>2017-09-23T08:41:58.000Z</time>
      </trkpt>
      <trkpt lat="48.19317" lon="-3.74503">
        <ele>70.4</ele>
        <time>2017-09-23T08:41:59.000Z</time>
      </trkpt>
      <trkpt lat="48.19317" lon="-3.74501">
        <ele>70.4</ele>
        <time>2017-09-23T08:42:00.000Z</time>
      </trkpt>
      <trkpt lat="48.19316" lon="-3.745">
        <ele>70.4</ele>
        <time>2017-09-23T08:42:01.000Z</time>
      </trkpt>
      <trkpt lat="48.19316" lon="-3.74498">
        <ele>70.4</ele>
        <time>2017-09-23T08:42:02.000Z</time>
      </trkpt>
      <trkpt lat="48.19315" lon="-3.74496">
        <ele>70.4</ele>
        <time>2017-09-23T08:42:03.000Z</time>
      </trkpt>
      <trkpt lat="48.19315" lon="-3.74495">
        <ele>70.4</ele>
        <time>2017-09-23T08:42:04.000Z</time>
      </trkpt>
      <trkpt lat="48.19314" lon="-3.74493">
        <ele>70.3</ele>
        <time>2017-09-23T08:42:05.000Z</time>
      </trkpt>
      <trkpt lat="48.19314" lon="-3.74492">
        <ele>70.3</ele>
        <time>2017-09-23T08:42:06.000Z</time>
      </trkpt>
      <trkpt lat="48.19313" lon="-3.74491">
        <ele>70.3</ele>
        <time>2017-09-23T08:42:07.000Z</time>
      </trkpt>
      <trkpt lat="48.19313" lon="-3.74489">
        <ele>70.3</ele>
        <time>2017-09-23T08:42:08.000Z</time>
      </trkpt>
      <trkpt lat="48.19312" lon="-3.74488">
        <ele>70.3</ele>
        <time>2017-09-23T08:42:09.000Z</time>
      </trkpt>
      <trkpt lat="48.19312" lon="-3.74487">
        <ele>70.3</ele>
        <time>2017-09-23T08:42:10.000Z</time>
      </trkpt>
      <trkpt lat="48.19311" lon="-3.74485">
        <ele>70.3</ele>
        <time>2017-09-23T08:42:11.000Z</time>
      </trkpt>
      <trkpt lat="48.1931" lon="-3.74484">
        <ele>70.3</ele>
        <time>2017-09-23T08:42:12.000Z</time>
      </trkpt>
      <trkpt lat="48.1931" lon="-3.74482">
        <ele>70.2</ele>
        <time>2017-09-23T08:42:13.000Z</time>
      </trkpt>
      <trkpt lat="48.19309" lon="-3.7448">
        <ele>70.2</ele>
        <time>2017-09-23T08:42:14.000Z</time>
      </trkpt>
      <trkpt lat="48.19309" lon="-3.74478">
        <ele>70.2</ele>
        <time>2017-09-23T08:42:15.000Z</time>
      </trkpt>
      <trkpt lat="48.19308" lon="-3.74477">
        <ele>70.2</ele>
        <time>2017-09-23T08:42:16.000Z</time>
      </trkpt>
      <trkpt lat="48.19308" lon="-3.74475">
        <ele>70.2</ele>
        <time>2017-09-23T08:42:17.000Z</time>
      </trkpt>
      <trkpt lat="48.19307" lon="-3.74473">
        <ele>70.2</ele>
        <time>2017-09-23T08:42:18.000Z</time>
      </trkpt>
      <trkpt lat="48.19307" lon="-3.74471">
        <ele>70.2</ele>
        <time>2017-09-23T08:42:19.000Z</time>
      </trkpt>
      <trkpt lat="48.19306" lon="-3.74469">
        <ele>70.1</ele>
        <time>2017-09-23T08:42:20.000Z</time>
      </trkpt>
      <trkpt lat="48.19306" lon="-3.74466">
        <ele>70.1</ele>
        <time>2017-09-23T08:42:21.000Z</time>
      </trkpt>
      <trkpt lat="48.19305" lon="-3.74464">
        <ele>70.1</ele>
        <time>2017-09-23T08:42:22.000Z</time>
      </trkpt>
      <trkpt lat="48.19305" lon="-3.74462">
        <ele>70.1</ele>
        <time>2017-09-23T08:42:23.000Z</time>
      </trkpt>
      <trkpt lat="48.19305" lon="-3.7446">
        <ele>70.1</ele>
        <time>2017-09-23T08:42:24.000Z</time>
      </trkpt>
      <trkpt lat="48.19305" lon="-3.74458">
        <ele>70.1</ele>
        <time>2017-09-23T08:42:25.000Z</time>
      </trkpt>
      <trkpt lat="48.19305" lon="-3.74456">
        <ele>70.1</ele>
        <time>2017-09-23T08:42:26.000Z</time>
      </trkpt>
      <trkpt lat="48.19305" lon="-3.74454">
        <ele>70.1</ele>
        <time>2017-09-23T08:42:27.000Z</time>
      </trkpt>
      <trkpt lat="48.19305" lon="-3.74452">
        <ele>70.2</ele>
        <time>2017-09-23T08:42:28.000Z</time>
      </trkpt>
      <trkpt lat="48.19305" lon="-3.74451">
        <ele>70.2</ele>
        <time>2017-09-23T08:42:29.000Z</time>
      </trkpt>
      <trkpt lat="48.19305" lon="-3.74449">
        <ele>70.2</ele>
        <time>2017-09-23T08:42:30.000Z</time>
      </trkpt>
      <trkpt lat="48.19305" lon="-3.74448">
        <ele>70.2</ele>
        <time>2017-09-23T08:42:31.000Z</time>
      </trkpt>
      <trkpt lat="48.19306" lon="-3.74446">
        <ele>70.2</ele>
        <time>2017-09-23T08:42:32.000Z</time>
      </trkpt>
      <trkpt lat="48.19306" lon="-3.74445">
        <ele>70.2</ele>
        <time>2017-09-23T08:42:33.000Z</time>
      </trkpt>
      <trkpt lat="48.19306" lon="-3.74444">
        <ele>70.2</ele>
        <time>2017-09-23T08:42:34.000Z</time>
      </trkpt>
      <trkpt lat="48.19306" lon="-3.74443">
        <ele>70.2</ele>
        <time>2017-09-23T08:42:35.000Z</time>
      </trkpt>
      <trkpt lat="48.19306" lon="-3.74441">
        <ele>70.2</ele>
        <time>2017-09-23T08:42:36.000Z</time>
      </trkpt>
      <trkpt lat="48.19305" lon="-3.7444">
        <ele>70.2</ele>
        <time>2017-09-23T08:42:37.000Z</time>
      </trkpt>
      <trkpt lat="48.19305" lon="-3.74439">
        <ele>70.2</ele>
        <time>2017-09-23T08:42:38.000Z</time>
      </trkpt>
      <trkpt lat="48.19304" lon="-3.74438">
        <ele>70.2</ele>
        <time>2017-09-23T08:42:39.000Z</time>
      </trkpt>
      <trkpt lat="48.19304" lon="-3.74436">
        <ele>70.2</ele>
        <time>2017-09-23T08:42:40.000Z</time>
      </trkpt>
      <trkpt lat="48.19303" lon="-3.74435">
        <ele>70.1</ele>
        <time>2017-09-23T08:42:41.000Z</time>
      </trkpt>
      <trkpt lat="48.19303" lon="-3.74433">
        <ele>70.1</ele>
        <time>2017-09-23T08:42:42.000Z</time>
      </trkpt>
      <trkpt lat="48.19302" lon="-3.74432">
        <ele>70.1</ele>
        <time>2017-09-23T08:42:43.000Z</time>
      </trkpt>
      <trkpt lat="48.19301" lon="-3.7443">
        <ele>70</ele>
        <time>2017-09-23T08:42:44.000Z</time>
      </trkpt>
      <trkpt lat="48.19301" lon="-3.74429">
        <ele>70</ele>
        <time>2017-09-23T08:42:45.000Z</time>
      </trkpt>
      <trkpt lat="48.193" lon="-3.74427">
        <ele>70</ele>
        <time>2017-09-23T08:42:46.000Z</time>
      </trkpt>
      <trkpt lat="48.193" lon="-3.74425">
        <ele>70</ele>
        <time>2017-09-23T08:42:47.000Z</time>
      </trkpt>
      <trkpt lat="48.193" lon="-3.74424">
        <ele>70</ele>
        <time>2017-09-23T08:42:48.000Z</time>
      </trkpt>
      <trkpt lat="48.19299" lon="-3.74422">
        <ele>69.9</ele>
        <time>2017-09-23T08:42:49.000Z</time>
      </trkpt>
      <trkpt lat="48.19299" lon="-3.7442">
        <ele>69.9</ele>
        <time>2017-09-23T08:42:50.000Z</time>
      </trkpt>
      <trkpt lat="48.19299" lon="-3.74419">
        <ele>69.9</ele>
        <time>2017-09-23T08:42:51.000Z</time>
      </trkpt>
      <trkpt lat="48.19299" lon="-3.74417">
        <ele>70</ele>
        <time>2017-09-23T08:42:52.000Z</time>
      </trkpt>
      <trkpt lat="48.19299" lon="-3.74416">
        <ele>69.9</ele>
        <time>2017-09-23T08:42:53.000Z</time>
      </trkpt>
      <trkpt lat="48.193" lon="-3.74414">
        <ele>69.9</ele>
        <time>2017-09-23T08:42:54.000Z</time>
      </trkpt>
      <trkpt lat="48.193" lon="-3.74413">
        <ele>69.9</ele>
        <time>2017-09-23T08:42:55.000Z</time>
      </trkpt>
      <trkpt lat="48.193" lon="-3.74411">
        <ele>69.9</ele>
        <time>2017-09-23T08:42:56.000Z</time>
      </trkpt>
      <trkpt lat="48.193" lon="-3.7441">
        <ele>69.9</ele>
        <time>2017-09-23T08:42:57.000Z</time>
      </trkpt>
      <trkpt lat="48.193" lon="-3.74408">
        <ele>69.8</ele>
        <time>2017-09-23T08:42:58.000Z</time>
      </trkpt>
      <trkpt lat="48.19301" lon="-3.74406">
        <ele>69.8</ele>
        <time>2017-09-23T08:42:59.000Z</time>
      </trkpt>
      <trkpt lat="48.19301" lon="-3.74405">
        <ele>69.8</ele>
        <time>2017-09-23T08:43:00.000Z</time>
      </trkpt>
      <trkpt lat="48.19301" lon="-3.74403">
        <ele>69.7</ele>
        <time>2017-09-23T08:43:01.000Z</time>
      </trkpt>
      <trkpt lat="48.19301" lon="-3.74401">
        <ele>69.7</ele>
        <time>2017-09-23T08:43:02.000Z</time>
      </trkpt>
      <trkpt lat="48.19301" lon="-3.74399">
        <ele>69.7</ele>
        <time>2017-09-23T08:43:03.000Z</time>
      </trkpt>
      <trkpt lat="48.19301" lon="-3.74397">
        <ele>69.6</ele>
        <time>2017-09-23T08:43:04.000Z</time>
      </trkpt>
      <trkpt lat="48.19301" lon="-3.74396">
        <ele>69.6</ele>
        <time>2017-09-23T08:43:05.000Z</time>
      </trkpt>
      <trkpt lat="48.19301" lon="-3.74394">
        <ele>69.6</ele>
        <time>2017-09-23T08:43:06.000Z</time>
      </trkpt>
      <trkpt lat="48.19301" lon="-3.74393">
        <ele>69.5</ele>
        <time>2017-09-23T08:43:07.000Z</time>
      </trkpt>
      <trkpt lat="48.19301" lon="-3.74391">
        <ele>69.5</ele>
        <time>2017-09-23T08:43:08.000Z</time>
      </trkpt>
      <trkpt lat="48.19301" lon="-3.7439">
        <ele>69.5</ele>
        <time>2017-09-23T08:43:09.000Z</time>
      </trkpt>
      <trkpt lat="48.19301" lon="-3.7439">
        <ele>69.5</ele>
        <time>2017-09-23T08:43:10.000Z</time>
      </trkpt>
      <trkpt lat="48.19301" lon="-3.74389">
        <ele>69.5</ele>
        <time>2017-09-23T08:43:11.000Z</time>
      </trkpt>
      <trkpt lat="48.19301" lon="-3.74388">
        <ele>69.4</ele>
        <time>2017-09-23T08:43:12.000Z</time>
      </trkpt>
      <trkpt lat="48.19301" lon="-3.74386">
        <ele>69.4</ele>
        <time>2017-09-23T08:43:13.000Z</time>
      </trkpt>
      <trkpt lat="48.19302" lon="-3.74384">
        <ele>69.4</ele>
        <time>2017-09-23T08:43:14.000Z</time>
      </trkpt>
      <trkpt lat="48.19302" lon="-3.74382">
        <ele>69.4</ele>
        <time>2017-09-23T08:43:15.000Z</time>
      </trkpt>
      <trkpt lat="48.19302" lon="-3.74379">
        <ele>69.3</ele>
        <time>2017-09-23T08:43:16.000Z</time>
      </trkpt>
      <trkpt lat="48.19302" lon="-3.74376">
        <ele>69.3</ele>
        <time>2017-09-23T08:43:17.000Z</time>
      </trkpt>
      <trkpt lat="48.19302" lon="-3.74374">
        <ele>69.2</ele>
        <time>2017-09-23T08:43:18.000Z</time>
      </trkpt>
      <trkpt lat="48.19303" lon="-3.74372">
        <ele>69.2</ele>
        <time>2017-09-23T08:43:19.000Z</time>
      </trkpt>
      <trkpt lat="48.19303" lon="-3.7437">
        <ele>69.2</ele>
        <time>2017-09-23T08:43:20.000Z</time>
      </trkpt>
      <trkpt lat="48.19303" lon="-3.74367">
        <ele>69.2</ele>
        <time>2017-09-23T08:43:21.000Z</time>
      </trkpt>
      <trkpt lat="48.19304" lon="-3.74365">
        <ele>69.2</ele>
        <time>2017-09-23T08:43:22.000Z</time>
      </trkpt>
      <trkpt lat="48.19304" lon="-3.74363">
        <ele>69.1</ele>
        <time>2017-09-23T08:43:23.000Z</time>
      </trkpt>
      <trkpt lat="48.19304" lon="-3.74361">
        <ele>69.1</ele>
        <time>2017-09-23T08:43:24.000Z</time>
      </trkpt>
      <trkpt lat="48.19304" lon="-3.74359">
        <ele>69.1</ele>
        <time>2017-09-23T08:43:25.000Z</time>
      </trkpt>
      <trkpt lat="48.19305" lon="-3.74356">
        <ele>69.1</ele>
        <time>2017-09-23T08:43:26.000Z</time>
      </trkpt>
      <trkpt lat="48.19305" lon="-3.74354">
        <ele>69</ele>
        <time>2017-09-23T08:43:27.000Z</time>
      </trkpt>
      <trkpt lat="48.19306" lon="-3.74352">
        <ele>69</ele>
        <time>2017-09-23T08:43:28.000Z</time>
      </trkpt>
      <trkpt lat="48.19306" lon="-3.7435">
        <ele>69</ele>
        <time>2017-09-23T08:43:29.000Z</time>
      </trkpt>
      <trkpt lat="48.19306" lon="-3.74348">
        <ele>69</ele>
        <time>2017-09-23T08:43:30.000Z</time>
      </trkpt>
      <trkpt lat="48.19307" lon="-3.74346">
        <ele>69</ele>
        <time>2017-09-23T08:43:31.000Z</time>
      </trkpt>
      <trkpt lat="48.19307" lon="-3.74344">
        <ele>69</ele>
        <time>2017-09-23T08:43:32.000Z</time>
      </trkpt>
      <trkpt lat="48.19308" lon="-3.74342">
        <ele>69</ele>
        <time>2017-09-23T08:43:33.000Z</time>
      </trkpt>
      <trkpt lat="48.19308" lon="-3.7434">
        <ele>69</ele>
        <time>2017-09-23T08:43:34.000Z</time>
      </trkpt>
      <trkpt lat="48.19309" lon="-3.74338">
        <ele>69</ele>
        <time>2017-09-23T08:43:35.000Z</time>
      </trkpt>
      <trkpt lat="48.19309" lon="-3.74336">
        <ele>69</ele>
        <time>2017-09-23T08:43:36.000Z</time>
      </trkpt>
      <trkpt lat="48.1931" lon="-3.74335">
        <ele>69.1</ele>
        <time>2017-09-23T08:43:37.000Z</time>
      </trkpt>
      <trkpt lat="48.19311" lon="-3.74333">
        <ele>69.1</ele>
        <time>2017-09-23T08:43:38.000Z</time>
      </trkpt>
      <trkpt lat="48.19311" lon="-3.74331">
        <ele>69.1</ele>
        <time>2017-09-23T08:43:39.000Z</time>
      </trkpt>
      <trkpt lat="48.19312" lon="-3.74329">
        <ele>69.1</ele>
        <time>2017-09-23T08:43:40.000Z</time>
      </trkpt>
      <trkpt lat="48.19312" lon="-3.74328">
        <ele>69</ele>
        <time>2017-09-23T08:43:41.000Z</time>
      </trkpt>
      <trkpt lat="48.19313" lon="-3.74326">
        <ele>69</ele>
        <time>2017-09-23T08:43:42.000Z</time>
      </trkpt>
      <trkpt lat="48.19314" lon="-3.74324">
        <ele>69</ele>
        <time>2017-09-23T08:43:43.000Z</time>
      </trkpt>
      <trkpt lat="48.19314" lon="-3.74323">
        <ele>69</ele>
        <time>2017-09-23T08:43:44.000Z</time>
      </trkpt>
      <trkpt lat="48.19315" lon="-3.74321">
        <ele>69</ele>
        <time>2017-09-23T08:43:45.000Z</time>
      </trkpt>
      <trkpt lat="48.19315" lon="-3.74319">
        <ele>69</ele>
        <time>2017-09-23T08:43:46.000Z</time>
      </trkpt>
      <trkpt lat="48.19316" lon="-3.74318">
        <ele>69</ele>
        <time>2017-09-23T08:43:47.000Z</time>
      </trkpt>
      <trkpt lat="48.19317" lon="-3.74316">
        <ele>69</ele>
        <time>2017-09-23T08:43:48.000Z</time>
      </trkpt>
      <trkpt lat="48.19317" lon="-3.74314">
        <ele>68.9</ele>
        <time>2017-09-23T08:43:49.000Z</time>
      </trkpt>
      <trkpt lat="48.19318" lon="-3.74312">
        <ele>68.9</ele>
        <time>2017-09-23T08:43:50.000Z</time>
      </trkpt>
      <trkpt lat="48.19318" lon="-3.74311">
        <ele>68.9</ele>
        <time>2017-09-23T08:43:51.000Z</time>
      </trkpt>
      <trkpt lat="48.19319" lon="-3.74309">
        <ele>68.9</ele>
        <time>2017-09-23T08:43:52.000Z</time>
      </trkpt>
      <trkpt lat="48.19319" lon="-3.74307">
        <ele>68.8</ele>
        <time>2017-09-23T08:43:53.000Z</time>
      </trkpt>
      <trkpt lat="48.1932" lon="-3.74306">
        <ele>68.8</ele>
        <time>2017-09-23T08:43:54.000Z</time>
      </trkpt>
      <trkpt lat="48.1932" lon="-3.74304">
        <ele>68.8</ele>
        <time>2017-09-23T08:43:55.000Z</time>
      </trkpt>
      <trkpt lat="48.19321" lon="-3.74303">
        <ele>68.8</ele>
        <time>2017-09-23T08:43:56.000Z</time>
      </trkpt>
      <trkpt lat="48.19321" lon="-3.74302">
        <ele>68.7</ele>
        <time>2017-09-23T08:43:57.000Z</time>
      </trkpt>
      <trkpt lat="48.19322" lon="-3.74301">
        <ele>68.7</ele>
        <time>2017-09-23T08:43:58.000Z</time>
      </trkpt>
      <trkpt lat="48.19322" lon="-3.743">
        <ele>68.7</ele>
        <time>2017-09-23T08:43:59.000Z</time>
      </trkpt>
      <trkpt lat="48.19323" lon="-3.74299">
        <ele>68.7</ele>
        <time>2017-09-23T08:44:00.000Z</time>
      </trkpt>
      <trkpt lat="48.19323" lon="-3.74298">
        <ele>68.7</ele>
        <time>2017-09-23T08:44:01.000Z</time>
      </trkpt>
      <trkpt lat="48.19323" lon="-3.74297">
        <ele>68.7</ele>
        <time>2017-09-23T08:44:02.000Z</time>
      </trkpt>
      <trkpt lat="48.19323" lon="-3.74296">
        <ele>68.7</ele>
        <time>2017-09-23T08:44:03.000Z</time>
      </trkpt>
      <trkpt lat="48.19324" lon="-3.74295">
        <ele>68.6</ele>
        <time>2017-09-23T08:44:04.000Z</time>
      </trkpt>
      <trkpt lat="48.19324" lon="-3.74294">
        <ele>68.6</ele>
        <time>2017-09-23T08:44:05.000Z</time>
      </trkpt>
      <trkpt lat="48.19324" lon="-3.74292">
        <ele>68.5</ele>
        <time>2017-09-23T08:44:06.000Z</time>
      </trkpt>
      <trkpt lat="48.19324" lon="-3.7429">
        <ele>68.4</ele>
        <time>2017-09-23T08:44:07.000Z</time>
      </trkpt>
      <trkpt lat="48.19323" lon="-3.74288">
        <ele>68.3</ele>
        <time>2017-09-23T08:44:08.000Z</time>
      </trkpt>
      <trkpt lat="48.19323" lon="-3.74286">
        <ele>68.2</ele>
        <time>2017-09-23T08:44:09.000Z</time>
      </trkpt>
      <trkpt lat="48.19323" lon="-3.74284">
        <ele>68.1</ele>
        <time>2017-09-23T08:44:10.000Z</time>
      </trkpt>
      <trkpt lat="48.19323" lon="-3.74282">
        <ele>68.1</ele>
        <time>2017-09-23T08:44:11.000Z</time>
      </trkpt>
      <trkpt lat="48.19323" lon="-3.7428">
        <ele>68</ele>
        <time>2017-09-23T08:44:12.000Z</time>
      </trkpt>
      <trkpt lat="48.19323" lon="-3.74278">
        <ele>67.9</ele>
        <time>2017-09-23T08:44:13.000Z</time>
      </trkpt>
      <trkpt lat="48.19323" lon="-3.74276">
        <ele>67.8</ele>
        <time>2017-09-23T08:44:14.000Z</time>
      </trkpt>
      <trkpt lat="48.19323" lon="-3.74274">
        <ele>67.7</ele>
        <time>2017-09-23T08:44:15.000Z</time>
      </trkpt>
      <trkpt lat="48.19323" lon="-3.74272">
        <ele>67.6</ele>
        <time>2017-09-23T08:44:16.000Z</time>
      </trkpt>
      <trkpt lat="48.19323" lon="-3.7427">
        <ele>67.6</ele>
        <time>2017-09-23T08:44:17.000Z</time>
      </trkpt>
      <trkpt lat="48.19323" lon="-3.74268">
        <ele>67.5</ele>
        <time>2017-09-23T08:44:18.000Z</time>
      </trkpt>
      <trkpt lat="48.19323" lon="-3.74267">
        <ele>67.4</ele>
        <time>2017-09-23T08:44:19.000Z</time>
      </trkpt>
      <trkpt lat="48.19323" lon="-3.74265">
        <ele>67.3</ele>
        <time>2017-09-23T08:44:20.000Z</time>
      </trkpt>
      <trkpt lat="48.19322" lon="-3.74263">
        <ele>67.2</ele>
        <time>2017-09-23T08:44:21.000Z</time>
      </trkpt>
      <trkpt lat="48.19322" lon="-3.74261">
        <ele>67.2</ele>
        <time>2017-09-23T08:44:22.000Z</time>
      </trkpt>
      <trkpt lat="48.19322" lon="-3.74259">
        <ele>67.1</ele>
        <time>2017-09-23T08:44:23.000Z</time>
      </trkpt>
      <trkpt lat="48.19322" lon="-3.74257">
        <ele>67</ele>
        <time>2017-09-23T08:44:24.000Z</time>
      </trkpt>
      <trkpt lat="48.19322" lon="-3.74255">
        <ele>66.9</ele>
        <time>2017-09-23T08:44:25.000Z</time>
      </trkpt>
      <trkpt lat="48.19322" lon="-3.74253">
        <ele>66.9</ele>
        <time>2017-09-23T08:44:26.000Z</time>
      </trkpt>
      <trkpt lat="48.19322" lon="-3.74252">
        <ele>66.8</ele>
        <time>2017-09-23T08:44:27.000Z</time>
      </trkpt>
      <trkpt lat="48.19322" lon="-3.7425">
        <ele>66.7</ele>
        <time>2017-09-23T08:44:28.000Z</time>
      </trkpt>
      <trkpt lat="48.19322" lon="-3.74248">
        <ele>66.7</ele>
        <time>2017-09-23T08:44:29.000Z</time>
      </trkpt>
      <trkpt lat="48.19322" lon="-3.74246">
        <ele>66.7</ele>
        <time>2017-09-23T08:44:30.000Z</time>
      </trkpt>
      <trkpt lat="48.19321" lon="-3.74244">
        <ele>66.7</ele>
        <time>2017-09-23T08:44:31.000Z</time>
      </trkpt>
      <trkpt lat="48.19321" lon="-3.74243">
        <ele>66.7</ele>
        <time>2017-09-23T08:44:32.000Z</time>
      </trkpt>
      <trkpt lat="48.19321" lon="-3.74241">
        <ele>66.7</ele>
        <time>2017-09-23T08:44:33.000Z</time>
      </trkpt>
      <trkpt lat="48.19321" lon="-3.74239">
        <ele>66.7</ele>
        <time>2017-09-23T08:44:34.000Z</time>
      </trkpt>
      <trkpt lat="48.19321" lon="-3.74237">
        <ele>66.8</ele>
        <time>2017-09-23T08:44:35.000Z</time>
      </trkpt>
      <trkpt lat="48.19321" lon="-3.74236">
        <ele>66.8</ele>
        <time>2017-09-23T08:44:36.000Z</time>
      </trkpt>
      <trkpt lat="48.19321" lon="-3.74234">
        <ele>66.8</ele>
        <time>2017-09-23T08:44:37.000Z</time>
      </trkpt>
      <trkpt lat="48.19321" lon="-3.74232">
        <ele>66.8</ele>
        <time>2017-09-23T08:44:38.000Z</time>
      </trkpt>
      <trkpt lat="48.19321" lon="-3.74231">
        <ele>66.8</ele>
        <time>2017-09-23T08:44:39.000Z</time>
      </trkpt>
      <trkpt lat="48.19322" lon="-3.7423">
        <ele>66.8</ele>
        <time>2017-09-23T08:44:40.000Z</time>
      </trkpt>
      <trkpt lat="48.19322" lon="-3.74228">
        <ele>66.8</ele>
        <time>2017-09-23T08:44:41.000Z</time>
      </trkpt>
      <trkpt lat="48.19322" lon="-3.74227">
        <ele>66.8</ele>
        <time>2017-09-23T08:44:42.000Z</time>
      </trkpt>
      <trkpt lat="48.19323" lon="-3.74226">
        <ele>66.8</ele>
        <time>2017-09-23T08:44:43.000Z</time>
      </trkpt>
      <trkpt lat="48.19323" lon="-3.74224">
        <ele>66.8</ele>
        <time>2017-09-23T08:44:44.000Z</time>
      </trkpt>
      <trkpt lat="48.19324" lon="-3.74223">
        <ele>66.8</ele>
        <time>2017-09-23T08:44:45.000Z</time>
      </trkpt>
      <trkpt lat="48.19324" lon="-3.74222">
        <ele>66.9</ele>
        <time>2017-09-23T08:44:46.000Z</time>
      </trkpt>
      <trkpt lat="48.19324" lon="-3.74221">
        <ele>66.9</ele>
        <time>2017-09-23T08:44:47.000Z</time>
      </trkpt>
      <trkpt lat="48.19325" lon="-3.74219">
        <ele>66.9</ele>
        <time>2017-09-23T08:44:48.000Z</time>
      </trkpt>
      <trkpt lat="48.19325" lon="-3.74218">
        <ele>66.9</ele>
        <time>2017-09-23T08:44:49.000Z</time>
      </trkpt>
      <trkpt lat="48.19326" lon="-3.74216">
        <ele>66.9</ele>
        <time>2017-09-23T08:44:50.000Z</time>
      </trkpt>
      <trkpt lat="48.19326" lon="-3.74215">
        <ele>66.9</ele>
        <time>2017-09-23T08:44:51.000Z</time>
      </trkpt>
      <trkpt lat="48.19326" lon="-3.74213">
        <ele>66.9</ele>
        <time>2017-09-23T08:44:52.000Z</time>
      </trkpt>
      <trkpt lat="48.19326" lon="-3.74211">
        <ele>66.9</ele>
        <time>2017-09-23T08:44:53.000Z</time>
      </trkpt>
      <trkpt lat="48.19327" lon="-3.7421">
        <ele>66.9</ele>
        <time>2017-09-23T08:44:54.000Z</time>
      </trkpt>
      <trkpt lat="48.19327" lon="-3.74208">
        <ele>66.9</ele>
        <time>2017-09-23T08:44:55.000Z</time>
      </trkpt>
      <trkpt lat="48.19327" lon="-3.74206">
        <ele>66.9</ele>
        <time>2017-09-23T08:44:56.000Z</time>
      </trkpt>
      <trkpt lat="48.19327" lon="-3.74205">
        <ele>66.9</ele>
        <time>2017-09-23T08:44:57.000Z</time>
      </trkpt>
      <trkpt lat="48.19328" lon="-3.74203">
        <ele>66.9</ele>
        <time>2017-09-23T08:44:58.000Z</time>
      </trkpt>
      <trkpt lat="48.19328" lon="-3.74201">
        <ele>66.9</ele>
        <time>2017-09-23T08:44:59.000Z</time>
      </trkpt>
      <trkpt lat="48.19328" lon="-3.74199">
        <ele>66.9</ele>
        <time>2017-09-23T08:45:00.000Z</time>
      </trkpt>
      <trkpt lat="48.19328" lon="-3.74198">
        <ele>67</ele>
        <time>2017-09-23T08:45:01.000Z</time>
      </trkpt>
      <trkpt lat="48.19328" lon="-3.74196">
        <ele>67</ele>
        <time>2017-09-23T08:45:02.000Z</time>
      </trkpt>
      <trkpt lat="48.19328" lon="-3.74194">
        <ele>67</ele>
        <time>2017-09-23T08:45:03.000Z</time>
      </trkpt>
      <trkpt lat="48.19328" lon="-3.74193">
        <ele>67</ele>
        <time>2017-09-23T08:45:04.000Z</time>
      </trkpt>
      <trkpt lat="48.19328" lon="-3.74191">
        <ele>67</ele>
        <time>2017-09-23T08:45:05.000Z</time>
      </trkpt>
      <trkpt lat="48.19328" lon="-3.7419">
        <ele>67</ele>
        <time>2017-09-23T08:45:06.000Z</time>
      </trkpt>
      <trkpt lat="48.19328" lon="-3.74188">
        <ele>67</ele>
        <time>2017-09-23T08:45:07.000Z</time>
      </trkpt>
      <trkpt lat="48.19328" lon="-3.74187">
        <ele>67</ele>
        <time>2017-09-23T08:45:08.000Z</time>
      </trkpt>
      <trkpt lat="48.19328" lon="-3.74185">
        <ele>67</ele>
        <time>2017-09-23T08:45:09.000Z</time>
      </trkpt>
      <trkpt lat="48.19328" lon="-3.74184">
        <ele>67</ele>
        <time>2017-09-23T08:45:10.000Z</time>
      </trkpt>
      <trkpt lat="48.19328" lon="-3.74183">
        <ele>67</ele>
        <time>2017-09-23T08:45:11.000Z</time>
      </trkpt>
      <trkpt lat="48.19328" lon="-3.74182">
        <ele>67</ele>
        <time>2017-09-23T08:45:12.000Z</time>
      </trkpt>
      <trkpt lat="48.19327" lon="-3.7418">
        <ele>67</ele>
        <time>2017-09-23T08:45:13.000Z</time>
      </trkpt>
      <trkpt lat="48.19327" lon="-3.74179">
        <ele>67</ele>
        <time>2017-09-23T08:45:14.000Z</time>
      </trkpt>
      <trkpt lat="48.19327" lon="-3.74178">
        <ele>67</ele>
        <time>2017-09-23T08:45:15.000Z</time>
      </trkpt>
      <trkpt lat="48.19327" lon="-3.74176">
        <ele>67</ele>
        <time>2017-09-23T08:45:16.000Z</time>
      </trkpt>
      <trkpt lat="48.19327" lon="-3.74175">
        <ele>67</ele>
        <time>2017-09-23T08:45:17.000Z</time>
      </trkpt>
      <trkpt lat="48.19327" lon="-3.74173">
        <ele>67</ele>
        <time>2017-09-23T08:45:18.000Z</time>
      </trkpt>
      <trkpt lat="48.19327" lon="-3.74172">
        <ele>67</ele>
        <time>2017-09-23T08:45:19.000Z</time>
      </trkpt>
      <trkpt lat="48.19327" lon="-3.7417">
        <ele>67</ele>
        <time>2017-09-23T08:45:20.000Z</time>
      </trkpt>
      <trkpt lat="48.19327" lon="-3.74168">
        <ele>67</ele>
        <time>2017-09-23T08:45:21.000Z</time>
      </trkpt>
      <trkpt lat="48.19327" lon="-3.74166">
        <ele>67</ele>
        <time>2017-09-23T08:45:22.000Z</time>
      </trkpt>
      <trkpt lat="48.19327" lon="-3.74164">
        <ele>67.1</ele>
        <time>2017-09-23T08:45:23.000Z</time>
      </trkpt>
      <trkpt lat="48.19327" lon="-3.74162">
        <ele>67.2</ele>
        <time>2017-09-23T08:45:24.000Z</time>
      </trkpt>
      <trkpt lat="48.19327" lon="-3.7416">
        <ele>67.2</ele>
        <time>2017-09-23T08:45:25.000Z</time>
      </trkpt>
      <trkpt lat="48.19327" lon="-3.74159">
        <ele>67.3</ele>
        <time>2017-09-23T08:45:26.000Z</time>
      </trkpt>
      <trkpt lat="48.19327" lon="-3.74157">
        <ele>67.4</ele>
        <time>2017-09-23T08:45:27.000Z</time>
      </trkpt>
      <trkpt lat="48.19327" lon="-3.74155">
        <ele>67.5</ele>
        <time>2017-09-23T08:45:28.000Z</time>
      </trkpt>
      <trkpt lat="48.19327" lon="-3.74153">
        <ele>67.5</ele>
        <time>2017-09-23T08:45:29.000Z</time>
      </trkpt>
      <trkpt lat="48.19327" lon="-3.74151">
        <ele>67.6</ele>
        <time>2017-09-23T08:45:30.000Z</time>
      </trkpt>
      <trkpt lat="48.19327" lon="-3.74149">
        <ele>67.7</ele>
        <time>2017-09-23T08:45:31.000Z</time>
      </trkpt>
      <trkpt lat="48.19326" lon="-3.74148">
        <ele>67.7</ele>
        <time>2017-09-23T08:45:32.000Z</time>
      </trkpt>
      <trkpt lat="48.19326" lon="-3.74146">
        <ele>67.8</ele>
        <time>2017-09-23T08:45:33.000Z</time>
      </trkpt>
      <trkpt lat="48.19326" lon="-3.74145">
        <ele>67.8</ele>
        <time>2017-09-23T08:45:34.000Z</time>
      </trkpt>
      <trkpt lat="48.19325" lon="-3.74143">
        <ele>67.9</ele>
        <time>2017-09-23T08:45:35.000Z</time>
      </trkpt>
      <trkpt lat="48.19325" lon="-3.74141">
        <ele>68</ele>
        <time>2017-09-23T08:45:36.000Z</time>
      </trkpt>
      <trkpt lat="48.19325" lon="-3.7414">
        <ele>68</ele>
        <time>2017-09-23T08:45:37.000Z</time>
      </trkpt>
      <trkpt lat="48.19324" lon="-3.74138">
        <ele>68.1</ele>
        <time>2017-09-23T08:45:38.000Z</time>
      </trkpt>
      <trkpt lat="48.19324" lon="-3.74137">
        <ele>68.1</ele>
        <time>2017-09-23T08:45:39.000Z</time>
      </trkpt>
      <trkpt lat="48.19324" lon="-3.74135">
        <ele>68.2</ele>
        <time>2017-09-23T08:45:40.000Z</time>
      </trkpt>
      <trkpt lat="48.19324" lon="-3.74134">
        <ele>68.3</ele>
        <time>2017-09-23T08:45:41.000Z</time>
      </trkpt>
      <trkpt lat="48.19324" lon="-3.74132">
        <ele>68.3</ele>
        <time>2017-09-23T08:45:42.000Z</time>
      </trkpt>
      <trkpt lat="48.19324" lon="-3.74131">
        <ele>68.4</ele>
        <time>2017-09-23T08:45:43.000Z</time>
      </trkpt>
      <trkpt lat="48.19323" lon="-3.74129">
        <ele>68.5</ele>
        <time>2017-09-23T08:45:44.000Z</time>
      </trkpt>
      <trkpt lat="48.19323" lon="-3.74128">
        <ele>68.5</ele>
        <time>2017-09-23T08:45:45.000Z</time>
      </trkpt>
      <trkpt lat="48.19323" lon="-3.74126">
        <ele>68.6</ele>
        <time>2017-09-23T08:45:46.000Z</time>
      </trkpt>
      <trkpt lat="48.19323" lon="-3.74125">
        <ele>68.6</ele>
        <time>2017-09-23T08:45:47.000Z</time>
      </trkpt>
      <trkpt lat="48.19323" lon="-3.74123">
        <ele>68.7</ele>
        <time>2017-09-23T08:45:48.000Z</time>
      </trkpt>
      <trkpt lat="48.19323" lon="-3.74121">
        <ele>68.8</ele>
        <time>2017-09-23T08:45:49.000Z</time>
      </trkpt>
      <trkpt lat="48.19323" lon="-3.7412">
        <ele>68.8</ele>
        <time>2017-09-23T08:45:50.000Z</time>
      </trkpt>
      <trkpt lat="48.19324" lon="-3.74118">
        <ele>68.9</ele>
        <time>2017-09-23T08:45:51.000Z</time>
      </trkpt>
      <trkpt lat="48.19324" lon="-3.74117">
        <ele>68.9</ele>
        <time>2017-09-23T08:45:52.000Z</time>
      </trkpt>
      <trkpt lat="48.19324" lon="-3.74115">
        <ele>69</ele>
        <time>2017-09-23T08:45:53.000Z</time>
      </trkpt>
      <trkpt lat="48.19324" lon="-3.74114">
        <ele>69</ele>
        <time>2017-09-23T08:45:54.000Z</time>
      </trkpt>
      <trkpt lat="48.19324" lon="-3.74113">
        <ele>69.1</ele>
        <time>2017-09-23T08:45:55.000Z</time>
      </trkpt>
      <trkpt lat="48.19324" lon="-3.74112">
        <ele>69.1</ele>
        <time>2017-09-23T08:45:56.000Z</time>
      </trkpt>
      <trkpt lat="48.19324" lon="-3.74111">
        <ele>69.2</ele>
        <time>2017-09-23T08:45:57.000Z</time>
      </trkpt>
      <trkpt lat="48.19324" lon="-3.74111">
        <ele>69.2</ele>
        <time>2017-09-23T08:45:58.000Z</time>
      </trkpt>
      <trkpt lat="48.19324" lon="-3.7411">
        <ele>69.2</ele>
        <time>2017-09-23T08:45:59.000Z</time>
      </trkpt>
      <trkpt lat="48.19324" lon="-3.74109">
        <ele>69.2</ele>
        <time>2017-09-23T08:46:00.000Z</time>
      </trkpt>
      <trkpt lat="48.19324" lon="-3.74106">
        <ele>69.3</ele>
        <time>2017-09-23T08:46:01.000Z</time>
      </trkpt>
      <trkpt lat="48.19324" lon="-3.74104">
        <ele>69.4</ele>
        <time>2017-09-23T08:46:02.000Z</time>
      </trkpt>
      <trkpt lat="48.19324" lon="-3.74103">
        <ele>69.5</ele>
        <time>2017-09-23T08:46:03.000Z</time>
      </trkpt>
      <trkpt lat="48.19324" lon="-3.74102">
        <ele>69.5</ele>
        <time>2017-09-23T08:46:04.000Z</time>
      </trkpt>
      <trkpt lat="48.19324" lon="-3.74101">
        <ele>69.5</ele>
        <time>2017-09-23T08:46:05.000Z</time>
      </trkpt>
      <trkpt lat="48.19324" lon="-3.741">
        <ele>69.6</ele>
        <time>2017-09-23T08:46:06.000Z</time>
      </trkpt>
      <trkpt lat="48.19324" lon="-3.74099">
        <ele>69.6</ele>
        <time>2017-09-23T08:46:07.000Z</time>
      </trkpt>
      <trkpt lat="48.19324" lon="-3.74098">
        <ele>69.7</ele>
        <time>2017-09-23T08:46:08.000Z</time>
      </trkpt>
      <trkpt lat="48.19324" lon="-3.74096">
        <ele>69.7</ele>
        <time>2017-09-23T08:46:09.000Z</time>
      </trkpt>
      <trkpt lat="48.19324" lon="-3.74095">
        <ele>69.8</ele>
        <time>2017-09-23T08:46:10.000Z</time>
      </trkpt>
      <trkpt lat="48.19324" lon="-3.74093">
        <ele>69.8</ele>
        <time>2017-09-23T08:46:11.000Z</time>
      </trkpt>
      <trkpt lat="48.19324" lon="-3.74092">
        <ele>69.9</ele>
        <time>2017-09-23T08:46:12.000Z</time>
      </trkpt>
      <trkpt lat="48.19324" lon="-3.7409">
        <ele>70</ele>
        <time>2017-09-23T08:46:13.000Z</time>
      </trkpt>
      <trkpt lat="48.19325" lon="-3.74088">
        <ele>70</ele>
        <time>2017-09-23T08:46:14.000Z</time>
      </trkpt>
      <trkpt lat="48.19325" lon="-3.74087">
        <ele>70.1</ele>
        <time>2017-09-23T08:46:15.000Z</time>
      </trkpt>
      <trkpt lat="48.19325" lon="-3.74085">
        <ele>70.2</ele>
        <time>2017-09-23T08:46:16.000Z</time>
      </trkpt>
      <trkpt lat="48.19325" lon="-3.74083">
        <ele>70.2</ele>
        <time>2017-09-23T08:46:17.000Z</time>
      </trkpt>
      <trkpt lat="48.19325" lon="-3.74081">
        <ele>70.2</ele>
        <time>2017-09-23T08:46:18.000Z</time>
      </trkpt>
      <trkpt lat="48.19326" lon="-3.74079">
        <ele>70.2</ele>
        <time>2017-09-23T08:46:19.000Z</time>
      </trkpt>
      <trkpt lat="48.19326" lon="-3.74077">
        <ele>70.2</ele>
        <time>2017-09-23T08:46:20.000Z</time>
      </trkpt>
      <trkpt lat="48.19326" lon="-3.74076">
        <ele>70.3</ele>
        <time>2017-09-23T08:46:21.000Z</time>
      </trkpt>
      <trkpt lat="48.19327" lon="-3.74074">
        <ele>70.3</ele>
        <time>2017-09-23T08:46:22.000Z</time>
      </trkpt>
      <trkpt lat="48.19327" lon="-3.74072">
        <ele>70.3</ele>
        <time>2017-09-23T08:46:23.000Z</time>
      </trkpt>
      <trkpt lat="48.19328" lon="-3.74071">
        <ele>70.3</ele>
        <time>2017-09-23T08:46:24.000Z</time>
      </trkpt>
      <trkpt lat="48.19329" lon="-3.74069">
        <ele>70.3</ele>
        <time>2017-09-23T08:46:25.000Z</time>
      </trkpt>
      <trkpt lat="48.19329" lon="-3.74067">
        <ele>70.3</ele>
        <time>2017-09-23T08:46:26.000Z</time>
      </trkpt>
      <trkpt lat="48.19329" lon="-3.74066">
        <ele>70.3</ele>
        <time>2017-09-23T08:46:27.000Z</time>
      </trkpt>
      <trkpt lat="48.1933" lon="-3.74065">
        <ele>70.3</ele>
        <time>2017-09-23T08:46:28.000Z</time>
      </trkpt>
      <trkpt lat="48.1933" lon="-3.74063">
        <ele>70.3</ele>
        <time>2017-09-23T08:46:29.000Z</time>
      </trkpt>
      <trkpt lat="48.1933" lon="-3.74062">
        <ele>70.3</ele>
        <time>2017-09-23T08:46:30.000Z</time>
      </trkpt>
      <trkpt lat="48.19331" lon="-3.74061">
        <ele>70.3</ele>
        <time>2017-09-23T08:46:31.000Z</time>
      </trkpt>
      <trkpt lat="48.19331" lon="-3.7406">
        <ele>70.3</ele>
        <time>2017-09-23T08:46:32.000Z</time>
      </trkpt>
      <trkpt lat="48.19331" lon="-3.74058">
        <ele>70.3</ele>
        <time>2017-09-23T08:46:33.000Z</time>
      </trkpt>
      <trkpt lat="48.19331" lon="-3.74057">
        <ele>70.4</ele>
        <time>2017-09-23T08:46:34.000Z</time>
      </trkpt>
      <trkpt lat="48.19332" lon="-3.74056">
        <ele>70.4</ele>
        <time>2017-09-23T08:46:35.000Z</time>
      </trkpt>
      <trkpt lat="48.19332" lon="-3.74055">
        <ele>70.4</ele>
        <time>2017-09-23T08:46:36.000Z</time>
      </trkpt>
      <trkpt lat="48.19333" lon="-3.74053">
        <ele>70.4</ele>
        <time>2017-09-23T08:46:37.000Z</time>
      </trkpt>
      <trkpt lat="48.19333" lon="-3.74051">
        <ele>70.4</ele>
        <time>2017-09-23T08:46:38.000Z</time>
      </trkpt>
      <trkpt lat="48.19334" lon="-3.7405">
        <ele>70.5</ele>
        <time>2017-09-23T08:46:39.000Z</time>
      </trkpt>
      <trkpt lat="48.19335" lon="-3.74048">
        <ele>70.6</ele>
        <time>2017-09-23T08:46:40.000Z</time>
      </trkpt>
      <trkpt lat="48.19335" lon="-3.74046">
        <ele>70.7</ele>
        <time>2017-09-23T08:46:41.000Z</time>
      </trkpt>
      <trkpt lat="48.19336" lon="-3.74044">
        <ele>70.8</ele>
        <time>2017-09-23T08:46:42.000Z</time>
      </trkpt>
      <trkpt lat="48.19337" lon="-3.74042">
        <ele>70.9</ele>
        <time>2017-09-23T08:46:43.000Z</time>
      </trkpt>
      <trkpt lat="48.19338" lon="-3.7404">
        <ele>71</ele>
        <time>2017-09-23T08:46:44.000Z</time>
      </trkpt>
      <trkpt lat="48.19339" lon="-3.74038">
        <ele>71.1</ele>
        <time>2017-09-23T08:46:45.000Z</time>
      </trkpt>
      <trkpt lat="48.19339" lon="-3.74036">
        <ele>71.2</ele>
        <time>2017-09-23T08:46:46.000Z</time>
      </trkpt>
      <trkpt lat="48.1934" lon="-3.74035">
        <ele>71.3</ele>
        <time>2017-09-23T08:46:47.000Z</time>
      </trkpt>
      <trkpt lat="48.19341" lon="-3.74033">
        <ele>71.4</ele>
        <time>2017-09-23T08:46:48.000Z</time>
      </trkpt>
      <trkpt lat="48.19341" lon="-3.74032">
        <ele>71.5</ele>
        <time>2017-09-23T08:46:49.000Z</time>
      </trkpt>
      <trkpt lat="48.19342" lon="-3.7403">
        <ele>71.6</ele>
        <time>2017-09-23T08:46:50.000Z</time>
      </trkpt>
      <trkpt lat="48.19343" lon="-3.74029">
        <ele>71.6</ele>
        <time>2017-09-23T08:46:51.000Z</time>
      </trkpt>
      <trkpt lat="48.19343" lon="-3.74028">
        <ele>71.7</ele>
        <time>2017-09-23T08:46:52.000Z</time>
      </trkpt>
      <trkpt lat="48.19344" lon="-3.74027">
        <ele>71.8</ele>
        <time>2017-09-23T08:46:53.000Z</time>
      </trkpt>
      <trkpt lat="48.19345" lon="-3.74026">
        <ele>71.9</ele>
        <time>2017-09-23T08:46:54.000Z</time>
      </trkpt>
      <trkpt lat="48.19345" lon="-3.74024">
        <ele>72</ele>
        <time>2017-09-23T08:46:55.000Z</time>
      </trkpt>
      <trkpt lat="48.19346" lon="-3.74023">
        <ele>72.1</ele>
        <time>2017-09-23T08:46:56.000Z</time>
      </trkpt>
      <trkpt lat="48.19347" lon="-3.74022">
        <ele>72.2</ele>
        <time>2017-09-23T08:46:57.000Z</time>
      </trkpt>
      <trkpt lat="48.19348" lon="-3.74021">
        <ele>72.3</ele>
        <time>2017-09-23T08:46:58.000Z</time>
      </trkpt>
      <trkpt lat="48.19348" lon="-3.7402">
        <ele>72.4</ele>
        <time>2017-09-23T08:46:59.000Z</time>
      </trkpt>
      <trkpt lat="48.19349" lon="-3.74019">
        <ele>72.5</ele>
        <time>2017-09-23T08:47:00.000Z</time>
      </trkpt>
      <trkpt lat="48.1935" lon="-3.74018">
        <ele>72.6</ele>
        <time>2017-09-23T08:47:01.000Z</time>
      </trkpt>
      <trkpt lat="48.19351" lon="-3.74017">
        <ele>72.6</ele>
        <time>2017-09-23T08:47:02.000Z</time>
      </trkpt>
      <trkpt lat="48.19351" lon="-3.74016">
        <ele>72.7</ele>
        <time>2017-09-23T08:47:03.000Z</time>
      </trkpt>
      <trkpt lat="48.19352" lon="-3.74015">
        <ele>72.8</ele>
        <time>2017-09-23T08:47:04.000Z</time>
      </trkpt>
      <trkpt lat="48.19352" lon="-3.74014">
        <ele>72.9</ele>
        <time>2017-09-23T08:47:05.000Z</time>
      </trkpt>
      <trkpt lat="48.19353" lon="-3.74013">
        <ele>73</ele>
        <time>2017-09-23T08:47:06.000Z</time>
      </trkpt>
      <trkpt lat="48.19353" lon="-3.74011">
        <ele>73</ele>
        <time>2017-09-23T08:47:07.000Z</time>
      </trkpt>
      <trkpt lat="48.19354" lon="-3.7401">
        <ele>73.1</ele>
        <time>2017-09-23T08:47:08.000Z</time>
      </trkpt>
      <trkpt lat="48.19354" lon="-3.74009">
        <ele>73.1</ele>
        <time>2017-09-23T08:47:09.000Z</time>
      </trkpt>
      <trkpt lat="48.19354" lon="-3.74007">
        <ele>73.2</ele>
        <time>2017-09-23T08:47:10.000Z</time>
      </trkpt>
      <trkpt lat="48.19355" lon="-3.74006">
        <ele>73.2</ele>
        <time>2017-09-23T08:47:11.000Z</time>
      </trkpt>
      <trkpt lat="48.19355" lon="-3.74005">
        <ele>73.3</ele>
        <time>2017-09-23T08:47:12.000Z</time>
      </trkpt>
      <trkpt lat="48.19355" lon="-3.74003">
        <ele>73.3</ele>
        <time>2017-09-23T08:47:13.000Z</time>
      </trkpt>
      <trkpt lat="48.19355" lon="-3.74002">
        <ele>73.3</ele>
        <time>2017-09-23T08:47:14.000Z</time>
      </trkpt>
      <trkpt lat="48.19355" lon="-3.74">
        <ele>73.3</ele>
        <time>2017-09-23T08:47:15.000Z</time>
      </trkpt>
      <trkpt lat="48.19355" lon="-3.73999">
        <ele>73.4</ele>
        <time>2017-09-23T08:47:16.000Z</time>
      </trkpt>
      <trkpt lat="48.19355" lon="-3.73997">
        <ele>73.4</ele>
        <time>2017-09-23T08:47:17.000Z</time>
      </trkpt>
      <trkpt lat="48.19356" lon="-3.73996">
        <ele>73.5</ele>
        <time>2017-09-23T08:47:18.000Z</time>
      </trkpt>
      <trkpt lat="48.19356" lon="-3.73994">
        <ele>73.5</ele>
        <time>2017-09-23T08:47:19.000Z</time>
      </trkpt>
      <trkpt lat="48.19356" lon="-3.73992">
        <ele>73.6</ele>
        <time>2017-09-23T08:47:20.000Z</time>
      </trkpt>
      <trkpt lat="48.19356" lon="-3.73991">
        <ele>73.6</ele>
        <time>2017-09-23T08:47:21.000Z</time>
      </trkpt>
      <trkpt lat="48.19357" lon="-3.73989">
        <ele>73.7</ele>
        <time>2017-09-23T08:47:22.000Z</time>
      </trkpt>
      <trkpt lat="48.19357" lon="-3.73988">
        <ele>73.8</ele>
        <time>2017-09-23T08:47:23.000Z</time>
      </trkpt>
      <trkpt lat="48.19358" lon="-3.73986">
        <ele>73.8</ele>
        <time>2017-09-23T08:47:24.000Z</time>
      </trkpt>
      <trkpt lat="48.19358" lon="-3.73984">
        <ele>73.9</ele>
        <time>2017-09-23T08:47:25.000Z</time>
      </trkpt>
      <trkpt lat="48.19358" lon="-3.73983">
        <ele>74</ele>
        <time>2017-09-23T08:47:26.000Z</time>
      </trkpt>
      <trkpt lat="48.19359" lon="-3.73981">
        <ele>74</ele>
        <time>2017-09-23T08:47:27.000Z</time>
      </trkpt>
      <trkpt lat="48.19359" lon="-3.73979">
        <ele>74.1</ele>
        <time>2017-09-23T08:47:28.000Z</time>
      </trkpt>
      <trkpt lat="48.19359" lon="-3.73978">
        <ele>74.2</ele>
        <time>2017-09-23T08:47:29.000Z</time>
      </trkpt>
      <trkpt lat="48.1936" lon="-3.73976">
        <ele>74.2</ele>
        <time>2017-09-23T08:47:30.000Z</time>
      </trkpt>
      <trkpt lat="48.1936" lon="-3.73975">
        <ele>74.3</ele>
        <time>2017-09-23T08:47:31.000Z</time>
      </trkpt>
      <trkpt lat="48.1936" lon="-3.73973">
        <ele>74.3</ele>
        <time>2017-09-23T08:47:32.000Z</time>
      </trkpt>
      <trkpt lat="48.19361" lon="-3.73971">
        <ele>74.4</ele>
        <time>2017-09-23T08:47:33.000Z</time>
      </trkpt>
      <trkpt lat="48.19361" lon="-3.7397">
        <ele>74.4</ele>
        <time>2017-09-23T08:47:34.000Z</time>
      </trkpt>
      <trkpt lat="48.19361" lon="-3.73968">
        <ele>74.5</ele>
        <time>2017-09-23T08:47:35.000Z</time>
      </trkpt>
      <trkpt lat="48.19361" lon="-3.73967">
        <ele>74.6</ele>
        <time>2017-09-23T08:47:36.000Z</time>
      </trkpt>
      <trkpt lat="48.19362" lon="-3.73965">
        <ele>74.6</ele>
        <time>2017-09-23T08:47:37.000Z</time>
      </trkpt>
      <trkpt lat="48.19362" lon="-3.73964">
        <ele>74.7</ele>
        <time>2017-09-23T08:47:38.000Z</time>
      </trkpt>
      <trkpt lat="48.19362" lon="-3.73962">
        <ele>74.7</ele>
        <time>2017-09-23T08:47:39.000Z</time>
      </trkpt>
      <trkpt lat="48.19362" lon="-3.7396">
        <ele>74.8</ele>
        <time>2017-09-23T08:47:40.000Z</time>
      </trkpt>
      <trkpt lat="48.19363" lon="-3.73959">
        <ele>74.8</ele>
        <time>2017-09-23T08:47:41.000Z</time>
      </trkpt>
      <trkpt lat="48.19363" lon="-3.73957">
        <ele>74.9</ele>
        <time>2017-09-23T08:47:42.000Z</time>
      </trkpt>
      <trkpt lat="48.19363" lon="-3.73956">
        <ele>75</ele>
        <time>2017-09-23T08:47:43.000Z</time>
      </trkpt>
      <trkpt lat="48.19364" lon="-3.73954">
        <ele>75</ele>
        <time>2017-09-23T08:47:44.000Z</time>
      </trkpt>
      <trkpt lat="48.19364" lon="-3.73953">
        <ele>75.1</ele>
        <time>2017-09-23T08:47:45.000Z</time>
      </trkpt>
      <trkpt lat="48.19364" lon="-3.73952">
        <ele>75.2</ele>
        <time>2017-09-23T08:47:46.000Z</time>
      </trkpt>
      <trkpt lat="48.19365" lon="-3.7395">
        <ele>75.2</ele>
        <time>2017-09-23T08:47:47.000Z</time>
      </trkpt>
      <trkpt lat="48.19365" lon="-3.73949">
        <ele>75.3</ele>
        <time>2017-09-23T08:47:48.000Z</time>
      </trkpt>
      <trkpt lat="48.19366" lon="-3.73947">
        <ele>75.4</ele>
        <time>2017-09-23T08:47:49.000Z</time>
      </trkpt>
      <trkpt lat="48.19367" lon="-3.73946">
        <ele>75.5</ele>
        <time>2017-09-23T08:47:50.000Z</time>
      </trkpt>
      <trkpt lat="48.19367" lon="-3.73945">
        <ele>75.6</ele>
        <time>2017-09-23T08:47:51.000Z</time>
      </trkpt>
      <trkpt lat="48.19368" lon="-3.73943">
        <ele>75.7</ele>
        <time>2017-09-23T08:47:52.000Z</time>
      </trkpt>
      <trkpt lat="48.19368" lon="-3.73942">
        <ele>75.8</ele>
        <time>2017-09-23T08:47:53.000Z</time>
      </trkpt>
      <trkpt lat="48.19369" lon="-3.73941">
        <ele>75.9</ele>
        <time>2017-09-23T08:47:54.000Z</time>
      </trkpt>
      <trkpt lat="48.1937" lon="-3.7394">
        <ele>76</ele>
        <time>2017-09-23T08:47:55.000Z</time>
      </trkpt>
      <trkpt lat="48.19371" lon="-3.73939">
        <ele>76.1</ele>
        <time>2017-09-23T08:47:56.000Z</time>
      </trkpt>
      <trkpt lat="48.19371" lon="-3.73938">
        <ele>76.2</ele>
        <time>2017-09-23T08:47:57.000Z</time>
      </trkpt>
      <trkpt lat="48.19372" lon="-3.73936">
        <ele>76.3</ele>
        <time>2017-09-23T08:47:58.000Z</time>
      </trkpt>
      <trkpt lat="48.19373" lon="-3.73936">
        <ele>76.4</ele>
        <time>2017-09-23T08:47:59.000Z</time>
      </trkpt>
      <trkpt lat="48.19374" lon="-3.73935">
        <ele>76.5</ele>
        <time>2017-09-23T08:48:00.000Z</time>
      </trkpt>
      <trkpt lat="48.19374" lon="-3.73934">
        <ele>76.6</ele>
        <time>2017-09-23T08:48:01.000Z</time>
      </trkpt>
      <trkpt lat="48.19375" lon="-3.73933">
        <ele>76.7</ele>
        <time>2017-09-23T08:48:02.000Z</time>
      </trkpt>
      <trkpt lat="48.19376" lon="-3.73932">
        <ele>76.9</ele>
        <time>2017-09-23T08:48:03.000Z</time>
      </trkpt>
      <trkpt lat="48.19377" lon="-3.73931">
        <ele>77</ele>
        <time>2017-09-23T08:48:04.000Z</time>
      </trkpt>
      <trkpt lat="48.19378" lon="-3.73931">
        <ele>77.1</ele>
        <time>2017-09-23T08:48:05.000Z</time>
      </trkpt>
      <trkpt lat="48.19379" lon="-3.7393">
        <ele>77.2</ele>
        <time>2017-09-23T08:48:06.000Z</time>
      </trkpt>
      <trkpt lat="48.19379" lon="-3.7393">
        <ele>77.3</ele>
        <time>2017-09-23T08:48:07.000Z</time>
      </trkpt>
      <trkpt lat="48.1938" lon="-3.73929">
        <ele>77.4</ele>
        <time>2017-09-23T08:48:08.000Z</time>
      </trkpt>
      <trkpt lat="48.19381" lon="-3.73929">
        <ele>77.5</ele>
        <time>2017-09-23T08:48:09.000Z</time>
      </trkpt>
      <trkpt lat="48.19382" lon="-3.73929">
        <ele>77.6</ele>
        <time>2017-09-23T08:48:10.000Z</time>
      </trkpt>
      <trkpt lat="48.19383" lon="-3.73928">
        <ele>77.7</ele>
        <time>2017-09-23T08:48:11.000Z</time>
      </trkpt>
      <trkpt lat="48.19383" lon="-3.73928">
        <ele>77.8</ele>
        <time>2017-09-23T08:48:12.000Z</time>
      </trkpt>
      <trkpt lat="48.19384" lon="-3.73928">
        <ele>77.9</ele>
        <time>2017-09-23T08:48:13.000Z</time>
      </trkpt>
      <trkpt lat="48.19385" lon="-3.73928">
        <ele>78</ele>
        <time>2017-09-23T08:48:14.000Z</time>
      </trkpt>
      <trkpt lat="48.19386" lon="-3.73928">
        <ele>78.1</ele>
        <time>2017-09-23T08:48:15.000Z</time>
      </trkpt>
      <trkpt lat="48.19387" lon="-3.73927">
        <ele>78.2</ele>
        <time>2017-09-23T08:48:16.000Z</time>
      </trkpt>
      <trkpt lat="48.19388" lon="-3.73927">
        <ele>78.3</ele>
        <time>2017-09-23T08:48:17.000Z</time>
      </trkpt>
      <trkpt lat="48.19389" lon="-3.73927">
        <ele>78.4</ele>
        <time>2017-09-23T08:48:18.000Z</time>
      </trkpt>
      <trkpt lat="48.1939" lon="-3.73927">
        <ele>78.5</ele>
        <time>2017-09-23T08:48:19.000Z</time>
      </trkpt>
      <trkpt lat="48.19391" lon="-3.73927">
        <ele>78.7</ele>
        <time>2017-09-23T08:48:20.000Z</time>
      </trkpt>
      <trkpt lat="48.19392" lon="-3.73926">
        <ele>78.8</ele>
        <time>2017-09-23T08:48:21.000Z</time>
      </trkpt>
      <trkpt lat="48.19393" lon="-3.73926">
        <ele>78.9</ele>
        <time>2017-09-23T08:48:22.000Z</time>
      </trkpt>
      <trkpt lat="48.19394" lon="-3.73926">
        <ele>79</ele>
        <time>2017-09-23T08:48:23.000Z</time>
      </trkpt>
      <trkpt lat="48.19394" lon="-3.73925">
        <ele>79.1</ele>
        <time>2017-09-23T08:48:24.000Z</time>
      </trkpt>
      <trkpt lat="48.19395" lon="-3.73925">
        <ele>79.3</ele>
        <time>2017-09-23T08:48:25.000Z</time>
      </trkpt>
      <trkpt lat="48.19396" lon="-3.73925">
        <ele>79.4</ele>
        <time>2017-09-23T08:48:26.000Z</time>
      </trkpt>
      <trkpt lat="48.19397" lon="-3.73924">
        <ele>79.5</ele>
        <time>2017-09-23T08:48:27.000Z</time>
      </trkpt>
      <trkpt lat="48.19398" lon="-3.73924">
        <ele>79.6</ele>
        <time>2017-09-23T08:48:28.000Z</time>
      </trkpt>
      <trkpt lat="48.19399" lon="-3.73923">
        <ele>79.7</ele>
        <time>2017-09-23T08:48:29.000Z</time>
      </trkpt>
      <trkpt lat="48.194" lon="-3.73923">
        <ele>79.9</ele>
        <time>2017-09-23T08:48:30.000Z</time>
      </trkpt>
      <trkpt lat="48.19401" lon="-3.73923">
        <ele>80</ele>
        <time>2017-09-23T08:48:31.000Z</time>
      </trkpt>
      <trkpt lat="48.19402" lon="-3.73922">
        <ele>80.1</ele>
        <time>2017-09-23T08:48:32.000Z</time>
      </trkpt>
      <trkpt lat="48.19403" lon="-3.73922">
        <ele>80.2</ele>
        <time>2017-09-23T08:48:33.000Z</time>
      </trkpt>
      <trkpt lat="48.19404" lon="-3.73922">
        <ele>80.3</ele>
        <time>2017-09-23T08:48:34.000Z</time>
      </trkpt>
      <trkpt lat="48.19405" lon="-3.73921">
        <ele>80.5</ele>
        <time>2017-09-23T08:48:35.000Z</time>
      </trkpt>
      <trkpt lat="48.19406" lon="-3.73921">
        <ele>80.6</ele>
        <time>2017-09-23T08:48:36.000Z</time>
      </trkpt>
      <trkpt lat="48.19407" lon="-3.73921">
        <ele>80.7</ele>
        <time>2017-09-23T08:48:37.000Z</time>
      </trkpt>
      <trkpt lat="48.19407" lon="-3.73921">
        <ele>80.8</ele>
        <time>2017-09-23T08:48:38.000Z</time>
      </trkpt>
      <trkpt lat="48.19408" lon="-3.73921">
        <ele>80.9</ele>
        <time>2017-09-23T08:48:39.000Z</time>
      </trkpt>
      <trkpt lat="48.19409" lon="-3.73921">
        <ele>81</ele>
        <time>2017-09-23T08:48:40.000Z</time>
      </trkpt>
      <trkpt lat="48.19409" lon="-3.73921">
        <ele>81</ele>
        <time>2017-09-23T08:48:41.000Z</time>
      </trkpt>
      <trkpt lat="48.1941" lon="-3.73921">
        <ele>81.1</ele>
        <time>2017-09-23T08:48:42.000Z</time>
      </trkpt>
      <trkpt lat="48.19411" lon="-3.73921">
        <ele>81.2</ele>
        <time>2017-09-23T08:48:43.000Z</time>
      </trkpt>
      <trkpt lat="48.19413" lon="-3.73921">
        <ele>81.4</ele>
        <time>2017-09-23T08:48:44.000Z</time>
      </trkpt>
      <trkpt lat="48.19414" lon="-3.73921">
        <ele>81.6</ele>
        <time>2017-09-23T08:48:45.000Z</time>
      </trkpt>
      <trkpt lat="48.19415" lon="-3.73921">
        <ele>81.7</ele>
        <time>2017-09-23T08:48:46.000Z</time>
      </trkpt>
      <trkpt lat="48.19416" lon="-3.7392">
        <ele>81.9</ele>
        <time>2017-09-23T08:48:47.000Z</time>
      </trkpt>
      <trkpt lat="48.19417" lon="-3.7392">
        <ele>82</ele>
        <time>2017-09-23T08:48:48.000Z</time>
      </trkpt>
      <trkpt lat="48.19418" lon="-3.7392">
        <ele>82.1</ele>
        <time>2017-09-23T08:48:49.000Z</time>
      </trkpt>
      <trkpt lat="48.19419" lon="-3.7392">
        <ele>82.2</ele>
        <time>2017-09-23T08:48:50.000Z</time>
      </trkpt>
      <trkpt lat="48.1942" lon="-3.73919">
        <ele>82.3</ele>
        <time>2017-09-23T08:48:51.000Z</time>
      </trkpt>
      <trkpt lat="48.19422" lon="-3.73919">
        <ele>82.3</ele>
        <time>2017-09-23T08:48:52.000Z</time>
      </trkpt>
      <trkpt lat="48.19423" lon="-3.73919">
        <ele>82.4</ele>
        <time>2017-09-23T08:48:53.000Z</time>
      </trkpt>
      <trkpt lat="48.19424" lon="-3.73919">
        <ele>82.5</ele>
        <time>2017-09-23T08:48:54.000Z</time>
      </trkpt>
      <trkpt lat="48.19425" lon="-3.73919">
        <ele>82.6</ele>
        <time>2017-09-23T08:48:55.000Z</time>
      </trkpt>
      <trkpt lat="48.19426" lon="-3.73918">
        <ele>82.7</ele>
        <time>2017-09-23T08:48:56.000Z</time>
      </trkpt>
      <trkpt lat="48.19427" lon="-3.73918">
        <ele>82.8</ele>
        <time>2017-09-23T08:48:57.000Z</time>
      </trkpt>
      <trkpt lat="48.19428" lon="-3.73918">
        <ele>82.9</ele>
        <time>2017-09-23T08:48:58.000Z</time>
      </trkpt>
      <trkpt lat="48.19429" lon="-3.73918">
        <ele>83</ele>
        <time>2017-09-23T08:48:59.000Z</time>
      </trkpt>
      <trkpt lat="48.1943" lon="-3.73918">
        <ele>83.1</ele>
        <time>2017-09-23T08:49:00.000Z</time>
      </trkpt>
      <trkpt lat="48.19431" lon="-3.73918">
        <ele>83.2</ele>
        <time>2017-09-23T08:49:01.000Z</time>
      </trkpt>
      <trkpt lat="48.19432" lon="-3.73918">
        <ele>83.2</ele>
        <time>2017-09-23T08:49:02.000Z</time>
      </trkpt>
      <trkpt lat="48.19433" lon="-3.73918">
        <ele>83.3</ele>
        <time>2017-09-23T08:49:03.000Z</time>
      </trkpt>
      <trkpt lat="48.19434" lon="-3.73918">
        <ele>83.4</ele>
        <time>2017-09-23T08:49:04.000Z</time>
      </trkpt>
      <trkpt lat="48.19435" lon="-3.73918">
        <ele>83.5</ele>
        <time>2017-09-23T08:49:05.000Z</time>
      </trkpt>
      <trkpt lat="48.19436" lon="-3.73918">
        <ele>83.6</ele>
        <time>2017-09-23T08:49:06.000Z</time>
      </trkpt>
      <trkpt lat="48.19437" lon="-3.73918">
        <ele>83.7</ele>
        <time>2017-09-23T08:49:07.000Z</time>
      </trkpt>
      <trkpt lat="48.19438" lon="-3.73918">
        <ele>83.7</ele>
        <time>2017-09-23T08:49:08.000Z</time>
      </trkpt>
      <trkpt lat="48.19439" lon="-3.73918">
        <ele>83.8</ele>
        <time>2017-09-23T08:49:09.000Z</time>
      </trkpt>
      <trkpt lat="48.1944" lon="-3.73918">
        <ele>83.9</ele>
        <time>2017-09-23T08:49:10.000Z</time>
      </trkpt>
      <trkpt lat="48.19441" lon="-3.73918">
        <ele>84</ele>
        <time>2017-09-23T08:49:11.000Z</time>
      </trkpt>
      <trkpt lat="48.19442" lon="-3.73918">
        <ele>84.1</ele>
        <time>2017-09-23T08:49:12.000Z</time>
      </trkpt>
      <trkpt lat="48.19443" lon="-3.73918">
        <ele>84.2</ele>
        <time>2017-09-23T08:49:13.000Z</time>
      </trkpt>
      <trkpt lat="48.19444" lon="-3.73919">
        <ele>84.2</ele>
        <time>2017-09-23T08:49:14.000Z</time>
      </trkpt>
      <trkpt lat="48.19445" lon="-3.73919">
        <ele>84.3</ele>
        <time>2017-09-23T08:49:15.000Z</time>
      </trkpt>
      <trkpt lat="48.19446" lon="-3.73919">
        <ele>84.4</ele>
        <time>2017-09-23T08:49:16.000Z</time>
      </trkpt>
      <trkpt lat="48.19447" lon="-3.73919">
        <ele>84.5</ele>
        <time>2017-09-23T08:49:17.000Z</time>
      </trkpt>
      <trkpt lat="48.19448" lon="-3.73919">
        <ele>84.6</ele>
        <time>2017-09-23T08:49:18.000Z</time>
      </trkpt>
      <trkpt lat="48.19449" lon="-3.73919">
        <ele>84.6</ele>
        <time>2017-09-23T08:49:19.000Z</time>
      </trkpt>
      <trkpt lat="48.1945" lon="-3.73919">
        <ele>84.7</ele>
        <time>2017-09-23T08:49:20.000Z</time>
      </trkpt>
      <trkpt lat="48.19451" lon="-3.73919">
        <ele>84.8</ele>
        <time>2017-09-23T08:49:21.000Z</time>
      </trkpt>
      <trkpt lat="48.19452" lon="-3.73919">
        <ele>84.9</ele>
        <time>2017-09-23T08:49:22.000Z</time>
      </trkpt>
      <trkpt lat="48.19453" lon="-3.7392">
        <ele>84.9</ele>
        <time>2017-09-23T08:49:23.000Z</time>
      </trkpt>
      <trkpt lat="48.19454" lon="-3.7392">
        <ele>85</ele>
        <time>2017-09-23T08:49:24.000Z</time>
      </trkpt>
      <trkpt lat="48.19455" lon="-3.7392">
        <ele>85.1</ele>
        <time>2017-09-23T08:49:25.000Z</time>
      </trkpt>
      <trkpt lat="48.19456" lon="-3.7392">
        <ele>85.2</ele>
        <time>2017-09-23T08:49:26.000Z</time>
      </trkpt>
      <trkpt lat="48.19457" lon="-3.7392">
        <ele>85.2</ele>
        <time>2017-09-23T08:49:27.000Z</time>
      </trkpt>
      <trkpt lat="48.19457" lon="-3.7392">
        <ele>85.3</ele>
        <time>2017-09-23T08:49:28.000Z</time>
      </trkpt>
      <trkpt lat="48.19458" lon="-3.7392">
        <ele>85.4</ele>
        <time>2017-09-23T08:49:29.000Z</time>
      </trkpt>
      <trkpt lat="48.19459" lon="-3.7392">
        <ele>85.5</ele>
        <time>2017-09-23T08:49:30.000Z</time>
      </trkpt>
      <trkpt lat="48.1946" lon="-3.7392">
        <ele>85.5</ele>
        <time>2017-09-23T08:49:31.000Z</time>
      </trkpt>
      <trkpt lat="48.19461" lon="-3.7392">
        <ele>85.6</ele>
        <time>2017-09-23T08:49:32.000Z</time>
      </trkpt>
      <trkpt lat="48.19462" lon="-3.7392">
        <ele>85.7</ele>
        <time>2017-09-23T08:49:33.000Z</time>
      </trkpt>
      <trkpt lat="48.19463" lon="-3.73921">
        <ele>85.8</ele>
        <time>2017-09-23T08:49:34.000Z</time>
      </trkpt>
      <trkpt lat="48.19464" lon="-3.73921">
        <ele>85.9</ele>
        <time>2017-09-23T08:49:35.000Z</time>
      </trkpt>
      <trkpt lat="48.19465" lon="-3.73921">
        <ele>85.9</ele>
        <time>2017-09-23T08:49:36.000Z</time>
      </trkpt>
      <trkpt lat="48.19466" lon="-3.73921">
        <ele>86</ele>
        <time>2017-09-23T08:49:37.000Z</time>
      </trkpt>
      <trkpt lat="48.19467" lon="-3.73921">
        <ele>86.1</ele>
        <time>2017-09-23T08:49:38.000Z</time>
      </trkpt>
      <trkpt lat="48.19468" lon="-3.73921">
        <ele>86.2</ele>
        <time>2017-09-23T08:49:39.000Z</time>
      </trkpt>
      <trkpt lat="48.19469" lon="-3.73921">
        <ele>86.2</ele>
        <time>2017-09-23T08:49:40.000Z</time>
      </trkpt>
      <trkpt lat="48.1947" lon="-3.73921">
        <ele>86.3</ele>
        <time>2017-09-23T08:49:41.000Z</time>
      </trkpt>
      <trkpt lat="48.19471" lon="-3.73921">
        <ele>86.4</ele>
        <time>2017-09-23T08:49:42.000Z</time>
      </trkpt>
      <trkpt lat="48.19472" lon="-3.73921">
        <ele>86.5</ele>
        <time>2017-09-23T08:49:43.000Z</time>
      </trkpt>
      <trkpt lat="48.19473" lon="-3.73921">
        <ele>86.6</ele>
        <time>2017-09-23T08:49:44.000Z</time>
      </trkpt>
      <trkpt lat="48.19474" lon="-3.73921">
        <ele>86.6</ele>
        <time>2017-09-23T08:49:45.000Z</time>
      </trkpt>
      <trkpt lat="48.19475" lon="-3.73922">
        <ele>86.7</ele>
        <time>2017-09-23T08:49:46.000Z</time>
      </trkpt>
      <trkpt lat="48.19476" lon="-3.73922">
        <ele>86.8</ele>
        <time>2017-09-23T08:49:47.000Z</time>
      </trkpt>
      <trkpt lat="48.19477" lon="-3.73922">
        <ele>86.9</ele>
        <time>2017-09-23T08:49:48.000Z</time>
      </trkpt>
      <trkpt lat="48.19478" lon="-3.73922">
        <ele>87</ele>
        <time>2017-09-23T08:49:49.000Z</time>
      </trkpt>
      <trkpt lat="48.19479" lon="-3.73922">
        <ele>87</ele>
        <time>2017-09-23T08:49:50.000Z</time>
      </trkpt>
      <trkpt lat="48.1948" lon="-3.73923">
        <ele>87.1</ele>
        <time>2017-09-23T08:49:51.000Z</time>
      </trkpt>
      <trkpt lat="48.19481" lon="-3.73923">
        <ele>87.1</ele>
        <time>2017-09-23T08:49:52.000Z</time>
      </trkpt>
      <trkpt lat="48.19481" lon="-3.73924">
        <ele>87.2</ele>
        <time>2017-09-23T08:49:53.000Z</time>
      </trkpt>
      <trkpt lat="48.19482" lon="-3.73925">
        <ele>87.2</ele>
        <time>2017-09-23T08:49:54.000Z</time>
      </trkpt>
      <trkpt lat="48.19483" lon="-3.73926">
        <ele>87.2</ele>
        <time>2017-09-23T08:49:55.000Z</time>
      </trkpt>
      <trkpt lat="48.19484" lon="-3.73927">
        <ele>87.3</ele>
        <time>2017-09-23T08:49:56.000Z</time>
      </trkpt>
      <trkpt lat="48.19484" lon="-3.73928">
        <ele>87.3</ele>
        <time>2017-09-23T08:49:57.000Z</time>
      </trkpt>
      <trkpt lat="48.19485" lon="-3.73929">
        <ele>87.3</ele>
        <time>2017-09-23T08:49:58.000Z</time>
      </trkpt>
      <trkpt lat="48.19486" lon="-3.73929">
        <ele>87.4</ele>
        <time>2017-09-23T08:49:59.000Z</time>
      </trkpt>
      <trkpt lat="48.19487" lon="-3.7393">
        <ele>87.5</ele>
        <time>2017-09-23T08:50:00.000Z</time>
      </trkpt>
      <trkpt lat="48.19488" lon="-3.7393">
        <ele>87.6</ele>
        <time>2017-09-23T08:50:01.000Z</time>
      </trkpt>
      <trkpt lat="48.19489" lon="-3.7393">
        <ele>87.6</ele>
        <time>2017-09-23T08:50:02.000Z</time>
      </trkpt>
      <trkpt lat="48.1949" lon="-3.7393">
        <ele>87.7</ele>
        <time>2017-09-23T08:50:03.000Z</time>
      </trkpt>
      <trkpt lat="48.19491" lon="-3.7393">
        <ele>87.8</ele>
        <time>2017-09-23T08:50:04.000Z</time>
      </trkpt>
      <trkpt lat="48.19492" lon="-3.73931">
        <ele>87.8</ele>
        <time>2017-09-23T08:50:05.000Z</time>
      </trkpt>
      <trkpt lat="48.19493" lon="-3.73931">
        <ele>87.9</ele>
        <time>2017-09-23T08:50:06.000Z</time>
      </trkpt>
      <trkpt lat="48.19494" lon="-3.73931">
        <ele>88</ele>
        <time>2017-09-23T08:50:07.000Z</time>
      </trkpt>
      <trkpt lat="48.19495" lon="-3.73931">
        <ele>88.1</ele>
        <time>2017-09-23T08:50:08.000Z</time>
      </trkpt>
      <trkpt lat="48.19496" lon="-3.73932">
        <ele>88.1</ele>
        <time>2017-09-23T08:50:09.000Z</time>
      </trkpt>
      <trkpt lat="48.19497" lon="-3.73932">
        <ele>88.2</ele>
        <time>2017-09-23T08:50:10.000Z</time>
      </trkpt>
      <trkpt lat="48.19497" lon="-3.73932">
        <ele>88.2</ele>
        <time>2017-09-23T08:50:11.000Z</time>
      </trkpt>
      <trkpt lat="48.19498" lon="-3.73932">
        <ele>88.2</ele>
        <time>2017-09-23T08:50:12.000Z</time>
      </trkpt>
      <trkpt lat="48.19498" lon="-3.73933">
        <ele>88.2</ele>
        <time>2017-09-23T08:50:13.000Z</time>
      </trkpt>
      <trkpt lat="48.19498" lon="-3.73933">
        <ele>88.2</ele>
        <time>2017-09-23T08:50:14.000Z</time>
      </trkpt>
      <trkpt lat="48.19498" lon="-3.73933">
        <ele>88.3</ele>
        <time>2017-09-23T08:50:15.000Z</time>
      </trkpt>
      <trkpt lat="48.19499" lon="-3.73933">
        <ele>88.3</ele>
        <time>2017-09-23T08:50:16.000Z</time>
      </trkpt>
      <trkpt lat="48.19501" lon="-3.73934">
        <ele>88.4</ele>
        <time>2017-09-23T08:50:17.000Z</time>
      </trkpt>
      <trkpt lat="48.19502" lon="-3.73935">
        <ele>88.4</ele>
        <time>2017-09-23T08:50:18.000Z</time>
      </trkpt>
      <trkpt lat="48.19503" lon="-3.73935">
        <ele>88.5</ele>
        <time>2017-09-23T08:50:19.000Z</time>
      </trkpt>
      <trkpt lat="48.19504" lon="-3.73936">
        <ele>88.5</ele>
        <time>2017-09-23T08:50:20.000Z</time>
      </trkpt>
      <trkpt lat="48.19505" lon="-3.73936">
        <ele>88.5</ele>
        <time>2017-09-23T08:50:21.000Z</time>
      </trkpt>
      <trkpt lat="48.19507" lon="-3.73937">
        <ele>88.5</ele>
        <time>2017-09-23T08:50:22.000Z</time>
      </trkpt>
      <trkpt lat="48.19508" lon="-3.73938">
        <ele>88.6</ele>
        <time>2017-09-23T08:50:23.000Z</time>
      </trkpt>
      <trkpt lat="48.19509" lon="-3.73938">
        <ele>88.6</ele>
        <time>2017-09-23T08:50:24.000Z</time>
      </trkpt>
      <trkpt lat="48.1951" lon="-3.73939">
        <ele>88.6</ele>
        <time>2017-09-23T08:50:25.000Z</time>
      </trkpt>
      <trkpt lat="48.19511" lon="-3.7394">
        <ele>88.6</ele>
        <time>2017-09-23T08:50:26.000Z</time>
      </trkpt>
      <trkpt lat="48.19512" lon="-3.7394">
        <ele>88.7</ele>
        <time>2017-09-23T08:50:27.000Z</time>
      </trkpt>
      <trkpt lat="48.19513" lon="-3.73941">
        <ele>88.7</ele>
        <time>2017-09-23T08:50:28.000Z</time>
      </trkpt>
      <trkpt lat="48.19514" lon="-3.73942">
        <ele>88.7</ele>
        <time>2017-09-23T08:50:29.000Z</time>
      </trkpt>
      <trkpt lat="48.19516" lon="-3.73942">
        <ele>88.7</ele>
        <time>2017-09-23T08:50:30.000Z</time>
      </trkpt>
      <trkpt lat="48.19517" lon="-3.73943">
        <ele>88.8</ele>
        <time>2017-09-23T08:50:31.000Z</time>
      </trkpt>
      <trkpt lat="48.19518" lon="-3.73943">
        <ele>88.8</ele>
        <time>2017-09-23T08:50:32.000Z</time>
      </trkpt>
      <trkpt lat="48.19519" lon="-3.73944">
        <ele>88.8</ele>
        <time>2017-09-23T08:50:33.000Z</time>
      </trkpt>
      <trkpt lat="48.1952" lon="-3.73945">
        <ele>88.9</ele>
        <time>2017-09-23T08:50:34.000Z</time>
      </trkpt>
      <trkpt lat="48.19521" lon="-3.73945">
        <ele>88.9</ele>
        <time>2017-09-23T08:50:35.000Z</time>
      </trkpt>
      <trkpt lat="48.19523" lon="-3.73946">
        <ele>89</ele>
        <time>2017-09-23T08:50:36.000Z</time>
      </trkpt>
      <trkpt lat="48.19524" lon="-3.73946">
        <ele>89</ele>
        <time>2017-09-23T08:50:37.000Z</time>
      </trkpt>
      <trkpt lat="48.19525" lon="-3.73947">
        <ele>89</ele>
        <time>2017-09-23T08:50:38.000Z</time>
      </trkpt>
      <trkpt lat="48.19526" lon="-3.73947">
        <ele>89.1</ele>
        <time>2017-09-23T08:50:39.000Z</time>
      </trkpt>
      <trkpt lat="48.19527" lon="-3.73948">
        <ele>89.1</ele>
        <time>2017-09-23T08:50:40.000Z</time>
      </trkpt>
      <trkpt lat="48.19528" lon="-3.73948">
        <ele>89.1</ele>
        <time>2017-09-23T08:50:41.000Z</time>
      </trkpt>
      <trkpt lat="48.1953" lon="-3.73949">
        <ele>89.2</ele>
        <time>2017-09-23T08:50:42.000Z</time>
      </trkpt>
      <trkpt lat="48.19531" lon="-3.7395">
        <ele>89.2</ele>
        <time>2017-09-23T08:50:43.000Z</time>
      </trkpt>
      <trkpt lat="48.19532" lon="-3.7395">
        <ele>89.3</ele>
        <time>2017-09-23T08:50:44.000Z</time>
      </trkpt>
      <trkpt lat="48.19533" lon="-3.73951">
        <ele>89.3</ele>
        <time>2017-09-23T08:50:45.000Z</time>
      </trkpt>
      <trkpt lat="48.19534" lon="-3.73951">
        <ele>89.3</ele>
        <time>2017-09-23T08:50:46.000Z</time>
      </trkpt>
      <trkpt lat="48.19535" lon="-3.73952">
        <ele>89.4</ele>
        <time>2017-09-23T08:50:47.000Z</time>
      </trkpt>
      <trkpt lat="48.19537" lon="-3.73952">
        <ele>89.4</ele>
        <time>2017-09-23T08:50:48.000Z</time>
      </trkpt>
      <trkpt lat="48.19538" lon="-3.73953">
        <ele>89.5</ele>
        <time>2017-09-23T08:50:49.000Z</time>
      </trkpt>
      <trkpt lat="48.19539" lon="-3.73953">
        <ele>89.5</ele>
        <time>2017-09-23T08:50:50.000Z</time>
      </trkpt>
      <trkpt lat="48.1954" lon="-3.73954">
        <ele>89.5</ele>
        <time>2017-09-23T08:50:51.000Z</time>
      </trkpt>
      <trkpt lat="48.19541" lon="-3.73955">
        <ele>89.6</ele>
        <time>2017-09-23T08:50:52.000Z</time>
      </trkpt>
      <trkpt lat="48.19542" lon="-3.73955">
        <ele>89.6</ele>
        <time>2017-09-23T08:50:53.000Z</time>
      </trkpt>
      <trkpt lat="48.19544" lon="-3.73956">
        <ele>89.7</ele>
        <time>2017-09-23T08:50:54.000Z</time>
      </trkpt>
      <trkpt lat="48.19545" lon="-3.73956">
        <ele>89.7</ele>
        <time>2017-09-23T08:50:55.000Z</time>
      </trkpt>
      <trkpt lat="48.19546" lon="-3.73957">
        <ele>89.7</ele>
        <time>2017-09-23T08:50:56.000Z</time>
      </trkpt>
      <trkpt lat="48.19547" lon="-3.73957">
        <ele>89.8</ele>
        <time>2017-09-23T08:50:57.000Z</time>
      </trkpt>
      <trkpt lat="48.19548" lon="-3.73958">
        <ele>89.8</ele>
        <time>2017-09-23T08:50:58.000Z</time>
      </trkpt>
      <trkpt lat="48.19549" lon="-3.73958">
        <ele>89.9</ele>
        <time>2017-09-23T08:50:59.000Z</time>
      </trkpt>
      <trkpt lat="48.1955" lon="-3.73959">
        <ele>89.9</ele>
        <time>2017-09-23T08:51:00.000Z</time>
      </trkpt>
      <trkpt lat="48.19552" lon="-3.73959">
        <ele>90</ele>
        <time>2017-09-23T08:51:01.000Z</time>
      </trkpt>
      <trkpt lat="48.19553" lon="-3.7396">
        <ele>90</ele>
        <time>2017-09-23T08:51:02.000Z</time>
      </trkpt>
      <trkpt lat="48.19554" lon="-3.73961">
        <ele>90</ele>
        <time>2017-09-23T08:51:03.000Z</time>
      </trkpt>
      <trkpt lat="48.19555" lon="-3.73961">
        <ele>90.1</ele>
        <time>2017-09-23T08:51:04.000Z</time>
      </trkpt>
      <trkpt lat="48.19556" lon="-3.73961">
        <ele>90.1</ele>
        <time>2017-09-23T08:51:05.000Z</time>
      </trkpt>
      <trkpt lat="48.19557" lon="-3.73962">
        <ele>90.2</ele>
        <time>2017-09-23T08:51:06.000Z</time>
      </trkpt>
      <trkpt lat="48.19559" lon="-3.73962">
        <ele>90.2</ele>
        <time>2017-09-23T08:51:07.000Z</time>
      </trkpt>
      <trkpt lat="48.1956" lon="-3.73963">
        <ele>90.3</ele>
        <time>2017-09-23T08:51:08.000Z</time>
      </trkpt>
      <trkpt lat="48.19561" lon="-3.73963">
        <ele>90.3</ele>
        <time>2017-09-23T08:51:09.000Z</time>
      </trkpt>
      <trkpt lat="48.19562" lon="-3.73964">
        <ele>90.4</ele>
        <time>2017-09-23T08:51:10.000Z</time>
      </trkpt>
      <trkpt lat="48.19563" lon="-3.73964">
        <ele>90.4</ele>
        <time>2017-09-23T08:51:11.000Z</time>
      </trkpt>
      <trkpt lat="48.19564" lon="-3.73965">
        <ele>90.5</ele>
        <time>2017-09-23T08:51:12.000Z</time>
      </trkpt>
      <trkpt lat="48.19565" lon="-3.73965">
        <ele>90.5</ele>
        <time>2017-09-23T08:51:13.000Z</time>
      </trkpt>
      <trkpt lat="48.19567" lon="-3.73965">
        <ele>90.6</ele>
        <time>2017-09-23T08:51:14.000Z</time>
      </trkpt>
      <trkpt lat="48.19568" lon="-3.73966">
        <ele>90.6</ele>
        <time>2017-09-23T08:51:15.000Z</time>
      </trkpt>
      <trkpt lat="48.19569" lon="-3.73966">
        <ele>90.7</ele>
        <time>2017-09-23T08:51:16.000Z</time>
      </trkpt>
      <trkpt lat="48.1957" lon="-3.73967">
        <ele>90.7</ele>
        <time>2017-09-23T08:51:17.000Z</time>
      </trkpt>
      <trkpt lat="48.19571" lon="-3.73967">
        <ele>90.8</ele>
        <time>2017-09-23T08:51:18.000Z</time>
      </trkpt>
      <trkpt lat="48.19572" lon="-3.73968">
        <ele>90.8</ele>
        <time>2017-09-23T08:51:19.000Z</time>
      </trkpt>
      <trkpt lat="48.19573" lon="-3.73968">
        <ele>90.9</ele>
        <time>2017-09-23T08:51:20.000Z</time>
      </trkpt>
      <trkpt lat="48.19574" lon="-3.73969">
        <ele>90.9</ele>
        <time>2017-09-23T08:51:21.000Z</time>
      </trkpt>
      <trkpt lat="48.19575" lon="-3.73969">
        <ele>91</ele>
        <time>2017-09-23T08:51:22.000Z</time>
      </trkpt>
      <trkpt lat="48.19576" lon="-3.7397">
        <ele>91</ele>
        <time>2017-09-23T08:51:23.000Z</time>
      </trkpt>
      <trkpt lat="48.19577" lon="-3.7397">
        <ele>91.1</ele>
        <time>2017-09-23T08:51:24.000Z</time>
      </trkpt>
      <trkpt lat="48.19579" lon="-3.7397">
        <ele>91.1</ele>
        <time>2017-09-23T08:51:25.000Z</time>
      </trkpt>
      <trkpt lat="48.1958" lon="-3.73971">
        <ele>91.2</ele>
        <time>2017-09-23T08:51:26.000Z</time>
      </trkpt>
      <trkpt lat="48.19581" lon="-3.73971">
        <ele>91.2</ele>
        <time>2017-09-23T08:51:27.000Z</time>
      </trkpt>
      <trkpt lat="48.19582" lon="-3.73971">
        <ele>91.3</ele>
        <time>2017-09-23T08:51:28.000Z</time>
      </trkpt>
      <trkpt lat="48.19583" lon="-3.73972">
        <ele>91.3</ele>
        <time>2017-09-23T08:51:29.000Z</time>
      </trkpt>
      <trkpt lat="48.19584" lon="-3.73972">
        <ele>91.4</ele>
        <time>2017-09-23T08:51:30.000Z</time>
      </trkpt>
      <trkpt lat="48.19585" lon="-3.73972">
        <ele>91.5</ele>
        <time>2017-09-23T08:51:31.000Z</time>
      </trkpt>
      <trkpt lat="48.19587" lon="-3.73972">
        <ele>91.6</ele>
        <time>2017-09-23T08:51:32.000Z</time>
      </trkpt>
      <trkpt lat="48.19588" lon="-3.73972">
        <ele>91.6</ele>
        <time>2017-09-23T08:51:33.000Z</time>
      </trkpt>
      <trkpt lat="48.19589" lon="-3.73973">
        <ele>91.7</ele>
        <time>2017-09-23T08:51:34.000Z</time>
      </trkpt>
      <trkpt lat="48.1959" lon="-3.73973">
        <ele>91.8</ele>
        <time>2017-09-23T08:51:35.000Z</time>
      </trkpt>
      <trkpt lat="48.19592" lon="-3.73973">
        <ele>91.9</ele>
        <time>2017-09-23T08:51:36.000Z</time>
      </trkpt>
      <trkpt lat="48.19593" lon="-3.73973">
        <ele>92</ele>
        <time>2017-09-23T08:51:37.000Z</time>
      </trkpt>
      <trkpt lat="48.19594" lon="-3.73973">
        <ele>92.1</ele>
        <time>2017-09-23T08:51:38.000Z</time>
      </trkpt>
      <trkpt lat="48.19595" lon="-3.73973">
        <ele>92.1</ele>
        <time>2017-09-23T08:51:39.000Z</time>
      </trkpt>
      <trkpt lat="48.19597" lon="-3.73973">
        <ele>92.2</ele>
        <time>2017-09-23T08:51:40.000Z</time>
      </trkpt>
      <trkpt lat="48.19598" lon="-3.73973">
        <ele>92.3</ele>
        <time>2017-09-23T08:51:41.000Z</time>
      </trkpt>
      <trkpt lat="48.19599" lon="-3.73973">
        <ele>92.4</ele>
        <time>2017-09-23T08:51:42.000Z</time>
      </trkpt>
      <trkpt lat="48.19601" lon="-3.73974">
        <ele>92.5</ele>
        <time>2017-09-23T08:51:43.000Z</time>
      </trkpt>
      <trkpt lat="48.19602" lon="-3.73974">
        <ele>92.6</ele>
        <time>2017-09-23T08:51:44.000Z</time>
      </trkpt>
      <trkpt lat="48.19603" lon="-3.73974">
        <ele>92.7</ele>
        <time>2017-09-23T08:51:45.000Z</time>
      </trkpt>
      <trkpt lat="48.19604" lon="-3.73974">
        <ele>92.7</ele>
        <time>2017-09-23T08:51:46.000Z</time>
      </trkpt>
      <trkpt lat="48.19606" lon="-3.73974">
        <ele>92.8</ele>
        <time>2017-09-23T08:51:47.000Z</time>
      </trkpt>
      <trkpt lat="48.19607" lon="-3.73974">
        <ele>92.9</ele>
        <time>2017-09-23T08:51:48.000Z</time>
      </trkpt>
      <trkpt lat="48.19608" lon="-3.73974">
        <ele>93</ele>
        <time>2017-09-23T08:51:49.000Z</time>
      </trkpt>
      <trkpt lat="48.19609" lon="-3.73975">
        <ele>93.1</ele>
        <time>2017-09-23T08:51:50.000Z</time>
      </trkpt>
      <trkpt lat="48.19611" lon="-3.73975">
        <ele>93.2</ele>
        <time>2017-09-23T08:51:51.000Z</time>
      </trkpt>
      <trkpt lat="48.19612" lon="-3.73975">
        <ele>93.3</ele>
        <time>2017-09-23T08:51:52.000Z</time>
      </trkpt>
      <trkpt lat="48.19613" lon="-3.73975">
        <ele>93.3</ele>
        <time>2017-09-23T08:51:53.000Z</time>
      </trkpt>
      <trkpt lat="48.19614" lon="-3.73975">
        <ele>93.4</ele>
        <time>2017-09-23T08:51:54.000Z</time>
      </trkpt>
      <trkpt lat="48.19616" lon="-3.73975">
        <ele>93.5</ele>
        <time>2017-09-23T08:51:55.000Z</time>
      </trkpt>
      <trkpt lat="48.19617" lon="-3.73976">
        <ele>93.6</ele>
        <time>2017-09-23T08:51:56.000Z</time>
      </trkpt>
      <trkpt lat="48.19618" lon="-3.73976">
        <ele>93.7</ele>
        <time>2017-09-23T08:51:57.000Z</time>
      </trkpt>
      <trkpt lat="48.1962" lon="-3.73976">
        <ele>93.8</ele>
        <time>2017-09-23T08:51:58.000Z</time>
      </trkpt>
      <trkpt lat="48.19621" lon="-3.73976">
        <ele>93.9</ele>
        <time>2017-09-23T08:51:59.000Z</time>
      </trkpt>
      <trkpt lat="48.19622" lon="-3.73976">
        <ele>94</ele>
        <time>2017-09-23T08:52:00.000Z</time>
      </trkpt>
      <trkpt lat="48.19624" lon="-3.73976">
        <ele>94.1</ele>
        <time>2017-09-23T08:52:01.000Z</time>
      </trkpt>
      <trkpt lat="48.19625" lon="-3.73976">
        <ele>94.1</ele>
        <time>2017-09-23T08:52:02.000Z</time>
      </trkpt>
      <trkpt lat="48.19626" lon="-3.73976">
        <ele>94.2</ele>
        <time>2017-09-23T08:52:03.000Z</time>
      </trkpt>
      <trkpt lat="48.19628" lon="-3.73976">
        <ele>94.3</ele>
        <time>2017-09-23T08:52:04.000Z</time>
      </trkpt>
      <trkpt lat="48.19629" lon="-3.73976">
        <ele>94.4</ele>
        <time>2017-09-23T08:52:05.000Z</time>
      </trkpt>
      <trkpt lat="48.1963" lon="-3.73976">
        <ele>94.5</ele>
        <time>2017-09-23T08:52:06.000Z</time>
      </trkpt>
      <trkpt lat="48.19631" lon="-3.73976">
        <ele>94.6</ele>
        <time>2017-09-23T08:52:07.000Z</time>
      </trkpt>
      <trkpt lat="48.19633" lon="-3.73976">
        <ele>94.7</ele>
        <time>2017-09-23T08:52:08.000Z</time>
      </trkpt>
      <trkpt lat="48.19634" lon="-3.73976">
        <ele>94.7</ele>
        <time>2017-09-23T08:52:09.000Z</time>
      </trkpt>
      <trkpt lat="48.19635" lon="-3.73976">
        <ele>94.8</ele>
        <time>2017-09-23T08:52:10.000Z</time>
      </trkpt>
      <trkpt lat="48.19636" lon="-3.73976">
        <ele>94.9</ele>
        <time>2017-09-23T08:52:11.000Z</time>
      </trkpt>
      <trkpt lat="48.19637" lon="-3.73976">
        <ele>95</ele>
        <time>2017-09-23T08:52:12.000Z</time>
      </trkpt>
      <trkpt lat="48.19639" lon="-3.73976">
        <ele>95.1</ele>
        <time>2017-09-23T08:52:13.000Z</time>
      </trkpt>
      <trkpt lat="48.1964" lon="-3.73976">
        <ele>95.1</ele>
        <time>2017-09-23T08:52:14.000Z</time>
      </trkpt>
      <trkpt lat="48.19641" lon="-3.73976">
        <ele>95.2</ele>
        <time>2017-09-23T08:52:15.000Z</time>
      </trkpt>
      <trkpt lat="48.19642" lon="-3.73976">
        <ele>95.3</ele>
        <time>2017-09-23T08:52:16.000Z</time>
      </trkpt>
      <trkpt lat="48.19643" lon="-3.73976">
        <ele>95.4</ele>
        <time>2017-09-23T08:52:17.000Z</time>
      </trkpt>
      <trkpt lat="48.19644" lon="-3.73976">
        <ele>95.5</ele>
        <time>2017-09-23T08:52:18.000Z</time>
      </trkpt>
      <trkpt lat="48.19645" lon="-3.73976">
        <ele>95.5</ele>
        <time>2017-09-23T08:52:19.000Z</time>
      </trkpt>
      <trkpt lat="48.19646" lon="-3.73976">
        <ele>95.6</ele>
        <time>2017-09-23T08:52:20.000Z</time>
      </trkpt>
      <trkpt lat="48.19648" lon="-3.73976">
        <ele>95.7</ele>
        <time>2017-09-23T08:52:21.000Z</time>
      </trkpt>
      <trkpt lat="48.19649" lon="-3.73976">
        <ele>95.8</ele>
        <time>2017-09-23T08:52:22.000Z</time>
      </trkpt>
      <trkpt lat="48.1965" lon="-3.73976">
        <ele>95.9</ele>
        <time>2017-09-23T08:52:23.000Z</time>
      </trkpt>
      <trkpt lat="48.19651" lon="-3.73976">
        <ele>95.9</ele>
        <time>2017-09-23T08:52:24.000Z</time>
      </trkpt>
      <trkpt lat="48.19652" lon="-3.73976">
        <ele>96</ele>
        <time>2017-09-23T08:52:25.000Z</time>
      </trkpt>
      <trkpt lat="48.19654" lon="-3.73976">
        <ele>96.1</ele>
        <time>2017-09-23T08:52:26.000Z</time>
      </trkpt>
      <trkpt lat="48.19655" lon="-3.73976">
        <ele>96.2</ele>
        <time>2017-09-23T08:52:27.000Z</time>
      </trkpt>
      <trkpt lat="48.19656" lon="-3.73976">
        <ele>96.3</ele>
        <time>2017-09-23T08:52:28.000Z</time>
      </trkpt>
      <trkpt lat="48.19657" lon="-3.73976">
        <ele>96.4</ele>
        <time>2017-09-23T08:52:29.000Z</time>
      </trkpt>
      <trkpt lat="48.19659" lon="-3.73976">
        <ele>96.4</ele>
        <time>2017-09-23T08:52:30.000Z</time>
      </trkpt>
      <trkpt lat="48.1966" lon="-3.73976">
        <ele>96.5</ele>
        <time>2017-09-23T08:52:31.000Z</time>
      </trkpt>
      <trkpt lat="48.19661" lon="-3.73976">
        <ele>96.6</ele>
        <time>2017-09-23T08:52:32.000Z</time>
      </trkpt>
      <trkpt lat="48.19662" lon="-3.73976">
        <ele>96.7</ele>
        <time>2017-09-23T08:52:33.000Z</time>
      </trkpt>
      <trkpt lat="48.19664" lon="-3.73976">
        <ele>96.8</ele>
        <time>2017-09-23T08:52:34.000Z</time>
      </trkpt>
      <trkpt lat="48.19665" lon="-3.73976">
        <ele>96.9</ele>
        <time>2017-09-23T08:52:35.000Z</time>
      </trkpt>
      <trkpt lat="48.19666" lon="-3.73976">
        <ele>97</ele>
        <time>2017-09-23T08:52:36.000Z</time>
      </trkpt>
      <trkpt lat="48.19667" lon="-3.73976">
        <ele>97</ele>
        <time>2017-09-23T08:52:37.000Z</time>
      </trkpt>
      <trkpt lat="48.19668" lon="-3.73975">
        <ele>97.1</ele>
        <time>2017-09-23T08:52:38.000Z</time>
      </trkpt>
      <trkpt lat="48.19669" lon="-3.73975">
        <ele>97.1</ele>
        <time>2017-09-23T08:52:39.000Z</time>
      </trkpt>
      <trkpt lat="48.1967" lon="-3.73975">
        <ele>97.2</ele>
        <time>2017-09-23T08:52:40.000Z</time>
      </trkpt>
      <trkpt lat="48.19671" lon="-3.73975">
        <ele>97.2</ele>
        <time>2017-09-23T08:52:41.000Z</time>
      </trkpt>
      <trkpt lat="48.19672" lon="-3.73975">
        <ele>97.3</ele>
        <time>2017-09-23T08:52:42.000Z</time>
      </trkpt>
      <trkpt lat="48.19673" lon="-3.73975">
        <ele>97.3</ele>
        <time>2017-09-23T08:52:43.000Z</time>
      </trkpt>
      <trkpt lat="48.19674" lon="-3.73975">
        <ele>97.3</ele>
        <time>2017-09-23T08:52:44.000Z</time>
      </trkpt>
      <trkpt lat="48.19675" lon="-3.73975">
        <ele>97.4</ele>
        <time>2017-09-23T08:52:45.000Z</time>
      </trkpt>
      <trkpt lat="48.19675" lon="-3.73975">
        <ele>97.4</ele>
        <time>2017-09-23T08:52:46.000Z</time>
      </trkpt>
      <trkpt lat="48.19676" lon="-3.73975">
        <ele>97.4</ele>
        <time>2017-09-23T08:52:47.000Z</time>
      </trkpt>
      <trkpt lat="48.19677" lon="-3.73975">
        <ele>97.4</ele>
        <time>2017-09-23T08:52:48.000Z</time>
      </trkpt>
      <trkpt lat="48.19677" lon="-3.73976">
        <ele>97.5</ele>
        <time>2017-09-23T08:52:49.000Z</time>
      </trkpt>
      <trkpt lat="48.19677" lon="-3.73976">
        <ele>97.5</ele>
        <time>2017-09-23T08:52:50.000Z</time>
      </trkpt>
      <trkpt lat="48.19677" lon="-3.73976">
        <ele>97.5</ele>
        <time>2017-09-23T08:52:51.000Z</time>
      </trkpt>
      <trkpt lat="48.19677" lon="-3.73976">
        <ele>97.5</ele>
        <time>2017-09-23T08:52:52.000Z</time>
      </trkpt>
      <trkpt lat="48.19677" lon="-3.73976">
        <ele>97.5</ele>
        <time>2017-09-23T08:52:53.000Z</time>
      </trkpt>
      <trkpt lat="48.19678" lon="-3.73976">
        <ele>97.5</ele>
        <time>2017-09-23T08:52:54.000Z</time>
      </trkpt>
      <trkpt lat="48.19679" lon="-3.73976">
        <ele>97.5</ele>
        <time>2017-09-23T08:52:55.000Z</time>
      </trkpt>
      <trkpt lat="48.1968" lon="-3.73976">
        <ele>97.6</ele>
        <time>2017-09-23T08:52:56.000Z</time>
      </trkpt>
      <trkpt lat="48.19681" lon="-3.73976">
        <ele>97.6</ele>
        <time>2017-09-23T08:52:57.000Z</time>
      </trkpt>
      <trkpt lat="48.19682" lon="-3.73976">
        <ele>97.7</ele>
        <time>2017-09-23T08:52:58.000Z</time>
      </trkpt>
      <trkpt lat="48.19683" lon="-3.73976">
        <ele>97.7</ele>
        <time>2017-09-23T08:52:59.000Z</time>
      </trkpt>
      <trkpt lat="48.19685" lon="-3.73976">
        <ele>97.8</ele>
        <time>2017-09-23T08:53:00.000Z</time>
      </trkpt>
      <trkpt lat="48.19686" lon="-3.73976">
        <ele>97.8</ele>
        <time>2017-09-23T08:53:01.000Z</time>
      </trkpt>
      <trkpt lat="48.19687" lon="-3.73976">
        <ele>97.9</ele>
        <time>2017-09-23T08:53:02.000Z</time>
      </trkpt>
      <trkpt lat="48.19688" lon="-3.73976">
        <ele>98</ele>
        <time>2017-09-23T08:53:03.000Z</time>
      </trkpt>
      <trkpt lat="48.19689" lon="-3.73976">
        <ele>98</ele>
        <time>2017-09-23T08:53:04.000Z</time>
      </trkpt>
      <trkpt lat="48.19691" lon="-3.73976">
        <ele>98.1</ele>
        <time>2017-09-23T08:53:05.000Z</time>
      </trkpt>
      <trkpt lat="48.19692" lon="-3.73976">
        <ele>98.1</ele>
        <time>2017-09-23T08:53:06.000Z</time>
      </trkpt>
      <trkpt lat="48.19693" lon="-3.73976">
        <ele>98.2</ele>
        <time>2017-09-23T08:53:07.000Z</time>
      </trkpt>
      <trkpt lat="48.19694" lon="-3.73976">
        <ele>98.2</ele>
        <time>2017-09-23T08:53:08.000Z</time>
      </trkpt>
      <trkpt lat="48.19695" lon="-3.73976">
        <ele>98.2</ele>
        <time>2017-09-23T08:53:09.000Z</time>
      </trkpt>
      <trkpt lat="48.19696" lon="-3.73976">
        <ele>98.3</ele>
        <time>2017-09-23T08:53:10.000Z</time>
      </trkpt>
      <trkpt lat="48.19697" lon="-3.73976">
        <ele>98.3</ele>
        <time>2017-09-23T08:53:11.000Z</time>
      </trkpt>
      <trkpt lat="48.19698" lon="-3.73976">
        <ele>98.4</ele>
        <time>2017-09-23T08:53:12.000Z</time>
      </trkpt>
      <trkpt lat="48.19698" lon="-3.73976">
        <ele>98.4</ele>
        <time>2017-09-23T08:53:13.000Z</time>
      </trkpt>
      <trkpt lat="48.19699" lon="-3.73976">
        <ele>98.5</ele>
        <time>2017-09-23T08:53:14.000Z</time>
      </trkpt>
      <trkpt lat="48.197" lon="-3.73976">
        <ele>98.5</ele>
        <time>2017-09-23T08:53:15.000Z</time>
      </trkpt>
      <trkpt lat="48.19701" lon="-3.73976">
        <ele>98.5</ele>
        <time>2017-09-23T08:53:16.000Z</time>
      </trkpt>
      <trkpt lat="48.19702" lon="-3.73976">
        <ele>98.6</ele>
        <time>2017-09-23T08:53:17.000Z</time>
      </trkpt>
      <trkpt lat="48.19703" lon="-3.73976">
        <ele>98.6</ele>
        <time>2017-09-23T08:53:18.000Z</time>
      </trkpt>
      <trkpt lat="48.19704" lon="-3.73976">
        <ele>98.7</ele>
        <time>2017-09-23T08:53:19.000Z</time>
      </trkpt>
      <trkpt lat="48.19705" lon="-3.73976">
        <ele>98.7</ele>
        <time>2017-09-23T08:53:20.000Z</time>
      </trkpt>
      <trkpt lat="48.19706" lon="-3.73976">
        <ele>98.7</ele>
        <time>2017-09-23T08:53:21.000Z</time>
      </trkpt>
      <trkpt lat="48.19707" lon="-3.73976">
        <ele>98.8</ele>
        <time>2017-09-23T08:53:22.000Z</time>
      </trkpt>
      <trkpt lat="48.19707" lon="-3.73976">
        <ele>98.8</ele>
        <time>2017-09-23T08:53:23.000Z</time>
      </trkpt>
      <trkpt lat="48.19708" lon="-3.73976">
        <ele>98.9</ele>
        <time>2017-09-23T08:53:24.000Z</time>
      </trkpt>
      <trkpt lat="48.19709" lon="-3.73976">
        <ele>98.9</ele>
        <time>2017-09-23T08:53:25.000Z</time>
      </trkpt>
      <trkpt lat="48.1971" lon="-3.73976">
        <ele>98.9</ele>
        <time>2017-09-23T08:53:26.000Z</time>
      </trkpt>
      <trkpt lat="48.19711" lon="-3.73976">
        <ele>99</ele>
        <time>2017-09-23T08:53:27.000Z</time>
      </trkpt>
      <trkpt lat="48.19712" lon="-3.73975">
        <ele>99</ele>
        <time>2017-09-23T08:53:28.000Z</time>
      </trkpt>
      <trkpt lat="48.19713" lon="-3.73975">
        <ele>99.1</ele>
        <time>2017-09-23T08:53:29.000Z</time>
      </trkpt>
      <trkpt lat="48.19714" lon="-3.73975">
        <ele>99.1</ele>
        <time>2017-09-23T08:53:30.000Z</time>
      </trkpt>
      <trkpt lat="48.19715" lon="-3.73975">
        <ele>99.1</ele>
        <time>2017-09-23T08:53:31.000Z</time>
      </trkpt>
      <trkpt lat="48.19716" lon="-3.73975">
        <ele>99.2</ele>
        <time>2017-09-23T08:53:32.000Z</time>
      </trkpt>
      <trkpt lat="48.19717" lon="-3.73975">
        <ele>99.2</ele>
        <time>2017-09-23T08:53:33.000Z</time>
      </trkpt>
      <trkpt lat="48.19718" lon="-3.73975">
        <ele>99.3</ele>
        <time>2017-09-23T08:53:34.000Z</time>
      </trkpt>
      <trkpt lat="48.19719" lon="-3.73975">
        <ele>99.3</ele>
        <time>2017-09-23T08:53:35.000Z</time>
      </trkpt>
      <trkpt lat="48.1972" lon="-3.73975">
        <ele>99.4</ele>
        <time>2017-09-23T08:53:36.000Z</time>
      </trkpt>
      <trkpt lat="48.19721" lon="-3.73975">
        <ele>99.4</ele>
        <time>2017-09-23T08:53:37.000Z</time>
      </trkpt>
      <trkpt lat="48.19722" lon="-3.73975">
        <ele>99.5</ele>
        <time>2017-09-23T08:53:38.000Z</time>
      </trkpt>
      <trkpt lat="48.19723" lon="-3.73975">
        <ele>99.5</ele>
        <time>2017-09-23T08:53:39.000Z</time>
      </trkpt>
      <trkpt lat="48.19725" lon="-3.73975">
        <ele>99.6</ele>
        <time>2017-09-23T08:53:40.000Z</time>
      </trkpt>
      <trkpt lat="48.19726" lon="-3.73975">
        <ele>99.6</ele>
        <time>2017-09-23T08:53:41.000Z</time>
      </trkpt>
      <trkpt lat="48.19727" lon="-3.73975">
        <ele>99.7</ele>
        <time>2017-09-23T08:53:42.000Z</time>
      </trkpt>
      <trkpt lat="48.19728" lon="-3.73975">
        <ele>99.7</ele>
        <time>2017-09-23T08:53:43.000Z</time>
      </trkpt>
      <trkpt lat="48.1973" lon="-3.73975">
        <ele>99.8</ele>
        <time>2017-09-23T08:53:44.000Z</time>
      </trkpt>
      <trkpt lat="48.19731" lon="-3.73975">
        <ele>99.8</ele>
        <time>2017-09-23T08:53:45.000Z</time>
      </trkpt>
      <trkpt lat="48.19732" lon="-3.73975">
        <ele>99.9</ele>
        <time>2017-09-23T08:53:46.000Z</time>
      </trkpt>
      <trkpt lat="48.19733" lon="-3.73975">
        <ele>100</ele>
        <time>2017-09-23T08:53:47.000Z</time>
      </trkpt>
      <trkpt lat="48.19735" lon="-3.73976">
        <ele>100</ele>
        <time>2017-09-23T08:53:48.000Z</time>
      </trkpt>
      <trkpt lat="48.19736" lon="-3.73976">
        <ele>100.1</ele>
        <time>2017-09-23T08:53:49.000Z</time>
      </trkpt>
      <trkpt lat="48.19737" lon="-3.73976">
        <ele>100.1</ele>
        <time>2017-09-23T08:53:50.000Z</time>
      </trkpt>
      <trkpt lat="48.19738" lon="-3.73976">
        <ele>100.2</ele>
        <time>2017-09-23T08:53:51.000Z</time>
      </trkpt>
      <trkpt lat="48.1974" lon="-3.73976">
        <ele>100.2</ele>
        <time>2017-09-23T08:53:52.000Z</time>
      </trkpt>
      <trkpt lat="48.19741" lon="-3.73976">
        <ele>100.3</ele>
        <time>2017-09-23T08:53:53.000Z</time>
      </trkpt>
      <trkpt lat="48.19742" lon="-3.73977">
        <ele>100.4</ele>
        <time>2017-09-23T08:53:54.000Z</time>
      </trkpt>
      <trkpt lat="48.19743" lon="-3.73977">
        <ele>100.4</ele>
        <time>2017-09-23T08:53:55.000Z</time>
      </trkpt>
      <trkpt lat="48.19744" lon="-3.73977">
        <ele>100.5</ele>
        <time>2017-09-23T08:53:56.000Z</time>
      </trkpt>
      <trkpt lat="48.19745" lon="-3.73977">
        <ele>100.5</ele>
        <time>2017-09-23T08:53:57.000Z</time>
      </trkpt>
      <trkpt lat="48.19747" lon="-3.73978">
        <ele>100.6</ele>
        <time>2017-09-23T08:53:58.000Z</time>
      </trkpt>
      <trkpt lat="48.19748" lon="-3.73978">
        <ele>100.6</ele>
        <time>2017-09-23T08:53:59.000Z</time>
      </trkpt>
      <trkpt lat="48.19749" lon="-3.73979">
        <ele>100.7</ele>
        <time>2017-09-23T08:54:00.000Z</time>
      </trkpt>
      <trkpt lat="48.1975" lon="-3.73979">
        <ele>100.7</ele>
        <time>2017-09-23T08:54:01.000Z</time>
      </trkpt>
      <trkpt lat="48.19751" lon="-3.73979">
        <ele>100.8</ele>
        <time>2017-09-23T08:54:02.000Z</time>
      </trkpt>
      <trkpt lat="48.19752" lon="-3.7398">
        <ele>100.8</ele>
        <time>2017-09-23T08:54:03.000Z</time>
      </trkpt>
      <trkpt lat="48.19753" lon="-3.7398">
        <ele>100.8</ele>
        <time>2017-09-23T08:54:04.000Z</time>
      </trkpt>
      <trkpt lat="48.19754" lon="-3.73981">
        <ele>100.9</ele>
        <time>2017-09-23T08:54:05.000Z</time>
      </trkpt>
      <trkpt lat="48.19755" lon="-3.73981">
        <ele>100.9</ele>
        <time>2017-09-23T08:54:06.000Z</time>
      </trkpt>
      <trkpt lat="48.19756" lon="-3.73982">
        <ele>100.9</ele>
        <time>2017-09-23T08:54:07.000Z</time>
      </trkpt>
      <trkpt lat="48.19757" lon="-3.73982">
        <ele>101</ele>
        <time>2017-09-23T08:54:08.000Z</time>
      </trkpt>
      <trkpt lat="48.19758" lon="-3.73982">
        <ele>101</ele>
        <time>2017-09-23T08:54:09.000Z</time>
      </trkpt>
      <trkpt lat="48.19759" lon="-3.73983">
        <ele>101</ele>
        <time>2017-09-23T08:54:10.000Z</time>
      </trkpt>
      <trkpt lat="48.1976" lon="-3.73984">
        <ele>101</ele>
        <time>2017-09-23T08:54:11.000Z</time>
      </trkpt>
      <trkpt lat="48.19761" lon="-3.73984">
        <ele>101.1</ele>
        <time>2017-09-23T08:54:12.000Z</time>
      </trkpt>
      <trkpt lat="48.19762" lon="-3.73985">
        <ele>101.1</ele>
        <time>2017-09-23T08:54:13.000Z</time>
      </trkpt>
      <trkpt lat="48.19763" lon="-3.73985">
        <ele>101.1</ele>
        <time>2017-09-23T08:54:14.000Z</time>
      </trkpt>
      <trkpt lat="48.19765" lon="-3.73986">
        <ele>101.2</ele>
        <time>2017-09-23T08:54:15.000Z</time>
      </trkpt>
      <trkpt lat="48.19766" lon="-3.73986">
        <ele>101.2</ele>
        <time>2017-09-23T08:54:16.000Z</time>
      </trkpt>
      <trkpt lat="48.19767" lon="-3.73987">
        <ele>101.2</ele>
        <time>2017-09-23T08:54:17.000Z</time>
      </trkpt>
      <trkpt lat="48.19768" lon="-3.73987">
        <ele>101.3</ele>
        <time>2017-09-23T08:54:18.000Z</time>
      </trkpt>
      <trkpt lat="48.19769" lon="-3.73988">
        <ele>101.3</ele>
        <time>2017-09-23T08:54:19.000Z</time>
      </trkpt>
      <trkpt lat="48.1977" lon="-3.73989">
        <ele>101.3</ele>
        <time>2017-09-23T08:54:20.000Z</time>
      </trkpt>
      <trkpt lat="48.19771" lon="-3.73989">
        <ele>101.4</ele>
        <time>2017-09-23T08:54:21.000Z</time>
      </trkpt>
      <trkpt lat="48.19772" lon="-3.7399">
        <ele>101.4</ele>
        <time>2017-09-23T08:54:22.000Z</time>
      </trkpt>
      <trkpt lat="48.19773" lon="-3.7399">
        <ele>101.4</ele>
        <time>2017-09-23T08:54:23.000Z</time>
      </trkpt>
      <trkpt lat="48.19774" lon="-3.73991">
        <ele>101.5</ele>
        <time>2017-09-23T08:54:24.000Z</time>
      </trkpt>
      <trkpt lat="48.19775" lon="-3.73992">
        <ele>101.5</ele>
        <time>2017-09-23T08:54:25.000Z</time>
      </trkpt>
      <trkpt lat="48.19777" lon="-3.73992">
        <ele>101.5</ele>
        <time>2017-09-23T08:54:26.000Z</time>
      </trkpt>
      <trkpt lat="48.19778" lon="-3.73993">
        <ele>101.6</ele>
        <time>2017-09-23T08:54:27.000Z</time>
      </trkpt>
      <trkpt lat="48.19779" lon="-3.73994">
        <ele>101.6</ele>
        <time>2017-09-23T08:54:28.000Z</time>
      </trkpt>
      <trkpt lat="48.1978" lon="-3.73994">
        <ele>101.7</ele>
        <time>2017-09-23T08:54:29.000Z</time>
      </trkpt>
      <trkpt lat="48.19781" lon="-3.73995">
        <ele>101.7</ele>
        <time>2017-09-23T08:54:30.000Z</time>
      </trkpt>
      <trkpt lat="48.19782" lon="-3.73996">
        <ele>101.7</ele>
        <time>2017-09-23T08:54:31.000Z</time>
      </trkpt>
      <trkpt lat="48.19783" lon="-3.73996">
        <ele>101.8</ele>
        <time>2017-09-23T08:54:32.000Z</time>
      </trkpt>
      <trkpt lat="48.19784" lon="-3.73997">
        <ele>101.8</ele>
        <time>2017-09-23T08:54:33.000Z</time>
      </trkpt>
      <trkpt lat="48.19786" lon="-3.73998">
        <ele>101.8</ele>
        <time>2017-09-23T08:54:34.000Z</time>
      </trkpt>
      <trkpt lat="48.19787" lon="-3.73998">
        <ele>101.9</ele>
        <time>2017-09-23T08:54:35.000Z</time>
      </trkpt>
      <trkpt lat="48.19788" lon="-3.73999">
        <ele>101.9</ele>
        <time>2017-09-23T08:54:36.000Z</time>
      </trkpt>
      <trkpt lat="48.19789" lon="-3.74">
        <ele>101.9</ele>
        <time>2017-09-23T08:54:37.000Z</time>
      </trkpt>
      <trkpt lat="48.1979" lon="-3.74">
        <ele>102</ele>
        <time>2017-09-23T08:54:38.000Z</time>
      </trkpt>
      <trkpt lat="48.19791" lon="-3.74001">
        <ele>102</ele>
        <time>2017-09-23T08:54:39.000Z</time>
      </trkpt>
      <trkpt lat="48.19792" lon="-3.74001">
        <ele>102</ele>
        <time>2017-09-23T08:54:40.000Z</time>
      </trkpt>
      <trkpt lat="48.19794" lon="-3.74002">
        <ele>102</ele>
        <time>2017-09-23T08:54:41.000Z</time>
      </trkpt>
      <trkpt lat="48.19795" lon="-3.74002">
        <ele>102</ele>
        <time>2017-09-23T08:54:42.000Z</time>
      </trkpt>
      <trkpt lat="48.19796" lon="-3.74002">
        <ele>102.1</ele>
        <time>2017-09-23T08:54:43.000Z</time>
      </trkpt>
      <trkpt lat="48.19797" lon="-3.74003">
        <ele>102.1</ele>
        <time>2017-09-23T08:54:44.000Z</time>
      </trkpt>
      <trkpt lat="48.19798" lon="-3.74003">
        <ele>102.1</ele>
        <time>2017-09-23T08:54:45.000Z</time>
      </trkpt>
      <trkpt lat="48.19799" lon="-3.74003">
        <ele>102.1</ele>
        <time>2017-09-23T08:54:46.000Z</time>
      </trkpt>
      <trkpt lat="48.198" lon="-3.74004">
        <ele>102.2</ele>
        <time>2017-09-23T08:54:47.000Z</time>
      </trkpt>
      <trkpt lat="48.19801" lon="-3.74004">
        <ele>102.2</ele>
        <time>2017-09-23T08:54:48.000Z</time>
      </trkpt>
      <trkpt lat="48.19802" lon="-3.74004">
        <ele>102.2</ele>
        <time>2017-09-23T08:54:49.000Z</time>
      </trkpt>
      <trkpt lat="48.19803" lon="-3.74004">
        <ele>102.2</ele>
        <time>2017-09-23T08:54:50.000Z</time>
      </trkpt>
      <trkpt lat="48.19804" lon="-3.74004">
        <ele>102.3</ele>
        <time>2017-09-23T08:54:51.000Z</time>
      </trkpt>
      <trkpt lat="48.19805" lon="-3.74004">
        <ele>102.3</ele>
        <time>2017-09-23T08:54:52.000Z</time>
      </trkpt>
      <trkpt lat="48.19806" lon="-3.74005">
        <ele>102.3</ele>
        <time>2017-09-23T08:54:53.000Z</time>
      </trkpt>
      <trkpt lat="48.19807" lon="-3.74005">
        <ele>102.3</ele>
        <time>2017-09-23T08:54:54.000Z</time>
      </trkpt>
      <trkpt lat="48.19808" lon="-3.74005">
        <ele>102.3</ele>
        <time>2017-09-23T08:54:55.000Z</time>
      </trkpt>
      <trkpt lat="48.19809" lon="-3.74005">
        <ele>102.4</ele>
        <time>2017-09-23T08:54:56.000Z</time>
      </trkpt>
      <trkpt lat="48.19811" lon="-3.74005">
        <ele>102.4</ele>
        <time>2017-09-23T08:54:57.000Z</time>
      </trkpt>
      <trkpt lat="48.19812" lon="-3.74005">
        <ele>102.4</ele>
        <time>2017-09-23T08:54:58.000Z</time>
      </trkpt>
      <trkpt lat="48.19813" lon="-3.74005">
        <ele>102.4</ele>
        <time>2017-09-23T08:54:59.000Z</time>
      </trkpt>
      <trkpt lat="48.19814" lon="-3.74005">
        <ele>102.5</ele>
        <time>2017-09-23T08:55:00.000Z</time>
      </trkpt>
      <trkpt lat="48.19815" lon="-3.74005">
        <ele>102.5</ele>
        <time>2017-09-23T08:55:01.000Z</time>
      </trkpt>
      <trkpt lat="48.19816" lon="-3.74004">
        <ele>102.5</ele>
        <time>2017-09-23T08:55:02.000Z</time>
      </trkpt>
      <trkpt lat="48.19817" lon="-3.74004">
        <ele>102.6</ele>
        <time>2017-09-23T08:55:03.000Z</time>
      </trkpt>
      <trkpt lat="48.19818" lon="-3.74004">
        <ele>102.6</ele>
        <time>2017-09-23T08:55:04.000Z</time>
      </trkpt>
      <trkpt lat="48.1982" lon="-3.74004">
        <ele>102.6</ele>
        <time>2017-09-23T08:55:05.000Z</time>
      </trkpt>
      <trkpt lat="48.19821" lon="-3.74004">
        <ele>102.6</ele>
        <time>2017-09-23T08:55:06.000Z</time>
      </trkpt>
      <trkpt lat="48.19822" lon="-3.74004">
        <ele>102.7</ele>
        <time>2017-09-23T08:55:07.000Z</time>
      </trkpt>
      <trkpt lat="48.19823" lon="-3.74004">
        <ele>102.7</ele>
        <time>2017-09-23T08:55:08.000Z</time>
      </trkpt>
      <trkpt lat="48.19824" lon="-3.74004">
        <ele>102.7</ele>
        <time>2017-09-23T08:55:09.000Z</time>
      </trkpt>
      <trkpt lat="48.19825" lon="-3.74004">
        <ele>102.8</ele>
        <time>2017-09-23T08:55:10.000Z</time>
      </trkpt>
      <trkpt lat="48.19826" lon="-3.74004">
        <ele>102.8</ele>
        <time>2017-09-23T08:55:11.000Z</time>
      </trkpt>
      <trkpt lat="48.19828" lon="-3.74004">
        <ele>102.8</ele>
        <time>2017-09-23T08:55:12.000Z</time>
      </trkpt>
      <trkpt lat="48.19829" lon="-3.74004">
        <ele>102.8</ele>
        <time>2017-09-23T08:55:13.000Z</time>
      </trkpt>
      <trkpt lat="48.1983" lon="-3.74004">
        <ele>102.9</ele>
        <time>2017-09-23T08:55:14.000Z</time>
      </trkpt>
      <trkpt lat="48.19831" lon="-3.74004">
        <ele>102.9</ele>
        <time>2017-09-23T08:55:15.000Z</time>
      </trkpt>
      <trkpt lat="48.19833" lon="-3.74004">
        <ele>102.9</ele>
        <time>2017-09-23T08:55:16.000Z</time>
      </trkpt>
      <trkpt lat="48.19834" lon="-3.74004">
        <ele>102.9</ele>
        <time>2017-09-23T08:55:17.000Z</time>
      </trkpt>
      <trkpt lat="48.19836" lon="-3.74004">
        <ele>102.9</ele>
        <time>2017-09-23T08:55:18.000Z</time>
      </trkpt>
      <trkpt lat="48.19837" lon="-3.74004">
        <ele>102.9</ele>
        <time>2017-09-23T08:55:19.000Z</time>
      </trkpt>
      <trkpt lat="48.19839" lon="-3.74003">
        <ele>102.9</ele>
        <time>2017-09-23T08:55:20.000Z</time>
      </trkpt>
      <trkpt lat="48.1984" lon="-3.74003">
        <ele>102.9</ele>
        <time>2017-09-23T08:55:21.000Z</time>
      </trkpt>
      <trkpt lat="48.19842" lon="-3.74003">
        <ele>102.9</ele>
        <time>2017-09-23T08:55:22.000Z</time>
      </trkpt>
      <trkpt lat="48.19843" lon="-3.74003">
        <ele>102.9</ele>
        <time>2017-09-23T08:55:23.000Z</time>
      </trkpt>
      <trkpt lat="48.19845" lon="-3.74003">
        <ele>102.8</ele>
        <time>2017-09-23T08:55:24.000Z</time>
      </trkpt>
      <trkpt lat="48.19846" lon="-3.74003">
        <ele>102.8</ele>
        <time>2017-09-23T08:55:25.000Z</time>
      </trkpt>
      <trkpt lat="48.19847" lon="-3.74003">
        <ele>102.8</ele>
        <time>2017-09-23T08:55:26.000Z</time>
      </trkpt>
      <trkpt lat="48.19848" lon="-3.74003">
        <ele>102.8</ele>
        <time>2017-09-23T08:55:27.000Z</time>
      </trkpt>
      <trkpt lat="48.1985" lon="-3.74003">
        <ele>102.8</ele>
        <time>2017-09-23T08:55:28.000Z</time>
      </trkpt>
      <trkpt lat="48.19851" lon="-3.74003">
        <ele>102.8</ele>
        <time>2017-09-23T08:55:29.000Z</time>
      </trkpt>
      <trkpt lat="48.19852" lon="-3.74003">
        <ele>102.8</ele>
        <time>2017-09-23T08:55:30.000Z</time>
      </trkpt>
      <trkpt lat="48.19853" lon="-3.74003">
        <ele>102.7</ele>
        <time>2017-09-23T08:55:31.000Z</time>
      </trkpt>
      <trkpt lat="48.19854" lon="-3.74003">
        <ele>102.7</ele>
        <time>2017-09-23T08:55:32.000Z</time>
      </trkpt>
      <trkpt lat="48.19856" lon="-3.74003">
        <ele>102.7</ele>
        <time>2017-09-23T08:55:33.000Z</time>
      </trkpt>
      <trkpt lat="48.19857" lon="-3.74003">
        <ele>102.7</ele>
        <time>2017-09-23T08:55:34.000Z</time>
      </trkpt>
      <trkpt lat="48.19858" lon="-3.74003">
        <ele>102.7</ele>
        <time>2017-09-23T08:55:35.000Z</time>
      </trkpt>
      <trkpt lat="48.19859" lon="-3.74003">
        <ele>102.7</ele>
        <time>2017-09-23T08:55:36.000Z</time>
      </trkpt>
      <trkpt lat="48.19861" lon="-3.74003">
        <ele>102.7</ele>
        <time>2017-09-23T08:55:37.000Z</time>
      </trkpt>
      <trkpt lat="48.19862" lon="-3.74003">
        <ele>102.6</ele>
        <time>2017-09-23T08:55:38.000Z</time>
      </trkpt>
      <trkpt lat="48.19864" lon="-3.74003">
        <ele>102.6</ele>
        <time>2017-09-23T08:55:39.000Z</time>
      </trkpt>
      <trkpt lat="48.19865" lon="-3.74003">
        <ele>102.6</ele>
        <time>2017-09-23T08:55:40.000Z</time>
      </trkpt>
      <trkpt lat="48.19866" lon="-3.74003">
        <ele>102.6</ele>
        <time>2017-09-23T08:55:41.000Z</time>
      </trkpt>
      <trkpt lat="48.19868" lon="-3.74003">
        <ele>102.6</ele>
        <time>2017-09-23T08:55:42.000Z</time>
      </trkpt>
      <trkpt lat="48.19869" lon="-3.74003">
        <ele>102.6</ele>
        <time>2017-09-23T08:55:43.000Z</time>
      </trkpt>
      <trkpt lat="48.19871" lon="-3.74002">
        <ele>102.6</ele>
        <time>2017-09-23T08:55:44.000Z</time>
      </trkpt>
      <trkpt lat="48.19872" lon="-3.74002">
        <ele>102.5</ele>
        <time>2017-09-23T08:55:45.000Z</time>
      </trkpt>
      <trkpt lat="48.19873" lon="-3.74002">
        <ele>102.5</ele>
        <time>2017-09-23T08:55:46.000Z</time>
      </trkpt>
      <trkpt lat="48.19875" lon="-3.74002">
        <ele>102.5</ele>
        <time>2017-09-23T08:55:47.000Z</time>
      </trkpt>
      <trkpt lat="48.19876" lon="-3.74002">
        <ele>102.5</ele>
        <time>2017-09-23T08:55:48.000Z</time>
      </trkpt>
      <trkpt lat="48.19877" lon="-3.74002">
        <ele>102.5</ele>
        <time>2017-09-23T08:55:49.000Z</time>
      </trkpt>
      <trkpt lat="48.19879" lon="-3.74002">
        <ele>102.5</ele>
        <time>2017-09-23T08:55:50.000Z</time>
      </trkpt>
      <trkpt lat="48.1988" lon="-3.74002">
        <ele>102.4</ele>
        <time>2017-09-23T08:55:51.000Z</time>
      </trkpt>
      <trkpt lat="48.19882" lon="-3.74002">
        <ele>102.4</ele>
        <time>2017-09-23T08:55:52.000Z</time>
      </trkpt>
      <trkpt lat="48.19883" lon="-3.74002">
        <ele>102.4</ele>
        <time>2017-09-23T08:55:53.000Z</time>
      </trkpt>
      <trkpt lat="48.19884" lon="-3.74001">
        <ele>102.4</ele>
        <time>2017-09-23T08:55:54.000Z</time>
      </trkpt>
      <trkpt lat="48.19885" lon="-3.74001">
        <ele>102.4</ele>
        <time>2017-09-23T08:55:55.000Z</time>
      </trkpt>
      <trkpt lat="48.19887" lon="-3.74001">
        <ele>102.4</ele>
        <time>2017-09-23T08:55:56.000Z</time>
      </trkpt>
      <trkpt lat="48.19888" lon="-3.74001">
        <ele>102.3</ele>
        <time>2017-09-23T08:55:57.000Z</time>
      </trkpt>
      <trkpt lat="48.19889" lon="-3.74001">
        <ele>102.3</ele>
        <time>2017-09-23T08:55:58.000Z</time>
      </trkpt>
      <trkpt lat="48.19891" lon="-3.74001">
        <ele>102.3</ele>
        <time>2017-09-23T08:55:59.000Z</time>
      </trkpt>
      <trkpt lat="48.19892" lon="-3.74001">
        <ele>102.3</ele>
        <time>2017-09-23T08:56:00.000Z</time>
      </trkpt>
      <trkpt lat="48.19893" lon="-3.74001">
        <ele>102.3</ele>
        <time>2017-09-23T08:56:01.000Z</time>
      </trkpt>
      <trkpt lat="48.19894" lon="-3.74001">
        <ele>102.3</ele>
        <time>2017-09-23T08:56:02.000Z</time>
      </trkpt>
      <trkpt lat="48.19896" lon="-3.74001">
        <ele>102.3</ele>
        <time>2017-09-23T08:56:03.000Z</time>
      </trkpt>
      <trkpt lat="48.19897" lon="-3.74001">
        <ele>102.2</ele>
        <time>2017-09-23T08:56:04.000Z</time>
      </trkpt>
      <trkpt lat="48.19898" lon="-3.74001">
        <ele>102.2</ele>
        <time>2017-09-23T08:56:05.000Z</time>
      </trkpt>
      <trkpt lat="48.19899" lon="-3.74001">
        <ele>102.2</ele>
        <time>2017-09-23T08:56:06.000Z</time>
      </trkpt>
      <trkpt lat="48.199" lon="-3.74001">
        <ele>102.2</ele>
        <time>2017-09-23T08:56:07.000Z</time>
      </trkpt>
      <trkpt lat="48.19902" lon="-3.74001">
        <ele>102.2</ele>
        <time>2017-09-23T08:56:08.000Z</time>
      </trkpt>
      <trkpt lat="48.19903" lon="-3.74001">
        <ele>102.2</ele>
        <time>2017-09-23T08:56:09.000Z</time>
      </trkpt>
      <trkpt lat="48.19904" lon="-3.74001">
        <ele>102.2</ele>
        <time>2017-09-23T08:56:10.000Z</time>
      </trkpt>
      <trkpt lat="48.19905" lon="-3.74001">
        <ele>102.1</ele>
        <time>2017-09-23T08:56:11.000Z</time>
      </trkpt>
      <trkpt lat="48.19906" lon="-3.74001">
        <ele>102.1</ele>
        <time>2017-09-23T08:56:12.000Z</time>
      </trkpt>
      <trkpt lat="48.19908" lon="-3.74001">
        <ele>102.1</ele>
        <time>2017-09-23T08:56:13.000Z</time>
      </trkpt>
      <trkpt lat="48.19909" lon="-3.74001">
        <ele>102.1</ele>
        <time>2017-09-23T08:56:14.000Z</time>
      </trkpt>
      <trkpt lat="48.1991" lon="-3.74001">
        <ele>102.1</ele>
        <time>2017-09-23T08:56:15.000Z</time>
      </trkpt>
      <trkpt lat="48.19911" lon="-3.74001">
        <ele>102.1</ele>
        <time>2017-09-23T08:56:16.000Z</time>
      </trkpt>
      <trkpt lat="48.19913" lon="-3.74001">
        <ele>102.1</ele>
        <time>2017-09-23T08:56:17.000Z</time>
      </trkpt>
      <trkpt lat="48.19914" lon="-3.74001">
        <ele>102</ele>
        <time>2017-09-23T08:56:18.000Z</time>
      </trkpt>
      <trkpt lat="48.19915" lon="-3.74001">
        <ele>102</ele>
        <time>2017-09-23T08:56:19.000Z</time>
      </trkpt>
      <trkpt lat="48.19916" lon="-3.74001">
        <ele>102</ele>
        <time>2017-09-23T08:56:20.000Z</time>
      </trkpt>
      <trkpt lat="48.19918" lon="-3.74001">
        <ele>102.1</ele>
        <time>2017-09-23T08:56:21.000Z</time>
      </trkpt>
      <trkpt lat="48.19919" lon="-3.74002">
        <ele>102.2</ele>
        <time>2017-09-23T08:56:22.000Z</time>
      </trkpt>
      <trkpt lat="48.1992" lon="-3.74002">
        <ele>102.2</ele>
        <time>2017-09-23T08:56:23.000Z</time>
      </trkpt>
      <trkpt lat="48.19922" lon="-3.74002">
        <ele>102.3</ele>
        <time>2017-09-23T08:56:24.000Z</time>
      </trkpt>
      <trkpt lat="48.19923" lon="-3.74002">
        <ele>102.4</ele>
        <time>2017-09-23T08:56:25.000Z</time>
      </trkpt>
      <trkpt lat="48.19925" lon="-3.74002">
        <ele>102.5</ele>
        <time>2017-09-23T08:56:26.000Z</time>
      </trkpt>
      <trkpt lat="48.19926" lon="-3.74002">
        <ele>102.6</ele>
        <time>2017-09-23T08:56:27.000Z</time>
      </trkpt>
      <trkpt lat="48.19928" lon="-3.74002">
        <ele>102.7</ele>
        <time>2017-09-23T08:56:28.000Z</time>
      </trkpt>
      <trkpt lat="48.19929" lon="-3.74002">
        <ele>102.8</ele>
        <time>2017-09-23T08:56:29.000Z</time>
      </trkpt>
      <trkpt lat="48.1993" lon="-3.74002">
        <ele>102.8</ele>
        <time>2017-09-23T08:56:30.000Z</time>
      </trkpt>
      <trkpt lat="48.19932" lon="-3.74002">
        <ele>102.9</ele>
        <time>2017-09-23T08:56:31.000Z</time>
      </trkpt>
      <trkpt lat="48.19933" lon="-3.74003">
        <ele>103</ele>
        <time>2017-09-23T08:56:32.000Z</time>
      </trkpt>
      <trkpt lat="48.19934" lon="-3.74003">
        <ele>103.1</ele>
        <time>2017-09-23T08:56:33.000Z</time>
      </trkpt>
      <trkpt lat="48.19936" lon="-3.74003">
        <ele>103.2</ele>
        <time>2017-09-23T08:56:34.000Z</time>
      </trkpt>
      <trkpt lat="48.19937" lon="-3.74003">
        <ele>103.2</ele>
        <time>2017-09-23T08:56:35.000Z</time>
      </trkpt>
      <trkpt lat="48.19938" lon="-3.74004">
        <ele>103.3</ele>
        <time>2017-09-23T08:56:36.000Z</time>
      </trkpt>
      <trkpt lat="48.19939" lon="-3.74004">
        <ele>103.4</ele>
        <time>2017-09-23T08:56:37.000Z</time>
      </trkpt>
      <trkpt lat="48.1994" lon="-3.74004">
        <ele>103.5</ele>
        <time>2017-09-23T08:56:38.000Z</time>
      </trkpt>
      <trkpt lat="48.19942" lon="-3.74005">
        <ele>103.5</ele>
        <time>2017-09-23T08:56:39.000Z</time>
      </trkpt>
      <trkpt lat="48.19943" lon="-3.74005">
        <ele>103.6</ele>
        <time>2017-09-23T08:56:40.000Z</time>
      </trkpt>
      <trkpt lat="48.19944" lon="-3.74006">
        <ele>103.7</ele>
        <time>2017-09-23T08:56:41.000Z</time>
      </trkpt>
      <trkpt lat="48.19945" lon="-3.74006">
        <ele>103.8</ele>
        <time>2017-09-23T08:56:42.000Z</time>
      </trkpt>
      <trkpt lat="48.19946" lon="-3.74006">
        <ele>103.8</ele>
        <time>2017-09-23T08:56:43.000Z</time>
      </trkpt>
      <trkpt lat="48.19948" lon="-3.74007">
        <ele>103.9</ele>
        <time>2017-09-23T08:56:44.000Z</time>
      </trkpt>
      <trkpt lat="48.19949" lon="-3.74007">
        <ele>104</ele>
        <time>2017-09-23T08:56:45.000Z</time>
      </trkpt>
      <trkpt lat="48.1995" lon="-3.74007">
        <ele>104.1</ele>
        <time>2017-09-23T08:56:46.000Z</time>
      </trkpt>
      <trkpt lat="48.19951" lon="-3.74008">
        <ele>104.1</ele>
        <time>2017-09-23T08:56:47.000Z</time>
      </trkpt>
      <trkpt lat="48.19953" lon="-3.74008">
        <ele>104.2</ele>
        <time>2017-09-23T08:56:48.000Z</time>
      </trkpt>
      <trkpt lat="48.19954" lon="-3.74009">
        <ele>104.3</ele>
        <time>2017-09-23T08:56:49.000Z</time>
      </trkpt>
      <trkpt lat="48.19955" lon="-3.74009">
        <ele>104.4</ele>
        <time>2017-09-23T08:56:50.000Z</time>
      </trkpt>
      <trkpt lat="48.19956" lon="-3.7401">
        <ele>104.4</ele>
        <time>2017-09-23T08:56:51.000Z</time>
      </trkpt>
      <trkpt lat="48.19957" lon="-3.74011">
        <ele>104.5</ele>
        <time>2017-09-23T08:56:52.000Z</time>
      </trkpt>
      <trkpt lat="48.19958" lon="-3.74011">
        <ele>104.6</ele>
        <time>2017-09-23T08:56:53.000Z</time>
      </trkpt>
      <trkpt lat="48.19959" lon="-3.74013">
        <ele>104.6</ele>
        <time>2017-09-23T08:56:54.000Z</time>
      </trkpt>
      <trkpt lat="48.1996" lon="-3.74014">
        <ele>104.7</ele>
        <time>2017-09-23T08:56:55.000Z</time>
      </trkpt>
      <trkpt lat="48.19961" lon="-3.74015">
        <ele>104.7</ele>
        <time>2017-09-23T08:56:56.000Z</time>
      </trkpt>
      <trkpt lat="48.19961" lon="-3.74017">
        <ele>104.8</ele>
        <time>2017-09-23T08:56:57.000Z</time>
      </trkpt>
      <trkpt lat="48.19962" lon="-3.74018">
        <ele>104.8</ele>
        <time>2017-09-23T08:56:58.000Z</time>
      </trkpt>
      <trkpt lat="48.19962" lon="-3.7402">
        <ele>104.8</ele>
        <time>2017-09-23T08:56:59.000Z</time>
      </trkpt>
      <trkpt lat="48.19963" lon="-3.74021">
        <ele>104.9</ele>
        <time>2017-09-23T08:57:00.000Z</time>
      </trkpt>
      <trkpt lat="48.19963" lon="-3.74023">
        <ele>104.9</ele>
        <time>2017-09-23T08:57:01.000Z</time>
      </trkpt>
      <trkpt lat="48.19963" lon="-3.74025">
        <ele>104.9</ele>
        <time>2017-09-23T08:57:02.000Z</time>
      </trkpt>
      <trkpt lat="48.19964" lon="-3.74027">
        <ele>104.9</ele>
        <time>2017-09-23T08:57:03.000Z</time>
      </trkpt>
      <trkpt lat="48.19964" lon="-3.74028">
        <ele>105</ele>
        <time>2017-09-23T08:57:04.000Z</time>
      </trkpt>
      <trkpt lat="48.19964" lon="-3.7403">
        <ele>105</ele>
        <time>2017-09-23T08:57:05.000Z</time>
      </trkpt>
      <trkpt lat="48.19964" lon="-3.74032">
        <ele>105</ele>
        <time>2017-09-23T08:57:06.000Z</time>
      </trkpt>
      <trkpt lat="48.19964" lon="-3.74034">
        <ele>105</ele>
        <time>2017-09-23T08:57:07.000Z</time>
      </trkpt>
      <trkpt lat="48.19964" lon="-3.74036">
        <ele>105</ele>
        <time>2017-09-23T08:57:08.000Z</time>
      </trkpt>
      <trkpt lat="48.19964" lon="-3.74037">
        <ele>105.1</ele>
        <time>2017-09-23T08:57:09.000Z</time>
      </trkpt>
      <trkpt lat="48.19964" lon="-3.74039">
        <ele>105.1</ele>
        <time>2017-09-23T08:57:10.000Z</time>
      </trkpt>
      <trkpt lat="48.19965" lon="-3.74041">
        <ele>105.1</ele>
        <time>2017-09-23T08:57:11.000Z</time>
      </trkpt>
      <trkpt lat="48.19965" lon="-3.74043">
        <ele>105.1</ele>
        <time>2017-09-23T08:57:12.000Z</time>
      </trkpt>
      <trkpt lat="48.19965" lon="-3.74044">
        <ele>105.1</ele>
        <time>2017-09-23T08:57:13.000Z</time>
      </trkpt>
      <trkpt lat="48.19965" lon="-3.74046">
        <ele>105.1</ele>
        <time>2017-09-23T08:57:14.000Z</time>
      </trkpt>
      <trkpt lat="48.19965" lon="-3.74048">
        <ele>105.1</ele>
        <time>2017-09-23T08:57:15.000Z</time>
      </trkpt>
      <trkpt lat="48.19965" lon="-3.7405">
        <ele>105.1</ele>
        <time>2017-09-23T08:57:16.000Z</time>
      </trkpt>
      <trkpt lat="48.19965" lon="-3.74051">
        <ele>105.1</ele>
        <time>2017-09-23T08:57:17.000Z</time>
      </trkpt>
      <trkpt lat="48.19965" lon="-3.74053">
        <ele>105.2</ele>
        <time>2017-09-23T08:57:18.000Z</time>
      </trkpt>
      <trkpt lat="48.19965" lon="-3.74055">
        <ele>105.2</ele>
        <time>2017-09-23T08:57:19.000Z</time>
      </trkpt>
      <trkpt lat="48.19965" lon="-3.74057">
        <ele>105.2</ele>
        <time>2017-09-23T08:57:20.000Z</time>
      </trkpt>
      <trkpt lat="48.19965" lon="-3.74059">
        <ele>105.2</ele>
        <time>2017-09-23T08:57:21.000Z</time>
      </trkpt>
      <trkpt lat="48.19965" lon="-3.74061">
        <ele>105.2</ele>
        <time>2017-09-23T08:57:22.000Z</time>
      </trkpt>
      <trkpt lat="48.19965" lon="-3.74062">
        <ele>105.2</ele>
        <time>2017-09-23T08:57:23.000Z</time>
      </trkpt>
      <trkpt lat="48.19965" lon="-3.74064">
        <ele>105.2</ele>
        <time>2017-09-23T08:57:24.000Z</time>
      </trkpt>
      <trkpt lat="48.19965" lon="-3.74066">
        <ele>105.3</ele>
        <time>2017-09-23T08:57:25.000Z</time>
      </trkpt>
      <trkpt lat="48.19966" lon="-3.74068">
        <ele>105.3</ele>
        <time>2017-09-23T08:57:26.000Z</time>
      </trkpt>
      <trkpt lat="48.19966" lon="-3.7407">
        <ele>105.3</ele>
        <time>2017-09-23T08:57:27.000Z</time>
      </trkpt>
      <trkpt lat="48.19966" lon="-3.74072">
        <ele>105.3</ele>
        <time>2017-09-23T08:57:28.000Z</time>
      </trkpt>
      <trkpt lat="48.19967" lon="-3.74073">
        <ele>105.4</ele>
        <time>2017-09-23T08:57:29.000Z</time>
      </trkpt>
      <trkpt lat="48.19967" lon="-3.74075">
        <ele>105.4</ele>
        <time>2017-09-23T08:57:30.000Z</time>
      </trkpt>
      <trkpt lat="48.19968" lon="-3.74076">
        <ele>105.4</ele>
        <time>2017-09-23T08:57:31.000Z</time>
      </trkpt>
      <trkpt lat="48.19968" lon="-3.74078">
        <ele>105.5</ele>
        <time>2017-09-23T08:57:32.000Z</time>
      </trkpt>
      <trkpt lat="48.19969" lon="-3.74079">
        <ele>105.5</ele>
        <time>2017-09-23T08:57:33.000Z</time>
      </trkpt>
      <trkpt lat="48.1997" lon="-3.7408">
        <ele>105.6</ele>
        <time>2017-09-23T08:57:34.000Z</time>
      </trkpt>
      <trkpt lat="48.19971" lon="-3.74081">
        <ele>105.6</ele>
        <time>2017-09-23T08:57:35.000Z</time>
      </trkpt>
      <trkpt lat="48.19972" lon="-3.74082">
        <ele>105.7</ele>
        <time>2017-09-23T08:57:36.000Z</time>
      </trkpt>
      <trkpt lat="48.19973" lon="-3.74083">
        <ele>105.7</ele>
        <time>2017-09-23T08:57:37.000Z</time>
      </trkpt>
      <trkpt lat="48.19974" lon="-3.74084">
        <ele>105.8</ele>
        <time>2017-09-23T08:57:38.000Z</time>
      </trkpt>
      <trkpt lat="48.19975" lon="-3.74084">
        <ele>105.8</ele>
        <time>2017-09-23T08:57:39.000Z</time>
      </trkpt>
      <trkpt lat="48.19977" lon="-3.74085">
        <ele>105.9</ele>
        <time>2017-09-23T08:57:40.000Z</time>
      </trkpt>
      <trkpt lat="48.19978" lon="-3.74085">
        <ele>105.9</ele>
        <time>2017-09-23T08:57:41.000Z</time>
      </trkpt>
      <trkpt lat="48.19979" lon="-3.74086">
        <ele>106</ele>
        <time>2017-09-23T08:57:42.000Z</time>
      </trkpt>
      <trkpt lat="48.1998" lon="-3.74087">
        <ele>106</ele>
        <time>2017-09-23T08:57:43.000Z</time>
      </trkpt>
      <trkpt lat="48.19981" lon="-3.74087">
        <ele>106</ele>
        <time>2017-09-23T08:57:44.000Z</time>
      </trkpt>
      <trkpt lat="48.19983" lon="-3.74088">
        <ele>106.1</ele>
        <time>2017-09-23T08:57:45.000Z</time>
      </trkpt>
      <trkpt lat="48.19984" lon="-3.74089">
        <ele>106.1</ele>
        <time>2017-09-23T08:57:46.000Z</time>
      </trkpt>
      <trkpt lat="48.19985" lon="-3.74089">
        <ele>106.2</ele>
        <time>2017-09-23T08:57:47.000Z</time>
      </trkpt>
      <trkpt lat="48.19986" lon="-3.7409">
        <ele>106.2</ele>
        <time>2017-09-23T08:57:48.000Z</time>
      </trkpt>
      <trkpt lat="48.19987" lon="-3.74091">
        <ele>106.2</ele>
        <time>2017-09-23T08:57:49.000Z</time>
      </trkpt>
      <trkpt lat="48.19988" lon="-3.74092">
        <ele>106.3</ele>
        <time>2017-09-23T08:57:50.000Z</time>
      </trkpt>
      <trkpt lat="48.19989" lon="-3.74093">
        <ele>106.3</ele>
        <time>2017-09-23T08:57:51.000Z</time>
      </trkpt>
      <trkpt lat="48.1999" lon="-3.74094">
        <ele>106.3</ele>
        <time>2017-09-23T08:57:52.000Z</time>
      </trkpt>
      <trkpt lat="48.19991" lon="-3.74094">
        <ele>106.4</ele>
        <time>2017-09-23T08:57:53.000Z</time>
      </trkpt>
      <trkpt lat="48.19993" lon="-3.74095">
        <ele>106.4</ele>
        <time>2017-09-23T08:57:54.000Z</time>
      </trkpt>
      <trkpt lat="48.19994" lon="-3.74096">
        <ele>106.4</ele>
        <time>2017-09-23T08:57:55.000Z</time>
      </trkpt>
      <trkpt lat="48.19995" lon="-3.74097">
        <ele>106.5</ele>
        <time>2017-09-23T08:57:56.000Z</time>
      </trkpt>
      <trkpt lat="48.19996" lon="-3.74097">
        <ele>106.5</ele>
        <time>2017-09-23T08:57:57.000Z</time>
      </trkpt>
      <trkpt lat="48.19997" lon="-3.74097">
        <ele>106.5</ele>
        <time>2017-09-23T08:57:58.000Z</time>
      </trkpt>
      <trkpt lat="48.19998" lon="-3.74098">
        <ele>106.6</ele>
        <time>2017-09-23T08:57:59.000Z</time>
      </trkpt>
      <trkpt lat="48.2" lon="-3.74098">
        <ele>106.6</ele>
        <time>2017-09-23T08:58:00.000Z</time>
      </trkpt>
      <trkpt lat="48.20001" lon="-3.74098">
        <ele>106.7</ele>
        <time>2017-09-23T08:58:01.000Z</time>
      </trkpt>
      <trkpt lat="48.20002" lon="-3.74098">
        <ele>106.7</ele>
        <time>2017-09-23T08:58:02.000Z</time>
      </trkpt>
      <trkpt lat="48.20003" lon="-3.74098">
        <ele>106.7</ele>
        <time>2017-09-23T08:58:03.000Z</time>
      </trkpt>
      <trkpt lat="48.20004" lon="-3.74098">
        <ele>106.7</ele>
        <time>2017-09-23T08:58:04.000Z</time>
      </trkpt>
      <trkpt lat="48.20005" lon="-3.74098">
        <ele>106.7</ele>
        <time>2017-09-23T08:58:05.000Z</time>
      </trkpt>
      <trkpt lat="48.20007" lon="-3.74098">
        <ele>106.7</ele>
        <time>2017-09-23T08:58:06.000Z</time>
      </trkpt>
      <trkpt lat="48.20008" lon="-3.74099">
        <ele>106.6</ele>
        <time>2017-09-23T08:58:07.000Z</time>
      </trkpt>
      <trkpt lat="48.20009" lon="-3.74099">
        <ele>106.6</ele>
        <time>2017-09-23T08:58:08.000Z</time>
      </trkpt>
      <trkpt lat="48.2001" lon="-3.741">
        <ele>106.6</ele>
        <time>2017-09-23T08:58:09.000Z</time>
      </trkpt>
      <trkpt lat="48.20011" lon="-3.74101">
        <ele>106.6</ele>
        <time>2017-09-23T08:58:10.000Z</time>
      </trkpt>
      <trkpt lat="48.20012" lon="-3.74102">
        <ele>106.6</ele>
        <time>2017-09-23T08:58:11.000Z</time>
      </trkpt>
      <trkpt lat="48.20013" lon="-3.74102">
        <ele>106.6</ele>
        <time>2017-09-23T08:58:12.000Z</time>
      </trkpt>
      <trkpt lat="48.20014" lon="-3.74103">
        <ele>106.6</ele>
        <time>2017-09-23T08:58:13.000Z</time>
      </trkpt>
      <trkpt lat="48.20015" lon="-3.74104">
        <ele>106.5</ele>
        <time>2017-09-23T08:58:14.000Z</time>
      </trkpt>
      <trkpt lat="48.20016" lon="-3.74105">
        <ele>106.5</ele>
        <time>2017-09-23T08:58:15.000Z</time>
      </trkpt>
      <trkpt lat="48.20017" lon="-3.74107">
        <ele>106.5</ele>
        <time>2017-09-23T08:58:16.000Z</time>
      </trkpt>
      <trkpt lat="48.20018" lon="-3.74108">
        <ele>106.5</ele>
        <time>2017-09-23T08:58:17.000Z</time>
      </trkpt>
      <trkpt lat="48.20019" lon="-3.74109">
        <ele>106.5</ele>
        <time>2017-09-23T08:58:18.000Z</time>
      </trkpt>
      <trkpt lat="48.2002" lon="-3.7411">
        <ele>106.4</ele>
        <time>2017-09-23T08:58:19.000Z</time>
      </trkpt>
      <trkpt lat="48.20021" lon="-3.74111">
        <ele>106.4</ele>
        <time>2017-09-23T08:58:20.000Z</time>
      </trkpt>
      <trkpt lat="48.20022" lon="-3.74113">
        <ele>106.4</ele>
        <time>2017-09-23T08:58:21.000Z</time>
      </trkpt>
      <trkpt lat="48.20023" lon="-3.74114">
        <ele>106.4</ele>
        <time>2017-09-23T08:58:22.000Z</time>
      </trkpt>
      <trkpt lat="48.20024" lon="-3.74115">
        <ele>106.3</ele>
        <time>2017-09-23T08:58:23.000Z</time>
      </trkpt>
      <trkpt lat="48.20025" lon="-3.74117">
        <ele>106.3</ele>
        <time>2017-09-23T08:58:24.000Z</time>
      </trkpt>
      <trkpt lat="48.20025" lon="-3.74118">
        <ele>106.3</ele>
        <time>2017-09-23T08:58:25.000Z</time>
      </trkpt>
      <trkpt lat="48.20026" lon="-3.7412">
        <ele>106.3</ele>
        <time>2017-09-23T08:58:26.000Z</time>
      </trkpt>
      <trkpt lat="48.20027" lon="-3.74121">
        <ele>106.2</ele>
        <time>2017-09-23T08:58:27.000Z</time>
      </trkpt>
      <trkpt lat="48.20028" lon="-3.74123">
        <ele>106.2</ele>
        <time>2017-09-23T08:58:28.000Z</time>
      </trkpt>
      <trkpt lat="48.20029" lon="-3.74124">
        <ele>106.2</ele>
        <time>2017-09-23T08:58:29.000Z</time>
      </trkpt>
      <trkpt lat="48.20029" lon="-3.74125">
        <ele>106.2</ele>
        <time>2017-09-23T08:58:30.000Z</time>
      </trkpt>
      <trkpt lat="48.2003" lon="-3.74127">
        <ele>106.1</ele>
        <time>2017-09-23T08:58:31.000Z</time>
      </trkpt>
      <trkpt lat="48.20031" lon="-3.74128">
        <ele>106.1</ele>
        <time>2017-09-23T08:58:32.000Z</time>
      </trkpt>
      <trkpt lat="48.20032" lon="-3.7413">
        <ele>106.1</ele>
        <time>2017-09-23T08:58:33.000Z</time>
      </trkpt>
      <trkpt lat="48.20033" lon="-3.74131">
        <ele>106.1</ele>
        <time>2017-09-23T08:58:34.000Z</time>
      </trkpt>
      <trkpt lat="48.20033" lon="-3.74133">
        <ele>106</ele>
        <time>2017-09-23T08:58:35.000Z</time>
      </trkpt>
      <trkpt lat="48.20034" lon="-3.74135">
        <ele>106</ele>
        <time>2017-09-23T08:58:36.000Z</time>
      </trkpt>
      <trkpt lat="48.20035" lon="-3.74136">
        <ele>106</ele>
        <time>2017-09-23T08:58:37.000Z</time>
      </trkpt>
      <trkpt lat="48.20036" lon="-3.74138">
        <ele>106</ele>
        <time>2017-09-23T08:58:38.000Z</time>
      </trkpt>
      <trkpt lat="48.20036" lon="-3.7414">
        <ele>105.9</ele>
        <time>2017-09-23T08:58:39.000Z</time>
      </trkpt>
      <trkpt lat="48.20037" lon="-3.74141">
        <ele>105.9</ele>
        <time>2017-09-23T08:58:40.000Z</time>
      </trkpt>
      <trkpt lat="48.20038" lon="-3.74143">
        <ele>105.9</ele>
        <time>2017-09-23T08:58:41.000Z</time>
      </trkpt>
      <trkpt lat="48.20038" lon="-3.74145">
        <ele>105.9</ele>
        <time>2017-09-23T08:58:42.000Z</time>
      </trkpt>
      <trkpt lat="48.20039" lon="-3.74146">
        <ele>105.8</ele>
        <time>2017-09-23T08:58:43.000Z</time>
      </trkpt>
      <trkpt lat="48.2004" lon="-3.74148">
        <ele>105.8</ele>
        <time>2017-09-23T08:58:44.000Z</time>
      </trkpt>
      <trkpt lat="48.2004" lon="-3.74149">
        <ele>105.8</ele>
        <time>2017-09-23T08:58:45.000Z</time>
      </trkpt>
      <trkpt lat="48.20041" lon="-3.7415">
        <ele>105.8</ele>
        <time>2017-09-23T08:58:46.000Z</time>
      </trkpt>
      <trkpt lat="48.20042" lon="-3.74152">
        <ele>105.8</ele>
        <time>2017-09-23T08:58:47.000Z</time>
      </trkpt>
      <trkpt lat="48.20043" lon="-3.74153">
        <ele>105.8</ele>
        <time>2017-09-23T08:58:48.000Z</time>
      </trkpt>
      <trkpt lat="48.20044" lon="-3.74154">
        <ele>105.7</ele>
        <time>2017-09-23T08:58:49.000Z</time>
      </trkpt>
      <trkpt lat="48.20045" lon="-3.74155">
        <ele>105.7</ele>
        <time>2017-09-23T08:58:50.000Z</time>
      </trkpt>
      <trkpt lat="48.20046" lon="-3.74156">
        <ele>105.7</ele>
        <time>2017-09-23T08:58:51.000Z</time>
      </trkpt>
      <trkpt lat="48.20047" lon="-3.74157">
        <ele>105.7</ele>
        <time>2017-09-23T08:58:52.000Z</time>
      </trkpt>
      <trkpt lat="48.20048" lon="-3.74158">
        <ele>105.7</ele>
        <time>2017-09-23T08:58:53.000Z</time>
      </trkpt>
      <trkpt lat="48.20049" lon="-3.74159">
        <ele>105.7</ele>
        <time>2017-09-23T08:58:54.000Z</time>
      </trkpt>
      <trkpt lat="48.2005" lon="-3.7416">
        <ele>105.7</ele>
        <time>2017-09-23T08:58:55.000Z</time>
      </trkpt>
      <trkpt lat="48.20051" lon="-3.7416">
        <ele>105.7</ele>
        <time>2017-09-23T08:58:56.000Z</time>
      </trkpt>
      <trkpt lat="48.20052" lon="-3.74161">
        <ele>105.7</ele>
        <time>2017-09-23T08:58:57.000Z</time>
      </trkpt>
      <trkpt lat="48.20054" lon="-3.74161">
        <ele>105.7</ele>
        <time>2017-09-23T08:58:58.000Z</time>
      </trkpt>
      <trkpt lat="48.20055" lon="-3.74162">
        <ele>105.7</ele>
        <time>2017-09-23T08:58:59.000Z</time>
      </trkpt>
      <trkpt lat="48.20056" lon="-3.74162">
        <ele>105.7</ele>
        <time>2017-09-23T08:59:00.000Z</time>
      </trkpt>
      <trkpt lat="48.20057" lon="-3.74162">
        <ele>105.8</ele>
        <time>2017-09-23T08:59:01.000Z</time>
      </trkpt>
      <trkpt lat="48.20058" lon="-3.74162">
        <ele>105.8</ele>
        <time>2017-09-23T08:59:02.000Z</time>
      </trkpt>
      <trkpt lat="48.20059" lon="-3.74162">
        <ele>105.8</ele>
        <time>2017-09-23T08:59:03.000Z</time>
      </trkpt>
      <trkpt lat="48.2006" lon="-3.74162">
        <ele>105.8</ele>
        <time>2017-09-23T08:59:04.000Z</time>
      </trkpt>
      <trkpt lat="48.20061" lon="-3.74162">
        <ele>105.8</ele>
        <time>2017-09-23T08:59:05.000Z</time>
      </trkpt>
      <trkpt lat="48.20063" lon="-3.74161">
        <ele>105.8</ele>
        <time>2017-09-23T08:59:06.000Z</time>
      </trkpt>
      <trkpt lat="48.20064" lon="-3.74161">
        <ele>105.8</ele>
        <time>2017-09-23T08:59:07.000Z</time>
      </trkpt>
      <trkpt lat="48.20065" lon="-3.74161">
        <ele>105.9</ele>
        <time>2017-09-23T08:59:08.000Z</time>
      </trkpt>
      <trkpt lat="48.20066" lon="-3.74161">
        <ele>105.9</ele>
        <time>2017-09-23T08:59:09.000Z</time>
      </trkpt>
      <trkpt lat="48.20067" lon="-3.74161">
        <ele>105.9</ele>
        <time>2017-09-23T08:59:10.000Z</time>
      </trkpt>
      <trkpt lat="48.20068" lon="-3.7416">
        <ele>105.9</ele>
        <time>2017-09-23T08:59:11.000Z</time>
      </trkpt>
      <trkpt lat="48.20069" lon="-3.7416">
        <ele>105.9</ele>
        <time>2017-09-23T08:59:12.000Z</time>
      </trkpt>
      <trkpt lat="48.2007" lon="-3.74161">
        <ele>105.9</ele>
        <time>2017-09-23T08:59:13.000Z</time>
      </trkpt>
      <trkpt lat="48.20071" lon="-3.74161">
        <ele>105.9</ele>
        <time>2017-09-23T08:59:14.000Z</time>
      </trkpt>
      <trkpt lat="48.20072" lon="-3.74161">
        <ele>105.9</ele>
        <time>2017-09-23T08:59:15.000Z</time>
      </trkpt>
      <trkpt lat="48.20074" lon="-3.74162">
        <ele>106</ele>
        <time>2017-09-23T08:59:16.000Z</time>
      </trkpt>
      <trkpt lat="48.20075" lon="-3.74162">
        <ele>106</ele>
        <time>2017-09-23T08:59:17.000Z</time>
      </trkpt>
      <trkpt lat="48.20076" lon="-3.74163">
        <ele>106</ele>
        <time>2017-09-23T08:59:18.000Z</time>
      </trkpt>
      <trkpt lat="48.20077" lon="-3.74163">
        <ele>106</ele>
        <time>2017-09-23T08:59:19.000Z</time>
      </trkpt>
      <trkpt lat="48.20078" lon="-3.74164">
        <ele>106</ele>
        <time>2017-09-23T08:59:20.000Z</time>
      </trkpt>
      <trkpt lat="48.20079" lon="-3.74164">
        <ele>106</ele>
        <time>2017-09-23T08:59:21.000Z</time>
      </trkpt>
      <trkpt lat="48.2008" lon="-3.74165">
        <ele>106</ele>
        <time>2017-09-23T08:59:22.000Z</time>
      </trkpt>
      <trkpt lat="48.20082" lon="-3.74165">
        <ele>106</ele>
        <time>2017-09-23T08:59:23.000Z</time>
      </trkpt>
      <trkpt lat="48.20083" lon="-3.74166">
        <ele>106</ele>
        <time>2017-09-23T08:59:24.000Z</time>
      </trkpt>
      <trkpt lat="48.20084" lon="-3.74166">
        <ele>106</ele>
        <time>2017-09-23T08:59:25.000Z</time>
      </trkpt>
      <trkpt lat="48.20085" lon="-3.74167">
        <ele>105.9</ele>
        <time>2017-09-23T08:59:26.000Z</time>
      </trkpt>
      <trkpt lat="48.20086" lon="-3.74167">
        <ele>105.9</ele>
        <time>2017-09-23T08:59:27.000Z</time>
      </trkpt>
      <trkpt lat="48.20087" lon="-3.74168">
        <ele>105.8</ele>
        <time>2017-09-23T08:59:28.000Z</time>
      </trkpt>
      <trkpt lat="48.20089" lon="-3.74168">
        <ele>105.7</ele>
        <time>2017-09-23T08:59:29.000Z</time>
      </trkpt>
      <trkpt lat="48.2009" lon="-3.74168">
        <ele>105.6</ele>
        <time>2017-09-23T08:59:30.000Z</time>
      </trkpt>
      <trkpt lat="48.20091" lon="-3.74169">
        <ele>105.6</ele>
        <time>2017-09-23T08:59:31.000Z</time>
      </trkpt>
      <trkpt lat="48.20092" lon="-3.74169">
        <ele>105.5</ele>
        <time>2017-09-23T08:59:32.000Z</time>
      </trkpt>
      <trkpt lat="48.20094" lon="-3.74169">
        <ele>105.5</ele>
        <time>2017-09-23T08:59:33.000Z</time>
      </trkpt>
      <trkpt lat="48.20095" lon="-3.7417">
        <ele>105.4</ele>
        <time>2017-09-23T08:59:34.000Z</time>
      </trkpt>
      <trkpt lat="48.20096" lon="-3.7417">
        <ele>105.3</ele>
        <time>2017-09-23T08:59:35.000Z</time>
      </trkpt>
      <trkpt lat="48.20097" lon="-3.7417">
        <ele>105.3</ele>
        <time>2017-09-23T08:59:36.000Z</time>
      </trkpt>
      <trkpt lat="48.20099" lon="-3.7417">
        <ele>105.2</ele>
        <time>2017-09-23T08:59:37.000Z</time>
      </trkpt>
      <trkpt lat="48.201" lon="-3.7417">
        <ele>105.2</ele>
        <time>2017-09-23T08:59:38.000Z</time>
      </trkpt>
      <trkpt lat="48.20101" lon="-3.74171">
        <ele>105.1</ele>
        <time>2017-09-23T08:59:39.000Z</time>
      </trkpt>
      <trkpt lat="48.20102" lon="-3.74171">
        <ele>105</ele>
        <time>2017-09-23T08:59:40.000Z</time>
      </trkpt>
      <trkpt lat="48.20103" lon="-3.74171">
        <ele>105</ele>
        <time>2017-09-23T08:59:41.000Z</time>
      </trkpt>
      <trkpt lat="48.20105" lon="-3.74171">
        <ele>104.9</ele>
        <time>2017-09-23T08:59:42.000Z</time>
      </trkpt>
      <trkpt lat="48.20106" lon="-3.74171">
        <ele>104.9</ele>
        <time>2017-09-23T08:59:43.000Z</time>
      </trkpt>
      <trkpt lat="48.20107" lon="-3.74171">
        <ele>104.8</ele>
        <time>2017-09-23T08:59:44.000Z</time>
      </trkpt>
      <trkpt lat="48.20108" lon="-3.74171">
        <ele>104.8</ele>
        <time>2017-09-23T08:59:45.000Z</time>
      </trkpt>
      <trkpt lat="48.20109" lon="-3.74171">
        <ele>104.7</ele>
        <time>2017-09-23T08:59:46.000Z</time>
      </trkpt>
      <trkpt lat="48.2011" lon="-3.74171">
        <ele>104.6</ele>
        <time>2017-09-23T08:59:47.000Z</time>
      </trkpt>
      <trkpt lat="48.20112" lon="-3.74171">
        <ele>104.6</ele>
        <time>2017-09-23T08:59:48.000Z</time>
      </trkpt>
      <trkpt lat="48.20113" lon="-3.74171">
        <ele>104.5</ele>
        <time>2017-09-23T08:59:49.000Z</time>
      </trkpt>
      <trkpt lat="48.20114" lon="-3.74172">
        <ele>104.5</ele>
        <time>2017-09-23T08:59:50.000Z</time>
      </trkpt>
      <trkpt lat="48.20115" lon="-3.74172">
        <ele>104.4</ele>
        <time>2017-09-23T08:59:51.000Z</time>
      </trkpt>
      <trkpt lat="48.20117" lon="-3.74172">
        <ele>104.4</ele>
        <time>2017-09-23T08:59:52.000Z</time>
      </trkpt>
      <trkpt lat="48.20118" lon="-3.74172">
        <ele>104.3</ele>
        <time>2017-09-23T08:59:53.000Z</time>
      </trkpt>
      <trkpt lat="48.20119" lon="-3.74173">
        <ele>104.2</ele>
        <time>2017-09-23T08:59:54.000Z</time>
      </trkpt>
      <trkpt lat="48.2012" lon="-3.74173">
        <ele>104.2</ele>
        <time>2017-09-23T08:59:55.000Z</time>
      </trkpt>
      <trkpt lat="48.20122" lon="-3.74173">
        <ele>104.1</ele>
        <time>2017-09-23T08:59:56.000Z</time>
      </trkpt>
      <trkpt lat="48.20123" lon="-3.74174">
        <ele>104.1</ele>
        <time>2017-09-23T08:59:57.000Z</time>
      </trkpt>
      <trkpt lat="48.20124" lon="-3.74174">
        <ele>104</ele>
        <time>2017-09-23T08:59:58.000Z</time>
      </trkpt>
      <trkpt lat="48.20125" lon="-3.74174">
        <ele>103.9</ele>
        <time>2017-09-23T08:59:59.000Z</time>
      </trkpt>
      <trkpt lat="48.20127" lon="-3.74175">
        <ele>103.9</ele>
        <time>2017-09-23T09:00:00.000Z</time>
      </trkpt>
      <trkpt lat="48.20128" lon="-3.74175">
        <ele>103.8</ele>
        <time>2017-09-23T09:00:01.000Z</time>
      </trkpt>
      <trkpt lat="48.20129" lon="-3.74175">
        <ele>103.8</ele>
        <time>2017-09-23T09:00:02.000Z</time>
      </trkpt>
      <trkpt lat="48.20131" lon="-3.74176">
        <ele>103.7</ele>
        <time>2017-09-23T09:00:03.000Z</time>
      </trkpt>
      <trkpt lat="48.20132" lon="-3.74176">
        <ele>103.6</ele>
        <time>2017-09-23T09:00:04.000Z</time>
      </trkpt>
      <trkpt lat="48.20133" lon="-3.74176">
        <ele>103.6</ele>
        <time>2017-09-23T09:00:05.000Z</time>
      </trkpt>
      <trkpt lat="48.20134" lon="-3.74176">
        <ele>103.5</ele>
        <time>2017-09-23T09:00:06.000Z</time>
      </trkpt>
      <trkpt lat="48.20136" lon="-3.74176">
        <ele>103.5</ele>
        <time>2017-09-23T09:00:07.000Z</time>
      </trkpt>
      <trkpt lat="48.20137" lon="-3.74176">
        <ele>103.4</ele>
        <time>2017-09-23T09:00:08.000Z</time>
      </trkpt>
      <trkpt lat="48.20138" lon="-3.74176">
        <ele>103.4</ele>
        <time>2017-09-23T09:00:09.000Z</time>
      </trkpt>
      <trkpt lat="48.2014" lon="-3.74176">
        <ele>103.3</ele>
        <time>2017-09-23T09:00:10.000Z</time>
      </trkpt>
      <trkpt lat="48.20141" lon="-3.74176">
        <ele>103.2</ele>
        <time>2017-09-23T09:00:11.000Z</time>
      </trkpt>
      <trkpt lat="48.20142" lon="-3.74176">
        <ele>103.2</ele>
        <time>2017-09-23T09:00:12.000Z</time>
      </trkpt>
      <trkpt lat="48.20143" lon="-3.74175">
        <ele>103.1</ele>
        <time>2017-09-23T09:00:13.000Z</time>
      </trkpt>
      <trkpt lat="48.20145" lon="-3.74175">
        <ele>103.1</ele>
        <time>2017-09-23T09:00:14.000Z</time>
      </trkpt>
      <trkpt lat="48.20146" lon="-3.74175">
        <ele>103</ele>
        <time>2017-09-23T09:00:15.000Z</time>
      </trkpt>
      <trkpt lat="48.20147" lon="-3.74175">
        <ele>103</ele>
        <time>2017-09-23T09:00:16.000Z</time>
      </trkpt>
      <trkpt lat="48.20148" lon="-3.74175">
        <ele>102.9</ele>
        <time>2017-09-23T09:00:17.000Z</time>
      </trkpt>
      <trkpt lat="48.2015" lon="-3.74175">
        <ele>102.9</ele>
        <time>2017-09-23T09:00:18.000Z</time>
      </trkpt>
      <trkpt lat="48.20151" lon="-3.74175">
        <ele>102.8</ele>
        <time>2017-09-23T09:00:19.000Z</time>
      </trkpt>
      <trkpt lat="48.20152" lon="-3.74174">
        <ele>102.7</ele>
        <time>2017-09-23T09:00:20.000Z</time>
      </trkpt>
      <trkpt lat="48.20153" lon="-3.74174">
        <ele>102.7</ele>
        <time>2017-09-23T09:00:21.000Z</time>
      </trkpt>
      <trkpt lat="48.20155" lon="-3.74174">
        <ele>102.6</ele>
        <time>2017-09-23T09:00:22.000Z</time>
      </trkpt>
      <trkpt lat="48.20156" lon="-3.74174">
        <ele>102.6</ele>
        <time>2017-09-23T09:00:23.000Z</time>
      </trkpt>
      <trkpt lat="48.20157" lon="-3.74174">
        <ele>102.5</ele>
        <time>2017-09-23T09:00:24.000Z</time>
      </trkpt>
      <trkpt lat="48.20159" lon="-3.74174">
        <ele>102.5</ele>
        <time>2017-09-23T09:00:25.000Z</time>
      </trkpt>
      <trkpt lat="48.2016" lon="-3.74174">
        <ele>102.4</ele>
        <time>2017-09-23T09:00:26.000Z</time>
      </trkpt>
      <trkpt lat="48.20161" lon="-3.74174">
        <ele>102.3</ele>
        <time>2017-09-23T09:00:27.000Z</time>
      </trkpt>
      <trkpt lat="48.20163" lon="-3.74173">
        <ele>102.3</ele>
        <time>2017-09-23T09:00:28.000Z</time>
      </trkpt>
      <trkpt lat="48.20164" lon="-3.74173">
        <ele>102.2</ele>
        <time>2017-09-23T09:00:29.000Z</time>
      </trkpt>
      <trkpt lat="48.20165" lon="-3.74173">
        <ele>102.1</ele>
        <time>2017-09-23T09:00:30.000Z</time>
      </trkpt>
      <trkpt lat="48.20167" lon="-3.74173">
        <ele>102.1</ele>
        <time>2017-09-23T09:00:31.000Z</time>
      </trkpt>
      <trkpt lat="48.20168" lon="-3.74173">
        <ele>101.8</ele>
        <time>2017-09-23T09:00:32.000Z</time>
      </trkpt>
      <trkpt lat="48.20169" lon="-3.74172">
        <ele>101.5</ele>
        <time>2017-09-23T09:00:33.000Z</time>
      </trkpt>
      <trkpt lat="48.2017" lon="-3.74172">
        <ele>101.2</ele>
        <time>2017-09-23T09:00:34.000Z</time>
      </trkpt>
      <trkpt lat="48.20172" lon="-3.74171">
        <ele>100.9</ele>
        <time>2017-09-23T09:00:35.000Z</time>
      </trkpt>
      <trkpt lat="48.20173" lon="-3.74171">
        <ele>100.6</ele>
        <time>2017-09-23T09:00:36.000Z</time>
      </trkpt>
      <trkpt lat="48.20174" lon="-3.74171">
        <ele>100.3</ele>
        <time>2017-09-23T09:00:37.000Z</time>
      </trkpt>
      <trkpt lat="48.20175" lon="-3.7417">
        <ele>100</ele>
        <time>2017-09-23T09:00:38.000Z</time>
      </trkpt>
      <trkpt lat="48.20176" lon="-3.7417">
        <ele>99.8</ele>
        <time>2017-09-23T09:00:39.000Z</time>
      </trkpt>
      <trkpt lat="48.20177" lon="-3.7417">
        <ele>99.6</ele>
        <time>2017-09-23T09:00:40.000Z</time>
      </trkpt>
      <trkpt lat="48.20178" lon="-3.7417">
        <ele>99.4</ele>
        <time>2017-09-23T09:00:41.000Z</time>
      </trkpt>
      <trkpt lat="48.20178" lon="-3.7417">
        <ele>99.2</ele>
        <time>2017-09-23T09:00:42.000Z</time>
      </trkpt>
      <trkpt lat="48.20179" lon="-3.74171">
        <ele>99</ele>
        <time>2017-09-23T09:00:43.000Z</time>
      </trkpt>
      <trkpt lat="48.2018" lon="-3.74171">
        <ele>98.9</ele>
        <time>2017-09-23T09:00:44.000Z</time>
      </trkpt>
      <trkpt lat="48.2018" lon="-3.74172">
        <ele>98.8</ele>
        <time>2017-09-23T09:00:45.000Z</time>
      </trkpt>
      <trkpt lat="48.20181" lon="-3.74173">
        <ele>98.7</ele>
        <time>2017-09-23T09:00:46.000Z</time>
      </trkpt>
      <trkpt lat="48.20181" lon="-3.74174">
        <ele>98.6</ele>
        <time>2017-09-23T09:00:47.000Z</time>
      </trkpt>
      <trkpt lat="48.20182" lon="-3.74175">
        <ele>98.5</ele>
        <time>2017-09-23T09:00:48.000Z</time>
      </trkpt>
      <trkpt lat="48.20183" lon="-3.74176">
        <ele>98.4</ele>
        <time>2017-09-23T09:00:49.000Z</time>
      </trkpt>
      <trkpt lat="48.20183" lon="-3.74177">
        <ele>98.3</ele>
        <time>2017-09-23T09:00:50.000Z</time>
      </trkpt>
      <trkpt lat="48.20184" lon="-3.74178">
        <ele>98.2</ele>
        <time>2017-09-23T09:00:51.000Z</time>
      </trkpt>
      <trkpt lat="48.20184" lon="-3.7418">
        <ele>98.1</ele>
        <time>2017-09-23T09:00:52.000Z</time>
      </trkpt>
      <trkpt lat="48.20185" lon="-3.74181">
        <ele>98</ele>
        <time>2017-09-23T09:00:53.000Z</time>
      </trkpt>
      <trkpt lat="48.20186" lon="-3.74182">
        <ele>98</ele>
        <time>2017-09-23T09:00:54.000Z</time>
      </trkpt>
      <trkpt lat="48.20186" lon="-3.74183">
        <ele>97.9</ele>
        <time>2017-09-23T09:00:55.000Z</time>
      </trkpt>
      <trkpt lat="48.20187" lon="-3.74184">
        <ele>97.8</ele>
        <time>2017-09-23T09:00:56.000Z</time>
      </trkpt>
      <trkpt lat="48.20187" lon="-3.74186">
        <ele>97.8</ele>
        <time>2017-09-23T09:00:57.000Z</time>
      </trkpt>
      <trkpt lat="48.20188" lon="-3.74187">
        <ele>97.7</ele>
        <time>2017-09-23T09:00:58.000Z</time>
      </trkpt>
      <trkpt lat="48.20188" lon="-3.74188">
        <ele>97.7</ele>
        <time>2017-09-23T09:00:59.000Z</time>
      </trkpt>
      <trkpt lat="48.20189" lon="-3.74189">
        <ele>97.6</ele>
        <time>2017-09-23T09:01:00.000Z</time>
      </trkpt>
      <trkpt lat="48.20189" lon="-3.7419">
        <ele>97.6</ele>
        <time>2017-09-23T09:01:01.000Z</time>
      </trkpt>
      <trkpt lat="48.2019" lon="-3.74192">
        <ele>97.5</ele>
        <time>2017-09-23T09:01:02.000Z</time>
      </trkpt>
      <trkpt lat="48.2019" lon="-3.74193">
        <ele>97.5</ele>
        <time>2017-09-23T09:01:03.000Z</time>
      </trkpt>
      <trkpt lat="48.20191" lon="-3.74194">
        <ele>97.4</ele>
        <time>2017-09-23T09:01:04.000Z</time>
      </trkpt>
      <trkpt lat="48.20192" lon="-3.74195">
        <ele>97.4</ele>
        <time>2017-09-23T09:01:05.000Z</time>
      </trkpt>
      <trkpt lat="48.20192" lon="-3.74196">
        <ele>97.3</ele>
        <time>2017-09-23T09:01:06.000Z</time>
      </trkpt>
      <trkpt lat="48.20193" lon="-3.74197">
        <ele>97.3</ele>
        <time>2017-09-23T09:01:07.000Z</time>
      </trkpt>
      <trkpt lat="48.20193" lon="-3.74199">
        <ele>97.3</ele>
        <time>2017-09-23T09:01:08.000Z</time>
      </trkpt>
      <trkpt lat="48.20194" lon="-3.742">
        <ele>97.2</ele>
        <time>2017-09-23T09:01:09.000Z</time>
      </trkpt>
      <trkpt lat="48.20195" lon="-3.74201">
        <ele>97.2</ele>
        <time>2017-09-23T09:01:10.000Z</time>
      </trkpt>
      <trkpt lat="48.20195" lon="-3.74202">
        <ele>97.2</ele>
        <time>2017-09-23T09:01:11.000Z</time>
      </trkpt>
      <trkpt lat="48.20196" lon="-3.74204">
        <ele>97.1</ele>
        <time>2017-09-23T09:01:12.000Z</time>
      </trkpt>
      <trkpt lat="48.20196" lon="-3.74205">
        <ele>97.1</ele>
        <time>2017-09-23T09:01:13.000Z</time>
      </trkpt>
      <trkpt lat="48.20197" lon="-3.74207">
        <ele>97.1</ele>
        <time>2017-09-23T09:01:14.000Z</time>
      </trkpt>
      <trkpt lat="48.20197" lon="-3.74208">
        <ele>97.1</ele>
        <time>2017-09-23T09:01:15.000Z</time>
      </trkpt>
      <trkpt lat="48.20198" lon="-3.74209">
        <ele>97.1</ele>
        <time>2017-09-23T09:01:16.000Z</time>
      </trkpt>
      <trkpt lat="48.20199" lon="-3.74211">
        <ele>97.1</ele>
        <time>2017-09-23T09:01:17.000Z</time>
      </trkpt>
      <trkpt lat="48.20199" lon="-3.74212">
        <ele>97.2</ele>
        <time>2017-09-23T09:01:18.000Z</time>
      </trkpt>
      <trkpt lat="48.202" lon="-3.74214">
        <ele>97.2</ele>
        <time>2017-09-23T09:01:19.000Z</time>
      </trkpt>
      <trkpt lat="48.202" lon="-3.74215">
        <ele>97.2</ele>
        <time>2017-09-23T09:01:20.000Z</time>
      </trkpt>
      <trkpt lat="48.20201" lon="-3.74217">
        <ele>97.2</ele>
        <time>2017-09-23T09:01:21.000Z</time>
      </trkpt>
      <trkpt lat="48.20201" lon="-3.74219">
        <ele>97.2</ele>
        <time>2017-09-23T09:01:22.000Z</time>
      </trkpt>
      <trkpt lat="48.20202" lon="-3.7422">
        <ele>97.3</ele>
        <time>2017-09-23T09:01:23.000Z</time>
      </trkpt>
      <trkpt lat="48.20203" lon="-3.74222">
        <ele>97.3</ele>
        <time>2017-09-23T09:01:24.000Z</time>
      </trkpt>
      <trkpt lat="48.20203" lon="-3.74223">
        <ele>97.3</ele>
        <time>2017-09-23T09:01:25.000Z</time>
      </trkpt>
      <trkpt lat="48.20204" lon="-3.74225">
        <ele>97.3</ele>
        <time>2017-09-23T09:01:26.000Z</time>
      </trkpt>
      <trkpt lat="48.20205" lon="-3.74227">
        <ele>97.4</ele>
        <time>2017-09-23T09:01:27.000Z</time>
      </trkpt>
      <trkpt lat="48.20206" lon="-3.74228">
        <ele>97.4</ele>
        <time>2017-09-23T09:01:28.000Z</time>
      </trkpt>
      <trkpt lat="48.20206" lon="-3.7423">
        <ele>97.5</ele>
        <time>2017-09-23T09:01:29.000Z</time>
      </trkpt>
      <trkpt lat="48.20207" lon="-3.74231">
        <ele>97.5</ele>
        <time>2017-09-23T09:01:30.000Z</time>
      </trkpt>
      <trkpt lat="48.20208" lon="-3.74233">
        <ele>97.5</ele>
        <time>2017-09-23T09:01:31.000Z</time>
      </trkpt>
      <trkpt lat="48.20208" lon="-3.74234">
        <ele>97.6</ele>
        <time>2017-09-23T09:01:32.000Z</time>
      </trkpt>
      <trkpt lat="48.20209" lon="-3.74236">
        <ele>97.6</ele>
        <time>2017-09-23T09:01:33.000Z</time>
      </trkpt>
      <trkpt lat="48.2021" lon="-3.74237">
        <ele>97.7</ele>
        <time>2017-09-23T09:01:34.000Z</time>
      </trkpt>
      <trkpt lat="48.20211" lon="-3.74239">
        <ele>97.7</ele>
        <time>2017-09-23T09:01:35.000Z</time>
      </trkpt>
      <trkpt lat="48.20211" lon="-3.7424">
        <ele>97.8</ele>
        <time>2017-09-23T09:01:36.000Z</time>
      </trkpt>
      <trkpt lat="48.20212" lon="-3.74242">
        <ele>97.8</ele>
        <time>2017-09-23T09:01:37.000Z</time>
      </trkpt>
      <trkpt lat="48.20213" lon="-3.74243">
        <ele>97.9</ele>
        <time>2017-09-23T09:01:38.000Z</time>
      </trkpt>
      <trkpt lat="48.20213" lon="-3.74244">
        <ele>98</ele>
        <time>2017-09-23T09:01:39.000Z</time>
      </trkpt>
      <trkpt lat="48.20214" lon="-3.74246">
        <ele>98</ele>
        <time>2017-09-23T09:01:40.000Z</time>
      </trkpt>
      <trkpt lat="48.20215" lon="-3.74247">
        <ele>98.1</ele>
        <time>2017-09-23T09:01:41.000Z</time>
      </trkpt>
      <trkpt lat="48.20215" lon="-3.74248">
        <ele>98.1</ele>
        <time>2017-09-23T09:01:42.000Z</time>
      </trkpt>
      <trkpt lat="48.20216" lon="-3.74249">
        <ele>98.2</ele>
        <time>2017-09-23T09:01:43.000Z</time>
      </trkpt>
      <trkpt lat="48.20216" lon="-3.7425">
        <ele>98.2</ele>
        <time>2017-09-23T09:01:44.000Z</time>
      </trkpt>
      <trkpt lat="48.20217" lon="-3.74252">
        <ele>98.2</ele>
        <time>2017-09-23T09:01:45.000Z</time>
      </trkpt>
      <trkpt lat="48.20218" lon="-3.74253">
        <ele>98.2</ele>
        <time>2017-09-23T09:01:46.000Z</time>
      </trkpt>
      <trkpt lat="48.20218" lon="-3.74254">
        <ele>98.2</ele>
        <time>2017-09-23T09:01:47.000Z</time>
      </trkpt>
      <trkpt lat="48.20218" lon="-3.74255">
        <ele>98.2</ele>
        <time>2017-09-23T09:01:48.000Z</time>
      </trkpt>
      <trkpt lat="48.20219" lon="-3.74256">
        <ele>98.2</ele>
        <time>2017-09-23T09:01:49.000Z</time>
      </trkpt>
      <trkpt lat="48.20219" lon="-3.74258">
        <ele>98.3</ele>
        <time>2017-09-23T09:01:50.000Z</time>
      </trkpt>
      <trkpt lat="48.2022" lon="-3.74259">
        <ele>98.3</ele>
        <time>2017-09-23T09:01:51.000Z</time>
      </trkpt>
      <trkpt lat="48.2022" lon="-3.74261">
        <ele>98.3</ele>
        <time>2017-09-23T09:01:52.000Z</time>
      </trkpt>
      <trkpt lat="48.2022" lon="-3.74263">
        <ele>98.3</ele>
        <time>2017-09-23T09:01:53.000Z</time>
      </trkpt>
      <trkpt lat="48.20221" lon="-3.74265">
        <ele>98.4</ele>
        <time>2017-09-23T09:01:54.000Z</time>
      </trkpt>
      <trkpt lat="48.20222" lon="-3.74267">
        <ele>98.4</ele>
        <time>2017-09-23T09:01:55.000Z</time>
      </trkpt>
      <trkpt lat="48.20222" lon="-3.7427">
        <ele>98.4</ele>
        <time>2017-09-23T09:01:56.000Z</time>
      </trkpt>
      <trkpt lat="48.20223" lon="-3.74271">
        <ele>98.4</ele>
        <time>2017-09-23T09:01:57.000Z</time>
      </trkpt>
      <trkpt lat="48.20224" lon="-3.74273">
        <ele>98.4</ele>
        <time>2017-09-23T09:01:58.000Z</time>
      </trkpt>
      <trkpt lat="48.20225" lon="-3.74274">
        <ele>98.4</ele>
        <time>2017-09-23T09:01:59.000Z</time>
      </trkpt>
      <trkpt lat="48.20226" lon="-3.74275">
        <ele>98.4</ele>
        <time>2017-09-23T09:02:00.000Z</time>
      </trkpt>
      <trkpt lat="48.20227" lon="-3.74276">
        <ele>98.3</ele>
        <time>2017-09-23T09:02:01.000Z</time>
      </trkpt>
      <trkpt lat="48.20228" lon="-3.74277">
        <ele>98.3</ele>
        <time>2017-09-23T09:02:02.000Z</time>
      </trkpt>
      <trkpt lat="48.20229" lon="-3.74278">
        <ele>98.3</ele>
        <time>2017-09-23T09:02:03.000Z</time>
      </trkpt>
      <trkpt lat="48.20229" lon="-3.74279">
        <ele>98.3</ele>
        <time>2017-09-23T09:02:04.000Z</time>
      </trkpt>
      <trkpt lat="48.2023" lon="-3.74281">
        <ele>98.3</ele>
        <time>2017-09-23T09:02:05.000Z</time>
      </trkpt>
      <trkpt lat="48.20231" lon="-3.74283">
        <ele>98.3</ele>
        <time>2017-09-23T09:02:06.000Z</time>
      </trkpt>
      <trkpt lat="48.20232" lon="-3.74284">
        <ele>98.4</ele>
        <time>2017-09-23T09:02:07.000Z</time>
      </trkpt>
      <trkpt lat="48.20232" lon="-3.74286">
        <ele>98.4</ele>
        <time>2017-09-23T09:02:08.000Z</time>
      </trkpt>
      <trkpt lat="48.20233" lon="-3.74287">
        <ele>98.4</ele>
        <time>2017-09-23T09:02:09.000Z</time>
      </trkpt>
      <trkpt lat="48.20234" lon="-3.74289">
        <ele>98.4</ele>
        <time>2017-09-23T09:02:10.000Z</time>
      </trkpt>
      <trkpt lat="48.20235" lon="-3.74291">
        <ele>98.4</ele>
        <time>2017-09-23T09:02:11.000Z</time>
      </trkpt>
      <trkpt lat="48.20236" lon="-3.74292">
        <ele>98.5</ele>
        <time>2017-09-23T09:02:12.000Z</time>
      </trkpt>
      <trkpt lat="48.20237" lon="-3.74294">
        <ele>98.5</ele>
        <time>2017-09-23T09:02:13.000Z</time>
      </trkpt>
      <trkpt lat="48.20238" lon="-3.74295">
        <ele>98.5</ele>
        <time>2017-09-23T09:02:14.000Z</time>
      </trkpt>
      <trkpt lat="48.20239" lon="-3.74297">
        <ele>98.5</ele>
        <time>2017-09-23T09:02:15.000Z</time>
      </trkpt>
      <trkpt lat="48.2024" lon="-3.74298">
        <ele>98.5</ele>
        <time>2017-09-23T09:02:16.000Z</time>
      </trkpt>
      <trkpt lat="48.20241" lon="-3.74299">
        <ele>98.5</ele>
        <time>2017-09-23T09:02:17.000Z</time>
      </trkpt>
      <trkpt lat="48.20242" lon="-3.74301">
        <ele>98.5</ele>
        <time>2017-09-23T09:02:18.000Z</time>
      </trkpt>
      <trkpt lat="48.20243" lon="-3.74302">
        <ele>98.6</ele>
        <time>2017-09-23T09:02:19.000Z</time>
      </trkpt>
      <trkpt lat="48.20244" lon="-3.74303">
        <ele>98.6</ele>
        <time>2017-09-23T09:02:20.000Z</time>
      </trkpt>
      <trkpt lat="48.20245" lon="-3.74305">
        <ele>98.6</ele>
        <time>2017-09-23T09:02:21.000Z</time>
      </trkpt>
      <trkpt lat="48.20246" lon="-3.74306">
        <ele>98.6</ele>
        <time>2017-09-23T09:02:22.000Z</time>
      </trkpt>
      <trkpt lat="48.20247" lon="-3.74307">
        <ele>98.6</ele>
        <time>2017-09-23T09:02:23.000Z</time>
      </trkpt>
      <trkpt lat="48.20248" lon="-3.74309">
        <ele>98.7</ele>
        <time>2017-09-23T09:02:24.000Z</time>
      </trkpt>
      <trkpt lat="48.20249" lon="-3.7431">
        <ele>98.7</ele>
        <time>2017-09-23T09:02:25.000Z</time>
      </trkpt>
      <trkpt lat="48.20249" lon="-3.74311">
        <ele>98.7</ele>
        <time>2017-09-23T09:02:26.000Z</time>
      </trkpt>
      <trkpt lat="48.2025" lon="-3.74313">
        <ele>98.7</ele>
        <time>2017-09-23T09:02:27.000Z</time>
      </trkpt>
      <trkpt lat="48.20251" lon="-3.74314">
        <ele>98.6</ele>
        <time>2017-09-23T09:02:28.000Z</time>
      </trkpt>
      <trkpt lat="48.20252" lon="-3.74315">
        <ele>98.5</ele>
        <time>2017-09-23T09:02:29.000Z</time>
      </trkpt>
      <trkpt lat="48.20253" lon="-3.74316">
        <ele>98.4</ele>
        <time>2017-09-23T09:02:30.000Z</time>
      </trkpt>
      <trkpt lat="48.20254" lon="-3.74318">
        <ele>98.3</ele>
        <time>2017-09-23T09:02:31.000Z</time>
      </trkpt>
      <trkpt lat="48.20255" lon="-3.74319">
        <ele>98.2</ele>
        <time>2017-09-23T09:02:32.000Z</time>
      </trkpt>
      <trkpt lat="48.20256" lon="-3.7432">
        <ele>98.1</ele>
        <time>2017-09-23T09:02:33.000Z</time>
      </trkpt>
      <trkpt lat="48.20257" lon="-3.74321">
        <ele>98</ele>
        <time>2017-09-23T09:02:34.000Z</time>
      </trkpt>
      <trkpt lat="48.20257" lon="-3.74323">
        <ele>97.9</ele>
        <time>2017-09-23T09:02:35.000Z</time>
      </trkpt>
      <trkpt lat="48.20258" lon="-3.74324">
        <ele>97.8</ele>
        <time>2017-09-23T09:02:36.000Z</time>
      </trkpt>
      <trkpt lat="48.20259" lon="-3.74325">
        <ele>97.8</ele>
        <time>2017-09-23T09:02:37.000Z</time>
      </trkpt>
      <trkpt lat="48.2026" lon="-3.74326">
        <ele>97.7</ele>
        <time>2017-09-23T09:02:38.000Z</time>
      </trkpt>
      <trkpt lat="48.20261" lon="-3.74327">
        <ele>97.6</ele>
        <time>2017-09-23T09:02:39.000Z</time>
      </trkpt>
      <trkpt lat="48.20262" lon="-3.74328">
        <ele>97.5</ele>
        <time>2017-09-23T09:02:40.000Z</time>
      </trkpt>
      <trkpt lat="48.20262" lon="-3.74329">
        <ele>97.4</ele>
        <time>2017-09-23T09:02:41.000Z</time>
      </trkpt>
      <trkpt lat="48.20263" lon="-3.7433">
        <ele>97.3</ele>
        <time>2017-09-23T09:02:42.000Z</time>
      </trkpt>
      <trkpt lat="48.20264" lon="-3.74331">
        <ele>97.3</ele>
        <time>2017-09-23T09:02:43.000Z</time>
      </trkpt>
      <trkpt lat="48.20265" lon="-3.74332">
        <ele>97.2</ele>
        <time>2017-09-23T09:02:44.000Z</time>
      </trkpt>
      <trkpt lat="48.20266" lon="-3.74333">
        <ele>97.1</ele>
        <time>2017-09-23T09:02:45.000Z</time>
      </trkpt>
      <trkpt lat="48.20267" lon="-3.74333">
        <ele>97</ele>
        <time>2017-09-23T09:02:46.000Z</time>
      </trkpt>
      <trkpt lat="48.20268" lon="-3.74334">
        <ele>96.8</ele>
        <time>2017-09-23T09:02:47.000Z</time>
      </trkpt>
      <trkpt lat="48.20268" lon="-3.74335">
        <ele>96.7</ele>
        <time>2017-09-23T09:02:48.000Z</time>
      </trkpt>
      <trkpt lat="48.20269" lon="-3.74336">
        <ele>96.5</ele>
        <time>2017-09-23T09:02:49.000Z</time>
      </trkpt>
      <trkpt lat="48.2027" lon="-3.74337">
        <ele>96.4</ele>
        <time>2017-09-23T09:02:50.000Z</time>
      </trkpt>
      <trkpt lat="48.20271" lon="-3.74337">
        <ele>96.2</ele>
        <time>2017-09-23T09:02:51.000Z</time>
      </trkpt>
      <trkpt lat="48.20272" lon="-3.74338">
        <ele>96</ele>
        <time>2017-09-23T09:02:52.000Z</time>
      </trkpt>
      <trkpt lat="48.20273" lon="-3.74339">
        <ele>95.8</ele>
        <time>2017-09-23T09:02:53.000Z</time>
      </trkpt>
      <trkpt lat="48.20274" lon="-3.7434">
        <ele>95.6</ele>
        <time>2017-09-23T09:02:54.000Z</time>
      </trkpt>
      <trkpt lat="48.20276" lon="-3.74341">
        <ele>95.4</ele>
        <time>2017-09-23T09:02:55.000Z</time>
      </trkpt>
      <trkpt lat="48.20277" lon="-3.74342">
        <ele>95.2</ele>
        <time>2017-09-23T09:02:56.000Z</time>
      </trkpt>
      <trkpt lat="48.20278" lon="-3.74343">
        <ele>95</ele>
        <time>2017-09-23T09:02:57.000Z</time>
      </trkpt>
      <trkpt lat="48.20279" lon="-3.74343">
        <ele>94.9</ele>
        <time>2017-09-23T09:02:58.000Z</time>
      </trkpt>
      <trkpt lat="48.2028" lon="-3.74344">
        <ele>94.7</ele>
        <time>2017-09-23T09:02:59.000Z</time>
      </trkpt>
      <trkpt lat="48.20281" lon="-3.74345">
        <ele>94.5</ele>
        <time>2017-09-23T09:03:00.000Z</time>
      </trkpt>
      <trkpt lat="48.20282" lon="-3.74346">
        <ele>94.3</ele>
        <time>2017-09-23T09:03:01.000Z</time>
      </trkpt>
      <trkpt lat="48.20283" lon="-3.74347">
        <ele>94.1</ele>
        <time>2017-09-23T09:03:02.000Z</time>
      </trkpt>
      <trkpt lat="48.20285" lon="-3.74348">
        <ele>94</ele>
        <time>2017-09-23T09:03:03.000Z</time>
      </trkpt>
      <trkpt lat="48.20286" lon="-3.74349">
        <ele>93.8</ele>
        <time>2017-09-23T09:03:04.000Z</time>
      </trkpt>
      <trkpt lat="48.20287" lon="-3.7435">
        <ele>93.6</ele>
        <time>2017-09-23T09:03:05.000Z</time>
      </trkpt>
      <trkpt lat="48.20288" lon="-3.74351">
        <ele>93.5</ele>
        <time>2017-09-23T09:03:06.000Z</time>
      </trkpt>
      <trkpt lat="48.20289" lon="-3.74352">
        <ele>93.3</ele>
        <time>2017-09-23T09:03:07.000Z</time>
      </trkpt>
      <trkpt lat="48.2029" lon="-3.74353">
        <ele>93.2</ele>
        <time>2017-09-23T09:03:08.000Z</time>
      </trkpt>
      <trkpt lat="48.20291" lon="-3.74354">
        <ele>93</ele>
        <time>2017-09-23T09:03:09.000Z</time>
      </trkpt>
      <trkpt lat="48.20292" lon="-3.74355">
        <ele>92.9</ele>
        <time>2017-09-23T09:03:10.000Z</time>
      </trkpt>
      <trkpt lat="48.20293" lon="-3.74356">
        <ele>92.8</ele>
        <time>2017-09-23T09:03:11.000Z</time>
      </trkpt>
      <trkpt lat="48.20294" lon="-3.74357">
        <ele>92.6</ele>
        <time>2017-09-23T09:03:12.000Z</time>
      </trkpt>
      <trkpt lat="48.20294" lon="-3.74358">
        <ele>92.5</ele>
        <time>2017-09-23T09:03:13.000Z</time>
      </trkpt>
      <trkpt lat="48.20295" lon="-3.74358">
        <ele>92.4</ele>
        <time>2017-09-23T09:03:14.000Z</time>
      </trkpt>
      <trkpt lat="48.20296" lon="-3.74359">
        <ele>92.3</ele>
        <time>2017-09-23T09:03:15.000Z</time>
      </trkpt>
      <trkpt lat="48.20297" lon="-3.7436">
        <ele>92.2</ele>
        <time>2017-09-23T09:03:16.000Z</time>
      </trkpt>
      <trkpt lat="48.20298" lon="-3.7436">
        <ele>92.1</ele>
        <time>2017-09-23T09:03:17.000Z</time>
      </trkpt>
      <trkpt lat="48.20299" lon="-3.74361">
        <ele>92</ele>
        <time>2017-09-23T09:03:18.000Z</time>
      </trkpt>
      <trkpt lat="48.20299" lon="-3.74362">
        <ele>91.9</ele>
        <time>2017-09-23T09:03:19.000Z</time>
      </trkpt>
      <trkpt lat="48.203" lon="-3.74363">
        <ele>91.8</ele>
        <time>2017-09-23T09:03:20.000Z</time>
      </trkpt>
      <trkpt lat="48.20301" lon="-3.74364">
        <ele>91.7</ele>
        <time>2017-09-23T09:03:21.000Z</time>
      </trkpt>
      <trkpt lat="48.20302" lon="-3.74365">
        <ele>91.6</ele>
        <time>2017-09-23T09:03:22.000Z</time>
      </trkpt>
      <trkpt lat="48.20303" lon="-3.74366">
        <ele>91.5</ele>
        <time>2017-09-23T09:03:23.000Z</time>
      </trkpt>
      <trkpt lat="48.20304" lon="-3.74366">
        <ele>91.4</ele>
        <time>2017-09-23T09:03:24.000Z</time>
      </trkpt>
      <trkpt lat="48.20304" lon="-3.74368">
        <ele>91.3</ele>
        <time>2017-09-23T09:03:25.000Z</time>
      </trkpt>
      <trkpt lat="48.20305" lon="-3.74369">
        <ele>91.2</ele>
        <time>2017-09-23T09:03:26.000Z</time>
      </trkpt>
      <trkpt lat="48.20306" lon="-3.7437">
        <ele>91.1</ele>
        <time>2017-09-23T09:03:27.000Z</time>
      </trkpt>
      <trkpt lat="48.20307" lon="-3.74371">
        <ele>91</ele>
        <time>2017-09-23T09:03:28.000Z</time>
      </trkpt>
      <trkpt lat="48.20308" lon="-3.74372">
        <ele>90.9</ele>
        <time>2017-09-23T09:03:29.000Z</time>
      </trkpt>
      <trkpt lat="48.20309" lon="-3.74373">
        <ele>90.8</ele>
        <time>2017-09-23T09:03:30.000Z</time>
      </trkpt>
      <trkpt lat="48.2031" lon="-3.74374">
        <ele>90.7</ele>
        <time>2017-09-23T09:03:31.000Z</time>
      </trkpt>
      <trkpt lat="48.20311" lon="-3.74375">
        <ele>90.6</ele>
        <time>2017-09-23T09:03:32.000Z</time>
      </trkpt>
      <trkpt lat="48.20312" lon="-3.74377">
        <ele>90.6</ele>
        <time>2017-09-23T09:03:33.000Z</time>
      </trkpt>
      <trkpt lat="48.20312" lon="-3.74378">
        <ele>90.5</ele>
        <time>2017-09-23T09:03:34.000Z</time>
      </trkpt>
      <trkpt lat="48.20313" lon="-3.74379">
        <ele>90.4</ele>
        <time>2017-09-23T09:03:35.000Z</time>
      </trkpt>
      <trkpt lat="48.20314" lon="-3.7438">
        <ele>90.4</ele>
        <time>2017-09-23T09:03:36.000Z</time>
      </trkpt>
      <trkpt lat="48.20315" lon="-3.74382">
        <ele>90.3</ele>
        <time>2017-09-23T09:03:37.000Z</time>
      </trkpt>
      <trkpt lat="48.20316" lon="-3.74383">
        <ele>90.3</ele>
        <time>2017-09-23T09:03:38.000Z</time>
      </trkpt>
      <trkpt lat="48.20317" lon="-3.74384">
        <ele>90.2</ele>
        <time>2017-09-23T09:03:39.000Z</time>
      </trkpt>
      <trkpt lat="48.20317" lon="-3.74386">
        <ele>90.2</ele>
        <time>2017-09-23T09:03:40.000Z</time>
      </trkpt>
      <trkpt lat="48.20318" lon="-3.74387">
        <ele>90.1</ele>
        <time>2017-09-23T09:03:41.000Z</time>
      </trkpt>
      <trkpt lat="48.20319" lon="-3.74388">
        <ele>90.1</ele>
        <time>2017-09-23T09:03:42.000Z</time>
      </trkpt>
      <trkpt lat="48.2032" lon="-3.74389">
        <ele>90.1</ele>
        <time>2017-09-23T09:03:43.000Z</time>
      </trkpt>
      <trkpt lat="48.2032" lon="-3.74391">
        <ele>90</ele>
        <time>2017-09-23T09:03:44.000Z</time>
      </trkpt>
      <trkpt lat="48.20321" lon="-3.74392">
        <ele>90</ele>
        <time>2017-09-23T09:03:45.000Z</time>
      </trkpt>
      <trkpt lat="48.20322" lon="-3.74394">
        <ele>90</ele>
        <time>2017-09-23T09:03:46.000Z</time>
      </trkpt>
      <trkpt lat="48.20322" lon="-3.74395">
        <ele>90</ele>
        <time>2017-09-23T09:03:47.000Z</time>
      </trkpt>
      <trkpt lat="48.20323" lon="-3.74396">
        <ele>90</ele>
        <time>2017-09-23T09:03:48.000Z</time>
      </trkpt>
      <trkpt lat="48.20324" lon="-3.74398">
        <ele>90</ele>
        <time>2017-09-23T09:03:49.000Z</time>
      </trkpt>
      <trkpt lat="48.20324" lon="-3.74399">
        <ele>90</ele>
        <time>2017-09-23T09:03:50.000Z</time>
      </trkpt>
      <trkpt lat="48.20325" lon="-3.744">
        <ele>90</ele>
        <time>2017-09-23T09:03:51.000Z</time>
      </trkpt>
      <trkpt lat="48.20326" lon="-3.74402">
        <ele>90</ele>
        <time>2017-09-23T09:03:52.000Z</time>
      </trkpt>
      <trkpt lat="48.20326" lon="-3.74403">
        <ele>90</ele>
        <time>2017-09-23T09:03:53.000Z</time>
      </trkpt>
      <trkpt lat="48.20327" lon="-3.74405">
        <ele>90</ele>
        <time>2017-09-23T09:03:54.000Z</time>
      </trkpt>
      <trkpt lat="48.20328" lon="-3.74406">
        <ele>90</ele>
        <time>2017-09-23T09:03:55.000Z</time>
      </trkpt>
      <trkpt lat="48.20328" lon="-3.74408">
        <ele>90</ele>
        <time>2017-09-23T09:03:56.000Z</time>
      </trkpt>
      <trkpt lat="48.20329" lon="-3.74409">
        <ele>90</ele>
        <time>2017-09-23T09:03:57.000Z</time>
      </trkpt>
      <trkpt lat="48.20329" lon="-3.74411">
        <ele>90</ele>
        <time>2017-09-23T09:03:58.000Z</time>
      </trkpt>
      <trkpt lat="48.2033" lon="-3.74412">
        <ele>90.1</ele>
        <time>2017-09-23T09:03:59.000Z</time>
      </trkpt>
      <trkpt lat="48.20331" lon="-3.74414">
        <ele>90.1</ele>
        <time>2017-09-23T09:04:00.000Z</time>
      </trkpt>
      <trkpt lat="48.20331" lon="-3.74415">
        <ele>90.1</ele>
        <time>2017-09-23T09:04:01.000Z</time>
      </trkpt>
      <trkpt lat="48.20332" lon="-3.74417">
        <ele>90.1</ele>
        <time>2017-09-23T09:04:02.000Z</time>
      </trkpt>
      <trkpt lat="48.20333" lon="-3.74418">
        <ele>90.1</ele>
        <time>2017-09-23T09:04:03.000Z</time>
      </trkpt>
      <trkpt lat="48.20333" lon="-3.7442">
        <ele>90.1</ele>
        <time>2017-09-23T09:04:04.000Z</time>
      </trkpt>
      <trkpt lat="48.20334" lon="-3.74422">
        <ele>90.1</ele>
        <time>2017-09-23T09:04:05.000Z</time>
      </trkpt>
      <trkpt lat="48.20335" lon="-3.74423">
        <ele>90</ele>
        <time>2017-09-23T09:04:06.000Z</time>
      </trkpt>
      <trkpt lat="48.20335" lon="-3.74425">
        <ele>89.9</ele>
        <time>2017-09-23T09:04:07.000Z</time>
      </trkpt>
      <trkpt lat="48.20336" lon="-3.74426">
        <ele>89.8</ele>
        <time>2017-09-23T09:04:08.000Z</time>
      </trkpt>
      <trkpt lat="48.20336" lon="-3.74428">
        <ele>89.8</ele>
        <time>2017-09-23T09:04:09.000Z</time>
      </trkpt>
      <trkpt lat="48.20337" lon="-3.74429">
        <ele>89.7</ele>
        <time>2017-09-23T09:04:10.000Z</time>
      </trkpt>
      <trkpt lat="48.20338" lon="-3.74431">
        <ele>89.6</ele>
        <time>2017-09-23T09:04:11.000Z</time>
      </trkpt>
      <trkpt lat="48.20338" lon="-3.74432">
        <ele>89.6</ele>
        <time>2017-09-23T09:04:12.000Z</time>
      </trkpt>
      <trkpt lat="48.20339" lon="-3.74433">
        <ele>89.5</ele>
        <time>2017-09-23T09:04:13.000Z</time>
      </trkpt>
      <trkpt lat="48.20339" lon="-3.74435">
        <ele>89.5</ele>
        <time>2017-09-23T09:04:14.000Z</time>
      </trkpt>
      <trkpt lat="48.2034" lon="-3.74436">
        <ele>89.4</ele>
        <time>2017-09-23T09:04:15.000Z</time>
      </trkpt>
      <trkpt lat="48.20341" lon="-3.74438">
        <ele>89.4</ele>
        <time>2017-09-23T09:04:16.000Z</time>
      </trkpt>
      <trkpt lat="48.20341" lon="-3.74439">
        <ele>89.3</ele>
        <time>2017-09-23T09:04:17.000Z</time>
      </trkpt>
      <trkpt lat="48.20342" lon="-3.74441">
        <ele>89.3</ele>
        <time>2017-09-23T09:04:18.000Z</time>
      </trkpt>
      <trkpt lat="48.20342" lon="-3.74442">
        <ele>89.2</ele>
        <time>2017-09-23T09:04:19.000Z</time>
      </trkpt>
      <trkpt lat="48.20343" lon="-3.74444">
        <ele>89.2</ele>
        <time>2017-09-23T09:04:20.000Z</time>
      </trkpt>
      <trkpt lat="48.20343" lon="-3.74445">
        <ele>89.2</ele>
        <time>2017-09-23T09:04:21.000Z</time>
      </trkpt>
      <trkpt lat="48.20344" lon="-3.74447">
        <ele>89.1</ele>
        <time>2017-09-23T09:04:22.000Z</time>
      </trkpt>
      <trkpt lat="48.20344" lon="-3.74449">
        <ele>89.1</ele>
        <time>2017-09-23T09:04:23.000Z</time>
      </trkpt>
      <trkpt lat="48.20344" lon="-3.7445">
        <ele>89.1</ele>
        <time>2017-09-23T09:04:24.000Z</time>
      </trkpt>
      <trkpt lat="48.20345" lon="-3.74452">
        <ele>89.1</ele>
        <time>2017-09-23T09:04:25.000Z</time>
      </trkpt>
      <trkpt lat="48.20345" lon="-3.74454">
        <ele>89.1</ele>
        <time>2017-09-23T09:04:26.000Z</time>
      </trkpt>
      <trkpt lat="48.20346" lon="-3.74456">
        <ele>89.1</ele>
        <time>2017-09-23T09:04:27.000Z</time>
      </trkpt>
      <trkpt lat="48.20346" lon="-3.74457">
        <ele>89</ele>
        <time>2017-09-23T09:04:28.000Z</time>
      </trkpt>
      <trkpt lat="48.20347" lon="-3.74459">
        <ele>89</ele>
        <time>2017-09-23T09:04:29.000Z</time>
      </trkpt>
      <trkpt lat="48.20347" lon="-3.74461">
        <ele>89</ele>
        <time>2017-09-23T09:04:30.000Z</time>
      </trkpt>
      <trkpt lat="48.20348" lon="-3.74463">
        <ele>89</ele>
        <time>2017-09-23T09:04:31.000Z</time>
      </trkpt>
      <trkpt lat="48.20348" lon="-3.74464">
        <ele>89</ele>
        <time>2017-09-23T09:04:32.000Z</time>
      </trkpt>
      <trkpt lat="48.20349" lon="-3.74466">
        <ele>89</ele>
        <time>2017-09-23T09:04:33.000Z</time>
      </trkpt>
      <trkpt lat="48.20349" lon="-3.74468">
        <ele>89</ele>
        <time>2017-09-23T09:04:34.000Z</time>
      </trkpt>
      <trkpt lat="48.2035" lon="-3.7447">
        <ele>88.9</ele>
        <time>2017-09-23T09:04:35.000Z</time>
      </trkpt>
      <trkpt lat="48.2035" lon="-3.74471">
        <ele>88.9</ele>
        <time>2017-09-23T09:04:36.000Z</time>
      </trkpt>
      <trkpt lat="48.20351" lon="-3.74473">
        <ele>88.9</ele>
        <time>2017-09-23T09:04:37.000Z</time>
      </trkpt>
      <trkpt lat="48.20352" lon="-3.74475">
        <ele>88.8</ele>
        <time>2017-09-23T09:04:38.000Z</time>
      </trkpt>
      <trkpt lat="48.20352" lon="-3.74476">
        <ele>88.8</ele>
        <time>2017-09-23T09:04:39.000Z</time>
      </trkpt>
      <trkpt lat="48.20353" lon="-3.74478">
        <ele>88.7</ele>
        <time>2017-09-23T09:04:40.000Z</time>
      </trkpt>
      <trkpt lat="48.20353" lon="-3.74479">
        <ele>88.7</ele>
        <time>2017-09-23T09:04:41.000Z</time>
      </trkpt>
      <trkpt lat="48.20354" lon="-3.74481">
        <ele>88.7</ele>
        <time>2017-09-23T09:04:42.000Z</time>
      </trkpt>
      <trkpt lat="48.20355" lon="-3.74483">
        <ele>88.6</ele>
        <time>2017-09-23T09:04:43.000Z</time>
      </trkpt>
      <trkpt lat="48.20356" lon="-3.74484">
        <ele>88.6</ele>
        <time>2017-09-23T09:04:44.000Z</time>
      </trkpt>
      <trkpt lat="48.20356" lon="-3.74486">
        <ele>88.5</ele>
        <time>2017-09-23T09:04:45.000Z</time>
      </trkpt>
      <trkpt lat="48.20357" lon="-3.74487">
        <ele>88.4</ele>
        <time>2017-09-23T09:04:46.000Z</time>
      </trkpt>
      <trkpt lat="48.20358" lon="-3.74489">
        <ele>88.4</ele>
        <time>2017-09-23T09:04:47.000Z</time>
      </trkpt>
      <trkpt lat="48.20359" lon="-3.7449">
        <ele>88.3</ele>
        <time>2017-09-23T09:04:48.000Z</time>
      </trkpt>
      <trkpt lat="48.20359" lon="-3.74491">
        <ele>88.2</ele>
        <time>2017-09-23T09:04:49.000Z</time>
      </trkpt>
      <trkpt lat="48.2036" lon="-3.74493">
        <ele>88.2</ele>
        <time>2017-09-23T09:04:50.000Z</time>
      </trkpt>
      <trkpt lat="48.20361" lon="-3.74494">
        <ele>88.1</ele>
        <time>2017-09-23T09:04:51.000Z</time>
      </trkpt>
      <trkpt lat="48.20362" lon="-3.74496">
        <ele>88.1</ele>
        <time>2017-09-23T09:04:52.000Z</time>
      </trkpt>
      <trkpt lat="48.20362" lon="-3.74497">
        <ele>88</ele>
        <time>2017-09-23T09:04:53.000Z</time>
      </trkpt>
      <trkpt lat="48.20363" lon="-3.74499">
        <ele>88</ele>
        <time>2017-09-23T09:04:54.000Z</time>
      </trkpt>
      <trkpt lat="48.20364" lon="-3.745">
        <ele>87.9</ele>
        <time>2017-09-23T09:04:55.000Z</time>
      </trkpt>
      <trkpt lat="48.20364" lon="-3.74502">
        <ele>87.7</ele>
        <time>2017-09-23T09:04:56.000Z</time>
      </trkpt>
      <trkpt lat="48.20365" lon="-3.74503">
        <ele>87.6</ele>
        <time>2017-09-23T09:04:57.000Z</time>
      </trkpt>
      <trkpt lat="48.20366" lon="-3.74505">
        <ele>87.5</ele>
        <time>2017-09-23T09:04:58.000Z</time>
      </trkpt>
      <trkpt lat="48.20366" lon="-3.74506">
        <ele>87.3</ele>
        <time>2017-09-23T09:04:59.000Z</time>
      </trkpt>
      <trkpt lat="48.20367" lon="-3.74508">
        <ele>87.2</ele>
        <time>2017-09-23T09:05:00.000Z</time>
      </trkpt>
      <trkpt lat="48.20368" lon="-3.74509">
        <ele>87.1</ele>
        <time>2017-09-23T09:05:01.000Z</time>
      </trkpt>
      <trkpt lat="48.20368" lon="-3.74511">
        <ele>87</ele>
        <time>2017-09-23T09:05:02.000Z</time>
      </trkpt>
      <trkpt lat="48.20369" lon="-3.74513">
        <ele>86.8</ele>
        <time>2017-09-23T09:05:03.000Z</time>
      </trkpt>
      <trkpt lat="48.20369" lon="-3.74514">
        <ele>86.7</ele>
        <time>2017-09-23T09:05:04.000Z</time>
      </trkpt>
      <trkpt lat="48.2037" lon="-3.74516">
        <ele>86.6</ele>
        <time>2017-09-23T09:05:05.000Z</time>
      </trkpt>
      <trkpt lat="48.2037" lon="-3.74517">
        <ele>86.5</ele>
        <time>2017-09-23T09:05:06.000Z</time>
      </trkpt>
      <trkpt lat="48.20371" lon="-3.74519">
        <ele>86.4</ele>
        <time>2017-09-23T09:05:07.000Z</time>
      </trkpt>
      <trkpt lat="48.20371" lon="-3.7452">
        <ele>86.3</ele>
        <time>2017-09-23T09:05:08.000Z</time>
      </trkpt>
      <trkpt lat="48.20372" lon="-3.74522">
        <ele>86.2</ele>
        <time>2017-09-23T09:05:09.000Z</time>
      </trkpt>
      <trkpt lat="48.20372" lon="-3.74523">
        <ele>86.1</ele>
        <time>2017-09-23T09:05:10.000Z</time>
      </trkpt>
      <trkpt lat="48.20372" lon="-3.74524">
        <ele>86</ele>
        <time>2017-09-23T09:05:11.000Z</time>
      </trkpt>
      <trkpt lat="48.20373" lon="-3.74526">
        <ele>85.9</ele>
        <time>2017-09-23T09:05:12.000Z</time>
      </trkpt>
      <trkpt lat="48.20373" lon="-3.74527">
        <ele>85.8</ele>
        <time>2017-09-23T09:05:13.000Z</time>
      </trkpt>
      <trkpt lat="48.20374" lon="-3.74528">
        <ele>85.7</ele>
        <time>2017-09-23T09:05:14.000Z</time>
      </trkpt>
      <trkpt lat="48.20374" lon="-3.74529">
        <ele>85.6</ele>
        <time>2017-09-23T09:05:15.000Z</time>
      </trkpt>
      <trkpt lat="48.20375" lon="-3.74531">
        <ele>85.5</ele>
        <time>2017-09-23T09:05:16.000Z</time>
      </trkpt>
      <trkpt lat="48.20375" lon="-3.74532">
        <ele>85.4</ele>
        <time>2017-09-23T09:05:17.000Z</time>
      </trkpt>
      <trkpt lat="48.20376" lon="-3.74533">
        <ele>85.3</ele>
        <time>2017-09-23T09:05:18.000Z</time>
      </trkpt>
      <trkpt lat="48.20377" lon="-3.74534">
        <ele>85.1</ele>
        <time>2017-09-23T09:05:19.000Z</time>
      </trkpt>
      <trkpt lat="48.20377" lon="-3.74536">
        <ele>85</ele>
        <time>2017-09-23T09:05:20.000Z</time>
      </trkpt>
      <trkpt lat="48.20378" lon="-3.74537">
        <ele>84.9</ele>
        <time>2017-09-23T09:05:21.000Z</time>
      </trkpt>
      <trkpt lat="48.20379" lon="-3.74539">
        <ele>84.7</ele>
        <time>2017-09-23T09:05:22.000Z</time>
      </trkpt>
      <trkpt lat="48.20379" lon="-3.7454">
        <ele>84.6</ele>
        <time>2017-09-23T09:05:23.000Z</time>
      </trkpt>
      <trkpt lat="48.2038" lon="-3.74542">
        <ele>84.4</ele>
        <time>2017-09-23T09:05:24.000Z</time>
      </trkpt>
      <trkpt lat="48.20381" lon="-3.74543">
        <ele>84.3</ele>
        <time>2017-09-23T09:05:25.000Z</time>
      </trkpt>
      <trkpt lat="48.20382" lon="-3.74545">
        <ele>84.1</ele>
        <time>2017-09-23T09:05:26.000Z</time>
      </trkpt>
      <trkpt lat="48.20383" lon="-3.74546">
        <ele>83.9</ele>
        <time>2017-09-23T09:05:27.000Z</time>
      </trkpt>
      <trkpt lat="48.20383" lon="-3.74548">
        <ele>83.8</ele>
        <time>2017-09-23T09:05:28.000Z</time>
      </trkpt>
      <trkpt lat="48.20384" lon="-3.74549">
        <ele>83.7</ele>
        <time>2017-09-23T09:05:29.000Z</time>
      </trkpt>
      <trkpt lat="48.20385" lon="-3.74551">
        <ele>83.5</ele>
        <time>2017-09-23T09:05:30.000Z</time>
      </trkpt>
      <trkpt lat="48.20385" lon="-3.74552">
        <ele>83.4</ele>
        <time>2017-09-23T09:05:31.000Z</time>
      </trkpt>
      <trkpt lat="48.20386" lon="-3.74553">
        <ele>83.3</ele>
        <time>2017-09-23T09:05:32.000Z</time>
      </trkpt>
      <trkpt lat="48.20387" lon="-3.74555">
        <ele>83.1</ele>
        <time>2017-09-23T09:05:33.000Z</time>
      </trkpt>
      <trkpt lat="48.20387" lon="-3.74556">
        <ele>83</ele>
        <time>2017-09-23T09:05:34.000Z</time>
      </trkpt>
      <trkpt lat="48.20388" lon="-3.74558">
        <ele>82.9</ele>
        <time>2017-09-23T09:05:35.000Z</time>
      </trkpt>
      <trkpt lat="48.20389" lon="-3.74559">
        <ele>82.8</ele>
        <time>2017-09-23T09:05:36.000Z</time>
      </trkpt>
      <trkpt lat="48.20389" lon="-3.74561">
        <ele>82.6</ele>
        <time>2017-09-23T09:05:37.000Z</time>
      </trkpt>
      <trkpt lat="48.2039" lon="-3.74562">
        <ele>82.5</ele>
        <time>2017-09-23T09:05:38.000Z</time>
      </trkpt>
      <trkpt lat="48.20391" lon="-3.74563">
        <ele>82.3</ele>
        <time>2017-09-23T09:05:39.000Z</time>
      </trkpt>
      <trkpt lat="48.20392" lon="-3.74565">
        <ele>82.2</ele>
        <time>2017-09-23T09:05:40.000Z</time>
      </trkpt>
      <trkpt lat="48.20393" lon="-3.74566">
        <ele>82</ele>
        <time>2017-09-23T09:05:41.000Z</time>
      </trkpt>
      <trkpt lat="48.20393" lon="-3.74568">
        <ele>81.9</ele>
        <time>2017-09-23T09:05:42.000Z</time>
      </trkpt>
      <trkpt lat="48.20394" lon="-3.74569">
        <ele>81.7</ele>
        <time>2017-09-23T09:05:43.000Z</time>
      </trkpt>
      <trkpt lat="48.20395" lon="-3.7457">
        <ele>81.5</ele>
        <time>2017-09-23T09:05:44.000Z</time>
      </trkpt>
      <trkpt lat="48.20396" lon="-3.74572">
        <ele>81.4</ele>
        <time>2017-09-23T09:05:45.000Z</time>
      </trkpt>
      <trkpt lat="48.20397" lon="-3.74573">
        <ele>81.2</ele>
        <time>2017-09-23T09:05:46.000Z</time>
      </trkpt>
      <trkpt lat="48.20398" lon="-3.74575">
        <ele>81</ele>
        <time>2017-09-23T09:05:47.000Z</time>
      </trkpt>
      <trkpt lat="48.20399" lon="-3.74576">
        <ele>80.8</ele>
        <time>2017-09-23T09:05:48.000Z</time>
      </trkpt>
      <trkpt lat="48.204" lon="-3.74578">
        <ele>80.7</ele>
        <time>2017-09-23T09:05:49.000Z</time>
      </trkpt>
      <trkpt lat="48.20401" lon="-3.74579">
        <ele>80.5</ele>
        <time>2017-09-23T09:05:50.000Z</time>
      </trkpt>
      <trkpt lat="48.20402" lon="-3.74581">
        <ele>80.3</ele>
        <time>2017-09-23T09:05:51.000Z</time>
      </trkpt>
      <trkpt lat="48.20403" lon="-3.74582">
        <ele>80.2</ele>
        <time>2017-09-23T09:05:52.000Z</time>
      </trkpt>
      <trkpt lat="48.20404" lon="-3.74583">
        <ele>80</ele>
        <time>2017-09-23T09:05:53.000Z</time>
      </trkpt>
      <trkpt lat="48.20405" lon="-3.74584">
        <ele>79.8</ele>
        <time>2017-09-23T09:05:54.000Z</time>
      </trkpt>
      <trkpt lat="48.20406" lon="-3.74584">
        <ele>79.6</ele>
        <time>2017-09-23T09:05:55.000Z</time>
      </trkpt>
      <trkpt lat="48.20407" lon="-3.74584">
        <ele>79.5</ele>
        <time>2017-09-23T09:05:56.000Z</time>
      </trkpt>
      <trkpt lat="48.20408" lon="-3.74583">
        <ele>79.3</ele>
        <time>2017-09-23T09:05:57.000Z</time>
      </trkpt>
      <trkpt lat="48.20409" lon="-3.74582">
        <ele>79.2</ele>
        <time>2017-09-23T09:05:58.000Z</time>
      </trkpt>
      <trkpt lat="48.2041" lon="-3.74581">
        <ele>79.1</ele>
        <time>2017-09-23T09:05:59.000Z</time>
      </trkpt>
      <trkpt lat="48.20411" lon="-3.74579">
        <ele>79</ele>
        <time>2017-09-23T09:06:00.000Z</time>
      </trkpt>
      <trkpt lat="48.20411" lon="-3.74577">
        <ele>78.9</ele>
        <time>2017-09-23T09:06:01.000Z</time>
      </trkpt>
      <trkpt lat="48.20412" lon="-3.74576">
        <ele>78.9</ele>
        <time>2017-09-23T09:06:02.000Z</time>
      </trkpt>
      <trkpt lat="48.20412" lon="-3.74574">
        <ele>78.9</ele>
        <time>2017-09-23T09:06:03.000Z</time>
      </trkpt>
      <trkpt lat="48.20412" lon="-3.74572">
        <ele>78.9</ele>
        <time>2017-09-23T09:06:04.000Z</time>
      </trkpt>
      <trkpt lat="48.20412" lon="-3.74571">
        <ele>78.9</ele>
        <time>2017-09-23T09:06:05.000Z</time>
      </trkpt>
      <trkpt lat="48.20412" lon="-3.7457">
        <ele>78.9</ele>
        <time>2017-09-23T09:06:06.000Z</time>
      </trkpt>
      <trkpt lat="48.20412" lon="-3.7457">
        <ele>78.9</ele>
        <time>2017-09-23T09:06:07.000Z</time>
      </trkpt>
      <trkpt lat="48.20412" lon="-3.7457">
        <ele>78.9</ele>
        <time>2017-09-23T09:06:08.000Z</time>
      </trkpt>
      <trkpt lat="48.20412" lon="-3.74569">
        <ele>78.9</ele>
        <time>2017-09-23T09:06:09.000Z</time>
      </trkpt>
      <trkpt lat="48.20412" lon="-3.74569">
        <ele>78.9</ele>
        <time>2017-09-23T09:06:10.000Z</time>
      </trkpt>
      <trkpt lat="48.20412" lon="-3.74569">
        <ele>78.9</ele>
        <time>2017-09-23T09:06:11.000Z</time>
      </trkpt>
      <trkpt lat="48.20412" lon="-3.74569">
        <ele>78.9</ele>
        <time>2017-09-23T09:06:12.000Z</time>
      </trkpt>
      <trkpt lat="48.20412" lon="-3.74569">
        <ele>78.9</ele>
        <time>2017-09-23T09:06:13.000Z</time>
      </trkpt>
      <trkpt lat="48.20412" lon="-3.7457">
        <ele>78.9</ele>
        <time>2017-09-23T09:06:14.000Z</time>
      </trkpt>
      <trkpt lat="48.20412" lon="-3.7457">
        <ele>78.9</ele>
        <time>2017-09-23T09:06:15.000Z</time>
      </trkpt>
      <trkpt lat="48.20412" lon="-3.7457">
        <ele>78.8</ele>
        <time>2017-09-23T09:06:16.000Z</time>
      </trkpt>
      <trkpt lat="48.20413" lon="-3.74569">
        <ele>78.8</ele>
        <time>2017-09-23T09:06:17.000Z</time>
      </trkpt>
      <trkpt lat="48.20413" lon="-3.74569">
        <ele>78.8</ele>
        <time>2017-09-23T09:06:18.000Z</time>
      </trkpt>
      <trkpt lat="48.20413" lon="-3.74569">
        <ele>78.8</ele>
        <time>2017-09-23T09:06:19.000Z</time>
      </trkpt>
      <trkpt lat="48.20413" lon="-3.74568">
        <ele>78.7</ele>
        <time>2017-09-23T09:06:20.000Z</time>
      </trkpt>
      <trkpt lat="48.20414" lon="-3.74567">
        <ele>78.7</ele>
        <time>2017-09-23T09:06:21.000Z</time>
      </trkpt>
      <trkpt lat="48.20414" lon="-3.74566">
        <ele>78.7</ele>
        <time>2017-09-23T09:06:22.000Z</time>
      </trkpt>
      <trkpt lat="48.20414" lon="-3.74565">
        <ele>78.6</ele>
        <time>2017-09-23T09:06:23.000Z</time>
      </trkpt>
      <trkpt lat="48.20415" lon="-3.74564">
        <ele>78.6</ele>
        <time>2017-09-23T09:06:24.000Z</time>
      </trkpt>
      <trkpt lat="48.20415" lon="-3.74562">
        <ele>78.5</ele>
        <time>2017-09-23T09:06:25.000Z</time>
      </trkpt>
      <trkpt lat="48.20416" lon="-3.7456">
        <ele>78.5</ele>
        <time>2017-09-23T09:06:26.000Z</time>
      </trkpt>
      <trkpt lat="48.20416" lon="-3.74559">
        <ele>78.4</ele>
        <time>2017-09-23T09:06:27.000Z</time>
      </trkpt>
      <trkpt lat="48.20417" lon="-3.74557">
        <ele>78.3</ele>
        <time>2017-09-23T09:06:28.000Z</time>
      </trkpt>
      <trkpt lat="48.20417" lon="-3.74555">
        <ele>78.3</ele>
        <time>2017-09-23T09:06:29.000Z</time>
      </trkpt>
      <trkpt lat="48.20417" lon="-3.74553">
        <ele>78.3</ele>
        <time>2017-09-23T09:06:30.000Z</time>
      </trkpt>
      <trkpt lat="48.20418" lon="-3.74551">
        <ele>78.2</ele>
        <time>2017-09-23T09:06:31.000Z</time>
      </trkpt>
      <trkpt lat="48.20418" lon="-3.7455">
        <ele>78.2</ele>
        <time>2017-09-23T09:06:32.000Z</time>
      </trkpt>
      <trkpt lat="48.20418" lon="-3.74548">
        <ele>78.2</ele>
        <time>2017-09-23T09:06:33.000Z</time>
      </trkpt>
      <trkpt lat="48.20418" lon="-3.74546">
        <ele>78.2</ele>
        <time>2017-09-23T09:06:34.000Z</time>
      </trkpt>
      <trkpt lat="48.20418" lon="-3.74545">
        <ele>78.2</ele>
        <time>2017-09-23T09:06:35.000Z</time>
      </trkpt>
      <trkpt lat="48.20418" lon="-3.74543">
        <ele>78.3</ele>
        <time>2017-09-23T09:06:36.000Z</time>
      </trkpt>
      <trkpt lat="48.20418" lon="-3.74542">
        <ele>78.3</ele>
        <time>2017-09-23T09:06:37.000Z</time>
      </trkpt>
      <trkpt lat="48.20418" lon="-3.7454">
        <ele>78.3</ele>
        <time>2017-09-23T09:06:38.000Z</time>
      </trkpt>
      <trkpt lat="48.20418" lon="-3.74538">
        <ele>78.3</ele>
        <time>2017-09-23T09:06:39.000Z</time>
      </trkpt>
      <trkpt lat="48.20418" lon="-3.74536">
        <ele>78.3</ele>
        <time>2017-09-23T09:06:40.000Z</time>
      </trkpt>
      <trkpt lat="48.20418" lon="-3.74535">
        <ele>78.4</ele>
        <time>2017-09-23T09:06:41.000Z</time>
      </trkpt>
      <trkpt lat="48.20418" lon="-3.74533">
        <ele>78.4</ele>
        <time>2017-09-23T09:06:42.000Z</time>
      </trkpt>
      <trkpt lat="48.20418" lon="-3.74531">
        <ele>78.4</ele>
        <time>2017-09-23T09:06:43.000Z</time>
      </trkpt>
      <trkpt lat="48.20418" lon="-3.74529">
        <ele>78.4</ele>
        <time>2017-09-23T09:06:44.000Z</time>
      </trkpt>
      <trkpt lat="48.20418" lon="-3.74527">
        <ele>78.4</ele>
        <time>2017-09-23T09:06:45.000Z</time>
      </trkpt>
      <trkpt lat="48.20418" lon="-3.74525">
        <ele>78.5</ele>
        <time>2017-09-23T09:06:46.000Z</time>
      </trkpt>
      <trkpt lat="48.20418" lon="-3.74524">
        <ele>78.5</ele>
        <time>2017-09-23T09:06:47.000Z</time>
      </trkpt>
      <trkpt lat="48.20418" lon="-3.74522">
        <ele>78.5</ele>
        <time>2017-09-23T09:06:48.000Z</time>
      </trkpt>
      <trkpt lat="48.20418" lon="-3.7452">
        <ele>78.6</ele>
        <time>2017-09-23T09:06:49.000Z</time>
      </trkpt>
      <trkpt lat="48.20418" lon="-3.74518">
        <ele>78.6</ele>
        <time>2017-09-23T09:06:50.000Z</time>
      </trkpt>
      <trkpt lat="48.20418" lon="-3.74516">
        <ele>78.6</ele>
        <time>2017-09-23T09:06:51.000Z</time>
      </trkpt>
      <trkpt lat="48.20418" lon="-3.74514">
        <ele>78.7</ele>
        <time>2017-09-23T09:06:52.000Z</time>
      </trkpt>
      <trkpt lat="48.20417" lon="-3.74512">
        <ele>78.7</ele>
        <time>2017-09-23T09:06:53.000Z</time>
      </trkpt>
      <trkpt lat="48.20417" lon="-3.7451">
        <ele>78.8</ele>
        <time>2017-09-23T09:06:54.000Z</time>
      </trkpt>
      <trkpt lat="48.20417" lon="-3.74508">
        <ele>78.8</ele>
        <time>2017-09-23T09:06:55.000Z</time>
      </trkpt>
      <trkpt lat="48.20417" lon="-3.74506">
        <ele>78.9</ele>
        <time>2017-09-23T09:06:56.000Z</time>
      </trkpt>
      <trkpt lat="48.20417" lon="-3.74504">
        <ele>78.9</ele>
        <time>2017-09-23T09:06:57.000Z</time>
      </trkpt>
      <trkpt lat="48.20417" lon="-3.74502">
        <ele>78.9</ele>
        <time>2017-09-23T09:06:58.000Z</time>
      </trkpt>
      <trkpt lat="48.20417" lon="-3.745">
        <ele>78.9</ele>
        <time>2017-09-23T09:06:59.000Z</time>
      </trkpt>
      <trkpt lat="48.20417" lon="-3.74498">
        <ele>78.8</ele>
        <time>2017-09-23T09:07:00.000Z</time>
      </trkpt>
      <trkpt lat="48.20417" lon="-3.74496">
        <ele>78.7</ele>
        <time>2017-09-23T09:07:01.000Z</time>
      </trkpt>
      <trkpt lat="48.20416" lon="-3.74494">
        <ele>78.6</ele>
        <time>2017-09-23T09:07:02.000Z</time>
      </trkpt>
      <trkpt lat="48.20416" lon="-3.74492">
        <ele>78.5</ele>
        <time>2017-09-23T09:07:03.000Z</time>
      </trkpt>
      <trkpt lat="48.20416" lon="-3.7449">
        <ele>78.3</ele>
        <time>2017-09-23T09:07:04.000Z</time>
      </trkpt>
      <trkpt lat="48.20416" lon="-3.74488">
        <ele>78.2</ele>
        <time>2017-09-23T09:07:05.000Z</time>
      </trkpt>
      <trkpt lat="48.20416" lon="-3.74486">
        <ele>78.1</ele>
        <time>2017-09-23T09:07:06.000Z</time>
      </trkpt>
      <trkpt lat="48.20416" lon="-3.74484">
        <ele>78</ele>
        <time>2017-09-23T09:07:07.000Z</time>
      </trkpt>
      <trkpt lat="48.20416" lon="-3.74483">
        <ele>77.9</ele>
        <time>2017-09-23T09:07:08.000Z</time>
      </trkpt>
      <trkpt lat="48.20416" lon="-3.74481">
        <ele>77.7</ele>
        <time>2017-09-23T09:07:09.000Z</time>
      </trkpt>
      <trkpt lat="48.20416" lon="-3.74479">
        <ele>77.6</ele>
        <time>2017-09-23T09:07:10.000Z</time>
      </trkpt>
      <trkpt lat="48.20416" lon="-3.74478">
        <ele>77.5</ele>
        <time>2017-09-23T09:07:11.000Z</time>
      </trkpt>
      <trkpt lat="48.20416" lon="-3.74476">
        <ele>77.4</ele>
        <time>2017-09-23T09:07:12.000Z</time>
      </trkpt>
      <trkpt lat="48.20416" lon="-3.74475">
        <ele>77.3</ele>
        <time>2017-09-23T09:07:13.000Z</time>
      </trkpt>
      <trkpt lat="48.20416" lon="-3.74473">
        <ele>77.1</ele>
        <time>2017-09-23T09:07:14.000Z</time>
      </trkpt>
      <trkpt lat="48.20416" lon="-3.74472">
        <ele>77</ele>
        <time>2017-09-23T09:07:15.000Z</time>
      </trkpt>
      <trkpt lat="48.20416" lon="-3.7447">
        <ele>76.9</ele>
        <time>2017-09-23T09:07:16.000Z</time>
      </trkpt>
      <trkpt lat="48.20416" lon="-3.74468">
        <ele>76.8</ele>
        <time>2017-09-23T09:07:17.000Z</time>
      </trkpt>
      <trkpt lat="48.20416" lon="-3.74467">
        <ele>76.7</ele>
        <time>2017-09-23T09:07:18.000Z</time>
      </trkpt>
      <trkpt lat="48.20416" lon="-3.74465">
        <ele>76.5</ele>
        <time>2017-09-23T09:07:19.000Z</time>
      </trkpt>
      <trkpt lat="48.20416" lon="-3.74463">
        <ele>76.4</ele>
        <time>2017-09-23T09:07:20.000Z</time>
      </trkpt>
      <trkpt lat="48.20416" lon="-3.74461">
        <ele>76.3</ele>
        <time>2017-09-23T09:07:21.000Z</time>
      </trkpt>
      <trkpt lat="48.20416" lon="-3.74459">
        <ele>76.2</ele>
        <time>2017-09-23T09:07:22.000Z</time>
      </trkpt>
      <trkpt lat="48.20416" lon="-3.74457">
        <ele>76.1</ele>
        <time>2017-09-23T09:07:23.000Z</time>
      </trkpt>
      <trkpt lat="48.20415" lon="-3.74455">
        <ele>76</ele>
        <time>2017-09-23T09:07:24.000Z</time>
      </trkpt>
      <trkpt lat="48.20415" lon="-3.74453">
        <ele>75.9</ele>
        <time>2017-09-23T09:07:25.000Z</time>
      </trkpt>
      <trkpt lat="48.20415" lon="-3.74451">
        <ele>75.9</ele>
        <time>2017-09-23T09:07:26.000Z</time>
      </trkpt>
      <trkpt lat="48.20414" lon="-3.74449">
        <ele>75.8</ele>
        <time>2017-09-23T09:07:27.000Z</time>
      </trkpt>
      <trkpt lat="48.20414" lon="-3.74448">
        <ele>75.7</ele>
        <time>2017-09-23T09:07:28.000Z</time>
      </trkpt>
      <trkpt lat="48.20414" lon="-3.74446">
        <ele>75.7</ele>
        <time>2017-09-23T09:07:29.000Z</time>
      </trkpt>
      <trkpt lat="48.20413" lon="-3.74444">
        <ele>75.7</ele>
        <time>2017-09-23T09:07:30.000Z</time>
      </trkpt>
      <trkpt lat="48.20412" lon="-3.74443">
        <ele>75.7</ele>
        <time>2017-09-23T09:07:31.000Z</time>
      </trkpt>
      <trkpt lat="48.20412" lon="-3.74442">
        <ele>75.7</ele>
        <time>2017-09-23T09:07:32.000Z</time>
      </trkpt>
      <trkpt lat="48.20411" lon="-3.7444">
        <ele>75.7</ele>
        <time>2017-09-23T09:07:33.000Z</time>
      </trkpt>
      <trkpt lat="48.20411" lon="-3.74439">
        <ele>75.8</ele>
        <time>2017-09-23T09:07:34.000Z</time>
      </trkpt>
      <trkpt lat="48.2041" lon="-3.74437">
        <ele>75.8</ele>
        <time>2017-09-23T09:07:35.000Z</time>
      </trkpt>
      <trkpt lat="48.20409" lon="-3.74436">
        <ele>75.8</ele>
        <time>2017-09-23T09:07:36.000Z</time>
      </trkpt>
      <trkpt lat="48.20409" lon="-3.74435">
        <ele>75.9</ele>
        <time>2017-09-23T09:07:37.000Z</time>
      </trkpt>
      <trkpt lat="48.20408" lon="-3.74433">
        <ele>75.9</ele>
        <time>2017-09-23T09:07:38.000Z</time>
      </trkpt>
      <trkpt lat="48.20407" lon="-3.74431">
        <ele>76</ele>
        <time>2017-09-23T09:07:39.000Z</time>
      </trkpt>
      <trkpt lat="48.20406" lon="-3.74429">
        <ele>76</ele>
        <time>2017-09-23T09:07:40.000Z</time>
      </trkpt>
      <trkpt lat="48.20405" lon="-3.74428">
        <ele>76</ele>
        <time>2017-09-23T09:07:41.000Z</time>
      </trkpt>
      <trkpt lat="48.20405" lon="-3.74426">
        <ele>76.1</ele>
        <time>2017-09-23T09:07:42.000Z</time>
      </trkpt>
      <trkpt lat="48.20404" lon="-3.74424">
        <ele>76.1</ele>
        <time>2017-09-23T09:07:43.000Z</time>
      </trkpt>
      <trkpt lat="48.20403" lon="-3.74422">
        <ele>76.1</ele>
        <time>2017-09-23T09:07:44.000Z</time>
      </trkpt>
      <trkpt lat="48.20402" lon="-3.7442">
        <ele>76.2</ele>
        <time>2017-09-23T09:07:45.000Z</time>
      </trkpt>
      <trkpt lat="48.20401" lon="-3.74418">
        <ele>76.3</ele>
        <time>2017-09-23T09:07:46.000Z</time>
      </trkpt>
      <trkpt lat="48.204" lon="-3.74416">
        <ele>76.3</ele>
        <time>2017-09-23T09:07:47.000Z</time>
      </trkpt>
      <trkpt lat="48.20399" lon="-3.74414">
        <ele>76.3</ele>
        <time>2017-09-23T09:07:48.000Z</time>
      </trkpt>
      <trkpt lat="48.20398" lon="-3.74413">
        <ele>76.3</ele>
        <time>2017-09-23T09:07:49.000Z</time>
      </trkpt>
      <trkpt lat="48.20398" lon="-3.74411">
        <ele>76.3</ele>
        <time>2017-09-23T09:07:50.000Z</time>
      </trkpt>
      <trkpt lat="48.20397" lon="-3.7441">
        <ele>76.3</ele>
        <time>2017-09-23T09:07:51.000Z</time>
      </trkpt>
      <trkpt lat="48.20396" lon="-3.74408">
        <ele>76.3</ele>
        <time>2017-09-23T09:07:52.000Z</time>
      </trkpt>
      <trkpt lat="48.20395" lon="-3.74407">
        <ele>76.3</ele>
        <time>2017-09-23T09:07:53.000Z</time>
      </trkpt>
      <trkpt lat="48.20395" lon="-3.74406">
        <ele>76.2</ele>
        <time>2017-09-23T09:07:54.000Z</time>
      </trkpt>
      <trkpt lat="48.20395" lon="-3.74405">
        <ele>76.2</ele>
        <time>2017-09-23T09:07:55.000Z</time>
      </trkpt>
      <trkpt lat="48.20394" lon="-3.74405">
        <ele>76.2</ele>
        <time>2017-09-23T09:07:56.000Z</time>
      </trkpt>
      <trkpt lat="48.20394" lon="-3.74404">
        <ele>76.2</ele>
        <time>2017-09-23T09:07:57.000Z</time>
      </trkpt>
      <trkpt lat="48.20393" lon="-3.74403">
        <ele>76.3</ele>
        <time>2017-09-23T09:07:58.000Z</time>
      </trkpt>
      <trkpt lat="48.20393" lon="-3.74403">
        <ele>76.3</ele>
        <time>2017-09-23T09:07:59.000Z</time>
      </trkpt>
      <trkpt lat="48.20392" lon="-3.74402">
        <ele>76.4</ele>
        <time>2017-09-23T09:08:00.000Z</time>
      </trkpt>
      <trkpt lat="48.20391" lon="-3.74401">
        <ele>76.4</ele>
        <time>2017-09-23T09:08:01.000Z</time>
      </trkpt>
      <trkpt lat="48.2039" lon="-3.74399">
        <ele>76.5</ele>
        <time>2017-09-23T09:08:02.000Z</time>
      </trkpt>
      <trkpt lat="48.20389" lon="-3.74398">
        <ele>76.5</ele>
        <time>2017-09-23T09:08:03.000Z</time>
      </trkpt>
      <trkpt lat="48.20389" lon="-3.74397">
        <ele>76.6</ele>
        <time>2017-09-23T09:08:04.000Z</time>
      </trkpt>
      <trkpt lat="48.20388" lon="-3.74395">
        <ele>76.6</ele>
        <time>2017-09-23T09:08:05.000Z</time>
      </trkpt>
      <trkpt lat="48.20387" lon="-3.74394">
        <ele>76.7</ele>
        <time>2017-09-23T09:08:06.000Z</time>
      </trkpt>
      <trkpt lat="48.20386" lon="-3.74392">
        <ele>76.7</ele>
        <time>2017-09-23T09:08:07.000Z</time>
      </trkpt>
      <trkpt lat="48.20385" lon="-3.74391">
        <ele>76.8</ele>
        <time>2017-09-23T09:08:08.000Z</time>
      </trkpt>
      <trkpt lat="48.20384" lon="-3.74389">
        <ele>76.8</ele>
        <time>2017-09-23T09:08:09.000Z</time>
      </trkpt>
      <trkpt lat="48.20383" lon="-3.74388">
        <ele>76.8</ele>
        <time>2017-09-23T09:08:10.000Z</time>
      </trkpt>
      <trkpt lat="48.20383" lon="-3.74387">
        <ele>76.9</ele>
        <time>2017-09-23T09:08:11.000Z</time>
      </trkpt>
      <trkpt lat="48.20382" lon="-3.74385">
        <ele>76.9</ele>
        <time>2017-09-23T09:08:12.000Z</time>
      </trkpt>
      <trkpt lat="48.20381" lon="-3.74384">
        <ele>76.9</ele>
        <time>2017-09-23T09:08:13.000Z</time>
      </trkpt>
      <trkpt lat="48.20381" lon="-3.74383">
        <ele>77</ele>
        <time>2017-09-23T09:08:14.000Z</time>
      </trkpt>
      <trkpt lat="48.2038" lon="-3.74382">
        <ele>77</ele>
        <time>2017-09-23T09:08:15.000Z</time>
      </trkpt>
      <trkpt lat="48.20379" lon="-3.7438">
        <ele>77.1</ele>
        <time>2017-09-23T09:08:16.000Z</time>
      </trkpt>
      <trkpt lat="48.20378" lon="-3.74379">
        <ele>77.1</ele>
        <time>2017-09-23T09:08:17.000Z</time>
      </trkpt>
      <trkpt lat="48.20378" lon="-3.74378">
        <ele>77.2</ele>
        <time>2017-09-23T09:08:18.000Z</time>
      </trkpt>
      <trkpt lat="48.20377" lon="-3.74377">
        <ele>77.2</ele>
        <time>2017-09-23T09:08:19.000Z</time>
      </trkpt>
      <trkpt lat="48.20376" lon="-3.74376">
        <ele>77.3</ele>
        <time>2017-09-23T09:08:20.000Z</time>
      </trkpt>
      <trkpt lat="48.20375" lon="-3.74375">
        <ele>77.4</ele>
        <time>2017-09-23T09:08:21.000Z</time>
      </trkpt>
      <trkpt lat="48.20375" lon="-3.74374">
        <ele>77.5</ele>
        <time>2017-09-23T09:08:22.000Z</time>
      </trkpt>
      <trkpt lat="48.20374" lon="-3.74373">
        <ele>77.6</ele>
        <time>2017-09-23T09:08:23.000Z</time>
      </trkpt>
      <trkpt lat="48.20373" lon="-3.74372">
        <ele>77.7</ele>
        <time>2017-09-23T09:08:24.000Z</time>
      </trkpt>
      <trkpt lat="48.20372" lon="-3.74371">
        <ele>77.8</ele>
        <time>2017-09-23T09:08:25.000Z</time>
      </trkpt>
      <trkpt lat="48.20371" lon="-3.7437">
        <ele>77.9</ele>
        <time>2017-09-23T09:08:26.000Z</time>
      </trkpt>
      <trkpt lat="48.2037" lon="-3.74369">
        <ele>78.1</ele>
        <time>2017-09-23T09:08:27.000Z</time>
      </trkpt>
      <trkpt lat="48.20369" lon="-3.74367">
        <ele>78.2</ele>
        <time>2017-09-23T09:08:28.000Z</time>
      </trkpt>
      <trkpt lat="48.20368" lon="-3.74366">
        <ele>78.3</ele>
        <time>2017-09-23T09:08:29.000Z</time>
      </trkpt>
      <trkpt lat="48.20367" lon="-3.74365">
        <ele>78.4</ele>
        <time>2017-09-23T09:08:30.000Z</time>
      </trkpt>
      <trkpt lat="48.20367" lon="-3.74364">
        <ele>78.5</ele>
        <time>2017-09-23T09:08:31.000Z</time>
      </trkpt>
      <trkpt lat="48.20366" lon="-3.74363">
        <ele>78.7</ele>
        <time>2017-09-23T09:08:32.000Z</time>
      </trkpt>
      <trkpt lat="48.20365" lon="-3.74361">
        <ele>78.8</ele>
        <time>2017-09-23T09:08:33.000Z</time>
      </trkpt>
      <trkpt lat="48.20364" lon="-3.7436">
        <ele>78.9</ele>
        <time>2017-09-23T09:08:34.000Z</time>
      </trkpt>
      <trkpt lat="48.20363" lon="-3.74359">
        <ele>79</ele>
        <time>2017-09-23T09:08:35.000Z</time>
      </trkpt>
      <trkpt lat="48.20362" lon="-3.74358">
        <ele>79.1</ele>
        <time>2017-09-23T09:08:36.000Z</time>
      </trkpt>
      <trkpt lat="48.20361" lon="-3.74356">
        <ele>79.2</ele>
        <time>2017-09-23T09:08:37.000Z</time>
      </trkpt>
      <trkpt lat="48.20361" lon="-3.74355">
        <ele>79.3</ele>
        <time>2017-09-23T09:08:38.000Z</time>
      </trkpt>
      <trkpt lat="48.2036" lon="-3.74354">
        <ele>79.4</ele>
        <time>2017-09-23T09:08:39.000Z</time>
      </trkpt>
      <trkpt lat="48.20359" lon="-3.74352">
        <ele>79.5</ele>
        <time>2017-09-23T09:08:40.000Z</time>
      </trkpt>
      <trkpt lat="48.20358" lon="-3.74351">
        <ele>79.6</ele>
        <time>2017-09-23T09:08:41.000Z</time>
      </trkpt>
      <trkpt lat="48.20358" lon="-3.7435">
        <ele>79.6</ele>
        <time>2017-09-23T09:08:42.000Z</time>
      </trkpt>
      <trkpt lat="48.20357" lon="-3.74349">
        <ele>79.7</ele>
        <time>2017-09-23T09:08:43.000Z</time>
      </trkpt>
      <trkpt lat="48.20356" lon="-3.74347">
        <ele>79.8</ele>
        <time>2017-09-23T09:08:44.000Z</time>
      </trkpt>
      <trkpt lat="48.20356" lon="-3.74346">
        <ele>79.9</ele>
        <time>2017-09-23T09:08:45.000Z</time>
      </trkpt>
      <trkpt lat="48.20355" lon="-3.74345">
        <ele>79.9</ele>
        <time>2017-09-23T09:08:46.000Z</time>
      </trkpt>
      <trkpt lat="48.20354" lon="-3.74344">
        <ele>80</ele>
        <time>2017-09-23T09:08:47.000Z</time>
      </trkpt>
      <trkpt lat="48.20354" lon="-3.74342">
        <ele>80.1</ele>
        <time>2017-09-23T09:08:48.000Z</time>
      </trkpt>
      <trkpt lat="48.20353" lon="-3.74341">
        <ele>80.2</ele>
        <time>2017-09-23T09:08:49.000Z</time>
      </trkpt>
      <trkpt lat="48.20352" lon="-3.7434">
        <ele>80.3</ele>
        <time>2017-09-23T09:08:50.000Z</time>
      </trkpt>
      <trkpt lat="48.20352" lon="-3.74338">
        <ele>80.4</ele>
        <time>2017-09-23T09:08:51.000Z</time>
      </trkpt>
      <trkpt lat="48.20351" lon="-3.74337">
        <ele>80.5</ele>
        <time>2017-09-23T09:08:52.000Z</time>
      </trkpt>
      <trkpt lat="48.2035" lon="-3.74336">
        <ele>80.6</ele>
        <time>2017-09-23T09:08:53.000Z</time>
      </trkpt>
      <trkpt lat="48.20349" lon="-3.74335">
        <ele>80.7</ele>
        <time>2017-09-23T09:08:54.000Z</time>
      </trkpt>
      <trkpt lat="48.20348" lon="-3.74333">
        <ele>80.8</ele>
        <time>2017-09-23T09:08:55.000Z</time>
      </trkpt>
      <trkpt lat="48.20348" lon="-3.74332">
        <ele>80.9</ele>
        <time>2017-09-23T09:08:56.000Z</time>
      </trkpt>
      <trkpt lat="48.20347" lon="-3.74331">
        <ele>80.9</ele>
        <time>2017-09-23T09:08:57.000Z</time>
      </trkpt>
      <trkpt lat="48.20346" lon="-3.74329">
        <ele>81</ele>
        <time>2017-09-23T09:08:58.000Z</time>
      </trkpt>
      <trkpt lat="48.20345" lon="-3.74328">
        <ele>81.1</ele>
        <time>2017-09-23T09:08:59.000Z</time>
      </trkpt>
      <trkpt lat="48.20344" lon="-3.74327">
        <ele>81.2</ele>
        <time>2017-09-23T09:09:00.000Z</time>
      </trkpt>
      <trkpt lat="48.20343" lon="-3.74325">
        <ele>81.2</ele>
        <time>2017-09-23T09:09:01.000Z</time>
      </trkpt>
      <trkpt lat="48.20342" lon="-3.74324">
        <ele>81.3</ele>
        <time>2017-09-23T09:09:02.000Z</time>
      </trkpt>
      <trkpt lat="48.20341" lon="-3.74323">
        <ele>81.4</ele>
        <time>2017-09-23T09:09:03.000Z</time>
      </trkpt>
      <trkpt lat="48.2034" lon="-3.74322">
        <ele>81.5</ele>
        <time>2017-09-23T09:09:04.000Z</time>
      </trkpt>
      <trkpt lat="48.20339" lon="-3.7432">
        <ele>81.5</ele>
        <time>2017-09-23T09:09:05.000Z</time>
      </trkpt>
      <trkpt lat="48.20338" lon="-3.74319">
        <ele>81.6</ele>
        <time>2017-09-23T09:09:06.000Z</time>
      </trkpt>
      <trkpt lat="48.20337" lon="-3.74317">
        <ele>81.7</ele>
        <time>2017-09-23T09:09:07.000Z</time>
      </trkpt>
      <trkpt lat="48.20336" lon="-3.74316">
        <ele>81.7</ele>
        <time>2017-09-23T09:09:08.000Z</time>
      </trkpt>
      <trkpt lat="48.20335" lon="-3.74315">
        <ele>81.7</ele>
        <time>2017-09-23T09:09:09.000Z</time>
      </trkpt>
      <trkpt lat="48.20334" lon="-3.74313">
        <ele>81.8</ele>
        <time>2017-09-23T09:09:10.000Z</time>
      </trkpt>
      <trkpt lat="48.20333" lon="-3.74312">
        <ele>81.7</ele>
        <time>2017-09-23T09:09:11.000Z</time>
      </trkpt>
      <trkpt lat="48.20332" lon="-3.74311">
        <ele>81.7</ele>
        <time>2017-09-23T09:09:12.000Z</time>
      </trkpt>
      <trkpt lat="48.20331" lon="-3.74309">
        <ele>81.6</ele>
        <time>2017-09-23T09:09:13.000Z</time>
      </trkpt>
      <trkpt lat="48.20331" lon="-3.74308">
        <ele>81.5</ele>
        <time>2017-09-23T09:09:14.000Z</time>
      </trkpt>
      <trkpt lat="48.2033" lon="-3.74306">
        <ele>81.5</ele>
        <time>2017-09-23T09:09:15.000Z</time>
      </trkpt>
      <trkpt lat="48.2033" lon="-3.74305">
        <ele>81.3</ele>
        <time>2017-09-23T09:09:16.000Z</time>
      </trkpt>
      <trkpt lat="48.20329" lon="-3.74303">
        <ele>81.2</ele>
        <time>2017-09-23T09:09:17.000Z</time>
      </trkpt>
      <trkpt lat="48.20329" lon="-3.74302">
        <ele>81.1</ele>
        <time>2017-09-23T09:09:18.000Z</time>
      </trkpt>
      <trkpt lat="48.20328" lon="-3.743">
        <ele>81</ele>
        <time>2017-09-23T09:09:19.000Z</time>
      </trkpt>
      <trkpt lat="48.20328" lon="-3.74299">
        <ele>80.9</ele>
        <time>2017-09-23T09:09:20.000Z</time>
      </trkpt>
      <trkpt lat="48.20327" lon="-3.74297">
        <ele>80.7</ele>
        <time>2017-09-23T09:09:21.000Z</time>
      </trkpt>
      <trkpt lat="48.20326" lon="-3.74295">
        <ele>80.7</ele>
        <time>2017-09-23T09:09:22.000Z</time>
      </trkpt>
      <trkpt lat="48.20325" lon="-3.74294">
        <ele>80.6</ele>
        <time>2017-09-23T09:09:23.000Z</time>
      </trkpt>
      <trkpt lat="48.20324" lon="-3.74292">
        <ele>80.6</ele>
        <time>2017-09-23T09:09:24.000Z</time>
      </trkpt>
      <trkpt lat="48.20323" lon="-3.74291">
        <ele>80.6</ele>
        <time>2017-09-23T09:09:25.000Z</time>
      </trkpt>
      <trkpt lat="48.20323" lon="-3.7429">
        <ele>80.7</ele>
        <time>2017-09-23T09:09:26.000Z</time>
      </trkpt>
      <trkpt lat="48.20322" lon="-3.74288">
        <ele>80.7</ele>
        <time>2017-09-23T09:09:27.000Z</time>
      </trkpt>
      <trkpt lat="48.20321" lon="-3.74288">
        <ele>80.7</ele>
        <time>2017-09-23T09:09:28.000Z</time>
      </trkpt>
      <trkpt lat="48.2032" lon="-3.74287">
        <ele>80.8</ele>
        <time>2017-09-23T09:09:29.000Z</time>
      </trkpt>
      <trkpt lat="48.2032" lon="-3.74286">
        <ele>80.8</ele>
        <time>2017-09-23T09:09:30.000Z</time>
      </trkpt>
      <trkpt lat="48.2032" lon="-3.74286">
        <ele>80.8</ele>
        <time>2017-09-23T09:09:31.000Z</time>
      </trkpt>
      <trkpt lat="48.2032" lon="-3.74286">
        <ele>80.8</ele>
        <time>2017-09-23T09:09:32.000Z</time>
      </trkpt>
      <trkpt lat="48.20319" lon="-3.74286">
        <ele>80.9</ele>
        <time>2017-09-23T09:09:33.000Z</time>
      </trkpt>
      <trkpt lat="48.20319" lon="-3.74286">
        <ele>80.8</ele>
        <time>2017-09-23T09:09:34.000Z</time>
      </trkpt>
      <trkpt lat="48.20319" lon="-3.74286">
        <ele>80.9</ele>
        <time>2017-09-23T09:09:35.000Z</time>
      </trkpt>
      <trkpt lat="48.20319" lon="-3.74286">
        <ele>80.9</ele>
        <time>2017-09-23T09:09:36.000Z</time>
      </trkpt>
      <trkpt lat="48.20319" lon="-3.74286">
        <ele>80.8</ele>
        <time>2017-09-23T09:09:37.000Z</time>
      </trkpt>
      <trkpt lat="48.20319" lon="-3.74286">
        <ele>80.8</ele>
        <time>2017-09-23T09:09:38.000Z</time>
      </trkpt>
      <trkpt lat="48.20319" lon="-3.74286">
        <ele>80.9</ele>
        <time>2017-09-23T09:09:39.000Z</time>
      </trkpt>
      <trkpt lat="48.20319" lon="-3.74285">
        <ele>80.8</ele>
        <time>2017-09-23T09:09:40.000Z</time>
      </trkpt>
      <trkpt lat="48.20319" lon="-3.74285">
        <ele>80.8</ele>
        <time>2017-09-23T09:09:41.000Z</time>
      </trkpt>
      <trkpt lat="48.20319" lon="-3.74285">
        <ele>80.8</ele>
        <time>2017-09-23T09:09:42.000Z</time>
      </trkpt>
      <trkpt lat="48.20319" lon="-3.74285">
        <ele>80.9</ele>
        <time>2017-09-23T09:09:43.000Z</time>
      </trkpt>
      <trkpt lat="48.20319" lon="-3.74285">
        <ele>80.9</ele>
        <time>2017-09-23T09:09:44.000Z</time>
      </trkpt>
      <trkpt lat="48.20319" lon="-3.74285">
        <ele>80.9</ele>
        <time>2017-09-23T09:09:45.000Z</time>
      </trkpt>
      <trkpt lat="48.20319" lon="-3.74285">
        <ele>80.9</ele>
        <time>2017-09-23T09:09:46.000Z</time>
      </trkpt>
      <trkpt lat="48.20318" lon="-3.74285">
        <ele>81</ele>
        <time>2017-09-23T09:09:47.000Z</time>
      </trkpt>
      <trkpt lat="48.20318" lon="-3.74285">
        <ele>81</ele>
        <time>2017-09-23T09:09:48.000Z</time>
      </trkpt>
      <trkpt lat="48.20318" lon="-3.74285">
        <ele>81.1</ele>
        <time>2017-09-23T09:09:49.000Z</time>
      </trkpt>
      <trkpt lat="48.20317" lon="-3.74285">
        <ele>81.2</ele>
        <time>2017-09-23T09:09:50.000Z</time>
      </trkpt>
      <trkpt lat="48.20317" lon="-3.74285">
        <ele>81.3</ele>
        <time>2017-09-23T09:09:51.000Z</time>
      </trkpt>
      <trkpt lat="48.20317" lon="-3.74285">
        <ele>81.3</ele>
        <time>2017-09-23T09:09:52.000Z</time>
      </trkpt>
      <trkpt lat="48.20317" lon="-3.74285">
        <ele>81.4</ele>
        <time>2017-09-23T09:09:53.000Z</time>
      </trkpt>
      <trkpt lat="48.20316" lon="-3.74285">
        <ele>81.5</ele>
        <time>2017-09-23T09:09:54.000Z</time>
      </trkpt>
      <trkpt lat="48.20316" lon="-3.74285">
        <ele>81.6</ele>
        <time>2017-09-23T09:09:55.000Z</time>
      </trkpt>
      <trkpt lat="48.20316" lon="-3.74286">
        <ele>81.7</ele>
        <time>2017-09-23T09:09:56.000Z</time>
      </trkpt>
      <trkpt lat="48.20316" lon="-3.74286">
        <ele>81.7</ele>
        <time>2017-09-23T09:09:57.000Z</time>
      </trkpt>
      <trkpt lat="48.20316" lon="-3.74286">
        <ele>81.8</ele>
        <time>2017-09-23T09:09:58.000Z</time>
      </trkpt>
      <trkpt lat="48.20316" lon="-3.74286">
        <ele>81.8</ele>
        <time>2017-09-23T09:09:59.000Z</time>
      </trkpt>
      <trkpt lat="48.20315" lon="-3.74286">
        <ele>81.8</ele>
        <time>2017-09-23T09:10:00.000Z</time>
      </trkpt>
      <trkpt lat="48.20315" lon="-3.74286">
        <ele>81.9</ele>
        <time>2017-09-23T09:10:01.000Z</time>
      </trkpt>
      <trkpt lat="48.20315" lon="-3.74286">
        <ele>81.9</ele>
        <time>2017-09-23T09:10:02.000Z</time>
      </trkpt>
      <trkpt lat="48.20315" lon="-3.74286">
        <ele>81.9</ele>
        <time>2017-09-23T09:10:03.000Z</time>
      </trkpt>
      <trkpt lat="48.20315" lon="-3.74286">
        <ele>81.9</ele>
        <time>2017-09-23T09:10:04.000Z</time>
      </trkpt>
      <trkpt lat="48.20315" lon="-3.74286">
        <ele>81.9</ele>
        <time>2017-09-23T09:10:05.000Z</time>
      </trkpt>
      <trkpt lat="48.20315" lon="-3.74286">
        <ele>81.9</ele>
        <time>2017-09-23T09:10:06.000Z</time>
      </trkpt>
      <trkpt lat="48.20315" lon="-3.74286">
        <ele>81.9</ele>
        <time>2017-09-23T09:10:07.000Z</time>
      </trkpt>
      <trkpt lat="48.20315" lon="-3.74286">
        <ele>81.9</ele>
        <time>2017-09-23T09:10:08.000Z</time>
      </trkpt>
      <trkpt lat="48.20315" lon="-3.74286">
        <ele>81.9</ele>
        <time>2017-09-23T09:10:09.000Z</time>
      </trkpt>
      <trkpt lat="48.20315" lon="-3.74286">
        <ele>81.9</ele>
        <time>2017-09-23T09:10:10.000Z</time>
      </trkpt>
      <trkpt lat="48.20315" lon="-3.74286">
        <ele>81.9</ele>
        <time>2017-09-23T09:10:11.000Z</time>
      </trkpt>
      <trkpt lat="48.20315" lon="-3.74286">
        <ele>81.9</ele>
        <time>2017-09-23T09:10:12.000Z</time>
      </trkpt>
      <trkpt lat="48.20315" lon="-3.74286">
        <ele>81.9</ele>
        <time>2017-09-23T09:10:13.000Z</time>
      </trkpt>
      <trkpt lat="48.20315" lon="-3.74286">
        <ele>81.9</ele>
        <time>2017-09-23T09:10:14.000Z</time>
      </trkpt>
      <trkpt lat="48.20315" lon="-3.74287">
        <ele>81.9</ele>
        <time>2017-09-23T09:10:15.000Z</time>
      </trkpt>
      <trkpt lat="48.20315" lon="-3.74287">
        <ele>81.9</ele>
        <time>2017-09-23T09:10:16.000Z</time>
      </trkpt>
      <trkpt lat="48.20315" lon="-3.74287">
        <ele>81.9</ele>
        <time>2017-09-23T09:10:17.000Z</time>
      </trkpt>
      <trkpt lat="48.20315" lon="-3.74287">
        <ele>81.9</ele>
        <time>2017-09-23T09:10:18.000Z</time>
      </trkpt>
      <trkpt lat="48.20315" lon="-3.74287">
        <ele>81.9</ele>
        <time>2017-09-23T09:10:19.000Z</time>
      </trkpt>
      <trkpt lat="48.20315" lon="-3.74287">
        <ele>81.9</ele>
        <time>2017-09-23T09:10:20.000Z</time>
      </trkpt>
      <trkpt lat="48.20315" lon="-3.74287">
        <ele>81.9</ele>
        <time>2017-09-23T09:10:21.000Z</time>
      </trkpt>
      <trkpt lat="48.20315" lon="-3.74286">
        <ele>81.9</ele>
        <time>2017-09-23T09:10:22.000Z</time>
      </trkpt>
      <trkpt lat="48.20315" lon="-3.74286">
        <ele>81.9</ele>
        <time>2017-09-23T09:10:23.000Z</time>
      </trkpt>
      <trkpt lat="48.20315" lon="-3.74286">
        <ele>81.9</ele>
        <time>2017-09-23T09:10:24.000Z</time>
      </trkpt>
      <trkpt lat="48.20315" lon="-3.74286">
        <ele>81.9</ele>
        <time>2017-09-23T09:10:25.000Z</time>
      </trkpt>
      <trkpt lat="48.20315" lon="-3.74286">
        <ele>81.9</ele>
        <time>2017-09-23T09:10:26.000Z</time>
      </trkpt>
      <trkpt lat="48.20315" lon="-3.74286">
        <ele>81.9</ele>
        <time>2017-09-23T09:10:27.000Z</time>
      </trkpt>
      <trkpt lat="48.20315" lon="-3.74286">
        <ele>81.9</ele>
        <time>2017-09-23T09:10:28.000Z</time>
      </trkpt>
      <trkpt lat="48.20315" lon="-3.74286">
        <ele>81.9</ele>
        <time>2017-09-23T09:10:29.000Z</time>
      </trkpt>
      <trkpt lat="48.20315" lon="-3.74286">
        <ele>81.9</ele>
        <time>2017-09-23T09:10:30.000Z</time>
      </trkpt>
      <trkpt lat="48.20315" lon="-3.74286">
        <ele>81.8</ele>
        <time>2017-09-23T09:10:31.000Z</time>
      </trkpt>
      <trkpt lat="48.20316" lon="-3.74286">
        <ele>81.7</ele>
        <time>2017-09-23T09:10:32.000Z</time>
      </trkpt>
      <trkpt lat="48.20316" lon="-3.74286">
        <ele>81.6</ele>
        <time>2017-09-23T09:10:33.000Z</time>
      </trkpt>
      <trkpt lat="48.20316" lon="-3.74285">
        <ele>81.5</ele>
        <time>2017-09-23T09:10:34.000Z</time>
      </trkpt>
      <trkpt lat="48.20317" lon="-3.74285">
        <ele>81.3</ele>
        <time>2017-09-23T09:10:35.000Z</time>
      </trkpt>
      <trkpt lat="48.20317" lon="-3.74284">
        <ele>81.1</ele>
        <time>2017-09-23T09:10:36.000Z</time>
      </trkpt>
      <trkpt lat="48.20318" lon="-3.74284">
        <ele>80.9</ele>
        <time>2017-09-23T09:10:37.000Z</time>
      </trkpt>
      <trkpt lat="48.20318" lon="-3.74283">
        <ele>80.8</ele>
        <time>2017-09-23T09:10:38.000Z</time>
      </trkpt>
      <trkpt lat="48.20318" lon="-3.74283">
        <ele>80.7</ele>
        <time>2017-09-23T09:10:39.000Z</time>
      </trkpt>
      <trkpt lat="48.20319" lon="-3.74283">
        <ele>80.6</ele>
        <time>2017-09-23T09:10:40.000Z</time>
      </trkpt>
      <trkpt lat="48.20319" lon="-3.74283">
        <ele>80.5</ele>
        <time>2017-09-23T09:10:41.000Z</time>
      </trkpt>
      <trkpt lat="48.20319" lon="-3.74283">
        <ele>80.5</ele>
        <time>2017-09-23T09:10:42.000Z</time>
      </trkpt>
      <trkpt lat="48.20319" lon="-3.74283">
        <ele>80.4</ele>
        <time>2017-09-23T09:10:43.000Z</time>
      </trkpt>
      <trkpt lat="48.20319" lon="-3.74282">
        <ele>80.4</ele>
        <time>2017-09-23T09:10:44.000Z</time>
      </trkpt>
      <trkpt lat="48.2032" lon="-3.74282">
        <ele>80.3</ele>
        <time>2017-09-23T09:10:45.000Z</time>
      </trkpt>
      <trkpt lat="48.2032" lon="-3.74282">
        <ele>80.3</ele>
        <time>2017-09-23T09:10:46.000Z</time>
      </trkpt>
      <trkpt lat="48.2032" lon="-3.74282">
        <ele>80.2</ele>
        <time>2017-09-23T09:10:47.000Z</time>
      </trkpt>
      <trkpt lat="48.2032" lon="-3.74282">
        <ele>80.1</ele>
        <time>2017-09-23T09:10:48.000Z</time>
      </trkpt>
      <trkpt lat="48.2032" lon="-3.74282">
        <ele>80.1</ele>
        <time>2017-09-23T09:10:49.000Z</time>
      </trkpt>
      <trkpt lat="48.20321" lon="-3.74282">
        <ele>80</ele>
        <time>2017-09-23T09:10:50.000Z</time>
      </trkpt>
      <trkpt lat="48.20321" lon="-3.74281">
        <ele>80</ele>
        <time>2017-09-23T09:10:51.000Z</time>
      </trkpt>
      <trkpt lat="48.20321" lon="-3.74281">
        <ele>79.8</ele>
        <time>2017-09-23T09:10:52.000Z</time>
      </trkpt>
      <trkpt lat="48.20321" lon="-3.7428">
        <ele>79.6</ele>
        <time>2017-09-23T09:10:53.000Z</time>
      </trkpt>
      <trkpt lat="48.20322" lon="-3.7428">
        <ele>79.5</ele>
        <time>2017-09-23T09:10:54.000Z</time>
      </trkpt>
      <trkpt lat="48.20322" lon="-3.7428">
        <ele>79.5</ele>
        <time>2017-09-23T09:10:55.000Z</time>
      </trkpt>
      <trkpt lat="48.20322" lon="-3.7428">
        <ele>79.4</ele>
        <time>2017-09-23T09:10:56.000Z</time>
      </trkpt>
      <trkpt lat="48.20322" lon="-3.74279">
        <ele>79.4</ele>
        <time>2017-09-23T09:10:57.000Z</time>
      </trkpt>
      <trkpt lat="48.20322" lon="-3.74279">
        <ele>79.4</ele>
        <time>2017-09-23T09:10:58.000Z</time>
      </trkpt>
      <trkpt lat="48.20322" lon="-3.74279">
        <ele>79.4</ele>
        <time>2017-09-23T09:10:59.000Z</time>
      </trkpt>
      <trkpt lat="48.20322" lon="-3.74279">
        <ele>79.3</ele>
        <time>2017-09-23T09:11:00.000Z</time>
      </trkpt>
      <trkpt lat="48.20322" lon="-3.74279">
        <ele>79.3</ele>
        <time>2017-09-23T09:11:01.000Z</time>
      </trkpt>
      <trkpt lat="48.20322" lon="-3.74279">
        <ele>79.3</ele>
        <time>2017-09-23T09:11:02.000Z</time>
      </trkpt>
      <trkpt lat="48.20322" lon="-3.74279">
        <ele>79.2</ele>
        <time>2017-09-23T09:11:03.000Z</time>
      </trkpt>
      <trkpt lat="48.20322" lon="-3.74279">
        <ele>79.2</ele>
        <time>2017-09-23T09:11:04.000Z</time>
      </trkpt>
      <trkpt lat="48.20322" lon="-3.74278">
        <ele>79.2</ele>
        <time>2017-09-23T09:11:05.000Z</time>
      </trkpt>
      <trkpt lat="48.20322" lon="-3.74278">
        <ele>79.2</ele>
        <time>2017-09-23T09:11:06.000Z</time>
      </trkpt>
      <trkpt lat="48.20322" lon="-3.74278">
        <ele>79.2</ele>
        <time>2017-09-23T09:11:07.000Z</time>
      </trkpt>
      <trkpt lat="48.20322" lon="-3.74278">
        <ele>79.3</ele>
        <time>2017-09-23T09:11:08.000Z</time>
      </trkpt>
      <trkpt lat="48.20321" lon="-3.74278">
        <ele>79.3</ele>
        <time>2017-09-23T09:11:09.000Z</time>
      </trkpt>
      <trkpt lat="48.20321" lon="-3.74278">
        <ele>79.3</ele>
        <time>2017-09-23T09:11:10.000Z</time>
      </trkpt>
      <trkpt lat="48.20321" lon="-3.74278">
        <ele>79.3</ele>
        <time>2017-09-23T09:11:11.000Z</time>
      </trkpt>
      <trkpt lat="48.20319" lon="-3.74277">
        <ele>79.6</ele>
        <time>2017-09-23T09:11:12.000Z</time>
      </trkpt>
      <trkpt lat="48.20318" lon="-3.74276">
        <ele>79.9</ele>
        <time>2017-09-23T09:11:13.000Z</time>
      </trkpt>
      <trkpt lat="48.20317" lon="-3.74275">
        <ele>80</ele>
        <time>2017-09-23T09:11:14.000Z</time>
      </trkpt>
      <trkpt lat="48.20316" lon="-3.74274">
        <ele>80.1</ele>
        <time>2017-09-23T09:11:15.000Z</time>
      </trkpt>
      <trkpt lat="48.20316" lon="-3.74274">
        <ele>80.1</ele>
        <time>2017-09-23T09:11:16.000Z</time>
      </trkpt>
      <trkpt lat="48.20316" lon="-3.74274">
        <ele>80.1</ele>
        <time>2017-09-23T09:11:17.000Z</time>
      </trkpt>
      <trkpt lat="48.20316" lon="-3.74274">
        <ele>80.1</ele>
        <time>2017-09-23T09:11:18.000Z</time>
      </trkpt>
      <trkpt lat="48.20316" lon="-3.74273">
        <ele>80</ele>
        <time>2017-09-23T09:11:19.000Z</time>
      </trkpt>
      <trkpt lat="48.20316" lon="-3.74273">
        <ele>80</ele>
        <time>2017-09-23T09:11:20.000Z</time>
      </trkpt>
      <trkpt lat="48.20316" lon="-3.74273">
        <ele>80</ele>
        <time>2017-09-23T09:11:21.000Z</time>
      </trkpt>
      <trkpt lat="48.20316" lon="-3.74273">
        <ele>80</ele>
        <time>2017-09-23T09:11:22.000Z</time>
      </trkpt>
      <trkpt lat="48.20316" lon="-3.74273">
        <ele>79.9</ele>
        <time>2017-09-23T09:11:23.000Z</time>
      </trkpt>
      <trkpt lat="48.20316" lon="-3.74272">
        <ele>79.9</ele>
        <time>2017-09-23T09:11:24.000Z</time>
      </trkpt>
      <trkpt lat="48.20316" lon="-3.74272">
        <ele>79.9</ele>
        <time>2017-09-23T09:11:25.000Z</time>
      </trkpt>
      <trkpt lat="48.20316" lon="-3.74272">
        <ele>79.9</ele>
        <time>2017-09-23T09:11:26.000Z</time>
      </trkpt>
      <trkpt lat="48.20316" lon="-3.74272">
        <ele>79.9</ele>
        <time>2017-09-23T09:11:27.000Z</time>
      </trkpt>
      <trkpt lat="48.20315" lon="-3.74271">
        <ele>79.8</ele>
        <time>2017-09-23T09:11:28.000Z</time>
      </trkpt>
      <trkpt lat="48.20315" lon="-3.7427">
        <ele>79.8</ele>
        <time>2017-09-23T09:11:29.000Z</time>
      </trkpt>
      <trkpt lat="48.20314" lon="-3.74268">
        <ele>79.7</ele>
        <time>2017-09-23T09:11:30.000Z</time>
      </trkpt>
      <trkpt lat="48.20314" lon="-3.74267">
        <ele>79.7</ele>
        <time>2017-09-23T09:11:31.000Z</time>
      </trkpt>
      <trkpt lat="48.20314" lon="-3.74266">
        <ele>79.6</ele>
        <time>2017-09-23T09:11:32.000Z</time>
      </trkpt>
      <trkpt lat="48.20314" lon="-3.74266">
        <ele>79.6</ele>
        <time>2017-09-23T09:11:33.000Z</time>
      </trkpt>
      <trkpt lat="48.20314" lon="-3.74265">
        <ele>79.5</ele>
        <time>2017-09-23T09:11:34.000Z</time>
      </trkpt>
      <trkpt lat="48.20313" lon="-3.74265">
        <ele>79.5</ele>
        <time>2017-09-23T09:11:35.000Z</time>
      </trkpt>
      <trkpt lat="48.20313" lon="-3.74264">
        <ele>79.4</ele>
        <time>2017-09-23T09:11:36.000Z</time>
      </trkpt>
      <trkpt lat="48.20313" lon="-3.74264">
        <ele>79.3</ele>
        <time>2017-09-23T09:11:37.000Z</time>
      </trkpt>
      <trkpt lat="48.20313" lon="-3.74264">
        <ele>79.3</ele>
        <time>2017-09-23T09:11:38.000Z</time>
      </trkpt>
      <trkpt lat="48.20313" lon="-3.74263">
        <ele>79.3</ele>
        <time>2017-09-23T09:11:39.000Z</time>
      </trkpt>
      <trkpt lat="48.20313" lon="-3.74262">
        <ele>79.2</ele>
        <time>2017-09-23T09:11:40.000Z</time>
      </trkpt>
      <trkpt lat="48.20313" lon="-3.74261">
        <ele>79.1</ele>
        <time>2017-09-23T09:11:41.000Z</time>
      </trkpt>
      <trkpt lat="48.20312" lon="-3.74259">
        <ele>78.9</ele>
        <time>2017-09-23T09:11:42.000Z</time>
      </trkpt>
      <trkpt lat="48.20312" lon="-3.74257">
        <ele>78.8</ele>
        <time>2017-09-23T09:11:43.000Z</time>
      </trkpt>
      <trkpt lat="48.20312" lon="-3.74257">
        <ele>78.8</ele>
        <time>2017-09-23T09:11:44.000Z</time>
      </trkpt>
      <trkpt lat="48.20312" lon="-3.74256">
        <ele>78.7</ele>
        <time>2017-09-23T09:11:45.000Z</time>
      </trkpt>
      <trkpt lat="48.20312" lon="-3.74256">
        <ele>78.7</ele>
        <time>2017-09-23T09:11:46.000Z</time>
      </trkpt>
      <trkpt lat="48.20312" lon="-3.74255">
        <ele>78.7</ele>
        <time>2017-09-23T09:11:47.000Z</time>
      </trkpt>
      <trkpt lat="48.20312" lon="-3.74255">
        <ele>78.7</ele>
        <time>2017-09-23T09:11:48.000Z</time>
      </trkpt>
      <trkpt lat="48.20311" lon="-3.74255">
        <ele>78.7</ele>
        <time>2017-09-23T09:11:49.000Z</time>
      </trkpt>
      <trkpt lat="48.20311" lon="-3.74255">
        <ele>78.7</ele>
        <time>2017-09-23T09:11:50.000Z</time>
      </trkpt>
      <trkpt lat="48.20311" lon="-3.74255">
        <ele>78.7</ele>
        <time>2017-09-23T09:11:51.000Z</time>
      </trkpt>
      <trkpt lat="48.20311" lon="-3.74255">
        <ele>78.7</ele>
        <time>2017-09-23T09:11:52.000Z</time>
      </trkpt>
      <trkpt lat="48.20311" lon="-3.74255">
        <ele>78.7</ele>
        <time>2017-09-23T09:11:53.000Z</time>
      </trkpt>
      <trkpt lat="48.20311" lon="-3.74254">
        <ele>78.7</ele>
        <time>2017-09-23T09:11:54.000Z</time>
      </trkpt>
      <trkpt lat="48.20311" lon="-3.74254">
        <ele>78.6</ele>
        <time>2017-09-23T09:11:55.000Z</time>
      </trkpt>
      <trkpt lat="48.20311" lon="-3.74254">
        <ele>78.6</ele>
        <time>2017-09-23T09:11:56.000Z</time>
      </trkpt>
      <trkpt lat="48.20311" lon="-3.74254">
        <ele>78.6</ele>
        <time>2017-09-23T09:11:57.000Z</time>
      </trkpt>
      <trkpt lat="48.20311" lon="-3.74254">
        <ele>78.6</ele>
        <time>2017-09-23T09:11:58.000Z</time>
      </trkpt>
      <trkpt lat="48.20311" lon="-3.74254">
        <ele>78.6</ele>
        <time>2017-09-23T09:11:59.000Z</time>
      </trkpt>
      <trkpt lat="48.20311" lon="-3.74254">
        <ele>78.6</ele>
        <time>2017-09-23T09:12:00.000Z</time>
      </trkpt>
      <trkpt lat="48.20311" lon="-3.74254">
        <ele>78.6</ele>
        <time>2017-09-23T09:12:01.000Z</time>
      </trkpt>
      <trkpt lat="48.20311" lon="-3.74253">
        <ele>78.5</ele>
        <time>2017-09-23T09:12:02.000Z</time>
      </trkpt>
      <trkpt lat="48.20311" lon="-3.74253">
        <ele>78.5</ele>
        <time>2017-09-23T09:12:03.000Z</time>
      </trkpt>
      <trkpt lat="48.20311" lon="-3.74252">
        <ele>78.4</ele>
        <time>2017-09-23T09:12:04.000Z</time>
      </trkpt>
      <trkpt lat="48.20311" lon="-3.74252">
        <ele>78.3</ele>
        <time>2017-09-23T09:12:05.000Z</time>
      </trkpt>
      <trkpt lat="48.20311" lon="-3.74251">
        <ele>78.3</ele>
        <time>2017-09-23T09:12:06.000Z</time>
      </trkpt>
      <trkpt lat="48.20311" lon="-3.7425">
        <ele>78.2</ele>
        <time>2017-09-23T09:12:07.000Z</time>
      </trkpt>
      <trkpt lat="48.20311" lon="-3.7425">
        <ele>78.2</ele>
        <time>2017-09-23T09:12:08.000Z</time>
      </trkpt>
      <trkpt lat="48.20311" lon="-3.74249">
        <ele>78.1</ele>
        <time>2017-09-23T09:12:09.000Z</time>
      </trkpt>
      <trkpt lat="48.20311" lon="-3.74249">
        <ele>78.1</ele>
        <time>2017-09-23T09:12:10.000Z</time>
      </trkpt>
      <trkpt lat="48.20311" lon="-3.74249">
        <ele>78.1</ele>
        <time>2017-09-23T09:12:11.000Z</time>
      </trkpt>
      <trkpt lat="48.2031" lon="-3.74248">
        <ele>78.1</ele>
        <time>2017-09-23T09:12:12.000Z</time>
      </trkpt>
      <trkpt lat="48.2031" lon="-3.74248">
        <ele>78.1</ele>
        <time>2017-09-23T09:12:13.000Z</time>
      </trkpt>
      <trkpt lat="48.2031" lon="-3.74248">
        <ele>78.1</ele>
        <time>2017-09-23T09:12:14.000Z</time>
      </trkpt>
      <trkpt lat="48.2031" lon="-3.74248">
        <ele>78.1</ele>
        <time>2017-09-23T09:12:15.000Z</time>
      </trkpt>
      <trkpt lat="48.2031" lon="-3.74248">
        <ele>78.1</ele>
        <time>2017-09-23T09:12:16.000Z</time>
      </trkpt>
      <trkpt lat="48.2031" lon="-3.74248">
        <ele>78</ele>
        <time>2017-09-23T09:12:17.000Z</time>
      </trkpt>
      <trkpt lat="48.2031" lon="-3.74247">
        <ele>78</ele>
        <time>2017-09-23T09:12:18.000Z</time>
      </trkpt>
      <trkpt lat="48.2031" lon="-3.74246">
        <ele>77.9</ele>
        <time>2017-09-23T09:12:19.000Z</time>
      </trkpt>
      <trkpt lat="48.2031" lon="-3.74245">
        <ele>77.8</ele>
        <time>2017-09-23T09:12:20.000Z</time>
      </trkpt>
      <trkpt lat="48.20309" lon="-3.74243">
        <ele>77.6</ele>
        <time>2017-09-23T09:12:21.000Z</time>
      </trkpt>
      <trkpt lat="48.20309" lon="-3.74241">
        <ele>77.4</ele>
        <time>2017-09-23T09:12:22.000Z</time>
      </trkpt>
      <trkpt lat="48.20308" lon="-3.74238">
        <ele>77.2</ele>
        <time>2017-09-23T09:12:23.000Z</time>
      </trkpt>
      <trkpt lat="48.20308" lon="-3.74235">
        <ele>76.9</ele>
        <time>2017-09-23T09:12:24.000Z</time>
      </trkpt>
      <trkpt lat="48.20307" lon="-3.74232">
        <ele>76.7</ele>
        <time>2017-09-23T09:12:25.000Z</time>
      </trkpt>
      <trkpt lat="48.20306" lon="-3.74229">
        <ele>76.5</ele>
        <time>2017-09-23T09:12:26.000Z</time>
      </trkpt>
      <trkpt lat="48.20305" lon="-3.74227">
        <ele>76.4</ele>
        <time>2017-09-23T09:12:27.000Z</time>
      </trkpt>
      <trkpt lat="48.20304" lon="-3.74225">
        <ele>76.4</ele>
        <time>2017-09-23T09:12:28.000Z</time>
      </trkpt>
      <trkpt lat="48.20304" lon="-3.74224">
        <ele>76.5</ele>
        <time>2017-09-23T09:12:29.000Z</time>
      </trkpt>
      <trkpt lat="48.20303" lon="-3.74223">
        <ele>76.5</ele>
        <time>2017-09-23T09:12:30.000Z</time>
      </trkpt>
      <trkpt lat="48.20302" lon="-3.74223">
        <ele>76.6</ele>
        <time>2017-09-23T09:12:31.000Z</time>
      </trkpt>
      <trkpt lat="48.20302" lon="-3.74223">
        <ele>76.6</ele>
        <time>2017-09-23T09:12:32.000Z</time>
      </trkpt>
      <trkpt lat="48.20302" lon="-3.74223">
        <ele>76.6</ele>
        <time>2017-09-23T09:12:33.000Z</time>
      </trkpt>
      <trkpt lat="48.20302" lon="-3.74223">
        <ele>76.6</ele>
        <time>2017-09-23T09:12:34.000Z</time>
      </trkpt>
      <trkpt lat="48.20302" lon="-3.74223">
        <ele>76.6</ele>
        <time>2017-09-23T09:12:35.000Z</time>
      </trkpt>
      <trkpt lat="48.20302" lon="-3.74222">
        <ele>76.6</ele>
        <time>2017-09-23T09:12:36.000Z</time>
      </trkpt>
      <trkpt lat="48.20302" lon="-3.74222">
        <ele>76.7</ele>
        <time>2017-09-23T09:12:37.000Z</time>
      </trkpt>
      <trkpt lat="48.20301" lon="-3.74222">
        <ele>76.7</ele>
        <time>2017-09-23T09:12:38.000Z</time>
      </trkpt>
      <trkpt lat="48.20301" lon="-3.74221">
        <ele>76.8</ele>
        <time>2017-09-23T09:12:39.000Z</time>
      </trkpt>
      <trkpt lat="48.203" lon="-3.74221">
        <ele>76.9</ele>
        <time>2017-09-23T09:12:40.000Z</time>
      </trkpt>
      <trkpt lat="48.20299" lon="-3.7422">
        <ele>77</ele>
        <time>2017-09-23T09:12:41.000Z</time>
      </trkpt>
      <trkpt lat="48.20298" lon="-3.74219">
        <ele>77.2</ele>
        <time>2017-09-23T09:12:42.000Z</time>
      </trkpt>
      <trkpt lat="48.20297" lon="-3.74218">
        <ele>77.3</ele>
        <time>2017-09-23T09:12:43.000Z</time>
      </trkpt>
      <trkpt lat="48.20296" lon="-3.74217">
        <ele>77.3</ele>
        <time>2017-09-23T09:12:44.000Z</time>
      </trkpt>
      <trkpt lat="48.20295" lon="-3.74216">
        <ele>77.4</ele>
        <time>2017-09-23T09:12:45.000Z</time>
      </trkpt>
      <trkpt lat="48.20295" lon="-3.74215">
        <ele>77.5</ele>
        <time>2017-09-23T09:12:46.000Z</time>
      </trkpt>
      <trkpt lat="48.20294" lon="-3.74214">
        <ele>77.5</ele>
        <time>2017-09-23T09:12:47.000Z</time>
      </trkpt>
      <trkpt lat="48.20293" lon="-3.74213">
        <ele>77.6</ele>
        <time>2017-09-23T09:12:48.000Z</time>
      </trkpt>
      <trkpt lat="48.20292" lon="-3.74212">
        <ele>77.6</ele>
        <time>2017-09-23T09:12:49.000Z</time>
      </trkpt>
      <trkpt lat="48.20292" lon="-3.74211">
        <ele>77.7</ele>
        <time>2017-09-23T09:12:50.000Z</time>
      </trkpt>
      <trkpt lat="48.20291" lon="-3.7421">
        <ele>77.8</ele>
        <time>2017-09-23T09:12:51.000Z</time>
      </trkpt>
      <trkpt lat="48.2029" lon="-3.7421">
        <ele>77.8</ele>
        <time>2017-09-23T09:12:52.000Z</time>
      </trkpt>
      <trkpt lat="48.2029" lon="-3.74209">
        <ele>77.9</ele>
        <time>2017-09-23T09:12:53.000Z</time>
      </trkpt>
      <trkpt lat="48.20289" lon="-3.74208">
        <ele>77.9</ele>
        <time>2017-09-23T09:12:54.000Z</time>
      </trkpt>
      <trkpt lat="48.20289" lon="-3.74208">
        <ele>77.9</ele>
        <time>2017-09-23T09:12:55.000Z</time>
      </trkpt>
      <trkpt lat="48.20288" lon="-3.74207">
        <ele>78</ele>
        <time>2017-09-23T09:12:56.000Z</time>
      </trkpt>
      <trkpt lat="48.20288" lon="-3.74206">
        <ele>78</ele>
        <time>2017-09-23T09:12:57.000Z</time>
      </trkpt>
      <trkpt lat="48.20287" lon="-3.74206">
        <ele>78</ele>
        <time>2017-09-23T09:12:58.000Z</time>
      </trkpt>
      <trkpt lat="48.20287" lon="-3.74205">
        <ele>78</ele>
        <time>2017-09-23T09:12:59.000Z</time>
      </trkpt>
      <trkpt lat="48.20287" lon="-3.74204">
        <ele>78</ele>
        <time>2017-09-23T09:13:00.000Z</time>
      </trkpt>
      <trkpt lat="48.20286" lon="-3.74204">
        <ele>77.9</ele>
        <time>2017-09-23T09:13:01.000Z</time>
      </trkpt>
      <trkpt lat="48.20286" lon="-3.74203">
        <ele>77.9</ele>
        <time>2017-09-23T09:13:02.000Z</time>
      </trkpt>
      <trkpt lat="48.20286" lon="-3.74202">
        <ele>77.9</ele>
        <time>2017-09-23T09:13:03.000Z</time>
      </trkpt>
      <trkpt lat="48.20285" lon="-3.74202">
        <ele>77.9</ele>
        <time>2017-09-23T09:13:04.000Z</time>
      </trkpt>
      <trkpt lat="48.20285" lon="-3.74201">
        <ele>77.9</ele>
        <time>2017-09-23T09:13:05.000Z</time>
      </trkpt>
      <trkpt lat="48.20285" lon="-3.74201">
        <ele>77.9</ele>
        <time>2017-09-23T09:13:06.000Z</time>
      </trkpt>
      <trkpt lat="48.20284" lon="-3.742">
        <ele>78</ele>
        <time>2017-09-23T09:13:07.000Z</time>
      </trkpt>
      <trkpt lat="48.20284" lon="-3.742">
        <ele>78</ele>
        <time>2017-09-23T09:13:08.000Z</time>
      </trkpt>
      <trkpt lat="48.20283" lon="-3.74199">
        <ele>78</ele>
        <time>2017-09-23T09:13:09.000Z</time>
      </trkpt>
      <trkpt lat="48.20283" lon="-3.74199">
        <ele>78.1</ele>
        <time>2017-09-23T09:13:10.000Z</time>
      </trkpt>
      <trkpt lat="48.20282" lon="-3.74198">
        <ele>78.1</ele>
        <time>2017-09-23T09:13:11.000Z</time>
      </trkpt>
      <trkpt lat="48.20282" lon="-3.74197">
        <ele>78.1</ele>
        <time>2017-09-23T09:13:12.000Z</time>
      </trkpt>
      <trkpt lat="48.20281" lon="-3.74197">
        <ele>78.1</ele>
        <time>2017-09-23T09:13:13.000Z</time>
      </trkpt>
      <trkpt lat="48.20281" lon="-3.74196">
        <ele>78.1</ele>
        <time>2017-09-23T09:13:14.000Z</time>
      </trkpt>
      <trkpt lat="48.20281" lon="-3.74195">
        <ele>78</ele>
        <time>2017-09-23T09:13:15.000Z</time>
      </trkpt>
      <trkpt lat="48.20281" lon="-3.74195">
        <ele>78</ele>
        <time>2017-09-23T09:13:16.000Z</time>
      </trkpt>
      <trkpt lat="48.2028" lon="-3.74194">
        <ele>78</ele>
        <time>2017-09-23T09:13:17.000Z</time>
      </trkpt>
      <trkpt lat="48.2028" lon="-3.74194">
        <ele>78</ele>
        <time>2017-09-23T09:13:18.000Z</time>
      </trkpt>
      <trkpt lat="48.2028" lon="-3.74194">
        <ele>78</ele>
        <time>2017-09-23T09:13:19.000Z</time>
      </trkpt>
      <trkpt lat="48.2028" lon="-3.74193">
        <ele>78</ele>
        <time>2017-09-23T09:13:20.000Z</time>
      </trkpt>
      <trkpt lat="48.20279" lon="-3.74192">
        <ele>78.1</ele>
        <time>2017-09-23T09:13:21.000Z</time>
      </trkpt>
      <trkpt lat="48.20278" lon="-3.74192">
        <ele>78.2</ele>
        <time>2017-09-23T09:13:22.000Z</time>
      </trkpt>
      <trkpt lat="48.20277" lon="-3.74191">
        <ele>78.3</ele>
        <time>2017-09-23T09:13:23.000Z</time>
      </trkpt>
      <trkpt lat="48.20276" lon="-3.7419">
        <ele>78.4</ele>
        <time>2017-09-23T09:13:24.000Z</time>
      </trkpt>
      <trkpt lat="48.20276" lon="-3.7419">
        <ele>78.5</ele>
        <time>2017-09-23T09:13:25.000Z</time>
      </trkpt>
      <trkpt lat="48.20275" lon="-3.74189">
        <ele>78.5</ele>
        <time>2017-09-23T09:13:26.000Z</time>
      </trkpt>
      <trkpt lat="48.20275" lon="-3.74188">
        <ele>78.5</ele>
        <time>2017-09-23T09:13:27.000Z</time>
      </trkpt>
      <trkpt lat="48.20274" lon="-3.74188">
        <ele>78.5</ele>
        <time>2017-09-23T09:13:28.000Z</time>
      </trkpt>
      <trkpt lat="48.20274" lon="-3.74187">
        <ele>78.5</ele>
        <time>2017-09-23T09:13:29.000Z</time>
      </trkpt>
      <trkpt lat="48.20274" lon="-3.74187">
        <ele>78.4</ele>
        <time>2017-09-23T09:13:30.000Z</time>
      </trkpt>
      <trkpt lat="48.20274" lon="-3.74187">
        <ele>78.4</ele>
        <time>2017-09-23T09:13:31.000Z</time>
      </trkpt>
      <trkpt lat="48.20274" lon="-3.74186">
        <ele>78.3</ele>
        <time>2017-09-23T09:13:32.000Z</time>
      </trkpt>
      <trkpt lat="48.20274" lon="-3.74186">
        <ele>78.3</ele>
        <time>2017-09-23T09:13:33.000Z</time>
      </trkpt>
      <trkpt lat="48.20274" lon="-3.74186">
        <ele>78.2</ele>
        <time>2017-09-23T09:13:34.000Z</time>
      </trkpt>
      <trkpt lat="48.20274" lon="-3.74186">
        <ele>78.2</ele>
        <time>2017-09-23T09:13:35.000Z</time>
      </trkpt>
      <trkpt lat="48.20274" lon="-3.74186">
        <ele>78.2</ele>
        <time>2017-09-23T09:13:36.000Z</time>
      </trkpt>
      <trkpt lat="48.20274" lon="-3.74186">
        <ele>78.2</ele>
        <time>2017-09-23T09:13:37.000Z</time>
      </trkpt>
      <trkpt lat="48.20274" lon="-3.74186">
        <ele>78.1</ele>
        <time>2017-09-23T09:13:38.000Z</time>
      </trkpt>
      <trkpt lat="48.20274" lon="-3.74185">
        <ele>78.1</ele>
        <time>2017-09-23T09:13:39.000Z</time>
      </trkpt>
      <trkpt lat="48.20274" lon="-3.74185">
        <ele>78.1</ele>
        <time>2017-09-23T09:13:40.000Z</time>
      </trkpt>
      <trkpt lat="48.20275" lon="-3.74185">
        <ele>78</ele>
        <time>2017-09-23T09:13:41.000Z</time>
      </trkpt>
      <trkpt lat="48.20275" lon="-3.74185">
        <ele>78</ele>
        <time>2017-09-23T09:13:42.000Z</time>
      </trkpt>
      <trkpt lat="48.20275" lon="-3.74185">
        <ele>77.9</ele>
        <time>2017-09-23T09:13:43.000Z</time>
      </trkpt>
      <trkpt lat="48.20275" lon="-3.74184">
        <ele>77.7</ele>
        <time>2017-09-23T09:13:44.000Z</time>
      </trkpt>
      <trkpt lat="48.20276" lon="-3.74184">
        <ele>77.5</ele>
        <time>2017-09-23T09:13:45.000Z</time>
      </trkpt>
      <trkpt lat="48.20276" lon="-3.74183">
        <ele>77.3</ele>
        <time>2017-09-23T09:13:46.000Z</time>
      </trkpt>
      <trkpt lat="48.20277" lon="-3.74183">
        <ele>77</ele>
        <time>2017-09-23T09:13:47.000Z</time>
      </trkpt>
      <trkpt lat="48.20278" lon="-3.74182">
        <ele>76.8</ele>
        <time>2017-09-23T09:13:48.000Z</time>
      </trkpt>
      <trkpt lat="48.20278" lon="-3.74181">
        <ele>76.6</ele>
        <time>2017-09-23T09:13:49.000Z</time>
      </trkpt>
      <trkpt lat="48.20278" lon="-3.74181">
        <ele>76.4</ele>
        <time>2017-09-23T09:13:50.000Z</time>
      </trkpt>
      <trkpt lat="48.20279" lon="-3.74181">
        <ele>76.4</ele>
        <time>2017-09-23T09:13:51.000Z</time>
      </trkpt>
      <trkpt lat="48.20278" lon="-3.74181">
        <ele>76.4</ele>
        <time>2017-09-23T09:13:52.000Z</time>
      </trkpt>
      <trkpt lat="48.20279" lon="-3.7418">
        <ele>76.3</ele>
        <time>2017-09-23T09:13:53.000Z</time>
      </trkpt>
      <trkpt lat="48.20279" lon="-3.7418">
        <ele>76.1</ele>
        <time>2017-09-23T09:13:54.000Z</time>
      </trkpt>
      <trkpt lat="48.20279" lon="-3.74179">
        <ele>75.8</ele>
        <time>2017-09-23T09:13:55.000Z</time>
      </trkpt>
      <trkpt lat="48.2028" lon="-3.74178">
        <ele>75.5</ele>
        <time>2017-09-23T09:13:56.000Z</time>
      </trkpt>
      <trkpt lat="48.20281" lon="-3.74177">
        <ele>75.2</ele>
        <time>2017-09-23T09:13:57.000Z</time>
      </trkpt>
      <trkpt lat="48.20281" lon="-3.74176">
        <ele>74.9</ele>
        <time>2017-09-23T09:13:58.000Z</time>
      </trkpt>
      <trkpt lat="48.20282" lon="-3.74176">
        <ele>74.7</ele>
        <time>2017-09-23T09:13:59.000Z</time>
      </trkpt>
      <trkpt lat="48.20283" lon="-3.74175">
        <ele>74.4</ele>
        <time>2017-09-23T09:14:00.000Z</time>
      </trkpt>
      <trkpt lat="48.20284" lon="-3.74175">
        <ele>74.2</ele>
        <time>2017-09-23T09:14:01.000Z</time>
      </trkpt>
      <trkpt lat="48.20284" lon="-3.74174">
        <ele>74</ele>
        <time>2017-09-23T09:14:02.000Z</time>
      </trkpt>
      <trkpt lat="48.20285" lon="-3.74174">
        <ele>73.8</ele>
        <time>2017-09-23T09:14:03.000Z</time>
      </trkpt>
      <trkpt lat="48.20285" lon="-3.74174">
        <ele>73.6</ele>
        <time>2017-09-23T09:14:04.000Z</time>
      </trkpt>
      <trkpt lat="48.20286" lon="-3.74174">
        <ele>73.5</ele>
        <time>2017-09-23T09:14:05.000Z</time>
      </trkpt>
      <trkpt lat="48.20286" lon="-3.74174">
        <ele>73.4</ele>
        <time>2017-09-23T09:14:06.000Z</time>
      </trkpt>
      <trkpt lat="48.20286" lon="-3.74174">
        <ele>73.4</ele>
        <time>2017-09-23T09:14:07.000Z</time>
      </trkpt>
      <trkpt lat="48.20286" lon="-3.74174">
        <ele>73.4</ele>
        <time>2017-09-23T09:14:08.000Z</time>
      </trkpt>
      <trkpt lat="48.20287" lon="-3.74174">
        <ele>73.3</ele>
        <time>2017-09-23T09:14:09.000Z</time>
      </trkpt>
      <trkpt lat="48.20287" lon="-3.74174">
        <ele>73.1</ele>
        <time>2017-09-23T09:14:10.000Z</time>
      </trkpt>
      <trkpt lat="48.20288" lon="-3.74174">
        <ele>72.9</ele>
        <time>2017-09-23T09:14:11.000Z</time>
      </trkpt>
      <trkpt lat="48.20289" lon="-3.74174">
        <ele>72.6</ele>
        <time>2017-09-23T09:14:12.000Z</time>
      </trkpt>
      <trkpt lat="48.2029" lon="-3.74173">
        <ele>72.4</ele>
        <time>2017-09-23T09:14:13.000Z</time>
      </trkpt>
      <trkpt lat="48.20291" lon="-3.74173">
        <ele>72.1</ele>
        <time>2017-09-23T09:14:14.000Z</time>
      </trkpt>
      <trkpt lat="48.20291" lon="-3.74172">
        <ele>71.9</ele>
        <time>2017-09-23T09:14:15.000Z</time>
      </trkpt>
      <trkpt lat="48.20292" lon="-3.74172">
        <ele>71.8</ele>
        <time>2017-09-23T09:14:16.000Z</time>
      </trkpt>
      <trkpt lat="48.20292" lon="-3.74172">
        <ele>71.6</ele>
        <time>2017-09-23T09:14:17.000Z</time>
      </trkpt>
      <trkpt lat="48.20292" lon="-3.74171">
        <ele>71.5</ele>
        <time>2017-09-23T09:14:18.000Z</time>
      </trkpt>
      <trkpt lat="48.20293" lon="-3.74171">
        <ele>71.3</ele>
        <time>2017-09-23T09:14:19.000Z</time>
      </trkpt>
      <trkpt lat="48.20293" lon="-3.7417">
        <ele>71.2</ele>
        <time>2017-09-23T09:14:20.000Z</time>
      </trkpt>
      <trkpt lat="48.20293" lon="-3.7417">
        <ele>71.1</ele>
        <time>2017-09-23T09:14:21.000Z</time>
      </trkpt>
      <trkpt lat="48.20294" lon="-3.7417">
        <ele>71</ele>
        <time>2017-09-23T09:14:22.000Z</time>
      </trkpt>
      <trkpt lat="48.20294" lon="-3.74169">
        <ele>70.9</ele>
        <time>2017-09-23T09:14:23.000Z</time>
      </trkpt>
      <trkpt lat="48.20294" lon="-3.74169">
        <ele>70.8</ele>
        <time>2017-09-23T09:14:24.000Z</time>
      </trkpt>
      <trkpt lat="48.20294" lon="-3.74169">
        <ele>70.7</ele>
        <time>2017-09-23T09:14:25.000Z</time>
      </trkpt>
      <trkpt lat="48.20295" lon="-3.74169">
        <ele>70.6</ele>
        <time>2017-09-23T09:14:26.000Z</time>
      </trkpt>
      <trkpt lat="48.20295" lon="-3.74169">
        <ele>70.5</ele>
        <time>2017-09-23T09:14:27.000Z</time>
      </trkpt>
      <trkpt lat="48.20295" lon="-3.74169">
        <ele>70.5</ele>
        <time>2017-09-23T09:14:28.000Z</time>
      </trkpt>
      <trkpt lat="48.20295" lon="-3.74169">
        <ele>70.4</ele>
        <time>2017-09-23T09:14:29.000Z</time>
      </trkpt>
      <trkpt lat="48.20296" lon="-3.74169">
        <ele>70.3</ele>
        <time>2017-09-23T09:14:30.000Z</time>
      </trkpt>
      <trkpt lat="48.20296" lon="-3.74169">
        <ele>70.3</ele>
        <time>2017-09-23T09:14:31.000Z</time>
      </trkpt>
      <trkpt lat="48.20296" lon="-3.74169">
        <ele>70.2</ele>
        <time>2017-09-23T09:14:32.000Z</time>
      </trkpt>
      <trkpt lat="48.20296" lon="-3.74169">
        <ele>70.2</ele>
        <time>2017-09-23T09:14:33.000Z</time>
      </trkpt>
      <trkpt lat="48.20297" lon="-3.74169">
        <ele>70.2</ele>
        <time>2017-09-23T09:14:34.000Z</time>
      </trkpt>
      <trkpt lat="48.20297" lon="-3.74169">
        <ele>70.2</ele>
        <time>2017-09-23T09:14:35.000Z</time>
      </trkpt>
      <trkpt lat="48.20297" lon="-3.74169">
        <ele>70.2</ele>
        <time>2017-09-23T09:14:36.000Z</time>
      </trkpt>
      <trkpt lat="48.20297" lon="-3.74169">
        <ele>70.2</ele>
        <time>2017-09-23T09:14:37.000Z</time>
      </trkpt>
      <trkpt lat="48.20297" lon="-3.74169">
        <ele>70.2</ele>
        <time>2017-09-23T09:14:38.000Z</time>
      </trkpt>
      <trkpt lat="48.20296" lon="-3.74169">
        <ele>70.2</ele>
        <time>2017-09-23T09:14:39.000Z</time>
      </trkpt>
      <trkpt lat="48.20296" lon="-3.74169">
        <ele>70.2</ele>
        <time>2017-09-23T09:14:40.000Z</time>
      </trkpt>
      <trkpt lat="48.20296" lon="-3.74169">
        <ele>70.3</ele>
        <time>2017-09-23T09:14:41.000Z</time>
      </trkpt>
      <trkpt lat="48.20296" lon="-3.7417">
        <ele>70.3</ele>
        <time>2017-09-23T09:14:42.000Z</time>
      </trkpt>
      <trkpt lat="48.20296" lon="-3.7417">
        <ele>70.3</ele>
        <time>2017-09-23T09:14:43.000Z</time>
      </trkpt>
      <trkpt lat="48.20297" lon="-3.7417">
        <ele>70.4</ele>
        <time>2017-09-23T09:14:44.000Z</time>
      </trkpt>
      <trkpt lat="48.20297" lon="-3.74171">
        <ele>70.4</ele>
        <time>2017-09-23T09:14:45.000Z</time>
      </trkpt>
      <trkpt lat="48.20297" lon="-3.74172">
        <ele>70.5</ele>
        <time>2017-09-23T09:14:46.000Z</time>
      </trkpt>
      <trkpt lat="48.20297" lon="-3.74173">
        <ele>70.7</ele>
        <time>2017-09-23T09:14:47.000Z</time>
      </trkpt>
      <trkpt lat="48.20297" lon="-3.74175">
        <ele>70.9</ele>
        <time>2017-09-23T09:14:48.000Z</time>
      </trkpt>
      <trkpt lat="48.20297" lon="-3.74176">
        <ele>71.1</ele>
        <time>2017-09-23T09:14:49.000Z</time>
      </trkpt>
      <trkpt lat="48.20297" lon="-3.74177">
        <ele>71.4</ele>
        <time>2017-09-23T09:14:50.000Z</time>
      </trkpt>
      <trkpt lat="48.20296" lon="-3.74178">
        <ele>71.5</ele>
        <time>2017-09-23T09:14:51.000Z</time>
      </trkpt>
      <trkpt lat="48.20296" lon="-3.74178">
        <ele>71.6</ele>
        <time>2017-09-23T09:14:52.000Z</time>
      </trkpt>
      <trkpt lat="48.20297" lon="-3.74179">
        <ele>71.6</ele>
        <time>2017-09-23T09:14:53.000Z</time>
      </trkpt>
      <trkpt lat="48.20297" lon="-3.7418">
        <ele>71.6</ele>
        <time>2017-09-23T09:14:54.000Z</time>
      </trkpt>
      <trkpt lat="48.20298" lon="-3.7418">
        <ele>71.6</ele>
        <time>2017-09-23T09:14:55.000Z</time>
      </trkpt>
      <trkpt lat="48.20298" lon="-3.74182">
        <ele>71.6</ele>
        <time>2017-09-23T09:14:56.000Z</time>
      </trkpt>
      <trkpt lat="48.20299" lon="-3.74183">
        <ele>71.6</ele>
        <time>2017-09-23T09:14:57.000Z</time>
      </trkpt>
      <trkpt lat="48.203" lon="-3.74184">
        <ele>71.6</ele>
        <time>2017-09-23T09:14:58.000Z</time>
      </trkpt>
      <trkpt lat="48.203" lon="-3.74185">
        <ele>71.7</ele>
        <time>2017-09-23T09:14:59.000Z</time>
      </trkpt>
      <trkpt lat="48.20301" lon="-3.74187">
        <ele>71.7</ele>
        <time>2017-09-23T09:15:00.000Z</time>
      </trkpt>
      <trkpt lat="48.20302" lon="-3.74188">
        <ele>71.8</ele>
        <time>2017-09-23T09:15:01.000Z</time>
      </trkpt>
      <trkpt lat="48.20302" lon="-3.7419">
        <ele>71.8</ele>
        <time>2017-09-23T09:15:02.000Z</time>
      </trkpt>
      <trkpt lat="48.20303" lon="-3.74191">
        <ele>71.9</ele>
        <time>2017-09-23T09:15:03.000Z</time>
      </trkpt>
      <trkpt lat="48.20304" lon="-3.74192">
        <ele>71.9</ele>
        <time>2017-09-23T09:15:04.000Z</time>
      </trkpt>
      <trkpt lat="48.20304" lon="-3.74194">
        <ele>71.9</ele>
        <time>2017-09-23T09:15:05.000Z</time>
      </trkpt>
      <trkpt lat="48.20305" lon="-3.74195">
        <ele>71.9</ele>
        <time>2017-09-23T09:15:06.000Z</time>
      </trkpt>
      <trkpt lat="48.20306" lon="-3.74196">
        <ele>71.9</ele>
        <time>2017-09-23T09:15:07.000Z</time>
      </trkpt>
      <trkpt lat="48.20306" lon="-3.74197">
        <ele>71.9</ele>
        <time>2017-09-23T09:15:08.000Z</time>
      </trkpt>
      <trkpt lat="48.20307" lon="-3.74198">
        <ele>71.9</ele>
        <time>2017-09-23T09:15:09.000Z</time>
      </trkpt>
      <trkpt lat="48.20308" lon="-3.74199">
        <ele>71.8</ele>
        <time>2017-09-23T09:15:10.000Z</time>
      </trkpt>
      <trkpt lat="48.20309" lon="-3.742">
        <ele>71.7</ele>
        <time>2017-09-23T09:15:11.000Z</time>
      </trkpt>
      <trkpt lat="48.20309" lon="-3.74201">
        <ele>71.7</ele>
        <time>2017-09-23T09:15:12.000Z</time>
      </trkpt>
      <trkpt lat="48.2031" lon="-3.74202">
        <ele>71.6</ele>
        <time>2017-09-23T09:15:13.000Z</time>
      </trkpt>
      <trkpt lat="48.20311" lon="-3.74203">
        <ele>71.5</ele>
        <time>2017-09-23T09:15:14.000Z</time>
      </trkpt>
      <trkpt lat="48.20312" lon="-3.74204">
        <ele>71.3</ele>
        <time>2017-09-23T09:15:15.000Z</time>
      </trkpt>
      <trkpt lat="48.20313" lon="-3.74204">
        <ele>71.1</ele>
        <time>2017-09-23T09:15:16.000Z</time>
      </trkpt>
      <trkpt lat="48.20314" lon="-3.74205">
        <ele>71</ele>
        <time>2017-09-23T09:15:17.000Z</time>
      </trkpt>
      <trkpt lat="48.20315" lon="-3.74206">
        <ele>70.8</ele>
        <time>2017-09-23T09:15:18.000Z</time>
      </trkpt>
      <trkpt lat="48.20316" lon="-3.74206">
        <ele>70.6</ele>
        <time>2017-09-23T09:15:19.000Z</time>
      </trkpt>
      <trkpt lat="48.20317" lon="-3.74207">
        <ele>70.5</ele>
        <time>2017-09-23T09:15:20.000Z</time>
      </trkpt>
      <trkpt lat="48.20318" lon="-3.74207">
        <ele>70.3</ele>
        <time>2017-09-23T09:15:21.000Z</time>
      </trkpt>
      <trkpt lat="48.20319" lon="-3.74208">
        <ele>70.2</ele>
        <time>2017-09-23T09:15:22.000Z</time>
      </trkpt>
      <trkpt lat="48.2032" lon="-3.74208">
        <ele>70.1</ele>
        <time>2017-09-23T09:15:23.000Z</time>
      </trkpt>
      <trkpt lat="48.2032" lon="-3.74209">
        <ele>70</ele>
        <time>2017-09-23T09:15:24.000Z</time>
      </trkpt>
      <trkpt lat="48.2032" lon="-3.74209">
        <ele>69.9</ele>
        <time>2017-09-23T09:15:25.000Z</time>
      </trkpt>
      <trkpt lat="48.20321" lon="-3.74209">
        <ele>69.9</ele>
        <time>2017-09-23T09:15:26.000Z</time>
      </trkpt>
      <trkpt lat="48.20321" lon="-3.7421">
        <ele>69.9</ele>
        <time>2017-09-23T09:15:27.000Z</time>
      </trkpt>
      <trkpt lat="48.20321" lon="-3.7421">
        <ele>69.9</ele>
        <time>2017-09-23T09:15:28.000Z</time>
      </trkpt>
      <trkpt lat="48.20322" lon="-3.7421">
        <ele>69.8</ele>
        <time>2017-09-23T09:15:29.000Z</time>
      </trkpt>
      <trkpt lat="48.20322" lon="-3.7421">
        <ele>69.7</ele>
        <time>2017-09-23T09:15:30.000Z</time>
      </trkpt>
      <trkpt lat="48.20322" lon="-3.74211">
        <ele>69.7</ele>
        <time>2017-09-23T09:15:31.000Z</time>
      </trkpt>
      <trkpt lat="48.20322" lon="-3.74211">
        <ele>69.7</ele>
        <time>2017-09-23T09:15:32.000Z</time>
      </trkpt>
      <trkpt lat="48.20323" lon="-3.74211">
        <ele>69.6</ele>
        <time>2017-09-23T09:15:33.000Z</time>
      </trkpt>
      <trkpt lat="48.20323" lon="-3.74211">
        <ele>69.5</ele>
        <time>2017-09-23T09:15:34.000Z</time>
      </trkpt>
      <trkpt lat="48.20324" lon="-3.74212">
        <ele>69.4</ele>
        <time>2017-09-23T09:15:35.000Z</time>
      </trkpt>
      <trkpt lat="48.20325" lon="-3.74213">
        <ele>69.2</ele>
        <time>2017-09-23T09:15:36.000Z</time>
      </trkpt>
      <trkpt lat="48.20326" lon="-3.74213">
        <ele>69</ele>
        <time>2017-09-23T09:15:37.000Z</time>
      </trkpt>
      <trkpt lat="48.20328" lon="-3.74214">
        <ele>68.7</ele>
        <time>2017-09-23T09:15:38.000Z</time>
      </trkpt>
      <trkpt lat="48.20329" lon="-3.74215">
        <ele>68.5</ele>
        <time>2017-09-23T09:15:39.000Z</time>
      </trkpt>
      <trkpt lat="48.2033" lon="-3.74216">
        <ele>68.3</ele>
        <time>2017-09-23T09:15:40.000Z</time>
      </trkpt>
      <trkpt lat="48.20332" lon="-3.74216">
        <ele>68</ele>
        <time>2017-09-23T09:15:41.000Z</time>
      </trkpt>
      <trkpt lat="48.20333" lon="-3.74217">
        <ele>67.8</ele>
        <time>2017-09-23T09:15:42.000Z</time>
      </trkpt>
      <trkpt lat="48.20334" lon="-3.74217">
        <ele>67.6</ele>
        <time>2017-09-23T09:15:43.000Z</time>
      </trkpt>
      <trkpt lat="48.20335" lon="-3.74218">
        <ele>67.5</ele>
        <time>2017-09-23T09:15:44.000Z</time>
      </trkpt>
      <trkpt lat="48.20336" lon="-3.74218">
        <ele>67.4</ele>
        <time>2017-09-23T09:15:45.000Z</time>
      </trkpt>
      <trkpt lat="48.20337" lon="-3.74219">
        <ele>67.3</ele>
        <time>2017-09-23T09:15:46.000Z</time>
      </trkpt>
      <trkpt lat="48.20338" lon="-3.74219">
        <ele>67.2</ele>
        <time>2017-09-23T09:15:47.000Z</time>
      </trkpt>
      <trkpt lat="48.20339" lon="-3.7422">
        <ele>67.1</ele>
        <time>2017-09-23T09:15:48.000Z</time>
      </trkpt>
      <trkpt lat="48.2034" lon="-3.7422">
        <ele>67</ele>
        <time>2017-09-23T09:15:49.000Z</time>
      </trkpt>
      <trkpt lat="48.20341" lon="-3.74221">
        <ele>66.9</ele>
        <time>2017-09-23T09:15:50.000Z</time>
      </trkpt>
      <trkpt lat="48.20341" lon="-3.74221">
        <ele>66.9</ele>
        <time>2017-09-23T09:15:51.000Z</time>
      </trkpt>
      <trkpt lat="48.20343" lon="-3.74222">
        <ele>66.7</ele>
        <time>2017-09-23T09:15:52.000Z</time>
      </trkpt>
      <trkpt lat="48.20345" lon="-3.74223">
        <ele>66.6</ele>
        <time>2017-09-23T09:15:53.000Z</time>
      </trkpt>
      <trkpt lat="48.20346" lon="-3.74224">
        <ele>66.4</ele>
        <time>2017-09-23T09:15:54.000Z</time>
      </trkpt>
      <trkpt lat="48.20347" lon="-3.74225">
        <ele>66.3</ele>
        <time>2017-09-23T09:15:55.000Z</time>
      </trkpt>
      <trkpt lat="48.20349" lon="-3.74226">
        <ele>66.3</ele>
        <time>2017-09-23T09:15:56.000Z</time>
      </trkpt>
      <trkpt lat="48.2035" lon="-3.74227">
        <ele>66.2</ele>
        <time>2017-09-23T09:15:57.000Z</time>
      </trkpt>
      <trkpt lat="48.20351" lon="-3.74229">
        <ele>66.1</ele>
        <time>2017-09-23T09:15:58.000Z</time>
      </trkpt>
      <trkpt lat="48.20352" lon="-3.7423">
        <ele>66</ele>
        <time>2017-09-23T09:15:59.000Z</time>
      </trkpt>
      <trkpt lat="48.20353" lon="-3.74231">
        <ele>66</ele>
        <time>2017-09-23T09:16:00.000Z</time>
      </trkpt>
      <trkpt lat="48.20354" lon="-3.74232">
        <ele>65.9</ele>
        <time>2017-09-23T09:16:01.000Z</time>
      </trkpt>
      <trkpt lat="48.20356" lon="-3.74234">
        <ele>65.8</ele>
        <time>2017-09-23T09:16:02.000Z</time>
      </trkpt>
      <trkpt lat="48.20357" lon="-3.74235">
        <ele>65.8</ele>
        <time>2017-09-23T09:16:03.000Z</time>
      </trkpt>
      <trkpt lat="48.20358" lon="-3.74237">
        <ele>65.7</ele>
        <time>2017-09-23T09:16:04.000Z</time>
      </trkpt>
      <trkpt lat="48.20359" lon="-3.74238">
        <ele>65.7</ele>
        <time>2017-09-23T09:16:05.000Z</time>
      </trkpt>
      <trkpt lat="48.2036" lon="-3.74239">
        <ele>65.6</ele>
        <time>2017-09-23T09:16:06.000Z</time>
      </trkpt>
      <trkpt lat="48.2036" lon="-3.74241">
        <ele>65.6</ele>
        <time>2017-09-23T09:16:07.000Z</time>
      </trkpt>
      <trkpt lat="48.20361" lon="-3.74242">
        <ele>65.5</ele>
        <time>2017-09-23T09:16:08.000Z</time>
      </trkpt>
      <trkpt lat="48.20362" lon="-3.74243">
        <ele>65.5</ele>
        <time>2017-09-23T09:16:09.000Z</time>
      </trkpt>
      <trkpt lat="48.20363" lon="-3.74244">
        <ele>65.4</ele>
        <time>2017-09-23T09:16:10.000Z</time>
      </trkpt>
      <trkpt lat="48.20364" lon="-3.74245">
        <ele>65.4</ele>
        <time>2017-09-23T09:16:11.000Z</time>
      </trkpt>
      <trkpt lat="48.20365" lon="-3.74246">
        <ele>65.3</ele>
        <time>2017-09-23T09:16:12.000Z</time>
      </trkpt>
      <trkpt lat="48.20366" lon="-3.74247">
        <ele>65.2</ele>
        <time>2017-09-23T09:16:13.000Z</time>
      </trkpt>
      <trkpt lat="48.20366" lon="-3.74248">
        <ele>65.1</ele>
        <time>2017-09-23T09:16:14.000Z</time>
      </trkpt>
      <trkpt lat="48.20367" lon="-3.74249">
        <ele>65</ele>
        <time>2017-09-23T09:16:15.000Z</time>
      </trkpt>
      <trkpt lat="48.20368" lon="-3.7425">
        <ele>64.9</ele>
        <time>2017-09-23T09:16:16.000Z</time>
      </trkpt>
      <trkpt lat="48.20369" lon="-3.7425">
        <ele>64.8</ele>
        <time>2017-09-23T09:16:17.000Z</time>
      </trkpt>
      <trkpt lat="48.20369" lon="-3.74251">
        <ele>64.8</ele>
        <time>2017-09-23T09:16:18.000Z</time>
      </trkpt>
      <trkpt lat="48.2037" lon="-3.74251">
        <ele>64.7</ele>
        <time>2017-09-23T09:16:19.000Z</time>
      </trkpt>
      <trkpt lat="48.20371" lon="-3.74252">
        <ele>64.6</ele>
        <time>2017-09-23T09:16:20.000Z</time>
      </trkpt>
      <trkpt lat="48.20372" lon="-3.74253">
        <ele>64.5</ele>
        <time>2017-09-23T09:16:21.000Z</time>
      </trkpt>
      <trkpt lat="48.20372" lon="-3.74253">
        <ele>64.5</ele>
        <time>2017-09-23T09:16:22.000Z</time>
      </trkpt>
      <trkpt lat="48.20373" lon="-3.74254">
        <ele>64.4</ele>
        <time>2017-09-23T09:16:23.000Z</time>
      </trkpt>
      <trkpt lat="48.20374" lon="-3.74255">
        <ele>64.4</ele>
        <time>2017-09-23T09:16:24.000Z</time>
      </trkpt>
      <trkpt lat="48.20375" lon="-3.74256">
        <ele>64.3</ele>
        <time>2017-09-23T09:16:25.000Z</time>
      </trkpt>
      <trkpt lat="48.20376" lon="-3.74257">
        <ele>64.3</ele>
        <time>2017-09-23T09:16:26.000Z</time>
      </trkpt>
      <trkpt lat="48.20376" lon="-3.74259">
        <ele>64.3</ele>
        <time>2017-09-23T09:16:27.000Z</time>
      </trkpt>
      <trkpt lat="48.20377" lon="-3.74259">
        <ele>64.2</ele>
        <time>2017-09-23T09:16:28.000Z</time>
      </trkpt>
      <trkpt lat="48.20377" lon="-3.7426">
        <ele>64.2</ele>
        <time>2017-09-23T09:16:29.000Z</time>
      </trkpt>
      <trkpt lat="48.20377" lon="-3.7426">
        <ele>64.2</ele>
        <time>2017-09-23T09:16:30.000Z</time>
      </trkpt>
      <trkpt lat="48.20377" lon="-3.7426">
        <ele>64.2</ele>
        <time>2017-09-23T09:16:31.000Z</time>
      </trkpt>
      <trkpt lat="48.20378" lon="-3.7426">
        <ele>64.2</ele>
        <time>2017-09-23T09:16:32.000Z</time>
      </trkpt>
      <trkpt lat="48.20378" lon="-3.74261">
        <ele>64.1</ele>
        <time>2017-09-23T09:16:33.000Z</time>
      </trkpt>
      <trkpt lat="48.20379" lon="-3.74262">
        <ele>64.1</ele>
        <time>2017-09-23T09:16:34.000Z</time>
      </trkpt>
      <trkpt lat="48.2038" lon="-3.74262">
        <ele>64</ele>
        <time>2017-09-23T09:16:35.000Z</time>
      </trkpt>
      <trkpt lat="48.2038" lon="-3.74263">
        <ele>64</ele>
        <time>2017-09-23T09:16:36.000Z</time>
      </trkpt>
      <trkpt lat="48.20381" lon="-3.74264">
        <ele>63.9</ele>
        <time>2017-09-23T09:16:37.000Z</time>
      </trkpt>
      <trkpt lat="48.20382" lon="-3.74265">
        <ele>63.8</ele>
        <time>2017-09-23T09:16:38.000Z</time>
      </trkpt>
      <trkpt lat="48.20383" lon="-3.74266">
        <ele>63.6</ele>
        <time>2017-09-23T09:16:39.000Z</time>
      </trkpt>
      <trkpt lat="48.20384" lon="-3.74267">
        <ele>63.5</ele>
        <time>2017-09-23T09:16:40.000Z</time>
      </trkpt>
      <trkpt lat="48.20385" lon="-3.74267">
        <ele>63.3</ele>
        <time>2017-09-23T09:16:41.000Z</time>
      </trkpt>
      <trkpt lat="48.20386" lon="-3.74268">
        <ele>63.2</ele>
        <time>2017-09-23T09:16:42.000Z</time>
      </trkpt>
      <trkpt lat="48.20388" lon="-3.74268">
        <ele>63</ele>
        <time>2017-09-23T09:16:43.000Z</time>
      </trkpt>
      <trkpt lat="48.20389" lon="-3.74269">
        <ele>62.8</ele>
        <time>2017-09-23T09:16:44.000Z</time>
      </trkpt>
      <trkpt lat="48.2039" lon="-3.74269">
        <ele>62.6</ele>
        <time>2017-09-23T09:16:45.000Z</time>
      </trkpt>
      <trkpt lat="48.20391" lon="-3.74269">
        <ele>62.3</ele>
        <time>2017-09-23T09:16:46.000Z</time>
      </trkpt>
      <trkpt lat="48.20392" lon="-3.7427">
        <ele>62.1</ele>
        <time>2017-09-23T09:16:47.000Z</time>
      </trkpt>
      <trkpt lat="48.20393" lon="-3.7427">
        <ele>61.9</ele>
        <time>2017-09-23T09:16:48.000Z</time>
      </trkpt>
      <trkpt lat="48.20394" lon="-3.7427">
        <ele>61.6</ele>
        <time>2017-09-23T09:16:49.000Z</time>
      </trkpt>
      <trkpt lat="48.20395" lon="-3.7427">
        <ele>61.4</ele>
        <time>2017-09-23T09:16:50.000Z</time>
      </trkpt>
      <trkpt lat="48.20396" lon="-3.7427">
        <ele>61.2</ele>
        <time>2017-09-23T09:16:51.000Z</time>
      </trkpt>
      <trkpt lat="48.20397" lon="-3.7427">
        <ele>61</ele>
        <time>2017-09-23T09:16:52.000Z</time>
      </trkpt>
      <trkpt lat="48.20398" lon="-3.7427">
        <ele>60.8</ele>
        <time>2017-09-23T09:16:53.000Z</time>
      </trkpt>
      <trkpt lat="48.20399" lon="-3.7427">
        <ele>60.6</ele>
        <time>2017-09-23T09:16:54.000Z</time>
      </trkpt>
      <trkpt lat="48.204" lon="-3.7427">
        <ele>60.4</ele>
        <time>2017-09-23T09:16:55.000Z</time>
      </trkpt>
      <trkpt lat="48.20401" lon="-3.74271">
        <ele>60.2</ele>
        <time>2017-09-23T09:16:56.000Z</time>
      </trkpt>
      <trkpt lat="48.20402" lon="-3.74271">
        <ele>60</ele>
        <time>2017-09-23T09:16:57.000Z</time>
      </trkpt>
      <trkpt lat="48.20403" lon="-3.74272">
        <ele>59.8</ele>
        <time>2017-09-23T09:16:58.000Z</time>
      </trkpt>
      <trkpt lat="48.20404" lon="-3.74272">
        <ele>59.7</ele>
        <time>2017-09-23T09:16:59.000Z</time>
      </trkpt>
      <trkpt lat="48.20405" lon="-3.74272">
        <ele>59.5</ele>
        <time>2017-09-23T09:17:00.000Z</time>
      </trkpt>
      <trkpt lat="48.20406" lon="-3.74273">
        <ele>59.3</ele>
        <time>2017-09-23T09:17:01.000Z</time>
      </trkpt>
      <trkpt lat="48.20407" lon="-3.74273">
        <ele>59.2</ele>
        <time>2017-09-23T09:17:02.000Z</time>
      </trkpt>
      <trkpt lat="48.20408" lon="-3.74274">
        <ele>59</ele>
        <time>2017-09-23T09:17:03.000Z</time>
      </trkpt>
      <trkpt lat="48.20409" lon="-3.74275">
        <ele>58.8</ele>
        <time>2017-09-23T09:17:04.000Z</time>
      </trkpt>
      <trkpt lat="48.2041" lon="-3.74275">
        <ele>58.6</ele>
        <time>2017-09-23T09:17:05.000Z</time>
      </trkpt>
      <trkpt lat="48.20412" lon="-3.74276">
        <ele>58.3</ele>
        <time>2017-09-23T09:17:06.000Z</time>
      </trkpt>
      <trkpt lat="48.20413" lon="-3.74276">
        <ele>58.1</ele>
        <time>2017-09-23T09:17:07.000Z</time>
      </trkpt>
      <trkpt lat="48.20414" lon="-3.74277">
        <ele>57.8</ele>
        <time>2017-09-23T09:17:08.000Z</time>
      </trkpt>
      <trkpt lat="48.20416" lon="-3.74278">
        <ele>57.6</ele>
        <time>2017-09-23T09:17:09.000Z</time>
      </trkpt>
      <trkpt lat="48.20417" lon="-3.74278">
        <ele>57.4</ele>
        <time>2017-09-23T09:17:10.000Z</time>
      </trkpt>
      <trkpt lat="48.20418" lon="-3.74279">
        <ele>57.3</ele>
        <time>2017-09-23T09:17:11.000Z</time>
      </trkpt>
      <trkpt lat="48.20419" lon="-3.7428">
        <ele>57.3</ele>
        <time>2017-09-23T09:17:12.000Z</time>
      </trkpt>
      <trkpt lat="48.20421" lon="-3.7428">
        <ele>57.3</ele>
        <time>2017-09-23T09:17:13.000Z</time>
      </trkpt>
      <trkpt lat="48.20422" lon="-3.74281">
        <ele>57.3</ele>
        <time>2017-09-23T09:17:14.000Z</time>
      </trkpt>
      <trkpt lat="48.20423" lon="-3.74282">
        <ele>57.2</ele>
        <time>2017-09-23T09:17:15.000Z</time>
      </trkpt>
      <trkpt lat="48.20424" lon="-3.74283">
        <ele>57.2</ele>
        <time>2017-09-23T09:17:16.000Z</time>
      </trkpt>
      <trkpt lat="48.20425" lon="-3.74284">
        <ele>57.2</ele>
        <time>2017-09-23T09:17:17.000Z</time>
      </trkpt>
      <trkpt lat="48.20426" lon="-3.74284">
        <ele>57.2</ele>
        <time>2017-09-23T09:17:18.000Z</time>
      </trkpt>
      <trkpt lat="48.20427" lon="-3.74285">
        <ele>57.2</ele>
        <time>2017-09-23T09:17:19.000Z</time>
      </trkpt>
      <trkpt lat="48.20428" lon="-3.74286">
        <ele>57.2</ele>
        <time>2017-09-23T09:17:20.000Z</time>
      </trkpt>
      <trkpt lat="48.20429" lon="-3.74287">
        <ele>57.2</ele>
        <time>2017-09-23T09:17:21.000Z</time>
      </trkpt>
      <trkpt lat="48.2043" lon="-3.74288">
        <ele>57.2</ele>
        <time>2017-09-23T09:17:22.000Z</time>
      </trkpt>
      <trkpt lat="48.20431" lon="-3.74289">
        <ele>57.2</ele>
        <time>2017-09-23T09:17:23.000Z</time>
      </trkpt>
      <trkpt lat="48.20432" lon="-3.7429">
        <ele>57.2</ele>
        <time>2017-09-23T09:17:24.000Z</time>
      </trkpt>
      <trkpt lat="48.20433" lon="-3.74291">
        <ele>57.2</ele>
        <time>2017-09-23T09:17:25.000Z</time>
      </trkpt>
      <trkpt lat="48.20433" lon="-3.74291">
        <ele>57.2</ele>
        <time>2017-09-23T09:17:26.000Z</time>
      </trkpt>
      <trkpt lat="48.20434" lon="-3.74292">
        <ele>57.2</ele>
        <time>2017-09-23T09:17:27.000Z</time>
      </trkpt>
      <trkpt lat="48.20435" lon="-3.74293">
        <ele>57.1</ele>
        <time>2017-09-23T09:17:28.000Z</time>
      </trkpt>
      <trkpt lat="48.20436" lon="-3.74294">
        <ele>57.1</ele>
        <time>2017-09-23T09:17:29.000Z</time>
      </trkpt>
      <trkpt lat="48.20437" lon="-3.74294">
        <ele>57.1</ele>
        <time>2017-09-23T09:17:30.000Z</time>
      </trkpt>
      <trkpt lat="48.20438" lon="-3.74295">
        <ele>57</ele>
        <time>2017-09-23T09:17:31.000Z</time>
      </trkpt>
      <trkpt lat="48.20439" lon="-3.74296">
        <ele>57</ele>
        <time>2017-09-23T09:17:32.000Z</time>
      </trkpt>
      <trkpt lat="48.2044" lon="-3.74296">
        <ele>57</ele>
        <time>2017-09-23T09:17:33.000Z</time>
      </trkpt>
      <trkpt lat="48.20441" lon="-3.74297">
        <ele>56.9</ele>
        <time>2017-09-23T09:17:34.000Z</time>
      </trkpt>
      <trkpt lat="48.20442" lon="-3.74297">
        <ele>56.8</ele>
        <time>2017-09-23T09:17:35.000Z</time>
      </trkpt>
      <trkpt lat="48.20443" lon="-3.74298">
        <ele>56.8</ele>
        <time>2017-09-23T09:17:36.000Z</time>
      </trkpt>
      <trkpt lat="48.20444" lon="-3.74298">
        <ele>56.7</ele>
        <time>2017-09-23T09:17:37.000Z</time>
      </trkpt>
      <trkpt lat="48.20445" lon="-3.74298">
        <ele>56.6</ele>
        <time>2017-09-23T09:17:38.000Z</time>
      </trkpt>
      <trkpt lat="48.20446" lon="-3.74299">
        <ele>56.6</ele>
        <time>2017-09-23T09:17:39.000Z</time>
      </trkpt>
      <trkpt lat="48.20448" lon="-3.74299">
        <ele>56.5</ele>
        <time>2017-09-23T09:17:40.000Z</time>
      </trkpt>
      <trkpt lat="48.20449" lon="-3.74299">
        <ele>56.4</ele>
        <time>2017-09-23T09:17:41.000Z</time>
      </trkpt>
      <trkpt lat="48.2045" lon="-3.743">
        <ele>56.3</ele>
        <time>2017-09-23T09:17:42.000Z</time>
      </trkpt>
      <trkpt lat="48.20451" lon="-3.743">
        <ele>56.2</ele>
        <time>2017-09-23T09:17:43.000Z</time>
      </trkpt>
      <trkpt lat="48.20452" lon="-3.743">
        <ele>56.1</ele>
        <time>2017-09-23T09:17:44.000Z</time>
      </trkpt>
      <trkpt lat="48.20454" lon="-3.743">
        <ele>56</ele>
        <time>2017-09-23T09:17:45.000Z</time>
      </trkpt>
      <trkpt lat="48.20455" lon="-3.74301">
        <ele>55.9</ele>
        <time>2017-09-23T09:17:46.000Z</time>
      </trkpt>
      <trkpt lat="48.20456" lon="-3.74301">
        <ele>55.8</ele>
        <time>2017-09-23T09:17:47.000Z</time>
      </trkpt>
      <trkpt lat="48.20457" lon="-3.74301">
        <ele>55.8</ele>
        <time>2017-09-23T09:17:48.000Z</time>
      </trkpt>
      <trkpt lat="48.20458" lon="-3.74302">
        <ele>55.7</ele>
        <time>2017-09-23T09:17:49.000Z</time>
      </trkpt>
      <trkpt lat="48.2046" lon="-3.74302">
        <ele>55.6</ele>
        <time>2017-09-23T09:17:50.000Z</time>
      </trkpt>
      <trkpt lat="48.20461" lon="-3.74302">
        <ele>55.5</ele>
        <time>2017-09-23T09:17:51.000Z</time>
      </trkpt>
      <trkpt lat="48.20462" lon="-3.74303">
        <ele>55.4</ele>
        <time>2017-09-23T09:17:52.000Z</time>
      </trkpt>
      <trkpt lat="48.20463" lon="-3.74303">
        <ele>55.3</ele>
        <time>2017-09-23T09:17:53.000Z</time>
      </trkpt>
      <trkpt lat="48.20464" lon="-3.74304">
        <ele>55.2</ele>
        <time>2017-09-23T09:17:54.000Z</time>
      </trkpt>
      <trkpt lat="48.20465" lon="-3.74305">
        <ele>55.2</ele>
        <time>2017-09-23T09:17:55.000Z</time>
      </trkpt>
      <trkpt lat="48.20466" lon="-3.74305">
        <ele>55.1</ele>
        <time>2017-09-23T09:17:56.000Z</time>
      </trkpt>
      <trkpt lat="48.20467" lon="-3.74306">
        <ele>55</ele>
        <time>2017-09-23T09:17:57.000Z</time>
      </trkpt>
      <trkpt lat="48.20468" lon="-3.74307">
        <ele>54.9</ele>
        <time>2017-09-23T09:17:58.000Z</time>
      </trkpt>
      <trkpt lat="48.2047" lon="-3.74307">
        <ele>54.9</ele>
        <time>2017-09-23T09:17:59.000Z</time>
      </trkpt>
      <trkpt lat="48.20471" lon="-3.74308">
        <ele>54.8</ele>
        <time>2017-09-23T09:18:00.000Z</time>
      </trkpt>
      <trkpt lat="48.20472" lon="-3.74309">
        <ele>54.7</ele>
        <time>2017-09-23T09:18:01.000Z</time>
      </trkpt>
      <trkpt lat="48.20473" lon="-3.7431">
        <ele>54.7</ele>
        <time>2017-09-23T09:18:02.000Z</time>
      </trkpt>
      <trkpt lat="48.20473" lon="-3.74311">
        <ele>54.6</ele>
        <time>2017-09-23T09:18:03.000Z</time>
      </trkpt>
      <trkpt lat="48.20474" lon="-3.74312">
        <ele>54.5</ele>
        <time>2017-09-23T09:18:04.000Z</time>
      </trkpt>
      <trkpt lat="48.20475" lon="-3.74313">
        <ele>54.4</ele>
        <time>2017-09-23T09:18:05.000Z</time>
      </trkpt>
      <trkpt lat="48.20476" lon="-3.74314">
        <ele>54.4</ele>
        <time>2017-09-23T09:18:06.000Z</time>
      </trkpt>
      <trkpt lat="48.20477" lon="-3.74315">
        <ele>54.3</ele>
        <time>2017-09-23T09:18:07.000Z</time>
      </trkpt>
      <trkpt lat="48.20478" lon="-3.74316">
        <ele>54.2</ele>
        <time>2017-09-23T09:18:08.000Z</time>
      </trkpt>
      <trkpt lat="48.20479" lon="-3.74317">
        <ele>54.1</ele>
        <time>2017-09-23T09:18:09.000Z</time>
      </trkpt>
      <trkpt lat="48.2048" lon="-3.74318">
        <ele>54.1</ele>
        <time>2017-09-23T09:18:10.000Z</time>
      </trkpt>
      <trkpt lat="48.20481" lon="-3.74319">
        <ele>54</ele>
        <time>2017-09-23T09:18:11.000Z</time>
      </trkpt>
      <trkpt lat="48.20482" lon="-3.7432">
        <ele>53.9</ele>
        <time>2017-09-23T09:18:12.000Z</time>
      </trkpt>
      <trkpt lat="48.20483" lon="-3.74321">
        <ele>53.8</ele>
        <time>2017-09-23T09:18:13.000Z</time>
      </trkpt>
      <trkpt lat="48.20484" lon="-3.74322">
        <ele>53.7</ele>
        <time>2017-09-23T09:18:14.000Z</time>
      </trkpt>
      <trkpt lat="48.20485" lon="-3.74323">
        <ele>53.6</ele>
        <time>2017-09-23T09:18:15.000Z</time>
      </trkpt>
      <trkpt lat="48.20486" lon="-3.74324">
        <ele>53.6</ele>
        <time>2017-09-23T09:18:16.000Z</time>
      </trkpt>
      <trkpt lat="48.20487" lon="-3.74325">
        <ele>53.4</ele>
        <time>2017-09-23T09:18:17.000Z</time>
      </trkpt>
      <trkpt lat="48.20488" lon="-3.74327">
        <ele>53.3</ele>
        <time>2017-09-23T09:18:18.000Z</time>
      </trkpt>
      <trkpt lat="48.20489" lon="-3.74328">
        <ele>53.2</ele>
        <time>2017-09-23T09:18:19.000Z</time>
      </trkpt>
      <trkpt lat="48.2049" lon="-3.74329">
        <ele>53.1</ele>
        <time>2017-09-23T09:18:20.000Z</time>
      </trkpt>
      <trkpt lat="48.20491" lon="-3.7433">
        <ele>53</ele>
        <time>2017-09-23T09:18:21.000Z</time>
      </trkpt>
      <trkpt lat="48.20492" lon="-3.74331">
        <ele>52.9</ele>
        <time>2017-09-23T09:18:22.000Z</time>
      </trkpt>
      <trkpt lat="48.20493" lon="-3.74332">
        <ele>52.8</ele>
        <time>2017-09-23T09:18:23.000Z</time>
      </trkpt>
      <trkpt lat="48.20494" lon="-3.74333">
        <ele>52.7</ele>
        <time>2017-09-23T09:18:24.000Z</time>
      </trkpt>
      <trkpt lat="48.20495" lon="-3.74334">
        <ele>52.6</ele>
        <time>2017-09-23T09:18:25.000Z</time>
      </trkpt>
      <trkpt lat="48.20496" lon="-3.74335">
        <ele>52.5</ele>
        <time>2017-09-23T09:18:26.000Z</time>
      </trkpt>
      <trkpt lat="48.20497" lon="-3.74336">
        <ele>52.5</ele>
        <time>2017-09-23T09:18:27.000Z</time>
      </trkpt>
      <trkpt lat="48.20498" lon="-3.74337">
        <ele>52.4</ele>
        <time>2017-09-23T09:18:28.000Z</time>
      </trkpt>
      <trkpt lat="48.20499" lon="-3.74338">
        <ele>52.3</ele>
        <time>2017-09-23T09:18:29.000Z</time>
      </trkpt>
      <trkpt lat="48.205" lon="-3.74339">
        <ele>52.3</ele>
        <time>2017-09-23T09:18:30.000Z</time>
      </trkpt>
      <trkpt lat="48.20501" lon="-3.7434">
        <ele>52.4</ele>
        <time>2017-09-23T09:18:31.000Z</time>
      </trkpt>
      <trkpt lat="48.20502" lon="-3.74341">
        <ele>52.4</ele>
        <time>2017-09-23T09:18:32.000Z</time>
      </trkpt>
      <trkpt lat="48.20503" lon="-3.74341">
        <ele>52.5</ele>
        <time>2017-09-23T09:18:33.000Z</time>
      </trkpt>
      <trkpt lat="48.20504" lon="-3.74342">
        <ele>52.6</ele>
        <time>2017-09-23T09:18:34.000Z</time>
      </trkpt>
      <trkpt lat="48.20505" lon="-3.74343">
        <ele>52.6</ele>
        <time>2017-09-23T09:18:35.000Z</time>
      </trkpt>
      <trkpt lat="48.20506" lon="-3.74344">
        <ele>52.6</ele>
        <time>2017-09-23T09:18:36.000Z</time>
      </trkpt>
      <trkpt lat="48.20507" lon="-3.74345">
        <ele>52.7</ele>
        <time>2017-09-23T09:18:37.000Z</time>
      </trkpt>
      <trkpt lat="48.20508" lon="-3.74345">
        <ele>52.7</ele>
        <time>2017-09-23T09:18:38.000Z</time>
      </trkpt>
      <trkpt lat="48.20509" lon="-3.74346">
        <ele>52.8</ele>
        <time>2017-09-23T09:18:39.000Z</time>
      </trkpt>
      <trkpt lat="48.2051" lon="-3.74347">
        <ele>52.8</ele>
        <time>2017-09-23T09:18:40.000Z</time>
      </trkpt>
      <trkpt lat="48.20511" lon="-3.74347">
        <ele>52.8</ele>
        <time>2017-09-23T09:18:41.000Z</time>
      </trkpt>
      <trkpt lat="48.20512" lon="-3.74348">
        <ele>52.9</ele>
        <time>2017-09-23T09:18:42.000Z</time>
      </trkpt>
      <trkpt lat="48.20513" lon="-3.74349">
        <ele>52.9</ele>
        <time>2017-09-23T09:18:43.000Z</time>
      </trkpt>
      <trkpt lat="48.20514" lon="-3.7435">
        <ele>52.9</ele>
        <time>2017-09-23T09:18:44.000Z</time>
      </trkpt>
      <trkpt lat="48.20515" lon="-3.7435">
        <ele>53</ele>
        <time>2017-09-23T09:18:45.000Z</time>
      </trkpt>
      <trkpt lat="48.20516" lon="-3.74351">
        <ele>53</ele>
        <time>2017-09-23T09:18:46.000Z</time>
      </trkpt>
      <trkpt lat="48.20517" lon="-3.74352">
        <ele>53.1</ele>
        <time>2017-09-23T09:18:47.000Z</time>
      </trkpt>
      <trkpt lat="48.20518" lon="-3.74353">
        <ele>53.1</ele>
        <time>2017-09-23T09:18:48.000Z</time>
      </trkpt>
      <trkpt lat="48.20519" lon="-3.74354">
        <ele>53.1</ele>
        <time>2017-09-23T09:18:49.000Z</time>
      </trkpt>
      <trkpt lat="48.2052" lon="-3.74355">
        <ele>53.2</ele>
        <time>2017-09-23T09:18:50.000Z</time>
      </trkpt>
      <trkpt lat="48.20522" lon="-3.74356">
        <ele>53.2</ele>
        <time>2017-09-23T09:18:51.000Z</time>
      </trkpt>
      <trkpt lat="48.20523" lon="-3.74357">
        <ele>53.2</ele>
        <time>2017-09-23T09:18:52.000Z</time>
      </trkpt>
      <trkpt lat="48.20524" lon="-3.74359">
        <ele>53.3</ele>
        <time>2017-09-23T09:18:53.000Z</time>
      </trkpt>
      <trkpt lat="48.20525" lon="-3.7436">
        <ele>53.3</ele>
        <time>2017-09-23T09:18:54.000Z</time>
      </trkpt>
      <trkpt lat="48.20526" lon="-3.74361">
        <ele>53.4</ele>
        <time>2017-09-23T09:18:55.000Z</time>
      </trkpt>
      <trkpt lat="48.20527" lon="-3.74363">
        <ele>53.4</ele>
        <time>2017-09-23T09:18:56.000Z</time>
      </trkpt>
      <trkpt lat="48.20528" lon="-3.74364">
        <ele>53.4</ele>
        <time>2017-09-23T09:18:57.000Z</time>
      </trkpt>
      <trkpt lat="48.20529" lon="-3.74366">
        <ele>53.5</ele>
        <time>2017-09-23T09:18:58.000Z</time>
      </trkpt>
      <trkpt lat="48.2053" lon="-3.74367">
        <ele>53.5</ele>
        <time>2017-09-23T09:18:59.000Z</time>
      </trkpt>
      <trkpt lat="48.20531" lon="-3.74368">
        <ele>53.5</ele>
        <time>2017-09-23T09:19:00.000Z</time>
      </trkpt>
      <trkpt lat="48.20532" lon="-3.7437">
        <ele>53.6</ele>
        <time>2017-09-23T09:19:01.000Z</time>
      </trkpt>
      <trkpt lat="48.20533" lon="-3.74371">
        <ele>53.6</ele>
        <time>2017-09-23T09:19:02.000Z</time>
      </trkpt>
      <trkpt lat="48.20534" lon="-3.74372">
        <ele>53.6</ele>
        <time>2017-09-23T09:19:03.000Z</time>
      </trkpt>
      <trkpt lat="48.20535" lon="-3.74374">
        <ele>53.6</ele>
        <time>2017-09-23T09:19:04.000Z</time>
      </trkpt>
      <trkpt lat="48.20536" lon="-3.74375">
        <ele>53.6</ele>
        <time>2017-09-23T09:19:05.000Z</time>
      </trkpt>
      <trkpt lat="48.20536" lon="-3.74376">
        <ele>53.7</ele>
        <time>2017-09-23T09:19:06.000Z</time>
      </trkpt>
      <trkpt lat="48.20537" lon="-3.74377">
        <ele>53.7</ele>
        <time>2017-09-23T09:19:07.000Z</time>
      </trkpt>
      <trkpt lat="48.20538" lon="-3.74378">
        <ele>53.7</ele>
        <time>2017-09-23T09:19:08.000Z</time>
      </trkpt>
      <trkpt lat="48.20539" lon="-3.74379">
        <ele>53.7</ele>
        <time>2017-09-23T09:19:09.000Z</time>
      </trkpt>
      <trkpt lat="48.2054" lon="-3.7438">
        <ele>53.7</ele>
        <time>2017-09-23T09:19:10.000Z</time>
      </trkpt>
      <trkpt lat="48.2054" lon="-3.74381">
        <ele>53.7</ele>
        <time>2017-09-23T09:19:11.000Z</time>
      </trkpt>
      <trkpt lat="48.20541" lon="-3.74381">
        <ele>53.7</ele>
        <time>2017-09-23T09:19:12.000Z</time>
      </trkpt>
      <trkpt lat="48.20542" lon="-3.74382">
        <ele>53.7</ele>
        <time>2017-09-23T09:19:13.000Z</time>
      </trkpt>
      <trkpt lat="48.20543" lon="-3.74383">
        <ele>53.7</ele>
        <time>2017-09-23T09:19:14.000Z</time>
      </trkpt>
      <trkpt lat="48.20544" lon="-3.74384">
        <ele>53.6</ele>
        <time>2017-09-23T09:19:15.000Z</time>
      </trkpt>
      <trkpt lat="48.20545" lon="-3.74385">
        <ele>53.6</ele>
        <time>2017-09-23T09:19:16.000Z</time>
      </trkpt>
      <trkpt lat="48.20546" lon="-3.74386">
        <ele>53.6</ele>
        <time>2017-09-23T09:19:17.000Z</time>
      </trkpt>
      <trkpt lat="48.20547" lon="-3.74387">
        <ele>53.6</ele>
        <time>2017-09-23T09:19:18.000Z</time>
      </trkpt>
      <trkpt lat="48.20548" lon="-3.74387">
        <ele>53.6</ele>
        <time>2017-09-23T09:19:19.000Z</time>
      </trkpt>
      <trkpt lat="48.20549" lon="-3.74388">
        <ele>53.6</ele>
        <time>2017-09-23T09:19:20.000Z</time>
      </trkpt>
      <trkpt lat="48.2055" lon="-3.74389">
        <ele>53.5</ele>
        <time>2017-09-23T09:19:21.000Z</time>
      </trkpt>
      <trkpt lat="48.20551" lon="-3.7439">
        <ele>53.5</ele>
        <time>2017-09-23T09:19:22.000Z</time>
      </trkpt>
      <trkpt lat="48.20552" lon="-3.74391">
        <ele>53.5</ele>
        <time>2017-09-23T09:19:23.000Z</time>
      </trkpt>
      <trkpt lat="48.20553" lon="-3.74392">
        <ele>53.5</ele>
        <time>2017-09-23T09:19:24.000Z</time>
      </trkpt>
      <trkpt lat="48.20554" lon="-3.74393">
        <ele>53.4</ele>
        <time>2017-09-23T09:19:25.000Z</time>
      </trkpt>
      <trkpt lat="48.20555" lon="-3.74395">
        <ele>53.4</ele>
        <time>2017-09-23T09:19:26.000Z</time>
      </trkpt>
      <trkpt lat="48.20557" lon="-3.74396">
        <ele>53.4</ele>
        <time>2017-09-23T09:19:27.000Z</time>
      </trkpt>
      <trkpt lat="48.20558" lon="-3.74397">
        <ele>53.3</ele>
        <time>2017-09-23T09:19:28.000Z</time>
      </trkpt>
      <trkpt lat="48.20559" lon="-3.74398">
        <ele>53.3</ele>
        <time>2017-09-23T09:19:29.000Z</time>
      </trkpt>
      <trkpt lat="48.2056" lon="-3.74399">
        <ele>53.3</ele>
        <time>2017-09-23T09:19:30.000Z</time>
      </trkpt>
      <trkpt lat="48.20561" lon="-3.744">
        <ele>53.2</ele>
        <time>2017-09-23T09:19:31.000Z</time>
      </trkpt>
      <trkpt lat="48.20562" lon="-3.74401">
        <ele>53.2</ele>
        <time>2017-09-23T09:19:32.000Z</time>
      </trkpt>
      <trkpt lat="48.20563" lon="-3.74402">
        <ele>53.1</ele>
        <time>2017-09-23T09:19:33.000Z</time>
      </trkpt>
      <trkpt lat="48.20565" lon="-3.74403">
        <ele>53.1</ele>
        <time>2017-09-23T09:19:34.000Z</time>
      </trkpt>
      <trkpt lat="48.20566" lon="-3.74404">
        <ele>53</ele>
        <time>2017-09-23T09:19:35.000Z</time>
      </trkpt>
      <trkpt lat="48.20567" lon="-3.74405">
        <ele>53</ele>
        <time>2017-09-23T09:19:36.000Z</time>
      </trkpt>
      <trkpt lat="48.20568" lon="-3.74406">
        <ele>52.9</ele>
        <time>2017-09-23T09:19:37.000Z</time>
      </trkpt>
      <trkpt lat="48.20569" lon="-3.74407">
        <ele>52.8</ele>
        <time>2017-09-23T09:19:38.000Z</time>
      </trkpt>
      <trkpt lat="48.20571" lon="-3.74408">
        <ele>52.8</ele>
        <time>2017-09-23T09:19:39.000Z</time>
      </trkpt>
      <trkpt lat="48.20572" lon="-3.74409">
        <ele>52.7</ele>
        <time>2017-09-23T09:19:40.000Z</time>
      </trkpt>
      <trkpt lat="48.20573" lon="-3.7441">
        <ele>52.7</ele>
        <time>2017-09-23T09:19:41.000Z</time>
      </trkpt>
      <trkpt lat="48.20574" lon="-3.74411">
        <ele>52.6</ele>
        <time>2017-09-23T09:19:42.000Z</time>
      </trkpt>
      <trkpt lat="48.20575" lon="-3.74413">
        <ele>52.5</ele>
        <time>2017-09-23T09:19:43.000Z</time>
      </trkpt>
      <trkpt lat="48.20576" lon="-3.74414">
        <ele>52.5</ele>
        <time>2017-09-23T09:19:44.000Z</time>
      </trkpt>
      <trkpt lat="48.20577" lon="-3.74415">
        <ele>52.4</ele>
        <time>2017-09-23T09:19:45.000Z</time>
      </trkpt>
      <trkpt lat="48.20578" lon="-3.74417">
        <ele>52.3</ele>
        <time>2017-09-23T09:19:46.000Z</time>
      </trkpt>
      <trkpt lat="48.20579" lon="-3.74418">
        <ele>52.3</ele>
        <time>2017-09-23T09:19:47.000Z</time>
      </trkpt>
      <trkpt lat="48.2058" lon="-3.74419">
        <ele>52.3</ele>
        <time>2017-09-23T09:19:48.000Z</time>
      </trkpt>
      <trkpt lat="48.20581" lon="-3.74421">
        <ele>52.2</ele>
        <time>2017-09-23T09:19:49.000Z</time>
      </trkpt>
      <trkpt lat="48.20581" lon="-3.74422">
        <ele>52.2</ele>
        <time>2017-09-23T09:19:50.000Z</time>
      </trkpt>
      <trkpt lat="48.20582" lon="-3.74424">
        <ele>52.1</ele>
        <time>2017-09-23T09:19:51.000Z</time>
      </trkpt>
      <trkpt lat="48.20583" lon="-3.74425">
        <ele>52.1</ele>
        <time>2017-09-23T09:19:52.000Z</time>
      </trkpt>
      <trkpt lat="48.20584" lon="-3.74427">
        <ele>52.1</ele>
        <time>2017-09-23T09:19:53.000Z</time>
      </trkpt>
      <trkpt lat="48.20585" lon="-3.74428">
        <ele>52.2</ele>
        <time>2017-09-23T09:19:54.000Z</time>
      </trkpt>
      <trkpt lat="48.20586" lon="-3.7443">
        <ele>52.2</ele>
        <time>2017-09-23T09:19:55.000Z</time>
      </trkpt>
      <trkpt lat="48.20587" lon="-3.74431">
        <ele>52.3</ele>
        <time>2017-09-23T09:19:56.000Z</time>
      </trkpt>
      <trkpt lat="48.20588" lon="-3.74432">
        <ele>52.3</ele>
        <time>2017-09-23T09:19:57.000Z</time>
      </trkpt>
      <trkpt lat="48.2059" lon="-3.74434">
        <ele>52.3</ele>
        <time>2017-09-23T09:19:58.000Z</time>
      </trkpt>
      <trkpt lat="48.20591" lon="-3.74435">
        <ele>52.4</ele>
        <time>2017-09-23T09:19:59.000Z</time>
      </trkpt>
      <trkpt lat="48.20592" lon="-3.74436">
        <ele>52.4</ele>
        <time>2017-09-23T09:20:00.000Z</time>
      </trkpt>
      <trkpt lat="48.20593" lon="-3.74438">
        <ele>52.4</ele>
        <time>2017-09-23T09:20:01.000Z</time>
      </trkpt>
      <trkpt lat="48.20594" lon="-3.74439">
        <ele>52.5</ele>
        <time>2017-09-23T09:20:02.000Z</time>
      </trkpt>
      <trkpt lat="48.20595" lon="-3.7444">
        <ele>52.5</ele>
        <time>2017-09-23T09:20:03.000Z</time>
      </trkpt>
      <trkpt lat="48.20596" lon="-3.74442">
        <ele>52.6</ele>
        <time>2017-09-23T09:20:04.000Z</time>
      </trkpt>
      <trkpt lat="48.20597" lon="-3.74443">
        <ele>52.6</ele>
        <time>2017-09-23T09:20:05.000Z</time>
      </trkpt>
      <trkpt lat="48.20598" lon="-3.74444">
        <ele>52.6</ele>
        <time>2017-09-23T09:20:06.000Z</time>
      </trkpt>
      <trkpt lat="48.20599" lon="-3.74446">
        <ele>52.7</ele>
        <time>2017-09-23T09:20:07.000Z</time>
      </trkpt>
      <trkpt lat="48.206" lon="-3.74447">
        <ele>52.7</ele>
        <time>2017-09-23T09:20:08.000Z</time>
      </trkpt>
      <trkpt lat="48.20601" lon="-3.74448">
        <ele>52.7</ele>
        <time>2017-09-23T09:20:09.000Z</time>
      </trkpt>
      <trkpt lat="48.20602" lon="-3.7445">
        <ele>52.8</ele>
        <time>2017-09-23T09:20:10.000Z</time>
      </trkpt>
      <trkpt lat="48.20603" lon="-3.74451">
        <ele>52.8</ele>
        <time>2017-09-23T09:20:11.000Z</time>
      </trkpt>
      <trkpt lat="48.20604" lon="-3.74452">
        <ele>52.8</ele>
        <time>2017-09-23T09:20:12.000Z</time>
      </trkpt>
      <trkpt lat="48.20605" lon="-3.74453">
        <ele>52.8</ele>
        <time>2017-09-23T09:20:13.000Z</time>
      </trkpt>
      <trkpt lat="48.20605" lon="-3.74455">
        <ele>52.9</ele>
        <time>2017-09-23T09:20:14.000Z</time>
      </trkpt>
      <trkpt lat="48.20606" lon="-3.74456">
        <ele>52.9</ele>
        <time>2017-09-23T09:20:15.000Z</time>
      </trkpt>
      <trkpt lat="48.20607" lon="-3.74457">
        <ele>52.9</ele>
        <time>2017-09-23T09:20:16.000Z</time>
      </trkpt>
      <trkpt lat="48.20608" lon="-3.74459">
        <ele>52.9</ele>
        <time>2017-09-23T09:20:17.000Z</time>
      </trkpt>
      <trkpt lat="48.20608" lon="-3.7446">
        <ele>53</ele>
        <time>2017-09-23T09:20:18.000Z</time>
      </trkpt>
      <trkpt lat="48.20609" lon="-3.74461">
        <ele>53</ele>
        <time>2017-09-23T09:20:19.000Z</time>
      </trkpt>
      <trkpt lat="48.2061" lon="-3.74463">
        <ele>53</ele>
        <time>2017-09-23T09:20:20.000Z</time>
      </trkpt>
      <trkpt lat="48.20611" lon="-3.74464">
        <ele>53</ele>
        <time>2017-09-23T09:20:21.000Z</time>
      </trkpt>
      <trkpt lat="48.20612" lon="-3.74466">
        <ele>53.1</ele>
        <time>2017-09-23T09:20:22.000Z</time>
      </trkpt>
      <trkpt lat="48.20612" lon="-3.74468">
        <ele>53.1</ele>
        <time>2017-09-23T09:20:23.000Z</time>
      </trkpt>
      <trkpt lat="48.20613" lon="-3.74469">
        <ele>53.1</ele>
        <time>2017-09-23T09:20:24.000Z</time>
      </trkpt>
      <trkpt lat="48.20614" lon="-3.74471">
        <ele>53.2</ele>
        <time>2017-09-23T09:20:25.000Z</time>
      </trkpt>
      <trkpt lat="48.20615" lon="-3.74473">
        <ele>53.2</ele>
        <time>2017-09-23T09:20:26.000Z</time>
      </trkpt>
      <trkpt lat="48.20616" lon="-3.74475">
        <ele>53.2</ele>
        <time>2017-09-23T09:20:27.000Z</time>
      </trkpt>
      <trkpt lat="48.20617" lon="-3.74477">
        <ele>53.2</ele>
        <time>2017-09-23T09:20:28.000Z</time>
      </trkpt>
      <trkpt lat="48.20618" lon="-3.74479">
        <ele>53.3</ele>
        <time>2017-09-23T09:20:29.000Z</time>
      </trkpt>
      <trkpt lat="48.20618" lon="-3.74481">
        <ele>53.3</ele>
        <time>2017-09-23T09:20:30.000Z</time>
      </trkpt>
      <trkpt lat="48.20619" lon="-3.74483">
        <ele>53.3</ele>
        <time>2017-09-23T09:20:31.000Z</time>
      </trkpt>
      <trkpt lat="48.2062" lon="-3.74485">
        <ele>53.3</ele>
        <time>2017-09-23T09:20:32.000Z</time>
      </trkpt>
      <trkpt lat="48.2062" lon="-3.74486">
        <ele>53.4</ele>
        <time>2017-09-23T09:20:33.000Z</time>
      </trkpt>
      <trkpt lat="48.20621" lon="-3.74488">
        <ele>53.4</ele>
        <time>2017-09-23T09:20:34.000Z</time>
      </trkpt>
      <trkpt lat="48.20621" lon="-3.7449">
        <ele>53.4</ele>
        <time>2017-09-23T09:20:35.000Z</time>
      </trkpt>
      <trkpt lat="48.20622" lon="-3.74492">
        <ele>53.4</ele>
        <time>2017-09-23T09:20:36.000Z</time>
      </trkpt>
      <trkpt lat="48.20622" lon="-3.74494">
        <ele>53.4</ele>
        <time>2017-09-23T09:20:37.000Z</time>
      </trkpt>
      <trkpt lat="48.20622" lon="-3.74496">
        <ele>53.4</ele>
        <time>2017-09-23T09:20:38.000Z</time>
      </trkpt>
      <trkpt lat="48.20623" lon="-3.74497">
        <ele>53.5</ele>
        <time>2017-09-23T09:20:39.000Z</time>
      </trkpt>
      <trkpt lat="48.20623" lon="-3.74499">
        <ele>53.5</ele>
        <time>2017-09-23T09:20:40.000Z</time>
      </trkpt>
      <trkpt lat="48.20624" lon="-3.74501">
        <ele>53.5</ele>
        <time>2017-09-23T09:20:41.000Z</time>
      </trkpt>
      <trkpt lat="48.20624" lon="-3.74502">
        <ele>53.5</ele>
        <time>2017-09-23T09:20:42.000Z</time>
      </trkpt>
      <trkpt lat="48.20625" lon="-3.74503">
        <ele>53.6</ele>
        <time>2017-09-23T09:20:43.000Z</time>
      </trkpt>
      <trkpt lat="48.20625" lon="-3.74505">
        <ele>53.6</ele>
        <time>2017-09-23T09:20:44.000Z</time>
      </trkpt>
      <trkpt lat="48.20626" lon="-3.74506">
        <ele>53.7</ele>
        <time>2017-09-23T09:20:45.000Z</time>
      </trkpt>
      <trkpt lat="48.20626" lon="-3.74507">
        <ele>53.7</ele>
        <time>2017-09-23T09:20:46.000Z</time>
      </trkpt>
      <trkpt lat="48.20627" lon="-3.74509">
        <ele>53.8</ele>
        <time>2017-09-23T09:20:47.000Z</time>
      </trkpt>
      <trkpt lat="48.20627" lon="-3.7451">
        <ele>53.8</ele>
        <time>2017-09-23T09:20:48.000Z</time>
      </trkpt>
      <trkpt lat="48.20628" lon="-3.74511">
        <ele>53.8</ele>
        <time>2017-09-23T09:20:49.000Z</time>
      </trkpt>
      <trkpt lat="48.20628" lon="-3.74512">
        <ele>53.9</ele>
        <time>2017-09-23T09:20:50.000Z</time>
      </trkpt>
      <trkpt lat="48.20629" lon="-3.74514">
        <ele>53.9</ele>
        <time>2017-09-23T09:20:51.000Z</time>
      </trkpt>
      <trkpt lat="48.20629" lon="-3.74515">
        <ele>53.9</ele>
        <time>2017-09-23T09:20:52.000Z</time>
      </trkpt>
      <trkpt lat="48.2063" lon="-3.74516">
        <ele>54</ele>
        <time>2017-09-23T09:20:53.000Z</time>
      </trkpt>
      <trkpt lat="48.2063" lon="-3.74517">
        <ele>54</ele>
        <time>2017-09-23T09:20:54.000Z</time>
      </trkpt>
      <trkpt lat="48.2063" lon="-3.74519">
        <ele>54</ele>
        <time>2017-09-23T09:20:55.000Z</time>
      </trkpt>
      <trkpt lat="48.2063" lon="-3.7452">
        <ele>54.1</ele>
        <time>2017-09-23T09:20:56.000Z</time>
      </trkpt>
      <trkpt lat="48.20631" lon="-3.74521">
        <ele>54.1</ele>
        <time>2017-09-23T09:20:57.000Z</time>
      </trkpt>
      <trkpt lat="48.20631" lon="-3.74523">
        <ele>54.2</ele>
        <time>2017-09-23T09:20:58.000Z</time>
      </trkpt>
      <trkpt lat="48.20631" lon="-3.74524">
        <ele>54.2</ele>
        <time>2017-09-23T09:20:59.000Z</time>
      </trkpt>
      <trkpt lat="48.20631" lon="-3.74526">
        <ele>54.2</ele>
        <time>2017-09-23T09:21:00.000Z</time>
      </trkpt>
      <trkpt lat="48.20632" lon="-3.74527">
        <ele>54.3</ele>
        <time>2017-09-23T09:21:01.000Z</time>
      </trkpt>
      <trkpt lat="48.20632" lon="-3.74529">
        <ele>54.3</ele>
        <time>2017-09-23T09:21:02.000Z</time>
      </trkpt>
      <trkpt lat="48.20633" lon="-3.7453">
        <ele>54.3</ele>
        <time>2017-09-23T09:21:03.000Z</time>
      </trkpt>
      <trkpt lat="48.20633" lon="-3.74532">
        <ele>54.4</ele>
        <time>2017-09-23T09:21:04.000Z</time>
      </trkpt>
      <trkpt lat="48.20634" lon="-3.74533">
        <ele>54.4</ele>
        <time>2017-09-23T09:21:05.000Z</time>
      </trkpt>
      <trkpt lat="48.20634" lon="-3.74535">
        <ele>54.4</ele>
        <time>2017-09-23T09:21:06.000Z</time>
      </trkpt>
      <trkpt lat="48.20635" lon="-3.74537">
        <ele>54.5</ele>
        <time>2017-09-23T09:21:07.000Z</time>
      </trkpt>
      <trkpt lat="48.20636" lon="-3.74539">
        <ele>54.5</ele>
        <time>2017-09-23T09:21:08.000Z</time>
      </trkpt>
      <trkpt lat="48.20637" lon="-3.74541">
        <ele>54.5</ele>
        <time>2017-09-23T09:21:09.000Z</time>
      </trkpt>
      <trkpt lat="48.20637" lon="-3.74543">
        <ele>54.5</ele>
        <time>2017-09-23T09:21:10.000Z</time>
      </trkpt>
      <trkpt lat="48.20638" lon="-3.74545">
        <ele>54.6</ele>
        <time>2017-09-23T09:21:11.000Z</time>
      </trkpt>
      <trkpt lat="48.20639" lon="-3.74547">
        <ele>54.6</ele>
        <time>2017-09-23T09:21:12.000Z</time>
      </trkpt>
      <trkpt lat="48.2064" lon="-3.74549">
        <ele>54.6</ele>
        <time>2017-09-23T09:21:13.000Z</time>
      </trkpt>
      <trkpt lat="48.20641" lon="-3.74551">
        <ele>54.7</ele>
        <time>2017-09-23T09:21:14.000Z</time>
      </trkpt>
      <trkpt lat="48.20641" lon="-3.74554">
        <ele>54.7</ele>
        <time>2017-09-23T09:21:15.000Z</time>
      </trkpt>
      <trkpt lat="48.20642" lon="-3.74556">
        <ele>54.7</ele>
        <time>2017-09-23T09:21:16.000Z</time>
      </trkpt>
      <trkpt lat="48.20643" lon="-3.74558">
        <ele>54.7</ele>
        <time>2017-09-23T09:21:17.000Z</time>
      </trkpt>
      <trkpt lat="48.20644" lon="-3.74561">
        <ele>54.7</ele>
        <time>2017-09-23T09:21:18.000Z</time>
      </trkpt>
      <trkpt lat="48.20645" lon="-3.74563">
        <ele>54.7</ele>
        <time>2017-09-23T09:21:19.000Z</time>
      </trkpt>
      <trkpt lat="48.20646" lon="-3.74565">
        <ele>54.7</ele>
        <time>2017-09-23T09:21:20.000Z</time>
      </trkpt>
      <trkpt lat="48.20646" lon="-3.74567">
        <ele>54.7</ele>
        <time>2017-09-23T09:21:21.000Z</time>
      </trkpt>
      <trkpt lat="48.20647" lon="-3.74569">
        <ele>54.7</ele>
        <time>2017-09-23T09:21:22.000Z</time>
      </trkpt>
      <trkpt lat="48.20648" lon="-3.74571">
        <ele>54.7</ele>
        <time>2017-09-23T09:21:23.000Z</time>
      </trkpt>
      <trkpt lat="48.20649" lon="-3.74572">
        <ele>54.7</ele>
        <time>2017-09-23T09:21:24.000Z</time>
      </trkpt>
      <trkpt lat="48.2065" lon="-3.74574">
        <ele>54.7</ele>
        <time>2017-09-23T09:21:25.000Z</time>
      </trkpt>
      <trkpt lat="48.20651" lon="-3.74575">
        <ele>54.7</ele>
        <time>2017-09-23T09:21:26.000Z</time>
      </trkpt>
      <trkpt lat="48.20651" lon="-3.74577">
        <ele>54.7</ele>
        <time>2017-09-23T09:21:27.000Z</time>
      </trkpt>
      <trkpt lat="48.20652" lon="-3.74578">
        <ele>54.6</ele>
        <time>2017-09-23T09:21:28.000Z</time>
      </trkpt>
      <trkpt lat="48.20653" lon="-3.74579">
        <ele>54.6</ele>
        <time>2017-09-23T09:21:29.000Z</time>
      </trkpt>
      <trkpt lat="48.20653" lon="-3.7458">
        <ele>54.6</ele>
        <time>2017-09-23T09:21:30.000Z</time>
      </trkpt>
      <trkpt lat="48.20654" lon="-3.74582">
        <ele>54.6</ele>
        <time>2017-09-23T09:21:31.000Z</time>
      </trkpt>
      <trkpt lat="48.20654" lon="-3.74583">
        <ele>54.6</ele>
        <time>2017-09-23T09:21:32.000Z</time>
      </trkpt>
      <trkpt lat="48.20654" lon="-3.74585">
        <ele>54.6</ele>
        <time>2017-09-23T09:21:33.000Z</time>
      </trkpt>
      <trkpt lat="48.20655" lon="-3.74587">
        <ele>54.6</ele>
        <time>2017-09-23T09:21:34.000Z</time>
      </trkpt>
      <trkpt lat="48.20655" lon="-3.74588">
        <ele>54.7</ele>
        <time>2017-09-23T09:21:35.000Z</time>
      </trkpt>
      <trkpt lat="48.20655" lon="-3.7459">
        <ele>54.7</ele>
        <time>2017-09-23T09:21:36.000Z</time>
      </trkpt>
      <trkpt lat="48.20656" lon="-3.74593">
        <ele>54.7</ele>
        <time>2017-09-23T09:21:37.000Z</time>
      </trkpt>
      <trkpt lat="48.20657" lon="-3.74595">
        <ele>54.7</ele>
        <time>2017-09-23T09:21:38.000Z</time>
      </trkpt>
      <trkpt lat="48.20657" lon="-3.74597">
        <ele>54.7</ele>
        <time>2017-09-23T09:21:39.000Z</time>
      </trkpt>
      <trkpt lat="48.20658" lon="-3.746">
        <ele>54.7</ele>
        <time>2017-09-23T09:21:40.000Z</time>
      </trkpt>
      <trkpt lat="48.20659" lon="-3.74602">
        <ele>54.6</ele>
        <time>2017-09-23T09:21:41.000Z</time>
      </trkpt>
      <trkpt lat="48.2066" lon="-3.74604">
        <ele>54.6</ele>
        <time>2017-09-23T09:21:42.000Z</time>
      </trkpt>
      <trkpt lat="48.20661" lon="-3.74606">
        <ele>54.6</ele>
        <time>2017-09-23T09:21:43.000Z</time>
      </trkpt>
      <trkpt lat="48.20662" lon="-3.74608">
        <ele>54.6</ele>
        <time>2017-09-23T09:21:44.000Z</time>
      </trkpt>
      <trkpt lat="48.20662" lon="-3.74609">
        <ele>54.6</ele>
        <time>2017-09-23T09:21:45.000Z</time>
      </trkpt>
      <trkpt lat="48.20663" lon="-3.74611">
        <ele>54.6</ele>
        <time>2017-09-23T09:21:46.000Z</time>
      </trkpt>
      <trkpt lat="48.20664" lon="-3.74612">
        <ele>54.5</ele>
        <time>2017-09-23T09:21:47.000Z</time>
      </trkpt>
      <trkpt lat="48.20664" lon="-3.74614">
        <ele>54.5</ele>
        <time>2017-09-23T09:21:48.000Z</time>
      </trkpt>
      <trkpt lat="48.20665" lon="-3.74615">
        <ele>54.5</ele>
        <time>2017-09-23T09:21:49.000Z</time>
      </trkpt>
      <trkpt lat="48.20665" lon="-3.74616">
        <ele>54.5</ele>
        <time>2017-09-23T09:21:50.000Z</time>
      </trkpt>
      <trkpt lat="48.20666" lon="-3.74617">
        <ele>54.5</ele>
        <time>2017-09-23T09:21:51.000Z</time>
      </trkpt>
      <trkpt lat="48.20666" lon="-3.74619">
        <ele>54.5</ele>
        <time>2017-09-23T09:21:52.000Z</time>
      </trkpt>
      <trkpt lat="48.20667" lon="-3.7462">
        <ele>54.4</ele>
        <time>2017-09-23T09:21:53.000Z</time>
      </trkpt>
      <trkpt lat="48.20667" lon="-3.74621">
        <ele>54.5</ele>
        <time>2017-09-23T09:21:54.000Z</time>
      </trkpt>
      <trkpt lat="48.20667" lon="-3.74623">
        <ele>54.5</ele>
        <time>2017-09-23T09:21:55.000Z</time>
      </trkpt>
      <trkpt lat="48.20668" lon="-3.74624">
        <ele>54.5</ele>
        <time>2017-09-23T09:21:56.000Z</time>
      </trkpt>
      <trkpt lat="48.20668" lon="-3.74625">
        <ele>54.5</ele>
        <time>2017-09-23T09:21:57.000Z</time>
      </trkpt>
      <trkpt lat="48.20668" lon="-3.74627">
        <ele>54.6</ele>
        <time>2017-09-23T09:21:58.000Z</time>
      </trkpt>
      <trkpt lat="48.20669" lon="-3.74628">
        <ele>54.6</ele>
        <time>2017-09-23T09:21:59.000Z</time>
      </trkpt>
      <trkpt lat="48.20669" lon="-3.7463">
        <ele>54.6</ele>
        <time>2017-09-23T09:22:00.000Z</time>
      </trkpt>
      <trkpt lat="48.20669" lon="-3.74631">
        <ele>54.6</ele>
        <time>2017-09-23T09:22:01.000Z</time>
      </trkpt>
      <trkpt lat="48.2067" lon="-3.74633">
        <ele>54.6</ele>
        <time>2017-09-23T09:22:02.000Z</time>
      </trkpt>
      <trkpt lat="48.2067" lon="-3.74635">
        <ele>54.7</ele>
        <time>2017-09-23T09:22:03.000Z</time>
      </trkpt>
      <trkpt lat="48.2067" lon="-3.74636">
        <ele>54.7</ele>
        <time>2017-09-23T09:22:04.000Z</time>
      </trkpt>
      <trkpt lat="48.2067" lon="-3.74638">
        <ele>54.7</ele>
        <time>2017-09-23T09:22:05.000Z</time>
      </trkpt>
      <trkpt lat="48.2067" lon="-3.7464">
        <ele>54.7</ele>
        <time>2017-09-23T09:22:06.000Z</time>
      </trkpt>
      <trkpt lat="48.2067" lon="-3.74642">
        <ele>54.7</ele>
        <time>2017-09-23T09:22:07.000Z</time>
      </trkpt>
      <trkpt lat="48.20671" lon="-3.74644">
        <ele>54.8</ele>
        <time>2017-09-23T09:22:08.000Z</time>
      </trkpt>
      <trkpt lat="48.20671" lon="-3.74645">
        <ele>54.8</ele>
        <time>2017-09-23T09:22:09.000Z</time>
      </trkpt>
      <trkpt lat="48.20671" lon="-3.74647">
        <ele>54.8</ele>
        <time>2017-09-23T09:22:10.000Z</time>
      </trkpt>
      <trkpt lat="48.20672" lon="-3.74649">
        <ele>54.8</ele>
        <time>2017-09-23T09:22:11.000Z</time>
      </trkpt>
      <trkpt lat="48.20672" lon="-3.74651">
        <ele>54.8</ele>
        <time>2017-09-23T09:22:12.000Z</time>
      </trkpt>
      <trkpt lat="48.20673" lon="-3.74652">
        <ele>54.8</ele>
        <time>2017-09-23T09:22:13.000Z</time>
      </trkpt>
      <trkpt lat="48.20673" lon="-3.74654">
        <ele>54.8</ele>
        <time>2017-09-23T09:22:14.000Z</time>
      </trkpt>
      <trkpt lat="48.20674" lon="-3.74655">
        <ele>54.8</ele>
        <time>2017-09-23T09:22:15.000Z</time>
      </trkpt>
      <trkpt lat="48.20674" lon="-3.74657">
        <ele>54.9</ele>
        <time>2017-09-23T09:22:16.000Z</time>
      </trkpt>
      <trkpt lat="48.20675" lon="-3.74658">
        <ele>54.9</ele>
        <time>2017-09-23T09:22:17.000Z</time>
      </trkpt>
      <trkpt lat="48.20676" lon="-3.7466">
        <ele>54.9</ele>
        <time>2017-09-23T09:22:18.000Z</time>
      </trkpt>
      <trkpt lat="48.20677" lon="-3.74661">
        <ele>54.9</ele>
        <time>2017-09-23T09:22:19.000Z</time>
      </trkpt>
      <trkpt lat="48.20677" lon="-3.74662">
        <ele>54.9</ele>
        <time>2017-09-23T09:22:20.000Z</time>
      </trkpt>
      <trkpt lat="48.20678" lon="-3.74664">
        <ele>54.9</ele>
        <time>2017-09-23T09:22:21.000Z</time>
      </trkpt>
      <trkpt lat="48.20679" lon="-3.74665">
        <ele>54.9</ele>
        <time>2017-09-23T09:22:22.000Z</time>
      </trkpt>
      <trkpt lat="48.20679" lon="-3.74666">
        <ele>54.9</ele>
        <time>2017-09-23T09:22:23.000Z</time>
      </trkpt>
      <trkpt lat="48.2068" lon="-3.74668">
        <ele>54.9</ele>
        <time>2017-09-23T09:22:24.000Z</time>
      </trkpt>
      <trkpt lat="48.2068" lon="-3.74669">
        <ele>54.9</ele>
        <time>2017-09-23T09:22:25.000Z</time>
      </trkpt>
      <trkpt lat="48.20681" lon="-3.7467">
        <ele>55</ele>
        <time>2017-09-23T09:22:26.000Z</time>
      </trkpt>
      <trkpt lat="48.20681" lon="-3.74672">
        <ele>55</ele>
        <time>2017-09-23T09:22:27.000Z</time>
      </trkpt>
      <trkpt lat="48.20681" lon="-3.74673">
        <ele>55.1</ele>
        <time>2017-09-23T09:22:28.000Z</time>
      </trkpt>
      <trkpt lat="48.20682" lon="-3.74674">
        <ele>55.2</ele>
        <time>2017-09-23T09:22:29.000Z</time>
      </trkpt>
      <trkpt lat="48.20682" lon="-3.74676">
        <ele>55.2</ele>
        <time>2017-09-23T09:22:30.000Z</time>
      </trkpt>
      <trkpt lat="48.20682" lon="-3.74677">
        <ele>55.3</ele>
        <time>2017-09-23T09:22:31.000Z</time>
      </trkpt>
      <trkpt lat="48.20683" lon="-3.74679">
        <ele>55.3</ele>
        <time>2017-09-23T09:22:32.000Z</time>
      </trkpt>
      <trkpt lat="48.20683" lon="-3.7468">
        <ele>55.4</ele>
        <time>2017-09-23T09:22:33.000Z</time>
      </trkpt>
      <trkpt lat="48.20684" lon="-3.74682">
        <ele>55.5</ele>
        <time>2017-09-23T09:22:34.000Z</time>
      </trkpt>
      <trkpt lat="48.20684" lon="-3.74683">
        <ele>55.5</ele>
        <time>2017-09-23T09:22:35.000Z</time>
      </trkpt>
      <trkpt lat="48.20684" lon="-3.74685">
        <ele>55.6</ele>
        <time>2017-09-23T09:22:36.000Z</time>
      </trkpt>
      <trkpt lat="48.20685" lon="-3.74687">
        <ele>55.6</ele>
        <time>2017-09-23T09:22:37.000Z</time>
      </trkpt>
      <trkpt lat="48.20686" lon="-3.74689">
        <ele>55.7</ele>
        <time>2017-09-23T09:22:38.000Z</time>
      </trkpt>
      <trkpt lat="48.20686" lon="-3.7469">
        <ele>55.8</ele>
        <time>2017-09-23T09:22:39.000Z</time>
      </trkpt>
      <trkpt lat="48.20687" lon="-3.74692">
        <ele>55.8</ele>
        <time>2017-09-23T09:22:40.000Z</time>
      </trkpt>
      <trkpt lat="48.20688" lon="-3.74694">
        <ele>55.9</ele>
        <time>2017-09-23T09:22:41.000Z</time>
      </trkpt>
      <trkpt lat="48.20688" lon="-3.74696">
        <ele>56</ele>
        <time>2017-09-23T09:22:42.000Z</time>
      </trkpt>
      <trkpt lat="48.20689" lon="-3.74698">
        <ele>56</ele>
        <time>2017-09-23T09:22:43.000Z</time>
      </trkpt>
      <trkpt lat="48.2069" lon="-3.74699">
        <ele>56.1</ele>
        <time>2017-09-23T09:22:44.000Z</time>
      </trkpt>
      <trkpt lat="48.2069" lon="-3.74701">
        <ele>56.1</ele>
        <time>2017-09-23T09:22:45.000Z</time>
      </trkpt>
      <trkpt lat="48.20691" lon="-3.74703">
        <ele>56.2</ele>
        <time>2017-09-23T09:22:46.000Z</time>
      </trkpt>
      <trkpt lat="48.20692" lon="-3.74704">
        <ele>56.2</ele>
        <time>2017-09-23T09:22:47.000Z</time>
      </trkpt>
      <trkpt lat="48.20692" lon="-3.74705">
        <ele>56.3</ele>
        <time>2017-09-23T09:22:48.000Z</time>
      </trkpt>
      <trkpt lat="48.20693" lon="-3.74707">
        <ele>56.3</ele>
        <time>2017-09-23T09:22:49.000Z</time>
      </trkpt>
      <trkpt lat="48.20694" lon="-3.74708">
        <ele>56.3</ele>
        <time>2017-09-23T09:22:50.000Z</time>
      </trkpt>
      <trkpt lat="48.20694" lon="-3.74709">
        <ele>56.4</ele>
        <time>2017-09-23T09:22:51.000Z</time>
      </trkpt>
      <trkpt lat="48.20695" lon="-3.7471">
        <ele>56.4</ele>
        <time>2017-09-23T09:22:52.000Z</time>
      </trkpt>
      <trkpt lat="48.20695" lon="-3.74712">
        <ele>56.4</ele>
        <time>2017-09-23T09:22:53.000Z</time>
      </trkpt>
      <trkpt lat="48.20696" lon="-3.74713">
        <ele>56.5</ele>
        <time>2017-09-23T09:22:54.000Z</time>
      </trkpt>
      <trkpt lat="48.20696" lon="-3.74714">
        <ele>56.5</ele>
        <time>2017-09-23T09:22:55.000Z</time>
      </trkpt>
      <trkpt lat="48.20697" lon="-3.74715">
        <ele>56.6</ele>
        <time>2017-09-23T09:22:56.000Z</time>
      </trkpt>
      <trkpt lat="48.20697" lon="-3.74717">
        <ele>56.6</ele>
        <time>2017-09-23T09:22:57.000Z</time>
      </trkpt>
      <trkpt lat="48.20698" lon="-3.74718">
        <ele>56.6</ele>
        <time>2017-09-23T09:22:58.000Z</time>
      </trkpt>
      <trkpt lat="48.20698" lon="-3.74719">
        <ele>56.7</ele>
        <time>2017-09-23T09:22:59.000Z</time>
      </trkpt>
      <trkpt lat="48.20698" lon="-3.74721">
        <ele>56.7</ele>
        <time>2017-09-23T09:23:00.000Z</time>
      </trkpt>
      <trkpt lat="48.20699" lon="-3.74723">
        <ele>56.8</ele>
        <time>2017-09-23T09:23:01.000Z</time>
      </trkpt>
      <trkpt lat="48.20699" lon="-3.74724">
        <ele>56.8</ele>
        <time>2017-09-23T09:23:02.000Z</time>
      </trkpt>
      <trkpt lat="48.207" lon="-3.74726">
        <ele>56.9</ele>
        <time>2017-09-23T09:23:03.000Z</time>
      </trkpt>
      <trkpt lat="48.207" lon="-3.74728">
        <ele>57</ele>
        <time>2017-09-23T09:23:04.000Z</time>
      </trkpt>
      <trkpt lat="48.207" lon="-3.7473">
        <ele>57</ele>
        <time>2017-09-23T09:23:05.000Z</time>
      </trkpt>
      <trkpt lat="48.20701" lon="-3.74732">
        <ele>57.1</ele>
        <time>2017-09-23T09:23:06.000Z</time>
      </trkpt>
      <trkpt lat="48.20701" lon="-3.74734">
        <ele>57.1</ele>
        <time>2017-09-23T09:23:07.000Z</time>
      </trkpt>
      <trkpt lat="48.20702" lon="-3.74736">
        <ele>57.2</ele>
        <time>2017-09-23T09:23:08.000Z</time>
      </trkpt>
      <trkpt lat="48.20702" lon="-3.74738">
        <ele>57.3</ele>
        <time>2017-09-23T09:23:09.000Z</time>
      </trkpt>
      <trkpt lat="48.20703" lon="-3.7474">
        <ele>57.3</ele>
        <time>2017-09-23T09:23:10.000Z</time>
      </trkpt>
      <trkpt lat="48.20703" lon="-3.74742">
        <ele>57.4</ele>
        <time>2017-09-23T09:23:11.000Z</time>
      </trkpt>
      <trkpt lat="48.20703" lon="-3.74744">
        <ele>57.5</ele>
        <time>2017-09-23T09:23:12.000Z</time>
      </trkpt>
      <trkpt lat="48.20704" lon="-3.74746">
        <ele>57.5</ele>
        <time>2017-09-23T09:23:13.000Z</time>
      </trkpt>
      <trkpt lat="48.20704" lon="-3.74748">
        <ele>57.6</ele>
        <time>2017-09-23T09:23:14.000Z</time>
      </trkpt>
      <trkpt lat="48.20705" lon="-3.7475">
        <ele>57.6</ele>
        <time>2017-09-23T09:23:15.000Z</time>
      </trkpt>
      <trkpt lat="48.20705" lon="-3.74752">
        <ele>57.6</ele>
        <time>2017-09-23T09:23:16.000Z</time>
      </trkpt>
      <trkpt lat="48.20706" lon="-3.74753">
        <ele>57.6</ele>
        <time>2017-09-23T09:23:17.000Z</time>
      </trkpt>
      <trkpt lat="48.20706" lon="-3.74755">
        <ele>57.6</ele>
        <time>2017-09-23T09:23:18.000Z</time>
      </trkpt>
      <trkpt lat="48.20707" lon="-3.74757">
        <ele>57.5</ele>
        <time>2017-09-23T09:23:19.000Z</time>
      </trkpt>
      <trkpt lat="48.20707" lon="-3.74758">
        <ele>57.5</ele>
        <time>2017-09-23T09:23:20.000Z</time>
      </trkpt>
      <trkpt lat="48.20707" lon="-3.7476">
        <ele>57.5</ele>
        <time>2017-09-23T09:23:21.000Z</time>
      </trkpt>
      <trkpt lat="48.20708" lon="-3.74762">
        <ele>57.4</ele>
        <time>2017-09-23T09:23:22.000Z</time>
      </trkpt>
      <trkpt lat="48.20708" lon="-3.74763">
        <ele>57.4</ele>
        <time>2017-09-23T09:23:23.000Z</time>
      </trkpt>
      <trkpt lat="48.20709" lon="-3.74765">
        <ele>57.4</ele>
        <time>2017-09-23T09:23:24.000Z</time>
      </trkpt>
      <trkpt lat="48.20709" lon="-3.74766">
        <ele>57.4</ele>
        <time>2017-09-23T09:23:25.000Z</time>
      </trkpt>
      <trkpt lat="48.2071" lon="-3.74768">
        <ele>57.3</ele>
        <time>2017-09-23T09:23:26.000Z</time>
      </trkpt>
      <trkpt lat="48.20711" lon="-3.7477">
        <ele>57.3</ele>
        <time>2017-09-23T09:23:27.000Z</time>
      </trkpt>
      <trkpt lat="48.20711" lon="-3.74771">
        <ele>57.2</ele>
        <time>2017-09-23T09:23:28.000Z</time>
      </trkpt>
      <trkpt lat="48.20712" lon="-3.74773">
        <ele>57.2</ele>
        <time>2017-09-23T09:23:29.000Z</time>
      </trkpt>
      <trkpt lat="48.20712" lon="-3.74774">
        <ele>57.2</ele>
        <time>2017-09-23T09:23:30.000Z</time>
      </trkpt>
      <trkpt lat="48.20713" lon="-3.74776">
        <ele>57.1</ele>
        <time>2017-09-23T09:23:31.000Z</time>
      </trkpt>
      <trkpt lat="48.20714" lon="-3.74777">
        <ele>57.1</ele>
        <time>2017-09-23T09:23:32.000Z</time>
      </trkpt>
      <trkpt lat="48.20714" lon="-3.74779">
        <ele>57</ele>
        <time>2017-09-23T09:23:33.000Z</time>
      </trkpt>
      <trkpt lat="48.20715" lon="-3.74781">
        <ele>57</ele>
        <time>2017-09-23T09:23:34.000Z</time>
      </trkpt>
      <trkpt lat="48.20716" lon="-3.74782">
        <ele>56.9</ele>
        <time>2017-09-23T09:23:35.000Z</time>
      </trkpt>
      <trkpt lat="48.20717" lon="-3.74784">
        <ele>56.9</ele>
        <time>2017-09-23T09:23:36.000Z</time>
      </trkpt>
      <trkpt lat="48.20717" lon="-3.74786">
        <ele>56.8</ele>
        <time>2017-09-23T09:23:37.000Z</time>
      </trkpt>
      <trkpt lat="48.20718" lon="-3.74787">
        <ele>56.8</ele>
        <time>2017-09-23T09:23:38.000Z</time>
      </trkpt>
      <trkpt lat="48.20719" lon="-3.74789">
        <ele>56.7</ele>
        <time>2017-09-23T09:23:39.000Z</time>
      </trkpt>
      <trkpt lat="48.20719" lon="-3.74791">
        <ele>56.7</ele>
        <time>2017-09-23T09:23:40.000Z</time>
      </trkpt>
      <trkpt lat="48.2072" lon="-3.74792">
        <ele>56.6</ele>
        <time>2017-09-23T09:23:41.000Z</time>
      </trkpt>
      <trkpt lat="48.20721" lon="-3.74794">
        <ele>56.6</ele>
        <time>2017-09-23T09:23:42.000Z</time>
      </trkpt>
      <trkpt lat="48.20721" lon="-3.74796">
        <ele>56.5</ele>
        <time>2017-09-23T09:23:43.000Z</time>
      </trkpt>
      <trkpt lat="48.20722" lon="-3.74797">
        <ele>56.5</ele>
        <time>2017-09-23T09:23:44.000Z</time>
      </trkpt>
      <trkpt lat="48.20722" lon="-3.74799">
        <ele>56.4</ele>
        <time>2017-09-23T09:23:45.000Z</time>
      </trkpt>
      <trkpt lat="48.20723" lon="-3.74801">
        <ele>56.4</ele>
        <time>2017-09-23T09:23:46.000Z</time>
      </trkpt>
      <trkpt lat="48.20723" lon="-3.74803">
        <ele>56.3</ele>
        <time>2017-09-23T09:23:47.000Z</time>
      </trkpt>
      <trkpt lat="48.20723" lon="-3.74804">
        <ele>56.3</ele>
        <time>2017-09-23T09:23:48.000Z</time>
      </trkpt>
      <trkpt lat="48.20724" lon="-3.74806">
        <ele>56.2</ele>
        <time>2017-09-23T09:23:49.000Z</time>
      </trkpt>
      <trkpt lat="48.20724" lon="-3.74808">
        <ele>56.2</ele>
        <time>2017-09-23T09:23:50.000Z</time>
      </trkpt>
      <trkpt lat="48.20724" lon="-3.7481">
        <ele>56.2</ele>
        <time>2017-09-23T09:23:51.000Z</time>
      </trkpt>
      <trkpt lat="48.20724" lon="-3.74812">
        <ele>56.1</ele>
        <time>2017-09-23T09:23:52.000Z</time>
      </trkpt>
      <trkpt lat="48.20725" lon="-3.74814">
        <ele>56.1</ele>
        <time>2017-09-23T09:23:53.000Z</time>
      </trkpt>
      <trkpt lat="48.20725" lon="-3.74815">
        <ele>56</ele>
        <time>2017-09-23T09:23:54.000Z</time>
      </trkpt>
      <trkpt lat="48.20725" lon="-3.74817">
        <ele>56</ele>
        <time>2017-09-23T09:23:55.000Z</time>
      </trkpt>
      <trkpt lat="48.20726" lon="-3.74819">
        <ele>55.9</ele>
        <time>2017-09-23T09:23:56.000Z</time>
      </trkpt>
      <trkpt lat="48.20726" lon="-3.74821">
        <ele>55.9</ele>
        <time>2017-09-23T09:23:57.000Z</time>
      </trkpt>
      <trkpt lat="48.20727" lon="-3.74823">
        <ele>55.8</ele>
        <time>2017-09-23T09:23:58.000Z</time>
      </trkpt>
      <trkpt lat="48.20727" lon="-3.74825">
        <ele>55.8</ele>
        <time>2017-09-23T09:23:59.000Z</time>
      </trkpt>
      <trkpt lat="48.20728" lon="-3.74827">
        <ele>55.7</ele>
        <time>2017-09-23T09:24:00.000Z</time>
      </trkpt>
      <trkpt lat="48.20728" lon="-3.74828">
        <ele>55.6</ele>
        <time>2017-09-23T09:24:01.000Z</time>
      </trkpt>
      <trkpt lat="48.20729" lon="-3.7483">
        <ele>55.6</ele>
        <time>2017-09-23T09:24:02.000Z</time>
      </trkpt>
      <trkpt lat="48.2073" lon="-3.74832">
        <ele>55.5</ele>
        <time>2017-09-23T09:24:03.000Z</time>
      </trkpt>
      <trkpt lat="48.2073" lon="-3.74833">
        <ele>55.4</ele>
        <time>2017-09-23T09:24:04.000Z</time>
      </trkpt>
      <trkpt lat="48.20731" lon="-3.74835">
        <ele>55.3</ele>
        <time>2017-09-23T09:24:05.000Z</time>
      </trkpt>
      <trkpt lat="48.20732" lon="-3.74837">
        <ele>55.3</ele>
        <time>2017-09-23T09:24:06.000Z</time>
      </trkpt>
      <trkpt lat="48.20733" lon="-3.74839">
        <ele>55.2</ele>
        <time>2017-09-23T09:24:07.000Z</time>
      </trkpt>
      <trkpt lat="48.20733" lon="-3.7484">
        <ele>55.1</ele>
        <time>2017-09-23T09:24:08.000Z</time>
      </trkpt>
      <trkpt lat="48.20734" lon="-3.74842">
        <ele>55</ele>
        <time>2017-09-23T09:24:09.000Z</time>
      </trkpt>
      <trkpt lat="48.20735" lon="-3.74844">
        <ele>54.9</ele>
        <time>2017-09-23T09:24:10.000Z</time>
      </trkpt>
      <trkpt lat="48.20736" lon="-3.74846">
        <ele>54.8</ele>
        <time>2017-09-23T09:24:11.000Z</time>
      </trkpt>
      <trkpt lat="48.20736" lon="-3.74848">
        <ele>54.7</ele>
        <time>2017-09-23T09:24:12.000Z</time>
      </trkpt>
      <trkpt lat="48.20737" lon="-3.7485">
        <ele>54.6</ele>
        <time>2017-09-23T09:24:13.000Z</time>
      </trkpt>
      <trkpt lat="48.20738" lon="-3.74852">
        <ele>54.5</ele>
        <time>2017-09-23T09:24:14.000Z</time>
      </trkpt>
      <trkpt lat="48.20738" lon="-3.74854">
        <ele>54.4</ele>
        <time>2017-09-23T09:24:15.000Z</time>
      </trkpt>
      <trkpt lat="48.20739" lon="-3.74856">
        <ele>54.4</ele>
        <time>2017-09-23T09:24:16.000Z</time>
      </trkpt>
      <trkpt lat="48.2074" lon="-3.74858">
        <ele>54.3</ele>
        <time>2017-09-23T09:24:17.000Z</time>
      </trkpt>
      <trkpt lat="48.2074" lon="-3.7486">
        <ele>54.2</ele>
        <time>2017-09-23T09:24:18.000Z</time>
      </trkpt>
      <trkpt lat="48.20741" lon="-3.74861">
        <ele>54.1</ele>
        <time>2017-09-23T09:24:19.000Z</time>
      </trkpt>
      <trkpt lat="48.20742" lon="-3.74863">
        <ele>54</ele>
        <time>2017-09-23T09:24:20.000Z</time>
      </trkpt>
      <trkpt lat="48.20742" lon="-3.74865">
        <ele>53.9</ele>
        <time>2017-09-23T09:24:21.000Z</time>
      </trkpt>
      <trkpt lat="48.20743" lon="-3.74867">
        <ele>53.8</ele>
        <time>2017-09-23T09:24:22.000Z</time>
      </trkpt>
      <trkpt lat="48.20743" lon="-3.74868">
        <ele>53.8</ele>
        <time>2017-09-23T09:24:23.000Z</time>
      </trkpt>
      <trkpt lat="48.20744" lon="-3.7487">
        <ele>53.7</ele>
        <time>2017-09-23T09:24:24.000Z</time>
      </trkpt>
      <trkpt lat="48.20744" lon="-3.74871">
        <ele>53.6</ele>
        <time>2017-09-23T09:24:25.000Z</time>
      </trkpt>
      <trkpt lat="48.20745" lon="-3.74873">
        <ele>53.5</ele>
        <time>2017-09-23T09:24:26.000Z</time>
      </trkpt>
      <trkpt lat="48.20745" lon="-3.74874">
        <ele>53.4</ele>
        <time>2017-09-23T09:24:27.000Z</time>
      </trkpt>
      <trkpt lat="48.20746" lon="-3.74876">
        <ele>53.4</ele>
        <time>2017-09-23T09:24:28.000Z</time>
      </trkpt>
      <trkpt lat="48.20746" lon="-3.74877">
        <ele>53.3</ele>
        <time>2017-09-23T09:24:29.000Z</time>
      </trkpt>
      <trkpt lat="48.20747" lon="-3.74879">
        <ele>53.2</ele>
        <time>2017-09-23T09:24:30.000Z</time>
      </trkpt>
      <trkpt lat="48.20747" lon="-3.7488">
        <ele>53.1</ele>
        <time>2017-09-23T09:24:31.000Z</time>
      </trkpt>
      <trkpt lat="48.20748" lon="-3.74881">
        <ele>53.1</ele>
        <time>2017-09-23T09:24:32.000Z</time>
      </trkpt>
      <trkpt lat="48.20748" lon="-3.74883">
        <ele>53</ele>
        <time>2017-09-23T09:24:33.000Z</time>
      </trkpt>
      <trkpt lat="48.20749" lon="-3.74884">
        <ele>52.9</ele>
        <time>2017-09-23T09:24:34.000Z</time>
      </trkpt>
      <trkpt lat="48.20749" lon="-3.74886">
        <ele>52.8</ele>
        <time>2017-09-23T09:24:35.000Z</time>
      </trkpt>
      <trkpt lat="48.2075" lon="-3.74887">
        <ele>52.7</ele>
        <time>2017-09-23T09:24:36.000Z</time>
      </trkpt>
      <trkpt lat="48.2075" lon="-3.74889">
        <ele>52.7</ele>
        <time>2017-09-23T09:24:37.000Z</time>
      </trkpt>
      <trkpt lat="48.20751" lon="-3.7489">
        <ele>52.7</ele>
        <time>2017-09-23T09:24:38.000Z</time>
      </trkpt>
      <trkpt lat="48.20752" lon="-3.74892">
        <ele>52.7</ele>
        <time>2017-09-23T09:24:39.000Z</time>
      </trkpt>
      <trkpt lat="48.20752" lon="-3.74893">
        <ele>52.7</ele>
        <time>2017-09-23T09:24:40.000Z</time>
      </trkpt>
      <trkpt lat="48.20753" lon="-3.74895">
        <ele>52.7</ele>
        <time>2017-09-23T09:24:41.000Z</time>
      </trkpt>
      <trkpt lat="48.20753" lon="-3.74896">
        <ele>52.7</ele>
        <time>2017-09-23T09:24:42.000Z</time>
      </trkpt>
      <trkpt lat="48.20754" lon="-3.74898">
        <ele>52.7</ele>
        <time>2017-09-23T09:24:43.000Z</time>
      </trkpt>
      <trkpt lat="48.20754" lon="-3.74899">
        <ele>52.7</ele>
        <time>2017-09-23T09:24:44.000Z</time>
      </trkpt>
      <trkpt lat="48.20755" lon="-3.74901">
        <ele>52.7</ele>
        <time>2017-09-23T09:24:45.000Z</time>
      </trkpt>
      <trkpt lat="48.20755" lon="-3.74902">
        <ele>52.7</ele>
        <time>2017-09-23T09:24:46.000Z</time>
      </trkpt>
      <trkpt lat="48.20756" lon="-3.74904">
        <ele>52.7</ele>
        <time>2017-09-23T09:24:47.000Z</time>
      </trkpt>
      <trkpt lat="48.20757" lon="-3.74905">
        <ele>52.7</ele>
        <time>2017-09-23T09:24:48.000Z</time>
      </trkpt>
      <trkpt lat="48.20757" lon="-3.74907">
        <ele>52.7</ele>
        <time>2017-09-23T09:24:49.000Z</time>
      </trkpt>
      <trkpt lat="48.20758" lon="-3.74908">
        <ele>52.7</ele>
        <time>2017-09-23T09:24:50.000Z</time>
      </trkpt>
      <trkpt lat="48.20758" lon="-3.7491">
        <ele>52.7</ele>
        <time>2017-09-23T09:24:51.000Z</time>
      </trkpt>
      <trkpt lat="48.20759" lon="-3.74912">
        <ele>52.7</ele>
        <time>2017-09-23T09:24:52.000Z</time>
      </trkpt>
      <trkpt lat="48.20759" lon="-3.74913">
        <ele>52.7</ele>
        <time>2017-09-23T09:24:53.000Z</time>
      </trkpt>
      <trkpt lat="48.2076" lon="-3.74915">
        <ele>52.7</ele>
        <time>2017-09-23T09:24:54.000Z</time>
      </trkpt>
      <trkpt lat="48.2076" lon="-3.74916">
        <ele>52.7</ele>
        <time>2017-09-23T09:24:55.000Z</time>
      </trkpt>
      <trkpt lat="48.20761" lon="-3.74918">
        <ele>52.8</ele>
        <time>2017-09-23T09:24:56.000Z</time>
      </trkpt>
      <trkpt lat="48.20761" lon="-3.7492">
        <ele>52.9</ele>
        <time>2017-09-23T09:24:57.000Z</time>
      </trkpt>
      <trkpt lat="48.20762" lon="-3.74921">
        <ele>52.9</ele>
        <time>2017-09-23T09:24:58.000Z</time>
      </trkpt>
      <trkpt lat="48.20762" lon="-3.74923">
        <ele>53</ele>
        <time>2017-09-23T09:24:59.000Z</time>
      </trkpt>
      <trkpt lat="48.20763" lon="-3.74925">
        <ele>53.1</ele>
        <time>2017-09-23T09:25:00.000Z</time>
      </trkpt>
      <trkpt lat="48.20763" lon="-3.74926">
        <ele>53.1</ele>
        <time>2017-09-23T09:25:01.000Z</time>
      </trkpt>
      <trkpt lat="48.20764" lon="-3.74928">
        <ele>53.2</ele>
        <time>2017-09-23T09:25:02.000Z</time>
      </trkpt>
      <trkpt lat="48.20764" lon="-3.7493">
        <ele>53.3</ele>
        <time>2017-09-23T09:25:03.000Z</time>
      </trkpt>
      <trkpt lat="48.20765" lon="-3.74932">
        <ele>53.3</ele>
        <time>2017-09-23T09:25:04.000Z</time>
      </trkpt>
      <trkpt lat="48.20765" lon="-3.74933">
        <ele>53.4</ele>
        <time>2017-09-23T09:25:05.000Z</time>
      </trkpt>
      <trkpt lat="48.20766" lon="-3.74935">
        <ele>53.5</ele>
        <time>2017-09-23T09:25:06.000Z</time>
      </trkpt>
      <trkpt lat="48.20767" lon="-3.74937">
        <ele>53.5</ele>
        <time>2017-09-23T09:25:07.000Z</time>
      </trkpt>
      <trkpt lat="48.20767" lon="-3.74939">
        <ele>53.6</ele>
        <time>2017-09-23T09:25:08.000Z</time>
      </trkpt>
      <trkpt lat="48.20768" lon="-3.74941">
        <ele>53.7</ele>
        <time>2017-09-23T09:25:09.000Z</time>
      </trkpt>
      <trkpt lat="48.20768" lon="-3.74943">
        <ele>53.7</ele>
        <time>2017-09-23T09:25:10.000Z</time>
      </trkpt>
      <trkpt lat="48.20769" lon="-3.74944">
        <ele>53.8</ele>
        <time>2017-09-23T09:25:11.000Z</time>
      </trkpt>
      <trkpt lat="48.20769" lon="-3.74946">
        <ele>53.8</ele>
        <time>2017-09-23T09:25:12.000Z</time>
      </trkpt>
      <trkpt lat="48.2077" lon="-3.74948">
        <ele>53.9</ele>
        <time>2017-09-23T09:25:13.000Z</time>
      </trkpt>
      <trkpt lat="48.2077" lon="-3.7495">
        <ele>54</ele>
        <time>2017-09-23T09:25:14.000Z</time>
      </trkpt>
      <trkpt lat="48.20771" lon="-3.74952">
        <ele>54</ele>
        <time>2017-09-23T09:25:15.000Z</time>
      </trkpt>
      <trkpt lat="48.20771" lon="-3.74954">
        <ele>54.1</ele>
        <time>2017-09-23T09:25:16.000Z</time>
      </trkpt>
      <trkpt lat="48.20772" lon="-3.74955">
        <ele>54.1</ele>
        <time>2017-09-23T09:25:17.000Z</time>
      </trkpt>
      <trkpt lat="48.20772" lon="-3.74957">
        <ele>54.2</ele>
        <time>2017-09-23T09:25:18.000Z</time>
      </trkpt>
      <trkpt lat="48.20773" lon="-3.74959">
        <ele>54.2</ele>
        <time>2017-09-23T09:25:19.000Z</time>
      </trkpt>
      <trkpt lat="48.20773" lon="-3.7496">
        <ele>54.3</ele>
        <time>2017-09-23T09:25:20.000Z</time>
      </trkpt>
      <trkpt lat="48.20773" lon="-3.74962">
        <ele>54.3</ele>
        <time>2017-09-23T09:25:21.000Z</time>
      </trkpt>
      <trkpt lat="48.20774" lon="-3.74963">
        <ele>54.3</ele>
        <time>2017-09-23T09:25:22.000Z</time>
      </trkpt>
      <trkpt lat="48.20774" lon="-3.74964">
        <ele>54.4</ele>
        <time>2017-09-23T09:25:23.000Z</time>
      </trkpt>
      <trkpt lat="48.20775" lon="-3.74966">
        <ele>54.4</ele>
        <time>2017-09-23T09:25:24.000Z</time>
      </trkpt>
      <trkpt lat="48.20775" lon="-3.74967">
        <ele>54.5</ele>
        <time>2017-09-23T09:25:25.000Z</time>
      </trkpt>
      <trkpt lat="48.20775" lon="-3.74969">
        <ele>54.5</ele>
        <time>2017-09-23T09:25:26.000Z</time>
      </trkpt>
      <trkpt lat="48.20776" lon="-3.7497">
        <ele>54.5</ele>
        <time>2017-09-23T09:25:27.000Z</time>
      </trkpt>
      <trkpt lat="48.20776" lon="-3.74972">
        <ele>54.6</ele>
        <time>2017-09-23T09:25:28.000Z</time>
      </trkpt>
      <trkpt lat="48.20776" lon="-3.74973">
        <ele>54.6</ele>
        <time>2017-09-23T09:25:29.000Z</time>
      </trkpt>
      <trkpt lat="48.20777" lon="-3.74975">
        <ele>54.6</ele>
        <time>2017-09-23T09:25:30.000Z</time>
      </trkpt>
      <trkpt lat="48.20777" lon="-3.74977">
        <ele>54.7</ele>
        <time>2017-09-23T09:25:31.000Z</time>
      </trkpt>
      <trkpt lat="48.20777" lon="-3.74979">
        <ele>54.7</ele>
        <time>2017-09-23T09:25:32.000Z</time>
      </trkpt>
      <trkpt lat="48.20778" lon="-3.7498">
        <ele>54.8</ele>
        <time>2017-09-23T09:25:33.000Z</time>
      </trkpt>
      <trkpt lat="48.20778" lon="-3.74982">
        <ele>54.8</ele>
        <time>2017-09-23T09:25:34.000Z</time>
      </trkpt>
      <trkpt lat="48.20778" lon="-3.74984">
        <ele>54.8</ele>
        <time>2017-09-23T09:25:35.000Z</time>
      </trkpt>
      <trkpt lat="48.20779" lon="-3.74986">
        <ele>54.9</ele>
        <time>2017-09-23T09:25:36.000Z</time>
      </trkpt>
      <trkpt lat="48.20779" lon="-3.74988">
        <ele>54.9</ele>
        <time>2017-09-23T09:25:37.000Z</time>
      </trkpt>
      <trkpt lat="48.2078" lon="-3.7499">
        <ele>55</ele>
        <time>2017-09-23T09:25:38.000Z</time>
      </trkpt>
      <trkpt lat="48.2078" lon="-3.74991">
        <ele>55</ele>
        <time>2017-09-23T09:25:39.000Z</time>
      </trkpt>
      <trkpt lat="48.20781" lon="-3.74993">
        <ele>55</ele>
        <time>2017-09-23T09:25:40.000Z</time>
      </trkpt>
      <trkpt lat="48.20781" lon="-3.74994">
        <ele>55.1</ele>
        <time>2017-09-23T09:25:41.000Z</time>
      </trkpt>
      <trkpt lat="48.20782" lon="-3.74996">
        <ele>55.1</ele>
        <time>2017-09-23T09:25:42.000Z</time>
      </trkpt>
      <trkpt lat="48.20783" lon="-3.74997">
        <ele>55.2</ele>
        <time>2017-09-23T09:25:43.000Z</time>
      </trkpt>
      <trkpt lat="48.20783" lon="-3.74999">
        <ele>55.2</ele>
        <time>2017-09-23T09:25:44.000Z</time>
      </trkpt>
      <trkpt lat="48.20784" lon="-3.75">
        <ele>55.2</ele>
        <time>2017-09-23T09:25:45.000Z</time>
      </trkpt>
      <trkpt lat="48.20784" lon="-3.75002">
        <ele>55.3</ele>
        <time>2017-09-23T09:25:46.000Z</time>
      </trkpt>
      <trkpt lat="48.20785" lon="-3.75004">
        <ele>55.3</ele>
        <time>2017-09-23T09:25:47.000Z</time>
      </trkpt>
      <trkpt lat="48.20785" lon="-3.75005">
        <ele>55.4</ele>
        <time>2017-09-23T09:25:48.000Z</time>
      </trkpt>
      <trkpt lat="48.20786" lon="-3.75007">
        <ele>55.4</ele>
        <time>2017-09-23T09:25:49.000Z</time>
      </trkpt>
      <trkpt lat="48.20786" lon="-3.75009">
        <ele>55.5</ele>
        <time>2017-09-23T09:25:50.000Z</time>
      </trkpt>
      <trkpt lat="48.20786" lon="-3.7501">
        <ele>55.5</ele>
        <time>2017-09-23T09:25:51.000Z</time>
      </trkpt>
      <trkpt lat="48.20786" lon="-3.75012">
        <ele>55.5</ele>
        <time>2017-09-23T09:25:52.000Z</time>
      </trkpt>
      <trkpt lat="48.20786" lon="-3.75014">
        <ele>55.6</ele>
        <time>2017-09-23T09:25:53.000Z</time>
      </trkpt>
      <trkpt lat="48.20786" lon="-3.75016">
        <ele>55.6</ele>
        <time>2017-09-23T09:25:54.000Z</time>
      </trkpt>
      <trkpt lat="48.20786" lon="-3.75018">
        <ele>55.6</ele>
        <time>2017-09-23T09:25:55.000Z</time>
      </trkpt>
      <trkpt lat="48.20786" lon="-3.7502">
        <ele>55.7</ele>
        <time>2017-09-23T09:25:56.000Z</time>
      </trkpt>
      <trkpt lat="48.20786" lon="-3.75022">
        <ele>55.7</ele>
        <time>2017-09-23T09:25:57.000Z</time>
      </trkpt>
      <trkpt lat="48.20786" lon="-3.75023">
        <ele>55.7</ele>
        <time>2017-09-23T09:25:58.000Z</time>
      </trkpt>
      <trkpt lat="48.20787" lon="-3.75025">
        <ele>55.8</ele>
        <time>2017-09-23T09:25:59.000Z</time>
      </trkpt>
      <trkpt lat="48.20787" lon="-3.75026">
        <ele>55.8</ele>
        <time>2017-09-23T09:26:00.000Z</time>
      </trkpt>
      <trkpt lat="48.20788" lon="-3.75028">
        <ele>55.9</ele>
        <time>2017-09-23T09:26:01.000Z</time>
      </trkpt>
      <trkpt lat="48.20788" lon="-3.75029">
        <ele>55.9</ele>
        <time>2017-09-23T09:26:02.000Z</time>
      </trkpt>
      <trkpt lat="48.20789" lon="-3.7503">
        <ele>56</ele>
        <time>2017-09-23T09:26:03.000Z</time>
      </trkpt>
      <trkpt lat="48.20789" lon="-3.75032">
        <ele>56</ele>
        <time>2017-09-23T09:26:04.000Z</time>
      </trkpt>
      <trkpt lat="48.20789" lon="-3.75033">
        <ele>56</ele>
        <time>2017-09-23T09:26:05.000Z</time>
      </trkpt>
      <trkpt lat="48.2079" lon="-3.75035">
        <ele>56.1</ele>
        <time>2017-09-23T09:26:06.000Z</time>
      </trkpt>
      <trkpt lat="48.2079" lon="-3.75037">
        <ele>56.1</ele>
        <time>2017-09-23T09:26:07.000Z</time>
      </trkpt>
      <trkpt lat="48.2079" lon="-3.75039">
        <ele>56.1</ele>
        <time>2017-09-23T09:26:08.000Z</time>
      </trkpt>
      <trkpt lat="48.2079" lon="-3.7504">
        <ele>56.2</ele>
        <time>2017-09-23T09:26:09.000Z</time>
      </trkpt>
      <trkpt lat="48.20791" lon="-3.75042">
        <ele>56.2</ele>
        <time>2017-09-23T09:26:10.000Z</time>
      </trkpt>
      <trkpt lat="48.20791" lon="-3.75044">
        <ele>56.3</ele>
        <time>2017-09-23T09:26:11.000Z</time>
      </trkpt>
      <trkpt lat="48.20791" lon="-3.75046">
        <ele>56.3</ele>
        <time>2017-09-23T09:26:12.000Z</time>
      </trkpt>
      <trkpt lat="48.20792" lon="-3.75047">
        <ele>56.3</ele>
        <time>2017-09-23T09:26:13.000Z</time>
      </trkpt>
      <trkpt lat="48.20792" lon="-3.75049">
        <ele>56.4</ele>
        <time>2017-09-23T09:26:14.000Z</time>
      </trkpt>
      <trkpt lat="48.20793" lon="-3.7505">
        <ele>56.4</ele>
        <time>2017-09-23T09:26:15.000Z</time>
      </trkpt>
      <trkpt lat="48.20793" lon="-3.75052">
        <ele>56.5</ele>
        <time>2017-09-23T09:26:16.000Z</time>
      </trkpt>
      <trkpt lat="48.20794" lon="-3.75054">
        <ele>56.5</ele>
        <time>2017-09-23T09:26:17.000Z</time>
      </trkpt>
      <trkpt lat="48.20794" lon="-3.75055">
        <ele>56.6</ele>
        <time>2017-09-23T09:26:18.000Z</time>
      </trkpt>
      <trkpt lat="48.20794" lon="-3.75057">
        <ele>56.6</ele>
        <time>2017-09-23T09:26:19.000Z</time>
      </trkpt>
      <trkpt lat="48.20794" lon="-3.75058">
        <ele>56.6</ele>
        <time>2017-09-23T09:26:20.000Z</time>
      </trkpt>
      <trkpt lat="48.20795" lon="-3.7506">
        <ele>56.7</ele>
        <time>2017-09-23T09:26:21.000Z</time>
      </trkpt>
      <trkpt lat="48.20795" lon="-3.75062">
        <ele>56.7</ele>
        <time>2017-09-23T09:26:22.000Z</time>
      </trkpt>
      <trkpt lat="48.20795" lon="-3.75063">
        <ele>56.7</ele>
        <time>2017-09-23T09:26:23.000Z</time>
      </trkpt>
      <trkpt lat="48.20795" lon="-3.75065">
        <ele>56.8</ele>
        <time>2017-09-23T09:26:24.000Z</time>
      </trkpt>
      <trkpt lat="48.20795" lon="-3.75067">
        <ele>56.8</ele>
        <time>2017-09-23T09:26:25.000Z</time>
      </trkpt>
      <trkpt lat="48.20795" lon="-3.75068">
        <ele>56.8</ele>
        <time>2017-09-23T09:26:26.000Z</time>
      </trkpt>
      <trkpt lat="48.20795" lon="-3.7507">
        <ele>56.9</ele>
        <time>2017-09-23T09:26:27.000Z</time>
      </trkpt>
      <trkpt lat="48.20796" lon="-3.75072">
        <ele>56.9</ele>
        <time>2017-09-23T09:26:28.000Z</time>
      </trkpt>
      <trkpt lat="48.20796" lon="-3.75073">
        <ele>56.9</ele>
        <time>2017-09-23T09:26:29.000Z</time>
      </trkpt>
      <trkpt lat="48.20796" lon="-3.75075">
        <ele>57</ele>
        <time>2017-09-23T09:26:30.000Z</time>
      </trkpt>
      <trkpt lat="48.20797" lon="-3.75076">
        <ele>57</ele>
        <time>2017-09-23T09:26:31.000Z</time>
      </trkpt>
      <trkpt lat="48.20797" lon="-3.75078">
        <ele>57</ele>
        <time>2017-09-23T09:26:32.000Z</time>
      </trkpt>
      <trkpt lat="48.20797" lon="-3.7508">
        <ele>57.1</ele>
        <time>2017-09-23T09:26:33.000Z</time>
      </trkpt>
      <trkpt lat="48.20798" lon="-3.75082">
        <ele>57.1</ele>
        <time>2017-09-23T09:26:34.000Z</time>
      </trkpt>
      <trkpt lat="48.20798" lon="-3.75084">
        <ele>57.2</ele>
        <time>2017-09-23T09:26:35.000Z</time>
      </trkpt>
      <trkpt lat="48.20798" lon="-3.75086">
        <ele>57.2</ele>
        <time>2017-09-23T09:26:36.000Z</time>
      </trkpt>
      <trkpt lat="48.20798" lon="-3.75088">
        <ele>57.3</ele>
        <time>2017-09-23T09:26:37.000Z</time>
      </trkpt>
      <trkpt lat="48.20799" lon="-3.75089">
        <ele>57.4</ele>
        <time>2017-09-23T09:26:38.000Z</time>
      </trkpt>
      <trkpt lat="48.20799" lon="-3.75091">
        <ele>57.5</ele>
        <time>2017-09-23T09:26:39.000Z</time>
      </trkpt>
      <trkpt lat="48.20799" lon="-3.75092">
        <ele>57.5</ele>
        <time>2017-09-23T09:26:40.000Z</time>
      </trkpt>
      <trkpt lat="48.20799" lon="-3.75093">
        <ele>57.5</ele>
        <time>2017-09-23T09:26:41.000Z</time>
      </trkpt>
      <trkpt lat="48.20799" lon="-3.75093">
        <ele>57.6</ele>
        <time>2017-09-23T09:26:42.000Z</time>
      </trkpt>
      <trkpt lat="48.20799" lon="-3.75094">
        <ele>57.6</ele>
        <time>2017-09-23T09:26:43.000Z</time>
      </trkpt>
      <trkpt lat="48.20799" lon="-3.75094">
        <ele>57.6</ele>
        <time>2017-09-23T09:26:44.000Z</time>
      </trkpt>
      <trkpt lat="48.20799" lon="-3.75094">
        <ele>57.6</ele>
        <time>2017-09-23T09:26:45.000Z</time>
      </trkpt>
      <trkpt lat="48.20799" lon="-3.75094">
        <ele>57.6</ele>
        <time>2017-09-23T09:26:46.000Z</time>
      </trkpt>
      <trkpt lat="48.20799" lon="-3.75094">
        <ele>57.6</ele>
        <time>2017-09-23T09:26:47.000Z</time>
      </trkpt>
      <trkpt lat="48.20799" lon="-3.75094">
        <ele>57.6</ele>
        <time>2017-09-23T09:26:48.000Z</time>
      </trkpt>
      <trkpt lat="48.20799" lon="-3.75094">
        <ele>57.6</ele>
        <time>2017-09-23T09:26:49.000Z</time>
      </trkpt>
      <trkpt lat="48.20799" lon="-3.75094">
        <ele>57.6</ele>
        <time>2017-09-23T09:26:50.000Z</time>
      </trkpt>
      <trkpt lat="48.20799" lon="-3.75095">
        <ele>57.6</ele>
        <time>2017-09-23T09:26:51.000Z</time>
      </trkpt>
      <trkpt lat="48.20799" lon="-3.75095">
        <ele>57.6</ele>
        <time>2017-09-23T09:26:52.000Z</time>
      </trkpt>
      <trkpt lat="48.20799" lon="-3.75095">
        <ele>57.6</ele>
        <time>2017-09-23T09:26:53.000Z</time>
      </trkpt>
      <trkpt lat="48.20799" lon="-3.75095">
        <ele>57.6</ele>
        <time>2017-09-23T09:26:54.000Z</time>
      </trkpt>
      <trkpt lat="48.20799" lon="-3.75096">
        <ele>57.7</ele>
        <time>2017-09-23T09:26:55.000Z</time>
      </trkpt>
      <trkpt lat="48.208" lon="-3.75097">
        <ele>57.8</ele>
        <time>2017-09-23T09:26:56.000Z</time>
      </trkpt>
      <trkpt lat="48.208" lon="-3.75099">
        <ele>57.8</ele>
        <time>2017-09-23T09:26:57.000Z</time>
      </trkpt>
      <trkpt lat="48.20801" lon="-3.751">
        <ele>57.9</ele>
        <time>2017-09-23T09:26:58.000Z</time>
      </trkpt>
      <trkpt lat="48.20801" lon="-3.75101">
        <ele>58</ele>
        <time>2017-09-23T09:26:59.000Z</time>
      </trkpt>
      <trkpt lat="48.20802" lon="-3.75102">
        <ele>58</ele>
        <time>2017-09-23T09:27:00.000Z</time>
      </trkpt>
      <trkpt lat="48.20802" lon="-3.75103">
        <ele>58.1</ele>
        <time>2017-09-23T09:27:01.000Z</time>
      </trkpt>
      <trkpt lat="48.20802" lon="-3.75105">
        <ele>58.1</ele>
        <time>2017-09-23T09:27:02.000Z</time>
      </trkpt>
      <trkpt lat="48.20802" lon="-3.75106">
        <ele>58.2</ele>
        <time>2017-09-23T09:27:03.000Z</time>
      </trkpt>
      <trkpt lat="48.20802" lon="-3.75108">
        <ele>58.3</ele>
        <time>2017-09-23T09:27:04.000Z</time>
      </trkpt>
      <trkpt lat="48.20802" lon="-3.75109">
        <ele>58.3</ele>
        <time>2017-09-23T09:27:05.000Z</time>
      </trkpt>
      <trkpt lat="48.20802" lon="-3.75111">
        <ele>58.4</ele>
        <time>2017-09-23T09:27:06.000Z</time>
      </trkpt>
      <trkpt lat="48.20802" lon="-3.75113">
        <ele>58.5</ele>
        <time>2017-09-23T09:27:07.000Z</time>
      </trkpt>
      <trkpt lat="48.20802" lon="-3.75114">
        <ele>58.6</ele>
        <time>2017-09-23T09:27:08.000Z</time>
      </trkpt>
      <trkpt lat="48.20802" lon="-3.75116">
        <ele>58.6</ele>
        <time>2017-09-23T09:27:09.000Z</time>
      </trkpt>
      <trkpt lat="48.20802" lon="-3.75118">
        <ele>58.7</ele>
        <time>2017-09-23T09:27:10.000Z</time>
      </trkpt>
      <trkpt lat="48.20803" lon="-3.75119">
        <ele>58.8</ele>
        <time>2017-09-23T09:27:11.000Z</time>
      </trkpt>
      <trkpt lat="48.20803" lon="-3.75121">
        <ele>58.9</ele>
        <time>2017-09-23T09:27:12.000Z</time>
      </trkpt>
      <trkpt lat="48.20803" lon="-3.75123">
        <ele>58.9</ele>
        <time>2017-09-23T09:27:13.000Z</time>
      </trkpt>
      <trkpt lat="48.20803" lon="-3.75124">
        <ele>59</ele>
        <time>2017-09-23T09:27:14.000Z</time>
      </trkpt>
      <trkpt lat="48.20803" lon="-3.75126">
        <ele>59.1</ele>
        <time>2017-09-23T09:27:15.000Z</time>
      </trkpt>
      <trkpt lat="48.20803" lon="-3.75127">
        <ele>59.1</ele>
        <time>2017-09-23T09:27:16.000Z</time>
      </trkpt>
      <trkpt lat="48.20804" lon="-3.75129">
        <ele>59.2</ele>
        <time>2017-09-23T09:27:17.000Z</time>
      </trkpt>
      <trkpt lat="48.20804" lon="-3.7513">
        <ele>59.3</ele>
        <time>2017-09-23T09:27:18.000Z</time>
      </trkpt>
      <trkpt lat="48.20804" lon="-3.75132">
        <ele>59.4</ele>
        <time>2017-09-23T09:27:19.000Z</time>
      </trkpt>
      <trkpt lat="48.20804" lon="-3.75133">
        <ele>59.4</ele>
        <time>2017-09-23T09:27:20.000Z</time>
      </trkpt>
      <trkpt lat="48.20804" lon="-3.75135">
        <ele>59.5</ele>
        <time>2017-09-23T09:27:21.000Z</time>
      </trkpt>
      <trkpt lat="48.20804" lon="-3.75136">
        <ele>59.6</ele>
        <time>2017-09-23T09:27:22.000Z</time>
      </trkpt>
      <trkpt lat="48.20804" lon="-3.75138">
        <ele>59.7</ele>
        <time>2017-09-23T09:27:23.000Z</time>
      </trkpt>
      <trkpt lat="48.20804" lon="-3.75139">
        <ele>59.7</ele>
        <time>2017-09-23T09:27:24.000Z</time>
      </trkpt>
      <trkpt lat="48.20804" lon="-3.75141">
        <ele>59.8</ele>
        <time>2017-09-23T09:27:25.000Z</time>
      </trkpt>
      <trkpt lat="48.20804" lon="-3.75142">
        <ele>59.9</ele>
        <time>2017-09-23T09:27:26.000Z</time>
      </trkpt>
      <trkpt lat="48.20804" lon="-3.75144">
        <ele>59.9</ele>
        <time>2017-09-23T09:27:27.000Z</time>
      </trkpt>
      <trkpt lat="48.20804" lon="-3.75146">
        <ele>60</ele>
        <time>2017-09-23T09:27:28.000Z</time>
      </trkpt>
      <trkpt lat="48.20804" lon="-3.75147">
        <ele>60</ele>
        <time>2017-09-23T09:27:29.000Z</time>
      </trkpt>
      <trkpt lat="48.20804" lon="-3.75149">
        <ele>60.1</ele>
        <time>2017-09-23T09:27:30.000Z</time>
      </trkpt>
      <trkpt lat="48.20804" lon="-3.75151">
        <ele>60.2</ele>
        <time>2017-09-23T09:27:31.000Z</time>
      </trkpt>
      <trkpt lat="48.20803" lon="-3.75153">
        <ele>60.2</ele>
        <time>2017-09-23T09:27:32.000Z</time>
      </trkpt>
      <trkpt lat="48.20803" lon="-3.75154">
        <ele>60.3</ele>
        <time>2017-09-23T09:27:33.000Z</time>
      </trkpt>
      <trkpt lat="48.20803" lon="-3.75156">
        <ele>60.3</ele>
        <time>2017-09-23T09:27:34.000Z</time>
      </trkpt>
      <trkpt lat="48.20802" lon="-3.75158">
        <ele>60.4</ele>
        <time>2017-09-23T09:27:35.000Z</time>
      </trkpt>
      <trkpt lat="48.20802" lon="-3.7516">
        <ele>60.5</ele>
        <time>2017-09-23T09:27:36.000Z</time>
      </trkpt>
      <trkpt lat="48.20802" lon="-3.75162">
        <ele>60.5</ele>
        <time>2017-09-23T09:27:37.000Z</time>
      </trkpt>
      <trkpt lat="48.20801" lon="-3.75164">
        <ele>60.6</ele>
        <time>2017-09-23T09:27:38.000Z</time>
      </trkpt>
      <trkpt lat="48.20801" lon="-3.75166">
        <ele>60.6</ele>
        <time>2017-09-23T09:27:39.000Z</time>
      </trkpt>
      <trkpt lat="48.20801" lon="-3.75169">
        <ele>60.7</ele>
        <time>2017-09-23T09:27:40.000Z</time>
      </trkpt>
      <trkpt lat="48.20801" lon="-3.75171">
        <ele>60.8</ele>
        <time>2017-09-23T09:27:41.000Z</time>
      </trkpt>
      <trkpt lat="48.20801" lon="-3.75173">
        <ele>60.9</ele>
        <time>2017-09-23T09:27:42.000Z</time>
      </trkpt>
      <trkpt lat="48.208" lon="-3.75175">
        <ele>60.9</ele>
        <time>2017-09-23T09:27:43.000Z</time>
      </trkpt>
      <trkpt lat="48.208" lon="-3.75177">
        <ele>61</ele>
        <time>2017-09-23T09:27:44.000Z</time>
      </trkpt>
      <trkpt lat="48.208" lon="-3.75179">
        <ele>61.1</ele>
        <time>2017-09-23T09:27:45.000Z</time>
      </trkpt>
      <trkpt lat="48.208" lon="-3.75181">
        <ele>61.2</ele>
        <time>2017-09-23T09:27:46.000Z</time>
      </trkpt>
      <trkpt lat="48.208" lon="-3.75183">
        <ele>61.2</ele>
        <time>2017-09-23T09:27:47.000Z</time>
      </trkpt>
      <trkpt lat="48.208" lon="-3.75185">
        <ele>61.3</ele>
        <time>2017-09-23T09:27:48.000Z</time>
      </trkpt>
      <trkpt lat="48.208" lon="-3.75187">
        <ele>61.4</ele>
        <time>2017-09-23T09:27:49.000Z</time>
      </trkpt>
      <trkpt lat="48.208" lon="-3.75189">
        <ele>61.4</ele>
        <time>2017-09-23T09:27:50.000Z</time>
      </trkpt>
      <trkpt lat="48.208" lon="-3.7519">
        <ele>61.5</ele>
        <time>2017-09-23T09:27:51.000Z</time>
      </trkpt>
      <trkpt lat="48.208" lon="-3.75192">
        <ele>61.5</ele>
        <time>2017-09-23T09:27:52.000Z</time>
      </trkpt>
      <trkpt lat="48.20799" lon="-3.75194">
        <ele>61.6</ele>
        <time>2017-09-23T09:27:53.000Z</time>
      </trkpt>
      <trkpt lat="48.20799" lon="-3.75195">
        <ele>61.6</ele>
        <time>2017-09-23T09:27:54.000Z</time>
      </trkpt>
      <trkpt lat="48.20799" lon="-3.75197">
        <ele>61.7</ele>
        <time>2017-09-23T09:27:55.000Z</time>
      </trkpt>
      <trkpt lat="48.20799" lon="-3.75199">
        <ele>61.7</ele>
        <time>2017-09-23T09:27:56.000Z</time>
      </trkpt>
      <trkpt lat="48.20799" lon="-3.752">
        <ele>61.7</ele>
        <time>2017-09-23T09:27:57.000Z</time>
      </trkpt>
      <trkpt lat="48.20798" lon="-3.75202">
        <ele>61.8</ele>
        <time>2017-09-23T09:27:58.000Z</time>
      </trkpt>
      <trkpt lat="48.20798" lon="-3.75204">
        <ele>61.8</ele>
        <time>2017-09-23T09:27:59.000Z</time>
      </trkpt>
      <trkpt lat="48.20798" lon="-3.75205">
        <ele>61.9</ele>
        <time>2017-09-23T09:28:00.000Z</time>
      </trkpt>
      <trkpt lat="48.20798" lon="-3.75207">
        <ele>61.9</ele>
        <time>2017-09-23T09:28:01.000Z</time>
      </trkpt>
      <trkpt lat="48.20798" lon="-3.75209">
        <ele>61.9</ele>
        <time>2017-09-23T09:28:02.000Z</time>
      </trkpt>
      <trkpt lat="48.20797" lon="-3.75211">
        <ele>62</ele>
        <time>2017-09-23T09:28:03.000Z</time>
      </trkpt>
      <trkpt lat="48.20797" lon="-3.75213">
        <ele>62</ele>
        <time>2017-09-23T09:28:04.000Z</time>
      </trkpt>
      <trkpt lat="48.20797" lon="-3.75214">
        <ele>62</ele>
        <time>2017-09-23T09:28:05.000Z</time>
      </trkpt>
      <trkpt lat="48.20797" lon="-3.75216">
        <ele>62.1</ele>
        <time>2017-09-23T09:28:06.000Z</time>
      </trkpt>
      <trkpt lat="48.20796" lon="-3.75218">
        <ele>62.1</ele>
        <time>2017-09-23T09:28:07.000Z</time>
      </trkpt>
      <trkpt lat="48.20796" lon="-3.75219">
        <ele>62.1</ele>
        <time>2017-09-23T09:28:08.000Z</time>
      </trkpt>
      <trkpt lat="48.20796" lon="-3.75221">
        <ele>62.1</ele>
        <time>2017-09-23T09:28:09.000Z</time>
      </trkpt>
      <trkpt lat="48.20795" lon="-3.75223">
        <ele>62.1</ele>
        <time>2017-09-23T09:28:10.000Z</time>
      </trkpt>
      <trkpt lat="48.20795" lon="-3.75224">
        <ele>62.1</ele>
        <time>2017-09-23T09:28:11.000Z</time>
      </trkpt>
      <trkpt lat="48.20794" lon="-3.75225">
        <ele>62.1</ele>
        <time>2017-09-23T09:28:12.000Z</time>
      </trkpt>
      <trkpt lat="48.20794" lon="-3.75227">
        <ele>62.1</ele>
        <time>2017-09-23T09:28:13.000Z</time>
      </trkpt>
      <trkpt lat="48.20793" lon="-3.75228">
        <ele>62</ele>
        <time>2017-09-23T09:28:14.000Z</time>
      </trkpt>
      <trkpt lat="48.20792" lon="-3.75229">
        <ele>62</ele>
        <time>2017-09-23T09:28:15.000Z</time>
      </trkpt>
      <trkpt lat="48.20792" lon="-3.7523">
        <ele>61.9</ele>
        <time>2017-09-23T09:28:16.000Z</time>
      </trkpt>
      <trkpt lat="48.20791" lon="-3.75231">
        <ele>61.8</ele>
        <time>2017-09-23T09:28:17.000Z</time>
      </trkpt>
      <trkpt lat="48.2079" lon="-3.75232">
        <ele>61.7</ele>
        <time>2017-09-23T09:28:18.000Z</time>
      </trkpt>
      <trkpt lat="48.20789" lon="-3.75233">
        <ele>61.6</ele>
        <time>2017-09-23T09:28:19.000Z</time>
      </trkpt>
      <trkpt lat="48.20788" lon="-3.75234">
        <ele>61.5</ele>
        <time>2017-09-23T09:28:20.000Z</time>
      </trkpt>
      <trkpt lat="48.20787" lon="-3.75235">
        <ele>61.4</ele>
        <time>2017-09-23T09:28:21.000Z</time>
      </trkpt>
      <trkpt lat="48.20786" lon="-3.75235">
        <ele>61.3</ele>
        <time>2017-09-23T09:28:22.000Z</time>
      </trkpt>
      <trkpt lat="48.20785" lon="-3.75236">
        <ele>61.1</ele>
        <time>2017-09-23T09:28:23.000Z</time>
      </trkpt>
      <trkpt lat="48.20784" lon="-3.75237">
        <ele>61</ele>
        <time>2017-09-23T09:28:24.000Z</time>
      </trkpt>
      <trkpt lat="48.20783" lon="-3.75237">
        <ele>60.8</ele>
        <time>2017-09-23T09:28:25.000Z</time>
      </trkpt>
      <trkpt lat="48.20782" lon="-3.75238">
        <ele>60.7</ele>
        <time>2017-09-23T09:28:26.000Z</time>
      </trkpt>
      <trkpt lat="48.2078" lon="-3.75238">
        <ele>60.5</ele>
        <time>2017-09-23T09:28:27.000Z</time>
      </trkpt>
      <trkpt lat="48.20779" lon="-3.75239">
        <ele>60.4</ele>
        <time>2017-09-23T09:28:28.000Z</time>
      </trkpt>
      <trkpt lat="48.20778" lon="-3.7524">
        <ele>60.2</ele>
        <time>2017-09-23T09:28:29.000Z</time>
      </trkpt>
      <trkpt lat="48.20777" lon="-3.7524">
        <ele>60</ele>
        <time>2017-09-23T09:28:30.000Z</time>
      </trkpt>
      <trkpt lat="48.20776" lon="-3.75241">
        <ele>59.9</ele>
        <time>2017-09-23T09:28:31.000Z</time>
      </trkpt>
      <trkpt lat="48.20774" lon="-3.75242">
        <ele>59.7</ele>
        <time>2017-09-23T09:28:32.000Z</time>
      </trkpt>
      <trkpt lat="48.20773" lon="-3.75243">
        <ele>59.5</ele>
        <time>2017-09-23T09:28:33.000Z</time>
      </trkpt>
      <trkpt lat="48.20772" lon="-3.75243">
        <ele>59.3</ele>
        <time>2017-09-23T09:28:34.000Z</time>
      </trkpt>
      <trkpt lat="48.20771" lon="-3.75244">
        <ele>59.2</ele>
        <time>2017-09-23T09:28:35.000Z</time>
      </trkpt>
      <trkpt lat="48.20769" lon="-3.75245">
        <ele>59</ele>
        <time>2017-09-23T09:28:36.000Z</time>
      </trkpt>
      <trkpt lat="48.20768" lon="-3.75246">
        <ele>58.8</ele>
        <time>2017-09-23T09:28:37.000Z</time>
      </trkpt>
      <trkpt lat="48.20767" lon="-3.75247">
        <ele>58.7</ele>
        <time>2017-09-23T09:28:38.000Z</time>
      </trkpt>
      <trkpt lat="48.20766" lon="-3.75248">
        <ele>58.5</ele>
        <time>2017-09-23T09:28:39.000Z</time>
      </trkpt>
      <trkpt lat="48.20765" lon="-3.7525">
        <ele>58.4</ele>
        <time>2017-09-23T09:28:40.000Z</time>
      </trkpt>
      <trkpt lat="48.20764" lon="-3.75251">
        <ele>58.2</ele>
        <time>2017-09-23T09:28:41.000Z</time>
      </trkpt>
      <trkpt lat="48.20763" lon="-3.75252">
        <ele>58.1</ele>
        <time>2017-09-23T09:28:42.000Z</time>
      </trkpt>
      <trkpt lat="48.20763" lon="-3.75254">
        <ele>58</ele>
        <time>2017-09-23T09:28:43.000Z</time>
      </trkpt>
      <trkpt lat="48.20762" lon="-3.75255">
        <ele>57.8</ele>
        <time>2017-09-23T09:28:44.000Z</time>
      </trkpt>
      <trkpt lat="48.20761" lon="-3.75256">
        <ele>57.7</ele>
        <time>2017-09-23T09:28:45.000Z</time>
      </trkpt>
      <trkpt lat="48.2076" lon="-3.75258">
        <ele>57.6</ele>
        <time>2017-09-23T09:28:46.000Z</time>
      </trkpt>
      <trkpt lat="48.20759" lon="-3.75259">
        <ele>57.5</ele>
        <time>2017-09-23T09:28:47.000Z</time>
      </trkpt>
      <trkpt lat="48.20759" lon="-3.75261">
        <ele>57.3</ele>
        <time>2017-09-23T09:28:48.000Z</time>
      </trkpt>
      <trkpt lat="48.20758" lon="-3.75262">
        <ele>57.2</ele>
        <time>2017-09-23T09:28:49.000Z</time>
      </trkpt>
      <trkpt lat="48.20757" lon="-3.75264">
        <ele>57</ele>
        <time>2017-09-23T09:28:50.000Z</time>
      </trkpt>
      <trkpt lat="48.20756" lon="-3.75265">
        <ele>56.9</ele>
        <time>2017-09-23T09:28:51.000Z</time>
      </trkpt>
      <trkpt lat="48.20755" lon="-3.75267">
        <ele>56.7</ele>
        <time>2017-09-23T09:28:52.000Z</time>
      </trkpt>
      <trkpt lat="48.20755" lon="-3.75268">
        <ele>56.6</ele>
        <time>2017-09-23T09:28:53.000Z</time>
      </trkpt>
      <trkpt lat="48.20754" lon="-3.7527">
        <ele>56.4</ele>
        <time>2017-09-23T09:28:54.000Z</time>
      </trkpt>
      <trkpt lat="48.20753" lon="-3.75271">
        <ele>56.3</ele>
        <time>2017-09-23T09:28:55.000Z</time>
      </trkpt>
      <trkpt lat="48.20752" lon="-3.75273">
        <ele>56.1</ele>
        <time>2017-09-23T09:28:56.000Z</time>
      </trkpt>
      <trkpt lat="48.20751" lon="-3.75274">
        <ele>55.9</ele>
        <time>2017-09-23T09:28:57.000Z</time>
      </trkpt>
      <trkpt lat="48.2075" lon="-3.75276">
        <ele>55.7</ele>
        <time>2017-09-23T09:28:58.000Z</time>
      </trkpt>
      <trkpt lat="48.20749" lon="-3.75277">
        <ele>55.7</ele>
        <time>2017-09-23T09:28:59.000Z</time>
      </trkpt>
      <trkpt lat="48.20749" lon="-3.75279">
        <ele>55.6</ele>
        <time>2017-09-23T09:29:00.000Z</time>
      </trkpt>
      <trkpt lat="48.20748" lon="-3.7528">
        <ele>55.6</ele>
        <time>2017-09-23T09:29:01.000Z</time>
      </trkpt>
      <trkpt lat="48.20747" lon="-3.75281">
        <ele>55.6</ele>
        <time>2017-09-23T09:29:02.000Z</time>
      </trkpt>
      <trkpt lat="48.20746" lon="-3.75283">
        <ele>55.6</ele>
        <time>2017-09-23T09:29:03.000Z</time>
      </trkpt>
      <trkpt lat="48.20745" lon="-3.75284">
        <ele>55.6</ele>
        <time>2017-09-23T09:29:04.000Z</time>
      </trkpt>
      <trkpt lat="48.20744" lon="-3.75286">
        <ele>55.5</ele>
        <time>2017-09-23T09:29:05.000Z</time>
      </trkpt>
      <trkpt lat="48.20743" lon="-3.75287">
        <ele>55.5</ele>
        <time>2017-09-23T09:29:06.000Z</time>
      </trkpt>
      <trkpt lat="48.20743" lon="-3.75288">
        <ele>55.5</ele>
        <time>2017-09-23T09:29:07.000Z</time>
      </trkpt>
      <trkpt lat="48.20742" lon="-3.7529">
        <ele>55.5</ele>
        <time>2017-09-23T09:29:08.000Z</time>
      </trkpt>
      <trkpt lat="48.20741" lon="-3.75291">
        <ele>55.5</ele>
        <time>2017-09-23T09:29:09.000Z</time>
      </trkpt>
      <trkpt lat="48.2074" lon="-3.75293">
        <ele>55.4</ele>
        <time>2017-09-23T09:29:10.000Z</time>
      </trkpt>
      <trkpt lat="48.20739" lon="-3.75294">
        <ele>55.4</ele>
        <time>2017-09-23T09:29:11.000Z</time>
      </trkpt>
      <trkpt lat="48.20738" lon="-3.75295">
        <ele>55.4</ele>
        <time>2017-09-23T09:29:12.000Z</time>
      </trkpt>
      <trkpt lat="48.20737" lon="-3.75297">
        <ele>55.4</ele>
        <time>2017-09-23T09:29:13.000Z</time>
      </trkpt>
      <trkpt lat="48.20736" lon="-3.75298">
        <ele>55.4</ele>
        <time>2017-09-23T09:29:14.000Z</time>
      </trkpt>
      <trkpt lat="48.20735" lon="-3.75299">
        <ele>55.3</ele>
        <time>2017-09-23T09:29:15.000Z</time>
      </trkpt>
      <trkpt lat="48.20735" lon="-3.75301">
        <ele>55.3</ele>
        <time>2017-09-23T09:29:16.000Z</time>
      </trkpt>
      <trkpt lat="48.20734" lon="-3.75302">
        <ele>55.3</ele>
        <time>2017-09-23T09:29:17.000Z</time>
      </trkpt>
      <trkpt lat="48.20733" lon="-3.75303">
        <ele>55.3</ele>
        <time>2017-09-23T09:29:18.000Z</time>
      </trkpt>
      <trkpt lat="48.20732" lon="-3.75305">
        <ele>55.3</ele>
        <time>2017-09-23T09:29:19.000Z</time>
      </trkpt>
      <trkpt lat="48.20731" lon="-3.75306">
        <ele>55.3</ele>
        <time>2017-09-23T09:29:20.000Z</time>
      </trkpt>
      <trkpt lat="48.2073" lon="-3.75307">
        <ele>55.2</ele>
        <time>2017-09-23T09:29:21.000Z</time>
      </trkpt>
      <trkpt lat="48.20729" lon="-3.75308">
        <ele>55.2</ele>
        <time>2017-09-23T09:29:22.000Z</time>
      </trkpt>
      <trkpt lat="48.20728" lon="-3.75309">
        <ele>55.2</ele>
        <time>2017-09-23T09:29:23.000Z</time>
      </trkpt>
      <trkpt lat="48.20727" lon="-3.75311">
        <ele>55.2</ele>
        <time>2017-09-23T09:29:24.000Z</time>
      </trkpt>
      <trkpt lat="48.20726" lon="-3.75312">
        <ele>55.2</ele>
        <time>2017-09-23T09:29:25.000Z</time>
      </trkpt>
      <trkpt lat="48.20725" lon="-3.75313">
        <ele>55.2</ele>
        <time>2017-09-23T09:29:26.000Z</time>
      </trkpt>
      <trkpt lat="48.20724" lon="-3.75314">
        <ele>55.2</ele>
        <time>2017-09-23T09:29:27.000Z</time>
      </trkpt>
      <trkpt lat="48.20724" lon="-3.75315">
        <ele>55.2</ele>
        <time>2017-09-23T09:29:28.000Z</time>
      </trkpt>
      <trkpt lat="48.20723" lon="-3.75316">
        <ele>55.1</ele>
        <time>2017-09-23T09:29:29.000Z</time>
      </trkpt>
      <trkpt lat="48.20722" lon="-3.75317">
        <ele>55.1</ele>
        <time>2017-09-23T09:29:30.000Z</time>
      </trkpt>
      <trkpt lat="48.20721" lon="-3.75318">
        <ele>55.1</ele>
        <time>2017-09-23T09:29:31.000Z</time>
      </trkpt>
      <trkpt lat="48.2072" lon="-3.75319">
        <ele>55.1</ele>
        <time>2017-09-23T09:29:32.000Z</time>
      </trkpt>
      <trkpt lat="48.20719" lon="-3.7532">
        <ele>55.1</ele>
        <time>2017-09-23T09:29:33.000Z</time>
      </trkpt>
      <trkpt lat="48.20718" lon="-3.75321">
        <ele>55.1</ele>
        <time>2017-09-23T09:29:34.000Z</time>
      </trkpt>
      <trkpt lat="48.20717" lon="-3.75322">
        <ele>55.1</ele>
        <time>2017-09-23T09:29:35.000Z</time>
      </trkpt>
      <trkpt lat="48.20716" lon="-3.75323">
        <ele>55.1</ele>
        <time>2017-09-23T09:29:36.000Z</time>
      </trkpt>
      <trkpt lat="48.20715" lon="-3.75324">
        <ele>55.1</ele>
        <time>2017-09-23T09:29:37.000Z</time>
      </trkpt>
      <trkpt lat="48.20714" lon="-3.75324">
        <ele>55.1</ele>
        <time>2017-09-23T09:29:38.000Z</time>
      </trkpt>
      <trkpt lat="48.20713" lon="-3.75325">
        <ele>55.1</ele>
        <time>2017-09-23T09:29:39.000Z</time>
      </trkpt>
      <trkpt lat="48.20712" lon="-3.75326">
        <ele>55</ele>
        <time>2017-09-23T09:29:40.000Z</time>
      </trkpt>
      <trkpt lat="48.2071" lon="-3.75327">
        <ele>55</ele>
        <time>2017-09-23T09:29:41.000Z</time>
      </trkpt>
      <trkpt lat="48.20709" lon="-3.75328">
        <ele>55</ele>
        <time>2017-09-23T09:29:42.000Z</time>
      </trkpt>
      <trkpt lat="48.20708" lon="-3.75329">
        <ele>55</ele>
        <time>2017-09-23T09:29:43.000Z</time>
      </trkpt>
      <trkpt lat="48.20707" lon="-3.7533">
        <ele>55</ele>
        <time>2017-09-23T09:29:44.000Z</time>
      </trkpt>
      <trkpt lat="48.20706" lon="-3.7533">
        <ele>55</ele>
        <time>2017-09-23T09:29:45.000Z</time>
      </trkpt>
      <trkpt lat="48.20705" lon="-3.75331">
        <ele>55</ele>
        <time>2017-09-23T09:29:46.000Z</time>
      </trkpt>
      <trkpt lat="48.20704" lon="-3.75332">
        <ele>55</ele>
        <time>2017-09-23T09:29:47.000Z</time>
      </trkpt>
      <trkpt lat="48.20703" lon="-3.75333">
        <ele>55</ele>
        <time>2017-09-23T09:29:48.000Z</time>
      </trkpt>
      <trkpt lat="48.20702" lon="-3.75334">
        <ele>55</ele>
        <time>2017-09-23T09:29:49.000Z</time>
      </trkpt>
      <trkpt lat="48.20701" lon="-3.75335">
        <ele>55.1</ele>
        <time>2017-09-23T09:29:50.000Z</time>
      </trkpt>
      <trkpt lat="48.207" lon="-3.75336">
        <ele>55.2</ele>
        <time>2017-09-23T09:29:51.000Z</time>
      </trkpt>
      <trkpt lat="48.20699" lon="-3.75337">
        <ele>55.2</ele>
        <time>2017-09-23T09:29:52.000Z</time>
      </trkpt>
      <trkpt lat="48.20698" lon="-3.75338">
        <ele>55.3</ele>
        <time>2017-09-23T09:29:53.000Z</time>
      </trkpt>
      <trkpt lat="48.20697" lon="-3.75339">
        <ele>55.3</ele>
        <time>2017-09-23T09:29:54.000Z</time>
      </trkpt>
      <trkpt lat="48.20696" lon="-3.7534">
        <ele>55.3</ele>
        <time>2017-09-23T09:29:55.000Z</time>
      </trkpt>
      <trkpt lat="48.20694" lon="-3.75341">
        <ele>55.4</ele>
        <time>2017-09-23T09:29:56.000Z</time>
      </trkpt>
      <trkpt lat="48.20693" lon="-3.75342">
        <ele>55.4</ele>
        <time>2017-09-23T09:29:57.000Z</time>
      </trkpt>
      <trkpt lat="48.20692" lon="-3.75343">
        <ele>55.5</ele>
        <time>2017-09-23T09:29:58.000Z</time>
      </trkpt>
      <trkpt lat="48.20691" lon="-3.75344">
        <ele>55.5</ele>
        <time>2017-09-23T09:29:59.000Z</time>
      </trkpt>
      <trkpt lat="48.2069" lon="-3.75345">
        <ele>55.5</ele>
        <time>2017-09-23T09:30:00.000Z</time>
      </trkpt>
      <trkpt lat="48.20689" lon="-3.75346">
        <ele>55.5</ele>
        <time>2017-09-23T09:30:01.000Z</time>
      </trkpt>
      <trkpt lat="48.20688" lon="-3.75347">
        <ele>55.6</ele>
        <time>2017-09-23T09:30:02.000Z</time>
      </trkpt>
      <trkpt lat="48.20687" lon="-3.75348">
        <ele>55.6</ele>
        <time>2017-09-23T09:30:03.000Z</time>
      </trkpt>
      <trkpt lat="48.20685" lon="-3.75349">
        <ele>55.6</ele>
        <time>2017-09-23T09:30:04.000Z</time>
      </trkpt>
      <trkpt lat="48.20684" lon="-3.7535">
        <ele>55.6</ele>
        <time>2017-09-23T09:30:05.000Z</time>
      </trkpt>
      <trkpt lat="48.20683" lon="-3.75351">
        <ele>55.6</ele>
        <time>2017-09-23T09:30:06.000Z</time>
      </trkpt>
      <trkpt lat="48.20682" lon="-3.75352">
        <ele>55.6</ele>
        <time>2017-09-23T09:30:07.000Z</time>
      </trkpt>
      <trkpt lat="48.20681" lon="-3.75353">
        <ele>55.6</ele>
        <time>2017-09-23T09:30:08.000Z</time>
      </trkpt>
      <trkpt lat="48.2068" lon="-3.75354">
        <ele>55.6</ele>
        <time>2017-09-23T09:30:09.000Z</time>
      </trkpt>
      <trkpt lat="48.20679" lon="-3.75355">
        <ele>55.6</ele>
        <time>2017-09-23T09:30:10.000Z</time>
      </trkpt>
      <trkpt lat="48.20677" lon="-3.75356">
        <ele>55.6</ele>
        <time>2017-09-23T09:30:11.000Z</time>
      </trkpt>
      <trkpt lat="48.20676" lon="-3.75357">
        <ele>55.6</ele>
        <time>2017-09-23T09:30:12.000Z</time>
      </trkpt>
      <trkpt lat="48.20675" lon="-3.75358">
        <ele>55.6</ele>
        <time>2017-09-23T09:30:13.000Z</time>
      </trkpt>
      <trkpt lat="48.20674" lon="-3.75359">
        <ele>55.6</ele>
        <time>2017-09-23T09:30:14.000Z</time>
      </trkpt>
      <trkpt lat="48.20673" lon="-3.7536">
        <ele>55.6</ele>
        <time>2017-09-23T09:30:15.000Z</time>
      </trkpt>
      <trkpt lat="48.20672" lon="-3.75361">
        <ele>55.5</ele>
        <time>2017-09-23T09:30:16.000Z</time>
      </trkpt>
      <trkpt lat="48.20671" lon="-3.75363">
        <ele>55.5</ele>
        <time>2017-09-23T09:30:17.000Z</time>
      </trkpt>
      <trkpt lat="48.2067" lon="-3.75364">
        <ele>55.5</ele>
        <time>2017-09-23T09:30:18.000Z</time>
      </trkpt>
      <trkpt lat="48.20669" lon="-3.75365">
        <ele>55.5</ele>
        <time>2017-09-23T09:30:19.000Z</time>
      </trkpt>
      <trkpt lat="48.20668" lon="-3.75366">
        <ele>55.4</ele>
        <time>2017-09-23T09:30:20.000Z</time>
      </trkpt>
      <trkpt lat="48.20667" lon="-3.75367">
        <ele>55.4</ele>
        <time>2017-09-23T09:30:21.000Z</time>
      </trkpt>
      <trkpt lat="48.20666" lon="-3.75369">
        <ele>55.4</ele>
        <time>2017-09-23T09:30:22.000Z</time>
      </trkpt>
      <trkpt lat="48.20665" lon="-3.7537">
        <ele>55.4</ele>
        <time>2017-09-23T09:30:23.000Z</time>
      </trkpt>
      <trkpt lat="48.20664" lon="-3.75371">
        <ele>55.4</ele>
        <time>2017-09-23T09:30:24.000Z</time>
      </trkpt>
      <trkpt lat="48.20663" lon="-3.75372">
        <ele>55.4</ele>
        <time>2017-09-23T09:30:25.000Z</time>
      </trkpt>
      <trkpt lat="48.20662" lon="-3.75374">
        <ele>55.4</ele>
        <time>2017-09-23T09:30:26.000Z</time>
      </trkpt>
      <trkpt lat="48.20662" lon="-3.75375">
        <ele>55.4</ele>
        <time>2017-09-23T09:30:27.000Z</time>
      </trkpt>
      <trkpt lat="48.20661" lon="-3.75376">
        <ele>55.4</ele>
        <time>2017-09-23T09:30:28.000Z</time>
      </trkpt>
      <trkpt lat="48.2066" lon="-3.75377">
        <ele>55.4</ele>
        <time>2017-09-23T09:30:29.000Z</time>
      </trkpt>
      <trkpt lat="48.20659" lon="-3.75378">
        <ele>55.4</ele>
        <time>2017-09-23T09:30:30.000Z</time>
      </trkpt>
      <trkpt lat="48.20658" lon="-3.75379">
        <ele>55.4</ele>
        <time>2017-09-23T09:30:31.000Z</time>
      </trkpt>
      <trkpt lat="48.20657" lon="-3.7538">
        <ele>55.4</ele>
        <time>2017-09-23T09:30:32.000Z</time>
      </trkpt>
      <trkpt lat="48.20656" lon="-3.7538">
        <ele>55.3</ele>
        <time>2017-09-23T09:30:33.000Z</time>
      </trkpt>
      <trkpt lat="48.20655" lon="-3.75381">
        <ele>55.3</ele>
        <time>2017-09-23T09:30:34.000Z</time>
      </trkpt>
      <trkpt lat="48.20654" lon="-3.75382">
        <ele>55.3</ele>
        <time>2017-09-23T09:30:35.000Z</time>
      </trkpt>
      <trkpt lat="48.20653" lon="-3.75383">
        <ele>55.3</ele>
        <time>2017-09-23T09:30:36.000Z</time>
      </trkpt>
      <trkpt lat="48.20652" lon="-3.75384">
        <ele>55.3</ele>
        <time>2017-09-23T09:30:37.000Z</time>
      </trkpt>
      <trkpt lat="48.20651" lon="-3.75386">
        <ele>55.3</ele>
        <time>2017-09-23T09:30:38.000Z</time>
      </trkpt>
      <trkpt lat="48.2065" lon="-3.75387">
        <ele>55.3</ele>
        <time>2017-09-23T09:30:39.000Z</time>
      </trkpt>
      <trkpt lat="48.20649" lon="-3.75388">
        <ele>55.2</ele>
        <time>2017-09-23T09:30:40.000Z</time>
      </trkpt>
      <trkpt lat="48.20648" lon="-3.75389">
        <ele>55.2</ele>
        <time>2017-09-23T09:30:41.000Z</time>
      </trkpt>
      <trkpt lat="48.20647" lon="-3.7539">
        <ele>55.2</ele>
        <time>2017-09-23T09:30:42.000Z</time>
      </trkpt>
      <trkpt lat="48.20646" lon="-3.75392">
        <ele>55.2</ele>
        <time>2017-09-23T09:30:43.000Z</time>
      </trkpt>
      <trkpt lat="48.20646" lon="-3.75393">
        <ele>55.2</ele>
        <time>2017-09-23T09:30:44.000Z</time>
      </trkpt>
      <trkpt lat="48.20645" lon="-3.75394">
        <ele>55.2</ele>
        <time>2017-09-23T09:30:45.000Z</time>
      </trkpt>
      <trkpt lat="48.20644" lon="-3.75396">
        <ele>55.1</ele>
        <time>2017-09-23T09:30:46.000Z</time>
      </trkpt>
      <trkpt lat="48.20643" lon="-3.75397">
        <ele>55.1</ele>
        <time>2017-09-23T09:30:47.000Z</time>
      </trkpt>
      <trkpt lat="48.20642" lon="-3.75398">
        <ele>55.1</ele>
        <time>2017-09-23T09:30:48.000Z</time>
      </trkpt>
      <trkpt lat="48.20641" lon="-3.754">
        <ele>55.1</ele>
        <time>2017-09-23T09:30:49.000Z</time>
      </trkpt>
      <trkpt lat="48.2064" lon="-3.75401">
        <ele>55</ele>
        <time>2017-09-23T09:30:50.000Z</time>
      </trkpt>
      <trkpt lat="48.20639" lon="-3.75402">
        <ele>55</ele>
        <time>2017-09-23T09:30:51.000Z</time>
      </trkpt>
      <trkpt lat="48.20639" lon="-3.75403">
        <ele>55</ele>
        <time>2017-09-23T09:30:52.000Z</time>
      </trkpt>
      <trkpt lat="48.20638" lon="-3.75404">
        <ele>55</ele>
        <time>2017-09-23T09:30:53.000Z</time>
      </trkpt>
      <trkpt lat="48.20637" lon="-3.75406">
        <ele>54.9</ele>
        <time>2017-09-23T09:30:54.000Z</time>
      </trkpt>
      <trkpt lat="48.20636" lon="-3.75407">
        <ele>54.9</ele>
        <time>2017-09-23T09:30:55.000Z</time>
      </trkpt>
      <trkpt lat="48.20635" lon="-3.75408">
        <ele>54.9</ele>
        <time>2017-09-23T09:30:56.000Z</time>
      </trkpt>
      <trkpt lat="48.20634" lon="-3.75409">
        <ele>54.8</ele>
        <time>2017-09-23T09:30:57.000Z</time>
      </trkpt>
      <trkpt lat="48.20633" lon="-3.7541">
        <ele>54.8</ele>
        <time>2017-09-23T09:30:58.000Z</time>
      </trkpt>
      <trkpt lat="48.20632" lon="-3.7541">
        <ele>54.8</ele>
        <time>2017-09-23T09:30:59.000Z</time>
      </trkpt>
      <trkpt lat="48.20631" lon="-3.75411">
        <ele>54.7</ele>
        <time>2017-09-23T09:31:00.000Z</time>
      </trkpt>
      <trkpt lat="48.2063" lon="-3.75412">
        <ele>54.7</ele>
        <time>2017-09-23T09:31:01.000Z</time>
      </trkpt>
      <trkpt lat="48.20629" lon="-3.75413">
        <ele>54.7</ele>
        <time>2017-09-23T09:31:02.000Z</time>
      </trkpt>
      <trkpt lat="48.20628" lon="-3.75414">
        <ele>54.6</ele>
        <time>2017-09-23T09:31:03.000Z</time>
      </trkpt>
      <trkpt lat="48.20627" lon="-3.75414">
        <ele>54.6</ele>
        <time>2017-09-23T09:31:04.000Z</time>
      </trkpt>
      <trkpt lat="48.20626" lon="-3.75415">
        <ele>54.5</ele>
        <time>2017-09-23T09:31:05.000Z</time>
      </trkpt>
      <trkpt lat="48.20625" lon="-3.75416">
        <ele>54.5</ele>
        <time>2017-09-23T09:31:06.000Z</time>
      </trkpt>
      <trkpt lat="48.20623" lon="-3.75416">
        <ele>54.4</ele>
        <time>2017-09-23T09:31:07.000Z</time>
      </trkpt>
      <trkpt lat="48.20622" lon="-3.75417">
        <ele>54.5</ele>
        <time>2017-09-23T09:31:08.000Z</time>
      </trkpt>
      <trkpt lat="48.20621" lon="-3.75418">
        <ele>54.5</ele>
        <time>2017-09-23T09:31:09.000Z</time>
      </trkpt>
      <trkpt lat="48.2062" lon="-3.75419">
        <ele>54.6</ele>
        <time>2017-09-23T09:31:10.000Z</time>
      </trkpt>
      <trkpt lat="48.20619" lon="-3.7542">
        <ele>54.6</ele>
        <time>2017-09-23T09:31:11.000Z</time>
      </trkpt>
      <trkpt lat="48.20618" lon="-3.7542">
        <ele>54.7</ele>
        <time>2017-09-23T09:31:12.000Z</time>
      </trkpt>
      <trkpt lat="48.20617" lon="-3.75421">
        <ele>54.8</ele>
        <time>2017-09-23T09:31:13.000Z</time>
      </trkpt>
      <trkpt lat="48.20615" lon="-3.75422">
        <ele>54.8</ele>
        <time>2017-09-23T09:31:14.000Z</time>
      </trkpt>
      <trkpt lat="48.20614" lon="-3.75423">
        <ele>54.9</ele>
        <time>2017-09-23T09:31:15.000Z</time>
      </trkpt>
      <trkpt lat="48.20613" lon="-3.75424">
        <ele>54.9</ele>
        <time>2017-09-23T09:31:16.000Z</time>
      </trkpt>
      <trkpt lat="48.20612" lon="-3.75425">
        <ele>55</ele>
        <time>2017-09-23T09:31:17.000Z</time>
      </trkpt>
      <trkpt lat="48.20611" lon="-3.75425">
        <ele>55</ele>
        <time>2017-09-23T09:31:18.000Z</time>
      </trkpt>
      <trkpt lat="48.2061" lon="-3.75426">
        <ele>55.1</ele>
        <time>2017-09-23T09:31:19.000Z</time>
      </trkpt>
      <trkpt lat="48.20609" lon="-3.75427">
        <ele>55.1</ele>
        <time>2017-09-23T09:31:20.000Z</time>
      </trkpt>
      <trkpt lat="48.20607" lon="-3.75428">
        <ele>55.2</ele>
        <time>2017-09-23T09:31:21.000Z</time>
      </trkpt>
      <trkpt lat="48.20606" lon="-3.75429">
        <ele>55.2</ele>
        <time>2017-09-23T09:31:22.000Z</time>
      </trkpt>
      <trkpt lat="48.20605" lon="-3.7543">
        <ele>55.3</ele>
        <time>2017-09-23T09:31:23.000Z</time>
      </trkpt>
      <trkpt lat="48.20604" lon="-3.75431">
        <ele>55.3</ele>
        <time>2017-09-23T09:31:24.000Z</time>
      </trkpt>
      <trkpt lat="48.20603" lon="-3.75431">
        <ele>55.3</ele>
        <time>2017-09-23T09:31:25.000Z</time>
      </trkpt>
      <trkpt lat="48.20602" lon="-3.75432">
        <ele>55.3</ele>
        <time>2017-09-23T09:31:26.000Z</time>
      </trkpt>
      <trkpt lat="48.20601" lon="-3.75433">
        <ele>55.4</ele>
        <time>2017-09-23T09:31:27.000Z</time>
      </trkpt>
      <trkpt lat="48.206" lon="-3.75434">
        <ele>55.4</ele>
        <time>2017-09-23T09:31:28.000Z</time>
      </trkpt>
      <trkpt lat="48.20599" lon="-3.75434">
        <ele>55.4</ele>
        <time>2017-09-23T09:31:29.000Z</time>
      </trkpt>
      <trkpt lat="48.20598" lon="-3.75435">
        <ele>55.4</ele>
        <time>2017-09-23T09:31:30.000Z</time>
      </trkpt>
      <trkpt lat="48.20597" lon="-3.75436">
        <ele>55.5</ele>
        <time>2017-09-23T09:31:31.000Z</time>
      </trkpt>
      <trkpt lat="48.20596" lon="-3.75437">
        <ele>55.5</ele>
        <time>2017-09-23T09:31:32.000Z</time>
      </trkpt>
      <trkpt lat="48.20596" lon="-3.75437">
        <ele>55.5</ele>
        <time>2017-09-23T09:31:33.000Z</time>
      </trkpt>
      <trkpt lat="48.20595" lon="-3.75438">
        <ele>55.5</ele>
        <time>2017-09-23T09:31:34.000Z</time>
      </trkpt>
      <trkpt lat="48.20594" lon="-3.75439">
        <ele>55.5</ele>
        <time>2017-09-23T09:31:35.000Z</time>
      </trkpt>
      <trkpt lat="48.20593" lon="-3.75439">
        <ele>55.5</ele>
        <time>2017-09-23T09:31:36.000Z</time>
      </trkpt>
      <trkpt lat="48.20592" lon="-3.7544">
        <ele>55.5</ele>
        <time>2017-09-23T09:31:37.000Z</time>
      </trkpt>
      <trkpt lat="48.20591" lon="-3.75441">
        <ele>55.5</ele>
        <time>2017-09-23T09:31:38.000Z</time>
      </trkpt>
      <trkpt lat="48.2059" lon="-3.75441">
        <ele>55.5</ele>
        <time>2017-09-23T09:31:39.000Z</time>
      </trkpt>
      <trkpt lat="48.20589" lon="-3.75442">
        <ele>55.5</ele>
        <time>2017-09-23T09:31:40.000Z</time>
      </trkpt>
      <trkpt lat="48.20588" lon="-3.75443">
        <ele>55.5</ele>
        <time>2017-09-23T09:31:41.000Z</time>
      </trkpt>
      <trkpt lat="48.20587" lon="-3.75444">
        <ele>55.5</ele>
        <time>2017-09-23T09:31:42.000Z</time>
      </trkpt>
      <trkpt lat="48.20586" lon="-3.75444">
        <ele>55.5</ele>
        <time>2017-09-23T09:31:43.000Z</time>
      </trkpt>
      <trkpt lat="48.20585" lon="-3.75445">
        <ele>55.5</ele>
        <time>2017-09-23T09:31:44.000Z</time>
      </trkpt>
      <trkpt lat="48.20583" lon="-3.75446">
        <ele>55.4</ele>
        <time>2017-09-23T09:31:45.000Z</time>
      </trkpt>
      <trkpt lat="48.20582" lon="-3.75447">
        <ele>55.5</ele>
        <time>2017-09-23T09:31:46.000Z</time>
      </trkpt>
      <trkpt lat="48.20581" lon="-3.75447">
        <ele>55.6</ele>
        <time>2017-09-23T09:31:47.000Z</time>
      </trkpt>
      <trkpt lat="48.20579" lon="-3.75448">
        <ele>55.7</ele>
        <time>2017-09-23T09:31:48.000Z</time>
      </trkpt>
      <trkpt lat="48.20578" lon="-3.75449">
        <ele>55.7</ele>
        <time>2017-09-23T09:31:49.000Z</time>
      </trkpt>
      <trkpt lat="48.20577" lon="-3.7545">
        <ele>55.8</ele>
        <time>2017-09-23T09:31:50.000Z</time>
      </trkpt>
      <trkpt lat="48.20575" lon="-3.75451">
        <ele>55.9</ele>
        <time>2017-09-23T09:31:51.000Z</time>
      </trkpt>
      <trkpt lat="48.20574" lon="-3.75452">
        <ele>55.9</ele>
        <time>2017-09-23T09:31:52.000Z</time>
      </trkpt>
      <trkpt lat="48.20573" lon="-3.75452">
        <ele>56</ele>
        <time>2017-09-23T09:31:53.000Z</time>
      </trkpt>
      <trkpt lat="48.20572" lon="-3.75453">
        <ele>56</ele>
        <time>2017-09-23T09:31:54.000Z</time>
      </trkpt>
      <trkpt lat="48.20571" lon="-3.75454">
        <ele>56.1</ele>
        <time>2017-09-23T09:31:55.000Z</time>
      </trkpt>
      <trkpt lat="48.2057" lon="-3.75454">
        <ele>56.1</ele>
        <time>2017-09-23T09:31:56.000Z</time>
      </trkpt>
      <trkpt lat="48.20569" lon="-3.75455">
        <ele>56.2</ele>
        <time>2017-09-23T09:31:57.000Z</time>
      </trkpt>
      <trkpt lat="48.20568" lon="-3.75456">
        <ele>56.2</ele>
        <time>2017-09-23T09:31:58.000Z</time>
      </trkpt>
      <trkpt lat="48.20566" lon="-3.75456">
        <ele>56.3</ele>
        <time>2017-09-23T09:31:59.000Z</time>
      </trkpt>
      <trkpt lat="48.20565" lon="-3.75457">
        <ele>56.3</ele>
        <time>2017-09-23T09:32:00.000Z</time>
      </trkpt>
      <trkpt lat="48.20564" lon="-3.75458">
        <ele>56.3</ele>
        <time>2017-09-23T09:32:01.000Z</time>
      </trkpt>
      <trkpt lat="48.20562" lon="-3.75458">
        <ele>56.4</ele>
        <time>2017-09-23T09:32:02.000Z</time>
      </trkpt>
      <trkpt lat="48.20561" lon="-3.75459">
        <ele>56.4</ele>
        <time>2017-09-23T09:32:03.000Z</time>
      </trkpt>
      <trkpt lat="48.20559" lon="-3.7546">
        <ele>56.4</ele>
        <time>2017-09-23T09:32:04.000Z</time>
      </trkpt>
      <trkpt lat="48.20558" lon="-3.75461">
        <ele>56.5</ele>
        <time>2017-09-23T09:32:05.000Z</time>
      </trkpt>
      <trkpt lat="48.20556" lon="-3.75461">
        <ele>56.5</ele>
        <time>2017-09-23T09:32:06.000Z</time>
      </trkpt>
      <trkpt lat="48.20555" lon="-3.75462">
        <ele>56.5</ele>
        <time>2017-09-23T09:32:07.000Z</time>
      </trkpt>
      <trkpt lat="48.20553" lon="-3.75463">
        <ele>56.6</ele>
        <time>2017-09-23T09:32:08.000Z</time>
      </trkpt>
      <trkpt lat="48.20552" lon="-3.75464">
        <ele>56.6</ele>
        <time>2017-09-23T09:32:09.000Z</time>
      </trkpt>
      <trkpt lat="48.20551" lon="-3.75464">
        <ele>56.6</ele>
        <time>2017-09-23T09:32:10.000Z</time>
      </trkpt>
      <trkpt lat="48.20549" lon="-3.75465">
        <ele>56.6</ele>
        <time>2017-09-23T09:32:11.000Z</time>
      </trkpt>
      <trkpt lat="48.20548" lon="-3.75466">
        <ele>56.7</ele>
        <time>2017-09-23T09:32:12.000Z</time>
      </trkpt>
      <trkpt lat="48.20547" lon="-3.75467">
        <ele>56.7</ele>
        <time>2017-09-23T09:32:13.000Z</time>
      </trkpt>
      <trkpt lat="48.20546" lon="-3.75467">
        <ele>56.7</ele>
        <time>2017-09-23T09:32:14.000Z</time>
      </trkpt>
      <trkpt lat="48.20545" lon="-3.75468">
        <ele>56.7</ele>
        <time>2017-09-23T09:32:15.000Z</time>
      </trkpt>
      <trkpt lat="48.20544" lon="-3.75469">
        <ele>56.7</ele>
        <time>2017-09-23T09:32:16.000Z</time>
      </trkpt>
      <trkpt lat="48.20543" lon="-3.75469">
        <ele>56.7</ele>
        <time>2017-09-23T09:32:17.000Z</time>
      </trkpt>
      <trkpt lat="48.20542" lon="-3.7547">
        <ele>56.8</ele>
        <time>2017-09-23T09:32:18.000Z</time>
      </trkpt>
      <trkpt lat="48.20541" lon="-3.75471">
        <ele>56.8</ele>
        <time>2017-09-23T09:32:19.000Z</time>
      </trkpt>
      <trkpt lat="48.2054" lon="-3.75471">
        <ele>56.8</ele>
        <time>2017-09-23T09:32:20.000Z</time>
      </trkpt>
      <trkpt lat="48.20539" lon="-3.75472">
        <ele>56.8</ele>
        <time>2017-09-23T09:32:21.000Z</time>
      </trkpt>
      <trkpt lat="48.20538" lon="-3.75473">
        <ele>56.8</ele>
        <time>2017-09-23T09:32:22.000Z</time>
      </trkpt>
      <trkpt lat="48.20537" lon="-3.75474">
        <ele>56.8</ele>
        <time>2017-09-23T09:32:23.000Z</time>
      </trkpt>
      <trkpt lat="48.20536" lon="-3.75474">
        <ele>56.8</ele>
        <time>2017-09-23T09:32:24.000Z</time>
      </trkpt>
      <trkpt lat="48.20535" lon="-3.75475">
        <ele>56.8</ele>
        <time>2017-09-23T09:32:25.000Z</time>
      </trkpt>
      <trkpt lat="48.20534" lon="-3.75476">
        <ele>56.8</ele>
        <time>2017-09-23T09:32:26.000Z</time>
      </trkpt>
      <trkpt lat="48.20533" lon="-3.75476">
        <ele>56.8</ele>
        <time>2017-09-23T09:32:27.000Z</time>
      </trkpt>
      <trkpt lat="48.20532" lon="-3.75477">
        <ele>56.8</ele>
        <time>2017-09-23T09:32:28.000Z</time>
      </trkpt>
      <trkpt lat="48.20531" lon="-3.75477">
        <ele>56.8</ele>
        <time>2017-09-23T09:32:29.000Z</time>
      </trkpt>
      <trkpt lat="48.2053" lon="-3.75478">
        <ele>56.8</ele>
        <time>2017-09-23T09:32:30.000Z</time>
      </trkpt>
      <trkpt lat="48.20529" lon="-3.75479">
        <ele>56.8</ele>
        <time>2017-09-23T09:32:31.000Z</time>
      </trkpt>
      <trkpt lat="48.20527" lon="-3.75479">
        <ele>56.7</ele>
        <time>2017-09-23T09:32:32.000Z</time>
      </trkpt>
      <trkpt lat="48.20526" lon="-3.7548">
        <ele>56.7</ele>
        <time>2017-09-23T09:32:33.000Z</time>
      </trkpt>
      <trkpt lat="48.20525" lon="-3.75481">
        <ele>56.7</ele>
        <time>2017-09-23T09:32:34.000Z</time>
      </trkpt>
      <trkpt lat="48.20524" lon="-3.75481">
        <ele>56.7</ele>
        <time>2017-09-23T09:32:35.000Z</time>
      </trkpt>
      <trkpt lat="48.20523" lon="-3.75482">
        <ele>56.7</ele>
        <time>2017-09-23T09:32:36.000Z</time>
      </trkpt>
      <trkpt lat="48.20521" lon="-3.75483">
        <ele>56.7</ele>
        <time>2017-09-23T09:32:37.000Z</time>
      </trkpt>
      <trkpt lat="48.2052" lon="-3.75484">
        <ele>56.6</ele>
        <time>2017-09-23T09:32:38.000Z</time>
      </trkpt>
      <trkpt lat="48.20519" lon="-3.75484">
        <ele>56.6</ele>
        <time>2017-09-23T09:32:39.000Z</time>
      </trkpt>
      <trkpt lat="48.20518" lon="-3.75485">
        <ele>56.6</ele>
        <time>2017-09-23T09:32:40.000Z</time>
      </trkpt>
      <trkpt lat="48.20516" lon="-3.75486">
        <ele>56.5</ele>
        <time>2017-09-23T09:32:41.000Z</time>
      </trkpt>
      <trkpt lat="48.20515" lon="-3.75486">
        <ele>56.5</ele>
        <time>2017-09-23T09:32:42.000Z</time>
      </trkpt>
      <trkpt lat="48.20514" lon="-3.75487">
        <ele>56.5</ele>
        <time>2017-09-23T09:32:43.000Z</time>
      </trkpt>
      <trkpt lat="48.20513" lon="-3.75488">
        <ele>56.4</ele>
        <time>2017-09-23T09:32:44.000Z</time>
      </trkpt>
      <trkpt lat="48.20511" lon="-3.75489">
        <ele>56.4</ele>
        <time>2017-09-23T09:32:45.000Z</time>
      </trkpt>
      <trkpt lat="48.2051" lon="-3.75489">
        <ele>56.4</ele>
        <time>2017-09-23T09:32:46.000Z</time>
      </trkpt>
      <trkpt lat="48.20509" lon="-3.7549">
        <ele>56.3</ele>
        <time>2017-09-23T09:32:47.000Z</time>
      </trkpt>
      <trkpt lat="48.20508" lon="-3.75491">
        <ele>56.3</ele>
        <time>2017-09-23T09:32:48.000Z</time>
      </trkpt>
      <trkpt lat="48.20507" lon="-3.75492">
        <ele>56.3</ele>
        <time>2017-09-23T09:32:49.000Z</time>
      </trkpt>
      <trkpt lat="48.20506" lon="-3.75493">
        <ele>56.2</ele>
        <time>2017-09-23T09:32:50.000Z</time>
      </trkpt>
      <trkpt lat="48.20505" lon="-3.75493">
        <ele>56.2</ele>
        <time>2017-09-23T09:32:51.000Z</time>
      </trkpt>
      <trkpt lat="48.20504" lon="-3.75494">
        <ele>56.2</ele>
        <time>2017-09-23T09:32:52.000Z</time>
      </trkpt>
      <trkpt lat="48.20503" lon="-3.75495">
        <ele>56.1</ele>
        <time>2017-09-23T09:32:53.000Z</time>
      </trkpt>
      <trkpt lat="48.20502" lon="-3.75496">
        <ele>56.1</ele>
        <time>2017-09-23T09:32:54.000Z</time>
      </trkpt>
      <trkpt lat="48.205" lon="-3.75497">
        <ele>56</ele>
        <time>2017-09-23T09:32:55.000Z</time>
      </trkpt>
      <trkpt lat="48.20499" lon="-3.75498">
        <ele>56</ele>
        <time>2017-09-23T09:32:56.000Z</time>
      </trkpt>
      <trkpt lat="48.20498" lon="-3.75499">
        <ele>56</ele>
        <time>2017-09-23T09:32:57.000Z</time>
      </trkpt>
      <trkpt lat="48.20497" lon="-3.755">
        <ele>56</ele>
        <time>2017-09-23T09:32:58.000Z</time>
      </trkpt>
      <trkpt lat="48.20496" lon="-3.75501">
        <ele>56</ele>
        <time>2017-09-23T09:32:59.000Z</time>
      </trkpt>
      <trkpt lat="48.20495" lon="-3.75502">
        <ele>56.1</ele>
        <time>2017-09-23T09:33:00.000Z</time>
      </trkpt>
      <trkpt lat="48.20494" lon="-3.75502">
        <ele>56.1</ele>
        <time>2017-09-23T09:33:01.000Z</time>
      </trkpt>
      <trkpt lat="48.20493" lon="-3.75503">
        <ele>56.2</ele>
        <time>2017-09-23T09:33:02.000Z</time>
      </trkpt>
      <trkpt lat="48.20492" lon="-3.75504">
        <ele>56.2</ele>
        <time>2017-09-23T09:33:03.000Z</time>
      </trkpt>
      <trkpt lat="48.20491" lon="-3.75505">
        <ele>56.3</ele>
        <time>2017-09-23T09:33:04.000Z</time>
      </trkpt>
      <trkpt lat="48.2049" lon="-3.75506">
        <ele>56.3</ele>
        <time>2017-09-23T09:33:05.000Z</time>
      </trkpt>
      <trkpt lat="48.20489" lon="-3.75507">
        <ele>56.4</ele>
        <time>2017-09-23T09:33:06.000Z</time>
      </trkpt>
      <trkpt lat="48.20488" lon="-3.75508">
        <ele>56.4</ele>
        <time>2017-09-23T09:33:07.000Z</time>
      </trkpt>
      <trkpt lat="48.20487" lon="-3.75509">
        <ele>56.5</ele>
        <time>2017-09-23T09:33:08.000Z</time>
      </trkpt>
      <trkpt lat="48.20486" lon="-3.7551">
        <ele>56.5</ele>
        <time>2017-09-23T09:33:09.000Z</time>
      </trkpt>
      <trkpt lat="48.20485" lon="-3.75511">
        <ele>56.6</ele>
        <time>2017-09-23T09:33:10.000Z</time>
      </trkpt>
      <trkpt lat="48.20484" lon="-3.75512">
        <ele>56.6</ele>
        <time>2017-09-23T09:33:11.000Z</time>
      </trkpt>
      <trkpt lat="48.20482" lon="-3.75513">
        <ele>56.6</ele>
        <time>2017-09-23T09:33:12.000Z</time>
      </trkpt>
      <trkpt lat="48.20481" lon="-3.75513">
        <ele>56.7</ele>
        <time>2017-09-23T09:33:13.000Z</time>
      </trkpt>
      <trkpt lat="48.2048" lon="-3.75514">
        <ele>56.7</ele>
        <time>2017-09-23T09:33:14.000Z</time>
      </trkpt>
      <trkpt lat="48.20479" lon="-3.75515">
        <ele>56.7</ele>
        <time>2017-09-23T09:33:15.000Z</time>
      </trkpt>
      <trkpt lat="48.20478" lon="-3.75516">
        <ele>56.8</ele>
        <time>2017-09-23T09:33:16.000Z</time>
      </trkpt>
      <trkpt lat="48.20477" lon="-3.75517">
        <ele>56.8</ele>
        <time>2017-09-23T09:33:17.000Z</time>
      </trkpt>
      <trkpt lat="48.20475" lon="-3.75518">
        <ele>56.8</ele>
        <time>2017-09-23T09:33:18.000Z</time>
      </trkpt>
      <trkpt lat="48.20474" lon="-3.75519">
        <ele>56.8</ele>
        <time>2017-09-23T09:33:19.000Z</time>
      </trkpt>
      <trkpt lat="48.20473" lon="-3.7552">
        <ele>56.9</ele>
        <time>2017-09-23T09:33:20.000Z</time>
      </trkpt>
      <trkpt lat="48.20472" lon="-3.75521">
        <ele>56.9</ele>
        <time>2017-09-23T09:33:21.000Z</time>
      </trkpt>
      <trkpt lat="48.20471" lon="-3.75522">
        <ele>56.9</ele>
        <time>2017-09-23T09:33:22.000Z</time>
      </trkpt>
      <trkpt lat="48.20469" lon="-3.75522">
        <ele>56.9</ele>
        <time>2017-09-23T09:33:23.000Z</time>
      </trkpt>
      <trkpt lat="48.20468" lon="-3.75523">
        <ele>56.9</ele>
        <time>2017-09-23T09:33:24.000Z</time>
      </trkpt>
      <trkpt lat="48.20467" lon="-3.75524">
        <ele>56.9</ele>
        <time>2017-09-23T09:33:25.000Z</time>
      </trkpt>
      <trkpt lat="48.20466" lon="-3.75525">
        <ele>57</ele>
        <time>2017-09-23T09:33:26.000Z</time>
      </trkpt>
      <trkpt lat="48.20465" lon="-3.75526">
        <ele>57</ele>
        <time>2017-09-23T09:33:27.000Z</time>
      </trkpt>
      <trkpt lat="48.20464" lon="-3.75527">
        <ele>57</ele>
        <time>2017-09-23T09:33:28.000Z</time>
      </trkpt>
      <trkpt lat="48.20462" lon="-3.75528">
        <ele>57</ele>
        <time>2017-09-23T09:33:29.000Z</time>
      </trkpt>
      <trkpt lat="48.20461" lon="-3.75529">
        <ele>57</ele>
        <time>2017-09-23T09:33:30.000Z</time>
      </trkpt>
      <trkpt lat="48.2046" lon="-3.75529">
        <ele>57</ele>
        <time>2017-09-23T09:33:31.000Z</time>
      </trkpt>
      <trkpt lat="48.20459" lon="-3.7553">
        <ele>57</ele>
        <time>2017-09-23T09:33:32.000Z</time>
      </trkpt>
      <trkpt lat="48.20458" lon="-3.75531">
        <ele>57</ele>
        <time>2017-09-23T09:33:33.000Z</time>
      </trkpt>
      <trkpt lat="48.20457" lon="-3.75532">
        <ele>57</ele>
        <time>2017-09-23T09:33:34.000Z</time>
      </trkpt>
      <trkpt lat="48.20456" lon="-3.75533">
        <ele>57</ele>
        <time>2017-09-23T09:33:35.000Z</time>
      </trkpt>
      <trkpt lat="48.20454" lon="-3.75534">
        <ele>57</ele>
        <time>2017-09-23T09:33:36.000Z</time>
      </trkpt>
      <trkpt lat="48.20453" lon="-3.75535">
        <ele>57</ele>
        <time>2017-09-23T09:33:37.000Z</time>
      </trkpt>
      <trkpt lat="48.20452" lon="-3.75536">
        <ele>56.9</ele>
        <time>2017-09-23T09:33:38.000Z</time>
      </trkpt>
      <trkpt lat="48.20451" lon="-3.75537">
        <ele>56.9</ele>
        <time>2017-09-23T09:33:39.000Z</time>
      </trkpt>
      <trkpt lat="48.2045" lon="-3.75537">
        <ele>56.9</ele>
        <time>2017-09-23T09:33:40.000Z</time>
      </trkpt>
      <trkpt lat="48.20449" lon="-3.75538">
        <ele>56.9</ele>
        <time>2017-09-23T09:33:41.000Z</time>
      </trkpt>
      <trkpt lat="48.20448" lon="-3.75539">
        <ele>56.9</ele>
        <time>2017-09-23T09:33:42.000Z</time>
      </trkpt>
      <trkpt lat="48.20447" lon="-3.7554">
        <ele>56.9</ele>
        <time>2017-09-23T09:33:43.000Z</time>
      </trkpt>
      <trkpt lat="48.20446" lon="-3.75541">
        <ele>56.9</ele>
        <time>2017-09-23T09:33:44.000Z</time>
      </trkpt>
      <trkpt lat="48.20444" lon="-3.75542">
        <ele>56.8</ele>
        <time>2017-09-23T09:33:45.000Z</time>
      </trkpt>
      <trkpt lat="48.20443" lon="-3.75543">
        <ele>56.8</ele>
        <time>2017-09-23T09:33:46.000Z</time>
      </trkpt>
      <trkpt lat="48.20442" lon="-3.75544">
        <ele>56.8</ele>
        <time>2017-09-23T09:33:47.000Z</time>
      </trkpt>
      <trkpt lat="48.20441" lon="-3.75544">
        <ele>56.8</ele>
        <time>2017-09-23T09:33:48.000Z</time>
      </trkpt>
      <trkpt lat="48.2044" lon="-3.75545">
        <ele>56.7</ele>
        <time>2017-09-23T09:33:49.000Z</time>
      </trkpt>
      <trkpt lat="48.20439" lon="-3.75546">
        <ele>56.7</ele>
        <time>2017-09-23T09:33:50.000Z</time>
      </trkpt>
      <trkpt lat="48.20438" lon="-3.75547">
        <ele>56.7</ele>
        <time>2017-09-23T09:33:51.000Z</time>
      </trkpt>
      <trkpt lat="48.20437" lon="-3.75548">
        <ele>56.6</ele>
        <time>2017-09-23T09:33:52.000Z</time>
      </trkpt>
      <trkpt lat="48.20435" lon="-3.75549">
        <ele>56.6</ele>
        <time>2017-09-23T09:33:53.000Z</time>
      </trkpt>
      <trkpt lat="48.20434" lon="-3.7555">
        <ele>56.6</ele>
        <time>2017-09-23T09:33:54.000Z</time>
      </trkpt>
      <trkpt lat="48.20433" lon="-3.75551">
        <ele>56.5</ele>
        <time>2017-09-23T09:33:55.000Z</time>
      </trkpt>
      <trkpt lat="48.20432" lon="-3.75552">
        <ele>56.5</ele>
        <time>2017-09-23T09:33:56.000Z</time>
      </trkpt>
      <trkpt lat="48.20431" lon="-3.75552">
        <ele>56.4</ele>
        <time>2017-09-23T09:33:57.000Z</time>
      </trkpt>
      <trkpt lat="48.2043" lon="-3.75553">
        <ele>56.4</ele>
        <time>2017-09-23T09:33:58.000Z</time>
      </trkpt>
      <trkpt lat="48.20429" lon="-3.75554">
        <ele>56.3</ele>
        <time>2017-09-23T09:33:59.000Z</time>
      </trkpt>
      <trkpt lat="48.20427" lon="-3.75555">
        <ele>56.3</ele>
        <time>2017-09-23T09:34:00.000Z</time>
      </trkpt>
      <trkpt lat="48.20426" lon="-3.75556">
        <ele>56.2</ele>
        <time>2017-09-23T09:34:01.000Z</time>
      </trkpt>
      <trkpt lat="48.20425" lon="-3.75557">
        <ele>56.2</ele>
        <time>2017-09-23T09:34:02.000Z</time>
      </trkpt>
      <trkpt lat="48.20424" lon="-3.75558">
        <ele>56.1</ele>
        <time>2017-09-23T09:34:03.000Z</time>
      </trkpt>
      <trkpt lat="48.20423" lon="-3.75559">
        <ele>56.1</ele>
        <time>2017-09-23T09:34:04.000Z</time>
      </trkpt>
      <trkpt lat="48.20422" lon="-3.7556">
        <ele>56</ele>
        <time>2017-09-23T09:34:05.000Z</time>
      </trkpt>
      <trkpt lat="48.2042" lon="-3.7556">
        <ele>56</ele>
        <time>2017-09-23T09:34:06.000Z</time>
      </trkpt>
      <trkpt lat="48.20419" lon="-3.75561">
        <ele>55.9</ele>
        <time>2017-09-23T09:34:07.000Z</time>
      </trkpt>
      <trkpt lat="48.20418" lon="-3.75562">
        <ele>55.8</ele>
        <time>2017-09-23T09:34:08.000Z</time>
      </trkpt>
      <trkpt lat="48.20417" lon="-3.75563">
        <ele>55.8</ele>
        <time>2017-09-23T09:34:09.000Z</time>
      </trkpt>
      <trkpt lat="48.20416" lon="-3.75564">
        <ele>55.8</ele>
        <time>2017-09-23T09:34:10.000Z</time>
      </trkpt>
      <trkpt lat="48.20414" lon="-3.75565">
        <ele>55.8</ele>
        <time>2017-09-23T09:34:11.000Z</time>
      </trkpt>
      <trkpt lat="48.20413" lon="-3.75566">
        <ele>55.9</ele>
        <time>2017-09-23T09:34:12.000Z</time>
      </trkpt>
      <trkpt lat="48.20412" lon="-3.75567">
        <ele>55.9</ele>
        <time>2017-09-23T09:34:13.000Z</time>
      </trkpt>
      <trkpt lat="48.20411" lon="-3.75568">
        <ele>55.9</ele>
        <time>2017-09-23T09:34:14.000Z</time>
      </trkpt>
      <trkpt lat="48.2041" lon="-3.75568">
        <ele>56</ele>
        <time>2017-09-23T09:34:15.000Z</time>
      </trkpt>
      <trkpt lat="48.20408" lon="-3.75569">
        <ele>56</ele>
        <time>2017-09-23T09:34:16.000Z</time>
      </trkpt>
      <trkpt lat="48.20407" lon="-3.7557">
        <ele>56</ele>
        <time>2017-09-23T09:34:17.000Z</time>
      </trkpt>
      <trkpt lat="48.20406" lon="-3.75571">
        <ele>56.1</ele>
        <time>2017-09-23T09:34:18.000Z</time>
      </trkpt>
      <trkpt lat="48.20405" lon="-3.75572">
        <ele>56.1</ele>
        <time>2017-09-23T09:34:19.000Z</time>
      </trkpt>
      <trkpt lat="48.20403" lon="-3.75573">
        <ele>56.1</ele>
        <time>2017-09-23T09:34:20.000Z</time>
      </trkpt>
      <trkpt lat="48.20402" lon="-3.75574">
        <ele>56.1</ele>
        <time>2017-09-23T09:34:21.000Z</time>
      </trkpt>
      <trkpt lat="48.20401" lon="-3.75575">
        <ele>56.2</ele>
        <time>2017-09-23T09:34:22.000Z</time>
      </trkpt>
      <trkpt lat="48.204" lon="-3.75576">
        <ele>56.2</ele>
        <time>2017-09-23T09:34:23.000Z</time>
      </trkpt>
      <trkpt lat="48.20399" lon="-3.75577">
        <ele>56.2</ele>
        <time>2017-09-23T09:34:24.000Z</time>
      </trkpt>
      <trkpt lat="48.20397" lon="-3.75578">
        <ele>56.2</ele>
        <time>2017-09-23T09:34:25.000Z</time>
      </trkpt>
      <trkpt lat="48.20396" lon="-3.75578">
        <ele>56.2</ele>
        <time>2017-09-23T09:34:26.000Z</time>
      </trkpt>
      <trkpt lat="48.20395" lon="-3.75579">
        <ele>56.3</ele>
        <time>2017-09-23T09:34:27.000Z</time>
      </trkpt>
      <trkpt lat="48.20394" lon="-3.7558">
        <ele>56.3</ele>
        <time>2017-09-23T09:34:28.000Z</time>
      </trkpt>
      <trkpt lat="48.20393" lon="-3.75581">
        <ele>56.3</ele>
        <time>2017-09-23T09:34:29.000Z</time>
      </trkpt>
      <trkpt lat="48.20392" lon="-3.75582">
        <ele>56.3</ele>
        <time>2017-09-23T09:34:30.000Z</time>
      </trkpt>
      <trkpt lat="48.2039" lon="-3.75583">
        <ele>56.3</ele>
        <time>2017-09-23T09:34:31.000Z</time>
      </trkpt>
      <trkpt lat="48.20389" lon="-3.75584">
        <ele>56.4</ele>
        <time>2017-09-23T09:34:32.000Z</time>
      </trkpt>
      <trkpt lat="48.20388" lon="-3.75585">
        <ele>56.4</ele>
        <time>2017-09-23T09:34:33.000Z</time>
      </trkpt>
      <trkpt lat="48.20387" lon="-3.75586">
        <ele>56.5</ele>
        <time>2017-09-23T09:34:34.000Z</time>
      </trkpt>
      <trkpt lat="48.20386" lon="-3.75587">
        <ele>56.5</ele>
        <time>2017-09-23T09:34:35.000Z</time>
      </trkpt>
      <trkpt lat="48.20385" lon="-3.75588">
        <ele>56.6</ele>
        <time>2017-09-23T09:34:36.000Z</time>
      </trkpt>
      <trkpt lat="48.20384" lon="-3.75589">
        <ele>56.6</ele>
        <time>2017-09-23T09:34:37.000Z</time>
      </trkpt>
      <trkpt lat="48.20383" lon="-3.75591">
        <ele>56.6</ele>
        <time>2017-09-23T09:34:38.000Z</time>
      </trkpt>
      <trkpt lat="48.20382" lon="-3.75592">
        <ele>56.7</ele>
        <time>2017-09-23T09:34:39.000Z</time>
      </trkpt>
      <trkpt lat="48.20381" lon="-3.75593">
        <ele>56.7</ele>
        <time>2017-09-23T09:34:40.000Z</time>
      </trkpt>
      <trkpt lat="48.2038" lon="-3.75594">
        <ele>56.8</ele>
        <time>2017-09-23T09:34:41.000Z</time>
      </trkpt>
      <trkpt lat="48.20379" lon="-3.75595">
        <ele>56.8</ele>
        <time>2017-09-23T09:34:42.000Z</time>
      </trkpt>
      <trkpt lat="48.20378" lon="-3.75596">
        <ele>56.8</ele>
        <time>2017-09-23T09:34:43.000Z</time>
      </trkpt>
      <trkpt lat="48.20377" lon="-3.75597">
        <ele>56.8</ele>
        <time>2017-09-23T09:34:44.000Z</time>
      </trkpt>
      <trkpt lat="48.20376" lon="-3.75598">
        <ele>56.9</ele>
        <time>2017-09-23T09:34:45.000Z</time>
      </trkpt>
      <trkpt lat="48.20375" lon="-3.75599">
        <ele>56.9</ele>
        <time>2017-09-23T09:34:46.000Z</time>
      </trkpt>
      <trkpt lat="48.20374" lon="-3.756">
        <ele>56.9</ele>
        <time>2017-09-23T09:34:47.000Z</time>
      </trkpt>
      <trkpt lat="48.20372" lon="-3.75601">
        <ele>56.9</ele>
        <time>2017-09-23T09:34:48.000Z</time>
      </trkpt>
      <trkpt lat="48.20371" lon="-3.75602">
        <ele>56.9</ele>
        <time>2017-09-23T09:34:49.000Z</time>
      </trkpt>
      <trkpt lat="48.2037" lon="-3.75603">
        <ele>56.9</ele>
        <time>2017-09-23T09:34:50.000Z</time>
      </trkpt>
      <trkpt lat="48.20369" lon="-3.75604">
        <ele>56.9</ele>
        <time>2017-09-23T09:34:51.000Z</time>
      </trkpt>
      <trkpt lat="48.20368" lon="-3.75605">
        <ele>56.9</ele>
        <time>2017-09-23T09:34:52.000Z</time>
      </trkpt>
      <trkpt lat="48.20367" lon="-3.75606">
        <ele>56.9</ele>
        <time>2017-09-23T09:34:53.000Z</time>
      </trkpt>
      <trkpt lat="48.20366" lon="-3.75607">
        <ele>56.9</ele>
        <time>2017-09-23T09:34:54.000Z</time>
      </trkpt>
      <trkpt lat="48.20365" lon="-3.75608">
        <ele>56.9</ele>
        <time>2017-09-23T09:34:55.000Z</time>
      </trkpt>
      <trkpt lat="48.20364" lon="-3.75609">
        <ele>56.9</ele>
        <time>2017-09-23T09:34:56.000Z</time>
      </trkpt>
      <trkpt lat="48.20363" lon="-3.7561">
        <ele>56.9</ele>
        <time>2017-09-23T09:34:57.000Z</time>
      </trkpt>
      <trkpt lat="48.20362" lon="-3.75611">
        <ele>56.9</ele>
        <time>2017-09-23T09:34:58.000Z</time>
      </trkpt>
      <trkpt lat="48.20361" lon="-3.75612">
        <ele>56.9</ele>
        <time>2017-09-23T09:34:59.000Z</time>
      </trkpt>
      <trkpt lat="48.2036" lon="-3.75613">
        <ele>56.9</ele>
        <time>2017-09-23T09:35:00.000Z</time>
      </trkpt>
      <trkpt lat="48.20359" lon="-3.75614">
        <ele>56.9</ele>
        <time>2017-09-23T09:35:01.000Z</time>
      </trkpt>
      <trkpt lat="48.20358" lon="-3.75615">
        <ele>56.9</ele>
        <time>2017-09-23T09:35:02.000Z</time>
      </trkpt>
      <trkpt lat="48.20358" lon="-3.75616">
        <ele>56.8</ele>
        <time>2017-09-23T09:35:03.000Z</time>
      </trkpt>
      <trkpt lat="48.20357" lon="-3.75617">
        <ele>56.8</ele>
        <time>2017-09-23T09:35:04.000Z</time>
      </trkpt>
      <trkpt lat="48.20356" lon="-3.75618">
        <ele>56.8</ele>
        <time>2017-09-23T09:35:05.000Z</time>
      </trkpt>
      <trkpt lat="48.20355" lon="-3.75619">
        <ele>56.8</ele>
        <time>2017-09-23T09:35:06.000Z</time>
      </trkpt>
      <trkpt lat="48.20354" lon="-3.7562">
        <ele>56.7</ele>
        <time>2017-09-23T09:35:07.000Z</time>
      </trkpt>
      <trkpt lat="48.20353" lon="-3.75621">
        <ele>56.7</ele>
        <time>2017-09-23T09:35:08.000Z</time>
      </trkpt>
      <trkpt lat="48.20352" lon="-3.75622">
        <ele>56.7</ele>
        <time>2017-09-23T09:35:09.000Z</time>
      </trkpt>
      <trkpt lat="48.20351" lon="-3.75623">
        <ele>56.6</ele>
        <time>2017-09-23T09:35:10.000Z</time>
      </trkpt>
      <trkpt lat="48.2035" lon="-3.75624">
        <ele>56.6</ele>
        <time>2017-09-23T09:35:11.000Z</time>
      </trkpt>
      <trkpt lat="48.20349" lon="-3.75624">
        <ele>56.5</ele>
        <time>2017-09-23T09:35:12.000Z</time>
      </trkpt>
      <trkpt lat="48.20348" lon="-3.75625">
        <ele>56.5</ele>
        <time>2017-09-23T09:35:13.000Z</time>
      </trkpt>
      <trkpt lat="48.20346" lon="-3.75626">
        <ele>56.5</ele>
        <time>2017-09-23T09:35:14.000Z</time>
      </trkpt>
      <trkpt lat="48.20345" lon="-3.75627">
        <ele>56.4</ele>
        <time>2017-09-23T09:35:15.000Z</time>
      </trkpt>
      <trkpt lat="48.20344" lon="-3.75628">
        <ele>56.4</ele>
        <time>2017-09-23T09:35:16.000Z</time>
      </trkpt>
      <trkpt lat="48.20343" lon="-3.75628">
        <ele>56.3</ele>
        <time>2017-09-23T09:35:17.000Z</time>
      </trkpt>
      <trkpt lat="48.20342" lon="-3.75629">
        <ele>56.3</ele>
        <time>2017-09-23T09:35:18.000Z</time>
      </trkpt>
      <trkpt lat="48.20341" lon="-3.7563">
        <ele>56.2</ele>
        <time>2017-09-23T09:35:19.000Z</time>
      </trkpt>
      <trkpt lat="48.2034" lon="-3.75631">
        <ele>56.1</ele>
        <time>2017-09-23T09:35:20.000Z</time>
      </trkpt>
      <trkpt lat="48.20339" lon="-3.75631">
        <ele>56.1</ele>
        <time>2017-09-23T09:35:21.000Z</time>
      </trkpt>
      <trkpt lat="48.20338" lon="-3.75632">
        <ele>56</ele>
        <time>2017-09-23T09:35:22.000Z</time>
      </trkpt>
      <trkpt lat="48.20337" lon="-3.75633">
        <ele>56</ele>
        <time>2017-09-23T09:35:23.000Z</time>
      </trkpt>
      <trkpt lat="48.20335" lon="-3.75634">
        <ele>55.9</ele>
        <time>2017-09-23T09:35:24.000Z</time>
      </trkpt>
      <trkpt lat="48.20334" lon="-3.75635">
        <ele>55.8</ele>
        <time>2017-09-23T09:35:25.000Z</time>
      </trkpt>
      <trkpt lat="48.20333" lon="-3.75636">
        <ele>55.7</ele>
        <time>2017-09-23T09:35:26.000Z</time>
      </trkpt>
      <trkpt lat="48.20332" lon="-3.75636">
        <ele>55.7</ele>
        <time>2017-09-23T09:35:27.000Z</time>
      </trkpt>
      <trkpt lat="48.20331" lon="-3.75637">
        <ele>55.7</ele>
        <time>2017-09-23T09:35:28.000Z</time>
      </trkpt>
      <trkpt lat="48.2033" lon="-3.75638">
        <ele>55.7</ele>
        <time>2017-09-23T09:35:29.000Z</time>
      </trkpt>
      <trkpt lat="48.20328" lon="-3.75639">
        <ele>55.6</ele>
        <time>2017-09-23T09:35:30.000Z</time>
      </trkpt>
      <trkpt lat="48.20327" lon="-3.7564">
        <ele>55.6</ele>
        <time>2017-09-23T09:35:31.000Z</time>
      </trkpt>
      <trkpt lat="48.20326" lon="-3.75641">
        <ele>55.6</ele>
        <time>2017-09-23T09:35:32.000Z</time>
      </trkpt>
      <trkpt lat="48.20325" lon="-3.75641">
        <ele>55.5</ele>
        <time>2017-09-23T09:35:33.000Z</time>
      </trkpt>
      <trkpt lat="48.20324" lon="-3.75642">
        <ele>55.5</ele>
        <time>2017-09-23T09:35:34.000Z</time>
      </trkpt>
      <trkpt lat="48.20323" lon="-3.75643">
        <ele>55.5</ele>
        <time>2017-09-23T09:35:35.000Z</time>
      </trkpt>
      <trkpt lat="48.20321" lon="-3.75644">
        <ele>55.4</ele>
        <time>2017-09-23T09:35:36.000Z</time>
      </trkpt>
      <trkpt lat="48.2032" lon="-3.75645">
        <ele>55.4</ele>
        <time>2017-09-23T09:35:37.000Z</time>
      </trkpt>
      <trkpt lat="48.20319" lon="-3.75646">
        <ele>55.4</ele>
        <time>2017-09-23T09:35:38.000Z</time>
      </trkpt>
      <trkpt lat="48.20318" lon="-3.75647">
        <ele>55.3</ele>
        <time>2017-09-23T09:35:39.000Z</time>
      </trkpt>
      <trkpt lat="48.20317" lon="-3.75648">
        <ele>55.3</ele>
        <time>2017-09-23T09:35:40.000Z</time>
      </trkpt>
      <trkpt lat="48.20316" lon="-3.75648">
        <ele>55.3</ele>
        <time>2017-09-23T09:35:41.000Z</time>
      </trkpt>
      <trkpt lat="48.20315" lon="-3.75649">
        <ele>55.2</ele>
        <time>2017-09-23T09:35:42.000Z</time>
      </trkpt>
      <trkpt lat="48.20314" lon="-3.7565">
        <ele>55.2</ele>
        <time>2017-09-23T09:35:43.000Z</time>
      </trkpt>
      <trkpt lat="48.20313" lon="-3.75651">
        <ele>55.2</ele>
        <time>2017-09-23T09:35:44.000Z</time>
      </trkpt>
      <trkpt lat="48.20312" lon="-3.75652">
        <ele>55.1</ele>
        <time>2017-09-23T09:35:45.000Z</time>
      </trkpt>
      <trkpt lat="48.20312" lon="-3.75653">
        <ele>55.1</ele>
        <time>2017-09-23T09:35:46.000Z</time>
      </trkpt>
      <trkpt lat="48.20311" lon="-3.75654">
        <ele>55.1</ele>
        <time>2017-09-23T09:35:47.000Z</time>
      </trkpt>
      <trkpt lat="48.2031" lon="-3.75655">
        <ele>55.1</ele>
        <time>2017-09-23T09:35:48.000Z</time>
      </trkpt>
      <trkpt lat="48.20309" lon="-3.75655">
        <ele>55</ele>
        <time>2017-09-23T09:35:49.000Z</time>
      </trkpt>
      <trkpt lat="48.20308" lon="-3.75656">
        <ele>55</ele>
        <time>2017-09-23T09:35:50.000Z</time>
      </trkpt>
      <trkpt lat="48.20307" lon="-3.75657">
        <ele>55</ele>
        <time>2017-09-23T09:35:51.000Z</time>
      </trkpt>
      <trkpt lat="48.20306" lon="-3.75658">
        <ele>54.9</ele>
        <time>2017-09-23T09:35:52.000Z</time>
      </trkpt>
      <trkpt lat="48.20305" lon="-3.75659">
        <ele>54.9</ele>
        <time>2017-09-23T09:35:53.000Z</time>
      </trkpt>
      <trkpt lat="48.20304" lon="-3.7566">
        <ele>54.9</ele>
        <time>2017-09-23T09:35:54.000Z</time>
      </trkpt>
      <trkpt lat="48.20303" lon="-3.7566">
        <ele>54.8</ele>
        <time>2017-09-23T09:35:55.000Z</time>
      </trkpt>
      <trkpt lat="48.20302" lon="-3.75661">
        <ele>54.8</ele>
        <time>2017-09-23T09:35:56.000Z</time>
      </trkpt>
      <trkpt lat="48.20301" lon="-3.75662">
        <ele>54.7</ele>
        <time>2017-09-23T09:35:57.000Z</time>
      </trkpt>
      <trkpt lat="48.20299" lon="-3.75663">
        <ele>54.7</ele>
        <time>2017-09-23T09:35:58.000Z</time>
      </trkpt>
      <trkpt lat="48.20298" lon="-3.75663">
        <ele>54.7</ele>
        <time>2017-09-23T09:35:59.000Z</time>
      </trkpt>
      <trkpt lat="48.20296" lon="-3.75664">
        <ele>54.6</ele>
        <time>2017-09-23T09:36:00.000Z</time>
      </trkpt>
      <trkpt lat="48.20295" lon="-3.75665">
        <ele>54.6</ele>
        <time>2017-09-23T09:36:01.000Z</time>
      </trkpt>
      <trkpt lat="48.20293" lon="-3.75666">
        <ele>54.5</ele>
        <time>2017-09-23T09:36:02.000Z</time>
      </trkpt>
      <trkpt lat="48.20292" lon="-3.75667">
        <ele>54.5</ele>
        <time>2017-09-23T09:36:03.000Z</time>
      </trkpt>
      <trkpt lat="48.20291" lon="-3.75667">
        <ele>54.6</ele>
        <time>2017-09-23T09:36:04.000Z</time>
      </trkpt>
      <trkpt lat="48.20289" lon="-3.75668">
        <ele>54.7</ele>
        <time>2017-09-23T09:36:05.000Z</time>
      </trkpt>
      <trkpt lat="48.20288" lon="-3.75669">
        <ele>54.7</ele>
        <time>2017-09-23T09:36:06.000Z</time>
      </trkpt>
      <trkpt lat="48.20287" lon="-3.7567">
        <ele>54.8</ele>
        <time>2017-09-23T09:36:07.000Z</time>
      </trkpt>
      <trkpt lat="48.20285" lon="-3.75671">
        <ele>54.9</ele>
        <time>2017-09-23T09:36:08.000Z</time>
      </trkpt>
      <trkpt lat="48.20284" lon="-3.75671">
        <ele>55</ele>
        <time>2017-09-23T09:36:09.000Z</time>
      </trkpt>
      <trkpt lat="48.20283" lon="-3.75672">
        <ele>55.1</ele>
        <time>2017-09-23T09:36:10.000Z</time>
      </trkpt>
      <trkpt lat="48.20282" lon="-3.75673">
        <ele>55.2</ele>
        <time>2017-09-23T09:36:11.000Z</time>
      </trkpt>
      <trkpt lat="48.20281" lon="-3.75674">
        <ele>55.3</ele>
        <time>2017-09-23T09:36:12.000Z</time>
      </trkpt>
      <trkpt lat="48.20279" lon="-3.75675">
        <ele>55.3</ele>
        <time>2017-09-23T09:36:13.000Z</time>
      </trkpt>
      <trkpt lat="48.20278" lon="-3.75675">
        <ele>55.4</ele>
        <time>2017-09-23T09:36:14.000Z</time>
      </trkpt>
      <trkpt lat="48.20277" lon="-3.75676">
        <ele>55.5</ele>
        <time>2017-09-23T09:36:15.000Z</time>
      </trkpt>
      <trkpt lat="48.20276" lon="-3.75677">
        <ele>55.6</ele>
        <time>2017-09-23T09:36:16.000Z</time>
      </trkpt>
      <trkpt lat="48.20275" lon="-3.75678">
        <ele>55.7</ele>
        <time>2017-09-23T09:36:17.000Z</time>
      </trkpt>
      <trkpt lat="48.20274" lon="-3.75679">
        <ele>55.7</ele>
        <time>2017-09-23T09:36:18.000Z</time>
      </trkpt>
      <trkpt lat="48.20273" lon="-3.7568">
        <ele>55.8</ele>
        <time>2017-09-23T09:36:19.000Z</time>
      </trkpt>
      <trkpt lat="48.20272" lon="-3.7568">
        <ele>55.9</ele>
        <time>2017-09-23T09:36:20.000Z</time>
      </trkpt>
      <trkpt lat="48.20271" lon="-3.75681">
        <ele>55.9</ele>
        <time>2017-09-23T09:36:21.000Z</time>
      </trkpt>
      <trkpt lat="48.2027" lon="-3.75682">
        <ele>56</ele>
        <time>2017-09-23T09:36:22.000Z</time>
      </trkpt>
      <trkpt lat="48.20269" lon="-3.75683">
        <ele>56.1</ele>
        <time>2017-09-23T09:36:23.000Z</time>
      </trkpt>
      <trkpt lat="48.20268" lon="-3.75684">
        <ele>56.1</ele>
        <time>2017-09-23T09:36:24.000Z</time>
      </trkpt>
      <trkpt lat="48.20267" lon="-3.75685">
        <ele>56.2</ele>
        <time>2017-09-23T09:36:25.000Z</time>
      </trkpt>
      <trkpt lat="48.20265" lon="-3.75685">
        <ele>56.3</ele>
        <time>2017-09-23T09:36:26.000Z</time>
      </trkpt>
      <trkpt lat="48.20264" lon="-3.75686">
        <ele>56.3</ele>
        <time>2017-09-23T09:36:27.000Z</time>
      </trkpt>
      <trkpt lat="48.20263" lon="-3.75687">
        <ele>56.4</ele>
        <time>2017-09-23T09:36:28.000Z</time>
      </trkpt>
      <trkpt lat="48.20262" lon="-3.75688">
        <ele>56.4</ele>
        <time>2017-09-23T09:36:29.000Z</time>
      </trkpt>
      <trkpt lat="48.20261" lon="-3.75689">
        <ele>56.5</ele>
        <time>2017-09-23T09:36:30.000Z</time>
      </trkpt>
      <trkpt lat="48.2026" lon="-3.75689">
        <ele>56.5</ele>
        <time>2017-09-23T09:36:31.000Z</time>
      </trkpt>
      <trkpt lat="48.20259" lon="-3.7569">
        <ele>56.6</ele>
        <time>2017-09-23T09:36:32.000Z</time>
      </trkpt>
      <trkpt lat="48.20258" lon="-3.75691">
        <ele>56.6</ele>
        <time>2017-09-23T09:36:33.000Z</time>
      </trkpt>
      <trkpt lat="48.20257" lon="-3.75692">
        <ele>56.6</ele>
        <time>2017-09-23T09:36:34.000Z</time>
      </trkpt>
      <trkpt lat="48.20256" lon="-3.75692">
        <ele>56.7</ele>
        <time>2017-09-23T09:36:35.000Z</time>
      </trkpt>
      <trkpt lat="48.20254" lon="-3.75693">
        <ele>56.7</ele>
        <time>2017-09-23T09:36:36.000Z</time>
      </trkpt>
      <trkpt lat="48.20253" lon="-3.75694">
        <ele>56.7</ele>
        <time>2017-09-23T09:36:37.000Z</time>
      </trkpt>
      <trkpt lat="48.20252" lon="-3.75695">
        <ele>56.8</ele>
        <time>2017-09-23T09:36:38.000Z</time>
      </trkpt>
      <trkpt lat="48.20251" lon="-3.75695">
        <ele>56.8</ele>
        <time>2017-09-23T09:36:39.000Z</time>
      </trkpt>
      <trkpt lat="48.2025" lon="-3.75696">
        <ele>56.8</ele>
        <time>2017-09-23T09:36:40.000Z</time>
      </trkpt>
      <trkpt lat="48.20249" lon="-3.75697">
        <ele>56.9</ele>
        <time>2017-09-23T09:36:41.000Z</time>
      </trkpt>
      <trkpt lat="48.20248" lon="-3.75697">
        <ele>56.9</ele>
        <time>2017-09-23T09:36:42.000Z</time>
      </trkpt>
      <trkpt lat="48.20247" lon="-3.75698">
        <ele>57</ele>
        <time>2017-09-23T09:36:43.000Z</time>
      </trkpt>
      <trkpt lat="48.20245" lon="-3.75699">
        <ele>57</ele>
        <time>2017-09-23T09:36:44.000Z</time>
      </trkpt>
      <trkpt lat="48.20244" lon="-3.75699">
        <ele>57.1</ele>
        <time>2017-09-23T09:36:45.000Z</time>
      </trkpt>
      <trkpt lat="48.20243" lon="-3.757">
        <ele>57.1</ele>
        <time>2017-09-23T09:36:46.000Z</time>
      </trkpt>
      <trkpt lat="48.20242" lon="-3.757">
        <ele>57.2</ele>
        <time>2017-09-23T09:36:47.000Z</time>
      </trkpt>
      <trkpt lat="48.20241" lon="-3.75701">
        <ele>57.2</ele>
        <time>2017-09-23T09:36:48.000Z</time>
      </trkpt>
      <trkpt lat="48.2024" lon="-3.75702">
        <ele>57.2</ele>
        <time>2017-09-23T09:36:49.000Z</time>
      </trkpt>
      <trkpt lat="48.20239" lon="-3.75702">
        <ele>57.3</ele>
        <time>2017-09-23T09:36:50.000Z</time>
      </trkpt>
      <trkpt lat="48.20237" lon="-3.75703">
        <ele>57.3</ele>
        <time>2017-09-23T09:36:51.000Z</time>
      </trkpt>
      <trkpt lat="48.20236" lon="-3.75703">
        <ele>57.4</ele>
        <time>2017-09-23T09:36:52.000Z</time>
      </trkpt>
      <trkpt lat="48.20235" lon="-3.75704">
        <ele>57.4</ele>
        <time>2017-09-23T09:36:53.000Z</time>
      </trkpt>
      <trkpt lat="48.20234" lon="-3.75704">
        <ele>57.4</ele>
        <time>2017-09-23T09:36:54.000Z</time>
      </trkpt>
      <trkpt lat="48.20233" lon="-3.75705">
        <ele>57.4</ele>
        <time>2017-09-23T09:36:55.000Z</time>
      </trkpt>
      <trkpt lat="48.20232" lon="-3.75705">
        <ele>57.4</ele>
        <time>2017-09-23T09:36:56.000Z</time>
      </trkpt>
      <trkpt lat="48.20231" lon="-3.75706">
        <ele>57.5</ele>
        <time>2017-09-23T09:36:57.000Z</time>
      </trkpt>
      <trkpt lat="48.2023" lon="-3.75706">
        <ele>57.5</ele>
        <time>2017-09-23T09:36:58.000Z</time>
      </trkpt>
      <trkpt lat="48.20229" lon="-3.75706">
        <ele>57.5</ele>
        <time>2017-09-23T09:36:59.000Z</time>
      </trkpt>
      <trkpt lat="48.20227" lon="-3.75707">
        <ele>57.5</ele>
        <time>2017-09-23T09:37:00.000Z</time>
      </trkpt>
      <trkpt lat="48.20226" lon="-3.75707">
        <ele>57.5</ele>
        <time>2017-09-23T09:37:01.000Z</time>
      </trkpt>
      <trkpt lat="48.20225" lon="-3.75707">
        <ele>57.5</ele>
        <time>2017-09-23T09:37:02.000Z</time>
      </trkpt>
      <trkpt lat="48.20224" lon="-3.75708">
        <ele>57.5</ele>
        <time>2017-09-23T09:37:03.000Z</time>
      </trkpt>
      <trkpt lat="48.20223" lon="-3.75708">
        <ele>57.5</ele>
        <time>2017-09-23T09:37:04.000Z</time>
      </trkpt>
      <trkpt lat="48.20222" lon="-3.75708">
        <ele>57.5</ele>
        <time>2017-09-23T09:37:05.000Z</time>
      </trkpt>
      <trkpt lat="48.20221" lon="-3.75709">
        <ele>57.5</ele>
        <time>2017-09-23T09:37:06.000Z</time>
      </trkpt>
      <trkpt lat="48.2022" lon="-3.75709">
        <ele>57.5</ele>
        <time>2017-09-23T09:37:07.000Z</time>
      </trkpt>
      <trkpt lat="48.20219" lon="-3.75709">
        <ele>57.5</ele>
        <time>2017-09-23T09:37:08.000Z</time>
      </trkpt>
      <trkpt lat="48.20218" lon="-3.75709">
        <ele>57.5</ele>
        <time>2017-09-23T09:37:09.000Z</time>
      </trkpt>
      <trkpt lat="48.20217" lon="-3.7571">
        <ele>57.5</ele>
        <time>2017-09-23T09:37:10.000Z</time>
      </trkpt>
      <trkpt lat="48.20215" lon="-3.7571">
        <ele>57.4</ele>
        <time>2017-09-23T09:37:11.000Z</time>
      </trkpt>
      <trkpt lat="48.20214" lon="-3.7571">
        <ele>57.4</ele>
        <time>2017-09-23T09:37:12.000Z</time>
      </trkpt>
      <trkpt lat="48.20213" lon="-3.7571">
        <ele>57.4</ele>
        <time>2017-09-23T09:37:13.000Z</time>
      </trkpt>
      <trkpt lat="48.20212" lon="-3.7571">
        <ele>57.4</ele>
        <time>2017-09-23T09:37:14.000Z</time>
      </trkpt>
      <trkpt lat="48.20211" lon="-3.75711">
        <ele>57.4</ele>
        <time>2017-09-23T09:37:15.000Z</time>
      </trkpt>
      <trkpt lat="48.20209" lon="-3.75711">
        <ele>57.4</ele>
        <time>2017-09-23T09:37:16.000Z</time>
      </trkpt>
      <trkpt lat="48.20208" lon="-3.75711">
        <ele>57.4</ele>
        <time>2017-09-23T09:37:17.000Z</time>
      </trkpt>
      <trkpt lat="48.20207" lon="-3.75711">
        <ele>57.3</ele>
        <time>2017-09-23T09:37:18.000Z</time>
      </trkpt>
      <trkpt lat="48.20206" lon="-3.75712">
        <ele>57.3</ele>
        <time>2017-09-23T09:37:19.000Z</time>
      </trkpt>
      <trkpt lat="48.20204" lon="-3.75712">
        <ele>57.3</ele>
        <time>2017-09-23T09:37:20.000Z</time>
      </trkpt>
      <trkpt lat="48.20203" lon="-3.75712">
        <ele>57.3</ele>
        <time>2017-09-23T09:37:21.000Z</time>
      </trkpt>
      <trkpt lat="48.20202" lon="-3.75713">
        <ele>57.3</ele>
        <time>2017-09-23T09:37:22.000Z</time>
      </trkpt>
      <trkpt lat="48.202" lon="-3.75713">
        <ele>57.3</ele>
        <time>2017-09-23T09:37:23.000Z</time>
      </trkpt>
      <trkpt lat="48.20199" lon="-3.75714">
        <ele>57.2</ele>
        <time>2017-09-23T09:37:24.000Z</time>
      </trkpt>
      <trkpt lat="48.20198" lon="-3.75714">
        <ele>57.2</ele>
        <time>2017-09-23T09:37:25.000Z</time>
      </trkpt>
      <trkpt lat="48.20197" lon="-3.75714">
        <ele>57.2</ele>
        <time>2017-09-23T09:37:26.000Z</time>
      </trkpt>
      <trkpt lat="48.20196" lon="-3.75715">
        <ele>57.2</ele>
        <time>2017-09-23T09:37:27.000Z</time>
      </trkpt>
      <trkpt lat="48.20195" lon="-3.75715">
        <ele>57.2</ele>
        <time>2017-09-23T09:37:28.000Z</time>
      </trkpt>
      <trkpt lat="48.20193" lon="-3.75716">
        <ele>57.1</ele>
        <time>2017-09-23T09:37:29.000Z</time>
      </trkpt>
      <trkpt lat="48.20192" lon="-3.75716">
        <ele>57.1</ele>
        <time>2017-09-23T09:37:30.000Z</time>
      </trkpt>
      <trkpt lat="48.20191" lon="-3.75717">
        <ele>57.1</ele>
        <time>2017-09-23T09:37:31.000Z</time>
      </trkpt>
      <trkpt lat="48.2019" lon="-3.75717">
        <ele>57.1</ele>
        <time>2017-09-23T09:37:32.000Z</time>
      </trkpt>
      <trkpt lat="48.20189" lon="-3.75717">
        <ele>57.1</ele>
        <time>2017-09-23T09:37:33.000Z</time>
      </trkpt>
      <trkpt lat="48.20188" lon="-3.75718">
        <ele>57</ele>
        <time>2017-09-23T09:37:34.000Z</time>
      </trkpt>
      <trkpt lat="48.20187" lon="-3.75718">
        <ele>57</ele>
        <time>2017-09-23T09:37:35.000Z</time>
      </trkpt>
      <trkpt lat="48.20185" lon="-3.75718">
        <ele>57</ele>
        <time>2017-09-23T09:37:36.000Z</time>
      </trkpt>
      <trkpt lat="48.20184" lon="-3.75719">
        <ele>56.9</ele>
        <time>2017-09-23T09:37:37.000Z</time>
      </trkpt>
      <trkpt lat="48.20183" lon="-3.75719">
        <ele>56.9</ele>
        <time>2017-09-23T09:37:38.000Z</time>
      </trkpt>
      <trkpt lat="48.20182" lon="-3.75719">
        <ele>56.9</ele>
        <time>2017-09-23T09:37:39.000Z</time>
      </trkpt>
      <trkpt lat="48.2018" lon="-3.7572">
        <ele>56.8</ele>
        <time>2017-09-23T09:37:40.000Z</time>
      </trkpt>
      <trkpt lat="48.20179" lon="-3.7572">
        <ele>56.8</ele>
        <time>2017-09-23T09:37:41.000Z</time>
      </trkpt>
      <trkpt lat="48.20178" lon="-3.7572">
        <ele>56.7</ele>
        <time>2017-09-23T09:37:42.000Z</time>
      </trkpt>
      <trkpt lat="48.20177" lon="-3.75721">
        <ele>56.7</ele>
        <time>2017-09-23T09:37:43.000Z</time>
      </trkpt>
      <trkpt lat="48.20175" lon="-3.75721">
        <ele>56.6</ele>
        <time>2017-09-23T09:37:44.000Z</time>
      </trkpt>
      <trkpt lat="48.20174" lon="-3.75721">
        <ele>56.6</ele>
        <time>2017-09-23T09:37:45.000Z</time>
      </trkpt>
      <trkpt lat="48.20173" lon="-3.75722">
        <ele>56.5</ele>
        <time>2017-09-23T09:37:46.000Z</time>
      </trkpt>
      <trkpt lat="48.20171" lon="-3.75722">
        <ele>56.5</ele>
        <time>2017-09-23T09:37:47.000Z</time>
      </trkpt>
      <trkpt lat="48.2017" lon="-3.75722">
        <ele>56.4</ele>
        <time>2017-09-23T09:37:48.000Z</time>
      </trkpt>
      <trkpt lat="48.20169" lon="-3.75723">
        <ele>56.4</ele>
        <time>2017-09-23T09:37:49.000Z</time>
      </trkpt>
      <trkpt lat="48.20167" lon="-3.75723">
        <ele>56.3</ele>
        <time>2017-09-23T09:37:50.000Z</time>
      </trkpt>
      <trkpt lat="48.20166" lon="-3.75724">
        <ele>56.4</ele>
        <time>2017-09-23T09:37:51.000Z</time>
      </trkpt>
      <trkpt lat="48.20165" lon="-3.75724">
        <ele>56.4</ele>
        <time>2017-09-23T09:37:52.000Z</time>
      </trkpt>
      <trkpt lat="48.20163" lon="-3.75725">
        <ele>56.5</ele>
        <time>2017-09-23T09:37:53.000Z</time>
      </trkpt>
      <trkpt lat="48.20162" lon="-3.75725">
        <ele>56.5</ele>
        <time>2017-09-23T09:37:54.000Z</time>
      </trkpt>
      <trkpt lat="48.20161" lon="-3.75726">
        <ele>56.6</ele>
        <time>2017-09-23T09:37:55.000Z</time>
      </trkpt>
      <trkpt lat="48.20159" lon="-3.75726">
        <ele>56.6</ele>
        <time>2017-09-23T09:37:56.000Z</time>
      </trkpt>
      <trkpt lat="48.20158" lon="-3.75727">
        <ele>56.7</ele>
        <time>2017-09-23T09:37:57.000Z</time>
      </trkpt>
      <trkpt lat="48.20157" lon="-3.75728">
        <ele>56.7</ele>
        <time>2017-09-23T09:37:58.000Z</time>
      </trkpt>
      <trkpt lat="48.20155" lon="-3.75728">
        <ele>56.8</ele>
        <time>2017-09-23T09:37:59.000Z</time>
      </trkpt>
      <trkpt lat="48.20154" lon="-3.75729">
        <ele>56.8</ele>
        <time>2017-09-23T09:38:00.000Z</time>
      </trkpt>
      <trkpt lat="48.20153" lon="-3.75729">
        <ele>56.8</ele>
        <time>2017-09-23T09:38:01.000Z</time>
      </trkpt>
      <trkpt lat="48.20152" lon="-3.7573">
        <ele>56.8</ele>
        <time>2017-09-23T09:38:02.000Z</time>
      </trkpt>
      <trkpt lat="48.2015" lon="-3.75731">
        <ele>56.9</ele>
        <time>2017-09-23T09:38:03.000Z</time>
      </trkpt>
      <trkpt lat="48.20149" lon="-3.75731">
        <ele>56.9</ele>
        <time>2017-09-23T09:38:04.000Z</time>
      </trkpt>
      <trkpt lat="48.20148" lon="-3.75732">
        <ele>56.9</ele>
        <time>2017-09-23T09:38:05.000Z</time>
      </trkpt>
      <trkpt lat="48.20147" lon="-3.75733">
        <ele>56.9</ele>
        <time>2017-09-23T09:38:06.000Z</time>
      </trkpt>
      <trkpt lat="48.20146" lon="-3.75734">
        <ele>56.9</ele>
        <time>2017-09-23T09:38:07.000Z</time>
      </trkpt>
      <trkpt lat="48.20144" lon="-3.75734">
        <ele>56.9</ele>
        <time>2017-09-23T09:38:08.000Z</time>
      </trkpt>
      <trkpt lat="48.20143" lon="-3.75735">
        <ele>56.9</ele>
        <time>2017-09-23T09:38:09.000Z</time>
      </trkpt>
      <trkpt lat="48.20142" lon="-3.75736">
        <ele>56.9</ele>
        <time>2017-09-23T09:38:10.000Z</time>
      </trkpt>
      <trkpt lat="48.20141" lon="-3.75736">
        <ele>56.9</ele>
        <time>2017-09-23T09:38:11.000Z</time>
      </trkpt>
      <trkpt lat="48.2014" lon="-3.75737">
        <ele>56.9</ele>
        <time>2017-09-23T09:38:12.000Z</time>
      </trkpt>
      <trkpt lat="48.20138" lon="-3.75738">
        <ele>56.8</ele>
        <time>2017-09-23T09:38:13.000Z</time>
      </trkpt>
      <trkpt lat="48.20137" lon="-3.75739">
        <ele>56.8</ele>
        <time>2017-09-23T09:38:14.000Z</time>
      </trkpt>
      <trkpt lat="48.20136" lon="-3.7574">
        <ele>56.8</ele>
        <time>2017-09-23T09:38:15.000Z</time>
      </trkpt>
      <trkpt lat="48.20135" lon="-3.7574">
        <ele>56.7</ele>
        <time>2017-09-23T09:38:16.000Z</time>
      </trkpt>
      <trkpt lat="48.20134" lon="-3.75741">
        <ele>56.7</ele>
        <time>2017-09-23T09:38:17.000Z</time>
      </trkpt>
      <trkpt lat="48.20133" lon="-3.75742">
        <ele>56.7</ele>
        <time>2017-09-23T09:38:18.000Z</time>
      </trkpt>
      <trkpt lat="48.20132" lon="-3.75743">
        <ele>56.6</ele>
        <time>2017-09-23T09:38:19.000Z</time>
      </trkpt>
      <trkpt lat="48.20131" lon="-3.75743">
        <ele>56.6</ele>
        <time>2017-09-23T09:38:20.000Z</time>
      </trkpt>
      <trkpt lat="48.2013" lon="-3.75744">
        <ele>56.5</ele>
        <time>2017-09-23T09:38:21.000Z</time>
      </trkpt>
      <trkpt lat="48.20128" lon="-3.75745">
        <ele>56.4</ele>
        <time>2017-09-23T09:38:22.000Z</time>
      </trkpt>
      <trkpt lat="48.20127" lon="-3.75746">
        <ele>56.4</ele>
        <time>2017-09-23T09:38:23.000Z</time>
      </trkpt>
      <trkpt lat="48.20126" lon="-3.75747">
        <ele>56.3</ele>
        <time>2017-09-23T09:38:24.000Z</time>
      </trkpt>
      <trkpt lat="48.20125" lon="-3.75747">
        <ele>56.3</ele>
        <time>2017-09-23T09:38:25.000Z</time>
      </trkpt>
      <trkpt lat="48.20124" lon="-3.75748">
        <ele>56.2</ele>
        <time>2017-09-23T09:38:26.000Z</time>
      </trkpt>
      <trkpt lat="48.20123" lon="-3.75749">
        <ele>56.1</ele>
        <time>2017-09-23T09:38:27.000Z</time>
      </trkpt>
      <trkpt lat="48.20122" lon="-3.7575">
        <ele>56</ele>
        <time>2017-09-23T09:38:28.000Z</time>
      </trkpt>
      <trkpt lat="48.20121" lon="-3.7575">
        <ele>56</ele>
        <time>2017-09-23T09:38:29.000Z</time>
      </trkpt>
      <trkpt lat="48.2012" lon="-3.75751">
        <ele>56.1</ele>
        <time>2017-09-23T09:38:30.000Z</time>
      </trkpt>
      <trkpt lat="48.20119" lon="-3.75752">
        <ele>56.1</ele>
        <time>2017-09-23T09:38:31.000Z</time>
      </trkpt>
      <trkpt lat="48.20118" lon="-3.75753">
        <ele>56.1</ele>
        <time>2017-09-23T09:38:32.000Z</time>
      </trkpt>
      <trkpt lat="48.20116" lon="-3.75753">
        <ele>56.2</ele>
        <time>2017-09-23T09:38:33.000Z</time>
      </trkpt>
      <trkpt lat="48.20115" lon="-3.75754">
        <ele>56.2</ele>
        <time>2017-09-23T09:38:34.000Z</time>
      </trkpt>
      <trkpt lat="48.20114" lon="-3.75755">
        <ele>56.3</ele>
        <time>2017-09-23T09:38:35.000Z</time>
      </trkpt>
      <trkpt lat="48.20113" lon="-3.75756">
        <ele>56.3</ele>
        <time>2017-09-23T09:38:36.000Z</time>
      </trkpt>
      <trkpt lat="48.20112" lon="-3.75756">
        <ele>56.3</ele>
        <time>2017-09-23T09:38:37.000Z</time>
      </trkpt>
      <trkpt lat="48.20111" lon="-3.75757">
        <ele>56.3</ele>
        <time>2017-09-23T09:38:38.000Z</time>
      </trkpt>
      <trkpt lat="48.2011" lon="-3.75758">
        <ele>56.4</ele>
        <time>2017-09-23T09:38:39.000Z</time>
      </trkpt>
      <trkpt lat="48.20109" lon="-3.75759">
        <ele>56.4</ele>
        <time>2017-09-23T09:38:40.000Z</time>
      </trkpt>
      <trkpt lat="48.20107" lon="-3.75759">
        <ele>56.4</ele>
        <time>2017-09-23T09:38:41.000Z</time>
      </trkpt>
      <trkpt lat="48.20106" lon="-3.7576">
        <ele>56.4</ele>
        <time>2017-09-23T09:38:42.000Z</time>
      </trkpt>
      <trkpt lat="48.20105" lon="-3.75761">
        <ele>56.4</ele>
        <time>2017-09-23T09:38:43.000Z</time>
      </trkpt>
      <trkpt lat="48.20104" lon="-3.75762">
        <ele>56.5</ele>
        <time>2017-09-23T09:38:44.000Z</time>
      </trkpt>
      <trkpt lat="48.20103" lon="-3.75763">
        <ele>56.5</ele>
        <time>2017-09-23T09:38:45.000Z</time>
      </trkpt>
      <trkpt lat="48.20102" lon="-3.75763">
        <ele>56.5</ele>
        <time>2017-09-23T09:38:46.000Z</time>
      </trkpt>
      <trkpt lat="48.201" lon="-3.75764">
        <ele>56.5</ele>
        <time>2017-09-23T09:38:47.000Z</time>
      </trkpt>
      <trkpt lat="48.20099" lon="-3.75765">
        <ele>56.5</ele>
        <time>2017-09-23T09:38:48.000Z</time>
      </trkpt>
      <trkpt lat="48.20098" lon="-3.75766">
        <ele>56.5</ele>
        <time>2017-09-23T09:38:49.000Z</time>
      </trkpt>
      <trkpt lat="48.20097" lon="-3.75766">
        <ele>56.5</ele>
        <time>2017-09-23T09:38:50.000Z</time>
      </trkpt>
      <trkpt lat="48.20096" lon="-3.75767">
        <ele>56.5</ele>
        <time>2017-09-23T09:38:51.000Z</time>
      </trkpt>
      <trkpt lat="48.20094" lon="-3.75768">
        <ele>56.5</ele>
        <time>2017-09-23T09:38:52.000Z</time>
      </trkpt>
      <trkpt lat="48.20093" lon="-3.75769">
        <ele>56.5</ele>
        <time>2017-09-23T09:38:53.000Z</time>
      </trkpt>
      <trkpt lat="48.20092" lon="-3.75769">
        <ele>56.4</ele>
        <time>2017-09-23T09:38:54.000Z</time>
      </trkpt>
      <trkpt lat="48.20091" lon="-3.7577">
        <ele>56.4</ele>
        <time>2017-09-23T09:38:55.000Z</time>
      </trkpt>
      <trkpt lat="48.2009" lon="-3.75771">
        <ele>56.4</ele>
        <time>2017-09-23T09:38:56.000Z</time>
      </trkpt>
      <trkpt lat="48.20088" lon="-3.75772">
        <ele>56.4</ele>
        <time>2017-09-23T09:38:57.000Z</time>
      </trkpt>
      <trkpt lat="48.20087" lon="-3.75772">
        <ele>56.4</ele>
        <time>2017-09-23T09:38:58.000Z</time>
      </trkpt>
      <trkpt lat="48.20086" lon="-3.75773">
        <ele>56.3</ele>
        <time>2017-09-23T09:38:59.000Z</time>
      </trkpt>
      <trkpt lat="48.20085" lon="-3.75774">
        <ele>56.3</ele>
        <time>2017-09-23T09:39:00.000Z</time>
      </trkpt>
      <trkpt lat="48.20083" lon="-3.75775">
        <ele>56.3</ele>
        <time>2017-09-23T09:39:01.000Z</time>
      </trkpt>
      <trkpt lat="48.20082" lon="-3.75775">
        <ele>56.4</ele>
        <time>2017-09-23T09:39:02.000Z</time>
      </trkpt>
      <trkpt lat="48.20081" lon="-3.75776">
        <ele>56.5</ele>
        <time>2017-09-23T09:39:03.000Z</time>
      </trkpt>
      <trkpt lat="48.20079" lon="-3.75777">
        <ele>56.6</ele>
        <time>2017-09-23T09:39:04.000Z</time>
      </trkpt>
      <trkpt lat="48.20078" lon="-3.75777">
        <ele>56.7</ele>
        <time>2017-09-23T09:39:05.000Z</time>
      </trkpt>
      <trkpt lat="48.20077" lon="-3.75778">
        <ele>56.8</ele>
        <time>2017-09-23T09:39:06.000Z</time>
      </trkpt>
      <trkpt lat="48.20076" lon="-3.75779">
        <ele>56.9</ele>
        <time>2017-09-23T09:39:07.000Z</time>
      </trkpt>
      <trkpt lat="48.20074" lon="-3.7578">
        <ele>56.9</ele>
        <time>2017-09-23T09:39:08.000Z</time>
      </trkpt>
      <trkpt lat="48.20073" lon="-3.7578">
        <ele>57</ele>
        <time>2017-09-23T09:39:09.000Z</time>
      </trkpt>
      <trkpt lat="48.20072" lon="-3.75781">
        <ele>57.1</ele>
        <time>2017-09-23T09:39:10.000Z</time>
      </trkpt>
      <trkpt lat="48.20071" lon="-3.75782">
        <ele>57.2</ele>
        <time>2017-09-23T09:39:11.000Z</time>
      </trkpt>
      <trkpt lat="48.20069" lon="-3.75782">
        <ele>57.2</ele>
        <time>2017-09-23T09:39:12.000Z</time>
      </trkpt>
      <trkpt lat="48.20068" lon="-3.75783">
        <ele>57.3</ele>
        <time>2017-09-23T09:39:13.000Z</time>
      </trkpt>
      <trkpt lat="48.20067" lon="-3.75784">
        <ele>57.3</ele>
        <time>2017-09-23T09:39:14.000Z</time>
      </trkpt>
      <trkpt lat="48.20066" lon="-3.75784">
        <ele>57.4</ele>
        <time>2017-09-23T09:39:15.000Z</time>
      </trkpt>
      <trkpt lat="48.20064" lon="-3.75785">
        <ele>57.5</ele>
        <time>2017-09-23T09:39:16.000Z</time>
      </trkpt>
      <trkpt lat="48.20063" lon="-3.75786">
        <ele>57.5</ele>
        <time>2017-09-23T09:39:17.000Z</time>
      </trkpt>
      <trkpt lat="48.20062" lon="-3.75787">
        <ele>57.5</ele>
        <time>2017-09-23T09:39:18.000Z</time>
      </trkpt>
      <trkpt lat="48.20061" lon="-3.75787">
        <ele>57.6</ele>
        <time>2017-09-23T09:39:19.000Z</time>
      </trkpt>
      <trkpt lat="48.2006" lon="-3.75788">
        <ele>57.6</ele>
        <time>2017-09-23T09:39:20.000Z</time>
      </trkpt>
      <trkpt lat="48.20058" lon="-3.75789">
        <ele>57.7</ele>
        <time>2017-09-23T09:39:21.000Z</time>
      </trkpt>
      <trkpt lat="48.20057" lon="-3.75789">
        <ele>57.7</ele>
        <time>2017-09-23T09:39:22.000Z</time>
      </trkpt>
      <trkpt lat="48.20056" lon="-3.7579">
        <ele>57.7</ele>
        <time>2017-09-23T09:39:23.000Z</time>
      </trkpt>
      <trkpt lat="48.20055" lon="-3.75791">
        <ele>57.7</ele>
        <time>2017-09-23T09:39:24.000Z</time>
      </trkpt>
      <trkpt lat="48.20054" lon="-3.75792">
        <ele>57.7</ele>
        <time>2017-09-23T09:39:25.000Z</time>
      </trkpt>
      <trkpt lat="48.20053" lon="-3.75793">
        <ele>57.8</ele>
        <time>2017-09-23T09:39:26.000Z</time>
      </trkpt>
      <trkpt lat="48.20051" lon="-3.75793">
        <ele>57.8</ele>
        <time>2017-09-23T09:39:27.000Z</time>
      </trkpt>
      <trkpt lat="48.2005" lon="-3.75794">
        <ele>57.8</ele>
        <time>2017-09-23T09:39:28.000Z</time>
      </trkpt>
      <trkpt lat="48.20049" lon="-3.75795">
        <ele>57.8</ele>
        <time>2017-09-23T09:39:29.000Z</time>
      </trkpt>
      <trkpt lat="48.20048" lon="-3.75796">
        <ele>57.8</ele>
        <time>2017-09-23T09:39:30.000Z</time>
      </trkpt>
      <trkpt lat="48.20047" lon="-3.75796">
        <ele>57.8</ele>
        <time>2017-09-23T09:39:31.000Z</time>
      </trkpt>
      <trkpt lat="48.20046" lon="-3.75797">
        <ele>57.8</ele>
        <time>2017-09-23T09:39:32.000Z</time>
      </trkpt>
      <trkpt lat="48.20045" lon="-3.75798">
        <ele>57.7</ele>
        <time>2017-09-23T09:39:33.000Z</time>
      </trkpt>
      <trkpt lat="48.20044" lon="-3.75799">
        <ele>57.7</ele>
        <time>2017-09-23T09:39:34.000Z</time>
      </trkpt>
      <trkpt lat="48.20043" lon="-3.758">
        <ele>57.7</ele>
        <time>2017-09-23T09:39:35.000Z</time>
      </trkpt>
      <trkpt lat="48.20042" lon="-3.758">
        <ele>57.7</ele>
        <time>2017-09-23T09:39:36.000Z</time>
      </trkpt>
      <trkpt lat="48.2004" lon="-3.75801">
        <ele>57.7</ele>
        <time>2017-09-23T09:39:37.000Z</time>
      </trkpt>
      <trkpt lat="48.20039" lon="-3.75802">
        <ele>57.6</ele>
        <time>2017-09-23T09:39:38.000Z</time>
      </trkpt>
      <trkpt lat="48.20038" lon="-3.75802">
        <ele>57.6</ele>
        <time>2017-09-23T09:39:39.000Z</time>
      </trkpt>
      <trkpt lat="48.20037" lon="-3.75803">
        <ele>57.6</ele>
        <time>2017-09-23T09:39:40.000Z</time>
      </trkpt>
      <trkpt lat="48.20036" lon="-3.75804">
        <ele>57.6</ele>
        <time>2017-09-23T09:39:41.000Z</time>
      </trkpt>
      <trkpt lat="48.20035" lon="-3.75805">
        <ele>57.5</ele>
        <time>2017-09-23T09:39:42.000Z</time>
      </trkpt>
      <trkpt lat="48.20034" lon="-3.75805">
        <ele>57.5</ele>
        <time>2017-09-23T09:39:43.000Z</time>
      </trkpt>
      <trkpt lat="48.20033" lon="-3.75806">
        <ele>57.5</ele>
        <time>2017-09-23T09:39:44.000Z</time>
      </trkpt>
      <trkpt lat="48.20031" lon="-3.75807">
        <ele>57.4</ele>
        <time>2017-09-23T09:39:45.000Z</time>
      </trkpt>
      <trkpt lat="48.2003" lon="-3.75807">
        <ele>57.4</ele>
        <time>2017-09-23T09:39:46.000Z</time>
      </trkpt>
      <trkpt lat="48.20029" lon="-3.75808">
        <ele>57.3</ele>
        <time>2017-09-23T09:39:47.000Z</time>
      </trkpt>
      <trkpt lat="48.20028" lon="-3.75808">
        <ele>57.3</ele>
        <time>2017-09-23T09:39:48.000Z</time>
      </trkpt>
      <trkpt lat="48.20027" lon="-3.75809">
        <ele>57.2</ele>
        <time>2017-09-23T09:39:49.000Z</time>
      </trkpt>
      <trkpt lat="48.20026" lon="-3.7581">
        <ele>57.2</ele>
        <time>2017-09-23T09:39:50.000Z</time>
      </trkpt>
      <trkpt lat="48.20025" lon="-3.7581">
        <ele>57.1</ele>
        <time>2017-09-23T09:39:51.000Z</time>
      </trkpt>
      <trkpt lat="48.20024" lon="-3.75811">
        <ele>57.1</ele>
        <time>2017-09-23T09:39:52.000Z</time>
      </trkpt>
      <trkpt lat="48.20022" lon="-3.75812">
        <ele>57</ele>
        <time>2017-09-23T09:39:53.000Z</time>
      </trkpt>
      <trkpt lat="48.20021" lon="-3.75812">
        <ele>56.9</ele>
        <time>2017-09-23T09:39:54.000Z</time>
      </trkpt>
      <trkpt lat="48.2002" lon="-3.75813">
        <ele>56.9</ele>
        <time>2017-09-23T09:39:55.000Z</time>
      </trkpt>
      <trkpt lat="48.20019" lon="-3.75814">
        <ele>56.8</ele>
        <time>2017-09-23T09:39:56.000Z</time>
      </trkpt>
      <trkpt lat="48.20018" lon="-3.75815">
        <ele>56.7</ele>
        <time>2017-09-23T09:39:57.000Z</time>
      </trkpt>
      <trkpt lat="48.20017" lon="-3.75815">
        <ele>56.6</ele>
        <time>2017-09-23T09:39:58.000Z</time>
      </trkpt>
      <trkpt lat="48.20016" lon="-3.75816">
        <ele>56.5</ele>
        <time>2017-09-23T09:39:59.000Z</time>
      </trkpt>
      <trkpt lat="48.20014" lon="-3.75817">
        <ele>56.4</ele>
        <time>2017-09-23T09:40:00.000Z</time>
      </trkpt>
      <trkpt lat="48.20013" lon="-3.75818">
        <ele>56.3</ele>
        <time>2017-09-23T09:40:01.000Z</time>
      </trkpt>
      <trkpt lat="48.20012" lon="-3.75819">
        <ele>56.2</ele>
        <time>2017-09-23T09:40:02.000Z</time>
      </trkpt>
      <trkpt lat="48.20011" lon="-3.7582">
        <ele>56.1</ele>
        <time>2017-09-23T09:40:03.000Z</time>
      </trkpt>
      <trkpt lat="48.2001" lon="-3.7582">
        <ele>56</ele>
        <time>2017-09-23T09:40:04.000Z</time>
      </trkpt>
      <trkpt lat="48.20009" lon="-3.75821">
        <ele>55.8</ele>
        <time>2017-09-23T09:40:05.000Z</time>
      </trkpt>
      <trkpt lat="48.20007" lon="-3.75822">
        <ele>55.7</ele>
        <time>2017-09-23T09:40:06.000Z</time>
      </trkpt>
      <trkpt lat="48.20006" lon="-3.75823">
        <ele>55.6</ele>
        <time>2017-09-23T09:40:07.000Z</time>
      </trkpt>
      <trkpt lat="48.20005" lon="-3.75824">
        <ele>55.4</ele>
        <time>2017-09-23T09:40:08.000Z</time>
      </trkpt>
      <trkpt lat="48.20004" lon="-3.75825">
        <ele>55.3</ele>
        <time>2017-09-23T09:40:09.000Z</time>
      </trkpt>
      <trkpt lat="48.20002" lon="-3.75826">
        <ele>55.1</ele>
        <time>2017-09-23T09:40:10.000Z</time>
      </trkpt>
      <trkpt lat="48.20001" lon="-3.75827">
        <ele>55</ele>
        <time>2017-09-23T09:40:11.000Z</time>
      </trkpt>
      <trkpt lat="48.2" lon="-3.75828">
        <ele>54.8</ele>
        <time>2017-09-23T09:40:12.000Z</time>
      </trkpt>
      <trkpt lat="48.19999" lon="-3.75828">
        <ele>54.9</ele>
        <time>2017-09-23T09:40:13.000Z</time>
      </trkpt>
      <trkpt lat="48.19998" lon="-3.75829">
        <ele>55</ele>
        <time>2017-09-23T09:40:14.000Z</time>
      </trkpt>
      <trkpt lat="48.19996" lon="-3.7583">
        <ele>55</ele>
        <time>2017-09-23T09:40:15.000Z</time>
      </trkpt>
      <trkpt lat="48.19995" lon="-3.7583">
        <ele>55.1</ele>
        <time>2017-09-23T09:40:16.000Z</time>
      </trkpt>
      <trkpt lat="48.19994" lon="-3.75831">
        <ele>55.2</ele>
        <time>2017-09-23T09:40:17.000Z</time>
      </trkpt>
      <trkpt lat="48.19993" lon="-3.75832">
        <ele>55.3</ele>
        <time>2017-09-23T09:40:18.000Z</time>
      </trkpt>
      <trkpt lat="48.19992" lon="-3.75832">
        <ele>55.4</ele>
        <time>2017-09-23T09:40:19.000Z</time>
      </trkpt>
      <trkpt lat="48.1999" lon="-3.75833">
        <ele>55.5</ele>
        <time>2017-09-23T09:40:20.000Z</time>
      </trkpt>
      <trkpt lat="48.19989" lon="-3.75833">
        <ele>55.6</ele>
        <time>2017-09-23T09:40:21.000Z</time>
      </trkpt>
      <trkpt lat="48.19988" lon="-3.75834">
        <ele>55.7</ele>
        <time>2017-09-23T09:40:22.000Z</time>
      </trkpt>
      <trkpt lat="48.19987" lon="-3.75835">
        <ele>55.8</ele>
        <time>2017-09-23T09:40:23.000Z</time>
      </trkpt>
      <trkpt lat="48.19986" lon="-3.75835">
        <ele>56</ele>
        <time>2017-09-23T09:40:24.000Z</time>
      </trkpt>
      <trkpt lat="48.19985" lon="-3.75836">
        <ele>56.1</ele>
        <time>2017-09-23T09:40:25.000Z</time>
      </trkpt>
      <trkpt lat="48.19984" lon="-3.75836">
        <ele>56.2</ele>
        <time>2017-09-23T09:40:26.000Z</time>
      </trkpt>
      <trkpt lat="48.19982" lon="-3.75837">
        <ele>56.3</ele>
        <time>2017-09-23T09:40:27.000Z</time>
      </trkpt>
      <trkpt lat="48.19981" lon="-3.75838">
        <ele>56.4</ele>
        <time>2017-09-23T09:40:28.000Z</time>
      </trkpt>
      <trkpt lat="48.1998" lon="-3.75838">
        <ele>56.6</ele>
        <time>2017-09-23T09:40:29.000Z</time>
      </trkpt>
      <trkpt lat="48.19979" lon="-3.75839">
        <ele>56.7</ele>
        <time>2017-09-23T09:40:30.000Z</time>
      </trkpt>
      <trkpt lat="48.19978" lon="-3.7584">
        <ele>56.8</ele>
        <time>2017-09-23T09:40:31.000Z</time>
      </trkpt>
      <trkpt lat="48.19977" lon="-3.7584">
        <ele>57</ele>
        <time>2017-09-23T09:40:32.000Z</time>
      </trkpt>
      <trkpt lat="48.19975" lon="-3.75841">
        <ele>57.1</ele>
        <time>2017-09-23T09:40:33.000Z</time>
      </trkpt>
      <trkpt lat="48.19974" lon="-3.75841">
        <ele>57.2</ele>
        <time>2017-09-23T09:40:34.000Z</time>
      </trkpt>
      <trkpt lat="48.19973" lon="-3.75842">
        <ele>57.4</ele>
        <time>2017-09-23T09:40:35.000Z</time>
      </trkpt>
      <trkpt lat="48.19971" lon="-3.75843">
        <ele>57.5</ele>
        <time>2017-09-23T09:40:36.000Z</time>
      </trkpt>
      <trkpt lat="48.1997" lon="-3.75843">
        <ele>57.7</ele>
        <time>2017-09-23T09:40:37.000Z</time>
      </trkpt>
      <trkpt lat="48.19968" lon="-3.75844">
        <ele>57.8</ele>
        <time>2017-09-23T09:40:38.000Z</time>
      </trkpt>
      <trkpt lat="48.19967" lon="-3.75844">
        <ele>58</ele>
        <time>2017-09-23T09:40:39.000Z</time>
      </trkpt>
      <trkpt lat="48.19965" lon="-3.75845">
        <ele>58.2</ele>
        <time>2017-09-23T09:40:40.000Z</time>
      </trkpt>
      <trkpt lat="48.19964" lon="-3.75845">
        <ele>58.3</ele>
        <time>2017-09-23T09:40:41.000Z</time>
      </trkpt>
      <trkpt lat="48.19962" lon="-3.75845">
        <ele>58.5</ele>
        <time>2017-09-23T09:40:42.000Z</time>
      </trkpt>
      <trkpt lat="48.19961" lon="-3.75846">
        <ele>58.6</ele>
        <time>2017-09-23T09:40:43.000Z</time>
      </trkpt>
      <trkpt lat="48.19959" lon="-3.75846">
        <ele>58.8</ele>
        <time>2017-09-23T09:40:44.000Z</time>
      </trkpt>
      <trkpt lat="48.19958" lon="-3.75846">
        <ele>59</ele>
        <time>2017-09-23T09:40:45.000Z</time>
      </trkpt>
      <trkpt lat="48.19956" lon="-3.75847">
        <ele>59.1</ele>
        <time>2017-09-23T09:40:46.000Z</time>
      </trkpt>
      <trkpt lat="48.19955" lon="-3.75847">
        <ele>59.3</ele>
        <time>2017-09-23T09:40:47.000Z</time>
      </trkpt>
      <trkpt lat="48.19954" lon="-3.75847">
        <ele>59.5</ele>
        <time>2017-09-23T09:40:48.000Z</time>
      </trkpt>
      <trkpt lat="48.19952" lon="-3.75847">
        <ele>59.6</ele>
        <time>2017-09-23T09:40:49.000Z</time>
      </trkpt>
      <trkpt lat="48.19951" lon="-3.75847">
        <ele>59.8</ele>
        <time>2017-09-23T09:40:50.000Z</time>
      </trkpt>
      <trkpt lat="48.1995" lon="-3.75848">
        <ele>59.9</ele>
        <time>2017-09-23T09:40:51.000Z</time>
      </trkpt>
      <trkpt lat="48.19948" lon="-3.75848">
        <ele>60.1</ele>
        <time>2017-09-23T09:40:52.000Z</time>
      </trkpt>
      <trkpt lat="48.19947" lon="-3.75848">
        <ele>60.2</ele>
        <time>2017-09-23T09:40:53.000Z</time>
      </trkpt>
      <trkpt lat="48.19946" lon="-3.75848">
        <ele>60.3</ele>
        <time>2017-09-23T09:40:54.000Z</time>
      </trkpt>
      <trkpt lat="48.19945" lon="-3.75848">
        <ele>60.5</ele>
        <time>2017-09-23T09:40:55.000Z</time>
      </trkpt>
      <trkpt lat="48.19944" lon="-3.75848">
        <ele>60.6</ele>
        <time>2017-09-23T09:40:56.000Z</time>
      </trkpt>
      <trkpt lat="48.19943" lon="-3.75849">
        <ele>60.7</ele>
        <time>2017-09-23T09:40:57.000Z</time>
      </trkpt>
      <trkpt lat="48.19942" lon="-3.75849">
        <ele>60.8</ele>
        <time>2017-09-23T09:40:58.000Z</time>
      </trkpt>
      <trkpt lat="48.19941" lon="-3.75849">
        <ele>60.9</ele>
        <time>2017-09-23T09:40:59.000Z</time>
      </trkpt>
      <trkpt lat="48.1994" lon="-3.75849">
        <ele>61</ele>
        <time>2017-09-23T09:41:00.000Z</time>
      </trkpt>
      <trkpt lat="48.19939" lon="-3.7585">
        <ele>61</ele>
        <time>2017-09-23T09:41:01.000Z</time>
      </trkpt>
      <trkpt lat="48.19938" lon="-3.7585">
        <ele>61.1</ele>
        <time>2017-09-23T09:41:02.000Z</time>
      </trkpt>
      <trkpt lat="48.19937" lon="-3.75851">
        <ele>61.2</ele>
        <time>2017-09-23T09:41:03.000Z</time>
      </trkpt>
      <trkpt lat="48.19936" lon="-3.75852">
        <ele>61.2</ele>
        <time>2017-09-23T09:41:04.000Z</time>
      </trkpt>
      <trkpt lat="48.19935" lon="-3.75852">
        <ele>61.3</ele>
        <time>2017-09-23T09:41:05.000Z</time>
      </trkpt>
      <trkpt lat="48.19934" lon="-3.75853">
        <ele>61.3</ele>
        <time>2017-09-23T09:41:06.000Z</time>
      </trkpt>
      <trkpt lat="48.19933" lon="-3.75854">
        <ele>61.3</ele>
        <time>2017-09-23T09:41:07.000Z</time>
      </trkpt>
      <trkpt lat="48.19932" lon="-3.75855">
        <ele>61.4</ele>
        <time>2017-09-23T09:41:08.000Z</time>
      </trkpt>
      <trkpt lat="48.19931" lon="-3.75856">
        <ele>61.4</ele>
        <time>2017-09-23T09:41:09.000Z</time>
      </trkpt>
      <trkpt lat="48.1993" lon="-3.75857">
        <ele>61.4</ele>
        <time>2017-09-23T09:41:10.000Z</time>
      </trkpt>
      <trkpt lat="48.19928" lon="-3.75858">
        <ele>61.4</ele>
        <time>2017-09-23T09:41:11.000Z</time>
      </trkpt>
      <trkpt lat="48.19927" lon="-3.75859">
        <ele>61.4</ele>
        <time>2017-09-23T09:41:12.000Z</time>
      </trkpt>
      <trkpt lat="48.19926" lon="-3.7586">
        <ele>61.4</ele>
        <time>2017-09-23T09:41:13.000Z</time>
      </trkpt>
      <trkpt lat="48.19925" lon="-3.75862">
        <ele>61.4</ele>
        <time>2017-09-23T09:41:14.000Z</time>
      </trkpt>
      <trkpt lat="48.19924" lon="-3.75863">
        <ele>61.3</ele>
        <time>2017-09-23T09:41:15.000Z</time>
      </trkpt>
      <trkpt lat="48.19922" lon="-3.75864">
        <ele>61.3</ele>
        <time>2017-09-23T09:41:16.000Z</time>
      </trkpt>
      <trkpt lat="48.19921" lon="-3.75866">
        <ele>61.2</ele>
        <time>2017-09-23T09:41:17.000Z</time>
      </trkpt>
      <trkpt lat="48.1992" lon="-3.75867">
        <ele>61.2</ele>
        <time>2017-09-23T09:41:18.000Z</time>
      </trkpt>
      <trkpt lat="48.19919" lon="-3.75869">
        <ele>61.1</ele>
        <time>2017-09-23T09:41:19.000Z</time>
      </trkpt>
      <trkpt lat="48.19917" lon="-3.7587">
        <ele>61.1</ele>
        <time>2017-09-23T09:41:20.000Z</time>
      </trkpt>
      <trkpt lat="48.19916" lon="-3.75871">
        <ele>61</ele>
        <time>2017-09-23T09:41:21.000Z</time>
      </trkpt>
      <trkpt lat="48.19915" lon="-3.75873">
        <ele>61</ele>
        <time>2017-09-23T09:41:22.000Z</time>
      </trkpt>
      <trkpt lat="48.19914" lon="-3.75874">
        <ele>60.9</ele>
        <time>2017-09-23T09:41:23.000Z</time>
      </trkpt>
      <trkpt lat="48.19913" lon="-3.75876">
        <ele>60.8</ele>
        <time>2017-09-23T09:41:24.000Z</time>
      </trkpt>
      <trkpt lat="48.19912" lon="-3.75877">
        <ele>60.7</ele>
        <time>2017-09-23T09:41:25.000Z</time>
      </trkpt>
      <trkpt lat="48.1991" lon="-3.75878">
        <ele>60.7</ele>
        <time>2017-09-23T09:41:26.000Z</time>
      </trkpt>
      <trkpt lat="48.19909" lon="-3.7588">
        <ele>60.6</ele>
        <time>2017-09-23T09:41:27.000Z</time>
      </trkpt>
      <trkpt lat="48.19908" lon="-3.75881">
        <ele>60.5</ele>
        <time>2017-09-23T09:41:28.000Z</time>
      </trkpt>
      <trkpt lat="48.19907" lon="-3.75882">
        <ele>60.4</ele>
        <time>2017-09-23T09:41:29.000Z</time>
      </trkpt>
      <trkpt lat="48.19906" lon="-3.75883">
        <ele>60.3</ele>
        <time>2017-09-23T09:41:30.000Z</time>
      </trkpt>
      <trkpt lat="48.19905" lon="-3.75885">
        <ele>60.2</ele>
        <time>2017-09-23T09:41:31.000Z</time>
      </trkpt>
      <trkpt lat="48.19904" lon="-3.75886">
        <ele>60.1</ele>
        <time>2017-09-23T09:41:32.000Z</time>
      </trkpt>
      <trkpt lat="48.19903" lon="-3.75887">
        <ele>60</ele>
        <time>2017-09-23T09:41:33.000Z</time>
      </trkpt>
      <trkpt lat="48.19902" lon="-3.75888">
        <ele>59.9</ele>
        <time>2017-09-23T09:41:34.000Z</time>
      </trkpt>
      <trkpt lat="48.19901" lon="-3.7589">
        <ele>59.8</ele>
        <time>2017-09-23T09:41:35.000Z</time>
      </trkpt>
      <trkpt lat="48.199" lon="-3.75891">
        <ele>59.6</ele>
        <time>2017-09-23T09:41:36.000Z</time>
      </trkpt>
      <trkpt lat="48.19899" lon="-3.75892">
        <ele>59.5</ele>
        <time>2017-09-23T09:41:37.000Z</time>
      </trkpt>
      <trkpt lat="48.19899" lon="-3.75894">
        <ele>59.4</ele>
        <time>2017-09-23T09:41:38.000Z</time>
      </trkpt>
      <trkpt lat="48.19898" lon="-3.75895">
        <ele>59.3</ele>
        <time>2017-09-23T09:41:39.000Z</time>
      </trkpt>
      <trkpt lat="48.19897" lon="-3.75896">
        <ele>59.1</ele>
        <time>2017-09-23T09:41:40.000Z</time>
      </trkpt>
      <trkpt lat="48.19896" lon="-3.75898">
        <ele>59</ele>
        <time>2017-09-23T09:41:41.000Z</time>
      </trkpt>
      <trkpt lat="48.19895" lon="-3.75899">
        <ele>58.8</ele>
        <time>2017-09-23T09:41:42.000Z</time>
      </trkpt>
      <trkpt lat="48.19894" lon="-3.759">
        <ele>58.7</ele>
        <time>2017-09-23T09:41:43.000Z</time>
      </trkpt>
      <trkpt lat="48.19893" lon="-3.75902">
        <ele>58.5</ele>
        <time>2017-09-23T09:41:44.000Z</time>
      </trkpt>
      <trkpt lat="48.19892" lon="-3.75903">
        <ele>58.3</ele>
        <time>2017-09-23T09:41:45.000Z</time>
      </trkpt>
      <trkpt lat="48.19891" lon="-3.75905">
        <ele>58.2</ele>
        <time>2017-09-23T09:41:46.000Z</time>
      </trkpt>
      <trkpt lat="48.1989" lon="-3.75906">
        <ele>58</ele>
        <time>2017-09-23T09:41:47.000Z</time>
      </trkpt>
      <trkpt lat="48.19889" lon="-3.75907">
        <ele>57.8</ele>
        <time>2017-09-23T09:41:48.000Z</time>
      </trkpt>
      <trkpt lat="48.19889" lon="-3.75909">
        <ele>57.7</ele>
        <time>2017-09-23T09:41:49.000Z</time>
      </trkpt>
      <trkpt lat="48.19888" lon="-3.7591">
        <ele>57.5</ele>
        <time>2017-09-23T09:41:50.000Z</time>
      </trkpt>
      <trkpt lat="48.19887" lon="-3.75911">
        <ele>57.3</ele>
        <time>2017-09-23T09:41:51.000Z</time>
      </trkpt>
      <trkpt lat="48.19886" lon="-3.75913">
        <ele>57.2</ele>
        <time>2017-09-23T09:41:52.000Z</time>
      </trkpt>
      <trkpt lat="48.19885" lon="-3.75914">
        <ele>57</ele>
        <time>2017-09-23T09:41:53.000Z</time>
      </trkpt>
      <trkpt lat="48.19884" lon="-3.75915">
        <ele>56.8</ele>
        <time>2017-09-23T09:41:54.000Z</time>
      </trkpt>
      <trkpt lat="48.19883" lon="-3.75916">
        <ele>56.7</ele>
        <time>2017-09-23T09:41:55.000Z</time>
      </trkpt>
      <trkpt lat="48.19882" lon="-3.75918">
        <ele>56.7</ele>
        <time>2017-09-23T09:41:56.000Z</time>
      </trkpt>
      <trkpt lat="48.19881" lon="-3.75919">
        <ele>56.7</ele>
        <time>2017-09-23T09:41:57.000Z</time>
      </trkpt>
      <trkpt lat="48.1988" lon="-3.7592">
        <ele>56.7</ele>
        <time>2017-09-23T09:41:58.000Z</time>
      </trkpt>
      <trkpt lat="48.19879" lon="-3.75921">
        <ele>56.7</ele>
        <time>2017-09-23T09:41:59.000Z</time>
      </trkpt>
      <trkpt lat="48.19878" lon="-3.75921">
        <ele>56.7</ele>
        <time>2017-09-23T09:42:00.000Z</time>
      </trkpt>
      <trkpt lat="48.19877" lon="-3.75922">
        <ele>56.8</ele>
        <time>2017-09-23T09:42:01.000Z</time>
      </trkpt>
      <trkpt lat="48.19876" lon="-3.75923">
        <ele>56.8</ele>
        <time>2017-09-23T09:42:02.000Z</time>
      </trkpt>
      <trkpt lat="48.19875" lon="-3.75924">
        <ele>56.8</ele>
        <time>2017-09-23T09:42:03.000Z</time>
      </trkpt>
      <trkpt lat="48.19873" lon="-3.75924">
        <ele>56.8</ele>
        <time>2017-09-23T09:42:04.000Z</time>
      </trkpt>
      <trkpt lat="48.19872" lon="-3.75925">
        <ele>56.8</ele>
        <time>2017-09-23T09:42:05.000Z</time>
      </trkpt>
      <trkpt lat="48.19871" lon="-3.75926">
        <ele>56.8</ele>
        <time>2017-09-23T09:42:06.000Z</time>
      </trkpt>
      <trkpt lat="48.1987" lon="-3.75927">
        <ele>56.8</ele>
        <time>2017-09-23T09:42:07.000Z</time>
      </trkpt>
      <trkpt lat="48.19869" lon="-3.75929">
        <ele>56.8</ele>
        <time>2017-09-23T09:42:08.000Z</time>
      </trkpt>
      <trkpt lat="48.19869" lon="-3.7593">
        <ele>56.8</ele>
        <time>2017-09-23T09:42:09.000Z</time>
      </trkpt>
      <trkpt lat="48.19868" lon="-3.75931">
        <ele>56.8</ele>
        <time>2017-09-23T09:42:10.000Z</time>
      </trkpt>
      <trkpt lat="48.19867" lon="-3.75932">
        <ele>56.8</ele>
        <time>2017-09-23T09:42:11.000Z</time>
      </trkpt>
      <trkpt lat="48.19866" lon="-3.75933">
        <ele>56.7</ele>
        <time>2017-09-23T09:42:12.000Z</time>
      </trkpt>
      <trkpt lat="48.19864" lon="-3.75934">
        <ele>56.7</ele>
        <time>2017-09-23T09:42:13.000Z</time>
      </trkpt>
      <trkpt lat="48.19863" lon="-3.75935">
        <ele>56.7</ele>
        <time>2017-09-23T09:42:14.000Z</time>
      </trkpt>
      <trkpt lat="48.19862" lon="-3.75936">
        <ele>56.7</ele>
        <time>2017-09-23T09:42:15.000Z</time>
      </trkpt>
      <trkpt lat="48.19861" lon="-3.75937">
        <ele>56.7</ele>
        <time>2017-09-23T09:42:16.000Z</time>
      </trkpt>
      <trkpt lat="48.1986" lon="-3.75938">
        <ele>56.7</ele>
        <time>2017-09-23T09:42:17.000Z</time>
      </trkpt>
      <trkpt lat="48.19858" lon="-3.75939">
        <ele>56.7</ele>
        <time>2017-09-23T09:42:18.000Z</time>
      </trkpt>
      <trkpt lat="48.19857" lon="-3.7594">
        <ele>56.6</ele>
        <time>2017-09-23T09:42:19.000Z</time>
      </trkpt>
      <trkpt lat="48.19856" lon="-3.7594">
        <ele>56.6</ele>
        <time>2017-09-23T09:42:20.000Z</time>
      </trkpt>
      <trkpt lat="48.19855" lon="-3.75941">
        <ele>56.6</ele>
        <time>2017-09-23T09:42:21.000Z</time>
      </trkpt>
      <trkpt lat="48.19853" lon="-3.75942">
        <ele>56.6</ele>
        <time>2017-09-23T09:42:22.000Z</time>
      </trkpt>
      <trkpt lat="48.19852" lon="-3.75943">
        <ele>56.6</ele>
        <time>2017-09-23T09:42:23.000Z</time>
      </trkpt>
      <trkpt lat="48.19851" lon="-3.75943">
        <ele>56.5</ele>
        <time>2017-09-23T09:42:24.000Z</time>
      </trkpt>
      <trkpt lat="48.1985" lon="-3.75944">
        <ele>56.5</ele>
        <time>2017-09-23T09:42:25.000Z</time>
      </trkpt>
      <trkpt lat="48.19849" lon="-3.75945">
        <ele>56.5</ele>
        <time>2017-09-23T09:42:26.000Z</time>
      </trkpt>
      <trkpt lat="48.19847" lon="-3.75945">
        <ele>56.4</ele>
        <time>2017-09-23T09:42:27.000Z</time>
      </trkpt>
      <trkpt lat="48.19846" lon="-3.75946">
        <ele>56.4</ele>
        <time>2017-09-23T09:42:28.000Z</time>
      </trkpt>
      <trkpt lat="48.19845" lon="-3.75947">
        <ele>56.4</ele>
        <time>2017-09-23T09:42:29.000Z</time>
      </trkpt>
      <trkpt lat="48.19844" lon="-3.75947">
        <ele>56.3</ele>
        <time>2017-09-23T09:42:30.000Z</time>
      </trkpt>
      <trkpt lat="48.19843" lon="-3.75948">
        <ele>56.3</ele>
        <time>2017-09-23T09:42:31.000Z</time>
      </trkpt>
      <trkpt lat="48.19842" lon="-3.75949">
        <ele>56.3</ele>
        <time>2017-09-23T09:42:32.000Z</time>
      </trkpt>
      <trkpt lat="48.1984" lon="-3.75949">
        <ele>56.2</ele>
        <time>2017-09-23T09:42:33.000Z</time>
      </trkpt>
      <trkpt lat="48.19839" lon="-3.7595">
        <ele>56.2</ele>
        <time>2017-09-23T09:42:34.000Z</time>
      </trkpt>
      <trkpt lat="48.19838" lon="-3.7595">
        <ele>56.1</ele>
        <time>2017-09-23T09:42:35.000Z</time>
      </trkpt>
      <trkpt lat="48.19837" lon="-3.75951">
        <ele>56.1</ele>
        <time>2017-09-23T09:42:36.000Z</time>
      </trkpt>
      <trkpt lat="48.19836" lon="-3.75952">
        <ele>56.1</ele>
        <time>2017-09-23T09:42:37.000Z</time>
      </trkpt>
      <trkpt lat="48.19834" lon="-3.75952">
        <ele>56</ele>
        <time>2017-09-23T09:42:38.000Z</time>
      </trkpt>
      <trkpt lat="48.19833" lon="-3.75953">
        <ele>56</ele>
        <time>2017-09-23T09:42:39.000Z</time>
      </trkpt>
      <trkpt lat="48.19832" lon="-3.75953">
        <ele>56.1</ele>
        <time>2017-09-23T09:42:40.000Z</time>
      </trkpt>
      <trkpt lat="48.1983" lon="-3.75954">
        <ele>56.2</ele>
        <time>2017-09-23T09:42:41.000Z</time>
      </trkpt>
      <trkpt lat="48.19829" lon="-3.75954">
        <ele>56.3</ele>
        <time>2017-09-23T09:42:42.000Z</time>
      </trkpt>
      <trkpt lat="48.19828" lon="-3.75955">
        <ele>56.3</ele>
        <time>2017-09-23T09:42:43.000Z</time>
      </trkpt>
      <trkpt lat="48.19826" lon="-3.75955">
        <ele>56.4</ele>
        <time>2017-09-23T09:42:44.000Z</time>
      </trkpt>
      <trkpt lat="48.19825" lon="-3.75956">
        <ele>56.5</ele>
        <time>2017-09-23T09:42:45.000Z</time>
      </trkpt>
      <trkpt lat="48.19823" lon="-3.75957">
        <ele>56.6</ele>
        <time>2017-09-23T09:42:46.000Z</time>
      </trkpt>
      <trkpt lat="48.19822" lon="-3.75957">
        <ele>56.6</ele>
        <time>2017-09-23T09:42:47.000Z</time>
      </trkpt>
      <trkpt lat="48.19821" lon="-3.75958">
        <ele>56.7</ele>
        <time>2017-09-23T09:42:48.000Z</time>
      </trkpt>
      <trkpt lat="48.19819" lon="-3.75959">
        <ele>56.7</ele>
        <time>2017-09-23T09:42:49.000Z</time>
      </trkpt>
      <trkpt lat="48.19818" lon="-3.75959">
        <ele>56.8</ele>
        <time>2017-09-23T09:42:50.000Z</time>
      </trkpt>
      <trkpt lat="48.19816" lon="-3.7596">
        <ele>56.8</ele>
        <time>2017-09-23T09:42:51.000Z</time>
      </trkpt>
      <trkpt lat="48.19815" lon="-3.75961">
        <ele>56.9</ele>
        <time>2017-09-23T09:42:52.000Z</time>
      </trkpt>
      <trkpt lat="48.19814" lon="-3.75961">
        <ele>57</ele>
        <time>2017-09-23T09:42:53.000Z</time>
      </trkpt>
      <trkpt lat="48.19812" lon="-3.75962">
        <ele>57</ele>
        <time>2017-09-23T09:42:54.000Z</time>
      </trkpt>
      <trkpt lat="48.19811" lon="-3.75963">
        <ele>57</ele>
        <time>2017-09-23T09:42:55.000Z</time>
      </trkpt>
      <trkpt lat="48.1981" lon="-3.75963">
        <ele>57.1</ele>
        <time>2017-09-23T09:42:56.000Z</time>
      </trkpt>
      <trkpt lat="48.19808" lon="-3.75964">
        <ele>57.1</ele>
        <time>2017-09-23T09:42:57.000Z</time>
      </trkpt>
      <trkpt lat="48.19807" lon="-3.75965">
        <ele>57.1</ele>
        <time>2017-09-23T09:42:58.000Z</time>
      </trkpt>
      <trkpt lat="48.19806" lon="-3.75965">
        <ele>57.1</ele>
        <time>2017-09-23T09:42:59.000Z</time>
      </trkpt>
      <trkpt lat="48.19805" lon="-3.75966">
        <ele>57.2</ele>
        <time>2017-09-23T09:43:00.000Z</time>
      </trkpt>
      <trkpt lat="48.19803" lon="-3.75967">
        <ele>57.2</ele>
        <time>2017-09-23T09:43:01.000Z</time>
      </trkpt>
      <trkpt lat="48.19802" lon="-3.75967">
        <ele>57.2</ele>
        <time>2017-09-23T09:43:02.000Z</time>
      </trkpt>
      <trkpt lat="48.19801" lon="-3.75968">
        <ele>57.2</ele>
        <time>2017-09-23T09:43:03.000Z</time>
      </trkpt>
      <trkpt lat="48.198" lon="-3.75968">
        <ele>57.3</ele>
        <time>2017-09-23T09:43:04.000Z</time>
      </trkpt>
      <trkpt lat="48.19798" lon="-3.75969">
        <ele>57.3</ele>
        <time>2017-09-23T09:43:05.000Z</time>
      </trkpt>
      <trkpt lat="48.19797" lon="-3.7597">
        <ele>57.3</ele>
        <time>2017-09-23T09:43:06.000Z</time>
      </trkpt>
      <trkpt lat="48.19796" lon="-3.7597">
        <ele>57.3</ele>
        <time>2017-09-23T09:43:07.000Z</time>
      </trkpt>
      <trkpt lat="48.19795" lon="-3.75971">
        <ele>57.3</ele>
        <time>2017-09-23T09:43:08.000Z</time>
      </trkpt>
      <trkpt lat="48.19794" lon="-3.75971">
        <ele>57.3</ele>
        <time>2017-09-23T09:43:09.000Z</time>
      </trkpt>
      <trkpt lat="48.19792" lon="-3.75972">
        <ele>57.3</ele>
        <time>2017-09-23T09:43:10.000Z</time>
      </trkpt>
      <trkpt lat="48.19791" lon="-3.75973">
        <ele>57.3</ele>
        <time>2017-09-23T09:43:11.000Z</time>
      </trkpt>
      <trkpt lat="48.1979" lon="-3.75973">
        <ele>57.3</ele>
        <time>2017-09-23T09:43:12.000Z</time>
      </trkpt>
      <trkpt lat="48.19789" lon="-3.75974">
        <ele>57.3</ele>
        <time>2017-09-23T09:43:13.000Z</time>
      </trkpt>
      <trkpt lat="48.19788" lon="-3.75974">
        <ele>57.3</ele>
        <time>2017-09-23T09:43:14.000Z</time>
      </trkpt>
      <trkpt lat="48.19786" lon="-3.75975">
        <ele>57.3</ele>
        <time>2017-09-23T09:43:15.000Z</time>
      </trkpt>
      <trkpt lat="48.19785" lon="-3.75976">
        <ele>57.3</ele>
        <time>2017-09-23T09:43:16.000Z</time>
      </trkpt>
      <trkpt lat="48.19784" lon="-3.75976">
        <ele>57.3</ele>
        <time>2017-09-23T09:43:17.000Z</time>
      </trkpt>
      <trkpt lat="48.19783" lon="-3.75977">
        <ele>57.3</ele>
        <time>2017-09-23T09:43:18.000Z</time>
      </trkpt>
      <trkpt lat="48.19782" lon="-3.75977">
        <ele>57.3</ele>
        <time>2017-09-23T09:43:19.000Z</time>
      </trkpt>
      <trkpt lat="48.1978" lon="-3.75978">
        <ele>57.3</ele>
        <time>2017-09-23T09:43:20.000Z</time>
      </trkpt>
      <trkpt lat="48.19779" lon="-3.75979">
        <ele>57.3</ele>
        <time>2017-09-23T09:43:21.000Z</time>
      </trkpt>
      <trkpt lat="48.19778" lon="-3.75979">
        <ele>57.3</ele>
        <time>2017-09-23T09:43:22.000Z</time>
      </trkpt>
      <trkpt lat="48.19777" lon="-3.7598">
        <ele>57.2</ele>
        <time>2017-09-23T09:43:23.000Z</time>
      </trkpt>
      <trkpt lat="48.19775" lon="-3.7598">
        <ele>57.2</ele>
        <time>2017-09-23T09:43:24.000Z</time>
      </trkpt>
      <trkpt lat="48.19774" lon="-3.75981">
        <ele>57.2</ele>
        <time>2017-09-23T09:43:25.000Z</time>
      </trkpt>
      <trkpt lat="48.19773" lon="-3.75982">
        <ele>57.2</ele>
        <time>2017-09-23T09:43:26.000Z</time>
      </trkpt>
      <trkpt lat="48.19772" lon="-3.75982">
        <ele>57.1</ele>
        <time>2017-09-23T09:43:27.000Z</time>
      </trkpt>
      <trkpt lat="48.1977" lon="-3.75983">
        <ele>57.1</ele>
        <time>2017-09-23T09:43:28.000Z</time>
      </trkpt>
      <trkpt lat="48.19769" lon="-3.75984">
        <ele>57</ele>
        <time>2017-09-23T09:43:29.000Z</time>
      </trkpt>
      <trkpt lat="48.19768" lon="-3.75984">
        <ele>57</ele>
        <time>2017-09-23T09:43:30.000Z</time>
      </trkpt>
      <trkpt lat="48.19767" lon="-3.75985">
        <ele>57</ele>
        <time>2017-09-23T09:43:31.000Z</time>
      </trkpt>
      <trkpt lat="48.19766" lon="-3.75986">
        <ele>56.9</ele>
        <time>2017-09-23T09:43:32.000Z</time>
      </trkpt>
      <trkpt lat="48.19764" lon="-3.75986">
        <ele>56.9</ele>
        <time>2017-09-23T09:43:33.000Z</time>
      </trkpt>
      <trkpt lat="48.19763" lon="-3.75987">
        <ele>56.8</ele>
        <time>2017-09-23T09:43:34.000Z</time>
      </trkpt>
      <trkpt lat="48.19762" lon="-3.75988">
        <ele>56.8</ele>
        <time>2017-09-23T09:43:35.000Z</time>
      </trkpt>
      <trkpt lat="48.19761" lon="-3.75988">
        <ele>56.7</ele>
        <time>2017-09-23T09:43:36.000Z</time>
      </trkpt>
      <trkpt lat="48.1976" lon="-3.75989">
        <ele>56.7</ele>
        <time>2017-09-23T09:43:37.000Z</time>
      </trkpt>
      <trkpt lat="48.19758" lon="-3.7599">
        <ele>56.6</ele>
        <time>2017-09-23T09:43:38.000Z</time>
      </trkpt>
      <trkpt lat="48.19757" lon="-3.7599">
        <ele>56.5</ele>
        <time>2017-09-23T09:43:39.000Z</time>
      </trkpt>
      <trkpt lat="48.19756" lon="-3.75991">
        <ele>56.5</ele>
        <time>2017-09-23T09:43:40.000Z</time>
      </trkpt>
      <trkpt lat="48.19755" lon="-3.75992">
        <ele>56.4</ele>
        <time>2017-09-23T09:43:41.000Z</time>
      </trkpt>
      <trkpt lat="48.19754" lon="-3.75992">
        <ele>56.3</ele>
        <time>2017-09-23T09:43:42.000Z</time>
      </trkpt>
      <trkpt lat="48.19753" lon="-3.75993">
        <ele>56.3</ele>
        <time>2017-09-23T09:43:43.000Z</time>
      </trkpt>
      <trkpt lat="48.19752" lon="-3.75994">
        <ele>56.2</ele>
        <time>2017-09-23T09:43:44.000Z</time>
      </trkpt>
      <trkpt lat="48.19751" lon="-3.75994">
        <ele>56.1</ele>
        <time>2017-09-23T09:43:45.000Z</time>
      </trkpt>
      <trkpt lat="48.19749" lon="-3.75995">
        <ele>56.1</ele>
        <time>2017-09-23T09:43:46.000Z</time>
      </trkpt>
      <trkpt lat="48.19748" lon="-3.75996">
        <ele>56.1</ele>
        <time>2017-09-23T09:43:47.000Z</time>
      </trkpt>
      <trkpt lat="48.19747" lon="-3.75996">
        <ele>56.2</ele>
        <time>2017-09-23T09:43:48.000Z</time>
      </trkpt>
      <trkpt lat="48.19746" lon="-3.75997">
        <ele>56.3</ele>
        <time>2017-09-23T09:43:49.000Z</time>
      </trkpt>
      <trkpt lat="48.19745" lon="-3.75998">
        <ele>56.3</ele>
        <time>2017-09-23T09:43:50.000Z</time>
      </trkpt>
      <trkpt lat="48.19744" lon="-3.75999">
        <ele>56.3</ele>
        <time>2017-09-23T09:43:51.000Z</time>
      </trkpt>
      <trkpt lat="48.19743" lon="-3.75999">
        <ele>56.4</ele>
        <time>2017-09-23T09:43:52.000Z</time>
      </trkpt>
      <trkpt lat="48.19742" lon="-3.76">
        <ele>56.4</ele>
        <time>2017-09-23T09:43:53.000Z</time>
      </trkpt>
      <trkpt lat="48.19741" lon="-3.76001">
        <ele>56.5</ele>
        <time>2017-09-23T09:43:54.000Z</time>
      </trkpt>
      <trkpt lat="48.1974" lon="-3.76002">
        <ele>56.7</ele>
        <time>2017-09-23T09:43:55.000Z</time>
      </trkpt>
      <trkpt lat="48.19739" lon="-3.76003">
        <ele>56.8</ele>
        <time>2017-09-23T09:43:56.000Z</time>
      </trkpt>
      <trkpt lat="48.19738" lon="-3.76004">
        <ele>56.9</ele>
        <time>2017-09-23T09:43:57.000Z</time>
      </trkpt>
      <trkpt lat="48.19737" lon="-3.76005">
        <ele>57</ele>
        <time>2017-09-23T09:43:58.000Z</time>
      </trkpt>
      <trkpt lat="48.19736" lon="-3.76006">
        <ele>57.1</ele>
        <time>2017-09-23T09:43:59.000Z</time>
      </trkpt>
      <trkpt lat="48.19735" lon="-3.76007">
        <ele>57.2</ele>
        <time>2017-09-23T09:44:00.000Z</time>
      </trkpt>
      <trkpt lat="48.19734" lon="-3.76008">
        <ele>57.3</ele>
        <time>2017-09-23T09:44:01.000Z</time>
      </trkpt>
      <trkpt lat="48.19733" lon="-3.76009">
        <ele>57.4</ele>
        <time>2017-09-23T09:44:02.000Z</time>
      </trkpt>
      <trkpt lat="48.19731" lon="-3.76011">
        <ele>57.5</ele>
        <time>2017-09-23T09:44:03.000Z</time>
      </trkpt>
      <trkpt lat="48.1973" lon="-3.76012">
        <ele>57.5</ele>
        <time>2017-09-23T09:44:04.000Z</time>
      </trkpt>
      <trkpt lat="48.19729" lon="-3.76013">
        <ele>57.6</ele>
        <time>2017-09-23T09:44:05.000Z</time>
      </trkpt>
      <trkpt lat="48.19728" lon="-3.76014">
        <ele>57.7</ele>
        <time>2017-09-23T09:44:06.000Z</time>
      </trkpt>
      <trkpt lat="48.19727" lon="-3.76015">
        <ele>57.7</ele>
        <time>2017-09-23T09:44:07.000Z</time>
      </trkpt>
      <trkpt lat="48.19726" lon="-3.76016">
        <ele>57.8</ele>
        <time>2017-09-23T09:44:08.000Z</time>
      </trkpt>
      <trkpt lat="48.19725" lon="-3.76018">
        <ele>57.9</ele>
        <time>2017-09-23T09:44:09.000Z</time>
      </trkpt>
      <trkpt lat="48.19724" lon="-3.76019">
        <ele>57.9</ele>
        <time>2017-09-23T09:44:10.000Z</time>
      </trkpt>
      <trkpt lat="48.19723" lon="-3.76019">
        <ele>58</ele>
        <time>2017-09-23T09:44:11.000Z</time>
      </trkpt>
      <trkpt lat="48.19721" lon="-3.7602">
        <ele>58.1</ele>
        <time>2017-09-23T09:44:12.000Z</time>
      </trkpt>
      <trkpt lat="48.1972" lon="-3.76021">
        <ele>58.2</ele>
        <time>2017-09-23T09:44:13.000Z</time>
      </trkpt>
      <trkpt lat="48.19719" lon="-3.76022">
        <ele>58.3</ele>
        <time>2017-09-23T09:44:14.000Z</time>
      </trkpt>
      <trkpt lat="48.19718" lon="-3.76022">
        <ele>58.4</ele>
        <time>2017-09-23T09:44:15.000Z</time>
      </trkpt>
      <trkpt lat="48.19717" lon="-3.76023">
        <ele>58.4</ele>
        <time>2017-09-23T09:44:16.000Z</time>
      </trkpt>
      <trkpt lat="48.19716" lon="-3.76024">
        <ele>58.5</ele>
        <time>2017-09-23T09:44:17.000Z</time>
      </trkpt>
      <trkpt lat="48.19714" lon="-3.76025">
        <ele>58.6</ele>
        <time>2017-09-23T09:44:18.000Z</time>
      </trkpt>
      <trkpt lat="48.19713" lon="-3.76026">
        <ele>58.6</ele>
        <time>2017-09-23T09:44:19.000Z</time>
      </trkpt>
      <trkpt lat="48.19712" lon="-3.76027">
        <ele>58.7</ele>
        <time>2017-09-23T09:44:20.000Z</time>
      </trkpt>
      <trkpt lat="48.19711" lon="-3.76028">
        <ele>58.7</ele>
        <time>2017-09-23T09:44:21.000Z</time>
      </trkpt>
      <trkpt lat="48.1971" lon="-3.76029">
        <ele>58.7</ele>
        <time>2017-09-23T09:44:22.000Z</time>
      </trkpt>
      <trkpt lat="48.19709" lon="-3.7603">
        <ele>58.7</ele>
        <time>2017-09-23T09:44:23.000Z</time>
      </trkpt>
      <trkpt lat="48.19708" lon="-3.76031">
        <ele>58.7</ele>
        <time>2017-09-23T09:44:24.000Z</time>
      </trkpt>
      <trkpt lat="48.19707" lon="-3.76032">
        <ele>58.6</ele>
        <time>2017-09-23T09:44:25.000Z</time>
      </trkpt>
      <trkpt lat="48.19706" lon="-3.76033">
        <ele>58.6</ele>
        <time>2017-09-23T09:44:26.000Z</time>
      </trkpt>
      <trkpt lat="48.19705" lon="-3.76035">
        <ele>58.6</ele>
        <time>2017-09-23T09:44:27.000Z</time>
      </trkpt>
      <trkpt lat="48.19703" lon="-3.76036">
        <ele>58.6</ele>
        <time>2017-09-23T09:44:28.000Z</time>
      </trkpt>
      <trkpt lat="48.19702" lon="-3.76037">
        <ele>58.6</ele>
        <time>2017-09-23T09:44:29.000Z</time>
      </trkpt>
      <trkpt lat="48.19701" lon="-3.76037">
        <ele>58.6</ele>
        <time>2017-09-23T09:44:30.000Z</time>
      </trkpt>
      <trkpt lat="48.197" lon="-3.76038">
        <ele>58.6</ele>
        <time>2017-09-23T09:44:31.000Z</time>
      </trkpt>
      <trkpt lat="48.19699" lon="-3.76039">
        <ele>58.7</ele>
        <time>2017-09-23T09:44:32.000Z</time>
      </trkpt>
      <trkpt lat="48.19697" lon="-3.76039">
        <ele>58.7</ele>
        <time>2017-09-23T09:44:33.000Z</time>
      </trkpt>
      <trkpt lat="48.19696" lon="-3.7604">
        <ele>58.8</ele>
        <time>2017-09-23T09:44:34.000Z</time>
      </trkpt>
      <trkpt lat="48.19695" lon="-3.7604">
        <ele>58.8</ele>
        <time>2017-09-23T09:44:35.000Z</time>
      </trkpt>
      <trkpt lat="48.19693" lon="-3.76041">
        <ele>58.9</ele>
        <time>2017-09-23T09:44:36.000Z</time>
      </trkpt>
      <trkpt lat="48.19692" lon="-3.76041">
        <ele>59</ele>
        <time>2017-09-23T09:44:37.000Z</time>
      </trkpt>
      <trkpt lat="48.19691" lon="-3.76042">
        <ele>59</ele>
        <time>2017-09-23T09:44:38.000Z</time>
      </trkpt>
      <trkpt lat="48.1969" lon="-3.76042">
        <ele>59.1</ele>
        <time>2017-09-23T09:44:39.000Z</time>
      </trkpt>
      <trkpt lat="48.19688" lon="-3.76043">
        <ele>59.1</ele>
        <time>2017-09-23T09:44:40.000Z</time>
      </trkpt>
      <trkpt lat="48.19687" lon="-3.76043">
        <ele>59.1</ele>
        <time>2017-09-23T09:44:41.000Z</time>
      </trkpt>
      <trkpt lat="48.19686" lon="-3.76044">
        <ele>59.1</ele>
        <time>2017-09-23T09:44:42.000Z</time>
      </trkpt>
      <trkpt lat="48.19685" lon="-3.76045">
        <ele>59.1</ele>
        <time>2017-09-23T09:44:43.000Z</time>
      </trkpt>
      <trkpt lat="48.19684" lon="-3.76046">
        <ele>59.1</ele>
        <time>2017-09-23T09:44:44.000Z</time>
      </trkpt>
      <trkpt lat="48.19682" lon="-3.76046">
        <ele>59.1</ele>
        <time>2017-09-23T09:44:45.000Z</time>
      </trkpt>
      <trkpt lat="48.19681" lon="-3.76047">
        <ele>59</ele>
        <time>2017-09-23T09:44:46.000Z</time>
      </trkpt>
      <trkpt lat="48.1968" lon="-3.76048">
        <ele>59</ele>
        <time>2017-09-23T09:44:47.000Z</time>
      </trkpt>
      <trkpt lat="48.19679" lon="-3.76049">
        <ele>59</ele>
        <time>2017-09-23T09:44:48.000Z</time>
      </trkpt>
      <trkpt lat="48.19678" lon="-3.76049">
        <ele>59</ele>
        <time>2017-09-23T09:44:49.000Z</time>
      </trkpt>
      <trkpt lat="48.19677" lon="-3.7605">
        <ele>59</ele>
        <time>2017-09-23T09:44:50.000Z</time>
      </trkpt>
      <trkpt lat="48.19676" lon="-3.7605">
        <ele>59</ele>
        <time>2017-09-23T09:44:51.000Z</time>
      </trkpt>
      <trkpt lat="48.19674" lon="-3.76051">
        <ele>59</ele>
        <time>2017-09-23T09:44:52.000Z</time>
      </trkpt>
      <trkpt lat="48.19673" lon="-3.76051">
        <ele>59</ele>
        <time>2017-09-23T09:44:53.000Z</time>
      </trkpt>
      <trkpt lat="48.19672" lon="-3.76051">
        <ele>59.1</ele>
        <time>2017-09-23T09:44:54.000Z</time>
      </trkpt>
      <trkpt lat="48.19671" lon="-3.76052">
        <ele>59.1</ele>
        <time>2017-09-23T09:44:55.000Z</time>
      </trkpt>
      <trkpt lat="48.1967" lon="-3.76052">
        <ele>59.2</ele>
        <time>2017-09-23T09:44:56.000Z</time>
      </trkpt>
      <trkpt lat="48.19668" lon="-3.76052">
        <ele>59.3</ele>
        <time>2017-09-23T09:44:57.000Z</time>
      </trkpt>
      <trkpt lat="48.19667" lon="-3.76052">
        <ele>59.3</ele>
        <time>2017-09-23T09:44:58.000Z</time>
      </trkpt>
      <trkpt lat="48.19666" lon="-3.76053">
        <ele>59.3</ele>
        <time>2017-09-23T09:44:59.000Z</time>
      </trkpt>
      <trkpt lat="48.19665" lon="-3.76053">
        <ele>59.4</ele>
        <time>2017-09-23T09:45:00.000Z</time>
      </trkpt>
      <trkpt lat="48.19663" lon="-3.76053">
        <ele>59.4</ele>
        <time>2017-09-23T09:45:01.000Z</time>
      </trkpt>
      <trkpt lat="48.19662" lon="-3.76054">
        <ele>59.4</ele>
        <time>2017-09-23T09:45:02.000Z</time>
      </trkpt>
      <trkpt lat="48.1966" lon="-3.76054">
        <ele>59.5</ele>
        <time>2017-09-23T09:45:03.000Z</time>
      </trkpt>
      <trkpt lat="48.19659" lon="-3.76055">
        <ele>59.5</ele>
        <time>2017-09-23T09:45:04.000Z</time>
      </trkpt>
      <trkpt lat="48.19658" lon="-3.76055">
        <ele>59.5</ele>
        <time>2017-09-23T09:45:05.000Z</time>
      </trkpt>
      <trkpt lat="48.19656" lon="-3.76056">
        <ele>59.5</ele>
        <time>2017-09-23T09:45:06.000Z</time>
      </trkpt>
      <trkpt lat="48.19655" lon="-3.76056">
        <ele>59.5</ele>
        <time>2017-09-23T09:45:07.000Z</time>
      </trkpt>
      <trkpt lat="48.19654" lon="-3.76057">
        <ele>59.5</ele>
        <time>2017-09-23T09:45:08.000Z</time>
      </trkpt>
      <trkpt lat="48.19652" lon="-3.76057">
        <ele>59.5</ele>
        <time>2017-09-23T09:45:09.000Z</time>
      </trkpt>
      <trkpt lat="48.19651" lon="-3.76058">
        <ele>59.5</ele>
        <time>2017-09-23T09:45:10.000Z</time>
      </trkpt>
      <trkpt lat="48.1965" lon="-3.76059">
        <ele>59.5</ele>
        <time>2017-09-23T09:45:11.000Z</time>
      </trkpt>
      <trkpt lat="48.19648" lon="-3.76059">
        <ele>59.5</ele>
        <time>2017-09-23T09:45:12.000Z</time>
      </trkpt>
      <trkpt lat="48.19647" lon="-3.7606">
        <ele>59.5</ele>
        <time>2017-09-23T09:45:13.000Z</time>
      </trkpt>
      <trkpt lat="48.19646" lon="-3.7606">
        <ele>59.5</ele>
        <time>2017-09-23T09:45:14.000Z</time>
      </trkpt>
      <trkpt lat="48.19645" lon="-3.76061">
        <ele>59.5</ele>
        <time>2017-09-23T09:45:15.000Z</time>
      </trkpt>
      <trkpt lat="48.19643" lon="-3.76061">
        <ele>59.5</ele>
        <time>2017-09-23T09:45:16.000Z</time>
      </trkpt>
      <trkpt lat="48.19642" lon="-3.76062">
        <ele>59.5</ele>
        <time>2017-09-23T09:45:17.000Z</time>
      </trkpt>
      <trkpt lat="48.19641" lon="-3.76062">
        <ele>59.5</ele>
        <time>2017-09-23T09:45:18.000Z</time>
      </trkpt>
      <trkpt lat="48.1964" lon="-3.76063">
        <ele>59.4</ele>
        <time>2017-09-23T09:45:19.000Z</time>
      </trkpt>
      <trkpt lat="48.19639" lon="-3.76063">
        <ele>59.4</ele>
        <time>2017-09-23T09:45:20.000Z</time>
      </trkpt>
      <trkpt lat="48.19637" lon="-3.76064">
        <ele>59.4</ele>
        <time>2017-09-23T09:45:21.000Z</time>
      </trkpt>
      <trkpt lat="48.19636" lon="-3.76065">
        <ele>59.4</ele>
        <time>2017-09-23T09:45:22.000Z</time>
      </trkpt>
      <trkpt lat="48.19635" lon="-3.76065">
        <ele>59.4</ele>
        <time>2017-09-23T09:45:23.000Z</time>
      </trkpt>
      <trkpt lat="48.19634" lon="-3.76066">
        <ele>59.4</ele>
        <time>2017-09-23T09:45:24.000Z</time>
      </trkpt>
      <trkpt lat="48.19633" lon="-3.76066">
        <ele>59.3</ele>
        <time>2017-09-23T09:45:25.000Z</time>
      </trkpt>
      <trkpt lat="48.19631" lon="-3.76067">
        <ele>59.3</ele>
        <time>2017-09-23T09:45:26.000Z</time>
      </trkpt>
      <trkpt lat="48.1963" lon="-3.76067">
        <ele>59.3</ele>
        <time>2017-09-23T09:45:27.000Z</time>
      </trkpt>
      <trkpt lat="48.19629" lon="-3.76068">
        <ele>59.3</ele>
        <time>2017-09-23T09:45:28.000Z</time>
      </trkpt>
      <trkpt lat="48.19628" lon="-3.76069">
        <ele>59.3</ele>
        <time>2017-09-23T09:45:29.000Z</time>
      </trkpt>
      <trkpt lat="48.19627" lon="-3.76069">
        <ele>59.3</ele>
        <time>2017-09-23T09:45:30.000Z</time>
      </trkpt>
      <trkpt lat="48.19625" lon="-3.7607">
        <ele>59.2</ele>
        <time>2017-09-23T09:45:31.000Z</time>
      </trkpt>
      <trkpt lat="48.19624" lon="-3.7607">
        <ele>59.2</ele>
        <time>2017-09-23T09:45:32.000Z</time>
      </trkpt>
      <trkpt lat="48.19623" lon="-3.76071">
        <ele>59.2</ele>
        <time>2017-09-23T09:45:33.000Z</time>
      </trkpt>
      <trkpt lat="48.19622" lon="-3.76072">
        <ele>59.2</ele>
        <time>2017-09-23T09:45:34.000Z</time>
      </trkpt>
      <trkpt lat="48.19621" lon="-3.76072">
        <ele>59.2</ele>
        <time>2017-09-23T09:45:35.000Z</time>
      </trkpt>
      <trkpt lat="48.19619" lon="-3.76073">
        <ele>59.1</ele>
        <time>2017-09-23T09:45:36.000Z</time>
      </trkpt>
      <trkpt lat="48.19618" lon="-3.76073">
        <ele>59.1</ele>
        <time>2017-09-23T09:45:37.000Z</time>
      </trkpt>
      <trkpt lat="48.19617" lon="-3.76074">
        <ele>59.1</ele>
        <time>2017-09-23T09:45:38.000Z</time>
      </trkpt>
      <trkpt lat="48.19616" lon="-3.76075">
        <ele>59</ele>
        <time>2017-09-23T09:45:39.000Z</time>
      </trkpt>
      <trkpt lat="48.19615" lon="-3.76075">
        <ele>59</ele>
        <time>2017-09-23T09:45:40.000Z</time>
      </trkpt>
      <trkpt lat="48.19614" lon="-3.76076">
        <ele>59</ele>
        <time>2017-09-23T09:45:41.000Z</time>
      </trkpt>
      <trkpt lat="48.19613" lon="-3.76077">
        <ele>58.9</ele>
        <time>2017-09-23T09:45:42.000Z</time>
      </trkpt>
      <trkpt lat="48.19611" lon="-3.76077">
        <ele>58.9</ele>
        <time>2017-09-23T09:45:43.000Z</time>
      </trkpt>
      <trkpt lat="48.1961" lon="-3.76078">
        <ele>58.9</ele>
        <time>2017-09-23T09:45:44.000Z</time>
      </trkpt>
      <trkpt lat="48.19609" lon="-3.76078">
        <ele>58.8</ele>
        <time>2017-09-23T09:45:45.000Z</time>
      </trkpt>
      <trkpt lat="48.19608" lon="-3.76079">
        <ele>58.8</ele>
        <time>2017-09-23T09:45:46.000Z</time>
      </trkpt>
      <trkpt lat="48.19607" lon="-3.7608">
        <ele>58.8</ele>
        <time>2017-09-23T09:45:47.000Z</time>
      </trkpt>
      <trkpt lat="48.19606" lon="-3.7608">
        <ele>58.7</ele>
        <time>2017-09-23T09:45:48.000Z</time>
      </trkpt>
      <trkpt lat="48.19605" lon="-3.76081">
        <ele>58.7</ele>
        <time>2017-09-23T09:45:49.000Z</time>
      </trkpt>
      <trkpt lat="48.19603" lon="-3.76082">
        <ele>58.7</ele>
        <time>2017-09-23T09:45:50.000Z</time>
      </trkpt>
      <trkpt lat="48.19602" lon="-3.76082">
        <ele>58.6</ele>
        <time>2017-09-23T09:45:51.000Z</time>
      </trkpt>
      <trkpt lat="48.19601" lon="-3.76083">
        <ele>58.6</ele>
        <time>2017-09-23T09:45:52.000Z</time>
      </trkpt>
      <trkpt lat="48.196" lon="-3.76083">
        <ele>58.6</ele>
        <time>2017-09-23T09:45:53.000Z</time>
      </trkpt>
      <trkpt lat="48.19599" lon="-3.76084">
        <ele>58.7</ele>
        <time>2017-09-23T09:45:54.000Z</time>
      </trkpt>
      <trkpt lat="48.19598" lon="-3.76085">
        <ele>58.7</ele>
        <time>2017-09-23T09:45:55.000Z</time>
      </trkpt>
      <trkpt lat="48.19596" lon="-3.76085">
        <ele>58.8</ele>
        <time>2017-09-23T09:45:56.000Z</time>
      </trkpt>
      <trkpt lat="48.19595" lon="-3.76086">
        <ele>58.8</ele>
        <time>2017-09-23T09:45:57.000Z</time>
      </trkpt>
      <trkpt lat="48.19594" lon="-3.76087">
        <ele>58.9</ele>
        <time>2017-09-23T09:45:58.000Z</time>
      </trkpt>
      <trkpt lat="48.19593" lon="-3.76088">
        <ele>58.9</ele>
        <time>2017-09-23T09:45:59.000Z</time>
      </trkpt>
      <trkpt lat="48.19591" lon="-3.76088">
        <ele>58.9</ele>
        <time>2017-09-23T09:46:00.000Z</time>
      </trkpt>
      <trkpt lat="48.1959" lon="-3.76089">
        <ele>59</ele>
        <time>2017-09-23T09:46:01.000Z</time>
      </trkpt>
      <trkpt lat="48.19589" lon="-3.7609">
        <ele>59</ele>
        <time>2017-09-23T09:46:02.000Z</time>
      </trkpt>
      <trkpt lat="48.19588" lon="-3.76091">
        <ele>59</ele>
        <time>2017-09-23T09:46:03.000Z</time>
      </trkpt>
      <trkpt lat="48.19587" lon="-3.76092">
        <ele>59</ele>
        <time>2017-09-23T09:46:04.000Z</time>
      </trkpt>
      <trkpt lat="48.19585" lon="-3.76093">
        <ele>59.1</ele>
        <time>2017-09-23T09:46:05.000Z</time>
      </trkpt>
      <trkpt lat="48.19584" lon="-3.76094">
        <ele>59.1</ele>
        <time>2017-09-23T09:46:06.000Z</time>
      </trkpt>
      <trkpt lat="48.19583" lon="-3.76095">
        <ele>59.1</ele>
        <time>2017-09-23T09:46:07.000Z</time>
      </trkpt>
      <trkpt lat="48.19582" lon="-3.76096">
        <ele>59.1</ele>
        <time>2017-09-23T09:46:08.000Z</time>
      </trkpt>
      <trkpt lat="48.1958" lon="-3.76097">
        <ele>59.2</ele>
        <time>2017-09-23T09:46:09.000Z</time>
      </trkpt>
      <trkpt lat="48.19579" lon="-3.76098">
        <ele>59.2</ele>
        <time>2017-09-23T09:46:10.000Z</time>
      </trkpt>
      <trkpt lat="48.19578" lon="-3.76099">
        <ele>59.2</ele>
        <time>2017-09-23T09:46:11.000Z</time>
      </trkpt>
      <trkpt lat="48.19577" lon="-3.761">
        <ele>59.2</ele>
        <time>2017-09-23T09:46:12.000Z</time>
      </trkpt>
      <trkpt lat="48.19576" lon="-3.76101">
        <ele>59.3</ele>
        <time>2017-09-23T09:46:13.000Z</time>
      </trkpt>
      <trkpt lat="48.19574" lon="-3.76102">
        <ele>59.3</ele>
        <time>2017-09-23T09:46:14.000Z</time>
      </trkpt>
      <trkpt lat="48.19573" lon="-3.76103">
        <ele>59.3</ele>
        <time>2017-09-23T09:46:15.000Z</time>
      </trkpt>
      <trkpt lat="48.19572" lon="-3.76104">
        <ele>59.3</ele>
        <time>2017-09-23T09:46:16.000Z</time>
      </trkpt>
      <trkpt lat="48.19571" lon="-3.76105">
        <ele>59.4</ele>
        <time>2017-09-23T09:46:17.000Z</time>
      </trkpt>
      <trkpt lat="48.1957" lon="-3.76105">
        <ele>59.4</ele>
        <time>2017-09-23T09:46:18.000Z</time>
      </trkpt>
      <trkpt lat="48.19569" lon="-3.76106">
        <ele>59.4</ele>
        <time>2017-09-23T09:46:19.000Z</time>
      </trkpt>
      <trkpt lat="48.19568" lon="-3.76107">
        <ele>59.4</ele>
        <time>2017-09-23T09:46:20.000Z</time>
      </trkpt>
      <trkpt lat="48.19566" lon="-3.76108">
        <ele>59.5</ele>
        <time>2017-09-23T09:46:21.000Z</time>
      </trkpt>
      <trkpt lat="48.19565" lon="-3.76109">
        <ele>59.5</ele>
        <time>2017-09-23T09:46:22.000Z</time>
      </trkpt>
      <trkpt lat="48.19564" lon="-3.76109">
        <ele>59.5</ele>
        <time>2017-09-23T09:46:23.000Z</time>
      </trkpt>
      <trkpt lat="48.19563" lon="-3.7611">
        <ele>59.6</ele>
        <time>2017-09-23T09:46:24.000Z</time>
      </trkpt>
      <trkpt lat="48.19562" lon="-3.7611">
        <ele>59.6</ele>
        <time>2017-09-23T09:46:25.000Z</time>
      </trkpt>
      <trkpt lat="48.19561" lon="-3.76111">
        <ele>59.7</ele>
        <time>2017-09-23T09:46:26.000Z</time>
      </trkpt>
      <trkpt lat="48.1956" lon="-3.76111">
        <ele>59.8</ele>
        <time>2017-09-23T09:46:27.000Z</time>
      </trkpt>
      <trkpt lat="48.19559" lon="-3.76111">
        <ele>59.8</ele>
        <time>2017-09-23T09:46:28.000Z</time>
      </trkpt>
      <trkpt lat="48.19558" lon="-3.76111">
        <ele>59.9</ele>
        <time>2017-09-23T09:46:29.000Z</time>
      </trkpt>
      <trkpt lat="48.19557" lon="-3.76111">
        <ele>60</ele>
        <time>2017-09-23T09:46:30.000Z</time>
      </trkpt>
      <trkpt lat="48.19556" lon="-3.76111">
        <ele>60.1</ele>
        <time>2017-09-23T09:46:31.000Z</time>
      </trkpt>
      <trkpt lat="48.19555" lon="-3.76111">
        <ele>60.2</ele>
        <time>2017-09-23T09:46:32.000Z</time>
      </trkpt>
      <trkpt lat="48.19555" lon="-3.76111">
        <ele>60.3</ele>
        <time>2017-09-23T09:46:33.000Z</time>
      </trkpt>
      <trkpt lat="48.19554" lon="-3.76111">
        <ele>60.3</ele>
        <time>2017-09-23T09:46:34.000Z</time>
      </trkpt>
      <trkpt lat="48.19554" lon="-3.76111">
        <ele>60.3</ele>
        <time>2017-09-23T09:46:35.000Z</time>
      </trkpt>
      <trkpt lat="48.19554" lon="-3.7611">
        <ele>60.3</ele>
        <time>2017-09-23T09:46:36.000Z</time>
      </trkpt>
      <trkpt lat="48.19553" lon="-3.7611">
        <ele>60.4</ele>
        <time>2017-09-23T09:46:37.000Z</time>
      </trkpt>
      <trkpt lat="48.19553" lon="-3.7611">
        <ele>60.5</ele>
        <time>2017-09-23T09:46:38.000Z</time>
      </trkpt>
      <trkpt lat="48.19552" lon="-3.7611">
        <ele>60.5</ele>
        <time>2017-09-23T09:46:39.000Z</time>
      </trkpt>
      <trkpt lat="48.1955" lon="-3.76111">
        <ele>60.6</ele>
        <time>2017-09-23T09:46:40.000Z</time>
      </trkpt>
      <trkpt lat="48.19549" lon="-3.76112">
        <ele>60.6</ele>
        <time>2017-09-23T09:46:41.000Z</time>
      </trkpt>
      <trkpt lat="48.19548" lon="-3.76113">
        <ele>60.6</ele>
        <time>2017-09-23T09:46:42.000Z</time>
      </trkpt>
      <trkpt lat="48.19546" lon="-3.76114">
        <ele>60.6</ele>
        <time>2017-09-23T09:46:43.000Z</time>
      </trkpt>
      <trkpt lat="48.19545" lon="-3.76116">
        <ele>60.5</ele>
        <time>2017-09-23T09:46:44.000Z</time>
      </trkpt>
      <trkpt lat="48.19544" lon="-3.76117">
        <ele>60.5</ele>
        <time>2017-09-23T09:46:45.000Z</time>
      </trkpt>
      <trkpt lat="48.19542" lon="-3.76119">
        <ele>60.4</ele>
        <time>2017-09-23T09:46:46.000Z</time>
      </trkpt>
      <trkpt lat="48.19541" lon="-3.7612">
        <ele>60.4</ele>
        <time>2017-09-23T09:46:47.000Z</time>
      </trkpt>
      <trkpt lat="48.19539" lon="-3.76122">
        <ele>60.3</ele>
        <time>2017-09-23T09:46:48.000Z</time>
      </trkpt>
      <trkpt lat="48.19538" lon="-3.76123">
        <ele>60.3</ele>
        <time>2017-09-23T09:46:49.000Z</time>
      </trkpt>
      <trkpt lat="48.19537" lon="-3.76124">
        <ele>60.3</ele>
        <time>2017-09-23T09:46:50.000Z</time>
      </trkpt>
      <trkpt lat="48.19535" lon="-3.76125">
        <ele>60.3</ele>
        <time>2017-09-23T09:46:51.000Z</time>
      </trkpt>
      <trkpt lat="48.19534" lon="-3.76126">
        <ele>60.3</ele>
        <time>2017-09-23T09:46:52.000Z</time>
      </trkpt>
      <trkpt lat="48.19533" lon="-3.76127">
        <ele>60.3</ele>
        <time>2017-09-23T09:46:53.000Z</time>
      </trkpt>
      <trkpt lat="48.19531" lon="-3.76127">
        <ele>60.3</ele>
        <time>2017-09-23T09:46:54.000Z</time>
      </trkpt>
      <trkpt lat="48.1953" lon="-3.76128">
        <ele>60.3</ele>
        <time>2017-09-23T09:46:55.000Z</time>
      </trkpt>
      <trkpt lat="48.19529" lon="-3.76129">
        <ele>60.3</ele>
        <time>2017-09-23T09:46:56.000Z</time>
      </trkpt>
      <trkpt lat="48.19527" lon="-3.76129">
        <ele>60.3</ele>
        <time>2017-09-23T09:46:57.000Z</time>
      </trkpt>
      <trkpt lat="48.19526" lon="-3.7613">
        <ele>60.3</ele>
        <time>2017-09-23T09:46:58.000Z</time>
      </trkpt>
      <trkpt lat="48.19525" lon="-3.76131">
        <ele>60.4</ele>
        <time>2017-09-23T09:46:59.000Z</time>
      </trkpt>
      <trkpt lat="48.19524" lon="-3.76131">
        <ele>60.4</ele>
        <time>2017-09-23T09:47:00.000Z</time>
      </trkpt>
      <trkpt lat="48.19522" lon="-3.76132">
        <ele>60.4</ele>
        <time>2017-09-23T09:47:01.000Z</time>
      </trkpt>
      <trkpt lat="48.19521" lon="-3.76133">
        <ele>60.3</ele>
        <time>2017-09-23T09:47:02.000Z</time>
      </trkpt>
      <trkpt lat="48.1952" lon="-3.76134">
        <ele>60.3</ele>
        <time>2017-09-23T09:47:03.000Z</time>
      </trkpt>
      <trkpt lat="48.19519" lon="-3.76134">
        <ele>60.3</ele>
        <time>2017-09-23T09:47:04.000Z</time>
      </trkpt>
      <trkpt lat="48.19518" lon="-3.76135">
        <ele>60.3</ele>
        <time>2017-09-23T09:47:05.000Z</time>
      </trkpt>
      <trkpt lat="48.19517" lon="-3.76136">
        <ele>60.3</ele>
        <time>2017-09-23T09:47:06.000Z</time>
      </trkpt>
      <trkpt lat="48.19516" lon="-3.76137">
        <ele>60.2</ele>
        <time>2017-09-23T09:47:07.000Z</time>
      </trkpt>
      <trkpt lat="48.19514" lon="-3.76138">
        <ele>60.2</ele>
        <time>2017-09-23T09:47:08.000Z</time>
      </trkpt>
      <trkpt lat="48.19513" lon="-3.76138">
        <ele>60.2</ele>
        <time>2017-09-23T09:47:09.000Z</time>
      </trkpt>
      <trkpt lat="48.19512" lon="-3.76139">
        <ele>60.1</ele>
        <time>2017-09-23T09:47:10.000Z</time>
      </trkpt>
      <trkpt lat="48.19511" lon="-3.7614">
        <ele>60.1</ele>
        <time>2017-09-23T09:47:11.000Z</time>
      </trkpt>
      <trkpt lat="48.1951" lon="-3.76141">
        <ele>60.1</ele>
        <time>2017-09-23T09:47:12.000Z</time>
      </trkpt>
      <trkpt lat="48.19509" lon="-3.76142">
        <ele>60</ele>
        <time>2017-09-23T09:47:13.000Z</time>
      </trkpt>
      <trkpt lat="48.19508" lon="-3.76142">
        <ele>60</ele>
        <time>2017-09-23T09:47:14.000Z</time>
      </trkpt>
      <trkpt lat="48.19507" lon="-3.76143">
        <ele>60</ele>
        <time>2017-09-23T09:47:15.000Z</time>
      </trkpt>
      <trkpt lat="48.19506" lon="-3.76144">
        <ele>59.9</ele>
        <time>2017-09-23T09:47:16.000Z</time>
      </trkpt>
      <trkpt lat="48.19505" lon="-3.76145">
        <ele>59.9</ele>
        <time>2017-09-23T09:47:17.000Z</time>
      </trkpt>
      <trkpt lat="48.19504" lon="-3.76145">
        <ele>59.8</ele>
        <time>2017-09-23T09:47:18.000Z</time>
      </trkpt>
      <trkpt lat="48.19502" lon="-3.76146">
        <ele>59.8</ele>
        <time>2017-09-23T09:47:19.000Z</time>
      </trkpt>
      <trkpt lat="48.19501" lon="-3.76147">
        <ele>59.8</ele>
        <time>2017-09-23T09:47:20.000Z</time>
      </trkpt>
      <trkpt lat="48.195" lon="-3.76148">
        <ele>59.7</ele>
        <time>2017-09-23T09:47:21.000Z</time>
      </trkpt>
      <trkpt lat="48.19499" lon="-3.76148">
        <ele>59.6</ele>
        <time>2017-09-23T09:47:22.000Z</time>
      </trkpt>
      <trkpt lat="48.19498" lon="-3.76149">
        <ele>59.5</ele>
        <time>2017-09-23T09:47:23.000Z</time>
      </trkpt>
      <trkpt lat="48.19497" lon="-3.7615">
        <ele>59.5</ele>
        <time>2017-09-23T09:47:24.000Z</time>
      </trkpt>
      <trkpt lat="48.19496" lon="-3.7615">
        <ele>59.4</ele>
        <time>2017-09-23T09:47:25.000Z</time>
      </trkpt>
      <trkpt lat="48.19494" lon="-3.76151">
        <ele>59.2</ele>
        <time>2017-09-23T09:47:26.000Z</time>
      </trkpt>
      <trkpt lat="48.19493" lon="-3.76152">
        <ele>59.2</ele>
        <time>2017-09-23T09:47:27.000Z</time>
      </trkpt>
      <trkpt lat="48.19492" lon="-3.76153">
        <ele>59</ele>
        <time>2017-09-23T09:47:28.000Z</time>
      </trkpt>
      <trkpt lat="48.19491" lon="-3.76154">
        <ele>58.9</ele>
        <time>2017-09-23T09:47:29.000Z</time>
      </trkpt>
      <trkpt lat="48.1949" lon="-3.76154">
        <ele>58.8</ele>
        <time>2017-09-23T09:47:30.000Z</time>
      </trkpt>
      <trkpt lat="48.19488" lon="-3.76155">
        <ele>58.7</ele>
        <time>2017-09-23T09:47:31.000Z</time>
      </trkpt>
      <trkpt lat="48.19487" lon="-3.76156">
        <ele>58.6</ele>
        <time>2017-09-23T09:47:32.000Z</time>
      </trkpt>
      <trkpt lat="48.19486" lon="-3.76157">
        <ele>58.5</ele>
        <time>2017-09-23T09:47:33.000Z</time>
      </trkpt>
      <trkpt lat="48.19485" lon="-3.76158">
        <ele>58.4</ele>
        <time>2017-09-23T09:47:34.000Z</time>
      </trkpt>
      <trkpt lat="48.19484" lon="-3.76158">
        <ele>58.3</ele>
        <time>2017-09-23T09:47:35.000Z</time>
      </trkpt>
      <trkpt lat="48.19483" lon="-3.76159">
        <ele>58.2</ele>
        <time>2017-09-23T09:47:36.000Z</time>
      </trkpt>
      <trkpt lat="48.19481" lon="-3.7616">
        <ele>58.1</ele>
        <time>2017-09-23T09:47:37.000Z</time>
      </trkpt>
      <trkpt lat="48.1948" lon="-3.76161">
        <ele>58</ele>
        <time>2017-09-23T09:47:38.000Z</time>
      </trkpt>
      <trkpt lat="48.19479" lon="-3.76162">
        <ele>57.9</ele>
        <time>2017-09-23T09:47:39.000Z</time>
      </trkpt>
      <trkpt lat="48.19478" lon="-3.76163">
        <ele>57.8</ele>
        <time>2017-09-23T09:47:40.000Z</time>
      </trkpt>
      <trkpt lat="48.19477" lon="-3.76163">
        <ele>57.7</ele>
        <time>2017-09-23T09:47:41.000Z</time>
      </trkpt>
      <trkpt lat="48.19476" lon="-3.76164">
        <ele>57.6</ele>
        <time>2017-09-23T09:47:42.000Z</time>
      </trkpt>
      <trkpt lat="48.19475" lon="-3.76165">
        <ele>57.5</ele>
        <time>2017-09-23T09:47:43.000Z</time>
      </trkpt>
      <trkpt lat="48.19474" lon="-3.76166">
        <ele>57.4</ele>
        <time>2017-09-23T09:47:44.000Z</time>
      </trkpt>
      <trkpt lat="48.19473" lon="-3.76167">
        <ele>57.4</ele>
        <time>2017-09-23T09:47:45.000Z</time>
      </trkpt>
      <trkpt lat="48.19472" lon="-3.76167">
        <ele>57.3</ele>
        <time>2017-09-23T09:47:46.000Z</time>
      </trkpt>
      <trkpt lat="48.1947" lon="-3.76168">
        <ele>57.3</ele>
        <time>2017-09-23T09:47:47.000Z</time>
      </trkpt>
      <trkpt lat="48.19469" lon="-3.76169">
        <ele>57.3</ele>
        <time>2017-09-23T09:47:48.000Z</time>
      </trkpt>
      <trkpt lat="48.19468" lon="-3.7617">
        <ele>57.3</ele>
        <time>2017-09-23T09:47:49.000Z</time>
      </trkpt>
      <trkpt lat="48.19467" lon="-3.7617">
        <ele>57.3</ele>
        <time>2017-09-23T09:47:50.000Z</time>
      </trkpt>
      <trkpt lat="48.19466" lon="-3.76171">
        <ele>57.3</ele>
        <time>2017-09-23T09:47:51.000Z</time>
      </trkpt>
      <trkpt lat="48.19465" lon="-3.76172">
        <ele>57.3</ele>
        <time>2017-09-23T09:47:52.000Z</time>
      </trkpt>
      <trkpt lat="48.19464" lon="-3.76172">
        <ele>57.2</ele>
        <time>2017-09-23T09:47:53.000Z</time>
      </trkpt>
      <trkpt lat="48.19463" lon="-3.76173">
        <ele>57.2</ele>
        <time>2017-09-23T09:47:54.000Z</time>
      </trkpt>
      <trkpt lat="48.19462" lon="-3.76173">
        <ele>57.2</ele>
        <time>2017-09-23T09:47:55.000Z</time>
      </trkpt>
      <trkpt lat="48.1946" lon="-3.76174">
        <ele>57.2</ele>
        <time>2017-09-23T09:47:56.000Z</time>
      </trkpt>
      <trkpt lat="48.19459" lon="-3.76174">
        <ele>57.2</ele>
        <time>2017-09-23T09:47:57.000Z</time>
      </trkpt>
      <trkpt lat="48.19458" lon="-3.76175">
        <ele>57.2</ele>
        <time>2017-09-23T09:47:58.000Z</time>
      </trkpt>
      <trkpt lat="48.19457" lon="-3.76175">
        <ele>57.2</ele>
        <time>2017-09-23T09:47:59.000Z</time>
      </trkpt>
      <trkpt lat="48.19455" lon="-3.76176">
        <ele>57.2</ele>
        <time>2017-09-23T09:48:00.000Z</time>
      </trkpt>
      <trkpt lat="48.19454" lon="-3.76176">
        <ele>57.2</ele>
        <time>2017-09-23T09:48:01.000Z</time>
      </trkpt>
      <trkpt lat="48.19453" lon="-3.76177">
        <ele>57.2</ele>
        <time>2017-09-23T09:48:02.000Z</time>
      </trkpt>
      <trkpt lat="48.19452" lon="-3.76177">
        <ele>57.2</ele>
        <time>2017-09-23T09:48:03.000Z</time>
      </trkpt>
      <trkpt lat="48.1945" lon="-3.76178">
        <ele>57.2</ele>
        <time>2017-09-23T09:48:04.000Z</time>
      </trkpt>
      <trkpt lat="48.19449" lon="-3.76178">
        <ele>57.2</ele>
        <time>2017-09-23T09:48:05.000Z</time>
      </trkpt>
      <trkpt lat="48.19448" lon="-3.76179">
        <ele>57.2</ele>
        <time>2017-09-23T09:48:06.000Z</time>
      </trkpt>
      <trkpt lat="48.19446" lon="-3.76179">
        <ele>57.2</ele>
        <time>2017-09-23T09:48:07.000Z</time>
      </trkpt>
      <trkpt lat="48.19445" lon="-3.76179">
        <ele>57.2</ele>
        <time>2017-09-23T09:48:08.000Z</time>
      </trkpt>
      <trkpt lat="48.19444" lon="-3.7618">
        <ele>57.1</ele>
        <time>2017-09-23T09:48:09.000Z</time>
      </trkpt>
      <trkpt lat="48.19443" lon="-3.7618">
        <ele>57.1</ele>
        <time>2017-09-23T09:48:10.000Z</time>
      </trkpt>
      <trkpt lat="48.19442" lon="-3.76181">
        <ele>57.1</ele>
        <time>2017-09-23T09:48:11.000Z</time>
      </trkpt>
      <trkpt lat="48.19441" lon="-3.76182">
        <ele>57.1</ele>
        <time>2017-09-23T09:48:12.000Z</time>
      </trkpt>
      <trkpt lat="48.1944" lon="-3.76182">
        <ele>57.1</ele>
        <time>2017-09-23T09:48:13.000Z</time>
      </trkpt>
      <trkpt lat="48.19438" lon="-3.76183">
        <ele>57.1</ele>
        <time>2017-09-23T09:48:14.000Z</time>
      </trkpt>
      <trkpt lat="48.19437" lon="-3.76184">
        <ele>57</ele>
        <time>2017-09-23T09:48:15.000Z</time>
      </trkpt>
      <trkpt lat="48.19436" lon="-3.76184">
        <ele>57</ele>
        <time>2017-09-23T09:48:16.000Z</time>
      </trkpt>
      <trkpt lat="48.19435" lon="-3.76185">
        <ele>57</ele>
        <time>2017-09-23T09:48:17.000Z</time>
      </trkpt>
      <trkpt lat="48.19434" lon="-3.76186">
        <ele>57</ele>
        <time>2017-09-23T09:48:18.000Z</time>
      </trkpt>
      <trkpt lat="48.19433" lon="-3.76186">
        <ele>57</ele>
        <time>2017-09-23T09:48:19.000Z</time>
      </trkpt>
      <trkpt lat="48.19432" lon="-3.76187">
        <ele>56.9</ele>
        <time>2017-09-23T09:48:20.000Z</time>
      </trkpt>
      <trkpt lat="48.1943" lon="-3.76188">
        <ele>56.9</ele>
        <time>2017-09-23T09:48:21.000Z</time>
      </trkpt>
      <trkpt lat="48.19429" lon="-3.76189">
        <ele>56.9</ele>
        <time>2017-09-23T09:48:22.000Z</time>
      </trkpt>
      <trkpt lat="48.19428" lon="-3.76189">
        <ele>56.9</ele>
        <time>2017-09-23T09:48:23.000Z</time>
      </trkpt>
      <trkpt lat="48.19426" lon="-3.7619">
        <ele>56.8</ele>
        <time>2017-09-23T09:48:24.000Z</time>
      </trkpt>
      <trkpt lat="48.19425" lon="-3.76191">
        <ele>56.8</ele>
        <time>2017-09-23T09:48:25.000Z</time>
      </trkpt>
      <trkpt lat="48.19424" lon="-3.76191">
        <ele>56.8</ele>
        <time>2017-09-23T09:48:26.000Z</time>
      </trkpt>
      <trkpt lat="48.19423" lon="-3.76192">
        <ele>56.8</ele>
        <time>2017-09-23T09:48:27.000Z</time>
      </trkpt>
      <trkpt lat="48.19421" lon="-3.76193">
        <ele>56.7</ele>
        <time>2017-09-23T09:48:28.000Z</time>
      </trkpt>
      <trkpt lat="48.1942" lon="-3.76193">
        <ele>56.7</ele>
        <time>2017-09-23T09:48:29.000Z</time>
      </trkpt>
      <trkpt lat="48.19419" lon="-3.76194">
        <ele>56.7</ele>
        <time>2017-09-23T09:48:30.000Z</time>
      </trkpt>
      <trkpt lat="48.19418" lon="-3.76194">
        <ele>56.7</ele>
        <time>2017-09-23T09:48:31.000Z</time>
      </trkpt>
      <trkpt lat="48.19416" lon="-3.76194">
        <ele>56.7</ele>
        <time>2017-09-23T09:48:32.000Z</time>
      </trkpt>
      <trkpt lat="48.19415" lon="-3.76194">
        <ele>56.6</ele>
        <time>2017-09-23T09:48:33.000Z</time>
      </trkpt>
      <trkpt lat="48.19414" lon="-3.76195">
        <ele>56.6</ele>
        <time>2017-09-23T09:48:34.000Z</time>
      </trkpt>
      <trkpt lat="48.19413" lon="-3.76195">
        <ele>56.5</ele>
        <time>2017-09-23T09:48:35.000Z</time>
      </trkpt>
      <trkpt lat="48.19412" lon="-3.76195">
        <ele>56.5</ele>
        <time>2017-09-23T09:48:36.000Z</time>
      </trkpt>
      <trkpt lat="48.19411" lon="-3.76194">
        <ele>56.5</ele>
        <time>2017-09-23T09:48:37.000Z</time>
      </trkpt>
      <trkpt lat="48.19409" lon="-3.76194">
        <ele>56.5</ele>
        <time>2017-09-23T09:48:38.000Z</time>
      </trkpt>
      <trkpt lat="48.19408" lon="-3.76194">
        <ele>56.5</ele>
        <time>2017-09-23T09:48:39.000Z</time>
      </trkpt>
      <trkpt lat="48.19407" lon="-3.76193">
        <ele>56.5</ele>
        <time>2017-09-23T09:48:40.000Z</time>
      </trkpt>
      <trkpt lat="48.19406" lon="-3.76193">
        <ele>56.5</ele>
        <time>2017-09-23T09:48:41.000Z</time>
      </trkpt>
      <trkpt lat="48.19406" lon="-3.76192">
        <ele>56.5</ele>
        <time>2017-09-23T09:48:42.000Z</time>
      </trkpt>
      <trkpt lat="48.19405" lon="-3.76191">
        <ele>56.5</ele>
        <time>2017-09-23T09:48:43.000Z</time>
      </trkpt>
      <trkpt lat="48.19404" lon="-3.7619">
        <ele>56.5</ele>
        <time>2017-09-23T09:48:44.000Z</time>
      </trkpt>
      <trkpt lat="48.19403" lon="-3.76189">
        <ele>56.5</ele>
        <time>2017-09-23T09:48:45.000Z</time>
      </trkpt>
      <trkpt lat="48.19402" lon="-3.76188">
        <ele>56.5</ele>
        <time>2017-09-23T09:48:46.000Z</time>
      </trkpt>
      <trkpt lat="48.19401" lon="-3.76187">
        <ele>56.5</ele>
        <time>2017-09-23T09:48:47.000Z</time>
      </trkpt>
      <trkpt lat="48.19401" lon="-3.76186">
        <ele>56.5</ele>
        <time>2017-09-23T09:48:48.000Z</time>
      </trkpt>
      <trkpt lat="48.194" lon="-3.76185">
        <ele>56.5</ele>
        <time>2017-09-23T09:48:49.000Z</time>
      </trkpt>
      <trkpt lat="48.19399" lon="-3.76184">
        <ele>56.6</ele>
        <time>2017-09-23T09:48:50.000Z</time>
      </trkpt>
      <trkpt lat="48.19398" lon="-3.76182">
        <ele>56.6</ele>
        <time>2017-09-23T09:48:51.000Z</time>
      </trkpt>
      <trkpt lat="48.19398" lon="-3.76181">
        <ele>56.6</ele>
        <time>2017-09-23T09:48:52.000Z</time>
      </trkpt>
      <trkpt lat="48.19397" lon="-3.7618">
        <ele>56.6</ele>
        <time>2017-09-23T09:48:53.000Z</time>
      </trkpt>
      <trkpt lat="48.19396" lon="-3.76179">
        <ele>56.6</ele>
        <time>2017-09-23T09:48:54.000Z</time>
      </trkpt>
      <trkpt lat="48.19395" lon="-3.76178">
        <ele>56.6</ele>
        <time>2017-09-23T09:48:55.000Z</time>
      </trkpt>
      <trkpt lat="48.19395" lon="-3.76177">
        <ele>56.6</ele>
        <time>2017-09-23T09:48:56.000Z</time>
      </trkpt>
      <trkpt lat="48.19394" lon="-3.76175">
        <ele>56.6</ele>
        <time>2017-09-23T09:48:57.000Z</time>
      </trkpt>
      <trkpt lat="48.19393" lon="-3.76174">
        <ele>56.6</ele>
        <time>2017-09-23T09:48:58.000Z</time>
      </trkpt>
      <trkpt lat="48.19392" lon="-3.76173">
        <ele>56.6</ele>
        <time>2017-09-23T09:48:59.000Z</time>
      </trkpt>
      <trkpt lat="48.19391" lon="-3.76172">
        <ele>56.6</ele>
        <time>2017-09-23T09:49:00.000Z</time>
      </trkpt>
      <trkpt lat="48.19391" lon="-3.76171">
        <ele>56.6</ele>
        <time>2017-09-23T09:49:01.000Z</time>
      </trkpt>
      <trkpt lat="48.1939" lon="-3.7617">
        <ele>56.6</ele>
        <time>2017-09-23T09:49:02.000Z</time>
      </trkpt>
      <trkpt lat="48.19389" lon="-3.7617">
        <ele>56.6</ele>
        <time>2017-09-23T09:49:03.000Z</time>
      </trkpt>
      <trkpt lat="48.19388" lon="-3.76169">
        <ele>56.6</ele>
        <time>2017-09-23T09:49:04.000Z</time>
      </trkpt>
      <trkpt lat="48.19388" lon="-3.76168">
        <ele>56.6</ele>
        <time>2017-09-23T09:49:05.000Z</time>
      </trkpt>
      <trkpt lat="48.19387" lon="-3.76167">
        <ele>56.6</ele>
        <time>2017-09-23T09:49:06.000Z</time>
      </trkpt>
      <trkpt lat="48.19386" lon="-3.76166">
        <ele>56.6</ele>
        <time>2017-09-23T09:49:07.000Z</time>
      </trkpt>
      <trkpt lat="48.19385" lon="-3.76165">
        <ele>56.6</ele>
        <time>2017-09-23T09:49:08.000Z</time>
      </trkpt>
      <trkpt lat="48.19384" lon="-3.76164">
        <ele>56.7</ele>
        <time>2017-09-23T09:49:09.000Z</time>
      </trkpt>
      <trkpt lat="48.19384" lon="-3.76163">
        <ele>56.7</ele>
        <time>2017-09-23T09:49:10.000Z</time>
      </trkpt>
      <trkpt lat="48.19383" lon="-3.76162">
        <ele>56.8</ele>
        <time>2017-09-23T09:49:11.000Z</time>
      </trkpt>
      <trkpt lat="48.19382" lon="-3.76161">
        <ele>56.8</ele>
        <time>2017-09-23T09:49:12.000Z</time>
      </trkpt>
      <trkpt lat="48.19381" lon="-3.7616">
        <ele>56.9</ele>
        <time>2017-09-23T09:49:13.000Z</time>
      </trkpt>
      <trkpt lat="48.19381" lon="-3.76159">
        <ele>56.9</ele>
        <time>2017-09-23T09:49:14.000Z</time>
      </trkpt>
      <trkpt lat="48.1938" lon="-3.76158">
        <ele>57</ele>
        <time>2017-09-23T09:49:15.000Z</time>
      </trkpt>
      <trkpt lat="48.19379" lon="-3.76157">
        <ele>57</ele>
        <time>2017-09-23T09:49:16.000Z</time>
      </trkpt>
      <trkpt lat="48.19378" lon="-3.76155">
        <ele>57.1</ele>
        <time>2017-09-23T09:49:17.000Z</time>
      </trkpt>
      <trkpt lat="48.19378" lon="-3.76154">
        <ele>57.2</ele>
        <time>2017-09-23T09:49:18.000Z</time>
      </trkpt>
      <trkpt lat="48.19377" lon="-3.76153">
        <ele>57.3</ele>
        <time>2017-09-23T09:49:19.000Z</time>
      </trkpt>
      <trkpt lat="48.19376" lon="-3.76151">
        <ele>57.4</ele>
        <time>2017-09-23T09:49:20.000Z</time>
      </trkpt>
      <trkpt lat="48.19376" lon="-3.7615">
        <ele>57.5</ele>
        <time>2017-09-23T09:49:21.000Z</time>
      </trkpt>
      <trkpt lat="48.19375" lon="-3.76148">
        <ele>57.6</ele>
        <time>2017-09-23T09:49:22.000Z</time>
      </trkpt>
      <trkpt lat="48.19375" lon="-3.76147">
        <ele>57.7</ele>
        <time>2017-09-23T09:49:23.000Z</time>
      </trkpt>
      <trkpt lat="48.19374" lon="-3.76145">
        <ele>57.8</ele>
        <time>2017-09-23T09:49:24.000Z</time>
      </trkpt>
      <trkpt lat="48.19374" lon="-3.76143">
        <ele>57.9</ele>
        <time>2017-09-23T09:49:25.000Z</time>
      </trkpt>
      <trkpt lat="48.19374" lon="-3.76142">
        <ele>58</ele>
        <time>2017-09-23T09:49:26.000Z</time>
      </trkpt>
      <trkpt lat="48.19374" lon="-3.7614">
        <ele>58.2</ele>
        <time>2017-09-23T09:49:27.000Z</time>
      </trkpt>
      <trkpt lat="48.19374" lon="-3.76139">
        <ele>58.3</ele>
        <time>2017-09-23T09:49:28.000Z</time>
      </trkpt>
      <trkpt lat="48.19374" lon="-3.76137">
        <ele>58.4</ele>
        <time>2017-09-23T09:49:29.000Z</time>
      </trkpt>
      <trkpt lat="48.19374" lon="-3.76136">
        <ele>58.5</ele>
        <time>2017-09-23T09:49:30.000Z</time>
      </trkpt>
      <trkpt lat="48.19375" lon="-3.76135">
        <ele>58.7</ele>
        <time>2017-09-23T09:49:31.000Z</time>
      </trkpt>
      <trkpt lat="48.19375" lon="-3.76133">
        <ele>58.8</ele>
        <time>2017-09-23T09:49:32.000Z</time>
      </trkpt>
      <trkpt lat="48.19376" lon="-3.76132">
        <ele>58.9</ele>
        <time>2017-09-23T09:49:33.000Z</time>
      </trkpt>
      <trkpt lat="48.19376" lon="-3.76131">
        <ele>59.1</ele>
        <time>2017-09-23T09:49:34.000Z</time>
      </trkpt>
      <trkpt lat="48.19377" lon="-3.7613">
        <ele>59.2</ele>
        <time>2017-09-23T09:49:35.000Z</time>
      </trkpt>
      <trkpt lat="48.19378" lon="-3.76129">
        <ele>59.3</ele>
        <time>2017-09-23T09:49:36.000Z</time>
      </trkpt>
      <trkpt lat="48.19378" lon="-3.76128">
        <ele>59.4</ele>
        <time>2017-09-23T09:49:37.000Z</time>
      </trkpt>
      <trkpt lat="48.19379" lon="-3.76128">
        <ele>59.5</ele>
        <time>2017-09-23T09:49:38.000Z</time>
      </trkpt>
      <trkpt lat="48.1938" lon="-3.76127">
        <ele>59.6</ele>
        <time>2017-09-23T09:49:39.000Z</time>
      </trkpt>
      <trkpt lat="48.19381" lon="-3.76127">
        <ele>59.7</ele>
        <time>2017-09-23T09:49:40.000Z</time>
      </trkpt>
      <trkpt lat="48.19382" lon="-3.76126">
        <ele>59.8</ele>
        <time>2017-09-23T09:49:41.000Z</time>
      </trkpt>
      <trkpt lat="48.19383" lon="-3.76126">
        <ele>59.9</ele>
        <time>2017-09-23T09:49:42.000Z</time>
      </trkpt>
      <trkpt lat="48.19384" lon="-3.76125">
        <ele>60</ele>
        <time>2017-09-23T09:49:43.000Z</time>
      </trkpt>
      <trkpt lat="48.19385" lon="-3.76125">
        <ele>60.1</ele>
        <time>2017-09-23T09:49:44.000Z</time>
      </trkpt>
      <trkpt lat="48.19385" lon="-3.76124">
        <ele>60.2</ele>
        <time>2017-09-23T09:49:45.000Z</time>
      </trkpt>
      <trkpt lat="48.19386" lon="-3.76124">
        <ele>60.3</ele>
        <time>2017-09-23T09:49:46.000Z</time>
      </trkpt>
      <trkpt lat="48.19387" lon="-3.76123">
        <ele>60.4</ele>
        <time>2017-09-23T09:49:47.000Z</time>
      </trkpt>
      <trkpt lat="48.19388" lon="-3.76122">
        <ele>60.5</ele>
        <time>2017-09-23T09:49:48.000Z</time>
      </trkpt>
      <trkpt lat="48.19389" lon="-3.76121">
        <ele>60.7</ele>
        <time>2017-09-23T09:49:49.000Z</time>
      </trkpt>
      <trkpt lat="48.1939" lon="-3.7612">
        <ele>60.8</ele>
        <time>2017-09-23T09:49:50.000Z</time>
      </trkpt>
      <trkpt lat="48.19391" lon="-3.76119">
        <ele>60.9</ele>
        <time>2017-09-23T09:49:51.000Z</time>
      </trkpt>
      <trkpt lat="48.19392" lon="-3.76118">
        <ele>61.1</ele>
        <time>2017-09-23T09:49:52.000Z</time>
      </trkpt>
      <trkpt lat="48.19393" lon="-3.76117">
        <ele>61.3</ele>
        <time>2017-09-23T09:49:53.000Z</time>
      </trkpt>
      <trkpt lat="48.19395" lon="-3.76116">
        <ele>61.5</ele>
        <time>2017-09-23T09:49:54.000Z</time>
      </trkpt>
      <trkpt lat="48.19396" lon="-3.76115">
        <ele>61.7</ele>
        <time>2017-09-23T09:49:55.000Z</time>
      </trkpt>
      <trkpt lat="48.19398" lon="-3.76114">
        <ele>61.9</ele>
        <time>2017-09-23T09:49:56.000Z</time>
      </trkpt>
      <trkpt lat="48.19399" lon="-3.76113">
        <ele>62.1</ele>
        <time>2017-09-23T09:49:57.000Z</time>
      </trkpt>
      <trkpt lat="48.19401" lon="-3.76112">
        <ele>62.2</ele>
        <time>2017-09-23T09:49:58.000Z</time>
      </trkpt>
      <trkpt lat="48.19402" lon="-3.76111">
        <ele>62.4</ele>
        <time>2017-09-23T09:49:59.000Z</time>
      </trkpt>
      <trkpt lat="48.19403" lon="-3.7611">
        <ele>62.6</ele>
        <time>2017-09-23T09:50:00.000Z</time>
      </trkpt>
      <trkpt lat="48.19404" lon="-3.76109">
        <ele>62.8</ele>
        <time>2017-09-23T09:50:01.000Z</time>
      </trkpt>
      <trkpt lat="48.19405" lon="-3.76108">
        <ele>62.9</ele>
        <time>2017-09-23T09:50:02.000Z</time>
      </trkpt>
      <trkpt lat="48.19406" lon="-3.76107">
        <ele>63.1</ele>
        <time>2017-09-23T09:50:03.000Z</time>
      </trkpt>
      <trkpt lat="48.19407" lon="-3.76106">
        <ele>63.2</ele>
        <time>2017-09-23T09:50:04.000Z</time>
      </trkpt>
      <trkpt lat="48.19408" lon="-3.76105">
        <ele>63.4</ele>
        <time>2017-09-23T09:50:05.000Z</time>
      </trkpt>
      <trkpt lat="48.19409" lon="-3.76104">
        <ele>63.6</ele>
        <time>2017-09-23T09:50:06.000Z</time>
      </trkpt>
      <trkpt lat="48.1941" lon="-3.76103">
        <ele>63.7</ele>
        <time>2017-09-23T09:50:07.000Z</time>
      </trkpt>
      <trkpt lat="48.19412" lon="-3.76102">
        <ele>63.9</ele>
        <time>2017-09-23T09:50:08.000Z</time>
      </trkpt>
      <trkpt lat="48.19413" lon="-3.76101">
        <ele>64.1</ele>
        <time>2017-09-23T09:50:09.000Z</time>
      </trkpt>
      <trkpt lat="48.19414" lon="-3.761">
        <ele>64.2</ele>
        <time>2017-09-23T09:50:10.000Z</time>
      </trkpt>
      <trkpt lat="48.19415" lon="-3.76099">
        <ele>64.4</ele>
        <time>2017-09-23T09:50:11.000Z</time>
      </trkpt>
      <trkpt lat="48.19416" lon="-3.76098">
        <ele>64.5</ele>
        <time>2017-09-23T09:50:12.000Z</time>
      </trkpt>
      <trkpt lat="48.19417" lon="-3.76097">
        <ele>64.7</ele>
        <time>2017-09-23T09:50:13.000Z</time>
      </trkpt>
      <trkpt lat="48.19418" lon="-3.76096">
        <ele>64.8</ele>
        <time>2017-09-23T09:50:14.000Z</time>
      </trkpt>
      <trkpt lat="48.19419" lon="-3.76096">
        <ele>64.9</ele>
        <time>2017-09-23T09:50:15.000Z</time>
      </trkpt>
      <trkpt lat="48.1942" lon="-3.76095">
        <ele>65</ele>
        <time>2017-09-23T09:50:16.000Z</time>
      </trkpt>
      <trkpt lat="48.19421" lon="-3.76094">
        <ele>65.1</ele>
        <time>2017-09-23T09:50:17.000Z</time>
      </trkpt>
      <trkpt lat="48.19422" lon="-3.76093">
        <ele>65.2</ele>
        <time>2017-09-23T09:50:18.000Z</time>
      </trkpt>
      <trkpt lat="48.19423" lon="-3.76092">
        <ele>65.3</ele>
        <time>2017-09-23T09:50:19.000Z</time>
      </trkpt>
      <trkpt lat="48.19424" lon="-3.76092">
        <ele>65.4</ele>
        <time>2017-09-23T09:50:20.000Z</time>
      </trkpt>
      <trkpt lat="48.19424" lon="-3.76091">
        <ele>65.5</ele>
        <time>2017-09-23T09:50:21.000Z</time>
      </trkpt>
      <trkpt lat="48.19425" lon="-3.7609">
        <ele>65.6</ele>
        <time>2017-09-23T09:50:22.000Z</time>
      </trkpt>
      <trkpt lat="48.19426" lon="-3.76089">
        <ele>65.7</ele>
        <time>2017-09-23T09:50:23.000Z</time>
      </trkpt>
      <trkpt lat="48.19426" lon="-3.76088">
        <ele>65.8</ele>
        <time>2017-09-23T09:50:24.000Z</time>
      </trkpt>
      <trkpt lat="48.19427" lon="-3.76088">
        <ele>65.9</ele>
        <time>2017-09-23T09:50:25.000Z</time>
      </trkpt>
      <trkpt lat="48.19427" lon="-3.76087">
        <ele>66</ele>
        <time>2017-09-23T09:50:26.000Z</time>
      </trkpt>
      <trkpt lat="48.19428" lon="-3.76086">
        <ele>66.1</ele>
        <time>2017-09-23T09:50:27.000Z</time>
      </trkpt>
      <trkpt lat="48.19429" lon="-3.76085">
        <ele>66.2</ele>
        <time>2017-09-23T09:50:28.000Z</time>
      </trkpt>
      <trkpt lat="48.19429" lon="-3.76084">
        <ele>66.3</ele>
        <time>2017-09-23T09:50:29.000Z</time>
      </trkpt>
      <trkpt lat="48.1943" lon="-3.76084">
        <ele>66.5</ele>
        <time>2017-09-23T09:50:30.000Z</time>
      </trkpt>
      <trkpt lat="48.1943" lon="-3.76083">
        <ele>66.6</ele>
        <time>2017-09-23T09:50:31.000Z</time>
      </trkpt>
      <trkpt lat="48.19431" lon="-3.76082">
        <ele>66.6</ele>
        <time>2017-09-23T09:50:32.000Z</time>
      </trkpt>
      <trkpt lat="48.19432" lon="-3.76081">
        <ele>66.8</ele>
        <time>2017-09-23T09:50:33.000Z</time>
      </trkpt>
      <trkpt lat="48.19433" lon="-3.7608">
        <ele>66.9</ele>
        <time>2017-09-23T09:50:34.000Z</time>
      </trkpt>
      <trkpt lat="48.19434" lon="-3.76079">
        <ele>67</ele>
        <time>2017-09-23T09:50:35.000Z</time>
      </trkpt>
      <trkpt lat="48.19435" lon="-3.76079">
        <ele>67.1</ele>
        <time>2017-09-23T09:50:36.000Z</time>
      </trkpt>
      <trkpt lat="48.19436" lon="-3.76078">
        <ele>67.2</ele>
        <time>2017-09-23T09:50:37.000Z</time>
      </trkpt>
      <trkpt lat="48.19437" lon="-3.76077">
        <ele>67.3</ele>
        <time>2017-09-23T09:50:38.000Z</time>
      </trkpt>
      <trkpt lat="48.19438" lon="-3.76076">
        <ele>67.5</ele>
        <time>2017-09-23T09:50:39.000Z</time>
      </trkpt>
      <trkpt lat="48.19439" lon="-3.76075">
        <ele>67.6</ele>
        <time>2017-09-23T09:50:40.000Z</time>
      </trkpt>
      <trkpt lat="48.1944" lon="-3.76074">
        <ele>67.7</ele>
        <time>2017-09-23T09:50:41.000Z</time>
      </trkpt>
      <trkpt lat="48.19442" lon="-3.76073">
        <ele>67.9</ele>
        <time>2017-09-23T09:50:42.000Z</time>
      </trkpt>
      <trkpt lat="48.19443" lon="-3.76072">
        <ele>68</ele>
        <time>2017-09-23T09:50:43.000Z</time>
      </trkpt>
      <trkpt lat="48.19444" lon="-3.76071">
        <ele>68.2</ele>
        <time>2017-09-23T09:50:44.000Z</time>
      </trkpt>
      <trkpt lat="48.19445" lon="-3.7607">
        <ele>68.3</ele>
        <time>2017-09-23T09:50:45.000Z</time>
      </trkpt>
      <trkpt lat="48.19446" lon="-3.76069">
        <ele>68.5</ele>
        <time>2017-09-23T09:50:46.000Z</time>
      </trkpt>
      <trkpt lat="48.19447" lon="-3.76068">
        <ele>68.6</ele>
        <time>2017-09-23T09:50:47.000Z</time>
      </trkpt>
      <trkpt lat="48.19448" lon="-3.76067">
        <ele>68.8</ele>
        <time>2017-09-23T09:50:48.000Z</time>
      </trkpt>
      <trkpt lat="48.19449" lon="-3.76065">
        <ele>68.9</ele>
        <time>2017-09-23T09:50:49.000Z</time>
      </trkpt>
      <trkpt lat="48.1945" lon="-3.76064">
        <ele>69.1</ele>
        <time>2017-09-23T09:50:50.000Z</time>
      </trkpt>
      <trkpt lat="48.1945" lon="-3.76063">
        <ele>69.2</ele>
        <time>2017-09-23T09:50:51.000Z</time>
      </trkpt>
      <trkpt lat="48.19451" lon="-3.76062">
        <ele>69.3</ele>
        <time>2017-09-23T09:50:52.000Z</time>
      </trkpt>
      <trkpt lat="48.19451" lon="-3.76061">
        <ele>69.5</ele>
        <time>2017-09-23T09:50:53.000Z</time>
      </trkpt>
      <trkpt lat="48.19452" lon="-3.7606">
        <ele>69.6</ele>
        <time>2017-09-23T09:50:54.000Z</time>
      </trkpt>
      <trkpt lat="48.19452" lon="-3.76058">
        <ele>69.8</ele>
        <time>2017-09-23T09:50:55.000Z</time>
      </trkpt>
      <trkpt lat="48.19453" lon="-3.76057">
        <ele>69.9</ele>
        <time>2017-09-23T09:50:56.000Z</time>
      </trkpt>
      <trkpt lat="48.19453" lon="-3.76056">
        <ele>70.1</ele>
        <time>2017-09-23T09:50:57.000Z</time>
      </trkpt>
      <trkpt lat="48.19454" lon="-3.76055">
        <ele>70.2</ele>
        <time>2017-09-23T09:50:58.000Z</time>
      </trkpt>
      <trkpt lat="48.19454" lon="-3.76053">
        <ele>70.4</ele>
        <time>2017-09-23T09:50:59.000Z</time>
      </trkpt>
      <trkpt lat="48.19455" lon="-3.76052">
        <ele>70.5</ele>
        <time>2017-09-23T09:51:00.000Z</time>
      </trkpt>
      <trkpt lat="48.19456" lon="-3.76051">
        <ele>70.7</ele>
        <time>2017-09-23T09:51:01.000Z</time>
      </trkpt>
      <trkpt lat="48.19456" lon="-3.76049">
        <ele>70.9</ele>
        <time>2017-09-23T09:51:02.000Z</time>
      </trkpt>
      <trkpt lat="48.19457" lon="-3.76048">
        <ele>71.1</ele>
        <time>2017-09-23T09:51:03.000Z</time>
      </trkpt>
      <trkpt lat="48.19458" lon="-3.76046">
        <ele>71.2</ele>
        <time>2017-09-23T09:51:04.000Z</time>
      </trkpt>
      <trkpt lat="48.19458" lon="-3.76045">
        <ele>71.4</ele>
        <time>2017-09-23T09:51:05.000Z</time>
      </trkpt>
      <trkpt lat="48.19459" lon="-3.76043">
        <ele>71.6</ele>
        <time>2017-09-23T09:51:06.000Z</time>
      </trkpt>
      <trkpt lat="48.1946" lon="-3.76042">
        <ele>71.8</ele>
        <time>2017-09-23T09:51:07.000Z</time>
      </trkpt>
      <trkpt lat="48.19461" lon="-3.7604">
        <ele>72</ele>
        <time>2017-09-23T09:51:08.000Z</time>
      </trkpt>
      <trkpt lat="48.19462" lon="-3.76039">
        <ele>72.2</ele>
        <time>2017-09-23T09:51:09.000Z</time>
      </trkpt>
      <trkpt lat="48.19463" lon="-3.76037">
        <ele>72.4</ele>
        <time>2017-09-23T09:51:10.000Z</time>
      </trkpt>
      <trkpt lat="48.19464" lon="-3.76036">
        <ele>72.7</ele>
        <time>2017-09-23T09:51:11.000Z</time>
      </trkpt>
      <trkpt lat="48.19465" lon="-3.76034">
        <ele>72.9</ele>
        <time>2017-09-23T09:51:12.000Z</time>
      </trkpt>
      <trkpt lat="48.19466" lon="-3.76033">
        <ele>73.1</ele>
        <time>2017-09-23T09:51:13.000Z</time>
      </trkpt>
      <trkpt lat="48.19466" lon="-3.76031">
        <ele>73.3</ele>
        <time>2017-09-23T09:51:14.000Z</time>
      </trkpt>
      <trkpt lat="48.19467" lon="-3.76029">
        <ele>73.5</ele>
        <time>2017-09-23T09:51:15.000Z</time>
      </trkpt>
      <trkpt lat="48.19468" lon="-3.76028">
        <ele>73.8</ele>
        <time>2017-09-23T09:51:16.000Z</time>
      </trkpt>
      <trkpt lat="48.19469" lon="-3.76026">
        <ele>74</ele>
        <time>2017-09-23T09:51:17.000Z</time>
      </trkpt>
      <trkpt lat="48.1947" lon="-3.76025">
        <ele>74.2</ele>
        <time>2017-09-23T09:51:18.000Z</time>
      </trkpt>
      <trkpt lat="48.1947" lon="-3.76023">
        <ele>74.4</ele>
        <time>2017-09-23T09:51:19.000Z</time>
      </trkpt>
      <trkpt lat="48.19471" lon="-3.76022">
        <ele>74.6</ele>
        <time>2017-09-23T09:51:20.000Z</time>
      </trkpt>
      <trkpt lat="48.19472" lon="-3.7602">
        <ele>74.8</ele>
        <time>2017-09-23T09:51:21.000Z</time>
      </trkpt>
      <trkpt lat="48.19472" lon="-3.76019">
        <ele>75</ele>
        <time>2017-09-23T09:51:22.000Z</time>
      </trkpt>
      <trkpt lat="48.19473" lon="-3.76017">
        <ele>75.2</ele>
        <time>2017-09-23T09:51:23.000Z</time>
      </trkpt>
      <trkpt lat="48.19473" lon="-3.76016">
        <ele>75.4</ele>
        <time>2017-09-23T09:51:24.000Z</time>
      </trkpt>
      <trkpt lat="48.19474" lon="-3.76014">
        <ele>75.6</ele>
        <time>2017-09-23T09:51:25.000Z</time>
      </trkpt>
      <trkpt lat="48.19474" lon="-3.76013">
        <ele>75.7</ele>
        <time>2017-09-23T09:51:26.000Z</time>
      </trkpt>
      <trkpt lat="48.19474" lon="-3.76011">
        <ele>75.9</ele>
        <time>2017-09-23T09:51:27.000Z</time>
      </trkpt>
      <trkpt lat="48.19475" lon="-3.7601">
        <ele>76.1</ele>
        <time>2017-09-23T09:51:28.000Z</time>
      </trkpt>
      <trkpt lat="48.19475" lon="-3.76008">
        <ele>76.3</ele>
        <time>2017-09-23T09:51:29.000Z</time>
      </trkpt>
      <trkpt lat="48.19476" lon="-3.76007">
        <ele>76.5</ele>
        <time>2017-09-23T09:51:30.000Z</time>
      </trkpt>
      <trkpt lat="48.19476" lon="-3.76005">
        <ele>76.7</ele>
        <time>2017-09-23T09:51:31.000Z</time>
      </trkpt>
      <trkpt lat="48.19476" lon="-3.76004">
        <ele>76.9</ele>
        <time>2017-09-23T09:51:32.000Z</time>
      </trkpt>
      <trkpt lat="48.19477" lon="-3.76002">
        <ele>77.1</ele>
        <time>2017-09-23T09:51:33.000Z</time>
      </trkpt>
      <trkpt lat="48.19477" lon="-3.76001">
        <ele>77.2</ele>
        <time>2017-09-23T09:51:34.000Z</time>
      </trkpt>
      <trkpt lat="48.19477" lon="-3.75999">
        <ele>77.4</ele>
        <time>2017-09-23T09:51:35.000Z</time>
      </trkpt>
      <trkpt lat="48.19478" lon="-3.75998">
        <ele>77.5</ele>
        <time>2017-09-23T09:51:36.000Z</time>
      </trkpt>
      <trkpt lat="48.19478" lon="-3.75996">
        <ele>77.6</ele>
        <time>2017-09-23T09:51:37.000Z</time>
      </trkpt>
      <trkpt lat="48.19478" lon="-3.75995">
        <ele>77.7</ele>
        <time>2017-09-23T09:51:38.000Z</time>
      </trkpt>
      <trkpt lat="48.19479" lon="-3.75993">
        <ele>77.8</ele>
        <time>2017-09-23T09:51:39.000Z</time>
      </trkpt>
      <trkpt lat="48.19479" lon="-3.75991">
        <ele>77.9</ele>
        <time>2017-09-23T09:51:40.000Z</time>
      </trkpt>
      <trkpt lat="48.19479" lon="-3.7599">
        <ele>78</ele>
        <time>2017-09-23T09:51:41.000Z</time>
      </trkpt>
      <trkpt lat="48.1948" lon="-3.75988">
        <ele>78.1</ele>
        <time>2017-09-23T09:51:42.000Z</time>
      </trkpt>
      <trkpt lat="48.1948" lon="-3.75987">
        <ele>78.2</ele>
        <time>2017-09-23T09:51:43.000Z</time>
      </trkpt>
      <trkpt lat="48.1948" lon="-3.75985">
        <ele>78.3</ele>
        <time>2017-09-23T09:51:44.000Z</time>
      </trkpt>
      <trkpt lat="48.19481" lon="-3.75983">
        <ele>78.4</ele>
        <time>2017-09-23T09:51:45.000Z</time>
      </trkpt>
      <trkpt lat="48.19481" lon="-3.75982">
        <ele>78.4</ele>
        <time>2017-09-23T09:51:46.000Z</time>
      </trkpt>
      <trkpt lat="48.19482" lon="-3.7598">
        <ele>78.5</ele>
        <time>2017-09-23T09:51:47.000Z</time>
      </trkpt>
      <trkpt lat="48.19482" lon="-3.75979">
        <ele>78.6</ele>
        <time>2017-09-23T09:51:48.000Z</time>
      </trkpt>
      <trkpt lat="48.19482" lon="-3.75977">
        <ele>78.7</ele>
        <time>2017-09-23T09:51:49.000Z</time>
      </trkpt>
      <trkpt lat="48.19483" lon="-3.75975">
        <ele>78.8</ele>
        <time>2017-09-23T09:51:50.000Z</time>
      </trkpt>
      <trkpt lat="48.19483" lon="-3.75974">
        <ele>78.9</ele>
        <time>2017-09-23T09:51:51.000Z</time>
      </trkpt>
      <trkpt lat="48.19484" lon="-3.75972">
        <ele>79</ele>
        <time>2017-09-23T09:51:52.000Z</time>
      </trkpt>
      <trkpt lat="48.19484" lon="-3.75971">
        <ele>79.1</ele>
        <time>2017-09-23T09:51:53.000Z</time>
      </trkpt>
      <trkpt lat="48.19485" lon="-3.75969">
        <ele>79.2</ele>
        <time>2017-09-23T09:51:54.000Z</time>
      </trkpt>
      <trkpt lat="48.19485" lon="-3.75968">
        <ele>79.3</ele>
        <time>2017-09-23T09:51:55.000Z</time>
      </trkpt>
      <trkpt lat="48.19485" lon="-3.75966">
        <ele>79.4</ele>
        <time>2017-09-23T09:51:56.000Z</time>
      </trkpt>
      <trkpt lat="48.19486" lon="-3.75965">
        <ele>79.5</ele>
        <time>2017-09-23T09:51:57.000Z</time>
      </trkpt>
      <trkpt lat="48.19486" lon="-3.75963">
        <ele>79.6</ele>
        <time>2017-09-23T09:51:58.000Z</time>
      </trkpt>
      <trkpt lat="48.19487" lon="-3.75962">
        <ele>79.6</ele>
        <time>2017-09-23T09:51:59.000Z</time>
      </trkpt>
      <trkpt lat="48.19487" lon="-3.7596">
        <ele>79.7</ele>
        <time>2017-09-23T09:52:00.000Z</time>
      </trkpt>
      <trkpt lat="48.19488" lon="-3.75959">
        <ele>79.8</ele>
        <time>2017-09-23T09:52:01.000Z</time>
      </trkpt>
      <trkpt lat="48.19488" lon="-3.75958">
        <ele>79.9</ele>
        <time>2017-09-23T09:52:02.000Z</time>
      </trkpt>
      <trkpt lat="48.19489" lon="-3.75956">
        <ele>80</ele>
        <time>2017-09-23T09:52:03.000Z</time>
      </trkpt>
      <trkpt lat="48.19489" lon="-3.75955">
        <ele>80.1</ele>
        <time>2017-09-23T09:52:04.000Z</time>
      </trkpt>
      <trkpt lat="48.1949" lon="-3.75954">
        <ele>80.1</ele>
        <time>2017-09-23T09:52:05.000Z</time>
      </trkpt>
      <trkpt lat="48.1949" lon="-3.75952">
        <ele>80.2</ele>
        <time>2017-09-23T09:52:06.000Z</time>
      </trkpt>
      <trkpt lat="48.19491" lon="-3.75951">
        <ele>80.3</ele>
        <time>2017-09-23T09:52:07.000Z</time>
      </trkpt>
      <trkpt lat="48.19491" lon="-3.7595">
        <ele>80.4</ele>
        <time>2017-09-23T09:52:08.000Z</time>
      </trkpt>
      <trkpt lat="48.19492" lon="-3.75948">
        <ele>80.5</ele>
        <time>2017-09-23T09:52:09.000Z</time>
      </trkpt>
      <trkpt lat="48.19493" lon="-3.75947">
        <ele>80.5</ele>
        <time>2017-09-23T09:52:10.000Z</time>
      </trkpt>
      <trkpt lat="48.19493" lon="-3.75946">
        <ele>80.6</ele>
        <time>2017-09-23T09:52:11.000Z</time>
      </trkpt>
      <trkpt lat="48.19494" lon="-3.75945">
        <ele>80.7</ele>
        <time>2017-09-23T09:52:12.000Z</time>
      </trkpt>
      <trkpt lat="48.19495" lon="-3.75944">
        <ele>80.8</ele>
        <time>2017-09-23T09:52:13.000Z</time>
      </trkpt>
      <trkpt lat="48.19495" lon="-3.75943">
        <ele>80.8</ele>
        <time>2017-09-23T09:52:14.000Z</time>
      </trkpt>
      <trkpt lat="48.19496" lon="-3.75942">
        <ele>80.9</ele>
        <time>2017-09-23T09:52:15.000Z</time>
      </trkpt>
      <trkpt lat="48.19497" lon="-3.75941">
        <ele>81</ele>
        <time>2017-09-23T09:52:16.000Z</time>
      </trkpt>
      <trkpt lat="48.19498" lon="-3.7594">
        <ele>81.1</ele>
        <time>2017-09-23T09:52:17.000Z</time>
      </trkpt>
      <trkpt lat="48.19499" lon="-3.75939">
        <ele>81.1</ele>
        <time>2017-09-23T09:52:18.000Z</time>
      </trkpt>
      <trkpt lat="48.195" lon="-3.75938">
        <ele>81.2</ele>
        <time>2017-09-23T09:52:19.000Z</time>
      </trkpt>
      <trkpt lat="48.195" lon="-3.75937">
        <ele>81.3</ele>
        <time>2017-09-23T09:52:20.000Z</time>
      </trkpt>
      <trkpt lat="48.19501" lon="-3.75936">
        <ele>81.3</ele>
        <time>2017-09-23T09:52:21.000Z</time>
      </trkpt>
      <trkpt lat="48.19502" lon="-3.75935">
        <ele>81.4</ele>
        <time>2017-09-23T09:52:22.000Z</time>
      </trkpt>
      <trkpt lat="48.19503" lon="-3.75934">
        <ele>81.4</ele>
        <time>2017-09-23T09:52:23.000Z</time>
      </trkpt>
      <trkpt lat="48.19504" lon="-3.75933">
        <ele>81.5</ele>
        <time>2017-09-23T09:52:24.000Z</time>
      </trkpt>
      <trkpt lat="48.19505" lon="-3.75933">
        <ele>81.5</ele>
        <time>2017-09-23T09:52:25.000Z</time>
      </trkpt>
      <trkpt lat="48.19506" lon="-3.75932">
        <ele>81.6</ele>
        <time>2017-09-23T09:52:26.000Z</time>
      </trkpt>
      <trkpt lat="48.19506" lon="-3.75931">
        <ele>81.6</ele>
        <time>2017-09-23T09:52:27.000Z</time>
      </trkpt>
      <trkpt lat="48.19507" lon="-3.7593">
        <ele>81.7</ele>
        <time>2017-09-23T09:52:28.000Z</time>
      </trkpt>
      <trkpt lat="48.19508" lon="-3.7593">
        <ele>81.7</ele>
        <time>2017-09-23T09:52:29.000Z</time>
      </trkpt>
      <trkpt lat="48.19509" lon="-3.75929">
        <ele>81.8</ele>
        <time>2017-09-23T09:52:30.000Z</time>
      </trkpt>
      <trkpt lat="48.19509" lon="-3.75928">
        <ele>81.9</ele>
        <time>2017-09-23T09:52:31.000Z</time>
      </trkpt>
      <trkpt lat="48.1951" lon="-3.75927">
        <ele>81.9</ele>
        <time>2017-09-23T09:52:32.000Z</time>
      </trkpt>
      <trkpt lat="48.19511" lon="-3.75926">
        <ele>82</ele>
        <time>2017-09-23T09:52:33.000Z</time>
      </trkpt>
      <trkpt lat="48.19512" lon="-3.75925">
        <ele>82</ele>
        <time>2017-09-23T09:52:34.000Z</time>
      </trkpt>
      <trkpt lat="48.19512" lon="-3.75924">
        <ele>82.1</ele>
        <time>2017-09-23T09:52:35.000Z</time>
      </trkpt>
      <trkpt lat="48.19513" lon="-3.75923">
        <ele>82.2</ele>
        <time>2017-09-23T09:52:36.000Z</time>
      </trkpt>
      <trkpt lat="48.19514" lon="-3.75922">
        <ele>82.3</ele>
        <time>2017-09-23T09:52:37.000Z</time>
      </trkpt>
      <trkpt lat="48.19515" lon="-3.75921">
        <ele>82.3</ele>
        <time>2017-09-23T09:52:38.000Z</time>
      </trkpt>
      <trkpt lat="48.19516" lon="-3.7592">
        <ele>82.4</ele>
        <time>2017-09-23T09:52:39.000Z</time>
      </trkpt>
      <trkpt lat="48.19516" lon="-3.75919">
        <ele>82.5</ele>
        <time>2017-09-23T09:52:40.000Z</time>
      </trkpt>
      <trkpt lat="48.19517" lon="-3.75918">
        <ele>82.5</ele>
        <time>2017-09-23T09:52:41.000Z</time>
      </trkpt>
      <trkpt lat="48.19517" lon="-3.75917">
        <ele>82.6</ele>
        <time>2017-09-23T09:52:42.000Z</time>
      </trkpt>
      <trkpt lat="48.19518" lon="-3.75917">
        <ele>82.6</ele>
        <time>2017-09-23T09:52:43.000Z</time>
      </trkpt>
      <trkpt lat="48.19518" lon="-3.75916">
        <ele>82.7</ele>
        <time>2017-09-23T09:52:44.000Z</time>
      </trkpt>
      <trkpt lat="48.19519" lon="-3.75916">
        <ele>82.7</ele>
        <time>2017-09-23T09:52:45.000Z</time>
      </trkpt>
      <trkpt lat="48.1952" lon="-3.75915">
        <ele>82.7</ele>
        <time>2017-09-23T09:52:46.000Z</time>
      </trkpt>
      <trkpt lat="48.1952" lon="-3.75914">
        <ele>82.8</ele>
        <time>2017-09-23T09:52:47.000Z</time>
      </trkpt>
      <trkpt lat="48.19521" lon="-3.75913">
        <ele>82.8</ele>
        <time>2017-09-23T09:52:48.000Z</time>
      </trkpt>
      <trkpt lat="48.19522" lon="-3.75912">
        <ele>82.9</ele>
        <time>2017-09-23T09:52:49.000Z</time>
      </trkpt>
      <trkpt lat="48.19523" lon="-3.75911">
        <ele>82.9</ele>
        <time>2017-09-23T09:52:50.000Z</time>
      </trkpt>
      <trkpt lat="48.19523" lon="-3.7591">
        <ele>83</ele>
        <time>2017-09-23T09:52:51.000Z</time>
      </trkpt>
      <trkpt lat="48.19524" lon="-3.75908">
        <ele>83</ele>
        <time>2017-09-23T09:52:52.000Z</time>
      </trkpt>
      <trkpt lat="48.19525" lon="-3.75907">
        <ele>83.1</ele>
        <time>2017-09-23T09:52:53.000Z</time>
      </trkpt>
      <trkpt lat="48.19526" lon="-3.75906">
        <ele>83.2</ele>
        <time>2017-09-23T09:52:54.000Z</time>
      </trkpt>
      <trkpt lat="48.19527" lon="-3.75904">
        <ele>83.2</ele>
        <time>2017-09-23T09:52:55.000Z</time>
      </trkpt>
      <trkpt lat="48.19528" lon="-3.75903">
        <ele>83.3</ele>
        <time>2017-09-23T09:52:56.000Z</time>
      </trkpt>
      <trkpt lat="48.19529" lon="-3.75902">
        <ele>83.3</ele>
        <time>2017-09-23T09:52:57.000Z</time>
      </trkpt>
      <trkpt lat="48.1953" lon="-3.759">
        <ele>83.4</ele>
        <time>2017-09-23T09:52:58.000Z</time>
      </trkpt>
      <trkpt lat="48.19531" lon="-3.75899">
        <ele>83.5</ele>
        <time>2017-09-23T09:52:59.000Z</time>
      </trkpt>
      <trkpt lat="48.19532" lon="-3.75898">
        <ele>83.5</ele>
        <time>2017-09-23T09:53:00.000Z</time>
      </trkpt>
      <trkpt lat="48.19532" lon="-3.75896">
        <ele>83.6</ele>
        <time>2017-09-23T09:53:01.000Z</time>
      </trkpt>
      <trkpt lat="48.19533" lon="-3.75895">
        <ele>83.6</ele>
        <time>2017-09-23T09:53:02.000Z</time>
      </trkpt>
      <trkpt lat="48.19534" lon="-3.75894">
        <ele>83.7</ele>
        <time>2017-09-23T09:53:03.000Z</time>
      </trkpt>
      <trkpt lat="48.19535" lon="-3.75892">
        <ele>83.7</ele>
        <time>2017-09-23T09:53:04.000Z</time>
      </trkpt>
      <trkpt lat="48.19536" lon="-3.75891">
        <ele>83.8</ele>
        <time>2017-09-23T09:53:05.000Z</time>
      </trkpt>
      <trkpt lat="48.19536" lon="-3.7589">
        <ele>83.8</ele>
        <time>2017-09-23T09:53:06.000Z</time>
      </trkpt>
      <trkpt lat="48.19537" lon="-3.75889">
        <ele>83.9</ele>
        <time>2017-09-23T09:53:07.000Z</time>
      </trkpt>
      <trkpt lat="48.19538" lon="-3.75887">
        <ele>83.9</ele>
        <time>2017-09-23T09:53:08.000Z</time>
      </trkpt>
      <trkpt lat="48.19538" lon="-3.75886">
        <ele>83.9</ele>
        <time>2017-09-23T09:53:09.000Z</time>
      </trkpt>
      <trkpt lat="48.19539" lon="-3.75885">
        <ele>84</ele>
        <time>2017-09-23T09:53:10.000Z</time>
      </trkpt>
      <trkpt lat="48.1954" lon="-3.75883">
        <ele>84</ele>
        <time>2017-09-23T09:53:11.000Z</time>
      </trkpt>
      <trkpt lat="48.1954" lon="-3.75882">
        <ele>84.1</ele>
        <time>2017-09-23T09:53:12.000Z</time>
      </trkpt>
      <trkpt lat="48.19541" lon="-3.75881">
        <ele>84.1</ele>
        <time>2017-09-23T09:53:13.000Z</time>
      </trkpt>
      <trkpt lat="48.19542" lon="-3.75879">
        <ele>84.2</ele>
        <time>2017-09-23T09:53:14.000Z</time>
      </trkpt>
      <trkpt lat="48.19542" lon="-3.75878">
        <ele>84.2</ele>
        <time>2017-09-23T09:53:15.000Z</time>
      </trkpt>
      <trkpt lat="48.19543" lon="-3.75877">
        <ele>84.3</ele>
        <time>2017-09-23T09:53:16.000Z</time>
      </trkpt>
      <trkpt lat="48.19544" lon="-3.75876">
        <ele>84.3</ele>
        <time>2017-09-23T09:53:17.000Z</time>
      </trkpt>
      <trkpt lat="48.19545" lon="-3.75874">
        <ele>84.4</ele>
        <time>2017-09-23T09:53:18.000Z</time>
      </trkpt>
      <trkpt lat="48.19545" lon="-3.75873">
        <ele>84.4</ele>
        <time>2017-09-23T09:53:19.000Z</time>
      </trkpt>
      <trkpt lat="48.19546" lon="-3.75872">
        <ele>84.4</ele>
        <time>2017-09-23T09:53:20.000Z</time>
      </trkpt>
      <trkpt lat="48.19547" lon="-3.7587">
        <ele>84.5</ele>
        <time>2017-09-23T09:53:21.000Z</time>
      </trkpt>
      <trkpt lat="48.19548" lon="-3.75869">
        <ele>84.5</ele>
        <time>2017-09-23T09:53:22.000Z</time>
      </trkpt>
      <trkpt lat="48.19549" lon="-3.75868">
        <ele>84.6</ele>
        <time>2017-09-23T09:53:23.000Z</time>
      </trkpt>
      <trkpt lat="48.1955" lon="-3.75866">
        <ele>84.6</ele>
        <time>2017-09-23T09:53:24.000Z</time>
      </trkpt>
      <trkpt lat="48.1955" lon="-3.75865">
        <ele>84.7</ele>
        <time>2017-09-23T09:53:25.000Z</time>
      </trkpt>
      <trkpt lat="48.19551" lon="-3.75864">
        <ele>84.7</ele>
        <time>2017-09-23T09:53:26.000Z</time>
      </trkpt>
      <trkpt lat="48.19552" lon="-3.75862">
        <ele>84.8</ele>
        <time>2017-09-23T09:53:27.000Z</time>
      </trkpt>
      <trkpt lat="48.19553" lon="-3.75861">
        <ele>84.8</ele>
        <time>2017-09-23T09:53:28.000Z</time>
      </trkpt>
      <trkpt lat="48.19554" lon="-3.7586">
        <ele>84.9</ele>
        <time>2017-09-23T09:53:29.000Z</time>
      </trkpt>
      <trkpt lat="48.19554" lon="-3.75859">
        <ele>84.9</ele>
        <time>2017-09-23T09:53:30.000Z</time>
      </trkpt>
      <trkpt lat="48.19555" lon="-3.75858">
        <ele>84.9</ele>
        <time>2017-09-23T09:53:31.000Z</time>
      </trkpt>
      <trkpt lat="48.19556" lon="-3.75856">
        <ele>85</ele>
        <time>2017-09-23T09:53:32.000Z</time>
      </trkpt>
      <trkpt lat="48.19556" lon="-3.75855">
        <ele>85</ele>
        <time>2017-09-23T09:53:33.000Z</time>
      </trkpt>
      <trkpt lat="48.19557" lon="-3.75854">
        <ele>85</ele>
        <time>2017-09-23T09:53:34.000Z</time>
      </trkpt>
      <trkpt lat="48.19557" lon="-3.75853">
        <ele>85.1</ele>
        <time>2017-09-23T09:53:35.000Z</time>
      </trkpt>
      <trkpt lat="48.19558" lon="-3.75852">
        <ele>85.1</ele>
        <time>2017-09-23T09:53:36.000Z</time>
      </trkpt>
      <trkpt lat="48.19558" lon="-3.75851">
        <ele>85.1</ele>
        <time>2017-09-23T09:53:37.000Z</time>
      </trkpt>
      <trkpt lat="48.19559" lon="-3.7585">
        <ele>85.2</ele>
        <time>2017-09-23T09:53:38.000Z</time>
      </trkpt>
      <trkpt lat="48.19559" lon="-3.75849">
        <ele>85.2</ele>
        <time>2017-09-23T09:53:39.000Z</time>
      </trkpt>
      <trkpt lat="48.1956" lon="-3.75848">
        <ele>85.2</ele>
        <time>2017-09-23T09:53:40.000Z</time>
      </trkpt>
      <trkpt lat="48.1956" lon="-3.75847">
        <ele>85.2</ele>
        <time>2017-09-23T09:53:41.000Z</time>
      </trkpt>
      <trkpt lat="48.19561" lon="-3.75846">
        <ele>85.3</ele>
        <time>2017-09-23T09:53:42.000Z</time>
      </trkpt>
      <trkpt lat="48.19562" lon="-3.75845">
        <ele>85.3</ele>
        <time>2017-09-23T09:53:43.000Z</time>
      </trkpt>
      <trkpt lat="48.19562" lon="-3.75843">
        <ele>85.3</ele>
        <time>2017-09-23T09:53:44.000Z</time>
      </trkpt>
      <trkpt lat="48.19563" lon="-3.75842">
        <ele>85.4</ele>
        <time>2017-09-23T09:53:45.000Z</time>
      </trkpt>
      <trkpt lat="48.19564" lon="-3.75841">
        <ele>85.4</ele>
        <time>2017-09-23T09:53:46.000Z</time>
      </trkpt>
      <trkpt lat="48.19565" lon="-3.75839">
        <ele>85.5</ele>
        <time>2017-09-23T09:53:47.000Z</time>
      </trkpt>
      <trkpt lat="48.19566" lon="-3.75838">
        <ele>85.5</ele>
        <time>2017-09-23T09:53:48.000Z</time>
      </trkpt>
      <trkpt lat="48.19566" lon="-3.75837">
        <ele>85.5</ele>
        <time>2017-09-23T09:53:49.000Z</time>
      </trkpt>
      <trkpt lat="48.19567" lon="-3.75836">
        <ele>85.6</ele>
        <time>2017-09-23T09:53:50.000Z</time>
      </trkpt>
      <trkpt lat="48.19568" lon="-3.75835">
        <ele>85.6</ele>
        <time>2017-09-23T09:53:51.000Z</time>
      </trkpt>
      <trkpt lat="48.19569" lon="-3.75833">
        <ele>85.6</ele>
        <time>2017-09-23T09:53:52.000Z</time>
      </trkpt>
      <trkpt lat="48.19569" lon="-3.75832">
        <ele>85.7</ele>
        <time>2017-09-23T09:53:53.000Z</time>
      </trkpt>
      <trkpt lat="48.1957" lon="-3.75831">
        <ele>85.7</ele>
        <time>2017-09-23T09:53:54.000Z</time>
      </trkpt>
      <trkpt lat="48.19571" lon="-3.7583">
        <ele>85.8</ele>
        <time>2017-09-23T09:53:55.000Z</time>
      </trkpt>
      <trkpt lat="48.19571" lon="-3.75829">
        <ele>85.8</ele>
        <time>2017-09-23T09:53:56.000Z</time>
      </trkpt>
      <trkpt lat="48.19572" lon="-3.75828">
        <ele>85.8</ele>
        <time>2017-09-23T09:53:57.000Z</time>
      </trkpt>
      <trkpt lat="48.19573" lon="-3.75826">
        <ele>85.9</ele>
        <time>2017-09-23T09:53:58.000Z</time>
      </trkpt>
      <trkpt lat="48.19573" lon="-3.75825">
        <ele>85.9</ele>
        <time>2017-09-23T09:53:59.000Z</time>
      </trkpt>
      <trkpt lat="48.19574" lon="-3.75824">
        <ele>85.9</ele>
        <time>2017-09-23T09:54:00.000Z</time>
      </trkpt>
      <trkpt lat="48.19575" lon="-3.75823">
        <ele>86</ele>
        <time>2017-09-23T09:54:01.000Z</time>
      </trkpt>
      <trkpt lat="48.19576" lon="-3.75822">
        <ele>86</ele>
        <time>2017-09-23T09:54:02.000Z</time>
      </trkpt>
      <trkpt lat="48.19576" lon="-3.75821">
        <ele>86</ele>
        <time>2017-09-23T09:54:03.000Z</time>
      </trkpt>
      <trkpt lat="48.19577" lon="-3.7582">
        <ele>86</ele>
        <time>2017-09-23T09:54:04.000Z</time>
      </trkpt>
      <trkpt lat="48.19578" lon="-3.75819">
        <ele>86.1</ele>
        <time>2017-09-23T09:54:05.000Z</time>
      </trkpt>
      <trkpt lat="48.19578" lon="-3.75818">
        <ele>86.1</ele>
        <time>2017-09-23T09:54:06.000Z</time>
      </trkpt>
      <trkpt lat="48.19579" lon="-3.75817">
        <ele>86.1</ele>
        <time>2017-09-23T09:54:07.000Z</time>
      </trkpt>
      <trkpt lat="48.1958" lon="-3.75817">
        <ele>86.1</ele>
        <time>2017-09-23T09:54:08.000Z</time>
      </trkpt>
      <trkpt lat="48.19581" lon="-3.75816">
        <ele>86.2</ele>
        <time>2017-09-23T09:54:09.000Z</time>
      </trkpt>
      <trkpt lat="48.19581" lon="-3.75815">
        <ele>86.2</ele>
        <time>2017-09-23T09:54:10.000Z</time>
      </trkpt>
      <trkpt lat="48.19582" lon="-3.75815">
        <ele>86.2</ele>
        <time>2017-09-23T09:54:11.000Z</time>
      </trkpt>
      <trkpt lat="48.19582" lon="-3.75814">
        <ele>86.2</ele>
        <time>2017-09-23T09:54:12.000Z</time>
      </trkpt>
      <trkpt lat="48.19583" lon="-3.75814">
        <ele>86.2</ele>
        <time>2017-09-23T09:54:13.000Z</time>
      </trkpt>
      <trkpt lat="48.19583" lon="-3.75814">
        <ele>86.2</ele>
        <time>2017-09-23T09:54:14.000Z</time>
      </trkpt>
      <trkpt lat="48.19583" lon="-3.75814">
        <ele>86.2</ele>
        <time>2017-09-23T09:54:15.000Z</time>
      </trkpt>
      <trkpt lat="48.19583" lon="-3.75814">
        <ele>86.2</ele>
        <time>2017-09-23T09:54:16.000Z</time>
      </trkpt>
      <trkpt lat="48.19583" lon="-3.75814">
        <ele>86.2</ele>
        <time>2017-09-23T09:54:17.000Z</time>
      </trkpt>
      <trkpt lat="48.19583" lon="-3.75814">
        <ele>86.2</ele>
        <time>2017-09-23T09:54:18.000Z</time>
      </trkpt>
      <trkpt lat="48.19583" lon="-3.75814">
        <ele>86.2</ele>
        <time>2017-09-23T09:54:19.000Z</time>
      </trkpt>
      <trkpt lat="48.19584" lon="-3.75814">
        <ele>86.2</ele>
        <time>2017-09-23T09:54:20.000Z</time>
      </trkpt>
      <trkpt lat="48.19584" lon="-3.75813">
        <ele>86.3</ele>
        <time>2017-09-23T09:54:21.000Z</time>
      </trkpt>
      <trkpt lat="48.19585" lon="-3.75813">
        <ele>86.3</ele>
        <time>2017-09-23T09:54:22.000Z</time>
      </trkpt>
      <trkpt lat="48.19585" lon="-3.75812">
        <ele>86.3</ele>
        <time>2017-09-23T09:54:23.000Z</time>
      </trkpt>
      <trkpt lat="48.19586" lon="-3.75811">
        <ele>86.3</ele>
        <time>2017-09-23T09:54:24.000Z</time>
      </trkpt>
      <trkpt lat="48.19587" lon="-3.7581">
        <ele>86.4</ele>
        <time>2017-09-23T09:54:25.000Z</time>
      </trkpt>
      <trkpt lat="48.19588" lon="-3.7581">
        <ele>86.4</ele>
        <time>2017-09-23T09:54:26.000Z</time>
      </trkpt>
      <trkpt lat="48.19589" lon="-3.75809">
        <ele>86.4</ele>
        <time>2017-09-23T09:54:27.000Z</time>
      </trkpt>
      <trkpt lat="48.1959" lon="-3.75808">
        <ele>86.4</ele>
        <time>2017-09-23T09:54:28.000Z</time>
      </trkpt>
      <trkpt lat="48.19591" lon="-3.75808">
        <ele>86.5</ele>
        <time>2017-09-23T09:54:29.000Z</time>
      </trkpt>
      <trkpt lat="48.19591" lon="-3.75808">
        <ele>86.5</ele>
        <time>2017-09-23T09:54:30.000Z</time>
      </trkpt>
      <trkpt lat="48.19592" lon="-3.75808">
        <ele>86.5</ele>
        <time>2017-09-23T09:54:31.000Z</time>
      </trkpt>
      <trkpt lat="48.19592" lon="-3.75808">
        <ele>86.5</ele>
        <time>2017-09-23T09:54:32.000Z</time>
      </trkpt>
      <trkpt lat="48.19592" lon="-3.75808">
        <ele>86.5</ele>
        <time>2017-09-23T09:54:33.000Z</time>
      </trkpt>
      <trkpt lat="48.19592" lon="-3.75808">
        <ele>86.5</ele>
        <time>2017-09-23T09:54:34.000Z</time>
      </trkpt>
      <trkpt lat="48.19592" lon="-3.75807">
        <ele>86.5</ele>
        <time>2017-09-23T09:54:35.000Z</time>
      </trkpt>
      <trkpt lat="48.19593" lon="-3.75807">
        <ele>86.5</ele>
        <time>2017-09-23T09:54:36.000Z</time>
      </trkpt>
      <trkpt lat="48.19594" lon="-3.75806">
        <ele>86.6</ele>
        <time>2017-09-23T09:54:37.000Z</time>
      </trkpt>
      <trkpt lat="48.19595" lon="-3.75806">
        <ele>86.6</ele>
        <time>2017-09-23T09:54:38.000Z</time>
      </trkpt>
      <trkpt lat="48.19596" lon="-3.75805">
        <ele>86.6</ele>
        <time>2017-09-23T09:54:39.000Z</time>
      </trkpt>
      <trkpt lat="48.19597" lon="-3.75804">
        <ele>86.7</ele>
        <time>2017-09-23T09:54:40.000Z</time>
      </trkpt>
      <trkpt lat="48.19599" lon="-3.75803">
        <ele>86.7</ele>
        <time>2017-09-23T09:54:41.000Z</time>
      </trkpt>
      <trkpt lat="48.196" lon="-3.75803">
        <ele>86.8</ele>
        <time>2017-09-23T09:54:42.000Z</time>
      </trkpt>
      <trkpt lat="48.19602" lon="-3.75802">
        <ele>86.8</ele>
        <time>2017-09-23T09:54:43.000Z</time>
      </trkpt>
      <trkpt lat="48.19603" lon="-3.75801">
        <ele>86.9</ele>
        <time>2017-09-23T09:54:44.000Z</time>
      </trkpt>
      <trkpt lat="48.19605" lon="-3.75801">
        <ele>87</ele>
        <time>2017-09-23T09:54:45.000Z</time>
      </trkpt>
      <trkpt lat="48.19606" lon="-3.758">
        <ele>87</ele>
        <time>2017-09-23T09:54:46.000Z</time>
      </trkpt>
      <trkpt lat="48.19608" lon="-3.75799">
        <ele>87.1</ele>
        <time>2017-09-23T09:54:47.000Z</time>
      </trkpt>
      <trkpt lat="48.19609" lon="-3.75799">
        <ele>87.1</ele>
        <time>2017-09-23T09:54:48.000Z</time>
      </trkpt>
      <trkpt lat="48.1961" lon="-3.75798">
        <ele>87.2</ele>
        <time>2017-09-23T09:54:49.000Z</time>
      </trkpt>
      <trkpt lat="48.19611" lon="-3.75797">
        <ele>87.2</ele>
        <time>2017-09-23T09:54:50.000Z</time>
      </trkpt>
      <trkpt lat="48.19613" lon="-3.75796">
        <ele>87.3</ele>
        <time>2017-09-23T09:54:51.000Z</time>
      </trkpt>
      <trkpt lat="48.19614" lon="-3.75795">
        <ele>87.3</ele>
        <time>2017-09-23T09:54:52.000Z</time>
      </trkpt>
      <trkpt lat="48.19615" lon="-3.75795">
        <ele>87.4</ele>
        <time>2017-09-23T09:54:53.000Z</time>
      </trkpt>
      <trkpt lat="48.19616" lon="-3.75794">
        <ele>87.4</ele>
        <time>2017-09-23T09:54:54.000Z</time>
      </trkpt>
      <trkpt lat="48.19618" lon="-3.75793">
        <ele>87.5</ele>
        <time>2017-09-23T09:54:55.000Z</time>
      </trkpt>
      <trkpt lat="48.19619" lon="-3.75793">
        <ele>87.5</ele>
        <time>2017-09-23T09:54:56.000Z</time>
      </trkpt>
      <trkpt lat="48.1962" lon="-3.75792">
        <ele>87.6</ele>
        <time>2017-09-23T09:54:57.000Z</time>
      </trkpt>
      <trkpt lat="48.19621" lon="-3.75791">
        <ele>87.6</ele>
        <time>2017-09-23T09:54:58.000Z</time>
      </trkpt>
      <trkpt lat="48.19623" lon="-3.75791">
        <ele>87.7</ele>
        <time>2017-09-23T09:54:59.000Z</time>
      </trkpt>
      <trkpt lat="48.19624" lon="-3.7579">
        <ele>87.8</ele>
        <time>2017-09-23T09:55:00.000Z</time>
      </trkpt>
      <trkpt lat="48.19625" lon="-3.7579">
        <ele>87.8</ele>
        <time>2017-09-23T09:55:01.000Z</time>
      </trkpt>
      <trkpt lat="48.19626" lon="-3.75789">
        <ele>87.9</ele>
        <time>2017-09-23T09:55:02.000Z</time>
      </trkpt>
      <trkpt lat="48.19627" lon="-3.75788">
        <ele>87.9</ele>
        <time>2017-09-23T09:55:03.000Z</time>
      </trkpt>
      <trkpt lat="48.19628" lon="-3.75788">
        <ele>88</ele>
        <time>2017-09-23T09:55:04.000Z</time>
      </trkpt>
      <trkpt lat="48.19629" lon="-3.75787">
        <ele>88</ele>
        <time>2017-09-23T09:55:05.000Z</time>
      </trkpt>
      <trkpt lat="48.1963" lon="-3.75786">
        <ele>88.1</ele>
        <time>2017-09-23T09:55:06.000Z</time>
      </trkpt>
      <trkpt lat="48.19631" lon="-3.75785">
        <ele>88.1</ele>
        <time>2017-09-23T09:55:07.000Z</time>
      </trkpt>
      <trkpt lat="48.19632" lon="-3.75785">
        <ele>88.2</ele>
        <time>2017-09-23T09:55:08.000Z</time>
      </trkpt>
      <trkpt lat="48.19632" lon="-3.75784">
        <ele>88.2</ele>
        <time>2017-09-23T09:55:09.000Z</time>
      </trkpt>
      <trkpt lat="48.19633" lon="-3.75783">
        <ele>88.3</ele>
        <time>2017-09-23T09:55:10.000Z</time>
      </trkpt>
      <trkpt lat="48.19634" lon="-3.75782">
        <ele>88.3</ele>
        <time>2017-09-23T09:55:11.000Z</time>
      </trkpt>
      <trkpt lat="48.19634" lon="-3.75781">
        <ele>88.4</ele>
        <time>2017-09-23T09:55:12.000Z</time>
      </trkpt>
      <trkpt lat="48.19635" lon="-3.75781">
        <ele>88.4</ele>
        <time>2017-09-23T09:55:13.000Z</time>
      </trkpt>
      <trkpt lat="48.19636" lon="-3.7578">
        <ele>88.5</ele>
        <time>2017-09-23T09:55:14.000Z</time>
      </trkpt>
      <trkpt lat="48.19637" lon="-3.75779">
        <ele>88.5</ele>
        <time>2017-09-23T09:55:15.000Z</time>
      </trkpt>
      <trkpt lat="48.19638" lon="-3.75779">
        <ele>88.6</ele>
        <time>2017-09-23T09:55:16.000Z</time>
      </trkpt>
      <trkpt lat="48.19639" lon="-3.75778">
        <ele>88.6</ele>
        <time>2017-09-23T09:55:17.000Z</time>
      </trkpt>
      <trkpt lat="48.1964" lon="-3.75777">
        <ele>88.7</ele>
        <time>2017-09-23T09:55:18.000Z</time>
      </trkpt>
      <trkpt lat="48.19641" lon="-3.75776">
        <ele>88.8</ele>
        <time>2017-09-23T09:55:19.000Z</time>
      </trkpt>
      <trkpt lat="48.19642" lon="-3.75774">
        <ele>88.9</ele>
        <time>2017-09-23T09:55:20.000Z</time>
      </trkpt>
      <trkpt lat="48.19643" lon="-3.75773">
        <ele>89</ele>
        <time>2017-09-23T09:55:21.000Z</time>
      </trkpt>
      <trkpt lat="48.19644" lon="-3.75771">
        <ele>89.1</ele>
        <time>2017-09-23T09:55:22.000Z</time>
      </trkpt>
      <trkpt lat="48.19645" lon="-3.7577">
        <ele>89.2</ele>
        <time>2017-09-23T09:55:23.000Z</time>
      </trkpt>
      <trkpt lat="48.19647" lon="-3.75768">
        <ele>89.3</ele>
        <time>2017-09-23T09:55:24.000Z</time>
      </trkpt>
      <trkpt lat="48.19648" lon="-3.75767">
        <ele>89.4</ele>
        <time>2017-09-23T09:55:25.000Z</time>
      </trkpt>
      <trkpt lat="48.19649" lon="-3.75766">
        <ele>89.5</ele>
        <time>2017-09-23T09:55:26.000Z</time>
      </trkpt>
      <trkpt lat="48.19649" lon="-3.75765">
        <ele>89.6</ele>
        <time>2017-09-23T09:55:27.000Z</time>
      </trkpt>
      <trkpt lat="48.1965" lon="-3.75764">
        <ele>89.7</ele>
        <time>2017-09-23T09:55:28.000Z</time>
      </trkpt>
      <trkpt lat="48.19651" lon="-3.75762">
        <ele>89.7</ele>
        <time>2017-09-23T09:55:29.000Z</time>
      </trkpt>
      <trkpt lat="48.19652" lon="-3.75761">
        <ele>89.8</ele>
        <time>2017-09-23T09:55:30.000Z</time>
      </trkpt>
      <trkpt lat="48.19653" lon="-3.7576">
        <ele>89.9</ele>
        <time>2017-09-23T09:55:31.000Z</time>
      </trkpt>
      <trkpt lat="48.19654" lon="-3.75759">
        <ele>90</ele>
        <time>2017-09-23T09:55:32.000Z</time>
      </trkpt>
      <trkpt lat="48.19655" lon="-3.75758">
        <ele>90.1</ele>
        <time>2017-09-23T09:55:33.000Z</time>
      </trkpt>
      <trkpt lat="48.19656" lon="-3.75757">
        <ele>90.2</ele>
        <time>2017-09-23T09:55:34.000Z</time>
      </trkpt>
      <trkpt lat="48.19657" lon="-3.75756">
        <ele>90.3</ele>
        <time>2017-09-23T09:55:35.000Z</time>
      </trkpt>
      <trkpt lat="48.19658" lon="-3.75755">
        <ele>90.4</ele>
        <time>2017-09-23T09:55:36.000Z</time>
      </trkpt>
      <trkpt lat="48.19659" lon="-3.75753">
        <ele>90.5</ele>
        <time>2017-09-23T09:55:37.000Z</time>
      </trkpt>
      <trkpt lat="48.1966" lon="-3.75752">
        <ele>90.6</ele>
        <time>2017-09-23T09:55:38.000Z</time>
      </trkpt>
      <trkpt lat="48.19661" lon="-3.75751">
        <ele>90.7</ele>
        <time>2017-09-23T09:55:39.000Z</time>
      </trkpt>
      <trkpt lat="48.19662" lon="-3.75749">
        <ele>90.8</ele>
        <time>2017-09-23T09:55:40.000Z</time>
      </trkpt>
      <trkpt lat="48.19663" lon="-3.75748">
        <ele>90.9</ele>
        <time>2017-09-23T09:55:41.000Z</time>
      </trkpt>
      <trkpt lat="48.19664" lon="-3.75746">
        <ele>91</ele>
        <time>2017-09-23T09:55:42.000Z</time>
      </trkpt>
      <trkpt lat="48.19665" lon="-3.75745">
        <ele>91.1</ele>
        <time>2017-09-23T09:55:43.000Z</time>
      </trkpt>
      <trkpt lat="48.19666" lon="-3.75743">
        <ele>91.2</ele>
        <time>2017-09-23T09:55:44.000Z</time>
      </trkpt>
      <trkpt lat="48.19667" lon="-3.75742">
        <ele>91.2</ele>
        <time>2017-09-23T09:55:45.000Z</time>
      </trkpt>
      <trkpt lat="48.19668" lon="-3.7574">
        <ele>91.3</ele>
        <time>2017-09-23T09:55:46.000Z</time>
      </trkpt>
      <trkpt lat="48.19669" lon="-3.75739">
        <ele>91.3</ele>
        <time>2017-09-23T09:55:47.000Z</time>
      </trkpt>
      <trkpt lat="48.1967" lon="-3.75737">
        <ele>91.4</ele>
        <time>2017-09-23T09:55:48.000Z</time>
      </trkpt>
      <trkpt lat="48.19671" lon="-3.75735">
        <ele>91.5</ele>
        <time>2017-09-23T09:55:49.000Z</time>
      </trkpt>
    </trkseg>
  </trk>
</gpx>